<?xml version='1.0' encoding='UTF-8'?><gpx version="1.1" creator="JPX - https://github.com/jenetics/jpx" xmlns="http://www.topografix.com/GPX/1/1"><trk><trkseg><trkpt lat="45.42583260223151" lon="12.073160101933917"><ele>5.0</ele><time>2026-03-24T12:25:22Z</time></trkpt><trkpt lat="45.42575030233424" lon="12.073175197841199"><ele>5.0</ele><time>2026-03-24T12:25:32Z</time></trkpt><trkpt lat="45.425685190643165" lon="12.073222494939317"><ele>5.0</ele><time>2026-03-24T12:25:34Z</time></trkpt><trkpt lat="45.42563575189428" lon="12.07294517140519"><ele>5.0</ele><time>2026-03-24T12:25:46Z</time></trkpt><trkpt lat="45.4256443230133" lon="12.07284994722613"><ele>5.0</ele><time>2026-03-24T12:25:47Z</time></trkpt><trkpt lat="45.425630616507824" lon="12.072738102611305"><ele>5.0</ele><time>2026-03-24T12:25:48Z</time></trkpt><trkpt lat="45.425638690571056" lon="12.07262278480321"><ele>5.0</ele><time>2026-03-24T12:25:49Z</time></trkpt><trkpt lat="45.42564146570115" lon="12.07252080034985"><ele>5.0</ele><time>2026-03-24T12:25:50Z</time></trkpt><trkpt lat="45.42564984375902" lon="12.072384880792319"><ele>5.0</ele><time>2026-03-24T12:25:51Z</time></trkpt><trkpt lat="45.42565485618903" lon="12.07224749848019"><ele>5.0</ele><time>2026-03-24T12:25:52Z</time></trkpt><trkpt lat="45.42565800409991" lon="12.072101121610547"><ele>5.0</ele><time>2026-03-24T12:25:53Z</time></trkpt><trkpt lat="45.425660819818056" lon="12.071950979831213"><ele>5.25</ele><time>2026-03-24T12:25:54Z</time></trkpt><trkpt lat="45.42566068279181" lon="12.071789920805202"><ele>5.5</ele><time>2026-03-24T12:25:55Z</time></trkpt><trkpt lat="45.42566710650744" lon="12.07162511000818"><ele>5.75</ele><time>2026-03-24T12:25:56Z</time></trkpt><trkpt lat="45.425669339170966" lon="12.071457944492357"><ele>6.0</ele><time>2026-03-24T12:25:57Z</time></trkpt><trkpt lat="45.42567429388046" lon="12.07128946015829"><ele>6.0</ele><time>2026-03-24T12:25:58Z</time></trkpt><trkpt lat="45.42567744113004" lon="12.071103607877859"><ele>6.0</ele><time>2026-03-24T12:25:59Z</time></trkpt><trkpt lat="45.425674317983095" lon="12.070907598952827"><ele>6.0</ele><time>2026-03-24T12:26:00Z</time></trkpt><trkpt lat="45.425680177393325" lon="12.07070237973401"><ele>6.0</ele><time>2026-03-24T12:26:01Z</time></trkpt><trkpt lat="45.42568281090958" lon="12.070480191649633"><ele>5.75</ele><time>2026-03-24T12:26:02Z</time></trkpt><trkpt lat="45.42568426073004" lon="12.070247840789893"><ele>5.5</ele><time>2026-03-24T12:26:03Z</time></trkpt><trkpt lat="45.42568285880983" lon="12.07004531079265"><ele>5.25</ele><time>2026-03-24T12:26:04Z</time></trkpt><trkpt lat="45.42568684276814" lon="12.069868006252236"><ele>5.0</ele><time>2026-03-24T12:26:05Z</time></trkpt><trkpt lat="45.425687799461606" lon="12.069701714887898"><ele>4.833333333333334</ele><time>2026-03-24T12:26:06Z</time></trkpt><trkpt lat="45.42568713701164" lon="12.069554963691873"><ele>4.666666666666667</ele><time>2026-03-24T12:26:07Z</time></trkpt><trkpt lat="45.42568860730315" lon="12.069421562185234"><ele>4.5</ele><time>2026-03-24T12:26:08Z</time></trkpt><trkpt lat="45.42568912329918" lon="12.069298599037333"><ele>4.333333333333333</ele><time>2026-03-24T12:26:09Z</time></trkpt><trkpt lat="45.425686730723875" lon="12.069192983374952"><ele>4.166666666666666</ele><time>2026-03-24T12:26:10Z</time></trkpt><trkpt lat="45.42568616837776" lon="12.069094470944075"><ele>4.0</ele><time>2026-03-24T12:26:11Z</time></trkpt><trkpt lat="45.42567705657846" lon="12.068993993711901"><ele>3.6666666666666665</ele><time>2026-03-24T12:26:12Z</time></trkpt><trkpt lat="45.42566791766152" lon="12.068888674512456"><ele>3.333333333333333</ele><time>2026-03-24T12:26:13Z</time></trkpt><trkpt lat="45.42566173210546" lon="12.068775908440836"><ele>3.0</ele><time>2026-03-24T12:26:14Z</time></trkpt><trkpt lat="45.425660149904814" lon="12.068667903066595"><ele>2.6666666666666665</ele><time>2026-03-24T12:26:15Z</time></trkpt><trkpt lat="45.42566444085912" lon="12.068570886769486"><ele>2.333333333333333</ele><time>2026-03-24T12:26:16Z</time></trkpt><trkpt lat="45.42568568826386" lon="12.068478623508554"><ele>2.0</ele><time>2026-03-24T12:26:17Z</time></trkpt><trkpt lat="45.42573305884654" lon="12.068377375902623"><ele>2.0</ele><time>2026-03-24T12:26:18Z</time></trkpt><trkpt lat="45.425810555738714" lon="12.068307147867442"><ele>2.0</ele><time>2026-03-24T12:26:19Z</time></trkpt><trkpt lat="45.42590435977648" lon="12.068271047399413"><ele>2.0</ele><time>2026-03-24T12:26:20Z</time></trkpt><trkpt lat="45.42600731685787" lon="12.06827409992426"><ele>2.0</ele><time>2026-03-24T12:26:21Z</time></trkpt><trkpt lat="45.42611738973024" lon="12.068306553824954"><ele>2.0</ele><time>2026-03-24T12:26:22Z</time></trkpt><trkpt lat="45.426219971321814" lon="12.068353839396755"><ele>2.25</ele><time>2026-03-24T12:26:23Z</time></trkpt><trkpt lat="45.4263395577881" lon="12.068352118757096"><ele>2.5</ele><time>2026-03-24T12:26:24Z</time></trkpt><trkpt lat="45.42648981954261" lon="12.068386215523926"><ele>2.75</ele><time>2026-03-24T12:26:25Z</time></trkpt><trkpt lat="45.42662458545239" lon="12.06840087481116"><ele>3.0</ele><time>2026-03-24T12:26:26Z</time></trkpt><trkpt lat="45.426762686656346" lon="12.068405446128915"><ele>3.0</ele><time>2026-03-24T12:26:27Z</time></trkpt><trkpt lat="45.42688463548877" lon="12.068409084646662"><ele>3.0</ele><time>2026-03-24T12:26:28Z</time></trkpt><trkpt lat="45.42699364666124" lon="12.068417177360526"><ele>3.0</ele><time>2026-03-24T12:26:29Z</time></trkpt><trkpt lat="45.42709528600202" lon="12.068423535043248"><ele>3.0</ele><time>2026-03-24T12:26:30Z</time></trkpt><trkpt lat="45.42716541036257" lon="12.068388202179754"><ele>3.0</ele><time>2026-03-24T12:26:31Z</time></trkpt><trkpt lat="45.42723200401772" lon="12.068341741714326"><ele>3.4</ele><time>2026-03-24T12:26:32Z</time></trkpt><trkpt lat="45.42727985211046" lon="12.068246408684749"><ele>3.8</ele><time>2026-03-24T12:26:33Z</time></trkpt><trkpt lat="45.4273015659013" lon="12.068134792163969"><ele>4.2</ele><time>2026-03-24T12:26:34Z</time></trkpt><trkpt lat="45.42731808724619" lon="12.068007572834585"><ele>4.6</ele><time>2026-03-24T12:26:35Z</time></trkpt><trkpt lat="45.4273211161531" lon="12.067845796748564"><ele>5.0</ele><time>2026-03-24T12:26:36Z</time></trkpt><trkpt lat="45.4273173850773" lon="12.067679380253283"><ele>5.0</ele><time>2026-03-24T12:26:37Z</time></trkpt><trkpt lat="45.42732054308844" lon="12.067502718327452"><ele>5.0</ele><time>2026-03-24T12:26:38Z</time></trkpt><trkpt lat="45.42732411746029" lon="12.067315814234377"><ele>5.0</ele><time>2026-03-24T12:26:39Z</time></trkpt><trkpt lat="45.42732200377156" lon="12.067138020926215"><ele>5.0</ele><time>2026-03-24T12:26:40Z</time></trkpt><trkpt lat="45.42732417016176" lon="12.066944905979836"><ele>4.666666666666667</ele><time>2026-03-24T12:26:41Z</time></trkpt><trkpt lat="45.42732529783113" lon="12.06674073218139"><ele>4.333333333333333</ele><time>2026-03-24T12:26:42Z</time></trkpt><trkpt lat="45.427328056721706" lon="12.066525689244735"><ele>4.0</ele><time>2026-03-24T12:26:42.999Z</time></trkpt><trkpt lat="45.42733501534792" lon="12.066283882238974"><ele>3.5</ele><time>2026-03-24T12:26:43.999Z</time></trkpt><trkpt lat="45.4273247747782" lon="12.066077304828893"><ele>3.0</ele><time>2026-03-24T12:26:44.999Z</time></trkpt><trkpt lat="45.42732983522446" lon="12.065874433812262"><ele>2.5</ele><time>2026-03-24T12:26:45.999Z</time></trkpt><trkpt lat="45.427336048032586" lon="12.06565852567529"><ele>2.0</ele><time>2026-03-24T12:26:46.999Z</time></trkpt><trkpt lat="45.427338268332186" lon="12.06544208658948"><ele>2.0</ele><time>2026-03-24T12:26:47.999Z</time></trkpt><trkpt lat="45.427338995976726" lon="12.065226796560134"><ele>2.0</ele><time>2026-03-24T12:26:48.999Z</time></trkpt><trkpt lat="45.427339371269134" lon="12.065015213884863"><ele>2.0</ele><time>2026-03-24T12:26:49.999Z</time></trkpt><trkpt lat="45.42733849854718" lon="12.064802209880739"><ele>2.0</ele><time>2026-03-24T12:26:50.999Z</time></trkpt><trkpt lat="45.427337334166474" lon="12.064581161444506"><ele>2.0</ele><time>2026-03-24T12:26:51.999Z</time></trkpt><trkpt lat="45.4273347528162" lon="12.064347476327157"><ele>2.0</ele><time>2026-03-24T12:26:52.999Z</time></trkpt><trkpt lat="45.427339783111684" lon="12.064099301721836"><ele>2.0</ele><time>2026-03-24T12:26:53.999Z</time></trkpt><trkpt lat="45.427339048639325" lon="12.06383763923485"><ele>2.0</ele><time>2026-03-24T12:26:54.999Z</time></trkpt><trkpt lat="45.42735241525875" lon="12.063563039616037"><ele>2.0</ele><time>2026-03-24T12:26:55.999Z</time></trkpt><trkpt lat="45.42736129462411" lon="12.063297928276427"><ele>2.0</ele><time>2026-03-24T12:26:56.999Z</time></trkpt><trkpt lat="45.427368013421365" lon="12.063030221984194"><ele>2.0</ele><time>2026-03-24T12:26:57.999Z</time></trkpt><trkpt lat="45.427374318045594" lon="12.062763551846619"><ele>2.0</ele><time>2026-03-24T12:26:58.999Z</time></trkpt><trkpt lat="45.42736949348312" lon="12.06249957202898"><ele>2.0</ele><time>2026-03-24T12:26:59.999Z</time></trkpt><trkpt lat="45.42737540724314" lon="12.062234823690362"><ele>2.0</ele><time>2026-03-24T12:27:00.999Z</time></trkpt><trkpt lat="45.42737712442783" lon="12.06197358323476"><ele>2.0</ele><time>2026-03-24T12:27:01.999Z</time></trkpt><trkpt lat="45.42737914956232" lon="12.0617172704178"><ele>2.0</ele><time>2026-03-24T12:27:02.999Z</time></trkpt><trkpt lat="45.42737934375458" lon="12.061467837274495"><ele>2.333333333333333</ele><time>2026-03-24T12:27:03.999Z</time></trkpt><trkpt lat="45.427379561573794" lon="12.061228889280182"><ele>2.6666666666666665</ele><time>2026-03-24T12:27:04.999Z</time></trkpt><trkpt lat="45.42738177721769" lon="12.060994748110748"><ele>3.0</ele><time>2026-03-24T12:27:05.999Z</time></trkpt><trkpt lat="45.42738542133524" lon="12.060768503783427"><ele>3.0</ele><time>2026-03-24T12:27:06.999Z</time></trkpt><trkpt lat="45.42739002451783" lon="12.060544250394898"><ele>3.0</ele><time>2026-03-24T12:27:07.999Z</time></trkpt><trkpt lat="45.427399400559295" lon="12.060329018116072"><ele>3.0</ele><time>2026-03-24T12:27:08.999Z</time></trkpt><trkpt lat="45.42740100827799" lon="12.060111634137815"><ele>2.6666666666666665</ele><time>2026-03-24T12:27:09.999Z</time></trkpt><trkpt lat="45.42740167093738" lon="12.059891629499111"><ele>2.333333333333333</ele><time>2026-03-24T12:27:10.999Z</time></trkpt><trkpt lat="45.42740348886417" lon="12.059675830707787"><ele>2.0</ele><time>2026-03-24T12:27:11.999Z</time></trkpt><trkpt lat="45.42740701238541" lon="12.059459184106387"><ele>2.0</ele><time>2026-03-24T12:27:12.999Z</time></trkpt><trkpt lat="45.42741002131965" lon="12.05923132445463"><ele>2.0</ele><time>2026-03-24T12:27:13.999Z</time></trkpt><trkpt lat="45.427424932317386" lon="12.058999007481143"><ele>2.0</ele><time>2026-03-24T12:27:14.999Z</time></trkpt><trkpt lat="45.42745083834855" lon="12.058774408933889"><ele>2.333333333333333</ele><time>2026-03-24T12:27:15.999Z</time></trkpt><trkpt lat="45.42749968515485" lon="12.058533634327981"><ele>2.6666666666666665</ele><time>2026-03-24T12:27:16.999Z</time></trkpt><trkpt lat="45.427575209000885" lon="12.058307517892311"><ele>3.0</ele><time>2026-03-24T12:27:17.999Z</time></trkpt><trkpt lat="45.42767513755685" lon="12.058089947475256"><ele>3.0</ele><time>2026-03-24T12:27:18.999Z</time></trkpt><trkpt lat="45.42778954611012" lon="12.057872681734132"><ele>3.0</ele><time>2026-03-24T12:27:19.999Z</time></trkpt><trkpt lat="45.42788684939023" lon="12.057646051534112"><ele>3.0</ele><time>2026-03-24T12:27:20.999Z</time></trkpt><trkpt lat="45.42798497005078" lon="12.057414794191272"><ele>3.0</ele><time>2026-03-24T12:27:21.999Z</time></trkpt><trkpt lat="45.428081651435235" lon="12.057178932728602"><ele>3.0</ele><time>2026-03-24T12:27:22.999Z</time></trkpt><trkpt lat="45.428177413702116" lon="12.05694456920952"><ele>3.0</ele><time>2026-03-24T12:27:23.999Z</time></trkpt><trkpt lat="45.4282752784691" lon="12.056709499965612"><ele>4.0</ele><time>2026-03-24T12:27:24.999Z</time></trkpt><trkpt lat="45.42837484784382" lon="12.056476263871868"><ele>5.0</ele><time>2026-03-24T12:27:25.999Z</time></trkpt><trkpt lat="45.42846836250763" lon="12.056245833852886"><ele>6.0</ele><time>2026-03-24T12:27:26.999Z</time></trkpt><trkpt lat="45.42856484354981" lon="12.056013633027334"><ele>5.666666666666667</ele><time>2026-03-24T12:27:27.999Z</time></trkpt><trkpt lat="45.42866223062679" lon="12.055785866201505"><ele>5.333333333333334</ele><time>2026-03-24T12:27:28.999Z</time></trkpt><trkpt lat="45.428758377117504" lon="12.055561620562537"><ele>5.0</ele><time>2026-03-24T12:27:29.999Z</time></trkpt><trkpt lat="45.42885675592739" lon="12.05533446879261"><ele>4.666666666666667</ele><time>2026-03-24T12:27:31Z</time></trkpt><trkpt lat="45.42894708781508" lon="12.055107552306907"><ele>4.333333333333333</ele><time>2026-03-24T12:27:32Z</time></trkpt><trkpt lat="45.42903677881047" lon="12.054872107471924"><ele>4.0</ele><time>2026-03-24T12:27:33Z</time></trkpt><trkpt lat="45.42911434286535" lon="12.054644133066907"><ele>3.0</ele><time>2026-03-24T12:27:34Z</time></trkpt><trkpt lat="45.42920209014273" lon="12.054422206949468"><ele>2.0</ele><time>2026-03-24T12:27:35Z</time></trkpt><trkpt lat="45.42930308786091" lon="12.054213462929237"><ele>1.0</ele><time>2026-03-24T12:27:36Z</time></trkpt><trkpt lat="45.42939526146844" lon="12.05399250177792"><ele>1.0</ele><time>2026-03-24T12:27:37Z</time></trkpt><trkpt lat="45.4294970097171" lon="12.053771855863195"><ele>1.0</ele><time>2026-03-24T12:27:38Z</time></trkpt><trkpt lat="45.42960668369992" lon="12.053550909813142"><ele>1.0</ele><time>2026-03-24T12:27:39Z</time></trkpt><trkpt lat="45.429732511105335" lon="12.053340462952427"><ele>2.0</ele><time>2026-03-24T12:27:40Z</time></trkpt><trkpt lat="45.42987140527366" lon="12.053148670097299"><ele>3.0</ele><time>2026-03-24T12:27:41Z</time></trkpt><trkpt lat="45.430018000365486" lon="12.05296644152506"><ele>4.0</ele><time>2026-03-24T12:27:42Z</time></trkpt><trkpt lat="45.4301700323547" lon="12.052795759154229"><ele>4.0</ele><time>2026-03-24T12:27:43Z</time></trkpt><trkpt lat="45.43033372255607" lon="12.052637429783672"><ele>4.0</ele><time>2026-03-24T12:27:44Z</time></trkpt><trkpt lat="45.43050982574692" lon="12.052497336826791"><ele>4.0</ele><time>2026-03-24T12:27:45Z</time></trkpt><trkpt lat="45.430692319786296" lon="12.052373532589833"><ele>3.6666666666666665</ele><time>2026-03-24T12:27:46Z</time></trkpt><trkpt lat="45.43088053585578" lon="12.052275858534415"><ele>3.333333333333333</ele><time>2026-03-24T12:27:47Z</time></trkpt><trkpt lat="45.43107477098176" lon="12.052197107785004"><ele>3.0</ele><time>2026-03-24T12:27:48Z</time></trkpt><trkpt lat="45.4312737068542" lon="12.052141037999661"><ele>3.0</ele><time>2026-03-24T12:27:49Z</time></trkpt><trkpt lat="45.43147222558902" lon="12.052098463124171"><ele>3.0</ele><time>2026-03-24T12:27:50Z</time></trkpt><trkpt lat="45.431677027767066" lon="12.052060256113062"><ele>3.0</ele><time>2026-03-24T12:27:51Z</time></trkpt><trkpt lat="45.43188784403334" lon="12.051999243230485"><ele>3.0</ele><time>2026-03-24T12:27:52Z</time></trkpt><trkpt lat="45.43210203950132" lon="12.051966091881521"><ele>3.0</ele><time>2026-03-24T12:27:53Z</time></trkpt><trkpt lat="45.432304016420986" lon="12.051929584104958"><ele>3.0</ele><time>2026-03-24T12:27:54Z</time></trkpt><trkpt lat="45.432494735374306" lon="12.051894169347813"><ele>3.0</ele><time>2026-03-24T12:27:55Z</time></trkpt><trkpt lat="45.432669084167294" lon="12.051860283254895"><ele>3.0</ele><time>2026-03-24T12:27:56Z</time></trkpt><trkpt lat="45.432841879443224" lon="12.051821212307926"><ele>3.0</ele><time>2026-03-24T12:27:57Z</time></trkpt><trkpt lat="45.43301216590091" lon="12.051785079994685"><ele>3.333333333333333</ele><time>2026-03-24T12:27:58Z</time></trkpt><trkpt lat="45.4331877776853" lon="12.051751021916134"><ele>3.6666666666666665</ele><time>2026-03-24T12:27:59Z</time></trkpt><trkpt lat="45.433363962383474" lon="12.051719682207446"><ele>4.0</ele><time>2026-03-24T12:28:00Z</time></trkpt><trkpt lat="45.433544141933346" lon="12.05168791088149"><ele>4.0</ele><time>2026-03-24T12:28:01Z</time></trkpt><trkpt lat="45.43373038872638" lon="12.051657351769009"><ele>4.0</ele><time>2026-03-24T12:28:02Z</time></trkpt><trkpt lat="45.43391280828462" lon="12.051616687623852"><ele>4.0</ele><time>2026-03-24T12:28:03Z</time></trkpt><trkpt lat="45.43410485287714" lon="12.05157446096377"><ele>4.333333333333333</ele><time>2026-03-24T12:28:04Z</time></trkpt><trkpt lat="45.43428776722604" lon="12.05153650556202"><ele>4.666666666666667</ele><time>2026-03-24T12:28:05Z</time></trkpt><trkpt lat="45.434481320968246" lon="12.051502037080507"><ele>5.0</ele><time>2026-03-24T12:28:06Z</time></trkpt><trkpt lat="45.434675352601275" lon="12.051471096521393"><ele>4.0</ele><time>2026-03-24T12:28:07Z</time></trkpt><trkpt lat="45.43485998978817" lon="12.051436452323397"><ele>3.0</ele><time>2026-03-24T12:28:08Z</time></trkpt><trkpt lat="45.43504307281835" lon="12.05139485085676"><ele>2.0</ele><time>2026-03-24T12:28:09Z</time></trkpt><trkpt lat="45.43521929444327" lon="12.051359947698348"><ele>2.0</ele><time>2026-03-24T12:28:10Z</time></trkpt><trkpt lat="45.43537794259245" lon="12.051326425525373"><ele>2.0</ele><time>2026-03-24T12:28:11Z</time></trkpt><trkpt lat="45.43553260707996" lon="12.051296157386412"><ele>2.0</ele><time>2026-03-24T12:28:12Z</time></trkpt><trkpt lat="45.43567200735169" lon="12.051283959297356"><ele>2.75</ele><time>2026-03-24T12:28:13Z</time></trkpt><trkpt lat="45.43580969948762" lon="12.051258050469189"><ele>3.5</ele><time>2026-03-24T12:28:14Z</time></trkpt><trkpt lat="45.43593718606186" lon="12.051243090803352"><ele>4.25</ele><time>2026-03-24T12:28:15Z</time></trkpt><trkpt lat="45.43605322762952" lon="12.051219002123775"><ele>5.0</ele><time>2026-03-24T12:28:16Z</time></trkpt><trkpt lat="45.43615788814905" lon="12.051191870880592"><ele>5.0</ele><time>2026-03-24T12:28:17Z</time></trkpt><trkpt lat="45.4362592238471" lon="12.05117540381281"><ele>5.0</ele><time>2026-03-24T12:28:18Z</time></trkpt><trkpt lat="45.436354339134674" lon="12.05115912473278"><ele>5.0</ele><time>2026-03-24T12:28:19Z</time></trkpt><trkpt lat="45.436445011500275" lon="12.051159388603981"><ele>5.0</ele><time>2026-03-24T12:28:20Z</time></trkpt><trkpt lat="45.436522652026795" lon="12.051146710793926"><ele>5.0</ele><time>2026-03-24T12:28:21Z</time></trkpt><trkpt lat="45.4365997658634" lon="12.05112182033833"><ele>5.0</ele><time>2026-03-24T12:28:22Z</time></trkpt><trkpt lat="45.4366824335514" lon="12.051104294912045"><ele>5.0</ele><time>2026-03-24T12:28:23Z</time></trkpt><trkpt lat="45.43678264178566" lon="12.051074165549572"><ele>5.0</ele><time>2026-03-24T12:28:24Z</time></trkpt><trkpt lat="45.43687986985255" lon="12.051059612658603"><ele>5.0</ele><time>2026-03-24T12:28:25Z</time></trkpt><trkpt lat="45.436990745669206" lon="12.051036007176771"><ele>5.0</ele><time>2026-03-24T12:28:26Z</time></trkpt><trkpt lat="45.43710213436246" lon="12.051007949683859"><ele>5.0</ele><time>2026-03-24T12:28:27Z</time></trkpt><trkpt lat="45.437225286009394" lon="12.050985772805095"><ele>5.0</ele><time>2026-03-24T12:28:28Z</time></trkpt><trkpt lat="45.43735997111916" lon="12.050952197327167"><ele>5.0</ele><time>2026-03-24T12:28:29Z</time></trkpt><trkpt lat="45.43749434892583" lon="12.050930618383036"><ele>5.0</ele><time>2026-03-24T12:28:30Z</time></trkpt><trkpt lat="45.437630115613" lon="12.050901171868155"><ele>5.0</ele><time>2026-03-24T12:28:31Z</time></trkpt><trkpt lat="45.43777368171707" lon="12.050874195144283"><ele>5.0</ele><time>2026-03-24T12:28:32Z</time></trkpt><trkpt lat="45.43791185762286" lon="12.050852115687391"><ele>5.0</ele><time>2026-03-24T12:28:33Z</time></trkpt><trkpt lat="45.438046933168145" lon="12.050825328220855"><ele>5.0</ele><time>2026-03-24T12:28:34Z</time></trkpt><trkpt lat="45.43817259459233" lon="12.05078026546066"><ele>5.0</ele><time>2026-03-24T12:28:35Z</time></trkpt><trkpt lat="45.43827491490022" lon="12.050758056432732"><ele>5.166666666666667</ele><time>2026-03-24T12:28:36Z</time></trkpt><trkpt lat="45.43837901177449" lon="12.050744435158672"><ele>5.333333333333334</ele><time>2026-03-24T12:28:37Z</time></trkpt><trkpt lat="45.43846419041963" lon="12.050735733396216"><ele>5.5</ele><time>2026-03-24T12:28:38Z</time></trkpt><trkpt lat="45.43855050803419" lon="12.05071721171151"><ele>5.666666666666667</ele><time>2026-03-24T12:28:39Z</time></trkpt><trkpt lat="45.43863903357359" lon="12.050704408114221"><ele>5.833333333333333</ele><time>2026-03-24T12:28:40Z</time></trkpt><trkpt lat="45.43871779565265" lon="12.05069311171635"><ele>6.0</ele><time>2026-03-24T12:28:41Z</time></trkpt><trkpt lat="45.438788803216596" lon="12.050685546868538"><ele>5.833333333333333</ele><time>2026-03-24T12:28:42Z</time></trkpt><trkpt lat="45.438869737094166" lon="12.050672827172097"><ele>5.666666666666667</ele><time>2026-03-24T12:28:43Z</time></trkpt><trkpt lat="45.43895311120783" lon="12.05063202115877"><ele>5.5</ele><time>2026-03-24T12:28:45Z</time></trkpt><trkpt lat="45.439027329273344" lon="12.050618283794577"><ele>5.333333333333334</ele><time>2026-03-24T12:28:47Z</time></trkpt><trkpt lat="45.43909211027496" lon="12.050610489279835"><ele>5.166666666666667</ele><time>2026-03-24T12:28:50Z</time></trkpt><trkpt lat="45.439139677639496" lon="12.050503433646451"><ele>5.0</ele><time>2026-03-24T12:28:57Z</time></trkpt><trkpt lat="45.439113438762774" lon="12.050361029291214"><ele>5.0</ele><time>2026-03-24T12:28:59Z</time></trkpt><trkpt lat="45.43909378806449" lon="12.050258858131944"><ele>5.0</ele><time>2026-03-24T12:29:00Z</time></trkpt><trkpt lat="45.439073358577495" lon="12.050152670456871"><ele>5.0</ele><time>2026-03-24T12:29:01Z</time></trkpt><trkpt lat="45.4390562514839" lon="12.05002863438255"><ele>5.0</ele><time>2026-03-24T12:29:02Z</time></trkpt><trkpt lat="45.43903673295437" lon="12.049912435739328"><ele>5.0</ele><time>2026-03-24T12:29:03Z</time></trkpt><trkpt lat="45.439012138949096" lon="12.049792616572885"><ele>5.0</ele><time>2026-03-24T12:29:04Z</time></trkpt><trkpt lat="45.43898280945007" lon="12.049665413361701"><ele>5.0</ele><time>2026-03-24T12:29:05Z</time></trkpt><trkpt lat="45.43895663418532" lon="12.049526247029366"><ele>5.0</ele><time>2026-03-24T12:29:06Z</time></trkpt><trkpt lat="45.43892731544348" lon="12.04937787248899"><ele>5.0</ele><time>2026-03-24T12:29:07Z</time></trkpt><trkpt lat="45.43889805627478" lon="12.049225288144228"><ele>5.0</ele><time>2026-03-24T12:29:08Z</time></trkpt><trkpt lat="45.43885789820916" lon="12.049074757094441"><ele>5.0</ele><time>2026-03-24T12:29:09Z</time></trkpt><trkpt lat="45.438828329700975" lon="12.048909057135427"><ele>5.0</ele><time>2026-03-24T12:29:10Z</time></trkpt><trkpt lat="45.438791316710294" lon="12.048735812053868"><ele>5.0</ele><time>2026-03-24T12:29:11Z</time></trkpt><trkpt lat="45.43875040795574" lon="12.048550911253544"><ele>5.0</ele><time>2026-03-24T12:29:12Z</time></trkpt><trkpt lat="45.43870508908148" lon="12.048358066998391"><ele>5.0</ele><time>2026-03-24T12:29:13Z</time></trkpt><trkpt lat="45.43866127583319" lon="12.048149687318725"><ele>5.333333333333334</ele><time>2026-03-24T12:29:14Z</time></trkpt><trkpt lat="45.4386090761321" lon="12.047943706099245"><ele>5.666666666666667</ele><time>2026-03-24T12:29:15Z</time></trkpt><trkpt lat="45.438571421388076" lon="12.047714870355668"><ele>6.0</ele><time>2026-03-24T12:29:16Z</time></trkpt><trkpt lat="45.438550657859984" lon="12.047464502692595"><ele>6.333333333333334</ele><time>2026-03-24T12:29:17Z</time></trkpt><trkpt lat="45.438547082959964" lon="12.047211345293038"><ele>6.666666666666667</ele><time>2026-03-24T12:29:18Z</time></trkpt><trkpt lat="45.43854868078764" lon="12.04698805660297"><ele>7.0</ele><time>2026-03-24T12:29:19Z</time></trkpt><trkpt lat="45.43855598753082" lon="12.046774542758982"><ele>6.5</ele><time>2026-03-24T12:29:20Z</time></trkpt><trkpt lat="45.4385724489342" lon="12.046585565430037"><ele>6.0</ele><time>2026-03-24T12:29:21Z</time></trkpt><trkpt lat="45.43862240977088" lon="12.046426575885818"><ele>5.5</ele><time>2026-03-24T12:29:22Z</time></trkpt><trkpt lat="45.43869426524162" lon="12.04629728940735"><ele>5.0</ele><time>2026-03-24T12:29:23Z</time></trkpt><trkpt lat="45.43880802671198" lon="12.046214860216013"><ele>4.75</ele><time>2026-03-24T12:29:24Z</time></trkpt><trkpt lat="45.438938329193526" lon="12.046150563405616"><ele>4.5</ele><time>2026-03-24T12:29:25Z</time></trkpt><trkpt lat="45.43907217582564" lon="12.046100053324485"><ele>4.25</ele><time>2026-03-24T12:29:26Z</time></trkpt><trkpt lat="45.439209064171585" lon="12.046031608244737"><ele>4.0</ele><time>2026-03-24T12:29:27Z</time></trkpt><trkpt lat="45.43935071798718" lon="12.045943143686968"><ele>4.0</ele><time>2026-03-24T12:29:28Z</time></trkpt><trkpt lat="45.43950060731153" lon="12.045831370926521"><ele>4.0</ele><time>2026-03-24T12:29:29Z</time></trkpt><trkpt lat="45.43964396278847" lon="12.04571558649299"><ele>4.0</ele><time>2026-03-24T12:29:30Z</time></trkpt><trkpt lat="45.43980008280362" lon="12.045598333880656"><ele>4.666666666666666</ele><time>2026-03-24T12:29:31Z</time></trkpt><trkpt lat="45.43996183790048" lon="12.04550195217213"><ele>5.333333333333333</ele><time>2026-03-24T12:29:32Z</time></trkpt><trkpt lat="45.44012853431484" lon="12.045418211542962"><ele>6.0</ele><time>2026-03-24T12:29:33Z</time></trkpt><trkpt lat="45.440296335951025" lon="12.045344063131282"><ele>5.666666666666667</ele><time>2026-03-24T12:29:34Z</time></trkpt><trkpt lat="45.44046767147367" lon="12.045279373612551"><ele>5.333333333333334</ele><time>2026-03-24T12:29:35Z</time></trkpt><trkpt lat="45.44063460726175" lon="12.045210619787142"><ele>5.0</ele><time>2026-03-24T12:29:36Z</time></trkpt><trkpt lat="45.44079598309048" lon="12.045155076245717"><ele>5.0</ele><time>2026-03-24T12:29:37Z</time></trkpt><trkpt lat="45.440956310084545" lon="12.045157443256278"><ele>5.0</ele><time>2026-03-24T12:29:38Z</time></trkpt><trkpt lat="45.44110954351321" lon="12.045171395751844"><ele>5.0</ele><time>2026-03-24T12:29:39Z</time></trkpt><trkpt lat="45.441283064923475" lon="12.045211369499688"><ele>4.666666666666667</ele><time>2026-03-24T12:29:40Z</time></trkpt><trkpt lat="45.44145135938967" lon="12.045270700268285"><ele>4.333333333333333</ele><time>2026-03-24T12:29:41Z</time></trkpt><trkpt lat="45.44161413832663" lon="12.045383913347676"><ele>4.0</ele><time>2026-03-24T12:29:42Z</time></trkpt><trkpt lat="45.44177188693951" lon="12.045507937533472"><ele>4.0</ele><time>2026-03-24T12:29:43Z</time></trkpt><trkpt lat="45.441925714026866" lon="12.04563673919038"><ele>4.0</ele><time>2026-03-24T12:29:44Z</time></trkpt><trkpt lat="45.44208466866175" lon="12.045761711112462"><ele>4.0</ele><time>2026-03-24T12:29:45Z</time></trkpt><trkpt lat="45.44225544290328" lon="12.045878551196923"><ele>4.0</ele><time>2026-03-24T12:29:46Z</time></trkpt><trkpt lat="45.44243810388818" lon="12.045978511709796"><ele>4.0</ele><time>2026-03-24T12:29:47Z</time></trkpt><trkpt lat="45.44260260348154" lon="12.046095301325538"><ele>4.0</ele><time>2026-03-24T12:29:48Z</time></trkpt><trkpt lat="45.44278858377256" lon="12.046202046234558"><ele>3.333333333333333</ele><time>2026-03-24T12:29:49Z</time></trkpt><trkpt lat="45.44297769115234" lon="12.046300664411357"><ele>2.6666666666666665</ele><time>2026-03-24T12:29:50Z</time></trkpt><trkpt lat="45.44316065921673" lon="12.046352830032504"><ele>2.0</ele><time>2026-03-24T12:29:51Z</time></trkpt><trkpt lat="45.443327630943806" lon="12.046412551537136"><ele>2.0</ele><time>2026-03-24T12:29:52Z</time></trkpt><trkpt lat="45.44348662439699" lon="12.046466307563595"><ele>2.0</ele><time>2026-03-24T12:29:53Z</time></trkpt><trkpt lat="45.443643105056424" lon="12.046524018654463"><ele>2.0</ele><time>2026-03-24T12:29:54Z</time></trkpt><trkpt lat="45.443800920978475" lon="12.046579879690778"><ele>2.6666666666666665</ele><time>2026-03-24T12:29:55Z</time></trkpt><trkpt lat="45.44395027820017" lon="12.046632520016322"><ele>3.333333333333333</ele><time>2026-03-24T12:29:56Z</time></trkpt><trkpt lat="45.4441046356712" lon="12.046692536090761"><ele>4.0</ele><time>2026-03-24T12:29:57Z</time></trkpt><trkpt lat="45.44425847528078" lon="12.046753454939067"><ele>4.0</ele><time>2026-03-24T12:29:58Z</time></trkpt><trkpt lat="45.44440837113978" lon="12.046811962396275"><ele>4.0</ele><time>2026-03-24T12:29:59Z</time></trkpt><trkpt lat="45.44456257389771" lon="12.046870551361044"><ele>4.0</ele><time>2026-03-24T12:30:00Z</time></trkpt><trkpt lat="45.44471549065019" lon="12.0469294525447"><ele>4.0</ele><time>2026-03-24T12:30:01Z</time></trkpt><trkpt lat="45.444858049375675" lon="12.046985589455579"><ele>4.0</ele><time>2026-03-24T12:30:02Z</time></trkpt><trkpt lat="45.44498577314689" lon="12.0470519771439"><ele>4.0</ele><time>2026-03-24T12:30:03Z</time></trkpt><trkpt lat="45.44511194535302" lon="12.04707891443669"><ele>4.0</ele><time>2026-03-24T12:30:04Z</time></trkpt><trkpt lat="45.4452278669836" lon="12.047139401932117"><ele>4.0</ele><time>2026-03-24T12:30:05Z</time></trkpt><trkpt lat="45.44532873964274" lon="12.047189243027438"><ele>4.0</ele><time>2026-03-24T12:30:06Z</time></trkpt><trkpt lat="45.445418367767935" lon="12.04724706829221"><ele>4.0</ele><time>2026-03-24T12:30:07Z</time></trkpt><trkpt lat="45.44550005165455" lon="12.047327868642904"><ele>4.0</ele><time>2026-03-24T12:30:08Z</time></trkpt><trkpt lat="45.44558861904833" lon="12.047344352567348"><ele>4.0</ele><time>2026-03-24T12:30:09Z</time></trkpt><trkpt lat="45.445620827052025" lon="12.047558717087654"><ele>4.0</ele><time>2026-03-24T12:30:10Z</time></trkpt><trkpt lat="45.445667934215" lon="12.047697863478023"><ele>4.0</ele><time>2026-03-24T12:30:11Z</time></trkpt><trkpt lat="45.44574807470058" lon="12.047819437896091"><ele>4.0</ele><time>2026-03-24T12:30:12Z</time></trkpt><trkpt lat="45.4458579964376" lon="12.047912773673138"><ele>4.0</ele><time>2026-03-24T12:30:13Z</time></trkpt><trkpt lat="45.445980479399516" lon="12.04795217390545"><ele>4.0</ele><time>2026-03-24T12:30:14Z</time></trkpt><trkpt lat="45.44606574312465" lon="12.04812538954925"><ele>4.0</ele><time>2026-03-24T12:30:15Z</time></trkpt><trkpt lat="45.446108551056646" lon="12.048314786614899"><ele>4.0</ele><time>2026-03-24T12:30:16Z</time></trkpt><trkpt lat="45.44613890227386" lon="12.048520546113888"><ele>4.0</ele><time>2026-03-24T12:30:17Z</time></trkpt><trkpt lat="45.4461677717287" lon="12.048734561995063"><ele>4.0</ele><time>2026-03-24T12:30:18Z</time></trkpt><trkpt lat="45.44621501289552" lon="12.048956307800093"><ele>4.0</ele><time>2026-03-24T12:30:19Z</time></trkpt><trkpt lat="45.446300993672615" lon="12.049178623916513"><ele>4.0</ele><time>2026-03-24T12:30:20Z</time></trkpt><trkpt lat="45.4464063097501" lon="12.049385641314625"><ele>3.333333333333333</ele><time>2026-03-24T12:30:21Z</time></trkpt><trkpt lat="45.44653689102225" lon="12.049584387703987"><ele>2.6666666666666665</ele><time>2026-03-24T12:30:22Z</time></trkpt><trkpt lat="45.446680349221026" lon="12.049775609431197"><ele>2.0</ele><time>2026-03-24T12:30:23Z</time></trkpt><trkpt lat="45.446846260878914" lon="12.049930339324545"><ele>2.0</ele><time>2026-03-24T12:30:24Z</time></trkpt><trkpt lat="45.44702446695202" lon="12.05005976819314"><ele>2.0</ele><time>2026-03-24T12:30:25Z</time></trkpt><trkpt lat="45.447210622192564" lon="12.050161569813898"><ele>2.0</ele><time>2026-03-24T12:30:26Z</time></trkpt><trkpt lat="45.44740026718791" lon="12.050236446939543"><ele>2.0</ele><time>2026-03-24T12:30:27Z</time></trkpt><trkpt lat="45.44759486413075" lon="12.050270658381855"><ele>2.0</ele><time>2026-03-24T12:30:28Z</time></trkpt><trkpt lat="45.44779212815653" lon="12.050259846079685"><ele>2.0</ele><time>2026-03-24T12:30:29Z</time></trkpt><trkpt lat="45.44799316730145" lon="12.05020838482073"><ele>2.6666666666666665</ele><time>2026-03-24T12:30:30Z</time></trkpt><trkpt lat="45.44819188884287" lon="12.050136621165446"><ele>3.333333333333333</ele><time>2026-03-24T12:30:31Z</time></trkpt><trkpt lat="45.448392457651785" lon="12.050050598546074"><ele>4.0</ele><time>2026-03-24T12:30:32Z</time></trkpt><trkpt lat="45.44858541579854" lon="12.049986725928484"><ele>3.6666666666666665</ele><time>2026-03-24T12:30:33Z</time></trkpt><trkpt lat="45.44878189965558" lon="12.049886275099764"><ele>3.333333333333333</ele><time>2026-03-24T12:30:34Z</time></trkpt><trkpt lat="45.448987639872996" lon="12.049811189415632"><ele>3.0</ele><time>2026-03-24T12:30:35Z</time></trkpt><trkpt lat="45.44918730539623" lon="12.049732487350493"><ele>2.6666666666666665</ele><time>2026-03-24T12:30:36Z</time></trkpt><trkpt lat="45.44938964110031" lon="12.049650366844942"><ele>2.333333333333333</ele><time>2026-03-24T12:30:37Z</time></trkpt><trkpt lat="45.44958424086017" lon="12.049572400213309"><ele>2.0</ele><time>2026-03-24T12:30:38Z</time></trkpt><trkpt lat="45.449768167433405" lon="12.049502074028617"><ele>2.6666666666666665</ele><time>2026-03-24T12:30:39Z</time></trkpt><trkpt lat="45.44994226441472" lon="12.049434324877225"><ele>3.333333333333333</ele><time>2026-03-24T12:30:40Z</time></trkpt><trkpt lat="45.45010756189767" lon="12.049364247015811"><ele>4.0</ele><time>2026-03-24T12:30:41Z</time></trkpt><trkpt lat="45.45026895037514" lon="12.049295999579618"><ele>4.0</ele><time>2026-03-24T12:30:42Z</time></trkpt><trkpt lat="45.45042578800526" lon="12.049229549807832"><ele>4.0</ele><time>2026-03-24T12:30:43Z</time></trkpt><trkpt lat="45.450572413186535" lon="12.049154427982412"><ele>4.0</ele><time>2026-03-24T12:30:44Z</time></trkpt><trkpt lat="45.450705913521716" lon="12.049061840422512"><ele>3.75</ele><time>2026-03-24T12:30:45Z</time></trkpt><trkpt lat="45.450826987525595" lon="12.048953857839157"><ele>3.5</ele><time>2026-03-24T12:30:46Z</time></trkpt><trkpt lat="45.45094080848987" lon="12.04884039098219"><ele>3.25</ele><time>2026-03-24T12:30:47Z</time></trkpt><trkpt lat="45.45103638122249" lon="12.048724842147871"><ele>3.0</ele><time>2026-03-24T12:30:48Z</time></trkpt><trkpt lat="45.45112276518856" lon="12.04861832569838"><ele>3.0</ele><time>2026-03-24T12:30:49Z</time></trkpt><trkpt lat="45.45120321863689" lon="12.048502692883721"><ele>3.0</ele><time>2026-03-24T12:30:50Z</time></trkpt><trkpt lat="45.45125997210833" lon="12.048361481108874"><ele>3.0</ele><time>2026-03-24T12:30:51Z</time></trkpt><trkpt lat="45.45134899157588" lon="12.048260088273441"><ele>3.0</ele><time>2026-03-24T12:30:52Z</time></trkpt><trkpt lat="45.45143686339612" lon="12.048155014375114"><ele>3.0</ele><time>2026-03-24T12:30:53Z</time></trkpt><trkpt lat="45.45154083220135" lon="12.048068458328666"><ele>3.0</ele><time>2026-03-24T12:30:54Z</time></trkpt><trkpt lat="45.45165608004318" lon="12.048001516568274"><ele>3.0</ele><time>2026-03-24T12:30:55Z</time></trkpt><trkpt lat="45.45177777072569" lon="12.04796459398941"><ele>3.0</ele><time>2026-03-24T12:30:56Z</time></trkpt><trkpt lat="45.45190166385587" lon="12.047914334749823"><ele>3.0</ele><time>2026-03-24T12:30:57Z</time></trkpt><trkpt lat="45.45205246809165" lon="12.04800321758302"><ele>3.0</ele><time>2026-03-24T12:30:58Z</time></trkpt><trkpt lat="45.45220375661197" lon="12.048039408356159"><ele>3.0</ele><time>2026-03-24T12:30:59Z</time></trkpt><trkpt lat="45.45237186175175" lon="12.048120605998275"><ele>3.0</ele><time>2026-03-24T12:31:00Z</time></trkpt><trkpt lat="45.45252402107854" lon="12.048180732851142"><ele>3.0</ele><time>2026-03-24T12:31:01Z</time></trkpt><trkpt lat="45.45267516067351" lon="12.048231430331892"><ele>3.0</ele><time>2026-03-24T12:31:02Z</time></trkpt><trkpt lat="45.452837691502474" lon="12.048286541517417"><ele>3.5</ele><time>2026-03-24T12:31:03Z</time></trkpt><trkpt lat="45.452992824594595" lon="12.048334766609551"><ele>4.0</ele><time>2026-03-24T12:31:04Z</time></trkpt><trkpt lat="45.45313040029062" lon="12.048379660320508"><ele>4.5</ele><time>2026-03-24T12:31:05Z</time></trkpt><trkpt lat="45.453262139123304" lon="12.04842612776916"><ele>5.0</ele><time>2026-03-24T12:31:06Z</time></trkpt><trkpt lat="45.45338201862483" lon="12.04846611200572"><ele>5.0</ele><time>2026-03-24T12:31:07Z</time></trkpt><trkpt lat="45.453503757094424" lon="12.048511101849638"><ele>5.0</ele><time>2026-03-24T12:31:08Z</time></trkpt><trkpt lat="45.45362026149054" lon="12.048553481530234"><ele>5.0</ele><time>2026-03-24T12:31:09Z</time></trkpt><trkpt lat="45.45374642770405" lon="12.048599359748616"><ele>5.0</ele><time>2026-03-24T12:31:10Z</time></trkpt><trkpt lat="45.45386696624262" lon="12.048639309614899"><ele>4.75</ele><time>2026-03-24T12:31:11Z</time></trkpt><trkpt lat="45.45399443156305" lon="12.04868381220755"><ele>4.5</ele><time>2026-03-24T12:31:12Z</time></trkpt><trkpt lat="45.45412138384614" lon="12.048737320864502"><ele>4.25</ele><time>2026-03-24T12:31:13Z</time></trkpt><trkpt lat="45.45424816158946" lon="12.048781483202715"><ele>4.0</ele><time>2026-03-24T12:31:14Z</time></trkpt><trkpt lat="45.45437887710758" lon="12.048825117748393"><ele>4.0</ele><time>2026-03-24T12:31:15Z</time></trkpt><trkpt lat="45.454511089557975" lon="12.048868544391057"><ele>4.0</ele><time>2026-03-24T12:31:16Z</time></trkpt><trkpt lat="45.45464494938096" lon="12.048919082252569"><ele>4.0</ele><time>2026-03-24T12:31:17Z</time></trkpt><trkpt lat="45.45477765884409" lon="12.048965817157171"><ele>4.0</ele><time>2026-03-24T12:31:18Z</time></trkpt><trkpt lat="45.454907223206845" lon="12.049010984096729"><ele>4.0</ele><time>2026-03-24T12:31:19Z</time></trkpt><trkpt lat="45.4550311395767" lon="12.049052793783435"><ele>4.0</ele><time>2026-03-24T12:31:20Z</time></trkpt><trkpt lat="45.45515278292188" lon="12.049097787305955"><ele>4.0</ele><time>2026-03-24T12:31:21Z</time></trkpt><trkpt lat="45.45526649624326" lon="12.049136574800166"><ele>4.0</ele><time>2026-03-24T12:31:22Z</time></trkpt><trkpt lat="45.455375753498906" lon="12.049180664690601"><ele>4.5</ele><time>2026-03-24T12:31:23Z</time></trkpt><trkpt lat="45.45546066781061" lon="12.04920698639174"><ele>5.0</ele><time>2026-03-24T12:31:24Z</time></trkpt><trkpt lat="45.45552744250099" lon="12.049228756248164"><ele>5.5</ele><time>2026-03-24T12:31:25Z</time></trkpt><trkpt lat="45.45560785811517" lon="12.049257706581775"><ele>6.0</ele><time>2026-03-24T12:31:27Z</time></trkpt><trkpt lat="45.45569005754066" lon="12.049290283823309"><ele>6.500000000000001</ele><time>2026-03-24T12:31:30Z</time></trkpt><trkpt lat="45.45575260265178" lon="12.049307006037173"><ele>7.0</ele><time>2026-03-24T12:31:33Z</time></trkpt><trkpt lat="45.45581471910024" lon="12.049326093658536"><ele>7.0</ele><time>2026-03-24T12:31:38Z</time></trkpt><trkpt lat="45.45591964931176" lon="12.04913681350587"><ele>6.999999999999999</ele><time>2026-03-24T12:31:42Z</time></trkpt><trkpt lat="45.45594147660585" lon="12.04904246272644"><ele>6.999999999999999</ele><time>2026-03-24T12:31:43Z</time></trkpt><trkpt lat="45.45596342870979" lon="12.048932644296984"><ele>7.0</ele><time>2026-03-24T12:31:44Z</time></trkpt><trkpt lat="45.45598492615595" lon="12.048817711167077"><ele>7.0</ele><time>2026-03-24T12:31:45Z</time></trkpt><trkpt lat="45.45600931445795" lon="12.048690157935182"><ele>7.0</ele><time>2026-03-24T12:31:46Z</time></trkpt><trkpt lat="45.45603620723123" lon="12.048546973354991"><ele>7.0</ele><time>2026-03-24T12:31:47Z</time></trkpt><trkpt lat="45.45606849155238" lon="12.048396233030452"><ele>7.0</ele><time>2026-03-24T12:31:48Z</time></trkpt><trkpt lat="45.456101596910564" lon="12.048234186182125"><ele>7.0</ele><time>2026-03-24T12:31:49Z</time></trkpt><trkpt lat="45.45613269544257" lon="12.04806269524746"><ele>6.75</ele><time>2026-03-24T12:31:50Z</time></trkpt><trkpt lat="45.4561659964028" lon="12.04788941215684"><ele>6.5</ele><time>2026-03-24T12:31:51Z</time></trkpt><trkpt lat="45.456196179230815" lon="12.047709416626597"><ele>6.25</ele><time>2026-03-24T12:31:52Z</time></trkpt><trkpt lat="45.45622958259388" lon="12.047520353530087"><ele>6.0</ele><time>2026-03-24T12:31:53Z</time></trkpt><trkpt lat="45.45626815567779" lon="12.047311404321313"><ele>5.333333333333333</ele><time>2026-03-24T12:31:54Z</time></trkpt><trkpt lat="45.456310111464816" lon="12.047090939008697"><ele>4.666666666666666</ele><time>2026-03-24T12:31:55Z</time></trkpt><trkpt lat="45.4563561961973" lon="12.04686328894533"><ele>4.0</ele><time>2026-03-24T12:31:56Z</time></trkpt><trkpt lat="45.456396725409014" lon="12.046619465266813"><ele>3.333333333333333</ele><time>2026-03-24T12:31:57Z</time></trkpt><trkpt lat="45.45643847786082" lon="12.046367723817722"><ele>2.6666666666666665</ele><time>2026-03-24T12:31:58Z</time></trkpt><trkpt lat="45.45648559233391" lon="12.046108507990917"><ele>2.0</ele><time>2026-03-24T12:31:59Z</time></trkpt><trkpt lat="45.45653604146488" lon="12.045847111791511"><ele>2.6666666666666665</ele><time>2026-03-24T12:32:00Z</time></trkpt><trkpt lat="45.456585306841575" lon="12.045582196913097"><ele>3.333333333333333</ele><time>2026-03-24T12:32:01Z</time></trkpt><trkpt lat="45.45663699895677" lon="12.045319856476725"><ele>4.0</ele><time>2026-03-24T12:32:02Z</time></trkpt><trkpt lat="45.45668001202439" lon="12.045053227576858"><ele>4.666666666666666</ele><time>2026-03-24T12:32:03Z</time></trkpt><trkpt lat="45.45673827731142" lon="12.04479421259656"><ele>5.333333333333333</ele><time>2026-03-24T12:32:04Z</time></trkpt><trkpt lat="45.45678416387021" lon="12.04452620077041"><ele>6.0</ele><time>2026-03-24T12:32:05Z</time></trkpt><trkpt lat="45.45683011105075" lon="12.044264913459424"><ele>5.333333333333333</ele><time>2026-03-24T12:32:06Z</time></trkpt><trkpt lat="45.45687558747785" lon="12.044000566735141"><ele>4.666666666666666</ele><time>2026-03-24T12:32:07Z</time></trkpt><trkpt lat="45.456922416771846" lon="12.043735803135903"><ele>4.0</ele><time>2026-03-24T12:32:08Z</time></trkpt><trkpt lat="45.456973256284314" lon="12.043474555871182"><ele>4.333333333333333</ele><time>2026-03-24T12:32:09Z</time></trkpt><trkpt lat="45.45702653965771" lon="12.043211675162977"><ele>4.666666666666667</ele><time>2026-03-24T12:32:10Z</time></trkpt><trkpt lat="45.45707443401104" lon="12.04295229260605"><ele>5.0</ele><time>2026-03-24T12:32:11Z</time></trkpt><trkpt lat="45.45712226654416" lon="12.042693903680258"><ele>5.0</ele><time>2026-03-24T12:32:12Z</time></trkpt><trkpt lat="45.45717155920138" lon="12.042433510533504"><ele>5.0</ele><time>2026-03-24T12:32:13Z</time></trkpt><trkpt lat="45.45721289784688" lon="12.042170162566473"><ele>5.0</ele><time>2026-03-24T12:32:14Z</time></trkpt><trkpt lat="45.45726312611389" lon="12.041898914530387"><ele>5.666666666666667</ele><time>2026-03-24T12:32:15Z</time></trkpt><trkpt lat="45.45731227255733" lon="12.041624750600269"><ele>6.333333333333334</ele><time>2026-03-24T12:32:16Z</time></trkpt><trkpt lat="45.45736576512872" lon="12.041349451241267"><ele>7.0</ele><time>2026-03-24T12:32:17Z</time></trkpt><trkpt lat="45.45741937319358" lon="12.041070806119329"><ele>7.0</ele><time>2026-03-24T12:32:18Z</time></trkpt><trkpt lat="45.4574723243472" lon="12.040781960387593"><ele>7.0</ele><time>2026-03-24T12:32:19Z</time></trkpt><trkpt lat="45.457523127390594" lon="12.040487668679122"><ele>7.0</ele><time>2026-03-24T12:32:20Z</time></trkpt><trkpt lat="45.45757781663176" lon="12.040194864961551"><ele>6.333333333333334</ele><time>2026-03-24T12:32:21Z</time></trkpt><trkpt lat="45.45763028393008" lon="12.039900629728821"><ele>5.666666666666667</ele><time>2026-03-24T12:32:22Z</time></trkpt><trkpt lat="45.4576851176986" lon="12.039618903308314"><ele>5.0</ele><time>2026-03-24T12:32:23Z</time></trkpt><trkpt lat="45.45774006645665" lon="12.039333342017065"><ele>4.666666666666667</ele><time>2026-03-24T12:32:24Z</time></trkpt><trkpt lat="45.4577914659853" lon="12.039046960937652"><ele>4.333333333333333</ele><time>2026-03-24T12:32:25Z</time></trkpt><trkpt lat="45.45784577652931" lon="12.03875989291554"><ele>4.0</ele><time>2026-03-24T12:32:26Z</time></trkpt><trkpt lat="45.457908295047474" lon="12.038472759989235"><ele>4.666666666666666</ele><time>2026-03-24T12:32:27Z</time></trkpt><trkpt lat="45.45796582409658" lon="12.038183644609841"><ele>5.333333333333333</ele><time>2026-03-24T12:32:28Z</time></trkpt><trkpt lat="45.4580224471029" lon="12.03789153603565"><ele>6.0</ele><time>2026-03-24T12:32:29Z</time></trkpt><trkpt lat="45.458075544997264" lon="12.03760138708726"><ele>5.666666666666667</ele><time>2026-03-24T12:32:30Z</time></trkpt><trkpt lat="45.45812975083659" lon="12.037309847322573"><ele>5.333333333333334</ele><time>2026-03-24T12:32:31Z</time></trkpt><trkpt lat="45.458182665414554" lon="12.037016779438725"><ele>5.0</ele><time>2026-03-24T12:32:32Z</time></trkpt><trkpt lat="45.45823893074031" lon="12.036729868488163"><ele>5.333333333333334</ele><time>2026-03-24T12:32:33Z</time></trkpt><trkpt lat="45.45828993895487" lon="12.036447731114057"><ele>5.666666666666667</ele><time>2026-03-24T12:32:34Z</time></trkpt><trkpt lat="45.45834234541163" lon="12.03616344718725"><ele>6.0</ele><time>2026-03-24T12:32:35Z</time></trkpt><trkpt lat="45.45839355806188" lon="12.035877905164098"><ele>6.333333333333334</ele><time>2026-03-24T12:32:36Z</time></trkpt><trkpt lat="45.458443218253294" lon="12.035586747689635"><ele>6.666666666666667</ele><time>2026-03-24T12:32:37Z</time></trkpt><trkpt lat="45.458498412956914" lon="12.035312533493943"><ele>7.0</ele><time>2026-03-24T12:32:38Z</time></trkpt><trkpt lat="45.45855245920733" lon="12.035032340312316"><ele>6.666666666666667</ele><time>2026-03-24T12:32:39Z</time></trkpt><trkpt lat="45.4585938479835" lon="12.034771102248827"><ele>6.333333333333334</ele><time>2026-03-24T12:32:40Z</time></trkpt><trkpt lat="45.458631903206125" lon="12.034527760743481"><ele>6.0</ele><time>2026-03-24T12:32:41Z</time></trkpt><trkpt lat="45.458671633905375" lon="12.034301162280926"><ele>6.0</ele><time>2026-03-24T12:32:42Z</time></trkpt><trkpt lat="45.45871289543613" lon="12.034080539049892"><ele>6.0</ele><time>2026-03-24T12:32:43Z</time></trkpt><trkpt lat="45.45875133848618" lon="12.033866690881805"><ele>6.0</ele><time>2026-03-24T12:32:44Z</time></trkpt><trkpt lat="45.45879368355919" lon="12.033655249749678"><ele>6.0</ele><time>2026-03-24T12:32:45Z</time></trkpt><trkpt lat="45.45883924652555" lon="12.033438447149958"><ele>6.0</ele><time>2026-03-24T12:32:46Z</time></trkpt><trkpt lat="45.45887649965894" lon="12.033219958345255"><ele>6.0</ele><time>2026-03-24T12:32:47Z</time></trkpt><trkpt lat="45.458915772394285" lon="12.033006684538678"><ele>6.0</ele><time>2026-03-24T12:32:48Z</time></trkpt><trkpt lat="45.45894667252549" lon="12.032799301740145"><ele>6.0</ele><time>2026-03-24T12:32:49Z</time></trkpt><trkpt lat="45.458980554539416" lon="12.032617100169471"><ele>6.0</ele><time>2026-03-24T12:32:50Z</time></trkpt><trkpt lat="45.45900232658991" lon="12.032456084640698"><ele>6.0</ele><time>2026-03-24T12:32:51Z</time></trkpt><trkpt lat="45.459025926585696" lon="12.032326450564831"><ele>6.333333333333333</ele><time>2026-03-24T12:32:52Z</time></trkpt><trkpt lat="45.459053322464555" lon="12.032214954350433"><ele>6.666666666666666</ele><time>2026-03-24T12:32:53Z</time></trkpt><trkpt lat="45.459066838826196" lon="12.032071873275019"><ele>7.0</ele><time>2026-03-24T12:32:55Z</time></trkpt><trkpt lat="45.45908199935911" lon="12.031966717008691"><ele>7.333333333333333</ele><time>2026-03-24T12:32:58Z</time></trkpt><trkpt lat="45.4590965200122" lon="12.03186329515651"><ele>7.666666666666666</ele><time>2026-03-24T12:33:18Z</time></trkpt><trkpt lat="45.45912043508006" lon="12.0317374454435"><ele>8.0</ele><time>2026-03-24T12:33:20Z</time></trkpt><trkpt lat="45.45915197107588" lon="12.031583787113496"><ele>7.999999999999999</ele><time>2026-03-24T12:33:22Z</time></trkpt><trkpt lat="45.45917580954642" lon="12.031484737007816"><ele>8.0</ele><time>2026-03-24T12:33:23Z</time></trkpt><trkpt lat="45.45919703188691" lon="12.031374460306292"><ele>8.0</ele><time>2026-03-24T12:33:24Z</time></trkpt><trkpt lat="45.45921658276591" lon="12.031257430456067"><ele>8.0</ele><time>2026-03-24T12:33:25Z</time></trkpt><trkpt lat="45.459240313540604" lon="12.03113592035169"><ele>7.999999999999999</ele><time>2026-03-24T12:33:26Z</time></trkpt><trkpt lat="45.45926343837651" lon="12.031010752271442"><ele>8.0</ele><time>2026-03-24T12:33:27Z</time></trkpt><trkpt lat="45.45928378169204" lon="12.030886597975474"><ele>8.0</ele><time>2026-03-24T12:33:28Z</time></trkpt><trkpt lat="45.459312136122605" lon="12.030748594672183"><ele>8.0</ele><time>2026-03-24T12:33:29Z</time></trkpt><trkpt lat="45.45934176198467" lon="12.030596529124102"><ele>8.0</ele><time>2026-03-24T12:33:30Z</time></trkpt><trkpt lat="45.459376380641736" lon="12.030438395619026"><ele>8.0</ele><time>2026-03-24T12:33:31Z</time></trkpt><trkpt lat="45.45941000016149" lon="12.030255396707803"><ele>8.0</ele><time>2026-03-24T12:33:32Z</time></trkpt><trkpt lat="45.459444766752576" lon="12.030068491194935"><ele>8.0</ele><time>2026-03-24T12:33:33Z</time></trkpt><trkpt lat="45.45947971893582" lon="12.029876640608535"><ele>8.0</ele><time>2026-03-24T12:33:34Z</time></trkpt><trkpt lat="45.45951421707201" lon="12.029678282297684"><ele>8.0</ele><time>2026-03-24T12:33:35Z</time></trkpt><trkpt lat="45.4595479922454" lon="12.029473357273853"><ele>7.666666666666666</ele><time>2026-03-24T12:33:36Z</time></trkpt><trkpt lat="45.45958814451114" lon="12.029263027709888"><ele>7.333333333333334</ele><time>2026-03-24T12:33:37Z</time></trkpt><trkpt lat="45.45962949072983" lon="12.02904465827607"><ele>7.0</ele><time>2026-03-24T12:33:38Z</time></trkpt><trkpt lat="45.45967285557446" lon="12.028818182405635"><ele>7.0</ele><time>2026-03-24T12:33:39Z</time></trkpt><trkpt lat="45.45971631052042" lon="12.028586228763068"><ele>7.0</ele><time>2026-03-24T12:33:40Z</time></trkpt><trkpt lat="45.459755372789544" lon="12.028359360361176"><ele>7.0</ele><time>2026-03-24T12:33:41Z</time></trkpt><trkpt lat="45.459792941401176" lon="12.028150149216163"><ele>7.0</ele><time>2026-03-24T12:33:42Z</time></trkpt><trkpt lat="45.45983003381941" lon="12.027952538564199"><ele>7.0</ele><time>2026-03-24T12:33:43Z</time></trkpt><trkpt lat="45.4598658175993" lon="12.027755308932761"><ele>7.0</ele><time>2026-03-24T12:33:44Z</time></trkpt><trkpt lat="45.4599014582967" lon="12.027551112465275"><ele>7.0</ele><time>2026-03-24T12:33:45Z</time></trkpt><trkpt lat="45.459940806375855" lon="12.027348650005619"><ele>6.666666666666667</ele><time>2026-03-24T12:33:46Z</time></trkpt><trkpt lat="45.45998539863895" lon="12.027141507405016"><ele>6.333333333333334</ele><time>2026-03-24T12:33:47Z</time></trkpt><trkpt lat="45.460023521815366" lon="12.02693114876033"><ele>6.0</ele><time>2026-03-24T12:33:48Z</time></trkpt><trkpt lat="45.46006426419447" lon="12.026715180484427"><ele>6.666666666666666</ele><time>2026-03-24T12:33:49Z</time></trkpt><trkpt lat="45.46010691081947" lon="12.026504269628576"><ele>7.333333333333333</ele><time>2026-03-24T12:33:50Z</time></trkpt><trkpt lat="45.46014691026507" lon="12.026287451854238"><ele>8.0</ele><time>2026-03-24T12:33:51Z</time></trkpt><trkpt lat="45.46018624210184" lon="12.026077846413147"><ele>8.0</ele><time>2026-03-24T12:33:52Z</time></trkpt><trkpt lat="45.46022252769226" lon="12.025887844632845"><ele>8.0</ele><time>2026-03-24T12:33:53Z</time></trkpt><trkpt lat="45.46025289667608" lon="12.025710950905193"><ele>8.0</ele><time>2026-03-24T12:33:54Z</time></trkpt><trkpt lat="45.46028695053676" lon="12.025522964696435"><ele>8.0</ele><time>2026-03-24T12:33:55Z</time></trkpt><trkpt lat="45.460322746528874" lon="12.025332332010718"><ele>7.75</ele><time>2026-03-24T12:33:56Z</time></trkpt><trkpt lat="45.46036006991055" lon="12.025137524456785"><ele>7.5</ele><time>2026-03-24T12:33:57Z</time></trkpt><trkpt lat="45.460395771135715" lon="12.024940696622375"><ele>7.25</ele><time>2026-03-24T12:33:58Z</time></trkpt><trkpt lat="45.46043575132917" lon="12.024739641539473"><ele>7.0</ele><time>2026-03-24T12:33:59Z</time></trkpt><trkpt lat="45.460477866120414" lon="12.024540930505166"><ele>6.75</ele><time>2026-03-24T12:34:00Z</time></trkpt><trkpt lat="45.46050932879027" lon="12.024352458539775"><ele>6.5</ele><time>2026-03-24T12:34:01Z</time></trkpt><trkpt lat="45.4605379761574" lon="12.024181712308913"><ele>6.25</ele><time>2026-03-24T12:34:02Z</time></trkpt><trkpt lat="45.460564981666025" lon="12.024020006698123"><ele>6.0</ele><time>2026-03-24T12:34:03Z</time></trkpt><trkpt lat="45.46059452336515" lon="12.023859268122163"><ele>6.0</ele><time>2026-03-24T12:34:04Z</time></trkpt><trkpt lat="45.460624974944636" lon="12.023701305705293"><ele>6.0</ele><time>2026-03-24T12:34:05Z</time></trkpt><trkpt lat="45.460650237136626" lon="12.023558601308515"><ele>6.0</ele><time>2026-03-24T12:34:06Z</time></trkpt><trkpt lat="45.4606729119156" lon="12.023432804887477"><ele>6.0</ele><time>2026-03-24T12:34:07Z</time></trkpt><trkpt lat="45.460695218859165" lon="12.023320152885269"><ele>6.0</ele><time>2026-03-24T12:34:08Z</time></trkpt><trkpt lat="45.46072868077502" lon="12.023217984006822"><ele>6.0</ele><time>2026-03-24T12:34:09Z</time></trkpt><trkpt lat="45.46075027341456" lon="12.023113548841678"><ele>6.0</ele><time>2026-03-24T12:34:10Z</time></trkpt><trkpt lat="45.46077025036697" lon="12.023011087819464"><ele>6.0</ele><time>2026-03-24T12:34:11Z</time></trkpt><trkpt lat="45.46079425280717" lon="12.022854072680634"><ele>6.0</ele><time>2026-03-24T12:34:13Z</time></trkpt><trkpt lat="45.460806647227756" lon="12.022749494924097"><ele>6.0</ele><time>2026-03-24T12:34:14Z</time></trkpt><trkpt lat="45.46082125191943" lon="12.022631804664003"><ele>6.0</ele><time>2026-03-24T12:34:15Z</time></trkpt><trkpt lat="45.46083549140498" lon="12.022492919593812"><ele>5.75</ele><time>2026-03-24T12:34:16Z</time></trkpt><trkpt lat="45.46085078424777" lon="12.02232919027483"><ele>5.5</ele><time>2026-03-24T12:34:17Z</time></trkpt><trkpt lat="45.46088599185783" lon="12.022152772759185"><ele>5.25</ele><time>2026-03-24T12:34:18Z</time></trkpt><trkpt lat="45.46092689974088" lon="12.021971737165591"><ele>5.0</ele><time>2026-03-24T12:34:19Z</time></trkpt><trkpt lat="45.4609618288333" lon="12.02177891552048"><ele>5.333333333333334</ele><time>2026-03-24T12:34:20Z</time></trkpt><trkpt lat="45.460999736984405" lon="12.021571383356854"><ele>5.666666666666667</ele><time>2026-03-24T12:34:21Z</time></trkpt><trkpt lat="45.461040056285604" lon="12.021356472987707"><ele>6.0</ele><time>2026-03-24T12:34:22Z</time></trkpt><trkpt lat="45.46108199207986" lon="12.021133204299575"><ele>6.0</ele><time>2026-03-24T12:34:23Z</time></trkpt><trkpt lat="45.461122706922325" lon="12.02090168924855"><ele>6.0</ele><time>2026-03-24T12:34:24Z</time></trkpt><trkpt lat="45.461169689927104" lon="12.020666061699487"><ele>6.0</ele><time>2026-03-24T12:34:25Z</time></trkpt><trkpt lat="45.46121787301367" lon="12.020426035117598"><ele>6.333333333333334</ele><time>2026-03-24T12:34:26Z</time></trkpt><trkpt lat="45.46126389927523" lon="12.020176985265673"><ele>6.666666666666667</ele><time>2026-03-24T12:34:27Z</time></trkpt><trkpt lat="45.46130883990791" lon="12.01992893501186"><ele>7.0</ele><time>2026-03-24T12:34:28Z</time></trkpt><trkpt lat="45.461356934500934" lon="12.019675967535422"><ele>7.0</ele><time>2026-03-24T12:34:29Z</time></trkpt><trkpt lat="45.461404228004966" lon="12.01941510534904"><ele>7.0</ele><time>2026-03-24T12:34:30Z</time></trkpt><trkpt lat="45.461454897834884" lon="12.01915095205991"><ele>7.0</ele><time>2026-03-24T12:34:31Z</time></trkpt><trkpt lat="45.46150244162007" lon="12.018886232558211"><ele>7.0</ele><time>2026-03-24T12:34:32Z</time></trkpt><trkpt lat="45.46155307933164" lon="12.018611465076418"><ele>7.0</ele><time>2026-03-24T12:34:33Z</time></trkpt><trkpt lat="45.46160846911413" lon="12.01832681164756"><ele>7.0</ele><time>2026-03-24T12:34:34Z</time></trkpt><trkpt lat="45.4616672953451" lon="12.018043717157749"><ele>6.333333333333334</ele><time>2026-03-24T12:34:35Z</time></trkpt><trkpt lat="45.461708906273465" lon="12.017769025571226"><ele>5.666666666666667</ele><time>2026-03-24T12:34:36Z</time></trkpt><trkpt lat="45.46176332735443" lon="12.01748114565317"><ele>5.0</ele><time>2026-03-24T12:34:37Z</time></trkpt><trkpt lat="45.461813073596936" lon="12.017199556277237"><ele>5.0</ele><time>2026-03-24T12:34:38Z</time></trkpt><trkpt lat="45.461865711571136" lon="12.016927350810937"><ele>5.0</ele><time>2026-03-24T12:34:39Z</time></trkpt><trkpt lat="45.46191409234635" lon="12.016658993528912"><ele>5.0</ele><time>2026-03-24T12:34:40Z</time></trkpt><trkpt lat="45.4619670460117" lon="12.016385616638063"><ele>5.666666666666667</ele><time>2026-03-24T12:34:41Z</time></trkpt><trkpt lat="45.46201970909252" lon="12.016120721616225"><ele>6.333333333333334</ele><time>2026-03-24T12:34:42Z</time></trkpt><trkpt lat="45.46207192527938" lon="12.015861720926702"><ele>7.0</ele><time>2026-03-24T12:34:43Z</time></trkpt><trkpt lat="45.46211706420341" lon="12.015602917795473"><ele>7.0</ele><time>2026-03-24T12:34:44Z</time></trkpt><trkpt lat="45.462161632005916" lon="12.015335363915257"><ele>7.0</ele><time>2026-03-24T12:34:45Z</time></trkpt><trkpt lat="45.462215975789675" lon="12.015059573434606"><ele>7.0</ele><time>2026-03-24T12:34:46Z</time></trkpt><trkpt lat="45.46226661974135" lon="12.014785414615792"><ele>7.0</ele><time>2026-03-24T12:34:47Z</time></trkpt><trkpt lat="45.46231893457856" lon="12.014506759708887"><ele>7.0</ele><time>2026-03-24T12:34:48Z</time></trkpt><trkpt lat="45.462371630161044" lon="12.014223527447527"><ele>7.0</ele><time>2026-03-24T12:34:49Z</time></trkpt><trkpt lat="45.46242033449966" lon="12.01394053005197"><ele>7.0</ele><time>2026-03-24T12:34:50Z</time></trkpt><trkpt lat="45.46247521215813" lon="12.0136609436175"><ele>7.0</ele><time>2026-03-24T12:34:51Z</time></trkpt><trkpt lat="45.46253208182839" lon="12.013374478387455"><ele>7.0</ele><time>2026-03-24T12:34:52Z</time></trkpt><trkpt lat="45.46258928615291" lon="12.013087972688886"><ele>7.0</ele><time>2026-03-24T12:34:53Z</time></trkpt><trkpt lat="45.46263797466321" lon="12.012813763466704"><ele>7.0</ele><time>2026-03-24T12:34:54Z</time></trkpt><trkpt lat="45.46268929381008" lon="12.01254132663352"><ele>7.0</ele><time>2026-03-24T12:34:55Z</time></trkpt><trkpt lat="45.46273314981026" lon="12.012277262576665"><ele>7.0</ele><time>2026-03-24T12:34:56Z</time></trkpt><trkpt lat="45.462779394509546" lon="12.012023076115083"><ele>7.0</ele><time>2026-03-24T12:34:57Z</time></trkpt><trkpt lat="45.46282899845611" lon="12.01176600793374"><ele>7.0</ele><time>2026-03-24T12:34:58Z</time></trkpt><trkpt lat="45.462878878006364" lon="12.011510208185655"><ele>6.666666666666667</ele><time>2026-03-24T12:34:59Z</time></trkpt><trkpt lat="45.46292609405547" lon="12.011260122333013"><ele>6.333333333333334</ele><time>2026-03-24T12:35:00Z</time></trkpt><trkpt lat="45.46297091221068" lon="12.011007261020207"><ele>6.0</ele><time>2026-03-24T12:35:01Z</time></trkpt><trkpt lat="45.463013241364166" lon="12.010767104727973"><ele>6.0</ele><time>2026-03-24T12:35:02Z</time></trkpt><trkpt lat="45.46305821528073" lon="12.010522516315676"><ele>6.0</ele><time>2026-03-24T12:35:03Z</time></trkpt><trkpt lat="45.4631023525794" lon="12.01028385635579"><ele>6.0</ele><time>2026-03-24T12:35:04Z</time></trkpt><trkpt lat="45.46314802854469" lon="12.010038412674675"><ele>6.0</ele><time>2026-03-24T12:35:05Z</time></trkpt><trkpt lat="45.46318969545839" lon="12.009793389149038"><ele>6.0</ele><time>2026-03-24T12:35:06Z</time></trkpt><trkpt lat="45.4632415140789" lon="12.009545843637357"><ele>6.0</ele><time>2026-03-24T12:35:07Z</time></trkpt><trkpt lat="45.46328569307877" lon="12.009277149099187"><ele>6.333333333333334</ele><time>2026-03-24T12:35:08Z</time></trkpt><trkpt lat="45.4633383872346" lon="12.009003940764403"><ele>6.666666666666667</ele><time>2026-03-24T12:35:09Z</time></trkpt><trkpt lat="45.4633916486867" lon="12.008728047314913"><ele>7.0</ele><time>2026-03-24T12:35:10Z</time></trkpt><trkpt lat="45.46344170971623" lon="12.008444991619424"><ele>7.333333333333334</ele><time>2026-03-24T12:35:11Z</time></trkpt><trkpt lat="45.46349197863765" lon="12.008148567960458"><ele>7.666666666666666</ele><time>2026-03-24T12:35:12Z</time></trkpt><trkpt lat="45.46354496587156" lon="12.007847739993908"><ele>8.0</ele><time>2026-03-24T12:35:13Z</time></trkpt><trkpt lat="45.46360428348848" lon="12.007542810160436"><ele>8.0</ele><time>2026-03-24T12:35:14Z</time></trkpt><trkpt lat="45.463660982706934" lon="12.007258221390419"><ele>8.0</ele><time>2026-03-24T12:35:15Z</time></trkpt><trkpt lat="45.46370750023687" lon="12.006988075253206"><ele>8.0</ele><time>2026-03-24T12:35:16Z</time></trkpt><trkpt lat="45.46375394699294" lon="12.006740782429471"><ele>7.666666666666666</ele><time>2026-03-24T12:35:17Z</time></trkpt><trkpt lat="45.46379473216243" lon="12.00651242315088"><ele>7.333333333333334</ele><time>2026-03-24T12:35:18Z</time></trkpt><trkpt lat="45.46383304991879" lon="12.006297982468253"><ele>7.0</ele><time>2026-03-24T12:35:19Z</time></trkpt><trkpt lat="45.46386784211829" lon="12.006091849565744"><ele>7.0</ele><time>2026-03-24T12:35:20Z</time></trkpt><trkpt lat="45.46389888984839" lon="12.005928220044334"><ele>6.999999999999999</ele><time>2026-03-24T12:35:21Z</time></trkpt><trkpt lat="45.46392805914365" lon="12.005794008787186"><ele>6.999999999999999</ele><time>2026-03-24T12:35:22Z</time></trkpt><trkpt lat="45.46394456273904" lon="12.005693302708705"><ele>7.0</ele><time>2026-03-24T12:35:23Z</time></trkpt><trkpt lat="45.463965662316035" lon="12.005592005261585"><ele>7.0</ele><time>2026-03-24T12:35:24Z</time></trkpt><trkpt lat="45.46404804323387" lon="12.005473877705086"><ele>7.199999999999999</ele><time>2026-03-24T12:35:26Z</time></trkpt><trkpt lat="45.464105548592265" lon="12.005408276406026"><ele>7.3999999999999995</ele><time>2026-03-24T12:35:27Z</time></trkpt><trkpt lat="45.46416913757591" lon="12.005356731526096"><ele>7.6000000000000005</ele><time>2026-03-24T12:35:28Z</time></trkpt><trkpt lat="45.46429436001715" lon="12.005514862077888"><ele>7.800000000000001</ele><time>2026-03-24T12:35:29Z</time></trkpt><trkpt lat="45.46439715749045" lon="12.005542877979645"><ele>8.0</ele><time>2026-03-24T12:35:30Z</time></trkpt><trkpt lat="45.46450466927078" lon="12.005593528018604"><ele>7.25</ele><time>2026-03-24T12:35:31Z</time></trkpt><trkpt lat="45.464632253148565" lon="12.005634827033454"><ele>6.5</ele><time>2026-03-24T12:35:32Z</time></trkpt><trkpt lat="45.46475381280118" lon="12.005690888072834"><ele>5.75</ele><time>2026-03-24T12:35:33Z</time></trkpt><trkpt lat="45.464901604831596" lon="12.005724571944901"><ele>5.0</ele><time>2026-03-24T12:35:34Z</time></trkpt><trkpt lat="45.46504040420149" lon="12.005793565076274"><ele>5.0</ele><time>2026-03-24T12:35:35Z</time></trkpt><trkpt lat="45.46519429327074" lon="12.00584053437696"><ele>5.0</ele><time>2026-03-24T12:35:36Z</time></trkpt><trkpt lat="45.46535461214883" lon="12.005901186333997"><ele>5.0</ele><time>2026-03-24T12:35:37Z</time></trkpt><trkpt lat="45.46550017557384" lon="12.005953359227313"><ele>5.0</ele><time>2026-03-24T12:35:38Z</time></trkpt><trkpt lat="45.465628871155474" lon="12.006003143564666"><ele>5.0</ele><time>2026-03-24T12:35:39Z</time></trkpt><trkpt lat="45.465749325480466" lon="12.006054274578492"><ele>5.0</ele><time>2026-03-24T12:35:40Z</time></trkpt><trkpt lat="45.465849618461164" lon="12.006077325633193"><ele>5.0</ele><time>2026-03-24T12:35:41Z</time></trkpt><trkpt lat="45.465949563143006" lon="12.006115113004057"><ele>5.0</ele><time>2026-03-24T12:35:42Z</time></trkpt><trkpt lat="45.46604483346394" lon="12.0061453368824"><ele>5.0</ele><time>2026-03-24T12:35:43Z</time></trkpt><trkpt lat="45.46614996483188" lon="12.006204569227874"><ele>5.0</ele><time>2026-03-24T12:35:44Z</time></trkpt><trkpt lat="45.46627295862135" lon="12.006254351880605"><ele>5.0</ele><time>2026-03-24T12:35:45Z</time></trkpt><trkpt lat="45.46640991656854" lon="12.006312346861156"><ele>5.666666666666667</ele><time>2026-03-24T12:35:46Z</time></trkpt><trkpt lat="45.46655288836446" lon="12.006360041989964"><ele>6.333333333333334</ele><time>2026-03-24T12:35:47.001Z</time></trkpt><trkpt lat="45.46671769109846" lon="12.006410664473496"><ele>7.0</ele><time>2026-03-24T12:35:48.001Z</time></trkpt><trkpt lat="45.466899782595576" lon="12.00648531201333"><ele>7.0</ele><time>2026-03-24T12:35:49.001Z</time></trkpt><trkpt lat="45.467078362983784" lon="12.00655460647584"><ele>7.0</ele><time>2026-03-24T12:35:50.001Z</time></trkpt><trkpt lat="45.467265451189505" lon="12.006624294245896"><ele>7.0</ele><time>2026-03-24T12:35:51.001Z</time></trkpt><trkpt lat="45.46745344456788" lon="12.006683727329982"><ele>7.0</ele><time>2026-03-24T12:35:52.001Z</time></trkpt><trkpt lat="45.46763937335181" lon="12.006744950931871"><ele>7.0</ele><time>2026-03-24T12:35:53.001Z</time></trkpt><trkpt lat="45.46782382467537" lon="12.006822966105902"><ele>7.0</ele><time>2026-03-24T12:35:54.001Z</time></trkpt><trkpt lat="45.46799499130277" lon="12.006889638772458"><ele>6.666666666666667</ele><time>2026-03-24T12:35:55.001Z</time></trkpt><trkpt lat="45.468158999580545" lon="12.006961441808913"><ele>6.333333333333334</ele><time>2026-03-24T12:35:56.001Z</time></trkpt><trkpt lat="45.468310445635026" lon="12.007022963182"><ele>6.0</ele><time>2026-03-24T12:35:57.001Z</time></trkpt><trkpt lat="45.46844109323619" lon="12.007065332077339"><ele>6.0</ele><time>2026-03-24T12:35:58.001Z</time></trkpt><trkpt lat="45.46857211863084" lon="12.007117323418804"><ele>6.0</ele><time>2026-03-24T12:35:59.001Z</time></trkpt><trkpt lat="45.46868923037803" lon="12.00716029613298"><ele>6.0</ele><time>2026-03-24T12:36:00.001Z</time></trkpt><trkpt lat="45.468788992959816" lon="12.007195006012207"><ele>6.0</ele><time>2026-03-24T12:36:01.001Z</time></trkpt><trkpt lat="45.46887915044163" lon="12.007237079482282"><ele>6.0</ele><time>2026-03-24T12:36:02.001Z</time></trkpt><trkpt lat="45.46895612437778" lon="12.007262670082149"><ele>6.0</ele><time>2026-03-24T12:36:03.001Z</time></trkpt><trkpt lat="45.46902093903995" lon="12.007287721526268"><ele>6.0</ele><time>2026-03-24T12:36:04Z</time></trkpt><trkpt lat="45.46913780385983" lon="12.007334284948197"><ele>6.0</ele><time>2026-03-24T12:36:06Z</time></trkpt><trkpt lat="45.4692106933845" lon="12.007361667636692"><ele>6.0</ele><time>2026-03-24T12:36:07Z</time></trkpt><trkpt lat="45.469301170500835" lon="12.007389409529537"><ele>6.0</ele><time>2026-03-24T12:36:08Z</time></trkpt><trkpt lat="45.469402407725624" lon="12.007424866552801"><ele>6.0</ele><time>2026-03-24T12:36:09Z</time></trkpt><trkpt lat="45.46950839540759" lon="12.007465291849256"><ele>6.0</ele><time>2026-03-24T12:36:10Z</time></trkpt><trkpt lat="45.46962466349076" lon="12.00751566596841"><ele>6.0</ele><time>2026-03-24T12:36:11Z</time></trkpt><trkpt lat="45.46975011524385" lon="12.007555811651498"><ele>6.0</ele><time>2026-03-24T12:36:12Z</time></trkpt><trkpt lat="45.469869628043014" lon="12.00759905307741"><ele>6.166666666666667</ele><time>2026-03-24T12:36:13Z</time></trkpt><trkpt lat="45.46996539693804" lon="12.007636051048607"><ele>6.333333333333334</ele><time>2026-03-24T12:36:14Z</time></trkpt><trkpt lat="45.47003077866189" lon="12.00765845392267"><ele>6.5</ele><time>2026-03-24T12:36:15Z</time></trkpt><trkpt lat="45.47009876777831" lon="12.00769421973459"><ele>6.666666666666667</ele><time>2026-03-24T12:36:17Z</time></trkpt><trkpt lat="45.47016616295564" lon="12.007718907345108"><ele>6.833333333333334</ele><time>2026-03-24T12:36:22Z</time></trkpt><trkpt lat="45.470284457253854" lon="12.00774496371947"><ele>7.0</ele><time>2026-03-24T12:36:24Z</time></trkpt><trkpt lat="45.47036307864701" lon="12.007769080377953"><ele>7.0</ele><time>2026-03-24T12:36:25Z</time></trkpt><trkpt lat="45.470434342952224" lon="12.007800977904134"><ele>6.999999999999999</ele><time>2026-03-24T12:36:26Z</time></trkpt><trkpt lat="45.47051609854783" lon="12.007836492003559"><ele>6.999999999999999</ele><time>2026-03-24T12:36:27Z</time></trkpt><trkpt lat="45.470608787676866" lon="12.007871074582198"><ele>7.0</ele><time>2026-03-24T12:36:28Z</time></trkpt><trkpt lat="45.470706651264855" lon="12.007905986067849"><ele>7.0</ele><time>2026-03-24T12:36:29Z</time></trkpt><trkpt lat="45.470813419583216" lon="12.007947503626264"><ele>7.0</ele><time>2026-03-24T12:36:30Z</time></trkpt><trkpt lat="45.47093116274778" lon="12.007995431125023"><ele>7.0</ele><time>2026-03-24T12:36:31Z</time></trkpt><trkpt lat="45.47105489397983" lon="12.008041270614386"><ele>7.0</ele><time>2026-03-24T12:36:32Z</time></trkpt><trkpt lat="45.47119358934717" lon="12.008093380079409"><ele>7.0</ele><time>2026-03-24T12:36:33Z</time></trkpt><trkpt lat="45.47133683087978" lon="12.00814934579003"><ele>7.0</ele><time>2026-03-24T12:36:34Z</time></trkpt><trkpt lat="45.471487396366" lon="12.008203456128808"><ele>7.0</ele><time>2026-03-24T12:36:35Z</time></trkpt><trkpt lat="45.47165389996033" lon="12.00826788112454"><ele>7.0</ele><time>2026-03-24T12:36:36Z</time></trkpt><trkpt lat="45.47182621853583" lon="12.008333555163528"><ele>7.0</ele><time>2026-03-24T12:36:37Z</time></trkpt><trkpt lat="45.47200403913799" lon="12.008400619832036"><ele>7.0</ele><time>2026-03-24T12:36:38Z</time></trkpt><trkpt lat="45.47218563848471" lon="12.008472482342949"><ele>7.0</ele><time>2026-03-24T12:36:39Z</time></trkpt><trkpt lat="45.472374429173556" lon="12.00854898952121"><ele>7.0</ele><time>2026-03-24T12:36:40Z</time></trkpt><trkpt lat="45.47256755258808" lon="12.008626522132406"><ele>7.0</ele><time>2026-03-24T12:36:41Z</time></trkpt><trkpt lat="45.47276902280804" lon="12.008701468313687"><ele>7.0</ele><time>2026-03-24T12:36:42Z</time></trkpt><trkpt lat="45.47297135348317" lon="12.008769554247543"><ele>6.666666666666667</ele><time>2026-03-24T12:36:43Z</time></trkpt><trkpt lat="45.473175763543715" lon="12.00884520728273"><ele>6.333333333333334</ele><time>2026-03-24T12:36:44Z</time></trkpt><trkpt lat="45.473382949514985" lon="12.008929720085273"><ele>6.0</ele><time>2026-03-24T12:36:45Z</time></trkpt><trkpt lat="45.47358647339167" lon="12.009005552629318"><ele>6.0</ele><time>2026-03-24T12:36:46Z</time></trkpt><trkpt lat="45.47378462293484" lon="12.009078496910558"><ele>6.0</ele><time>2026-03-24T12:36:47Z</time></trkpt><trkpt lat="45.47397901457079" lon="12.009149919474956"><ele>6.0</ele><time>2026-03-24T12:36:48Z</time></trkpt><trkpt lat="45.47417125523241" lon="12.009219292511364"><ele>6.333333333333334</ele><time>2026-03-24T12:36:49Z</time></trkpt><trkpt lat="45.4743576272599" lon="12.009290149682272"><ele>6.666666666666667</ele><time>2026-03-24T12:36:50Z</time></trkpt><trkpt lat="45.474541724058675" lon="12.00936303704267"><ele>7.0</ele><time>2026-03-24T12:36:51Z</time></trkpt><trkpt lat="45.47471970870218" lon="12.009425324060679"><ele>7.0</ele><time>2026-03-24T12:36:52Z</time></trkpt><trkpt lat="45.474885394225545" lon="12.009488329083313"><ele>7.0</ele><time>2026-03-24T12:36:53Z</time></trkpt><trkpt lat="45.47504961520317" lon="12.009553104011513"><ele>7.0</ele><time>2026-03-24T12:36:54Z</time></trkpt><trkpt lat="45.47521650478462" lon="12.009617445724619"><ele>7.0</ele><time>2026-03-24T12:36:55Z</time></trkpt><trkpt lat="45.475376230916375" lon="12.009680952790767"><ele>7.0</ele><time>2026-03-24T12:36:56Z</time></trkpt><trkpt lat="45.47552230357445" lon="12.00973752555041"><ele>7.0</ele><time>2026-03-24T12:36:57Z</time></trkpt><trkpt lat="45.47565844080844" lon="12.009784459246783"><ele>7.199999999999999</ele><time>2026-03-24T12:36:58Z</time></trkpt><trkpt lat="45.47577840446658" lon="12.009821733071245"><ele>7.3999999999999995</ele><time>2026-03-24T12:36:59Z</time></trkpt><trkpt lat="45.47588125496318" lon="12.009864050146753"><ele>7.6000000000000005</ele><time>2026-03-24T12:37:00Z</time></trkpt><trkpt lat="45.4759650748871" lon="12.009893534718586"><ele>7.800000000000001</ele><time>2026-03-24T12:37:01Z</time></trkpt><trkpt lat="45.47603648909686" lon="12.009921017909926"><ele>8.0</ele><time>2026-03-24T12:37:02Z</time></trkpt><trkpt lat="45.47614812027132" lon="12.009964183578639"><ele>7.999999999999999</ele><time>2026-03-24T12:37:04Z</time></trkpt><trkpt lat="45.47622474194302" lon="12.010000109245368"><ele>8.0</ele><time>2026-03-24T12:37:06Z</time></trkpt><trkpt lat="45.4763073742847" lon="12.010019659851396"><ele>8.0</ele><time>2026-03-24T12:37:10Z</time></trkpt><trkpt lat="45.47641497213148" lon="12.01004434851135"><ele>8.0</ele><time>2026-03-24T12:37:12Z</time></trkpt><trkpt lat="45.476484577153705" lon="12.010076479991413"><ele>7.999999999999999</ele><time>2026-03-24T12:37:13Z</time></trkpt><trkpt lat="45.47656380533052" lon="12.010111677125943"><ele>8.0</ele><time>2026-03-24T12:37:14Z</time></trkpt><trkpt lat="45.47664935302876" lon="12.010137124593536"><ele>8.0</ele><time>2026-03-24T12:37:15Z</time></trkpt><trkpt lat="45.476739631730446" lon="12.010164953738503"><ele>8.0</ele><time>2026-03-24T12:37:16Z</time></trkpt><trkpt lat="45.47684055987585" lon="12.010196088021063"><ele>8.0</ele><time>2026-03-24T12:37:17Z</time></trkpt><trkpt lat="45.476948222370865" lon="12.010233445926715"><ele>8.0</ele><time>2026-03-24T12:37:18Z</time></trkpt><trkpt lat="45.477060788470624" lon="12.010274398926974"><ele>8.0</ele><time>2026-03-24T12:37:19Z</time></trkpt><trkpt lat="45.477181862813644" lon="12.010318380362454"><ele>7.5</ele><time>2026-03-24T12:37:20Z</time></trkpt><trkpt lat="45.477313793691124" lon="12.010363350965882"><ele>7.0</ele><time>2026-03-24T12:37:21Z</time></trkpt><trkpt lat="45.477455449873936" lon="12.010414865012473"><ele>6.5</ele><time>2026-03-24T12:37:22Z</time></trkpt><trkpt lat="45.477606605531896" lon="12.010473592715337"><ele>6.0</ele><time>2026-03-24T12:37:23Z</time></trkpt><trkpt lat="45.47776676960278" lon="12.010535961751492"><ele>6.666666666666666</ele><time>2026-03-24T12:37:24Z</time></trkpt><trkpt lat="45.477939218297564" lon="12.010599361401363"><ele>7.333333333333333</ele><time>2026-03-24T12:37:25Z</time></trkpt><trkpt lat="45.478115313914394" lon="12.010656577989366"><ele>8.0</ele><time>2026-03-24T12:37:26Z</time></trkpt><trkpt lat="45.47829868893914" lon="12.010719439323788"><ele>8.0</ele><time>2026-03-24T12:37:27Z</time></trkpt><trkpt lat="45.478492511232325" lon="12.010791843648715"><ele>8.0</ele><time>2026-03-24T12:37:28Z</time></trkpt><trkpt lat="45.478690454352055" lon="12.010866858115318"><ele>8.0</ele><time>2026-03-24T12:37:29Z</time></trkpt><trkpt lat="45.47889412184324" lon="12.010941487141581"><ele>7.666666666666666</ele><time>2026-03-24T12:37:30Z</time></trkpt><trkpt lat="45.479103942488315" lon="12.011020712476848"><ele>7.333333333333334</ele><time>2026-03-24T12:37:31Z</time></trkpt><trkpt lat="45.47930946026535" lon="12.011088149883552"><ele>7.0</ele><time>2026-03-24T12:37:32Z</time></trkpt><trkpt lat="45.47951686761888" lon="12.011163008573972"><ele>7.333333333333334</ele><time>2026-03-24T12:37:33Z</time></trkpt><trkpt lat="45.47972785686429" lon="12.011241645490227"><ele>7.666666666666666</ele><time>2026-03-24T12:37:34Z</time></trkpt><trkpt lat="45.47993709535596" lon="12.011319822880614"><ele>8.0</ele><time>2026-03-24T12:37:35Z</time></trkpt><trkpt lat="45.48014564907262" lon="12.011398061033841"><ele>8.0</ele><time>2026-03-24T12:37:36Z</time></trkpt><trkpt lat="45.48033920843447" lon="12.011471330545485"><ele>8.0</ele><time>2026-03-24T12:37:37Z</time></trkpt><trkpt lat="45.48051653830794" lon="12.011523567708467"><ele>8.0</ele><time>2026-03-24T12:37:38Z</time></trkpt><trkpt lat="45.48067907070737" lon="12.011583987136442"><ele>8.25</ele><time>2026-03-24T12:37:39Z</time></trkpt><trkpt lat="45.480826399849235" lon="12.011648847773353"><ele>8.5</ele><time>2026-03-24T12:37:40Z</time></trkpt><trkpt lat="45.48097388785025" lon="12.011698624136228"><ele>8.75</ele><time>2026-03-24T12:37:41Z</time></trkpt><trkpt lat="45.48111243476557" lon="12.011749299848969"><ele>9.0</ele><time>2026-03-24T12:37:42Z</time></trkpt><trkpt lat="45.481235277497156" lon="12.011791824409393"><ele>8.8</ele><time>2026-03-24T12:37:43Z</time></trkpt><trkpt lat="45.48134932493337" lon="12.011832977454086"><ele>8.600000000000001</ele><time>2026-03-24T12:37:44Z</time></trkpt><trkpt lat="45.48145919125376" lon="12.011875269674626"><ele>8.4</ele><time>2026-03-24T12:37:45Z</time></trkpt><trkpt lat="45.48156117475052" lon="12.011915241092229"><ele>8.200000000000001</ele><time>2026-03-24T12:37:46Z</time></trkpt><trkpt lat="45.48165179786879" lon="12.011948250879527"><ele>8.0</ele><time>2026-03-24T12:37:47Z</time></trkpt><trkpt lat="45.48173301768829" lon="12.011975441848062"><ele>8.0</ele><time>2026-03-24T12:37:48Z</time></trkpt><trkpt lat="45.48180928850981" lon="12.012002233595288"><ele>8.0</ele><time>2026-03-24T12:37:49Z</time></trkpt><trkpt lat="45.48187420016618" lon="12.012026739757697"><ele>8.0</ele><time>2026-03-24T12:37:50Z</time></trkpt><trkpt lat="45.48198510259932" lon="12.012068221646986"><ele>8.0</ele><time>2026-03-24T12:37:52Z</time></trkpt><trkpt lat="45.48209128757557" lon="12.012108534067531"><ele>8.0</ele><time>2026-03-24T12:37:54Z</time></trkpt><trkpt lat="45.48219164238955" lon="12.012144151083508"><ele>8.200000000000001</ele><time>2026-03-24T12:37:56Z</time></trkpt><trkpt lat="45.48225800617879" lon="12.012168729979201"><ele>8.4</ele><time>2026-03-24T12:37:58Z</time></trkpt><trkpt lat="45.48234720917929" lon="12.012186270676402"><ele>8.600000000000001</ele><time>2026-03-24T12:38:14Z</time></trkpt><trkpt lat="45.48247055381833" lon="12.012224420157555"><ele>8.8</ele><time>2026-03-24T12:38:16Z</time></trkpt><trkpt lat="45.48255551729763" lon="12.01224858943946"><ele>9.0</ele><time>2026-03-24T12:38:17Z</time></trkpt><trkpt lat="45.482640348647585" lon="12.012277891548353"><ele>9.0</ele><time>2026-03-24T12:38:18Z</time></trkpt><trkpt lat="45.48272856646612" lon="12.012315009795563"><ele>9.0</ele><time>2026-03-24T12:38:19Z</time></trkpt><trkpt lat="45.48282352631277" lon="12.012358135687977"><ele>9.0</ele><time>2026-03-24T12:38:20Z</time></trkpt><trkpt lat="45.482916154470004" lon="12.012394134323815"><ele>9.0</ele><time>2026-03-24T12:38:21Z</time></trkpt><trkpt lat="45.48301287789973" lon="12.012428980895383"><ele>9.0</ele><time>2026-03-24T12:38:22Z</time></trkpt><trkpt lat="45.483114764089486" lon="12.012465832536648"><ele>9.0</ele><time>2026-03-24T12:38:23Z</time></trkpt><trkpt lat="45.483212913251776" lon="12.012501855739888"><ele>9.0</ele><time>2026-03-24T12:38:24Z</time></trkpt><trkpt lat="45.483312126417296" lon="12.01255599424779"><ele>9.0</ele><time>2026-03-24T12:38:25Z</time></trkpt><trkpt lat="45.48341961576921" lon="12.012589054628291"><ele>9.0</ele><time>2026-03-24T12:38:26Z</time></trkpt><trkpt lat="45.48352424354341" lon="12.012629487191923"><ele>9.0</ele><time>2026-03-24T12:38:27Z</time></trkpt><trkpt lat="45.48362880777611" lon="12.012671370426816"><ele>9.0</ele><time>2026-03-24T12:38:28Z</time></trkpt><trkpt lat="45.48372520589704" lon="12.012697433210406"><ele>9.0</ele><time>2026-03-24T12:38:29Z</time></trkpt><trkpt lat="45.48383213531704" lon="12.012759925506645"><ele>9.0</ele><time>2026-03-24T12:38:30Z</time></trkpt><trkpt lat="45.483936145650155" lon="12.012805080762272"><ele>9.0</ele><time>2026-03-24T12:38:31Z</time></trkpt><trkpt lat="45.48404038895137" lon="12.012848632998207"><ele>9.0</ele><time>2026-03-24T12:38:32Z</time></trkpt><trkpt lat="45.48415040292315" lon="12.01289718294659"><ele>8.75</ele><time>2026-03-24T12:38:33Z</time></trkpt><trkpt lat="45.48425092657655" lon="12.012936699044895"><ele>8.5</ele><time>2026-03-24T12:38:34Z</time></trkpt><trkpt lat="45.484363600949074" lon="12.012988036512159"><ele>8.25</ele><time>2026-03-24T12:38:35Z</time></trkpt><trkpt lat="45.48448389352587" lon="12.013029373076323"><ele>8.0</ele><time>2026-03-24T12:38:36Z</time></trkpt><trkpt lat="45.48461069880768" lon="12.013078556427626"><ele>8.0</ele><time>2026-03-24T12:38:37Z</time></trkpt><trkpt lat="45.48473665245594" lon="12.013129146224994"><ele>8.0</ele><time>2026-03-24T12:38:38Z</time></trkpt><trkpt lat="45.48487472305506" lon="12.013178825805799"><ele>8.0</ele><time>2026-03-24T12:38:39Z</time></trkpt><trkpt lat="45.48501184663588" lon="12.013233865427068"><ele>8.0</ele><time>2026-03-24T12:38:40Z</time></trkpt><trkpt lat="45.4851594403292" lon="12.013288340890268"><ele>8.0</ele><time>2026-03-24T12:38:41Z</time></trkpt><trkpt lat="45.48531414816033" lon="12.01334512844822"><ele>8.0</ele><time>2026-03-24T12:38:42Z</time></trkpt><trkpt lat="45.48547591540131" lon="12.013406545646744"><ele>8.0</ele><time>2026-03-24T12:38:43Z</time></trkpt><trkpt lat="45.48564901603366" lon="12.013472975065978"><ele>8.0</ele><time>2026-03-24T12:38:44Z</time></trkpt><trkpt lat="45.48582349418048" lon="12.013535961895169"><ele>8.0</ele><time>2026-03-24T12:38:45Z</time></trkpt><trkpt lat="45.486003415848934" lon="12.013599615547989"><ele>8.0</ele><time>2026-03-24T12:38:46Z</time></trkpt><trkpt lat="45.48618273810423" lon="12.013664696795713"><ele>8.0</ele><time>2026-03-24T12:38:47Z</time></trkpt><trkpt lat="45.48636141371406" lon="12.013732024298445"><ele>8.0</ele><time>2026-03-24T12:38:48Z</time></trkpt><trkpt lat="45.486539808501156" lon="12.013790778912727"><ele>8.0</ele><time>2026-03-24T12:38:49Z</time></trkpt><trkpt lat="45.48671547416851" lon="12.013855445154897"><ele>8.0</ele><time>2026-03-24T12:38:50Z</time></trkpt><trkpt lat="45.48689017559471" lon="12.013920020408074"><ele>8.0</ele><time>2026-03-24T12:38:51Z</time></trkpt><trkpt lat="45.48706323812843" lon="12.013986216204204"><ele>8.0</ele><time>2026-03-24T12:38:52Z</time></trkpt><trkpt lat="45.48723344043733" lon="12.014050509916721"><ele>8.0</ele><time>2026-03-24T12:38:53Z</time></trkpt><trkpt lat="45.48739830297803" lon="12.014110832405256"><ele>8.0</ele><time>2026-03-24T12:38:54Z</time></trkpt><trkpt lat="45.487557831367056" lon="12.014171148443701"><ele>8.0</ele><time>2026-03-24T12:38:55Z</time></trkpt><trkpt lat="45.4877067618974" lon="12.014225068803913"><ele>8.0</ele><time>2026-03-24T12:38:56Z</time></trkpt><trkpt lat="45.48784534263893" lon="12.014276616641409"><ele>8.0</ele><time>2026-03-24T12:38:57Z</time></trkpt><trkpt lat="45.48797634149638" lon="12.014323530521999"><ele>8.0</ele><time>2026-03-24T12:38:58Z</time></trkpt><trkpt lat="45.48809880967134" lon="12.014368411294393"><ele>8.0</ele><time>2026-03-24T12:38:59Z</time></trkpt><trkpt lat="45.488212054063794" lon="12.014409952905265"><ele>7.999999999999999</ele><time>2026-03-24T12:39:00Z</time></trkpt><trkpt lat="45.488309231242475" lon="12.014443863851886"><ele>8.0</ele><time>2026-03-24T12:39:01Z</time></trkpt><trkpt lat="45.48838945815606" lon="12.014473252250113"><ele>8.0</ele><time>2026-03-24T12:39:02Z</time></trkpt><trkpt lat="45.48846722538216" lon="12.01450758052117"><ele>8.0</ele><time>2026-03-24T12:39:03Z</time></trkpt><trkpt lat="45.48853879818657" lon="12.01456695850766"><ele>7.999999999999999</ele><time>2026-03-24T12:39:04Z</time></trkpt><trkpt lat="45.48860907291103" lon="12.014627088907725"><ele>8.0</ele><time>2026-03-24T12:39:05Z</time></trkpt><trkpt lat="45.48869622749426" lon="12.01466153255528"><ele>8.0</ele><time>2026-03-24T12:39:06Z</time></trkpt><trkpt lat="45.48878901477012" lon="12.014673802667748"><ele>8.0</ele><time>2026-03-24T12:39:07Z</time></trkpt><trkpt lat="45.488890246702056" lon="12.014697652424923"><ele>8.0</ele><time>2026-03-24T12:39:08Z</time></trkpt><trkpt lat="45.48900329703655" lon="12.0147365512408"><ele>8.0</ele><time>2026-03-24T12:39:09Z</time></trkpt><trkpt lat="45.48912924776226" lon="12.014791757566815"><ele>8.0</ele><time>2026-03-24T12:39:10Z</time></trkpt><trkpt lat="45.48926673799032" lon="12.01484599902662"><ele>8.0</ele><time>2026-03-24T12:39:11Z</time></trkpt><trkpt lat="45.489412856047835" lon="12.01489680255707"><ele>8.0</ele><time>2026-03-24T12:39:12Z</time></trkpt><trkpt lat="45.489575554381766" lon="12.014955497307831"><ele>8.0</ele><time>2026-03-24T12:39:13Z</time></trkpt><trkpt lat="45.48974488055112" lon="12.015026188058464"><ele>8.0</ele><time>2026-03-24T12:39:14Z</time></trkpt><trkpt lat="45.48991721801679" lon="12.015090447227335"><ele>8.0</ele><time>2026-03-24T12:39:15Z</time></trkpt><trkpt lat="45.4901102399284" lon="12.015157165713337"><ele>8.0</ele><time>2026-03-24T12:39:16Z</time></trkpt><trkpt lat="45.4903027670926" lon="12.0152198105337"><ele>8.0</ele><time>2026-03-24T12:39:17Z</time></trkpt><trkpt lat="45.49050136375748" lon="12.015292704044693"><ele>8.0</ele><time>2026-03-24T12:39:18Z</time></trkpt><trkpt lat="45.490698145769926" lon="12.015373581480283"><ele>8.0</ele><time>2026-03-24T12:39:19Z</time></trkpt><trkpt lat="45.490905816157614" lon="12.01545581973271"><ele>8.0</ele><time>2026-03-24T12:39:20Z</time></trkpt><trkpt lat="45.491110427686756" lon="12.015530153618098"><ele>8.0</ele><time>2026-03-24T12:39:21Z</time></trkpt><trkpt lat="45.49131725066939" lon="12.015602429099912"><ele>8.0</ele><time>2026-03-24T12:39:22Z</time></trkpt><trkpt lat="45.49152575717897" lon="12.015687676600548"><ele>8.0</ele><time>2026-03-24T12:39:23Z</time></trkpt><trkpt lat="45.49174485282554" lon="12.015771802455086"><ele>8.0</ele><time>2026-03-24T12:39:24Z</time></trkpt><trkpt lat="45.49195669573621" lon="12.015851531288243"><ele>8.0</ele><time>2026-03-24T12:39:25Z</time></trkpt><trkpt lat="45.49216927632573" lon="12.015925688220051"><ele>8.0</ele><time>2026-03-24T12:39:26Z</time></trkpt><trkpt lat="45.49237569224618" lon="12.016000095644506"><ele>8.0</ele><time>2026-03-24T12:39:27Z</time></trkpt><trkpt lat="45.49257925135472" lon="12.01607638336966"><ele>8.0</ele><time>2026-03-24T12:39:28Z</time></trkpt><trkpt lat="45.492780923249235" lon="12.016155712531083"><ele>7.666666666666666</ele><time>2026-03-24T12:39:29Z</time></trkpt><trkpt lat="45.492980727568515" lon="12.016230909639045"><ele>7.333333333333334</ele><time>2026-03-24T12:39:30Z</time></trkpt><trkpt lat="45.4931792863109" lon="12.016305533127126"><ele>7.0</ele><time>2026-03-24T12:39:31Z</time></trkpt><trkpt lat="45.493371495273564" lon="12.01637904611537"><ele>7.0</ele><time>2026-03-24T12:39:32Z</time></trkpt><trkpt lat="45.493566600822035" lon="12.016450859048627"><ele>7.0</ele><time>2026-03-24T12:39:33Z</time></trkpt><trkpt lat="45.49376184839846" lon="12.016523445487005"><ele>7.0</ele><time>2026-03-24T12:39:34Z</time></trkpt><trkpt lat="45.49395090090458" lon="12.016592249795792"><ele>7.666666666666667</ele><time>2026-03-24T12:39:35Z</time></trkpt><trkpt lat="45.494137433908406" lon="12.016662157540743"><ele>8.333333333333334</ele><time>2026-03-24T12:39:36Z</time></trkpt><trkpt lat="45.49432997775319" lon="12.016736336077205"><ele>9.0</ele><time>2026-03-24T12:39:37Z</time></trkpt><trkpt lat="45.4945166363601" lon="12.01681899027983"><ele>9.0</ele><time>2026-03-24T12:39:38Z</time></trkpt><trkpt lat="45.49471569196948" lon="12.016889508464997"><ele>9.0</ele><time>2026-03-24T12:39:39Z</time></trkpt><trkpt lat="45.49492037972347" lon="12.016959765837663"><ele>9.0</ele><time>2026-03-24T12:39:40Z</time></trkpt><trkpt lat="45.49511936315694" lon="12.017035509837248"><ele>9.0</ele><time>2026-03-24T12:39:41Z</time></trkpt><trkpt lat="45.49531846080846" lon="12.017108536575124"><ele>9.0</ele><time>2026-03-24T12:39:42Z</time></trkpt><trkpt lat="45.49552095459418" lon="12.017181037296089"><ele>9.0</ele><time>2026-03-24T12:39:43Z</time></trkpt><trkpt lat="45.495720211092355" lon="12.017259663486353"><ele>9.0</ele><time>2026-03-24T12:39:44Z</time></trkpt><trkpt lat="45.49591490900927" lon="12.017328374880794"><ele>9.0</ele><time>2026-03-24T12:39:45Z</time></trkpt><trkpt lat="45.496106107603175" lon="12.017395175534213"><ele>9.0</ele><time>2026-03-24T12:39:46Z</time></trkpt><trkpt lat="45.49630325521731" lon="12.01746729841097"><ele>8.666666666666666</ele><time>2026-03-24T12:39:47Z</time></trkpt><trkpt lat="45.496496356745276" lon="12.017537921030984"><ele>8.333333333333332</ele><time>2026-03-24T12:39:48Z</time></trkpt><trkpt lat="45.49667835442826" lon="12.017601544006894"><ele>8.0</ele><time>2026-03-24T12:39:49Z</time></trkpt><trkpt lat="45.49685841732306" lon="12.017675770846159"><ele>8.0</ele><time>2026-03-24T12:39:50Z</time></trkpt><trkpt lat="45.49704545586709" lon="12.017722990298338"><ele>8.0</ele><time>2026-03-24T12:39:51Z</time></trkpt><trkpt lat="45.49722831325622" lon="12.017794510066162"><ele>8.0</ele><time>2026-03-24T12:39:52Z</time></trkpt><trkpt lat="45.49741941515343" lon="12.017864279118548"><ele>7.666666666666666</ele><time>2026-03-24T12:39:53Z</time></trkpt><trkpt lat="45.497603368615465" lon="12.01792992111428"><ele>7.333333333333334</ele><time>2026-03-24T12:39:54Z</time></trkpt><trkpt lat="45.49779057495607" lon="12.017997353632646"><ele>7.0</ele><time>2026-03-24T12:39:55Z</time></trkpt><trkpt lat="45.49797790648114" lon="12.018069612960161"><ele>7.666666666666667</ele><time>2026-03-24T12:39:56Z</time></trkpt><trkpt lat="45.498175364840165" lon="12.018133201120596"><ele>8.333333333333334</ele><time>2026-03-24T12:39:57Z</time></trkpt><trkpt lat="45.498377347874644" lon="12.018203121203676"><ele>9.0</ele><time>2026-03-24T12:39:58Z</time></trkpt><trkpt lat="45.49858556012173" lon="12.018270443774002"><ele>8.666666666666666</ele><time>2026-03-24T12:39:59Z</time></trkpt><trkpt lat="45.49879620420092" lon="12.018343516842295"><ele>8.333333333333332</ele><time>2026-03-24T12:40:00Z</time></trkpt><trkpt lat="45.49900697286546" lon="12.018419434124857"><ele>8.0</ele><time>2026-03-24T12:40:01Z</time></trkpt><trkpt lat="45.49922062262364" lon="12.01849799612047"><ele>8.0</ele><time>2026-03-24T12:40:02Z</time></trkpt><trkpt lat="45.499432989287726" lon="12.018581669572528"><ele>8.0</ele><time>2026-03-24T12:40:03Z</time></trkpt><trkpt lat="45.49965069147399" lon="12.018666377345754"><ele>8.0</ele><time>2026-03-24T12:40:04Z</time></trkpt><trkpt lat="45.4998671157726" lon="12.018753283613615"><ele>7.5</ele><time>2026-03-24T12:40:05Z</time></trkpt><trkpt lat="45.50008715077164" lon="12.018836154777468"><ele>7.0</ele><time>2026-03-24T12:40:06Z</time></trkpt><trkpt lat="45.50030907631213" lon="12.01891883512429"><ele>7.666666666666667</ele><time>2026-03-24T12:40:07Z</time></trkpt><trkpt lat="45.5005204528701" lon="12.018997727028044"><ele>8.333333333333334</ele><time>2026-03-24T12:40:08Z</time></trkpt><trkpt lat="45.50071801421508" lon="12.019067986311097"><ele>9.0</ele><time>2026-03-24T12:40:09Z</time></trkpt><trkpt lat="45.500907498960814" lon="12.019140922379394"><ele>8.666666666666666</ele><time>2026-03-24T12:40:10Z</time></trkpt><trkpt lat="45.5010965487183" lon="12.019216597655898"><ele>8.333333333333332</ele><time>2026-03-24T12:40:11Z</time></trkpt><trkpt lat="45.501281419821936" lon="12.019297961285478"><ele>8.0</ele><time>2026-03-24T12:40:12Z</time></trkpt><trkpt lat="45.50146252584045" lon="12.019384570192509"><ele>7.333333333333333</ele><time>2026-03-24T12:40:13Z</time></trkpt><trkpt lat="45.501641250608145" lon="12.019470828773862"><ele>6.666666666666666</ele><time>2026-03-24T12:40:14Z</time></trkpt><trkpt lat="45.50181177309829" lon="12.01955807257894"><ele>6.0</ele><time>2026-03-24T12:40:15Z</time></trkpt><trkpt lat="45.50198072046286" lon="12.01965340489845"><ele>6.333333333333334</ele><time>2026-03-24T12:40:16Z</time></trkpt><trkpt lat="45.502151488201584" lon="12.019736173964649"><ele>6.666666666666667</ele><time>2026-03-24T12:40:17Z</time></trkpt><trkpt lat="45.50232662336086" lon="12.01981020529021"><ele>7.0</ele><time>2026-03-24T12:40:18Z</time></trkpt><trkpt lat="45.50249164222235" lon="12.019871704974397"><ele>7.0</ele><time>2026-03-24T12:40:19Z</time></trkpt><trkpt lat="45.50267333390087" lon="12.019950365011196"><ele>7.0</ele><time>2026-03-24T12:40:20Z</time></trkpt><trkpt lat="45.502843588371185" lon="12.020006807292782"><ele>7.0</ele><time>2026-03-24T12:40:21Z</time></trkpt><trkpt lat="45.50302820939414" lon="12.02006994903023"><ele>7.666666666666667</ele><time>2026-03-24T12:40:22Z</time></trkpt><trkpt lat="45.503212720219196" lon="12.020135935907069"><ele>8.333333333333334</ele><time>2026-03-24T12:40:23Z</time></trkpt><trkpt lat="45.503393132380026" lon="12.020213041439632"><ele>9.0</ele><time>2026-03-24T12:40:24Z</time></trkpt><trkpt lat="45.50358151819967" lon="12.020277975968867"><ele>9.666666666666666</ele><time>2026-03-24T12:40:25Z</time></trkpt><trkpt lat="45.50376998272324" lon="12.020347540325384"><ele>10.333333333333332</ele><time>2026-03-24T12:40:26Z</time></trkpt><trkpt lat="45.50395566259986" lon="12.020418171111356"><ele>11.0</ele><time>2026-03-24T12:40:27Z</time></trkpt><trkpt lat="45.50413741873062" lon="12.02048649577257"><ele>11.0</ele><time>2026-03-24T12:40:28Z</time></trkpt><trkpt lat="45.504329882244114" lon="12.02056136996465"><ele>11.0</ele><time>2026-03-24T12:40:29Z</time></trkpt><trkpt lat="45.50452266977585" lon="12.020632110043326"><ele>11.0</ele><time>2026-03-24T12:40:30Z</time></trkpt><trkpt lat="45.50471368658448" lon="12.020692197183262"><ele>10.666666666666666</ele><time>2026-03-24T12:40:31Z</time></trkpt><trkpt lat="45.504907587930965" lon="12.020764874407847"><ele>10.333333333333334</ele><time>2026-03-24T12:40:32Z</time></trkpt><trkpt lat="45.5051064656124" lon="12.020841520733393"><ele>10.0</ele><time>2026-03-24T12:40:33Z</time></trkpt><trkpt lat="45.50529711568948" lon="12.020915413075668"><ele>9.666666666666668</ele><time>2026-03-24T12:40:34Z</time></trkpt><trkpt lat="45.50548231244169" lon="12.020984491845823"><ele>9.333333333333334</ele><time>2026-03-24T12:40:35Z</time></trkpt><trkpt lat="45.50565852393659" lon="12.021051441543102"><ele>9.0</ele><time>2026-03-24T12:40:36Z</time></trkpt><trkpt lat="45.505826156900596" lon="12.021115270706622"><ele>9.0</ele><time>2026-03-24T12:40:37Z</time></trkpt><trkpt lat="45.505983194614394" lon="12.02117186895907"><ele>9.0</ele><time>2026-03-24T12:40:38Z</time></trkpt><trkpt lat="45.50613052452425" lon="12.021230379821606"><ele>9.0</ele><time>2026-03-24T12:40:39Z</time></trkpt><trkpt lat="45.506265789093966" lon="12.02127988445069"><ele>9.0</ele><time>2026-03-24T12:40:40Z</time></trkpt><trkpt lat="45.50639177353223" lon="12.021323220369156"><ele>9.0</ele><time>2026-03-24T12:40:41Z</time></trkpt><trkpt lat="45.50650034119574" lon="12.02136620504027"><ele>9.0</ele><time>2026-03-24T12:40:42Z</time></trkpt><trkpt lat="45.50658793587694" lon="12.021399944646465"><ele>9.0</ele><time>2026-03-24T12:40:43Z</time></trkpt><trkpt lat="45.50666630085208" lon="12.021424141498253"><ele>9.0</ele><time>2026-03-24T12:40:44Z</time></trkpt><trkpt lat="45.506770293477196" lon="12.0214619240682"><ele>9.0</ele><time>2026-03-24T12:40:46Z</time></trkpt><trkpt lat="45.50685648490403" lon="12.021534306876788"><ele>9.0</ele><time>2026-03-24T12:40:48Z</time></trkpt><trkpt lat="45.50694037710266" lon="12.021555966038235"><ele>9.0</ele><time>2026-03-24T12:40:50Z</time></trkpt><trkpt lat="45.507054470834" lon="12.021600433221842"><ele>9.0</ele><time>2026-03-24T12:40:52Z</time></trkpt><trkpt lat="45.507139120324815" lon="12.021551388688573"><ele>9.0</ele><time>2026-03-24T12:40:54Z</time></trkpt><trkpt lat="45.50722079252867" lon="12.021538792374402"><ele>9.2</ele><time>2026-03-24T12:40:55Z</time></trkpt><trkpt lat="45.50730230337205" lon="12.02152547527569"><ele>9.4</ele><time>2026-03-24T12:40:56Z</time></trkpt><trkpt lat="45.50740401590717" lon="12.021623359415086"><ele>9.6</ele><time>2026-03-24T12:40:57Z</time></trkpt><trkpt lat="45.50750036812043" lon="12.02163360391224"><ele>9.8</ele><time>2026-03-24T12:40:58Z</time></trkpt><trkpt lat="45.507600618798435" lon="12.021672347118919"><ele>10.0</ele><time>2026-03-24T12:40:59Z</time></trkpt><trkpt lat="45.50771883917786" lon="12.021723040470867"><ele>10.0</ele><time>2026-03-24T12:41:00Z</time></trkpt><trkpt lat="45.507841910689365" lon="12.02176538405077"><ele>10.0</ele><time>2026-03-24T12:41:01Z</time></trkpt><trkpt lat="45.50798134573263" lon="12.021819007364945"><ele>10.0</ele><time>2026-03-24T12:41:02Z</time></trkpt><trkpt lat="45.5081208049762" lon="12.021864217302904"><ele>10.0</ele><time>2026-03-24T12:41:03Z</time></trkpt><trkpt lat="45.50827095417657" lon="12.02192076844664"><ele>10.333333333333334</ele><time>2026-03-24T12:41:04Z</time></trkpt><trkpt lat="45.50843360542318" lon="12.021968904344051"><ele>10.666666666666666</ele><time>2026-03-24T12:41:05Z</time></trkpt><trkpt lat="45.50859354639158" lon="12.022041522612502"><ele>11.0</ele><time>2026-03-24T12:41:06Z</time></trkpt><trkpt lat="45.50876180066854" lon="12.022102391003823"><ele>11.333333333333332</ele><time>2026-03-24T12:41:07Z</time></trkpt><trkpt lat="45.50893386922315" lon="12.02216634731158"><ele>11.666666666666666</ele><time>2026-03-24T12:41:08Z</time></trkpt><trkpt lat="45.509102081132895" lon="12.022229636873593"><ele>12.0</ele><time>2026-03-24T12:41:09Z</time></trkpt><trkpt lat="45.50927415265336" lon="12.022291406552352"><ele>12.0</ele><time>2026-03-24T12:41:10Z</time></trkpt><trkpt lat="45.509454830123296" lon="12.022360282400282"><ele>12.0</ele><time>2026-03-24T12:41:11Z</time></trkpt><trkpt lat="45.50964093025653" lon="12.022425487775493"><ele>12.0</ele><time>2026-03-24T12:41:12Z</time></trkpt><trkpt lat="45.50982686614684" lon="12.022489241325056"><ele>12.0</ele><time>2026-03-24T12:41:13Z</time></trkpt><trkpt lat="45.510005700227595" lon="12.02257804676463"><ele>12.0</ele><time>2026-03-24T12:41:14Z</time></trkpt><trkpt lat="45.51020307122934" lon="12.022630095656718"><ele>12.0</ele><time>2026-03-24T12:41:15Z</time></trkpt><trkpt lat="45.51039788778926" lon="12.022711790865216"><ele>11.333333333333334</ele><time>2026-03-24T12:41:16Z</time></trkpt><trkpt lat="45.51060310186659" lon="12.022791007908188"><ele>10.666666666666668</ele><time>2026-03-24T12:41:17Z</time></trkpt><trkpt lat="45.510810063262696" lon="12.022862038535234"><ele>10.0</ele><time>2026-03-24T12:41:18Z</time></trkpt><trkpt lat="45.51102047802729" lon="12.022928770613287"><ele>10.0</ele><time>2026-03-24T12:41:19Z</time></trkpt><trkpt lat="45.51123764489449" lon="12.023010568241173"><ele>10.0</ele><time>2026-03-24T12:41:20Z</time></trkpt><trkpt lat="45.5114526607313" lon="12.023086169466495"><ele>10.0</ele><time>2026-03-24T12:41:21Z</time></trkpt><trkpt lat="45.511670368051895" lon="12.023169402252742"><ele>9.666666666666668</ele><time>2026-03-24T12:41:22Z</time></trkpt><trkpt lat="45.511878675276805" lon="12.023249531806986"><ele>9.333333333333334</ele><time>2026-03-24T12:41:23Z</time></trkpt><trkpt lat="45.512075303759964" lon="12.023316339576176"><ele>9.0</ele><time>2026-03-24T12:41:24Z</time></trkpt><trkpt lat="45.512265351484196" lon="12.023381592740078"><ele>9.75</ele><time>2026-03-24T12:41:25Z</time></trkpt><trkpt lat="45.51242886832297" lon="12.023445857638439"><ele>10.5</ele><time>2026-03-24T12:41:26Z</time></trkpt><trkpt lat="45.512569714394516" lon="12.023497903165923"><ele>11.25</ele><time>2026-03-24T12:41:27Z</time></trkpt><trkpt lat="45.51269513367998" lon="12.0235464539988"><ele>12.0</ele><time>2026-03-24T12:41:28Z</time></trkpt><trkpt lat="45.512796330588024" lon="12.023584326986942"><ele>12.0</ele><time>2026-03-24T12:41:29Z</time></trkpt><trkpt lat="45.51289325684258" lon="12.023618524020735"><ele>12.0</ele><time>2026-03-24T12:41:30Z</time></trkpt><trkpt lat="45.51296662427169" lon="12.023647043855528"><ele>12.0</ele><time>2026-03-24T12:41:31Z</time></trkpt><trkpt lat="45.513032984469945" lon="12.02367035098601"><ele>12.0</ele><time>2026-03-24T12:41:32Z</time></trkpt><trkpt lat="45.51313636768824" lon="12.023716705706482"><ele>12.0</ele><time>2026-03-24T12:41:34Z</time></trkpt><trkpt lat="45.51320367827552" lon="12.023751104245758"><ele>12.0</ele><time>2026-03-24T12:41:37Z</time></trkpt><trkpt lat="45.513323190351805" lon="12.023773124155102"><ele>11.833333333333334</ele><time>2026-03-24T12:41:45Z</time></trkpt><trkpt lat="45.51339273395348" lon="12.023793648771601"><ele>11.666666666666666</ele><time>2026-03-24T12:41:46Z</time></trkpt><trkpt lat="45.513475067753895" lon="12.023823284379807"><ele>11.5</ele><time>2026-03-24T12:41:47Z</time></trkpt><trkpt lat="45.513559935046594" lon="12.023854304078077"><ele>11.333333333333332</ele><time>2026-03-24T12:41:48Z</time></trkpt><trkpt lat="45.51364366398492" lon="12.023906847516216"><ele>11.166666666666666</ele><time>2026-03-24T12:41:49Z</time></trkpt><trkpt lat="45.51374647387237" lon="12.02394521981268"><ele>11.0</ele><time>2026-03-24T12:41:50Z</time></trkpt><trkpt lat="45.51385666258641" lon="12.023986346189298"><ele>10.75</ele><time>2026-03-24T12:41:51Z</time></trkpt><trkpt lat="45.5139743327978" lon="12.024030264902343"><ele>10.5</ele><time>2026-03-24T12:41:52Z</time></trkpt><trkpt lat="45.51409812144374" lon="12.024076867997888"><ele>10.25</ele><time>2026-03-24T12:41:53Z</time></trkpt><trkpt lat="45.51422363637589" lon="12.024124605240305"><ele>10.0</ele><time>2026-03-24T12:41:54Z</time></trkpt><trkpt lat="45.51437033096928" lon="12.024171059224638"><ele>10.0</ele><time>2026-03-24T12:41:55Z</time></trkpt><trkpt lat="45.514516261158256" lon="12.02422860804693"><ele>10.0</ele><time>2026-03-24T12:41:56Z</time></trkpt><trkpt lat="45.514669788018686" lon="12.024287347192828"><ele>10.0</ele><time>2026-03-24T12:41:57Z</time></trkpt><trkpt lat="45.514830792012596" lon="12.024346409603439"><ele>10.0</ele><time>2026-03-24T12:41:58Z</time></trkpt><trkpt lat="45.51499478611189" lon="12.02441154540899"><ele>10.0</ele><time>2026-03-24T12:41:59Z</time></trkpt><trkpt lat="45.515160321883" lon="12.024484310454916"><ele>10.0</ele><time>2026-03-24T12:41:59.999Z</time></trkpt><trkpt lat="45.515335705309546" lon="12.02456230762925"><ele>9.666666666666668</ele><time>2026-03-24T12:42:00.999Z</time></trkpt><trkpt lat="45.515515781995674" lon="12.024629294045756"><ele>9.333333333333334</ele><time>2026-03-24T12:42:01.999Z</time></trkpt><trkpt lat="45.5156932259691" lon="12.024696030661344"><ele>9.0</ele><time>2026-03-24T12:42:02.999Z</time></trkpt><trkpt lat="45.51587325248507" lon="12.024759940521639"><ele>9.0</ele><time>2026-03-24T12:42:03.999Z</time></trkpt><trkpt lat="45.51605375918183" lon="12.024823588441109"><ele>9.0</ele><time>2026-03-24T12:42:05Z</time></trkpt><trkpt lat="45.5162378498926" lon="12.024891968218528"><ele>9.0</ele><time>2026-03-24T12:42:06Z</time></trkpt><trkpt lat="45.51642545067372" lon="12.024959108266444"><ele>9.333333333333334</ele><time>2026-03-24T12:42:07Z</time></trkpt><trkpt lat="45.51662843200642" lon="12.025037774460383"><ele>9.666666666666668</ele><time>2026-03-24T12:42:08Z</time></trkpt><trkpt lat="45.516817793249004" lon="12.02510619062883"><ele>10.0</ele><time>2026-03-24T12:42:09Z</time></trkpt><trkpt lat="45.51699225581371" lon="12.025173294567649"><ele>10.333333333333334</ele><time>2026-03-24T12:42:10Z</time></trkpt><trkpt lat="45.51715708670017" lon="12.025230921940217"><ele>10.666666666666666</ele><time>2026-03-24T12:42:11Z</time></trkpt><trkpt lat="45.51732006792724" lon="12.025292461621987"><ele>11.0</ele><time>2026-03-24T12:42:12Z</time></trkpt><trkpt lat="45.51748051792558" lon="12.025357690362432"><ele>11.0</ele><time>2026-03-24T12:42:13Z</time></trkpt><trkpt lat="45.517639739414584" lon="12.025422204347313"><ele>11.0</ele><time>2026-03-24T12:42:14Z</time></trkpt><trkpt lat="45.51779241344465" lon="12.025477414160276"><ele>11.0</ele><time>2026-03-24T12:42:15Z</time></trkpt><trkpt lat="45.5179346280971" lon="12.025529946142157"><ele>10.75</ele><time>2026-03-24T12:42:16Z</time></trkpt><trkpt lat="45.518074065929824" lon="12.025585476071482"><ele>10.5</ele><time>2026-03-24T12:42:17Z</time></trkpt><trkpt lat="45.518204145437025" lon="12.025627607530453"><ele>10.25</ele><time>2026-03-24T12:42:18Z</time></trkpt><trkpt lat="45.518336108889805" lon="12.025675635958269"><ele>10.0</ele><time>2026-03-24T12:42:19Z</time></trkpt><trkpt lat="45.51847447395537" lon="12.025723381845477"><ele>10.0</ele><time>2026-03-24T12:42:20Z</time></trkpt><trkpt lat="45.518609848788465" lon="12.025776385141159"><ele>10.0</ele><time>2026-03-24T12:42:21Z</time></trkpt><trkpt lat="45.5187318766852" lon="12.025830650493955"><ele>10.0</ele><time>2026-03-24T12:42:22Z</time></trkpt><trkpt lat="45.51884886421644" lon="12.025876214886873"><ele>10.0</ele><time>2026-03-24T12:42:23Z</time></trkpt><trkpt lat="45.51896695719216" lon="12.02592148370748"><ele>9.8</ele><time>2026-03-24T12:42:24Z</time></trkpt><trkpt lat="45.51907538214287" lon="12.02595577719814"><ele>9.6</ele><time>2026-03-24T12:42:25Z</time></trkpt><trkpt lat="45.5191744944481" lon="12.025994739791663"><ele>9.4</ele><time>2026-03-24T12:42:26Z</time></trkpt><trkpt lat="45.51926279754709" lon="12.026023466975602"><ele>9.2</ele><time>2026-03-24T12:42:27Z</time></trkpt><trkpt lat="45.519335724959255" lon="12.026051132912514"><ele>9.0</ele><time>2026-03-24T12:42:28Z</time></trkpt><trkpt lat="45.51941103348352" lon="12.026080198255642"><ele>9.0</ele><time>2026-03-24T12:42:29Z</time></trkpt><trkpt lat="45.519480116221445" lon="12.026095673448257"><ele>9.0</ele><time>2026-03-24T12:42:31Z</time></trkpt><trkpt lat="45.51954332678751" lon="12.026142120279513"><ele>9.0</ele><time>2026-03-24T12:42:34Z</time></trkpt><trkpt lat="45.519607130107815" lon="12.026260924867989"><ele>9.0</ele><time>2026-03-24T12:42:37Z</time></trkpt><trkpt lat="45.51966125014103" lon="12.026312331354713"><ele>9.0</ele><time>2026-03-24T12:42:38Z</time></trkpt><trkpt lat="45.51974084062021" lon="12.02632620681279"><ele>9.0</ele><time>2026-03-24T12:42:39Z</time></trkpt><trkpt lat="45.5198408816533" lon="12.02633226916552"><ele>9.0</ele><time>2026-03-24T12:42:40Z</time></trkpt><trkpt lat="45.519932674427196" lon="12.026337771158083"><ele>9.0</ele><time>2026-03-24T12:42:41Z</time></trkpt><trkpt lat="45.52004130603931" lon="12.026343365156052"><ele>9.0</ele><time>2026-03-24T12:42:42Z</time></trkpt><trkpt lat="45.5201491214399" lon="12.026363078172027"><ele>9.0</ele><time>2026-03-24T12:42:43Z</time></trkpt><trkpt lat="45.52027604754635" lon="12.026401669434382"><ele>9.0</ele><time>2026-03-24T12:42:44Z</time></trkpt><trkpt lat="45.52039997986356" lon="12.026439665386967"><ele>9.0</ele><time>2026-03-24T12:42:45Z</time></trkpt><trkpt lat="45.52052723920587" lon="12.026487197530189"><ele>9.0</ele><time>2026-03-24T12:42:46Z</time></trkpt><trkpt lat="45.520658915985464" lon="12.026542932665564"><ele>9.0</ele><time>2026-03-24T12:42:47Z</time></trkpt><trkpt lat="45.52080108166208" lon="12.026597813052827"><ele>9.0</ele><time>2026-03-24T12:42:48Z</time></trkpt><trkpt lat="45.52094783174541" lon="12.026649423735696"><ele>9.666666666666666</ele><time>2026-03-24T12:42:49Z</time></trkpt><trkpt lat="45.521098764037006" lon="12.026701837543078"><ele>10.333333333333332</ele><time>2026-03-24T12:42:50Z</time></trkpt><trkpt lat="45.52125646944721" lon="12.026758035125141"><ele>11.0</ele><time>2026-03-24T12:42:51Z</time></trkpt><trkpt lat="45.52142074615797" lon="12.026820555953917"><ele>11.0</ele><time>2026-03-24T12:42:52Z</time></trkpt><trkpt lat="45.52159459426913" lon="12.026885422900103"><ele>11.0</ele><time>2026-03-24T12:42:53Z</time></trkpt><trkpt lat="45.521771974498144" lon="12.026952304404707"><ele>11.0</ele><time>2026-03-24T12:42:54Z</time></trkpt><trkpt lat="45.52195644879814" lon="12.027021238716523"><ele>11.0</ele><time>2026-03-24T12:42:55Z</time></trkpt><trkpt lat="45.52214923309319" lon="12.027094356633809"><ele>11.0</ele><time>2026-03-24T12:42:56Z</time></trkpt><trkpt lat="45.52234453377625" lon="12.027171440481771"><ele>11.0</ele><time>2026-03-24T12:42:57Z</time></trkpt><trkpt lat="45.522544242637466" lon="12.02725065551763"><ele>11.0</ele><time>2026-03-24T12:42:58Z</time></trkpt><trkpt lat="45.522749349280154" lon="12.027324094759642"><ele>11.0</ele><time>2026-03-24T12:42:59Z</time></trkpt><trkpt lat="45.52295850722084" lon="12.027403590601082"><ele>11.0</ele><time>2026-03-24T12:43:00Z</time></trkpt><trkpt lat="45.52316096567245" lon="12.027478203653278"><ele>11.0</ele><time>2026-03-24T12:43:01Z</time></trkpt><trkpt lat="45.523361583501575" lon="12.027557612186115"><ele>11.0</ele><time>2026-03-24T12:43:02Z</time></trkpt><trkpt lat="45.523556944828364" lon="12.027628479488353"><ele>11.0</ele><time>2026-03-24T12:43:03Z</time></trkpt><trkpt lat="45.52375411239018" lon="12.02770136873717"><ele>11.666666666666666</ele><time>2026-03-24T12:43:04Z</time></trkpt><trkpt lat="45.52395088394378" lon="12.027779282193526"><ele>12.333333333333332</ele><time>2026-03-24T12:43:05Z</time></trkpt><trkpt lat="45.52414835712335" lon="12.027855790913893"><ele>13.0</ele><time>2026-03-24T12:43:06Z</time></trkpt><trkpt lat="45.52434765315291" lon="12.027933490506106"><ele>13.0</ele><time>2026-03-24T12:43:07Z</time></trkpt><trkpt lat="45.52454707085935" lon="12.028010459893355"><ele>13.0</ele><time>2026-03-24T12:43:08Z</time></trkpt><trkpt lat="45.52475048048594" lon="12.028085040993126"><ele>13.0</ele><time>2026-03-24T12:43:09Z</time></trkpt><trkpt lat="45.52494904090789" lon="12.028162053607462"><ele>13.0</ele><time>2026-03-24T12:43:10Z</time></trkpt><trkpt lat="45.52515321242576" lon="12.028241928053095"><ele>13.0</ele><time>2026-03-24T12:43:11Z</time></trkpt><trkpt lat="45.52535567256504" lon="12.028313614009758"><ele>13.0</ele><time>2026-03-24T12:43:12Z</time></trkpt><trkpt lat="45.525559495687496" lon="12.028391449947957"><ele>12.666666666666666</ele><time>2026-03-24T12:43:13Z</time></trkpt><trkpt lat="45.52576613158049" lon="12.028464252255084"><ele>12.333333333333332</ele><time>2026-03-24T12:43:14Z</time></trkpt><trkpt lat="45.52597252996834" lon="12.028539300832376"><ele>12.0</ele><time>2026-03-24T12:43:15Z</time></trkpt><trkpt lat="45.52618071653754" lon="12.028621757663618"><ele>12.666666666666668</ele><time>2026-03-24T12:43:16Z</time></trkpt><trkpt lat="45.52639660087253" lon="12.02870032120395"><ele>13.333333333333334</ele><time>2026-03-24T12:43:17Z</time></trkpt><trkpt lat="45.52660940001693" lon="12.028774888557399"><ele>14.0</ele><time>2026-03-24T12:43:18Z</time></trkpt><trkpt lat="45.52681910523482" lon="12.028861020919106"><ele>14.0</ele><time>2026-03-24T12:43:19Z</time></trkpt><trkpt lat="45.5270272310845" lon="12.028939980304834"><ele>14.0</ele><time>2026-03-24T12:43:20Z</time></trkpt><trkpt lat="45.52723769691146" lon="12.029017632727854"><ele>14.0</ele><time>2026-03-24T12:43:21Z</time></trkpt><trkpt lat="45.52744578427411" lon="12.029095565654492"><ele>13.333333333333334</ele><time>2026-03-24T12:43:22Z</time></trkpt><trkpt lat="45.527664005229866" lon="12.029183396846795"><ele>12.666666666666668</ele><time>2026-03-24T12:43:23Z</time></trkpt><trkpt lat="45.5278608563425" lon="12.029263722845034"><ele>12.0</ele><time>2026-03-24T12:43:24Z</time></trkpt><trkpt lat="45.52806201111837" lon="12.029327553037627"><ele>11.5</ele><time>2026-03-24T12:43:25Z</time></trkpt><trkpt lat="45.5282810081437" lon="12.029412532632078"><ele>11.0</ele><time>2026-03-24T12:43:26Z</time></trkpt><trkpt lat="45.52849690646435" lon="12.029497928360517"><ele>11.0</ele><time>2026-03-24T12:43:27Z</time></trkpt><trkpt lat="45.52871643674928" lon="12.029580407090018"><ele>11.0</ele><time>2026-03-24T12:43:28Z</time></trkpt><trkpt lat="45.528936210830544" lon="12.029661571098005"><ele>11.0</ele><time>2026-03-24T12:43:29Z</time></trkpt><trkpt lat="45.529149828118754" lon="12.029738539068413"><ele>11.0</ele><time>2026-03-24T12:43:30Z</time></trkpt><trkpt lat="45.52935346832451" lon="12.029813935680933"><ele>11.0</ele><time>2026-03-24T12:43:31Z</time></trkpt><trkpt lat="45.529538449848495" lon="12.02988606222446"><ele>11.0</ele><time>2026-03-24T12:43:32Z</time></trkpt><trkpt lat="45.5297254651558" lon="12.029957622569373"><ele>11.0</ele><time>2026-03-24T12:43:33Z</time></trkpt><trkpt lat="45.529916396772606" lon="12.030034229277021"><ele>11.0</ele><time>2026-03-24T12:43:34Z</time></trkpt><trkpt lat="45.53010731924984" lon="12.03010215581845"><ele>11.0</ele><time>2026-03-24T12:43:35Z</time></trkpt><trkpt lat="45.5303065929941" lon="12.030176161441544"><ele>11.0</ele><time>2026-03-24T12:43:36Z</time></trkpt><trkpt lat="45.53050642808424" lon="12.030250116115484"><ele>11.0</ele><time>2026-03-24T12:43:37Z</time></trkpt><trkpt lat="45.53070601199671" lon="12.030325248061297"><ele>11.0</ele><time>2026-03-24T12:43:38Z</time></trkpt><trkpt lat="45.5309091508971" lon="12.030403155329793"><ele>11.0</ele><time>2026-03-24T12:43:39Z</time></trkpt><trkpt lat="45.531099687445604" lon="12.03047816432518"><ele>11.0</ele><time>2026-03-24T12:43:40Z</time></trkpt><trkpt lat="45.53129265336065" lon="12.030543773741918"><ele>11.333333333333332</ele><time>2026-03-24T12:43:41Z</time></trkpt><trkpt lat="45.531478533540465" lon="12.030612597461385"><ele>11.666666666666666</ele><time>2026-03-24T12:43:42Z</time></trkpt><trkpt lat="45.531646726119" lon="12.030676106020847"><ele>12.0</ele><time>2026-03-24T12:43:43Z</time></trkpt><trkpt lat="45.531803343710784" lon="12.030735501310215"><ele>12.0</ele><time>2026-03-24T12:43:44Z</time></trkpt><trkpt lat="45.53193998451655" lon="12.030794498105728"><ele>12.0</ele><time>2026-03-24T12:43:45Z</time></trkpt><trkpt lat="45.532048239713724" lon="12.030831455865588"><ele>12.0</ele><time>2026-03-24T12:43:46Z</time></trkpt><trkpt lat="45.53214255671134" lon="12.030870009596436"><ele>12.0</ele><time>2026-03-24T12:43:47Z</time></trkpt><trkpt lat="45.532217939861525" lon="12.030897927887198"><ele>12.0</ele><time>2026-03-24T12:43:48Z</time></trkpt><trkpt lat="45.53231399659272" lon="12.030881599346362"><ele>12.2</ele><time>2026-03-24T12:43:50Z</time></trkpt><trkpt lat="45.5323173673529" lon="12.030754245397045"><ele>12.399999999999999</ele><time>2026-03-24T12:43:52Z</time></trkpt><trkpt lat="45.532250550428145" lon="12.03059249259743"><ele>12.600000000000001</ele><time>2026-03-24T12:43:54Z</time></trkpt><trkpt lat="45.53222719444131" lon="12.030477934847331"><ele>12.8</ele><time>2026-03-24T12:43:55Z</time></trkpt><trkpt lat="45.53221551405249" lon="12.030337927354482"><ele>13.0</ele><time>2026-03-24T12:43:55.999Z</time></trkpt><trkpt lat="45.53223205686175" lon="12.03018633826946"><ele>13.0</ele><time>2026-03-24T12:43:56.999Z</time></trkpt><trkpt lat="45.53226411847918" lon="12.030006121972907"><ele>13.0</ele><time>2026-03-24T12:43:57.999Z</time></trkpt><trkpt lat="45.53230206193223" lon="12.029809521365781"><ele>13.0</ele><time>2026-03-24T12:43:58.999Z</time></trkpt><trkpt lat="45.532334215698654" lon="12.02961440454279"><ele>13.0</ele><time>2026-03-24T12:43:59.999Z</time></trkpt><trkpt lat="45.532367682980876" lon="12.029407088150323"><ele>13.0</ele><time>2026-03-24T12:44:00.999Z</time></trkpt><trkpt lat="45.532405115097525" lon="12.029188128594203"><ele>13.0</ele><time>2026-03-24T12:44:01.999Z</time></trkpt><trkpt lat="45.53244103669529" lon="12.02895470657071"><ele>13.0</ele><time>2026-03-24T12:44:02.999Z</time></trkpt><trkpt lat="45.53247975896974" lon="12.02871489566318"><ele>13.0</ele><time>2026-03-24T12:44:03.999Z</time></trkpt><trkpt lat="45.53252126341681" lon="12.028479390064781"><ele>13.0</ele><time>2026-03-24T12:44:04.999Z</time></trkpt><trkpt lat="45.53255716749662" lon="12.028243200052707"><ele>13.0</ele><time>2026-03-24T12:44:05.999Z</time></trkpt><trkpt lat="45.53259787762706" lon="12.028006728162786"><ele>13.0</ele><time>2026-03-24T12:44:06.999Z</time></trkpt><trkpt lat="45.53264065651041" lon="12.02777614740835"><ele>13.0</ele><time>2026-03-24T12:44:07.999Z</time></trkpt><trkpt lat="45.53268014602479" lon="12.027561504992054"><ele>13.0</ele><time>2026-03-24T12:44:08.999Z</time></trkpt><trkpt lat="45.53271346402688" lon="12.027364761053104"><ele>13.25</ele><time>2026-03-24T12:44:09.999Z</time></trkpt><trkpt lat="45.53274435550562" lon="12.027178256708748"><ele>13.5</ele><time>2026-03-24T12:44:11Z</time></trkpt><trkpt lat="45.53278211508465" lon="12.027010901037922"><ele>13.75</ele><time>2026-03-24T12:44:12Z</time></trkpt><trkpt lat="45.532815536394565" lon="12.026846464061695"><ele>14.0</ele><time>2026-03-24T12:44:13Z</time></trkpt><trkpt lat="45.53283553635894" lon="12.026666748587925"><ele>13.75</ele><time>2026-03-24T12:44:14Z</time></trkpt><trkpt lat="45.53286141518955" lon="12.026475280818056"><ele>13.5</ele><time>2026-03-24T12:44:15Z</time></trkpt><trkpt lat="45.53289114264854" lon="12.026276235115157"><ele>13.25</ele><time>2026-03-24T12:44:16Z</time></trkpt><trkpt lat="45.532923880041885" lon="12.026069905193928"><ele>13.0</ele><time>2026-03-24T12:44:17Z</time></trkpt><trkpt lat="45.53295988191008" lon="12.025855404464174"><ele>12.666666666666666</ele><time>2026-03-24T12:44:18Z</time></trkpt><trkpt lat="45.53299851289659" lon="12.025624149981187"><ele>12.333333333333332</ele><time>2026-03-24T12:44:19Z</time></trkpt><trkpt lat="45.53303839658573" lon="12.025379140853245"><ele>12.0</ele><time>2026-03-24T12:44:20Z</time></trkpt><trkpt lat="45.53308103171126" lon="12.025121886252636"><ele>12.666666666666668</ele><time>2026-03-24T12:44:21Z</time></trkpt><trkpt lat="45.53312910759246" lon="12.024856606785104"><ele>13.333333333333334</ele><time>2026-03-24T12:44:22Z</time></trkpt><trkpt lat="45.53317670208726" lon="12.024586201085905"><ele>14.0</ele><time>2026-03-24T12:44:23Z</time></trkpt><trkpt lat="45.5332221383195" lon="12.024313531936167"><ele>13.666666666666668</ele><time>2026-03-24T12:44:24Z</time></trkpt><trkpt lat="45.533266222135076" lon="12.024055931039051"><ele>13.333333333333332</ele><time>2026-03-24T12:44:25Z</time></trkpt><trkpt lat="45.53330676271327" lon="12.023813309537962"><ele>13.0</ele><time>2026-03-24T12:44:26Z</time></trkpt><trkpt lat="45.53334762739067" lon="12.023578180903213"><ele>13.0</ele><time>2026-03-24T12:44:27Z</time></trkpt><trkpt lat="45.53338682854897" lon="12.023344597322586"><ele>13.0</ele><time>2026-03-24T12:44:28Z</time></trkpt><trkpt lat="45.5334285967725" lon="12.023115848054994"><ele>13.0</ele><time>2026-03-24T12:44:29Z</time></trkpt><trkpt lat="45.53346029981189" lon="12.02289513705654"><ele>13.25</ele><time>2026-03-24T12:44:30Z</time></trkpt><trkpt lat="45.53349533351211" lon="12.022674871133832"><ele>13.5</ele><time>2026-03-24T12:44:31Z</time></trkpt><trkpt lat="45.53352940371006" lon="12.022471933636488"><ele>13.75</ele><time>2026-03-24T12:44:32Z</time></trkpt><trkpt lat="45.53356192910491" lon="12.022271784181926"><ele>14.0</ele><time>2026-03-24T12:44:33Z</time></trkpt><trkpt lat="45.53359255791435" lon="12.022076909920303"><ele>14.0</ele><time>2026-03-24T12:44:34Z</time></trkpt><trkpt lat="45.53362625742433" lon="12.021888068291766"><ele>14.0</ele><time>2026-03-24T12:44:35Z</time></trkpt><trkpt lat="45.53365651198276" lon="12.02171630508431"><ele>14.0</ele><time>2026-03-24T12:44:36Z</time></trkpt><trkpt lat="45.53368255720089" lon="12.02154830949932"><ele>14.0</ele><time>2026-03-24T12:44:37Z</time></trkpt><trkpt lat="45.53370245502641" lon="12.02141664234035"><ele>14.0</ele><time>2026-03-24T12:44:38Z</time></trkpt><trkpt lat="45.533716957568245" lon="12.02128374751278"><ele>13.999999999999998</ele><time>2026-03-24T12:44:39Z</time></trkpt><trkpt lat="45.53373972805324" lon="12.021150359118346"><ele>13.999999999999998</ele><time>2026-03-24T12:44:40Z</time></trkpt><trkpt lat="45.53376179200746" lon="12.021015799065976"><ele>14.0</ele><time>2026-03-24T12:44:41Z</time></trkpt><trkpt lat="45.533779118755206" lon="12.020861953939344"><ele>14.0</ele><time>2026-03-24T12:44:42Z</time></trkpt><trkpt lat="45.533808643076426" lon="12.020692156814755"><ele>14.0</ele><time>2026-03-24T12:44:43Z</time></trkpt><trkpt lat="45.53384331800247" lon="12.020505945019849"><ele>14.0</ele><time>2026-03-24T12:44:44Z</time></trkpt><trkpt lat="45.53387778013569" lon="12.020316616187568"><ele>14.0</ele><time>2026-03-24T12:44:45Z</time></trkpt><trkpt lat="45.53390742878431" lon="12.020116471142334"><ele>14.0</ele><time>2026-03-24T12:44:46Z</time></trkpt><trkpt lat="45.5339468395962" lon="12.019900712088834"><ele>14.333333333333334</ele><time>2026-03-24T12:44:47Z</time></trkpt><trkpt lat="45.53398411792432" lon="12.019670702819349"><ele>14.666666666666668</ele><time>2026-03-24T12:44:48Z</time></trkpt><trkpt lat="45.53403021229404" lon="12.019428854110043"><ele>15.0</ele><time>2026-03-24T12:44:49Z</time></trkpt><trkpt lat="45.534078317748076" lon="12.019173578317117"><ele>14.666666666666668</ele><time>2026-03-24T12:44:50Z</time></trkpt><trkpt lat="45.53412331818953" lon="12.01891555125235"><ele>14.333333333333334</ele><time>2026-03-24T12:44:51Z</time></trkpt><trkpt lat="45.5341680207511" lon="12.018654905358801"><ele>14.0</ele><time>2026-03-24T12:44:52Z</time></trkpt><trkpt lat="45.53420994042746" lon="12.018389530114806"><ele>14.0</ele><time>2026-03-24T12:44:53Z</time></trkpt><trkpt lat="45.53425514489092" lon="12.018122150543103"><ele>14.0</ele><time>2026-03-24T12:44:54Z</time></trkpt><trkpt lat="45.534306111416875" lon="12.017853819934905"><ele>14.0</ele><time>2026-03-24T12:44:55Z</time></trkpt><trkpt lat="45.53434463610953" lon="12.017598281588244"><ele>13.666666666666668</ele><time>2026-03-24T12:44:56Z</time></trkpt><trkpt lat="45.53439447655321" lon="12.017309051090512"><ele>13.333333333333332</ele><time>2026-03-24T12:44:57Z</time></trkpt><trkpt lat="45.53443944602861" lon="12.017032951571602"><ele>13.0</ele><time>2026-03-24T12:44:58Z</time></trkpt><trkpt lat="45.53449149041837" lon="12.016725967717289"><ele>13.0</ele><time>2026-03-24T12:44:59Z</time></trkpt><trkpt lat="45.53453987093684" lon="12.016475882718769"><ele>13.0</ele><time>2026-03-24T12:45:00Z</time></trkpt><trkpt lat="45.53458490860405" lon="12.016207891656943"><ele>13.0</ele><time>2026-03-24T12:45:01Z</time></trkpt><trkpt lat="45.5346323693945" lon="12.01593596952511"><ele>13.0</ele><time>2026-03-24T12:45:02Z</time></trkpt><trkpt lat="45.534680553547176" lon="12.01566959914796"><ele>13.0</ele><time>2026-03-24T12:45:03Z</time></trkpt><trkpt lat="45.53472983733212" lon="12.015398660853652"><ele>13.0</ele><time>2026-03-24T12:45:04Z</time></trkpt><trkpt lat="45.53477393950131" lon="12.015135410729103"><ele>13.0</ele><time>2026-03-24T12:45:05Z</time></trkpt><trkpt lat="45.53481181080771" lon="12.014897624325428"><ele>13.0</ele><time>2026-03-24T12:45:06Z</time></trkpt><trkpt lat="45.534849208642584" lon="12.014679983387627"><ele>13.0</ele><time>2026-03-24T12:45:07Z</time></trkpt><trkpt lat="45.53488038621142" lon="12.01447167175638"><ele>13.0</ele><time>2026-03-24T12:45:08Z</time></trkpt><trkpt lat="45.534912978449185" lon="12.014275859454854"><ele>13.0</ele><time>2026-03-24T12:45:09Z</time></trkpt><trkpt lat="45.53494414503767" lon="12.01409969018896"><ele>13.0</ele><time>2026-03-24T12:45:10Z</time></trkpt><trkpt lat="45.534974193392436" lon="12.013931824747198"><ele>13.0</ele><time>2026-03-24T12:45:11Z</time></trkpt><trkpt lat="45.53499900781878" lon="12.013779882696793"><ele>13.142857142857142</ele><time>2026-03-24T12:45:12Z</time></trkpt><trkpt lat="45.53501893048703" lon="12.013660103981504"><ele>13.285714285714286</ele><time>2026-03-24T12:45:13Z</time></trkpt><trkpt lat="45.53503986017506" lon="12.013552315095376"><ele>13.428571428571429</ele><time>2026-03-24T12:45:14Z</time></trkpt><trkpt lat="45.53506994550995" lon="12.013458763808803"><ele>13.571428571428571</ele><time>2026-03-24T12:45:15Z</time></trkpt><trkpt lat="45.535119857691356" lon="12.013393202360486"><ele>13.714285714285715</ele><time>2026-03-24T12:45:16Z</time></trkpt><trkpt lat="45.53512810291069" lon="12.013302686408956"><ele>13.857142857142858</ele><time>2026-03-24T12:45:17Z</time></trkpt><trkpt lat="45.535145800754066" lon="12.013201609124188"><ele>14.0</ele><time>2026-03-24T12:45:18Z</time></trkpt><trkpt lat="45.53514098262458" lon="12.013050819208123"><ele>14.0</ele><time>2026-03-24T12:45:20Z</time></trkpt><trkpt lat="45.53514237567117" lon="12.012934645882963"><ele>13.999999999999998</ele><time>2026-03-24T12:45:21Z</time></trkpt><trkpt lat="45.53516819888123" lon="12.012799344563808"><ele>13.999999999999998</ele><time>2026-03-24T12:45:22Z</time></trkpt><trkpt lat="45.535204530172656" lon="12.012651122417793"><ele>14.0</ele><time>2026-03-24T12:45:23Z</time></trkpt><trkpt lat="45.53523722634574" lon="12.01247245146423"><ele>14.0</ele><time>2026-03-24T12:45:24Z</time></trkpt><trkpt lat="45.53527156196183" lon="12.012269910467166"><ele>14.0</ele><time>2026-03-24T12:45:25Z</time></trkpt><trkpt lat="45.53531045799999" lon="12.012038686447612"><ele>14.0</ele><time>2026-03-24T12:45:26Z</time></trkpt><trkpt lat="45.53534894578133" lon="12.011783442982512"><ele>14.0</ele><time>2026-03-24T12:45:27Z</time></trkpt><trkpt lat="45.53539348114812" lon="12.011520558172602"><ele>14.333333333333334</ele><time>2026-03-24T12:45:28Z</time></trkpt><trkpt lat="45.535432772996124" lon="12.011241983043604"><ele>14.666666666666668</ele><time>2026-03-24T12:45:29Z</time></trkpt><trkpt lat="45.53547676139441" lon="12.010957264083952"><ele>15.0</ele><time>2026-03-24T12:45:30Z</time></trkpt><trkpt lat="45.535524329453324" lon="12.010663816228687"><ele>14.333333333333332</ele><time>2026-03-24T12:45:31Z</time></trkpt><trkpt lat="45.5355686394058" lon="12.01035793547494"><ele>13.666666666666666</ele><time>2026-03-24T12:45:32Z</time></trkpt><trkpt lat="45.53561905553595" lon="12.010057445145918"><ele>13.0</ele><time>2026-03-24T12:45:33Z</time></trkpt><trkpt lat="45.535665723070586" lon="12.009750910154061"><ele>13.0</ele><time>2026-03-24T12:45:34Z</time></trkpt><trkpt lat="45.53571459495161" lon="12.009435978707712"><ele>13.0</ele><time>2026-03-24T12:45:35Z</time></trkpt><trkpt lat="45.535771505606164" lon="12.009126347460057"><ele>13.333333333333332</ele><time>2026-03-24T12:45:36Z</time></trkpt><trkpt lat="45.535816777634565" lon="12.008810491072325"><ele>13.666666666666668</ele><time>2026-03-24T12:45:37Z</time></trkpt><trkpt lat="45.53586583916092" lon="12.008523261915261"><ele>14.0</ele><time>2026-03-24T12:45:38Z</time></trkpt><trkpt lat="45.535911152041" lon="12.00825335326508"><ele>13.333333333333334</ele><time>2026-03-24T12:45:39Z</time></trkpt><trkpt lat="45.53595419564766" lon="12.007995073744306"><ele>12.666666666666668</ele><time>2026-03-24T12:45:40Z</time></trkpt><trkpt lat="45.53599313289364" lon="12.007753888768326"><ele>12.0</ele><time>2026-03-24T12:45:41Z</time></trkpt><trkpt lat="45.53603412529843" lon="12.007516659688271"><ele>12.333333333333332</ele><time>2026-03-24T12:45:42Z</time></trkpt><trkpt lat="45.53607308584101" lon="12.007280605075756"><ele>12.666666666666666</ele><time>2026-03-24T12:45:43Z</time></trkpt><trkpt lat="45.53611125231124" lon="12.00704335343276"><ele>13.0</ele><time>2026-03-24T12:45:44Z</time></trkpt><trkpt lat="45.53614849635646" lon="12.006809312318472"><ele>13.333333333333332</ele><time>2026-03-24T12:45:45Z</time></trkpt><trkpt lat="45.53618741163843" lon="12.006576655786294"><ele>13.666666666666668</ele><time>2026-03-24T12:45:46Z</time></trkpt><trkpt lat="45.53622110089867" lon="12.00634588194369"><ele>14.0</ele><time>2026-03-24T12:45:47Z</time></trkpt><trkpt lat="45.53625761219298" lon="12.006118492636698"><ele>14.0</ele><time>2026-03-24T12:45:48Z</time></trkpt><trkpt lat="45.536294551133786" lon="12.00590023781019"><ele>14.0</ele><time>2026-03-24T12:45:49Z</time></trkpt><trkpt lat="45.53632837552148" lon="12.005698866244764"><ele>14.0</ele><time>2026-03-24T12:45:50Z</time></trkpt><trkpt lat="45.536358348059956" lon="12.005502681253244"><ele>14.0</ele><time>2026-03-24T12:45:51Z</time></trkpt><trkpt lat="45.53639310831258" lon="12.005303976122113"><ele>13.75</ele><time>2026-03-24T12:45:52Z</time></trkpt><trkpt lat="45.53642137551579" lon="12.005114120636085"><ele>13.5</ele><time>2026-03-24T12:45:53Z</time></trkpt><trkpt lat="45.536443543609366" lon="12.004939101239831"><ele>13.25</ele><time>2026-03-24T12:45:54Z</time></trkpt><trkpt lat="45.536468783884764" lon="12.00477779708223"><ele>13.0</ele><time>2026-03-24T12:45:55Z</time></trkpt><trkpt lat="45.536503570677084" lon="12.004635103921345"><ele>12.833333333333332</ele><time>2026-03-24T12:45:56Z</time></trkpt><trkpt lat="45.536545705870424" lon="12.004517370067802"><ele>12.666666666666666</ele><time>2026-03-24T12:45:57Z</time></trkpt><trkpt lat="45.53661425522916" lon="12.00444346612057"><ele>12.5</ele><time>2026-03-24T12:45:58Z</time></trkpt><trkpt lat="45.53667899819868" lon="12.004437896890709"><ele>12.333333333333332</ele><time>2026-03-24T12:45:59Z</time></trkpt><trkpt lat="45.53673344002146" lon="12.00448482246788"><ele>12.166666666666666</ele><time>2026-03-24T12:46:02Z</time></trkpt><trkpt lat="45.536816267744925" lon="12.004486214978732"><ele>12.0</ele><time>2026-03-24T12:46:16Z</time></trkpt><trkpt lat="45.53688136208565" lon="12.004507427038714"><ele>12.0</ele><time>2026-03-24T12:46:17Z</time></trkpt><trkpt lat="45.536958145144816" lon="12.004535700091171"><ele>12.0</ele><time>2026-03-24T12:46:18Z</time></trkpt><trkpt lat="45.53704773725887" lon="12.004565176851024"><ele>12.0</ele><time>2026-03-24T12:46:19Z</time></trkpt><trkpt lat="45.537137065138175" lon="12.004602775430037"><ele>12.0</ele><time>2026-03-24T12:46:20Z</time></trkpt><trkpt lat="45.53723351157807" lon="12.004641034512769"><ele>12.0</ele><time>2026-03-24T12:46:21Z</time></trkpt><trkpt lat="45.53734423556706" lon="12.004689694839161"><ele>12.75</ele><time>2026-03-24T12:46:22Z</time></trkpt><trkpt lat="45.537465339065115" lon="12.004733580643197"><ele>13.5</ele><time>2026-03-24T12:46:23Z</time></trkpt><trkpt lat="45.53759062606961" lon="12.004781277315056"><ele>14.25</ele><time>2026-03-24T12:46:24Z</time></trkpt><trkpt lat="45.53771903337339" lon="12.004824595898695"><ele>15.0</ele><time>2026-03-24T12:46:25Z</time></trkpt><trkpt lat="45.53784842845522" lon="12.004872329660916"><ele>14.333333333333332</ele><time>2026-03-24T12:46:26Z</time></trkpt><trkpt lat="45.53800083695806" lon="12.004933565925562"><ele>13.666666666666666</ele><time>2026-03-24T12:46:27Z</time></trkpt><trkpt lat="45.538141799812394" lon="12.004985422947055"><ele>13.0</ele><time>2026-03-24T12:46:28Z</time></trkpt><trkpt lat="45.538288249088104" lon="12.005037661527272"><ele>13.0</ele><time>2026-03-24T12:46:29Z</time></trkpt><trkpt lat="45.53844002195092" lon="12.005099279135166"><ele>13.0</ele><time>2026-03-24T12:46:30Z</time></trkpt><trkpt lat="45.53859649821951" lon="12.005159063504042"><ele>13.0</ele><time>2026-03-24T12:46:31Z</time></trkpt><trkpt lat="45.53875261805562" lon="12.005220028766994"><ele>13.666666666666666</ele><time>2026-03-24T12:46:32Z</time></trkpt><trkpt lat="45.538912511571226" lon="12.005286184888051"><ele>14.333333333333332</ele><time>2026-03-24T12:46:33Z</time></trkpt><trkpt lat="45.53907447016483" lon="12.005351027836255"><ele>15.0</ele><time>2026-03-24T12:46:34Z</time></trkpt><trkpt lat="45.53923180875133" lon="12.005415081946994"><ele>15.0</ele><time>2026-03-24T12:46:35Z</time></trkpt><trkpt lat="45.53939107385458" lon="12.005474824615654"><ele>15.0</ele><time>2026-03-24T12:46:36Z</time></trkpt><trkpt lat="45.53954627116446" lon="12.005532600497887"><ele>15.0</ele><time>2026-03-24T12:46:37Z</time></trkpt><trkpt lat="45.53972316119624" lon="12.005593695352433"><ele>15.333333333333332</ele><time>2026-03-24T12:46:38Z</time></trkpt><trkpt lat="45.53990593201163" lon="12.005660639475124"><ele>15.666666666666666</ele><time>2026-03-24T12:46:39Z</time></trkpt><trkpt lat="45.54008688992357" lon="12.005730186708163"><ele>16.0</ele><time>2026-03-24T12:46:40Z</time></trkpt><trkpt lat="45.540246736290065" lon="12.005791730693455"><ele>16.0</ele><time>2026-03-24T12:46:41Z</time></trkpt><trkpt lat="45.54039557872482" lon="12.005847444364363"><ele>16.0</ele><time>2026-03-24T12:46:42Z</time></trkpt><trkpt lat="45.54053615353731" lon="12.00589847257599"><ele>16.0</ele><time>2026-03-24T12:46:43Z</time></trkpt><trkpt lat="45.54067097923171" lon="12.005947379136051"><ele>16.0</ele><time>2026-03-24T12:46:44Z</time></trkpt><trkpt lat="45.540801530622836" lon="12.00602110951918"><ele>16.0</ele><time>2026-03-24T12:46:45Z</time></trkpt><trkpt lat="45.54094384037913" lon="12.006075390990757"><ele>16.0</ele><time>2026-03-24T12:46:46Z</time></trkpt><trkpt lat="45.54108361734373" lon="12.006109792821745"><ele>16.0</ele><time>2026-03-24T12:46:47Z</time></trkpt><trkpt lat="45.54124212622713" lon="12.006175539977733"><ele>15.666666666666666</ele><time>2026-03-24T12:46:48Z</time></trkpt><trkpt lat="45.54140825728649" lon="12.006239209535652"><ele>15.333333333333332</ele><time>2026-03-24T12:46:49Z</time></trkpt><trkpt lat="45.541582922647976" lon="12.006306734397215"><ele>15.0</ele><time>2026-03-24T12:46:50Z</time></trkpt><trkpt lat="45.54174927354442" lon="12.006362611967507"><ele>15.0</ele><time>2026-03-24T12:46:51Z</time></trkpt><trkpt lat="45.54190708677096" lon="12.00642567627919"><ele>15.0</ele><time>2026-03-24T12:46:52Z</time></trkpt><trkpt lat="45.54205244788494" lon="12.006487052511858"><ele>15.0</ele><time>2026-03-24T12:46:53Z</time></trkpt><trkpt lat="45.54218677900388" lon="12.006536306447762"><ele>15.0</ele><time>2026-03-24T12:46:54Z</time></trkpt><trkpt lat="45.54232342162728" lon="12.00658838970552"><ele>15.0</ele><time>2026-03-24T12:46:55Z</time></trkpt><trkpt lat="45.542451128772655" lon="12.0066359908378"><ele>15.0</ele><time>2026-03-24T12:46:56Z</time></trkpt><trkpt lat="45.54257030493045" lon="12.006680731005858"><ele>15.0</ele><time>2026-03-24T12:46:57Z</time></trkpt><trkpt lat="45.54268339688678" lon="12.006726323203058"><ele>15.0</ele><time>2026-03-24T12:46:58Z</time></trkpt><trkpt lat="45.54278189823528" lon="12.00676266381185"><ele>15.0</ele><time>2026-03-24T12:46:59Z</time></trkpt><trkpt lat="45.542871725359184" lon="12.006799787343029"><ele>15.0</ele><time>2026-03-24T12:47:00Z</time></trkpt><trkpt lat="45.54293211307694" lon="12.006828810624834"><ele>15.0</ele><time>2026-03-24T12:47:01Z</time></trkpt><trkpt lat="45.54302258129917" lon="12.006865239247837"><ele>15.0</ele><time>2026-03-24T12:47:03Z</time></trkpt><trkpt lat="45.54311185282599" lon="12.006869445001914"><ele>15.0</ele><time>2026-03-24T12:47:06Z</time></trkpt><trkpt lat="45.54318459619978" lon="12.006627847872796"><ele>15.0</ele><time>2026-03-24T12:47:09Z</time></trkpt><trkpt lat="45.54319942958949" lon="12.00649984710173"><ele>15.0</ele><time>2026-03-24T12:47:10Z</time></trkpt><trkpt lat="45.54322425774979" lon="12.00637173048934"><ele>15.0</ele><time>2026-03-24T12:47:11Z</time></trkpt><trkpt lat="45.54325227086448" lon="12.006237803883336"><ele>15.0</ele><time>2026-03-24T12:47:12Z</time></trkpt><trkpt lat="45.54327918700352" lon="12.006084439122368"><ele>15.0</ele><time>2026-03-24T12:47:13Z</time></trkpt><trkpt lat="45.54330666930751" lon="12.005916953056584"><ele>14.75</ele><time>2026-03-24T12:47:14Z</time></trkpt><trkpt lat="45.5433361620857" lon="12.005739857460874"><ele>14.5</ele><time>2026-03-24T12:47:15Z</time></trkpt><trkpt lat="45.543371638349605" lon="12.005545055205657"><ele>14.25</ele><time>2026-03-24T12:47:16Z</time></trkpt><trkpt lat="45.54340872607283" lon="12.005349227883215"><ele>14.0</ele><time>2026-03-24T12:47:17Z</time></trkpt><trkpt lat="45.543450319745325" lon="12.005144170493574"><ele>13.666666666666668</ele><time>2026-03-24T12:47:18Z</time></trkpt><trkpt lat="45.54350519757887" lon="12.004930589367268"><ele>13.333333333333332</ele><time>2026-03-24T12:47:19Z</time></trkpt><trkpt lat="45.54357332234769" lon="12.004720725620963"><ele>13.0</ele><time>2026-03-24T12:47:20Z</time></trkpt><trkpt lat="45.54365611443365" lon="12.004518329374546"><ele>13.0</ele><time>2026-03-24T12:47:21Z</time></trkpt><trkpt lat="45.54373565770372" lon="12.004314600293394"><ele>13.0</ele><time>2026-03-24T12:47:22Z</time></trkpt><trkpt lat="45.54382869187393" lon="12.004106558286077"><ele>13.0</ele><time>2026-03-24T12:47:23Z</time></trkpt><trkpt lat="45.54394372808055" lon="12.003901401258412"><ele>13.333333333333332</ele><time>2026-03-24T12:47:24Z</time></trkpt><trkpt lat="45.54408947020696" lon="12.003700089867209"><ele>13.666666666666668</ele><time>2026-03-24T12:47:25Z</time></trkpt><trkpt lat="45.544270912725466" lon="12.003517957227421"><ele>14.0</ele><time>2026-03-24T12:47:26Z</time></trkpt><trkpt lat="45.54446922180233" lon="12.003361198053534"><ele>14.333333333333334</ele><time>2026-03-24T12:47:27Z</time></trkpt><trkpt lat="45.544664284940914" lon="12.003185574464705"><ele>14.666666666666668</ele><time>2026-03-24T12:47:28Z</time></trkpt><trkpt lat="45.54483592855959" lon="12.003021322296917"><ele>15.0</ele><time>2026-03-24T12:47:29Z</time></trkpt><trkpt lat="45.54499258250222" lon="12.002871822925098"><ele>15.0</ele><time>2026-03-24T12:47:30Z</time></trkpt><trkpt lat="45.54513224487388" lon="12.002717697010917"><ele>15.0</ele><time>2026-03-24T12:47:31Z</time></trkpt><trkpt lat="45.54525761650811" lon="12.002563925157345"><ele>15.0</ele><time>2026-03-24T12:47:32Z</time></trkpt><trkpt lat="45.54537148263625" lon="12.002413676538296"><ele>15.333333333333332</ele><time>2026-03-24T12:47:33Z</time></trkpt><trkpt lat="45.54549298640743" lon="12.002270887161842"><ele>15.666666666666666</ele><time>2026-03-24T12:47:34Z</time></trkpt><trkpt lat="45.54560949333369" lon="12.002123185948424"><ele>16.0</ele><time>2026-03-24T12:47:35Z</time></trkpt><trkpt lat="45.54571529579069" lon="12.001935868707621"><ele>16.0</ele><time>2026-03-24T12:47:36Z</time></trkpt><trkpt lat="45.54581676611552" lon="12.001707343708814"><ele>16.0</ele><time>2026-03-24T12:47:37Z</time></trkpt><trkpt lat="45.545933930475094" lon="12.001454905865113"><ele>16.0</ele><time>2026-03-24T12:47:38Z</time></trkpt><trkpt lat="45.546064273425976" lon="12.00120041436194"><ele>16.0</ele><time>2026-03-24T12:47:39Z</time></trkpt><trkpt lat="45.546209213218866" lon="12.000932986092643"><ele>16.0</ele><time>2026-03-24T12:47:40Z</time></trkpt><trkpt lat="45.54636940516439" lon="12.000700416000985"><ele>16.0</ele><time>2026-03-24T12:47:41Z</time></trkpt><trkpt lat="45.54652145287055" lon="12.000511643943636"><ele>16.0</ele><time>2026-03-24T12:47:42Z</time></trkpt><trkpt lat="45.546655899593375" lon="12.000323801703495"><ele>16.0</ele><time>2026-03-24T12:47:43Z</time></trkpt><trkpt lat="45.54677802819214" lon="12.000142083516856"><ele>16.0</ele><time>2026-03-24T12:47:44Z</time></trkpt><trkpt lat="45.546895586200286" lon="11.999971714914773"><ele>16.0</ele><time>2026-03-24T12:47:45Z</time></trkpt><trkpt lat="45.54700463674048" lon="11.999795394621476"><ele>16.0</ele><time>2026-03-24T12:47:46Z</time></trkpt><trkpt lat="45.54711557869192" lon="11.999666513947002"><ele>16.0</ele><time>2026-03-24T12:47:47Z</time></trkpt><trkpt lat="45.5471921752729" lon="11.999498558631776"><ele>16.0</ele><time>2026-03-24T12:47:48Z</time></trkpt><trkpt lat="45.54726652347827" lon="11.999306339514286"><ele>16.0</ele><time>2026-03-24T12:47:49Z</time></trkpt><trkpt lat="45.54734004350174" lon="11.999101324635143"><ele>16.0</ele><time>2026-03-24T12:47:50Z</time></trkpt><trkpt lat="45.54742231563605" lon="11.998888249450257"><ele>16.0</ele><time>2026-03-24T12:47:51Z</time></trkpt><trkpt lat="45.54751875713164" lon="11.998682470295721"><ele>16.0</ele><time>2026-03-24T12:47:52Z</time></trkpt><trkpt lat="45.54760687680244" lon="11.99845966047941"><ele>15.666666666666666</ele><time>2026-03-24T12:47:53Z</time></trkpt><trkpt lat="45.547705346572364" lon="11.998243635431026"><ele>15.333333333333332</ele><time>2026-03-24T12:47:54Z</time></trkpt><trkpt lat="45.54779730320696" lon="11.998057765864557"><ele>15.0</ele><time>2026-03-24T12:47:55Z</time></trkpt><trkpt lat="45.54789494752306" lon="11.997894880938912"><ele>15.0</ele><time>2026-03-24T12:47:56Z</time></trkpt><trkpt lat="45.54801844400673" lon="11.997725419539881"><ele>15.0</ele><time>2026-03-24T12:47:57Z</time></trkpt><trkpt lat="45.54817366858589" lon="11.997571969003099"><ele>15.0</ele><time>2026-03-24T12:47:58Z</time></trkpt><trkpt lat="45.5483317804918" lon="11.997401818979803"><ele>15.0</ele><time>2026-03-24T12:47:59Z</time></trkpt><trkpt lat="45.54848689845729" lon="11.997208934048073"><ele>15.0</ele><time>2026-03-24T12:48:00Z</time></trkpt><trkpt lat="45.54862656669995" lon="11.996981555693115"><ele>15.0</ele><time>2026-03-24T12:48:01Z</time></trkpt><trkpt lat="45.54876317802383" lon="11.996733634468844"><ele>15.0</ele><time>2026-03-24T12:48:02Z</time></trkpt><trkpt lat="45.54890098422815" lon="11.99649612181173"><ele>15.0</ele><time>2026-03-24T12:48:03Z</time></trkpt><trkpt lat="45.54902598918063" lon="11.996274541072548"><ele>15.0</ele><time>2026-03-24T12:48:04Z</time></trkpt><trkpt lat="45.5491287488115" lon="11.9960584206615"><ele>15.0</ele><time>2026-03-24T12:48:05Z</time></trkpt><trkpt lat="45.54922901169567" lon="11.995840977567376"><ele>15.0</ele><time>2026-03-24T12:48:06Z</time></trkpt><trkpt lat="45.54927954509655" lon="11.99560731795068"><ele>15.0</ele><time>2026-03-24T12:48:07Z</time></trkpt><trkpt lat="45.54933572768773" lon="11.995321152639066"><ele>15.0</ele><time>2026-03-24T12:48:08Z</time></trkpt><trkpt lat="45.54937347784097" lon="11.995075673591684"><ele>15.0</ele><time>2026-03-24T12:48:09Z</time></trkpt><trkpt lat="45.54940206685351" lon="11.994880363482801"><ele>15.0</ele><time>2026-03-24T12:48:10Z</time></trkpt><trkpt lat="45.54942338864065" lon="11.994723406342294"><ele>15.0</ele><time>2026-03-24T12:48:11Z</time></trkpt><trkpt lat="45.549446476451145" lon="11.994584015920957"><ele>15.0</ele><time>2026-03-24T12:48:12Z</time></trkpt><trkpt lat="45.54947099163869" lon="11.994426027692741"><ele>15.0</ele><time>2026-03-24T12:48:13Z</time></trkpt><trkpt lat="45.54949739672406" lon="11.994241188024661"><ele>15.0</ele><time>2026-03-24T12:48:14Z</time></trkpt><trkpt lat="45.54953049706241" lon="11.994037593032932"><ele>15.0</ele><time>2026-03-24T12:48:15Z</time></trkpt><trkpt lat="45.549568262878076" lon="11.993816857180201"><ele>15.0</ele><time>2026-03-24T12:48:16Z</time></trkpt><trkpt lat="45.54960998565651" lon="11.993587807173343"><ele>15.0</ele><time>2026-03-24T12:48:17Z</time></trkpt><trkpt lat="45.54965050007215" lon="11.993353657843162"><ele>15.0</ele><time>2026-03-24T12:48:18Z</time></trkpt><trkpt lat="45.54968996310039" lon="11.993105544382766"><ele>15.666666666666668</ele><time>2026-03-24T12:48:19Z</time></trkpt><trkpt lat="45.54973265785699" lon="11.992854117872675"><ele>16.333333333333336</ele><time>2026-03-24T12:48:20Z</time></trkpt><trkpt lat="45.54977529916464" lon="11.992600215777832"><ele>17.0</ele><time>2026-03-24T12:48:21Z</time></trkpt><trkpt lat="45.54981817228284" lon="11.992366075494887"><ele>17.25</ele><time>2026-03-24T12:48:22Z</time></trkpt><trkpt lat="45.54985736586381" lon="11.992158517957714"><ele>17.5</ele><time>2026-03-24T12:48:23Z</time></trkpt><trkpt lat="45.54989986899129" lon="11.991964933519336"><ele>17.75</ele><time>2026-03-24T12:48:24Z</time></trkpt><trkpt lat="45.54993739792112" lon="11.991775610962664"><ele>18.0</ele><time>2026-03-24T12:48:25Z</time></trkpt><trkpt lat="45.54997293579007" lon="11.991607597924185"><ele>17.4</ele><time>2026-03-24T12:48:26Z</time></trkpt><trkpt lat="45.55001126445576" lon="11.991444201122947"><ele>16.8</ele><time>2026-03-24T12:48:27Z</time></trkpt><trkpt lat="45.55004065643927" lon="11.991300065460388"><ele>16.2</ele><time>2026-03-24T12:48:28Z</time></trkpt><trkpt lat="45.550073808660876" lon="11.99117281207207"><ele>15.6</ele><time>2026-03-24T12:48:29Z</time></trkpt><trkpt lat="45.55010497070808" lon="11.991065242270476"><ele>15.0</ele><time>2026-03-24T12:48:30Z</time></trkpt><trkpt lat="45.55013261364621" lon="11.99097188760342"><ele>15.25</ele><time>2026-03-24T12:48:31Z</time></trkpt><trkpt lat="45.550190996988555" lon="11.99083511109049"><ele>15.5</ele><time>2026-03-24T12:48:33Z</time></trkpt><trkpt lat="45.55023031965001" lon="11.990680927758767"><ele>15.75</ele><time>2026-03-24T12:48:35Z</time></trkpt><trkpt lat="45.55034981381325" lon="11.990631089806255"><ele>16.0</ele><time>2026-03-24T12:48:36Z</time></trkpt><trkpt lat="45.55043772581225" lon="11.990549528191236"><ele>16.0</ele><time>2026-03-24T12:48:37Z</time></trkpt><trkpt lat="45.55052628044832" lon="11.990446249917612"><ele>16.0</ele><time>2026-03-24T12:48:38Z</time></trkpt><trkpt lat="45.550630291085646" lon="11.990320906148991"><ele>16.0</ele><time>2026-03-24T12:48:39Z</time></trkpt><trkpt lat="45.5507419517709" lon="11.990181030279146"><ele>16.0</ele><time>2026-03-24T12:48:40Z</time></trkpt><trkpt lat="45.55086567905192" lon="11.990046864059625"><ele>16.0</ele><time>2026-03-24T12:48:41Z</time></trkpt><trkpt lat="45.55098971926896" lon="11.989894301153797"><ele>16.0</ele><time>2026-03-24T12:48:42Z</time></trkpt><trkpt lat="45.55112379999262" lon="11.989745538562154"><ele>16.0</ele><time>2026-03-24T12:48:43Z</time></trkpt><trkpt lat="45.55125083033382" lon="11.989568058852523"><ele>16.0</ele><time>2026-03-24T12:48:44Z</time></trkpt><trkpt lat="45.55140033372445" lon="11.989389334094481"><ele>16.0</ele><time>2026-03-24T12:48:45Z</time></trkpt><trkpt lat="45.55154312982721" lon="11.989201850960665"><ele>16.0</ele><time>2026-03-24T12:48:46Z</time></trkpt><trkpt lat="45.551701089754914" lon="11.989015384630054"><ele>16.0</ele><time>2026-03-24T12:48:47Z</time></trkpt><trkpt lat="45.551858462506644" lon="11.988818286328524"><ele>16.0</ele><time>2026-03-24T12:48:48Z</time></trkpt><trkpt lat="45.55201978471675" lon="11.988622486319613"><ele>16.0</ele><time>2026-03-24T12:48:49Z</time></trkpt><trkpt lat="45.55217683415177" lon="11.988429580867638"><ele>16.333333333333332</ele><time>2026-03-24T12:48:50Z</time></trkpt><trkpt lat="45.552319963594044" lon="11.988244525434691"><ele>16.666666666666668</ele><time>2026-03-24T12:48:51Z</time></trkpt><trkpt lat="45.552464774671506" lon="11.988072901382042"><ele>17.0</ele><time>2026-03-24T12:48:52Z</time></trkpt><trkpt lat="45.55260084123211" lon="11.987899184807594"><ele>17.0</ele><time>2026-03-24T12:48:53Z</time></trkpt><trkpt lat="45.552741611052554" lon="11.987730797194054"><ele>17.0</ele><time>2026-03-24T12:48:54Z</time></trkpt><trkpt lat="45.55287918915836" lon="11.98756172457123"><ele>17.0</ele><time>2026-03-24T12:48:55Z</time></trkpt><trkpt lat="45.553013835395035" lon="11.98739522912049"><ele>16.666666666666668</ele><time>2026-03-24T12:48:56Z</time></trkpt><trkpt lat="45.553135558288794" lon="11.987246654018287"><ele>16.333333333333332</ele><time>2026-03-24T12:48:57Z</time></trkpt><trkpt lat="45.55325112356098" lon="11.987108066535422"><ele>16.0</ele><time>2026-03-24T12:48:58Z</time></trkpt><trkpt lat="45.55336540930669" lon="11.986989370863272"><ele>16.0</ele><time>2026-03-24T12:48:59Z</time></trkpt><trkpt lat="45.55348228808271" lon="11.986901842345802"><ele>16.0</ele><time>2026-03-24T12:49:00Z</time></trkpt><trkpt lat="45.55359343285066" lon="11.98682550592966"><ele>16.0</ele><time>2026-03-24T12:49:01Z</time></trkpt><trkpt lat="45.55368988112599" lon="11.986757346707906"><ele>16.0</ele><time>2026-03-24T12:49:02Z</time></trkpt><trkpt lat="45.55376930529767" lon="11.986689727024732"><ele>16.0</ele><time>2026-03-24T12:49:03Z</time></trkpt><trkpt lat="45.55382324949739" lon="11.986636093624549"><ele>16.0</ele><time>2026-03-24T12:49:04Z</time></trkpt><trkpt lat="45.55393227162034" lon="11.986551010717676"><ele>16.0</ele><time>2026-03-24T12:49:06Z</time></trkpt><trkpt lat="45.55406120176577" lon="11.986515060000539"><ele>16.0</ele><time>2026-03-24T12:49:08Z</time></trkpt><trkpt lat="45.55411967237758" lon="11.98645278719367"><ele>16.0</ele><time>2026-03-24T12:49:09Z</time></trkpt><trkpt lat="45.554163808928294" lon="11.986368511602661"><ele>15.999999999999998</ele><time>2026-03-24T12:49:10Z</time></trkpt><trkpt lat="45.5541653846701" lon="11.986260651605422"><ele>16.0</ele><time>2026-03-24T12:49:11Z</time></trkpt><trkpt lat="45.554137270474875" lon="11.98615581051283"><ele>16.0</ele><time>2026-03-24T12:49:12Z</time></trkpt><trkpt lat="45.55409655062668" lon="11.986056658653345"><ele>16.0</ele><time>2026-03-24T12:49:13Z</time></trkpt><trkpt lat="45.55405238561722" lon="11.985947771411874"><ele>15.999999999999998</ele><time>2026-03-24T12:49:14Z</time></trkpt><trkpt lat="45.554030423452986" lon="11.985808626955437"><ele>16.0</ele><time>2026-03-24T12:49:15Z</time></trkpt><trkpt lat="45.5540037036827" lon="11.985686008138964"><ele>16.25</ele><time>2026-03-24T12:49:16Z</time></trkpt><trkpt lat="45.55396827971193" lon="11.985503505029005"><ele>16.5</ele><time>2026-03-24T12:49:17Z</time></trkpt><trkpt lat="45.553929428825356" lon="11.985316529446933"><ele>16.75</ele><time>2026-03-24T12:49:18Z</time></trkpt><trkpt lat="45.553899366019394" lon="11.985135340555166"><ele>17.0</ele><time>2026-03-24T12:49:19Z</time></trkpt><trkpt lat="45.553877025698334" lon="11.984974486189532"><ele>17.0</ele><time>2026-03-24T12:49:20Z</time></trkpt><trkpt lat="45.553861195734605" lon="11.984826327107914"><ele>17.0</ele><time>2026-03-24T12:49:21Z</time></trkpt><trkpt lat="45.55385166404164" lon="11.984689922148528"><ele>17.0</ele><time>2026-03-24T12:49:22Z</time></trkpt><trkpt lat="45.55384902942374" lon="11.984563173693484"><ele>17.0</ele><time>2026-03-24T12:49:23Z</time></trkpt><trkpt lat="45.55385063013083" lon="11.984439819154732"><ele>17.0</ele><time>2026-03-24T12:49:24Z</time></trkpt><trkpt lat="45.55386185937894" lon="11.984336493065982"><ele>17.0</ele><time>2026-03-24T12:49:25Z</time></trkpt><trkpt lat="45.553899167097086" lon="11.984260065385826"><ele>17.0</ele><time>2026-03-24T12:49:26Z</time></trkpt><trkpt lat="45.554050411624296" lon="11.984255603400186"><ele>17.0</ele><time>2026-03-24T12:49:28Z</time></trkpt><trkpt lat="45.55413393648953" lon="11.98429303790215"><ele>17.0</ele><time>2026-03-24T12:49:29Z</time></trkpt><trkpt lat="45.55423221877038" lon="11.984330299304247"><ele>17.0</ele><time>2026-03-24T12:49:30Z</time></trkpt><trkpt lat="45.55435840653512" lon="11.984371314281482"><ele>17.0</ele><time>2026-03-24T12:49:31Z</time></trkpt><trkpt lat="45.554502627710285" lon="11.984410416040278"><ele>17.0</ele><time>2026-03-24T12:49:32Z</time></trkpt><trkpt lat="45.55466353380572" lon="11.984465505056487"><ele>17.0</ele><time>2026-03-24T12:49:33Z</time></trkpt><trkpt lat="45.55482176237852" lon="11.98452082590469"><ele>17.0</ele><time>2026-03-24T12:49:34Z</time></trkpt><trkpt lat="45.55499045877473" lon="11.98457275698705"><ele>17.0</ele><time>2026-03-24T12:49:35Z</time></trkpt><trkpt lat="45.55516492970008" lon="11.98462250696055"><ele>17.0</ele><time>2026-03-24T12:49:36Z</time></trkpt><trkpt lat="45.55534848553189" lon="11.984676582030453"><ele>16.666666666666668</ele><time>2026-03-24T12:49:37Z</time></trkpt><trkpt lat="45.55553989343834" lon="11.984749522907757"><ele>16.333333333333332</ele><time>2026-03-24T12:49:38Z</time></trkpt><trkpt lat="45.55571269876998" lon="11.984804586813116"><ele>16.0</ele><time>2026-03-24T12:49:39Z</time></trkpt><trkpt lat="45.555873943399696" lon="11.984856187064825"><ele>16.0</ele><time>2026-03-24T12:49:40Z</time></trkpt><trkpt lat="45.55601744552914" lon="11.984908817368096"><ele>16.0</ele><time>2026-03-24T12:49:41Z</time></trkpt><trkpt lat="45.556163336256674" lon="11.984966749202206"><ele>16.0</ele><time>2026-03-24T12:49:42Z</time></trkpt><trkpt lat="45.55628621742556" lon="11.985005065260081"><ele>16.0</ele><time>2026-03-24T12:49:43Z</time></trkpt><trkpt lat="45.55641444329519" lon="11.985047299508976"><ele>15.75</ele><time>2026-03-24T12:49:44Z</time></trkpt><trkpt lat="45.55655618889544" lon="11.985089023014382"><ele>15.5</ele><time>2026-03-24T12:49:45Z</time></trkpt><trkpt lat="45.55670108309065" lon="11.985137184731093"><ele>15.25</ele><time>2026-03-24T12:49:46Z</time></trkpt><trkpt lat="45.556851311738406" lon="11.98518559343232"><ele>15.0</ele><time>2026-03-24T12:49:47Z</time></trkpt><trkpt lat="45.556996618312056" lon="11.985233227239112"><ele>15.25</ele><time>2026-03-24T12:49:48Z</time></trkpt><trkpt lat="45.55712764145179" lon="11.985275681568252"><ele>15.5</ele><time>2026-03-24T12:49:49Z</time></trkpt><trkpt lat="45.55724061233019" lon="11.985311925643584"><ele>15.75</ele><time>2026-03-24T12:49:50Z</time></trkpt><trkpt lat="45.55735302793606" lon="11.98534968581756"><ele>16.0</ele><time>2026-03-24T12:49:51Z</time></trkpt><trkpt lat="45.55745211522928" lon="11.98538284323892"><ele>15.999999999999998</ele><time>2026-03-24T12:49:52Z</time></trkpt><trkpt lat="45.55754651738296" lon="11.985413043475921"><ele>16.0</ele><time>2026-03-24T12:49:53Z</time></trkpt><trkpt lat="45.55762948960681" lon="11.985441448155873"><ele>16.0</ele><time>2026-03-24T12:49:54Z</time></trkpt><trkpt lat="45.55771210606204" lon="11.985466326837733"><ele>16.0</ele><time>2026-03-24T12:49:55Z</time></trkpt><trkpt lat="45.55778638269084" lon="11.985489903332553"><ele>15.999999999999998</ele><time>2026-03-24T12:49:56Z</time></trkpt><trkpt lat="45.55784632549563" lon="11.985549280658335"><ele>16.0</ele><time>2026-03-24T12:49:57Z</time></trkpt><trkpt lat="45.55801642619231" lon="11.98544118152121"><ele>16.0</ele><time>2026-03-24T12:49:59Z</time></trkpt><trkpt lat="45.55810478930163" lon="11.985370975279444"><ele>16.0</ele><time>2026-03-24T12:50:00Z</time></trkpt><trkpt lat="45.558219227588935" lon="11.985347272945289"><ele>16.0</ele><time>2026-03-24T12:50:01Z</time></trkpt><trkpt lat="45.558345143858574" lon="11.985366514193963"><ele>16.0</ele><time>2026-03-24T12:50:02Z</time></trkpt><trkpt lat="45.55848863325499" lon="11.9854108600188"><ele>16.0</ele><time>2026-03-24T12:50:03Z</time></trkpt><trkpt lat="45.55864195068395" lon="11.98543222575181"><ele>16.0</ele><time>2026-03-24T12:50:04Z</time></trkpt><trkpt lat="45.55881235016773" lon="11.98547298826713"><ele>16.0</ele><time>2026-03-24T12:50:05Z</time></trkpt><trkpt lat="45.558984207347606" lon="11.985497744633605"><ele>16.0</ele><time>2026-03-24T12:50:06Z</time></trkpt><trkpt lat="45.55914733031802" lon="11.985526025590113"><ele>16.0</ele><time>2026-03-24T12:50:07Z</time></trkpt><trkpt lat="45.5592936663867" lon="11.985551536186978"><ele>16.0</ele><time>2026-03-24T12:50:08Z</time></trkpt><trkpt lat="45.55942851094235" lon="11.985569347490186"><ele>16.0</ele><time>2026-03-24T12:50:09Z</time></trkpt><trkpt lat="45.55955789716435" lon="11.985585290129812"><ele>16.0</ele><time>2026-03-24T12:50:10Z</time></trkpt><trkpt lat="45.5596784606778" lon="11.985595968254328"><ele>16.0</ele><time>2026-03-24T12:50:11Z</time></trkpt><trkpt lat="45.55979188817261" lon="11.985580165898206"><ele>16.0</ele><time>2026-03-24T12:50:12Z</time></trkpt><trkpt lat="45.55988800837733" lon="11.985526864651911"><ele>16.0</ele><time>2026-03-24T12:50:13Z</time></trkpt><trkpt lat="45.55995678523065" lon="11.985408537370024"><ele>16.0</ele><time>2026-03-24T12:50:14Z</time></trkpt><trkpt lat="45.56000231543987" lon="11.985251338850079"><ele>16.0</ele><time>2026-03-24T12:50:15Z</time></trkpt><trkpt lat="45.56001265961858" lon="11.98508146612493"><ele>16.0</ele><time>2026-03-24T12:50:16Z</time></trkpt><trkpt lat="45.560005903938844" lon="11.984876183286113"><ele>16.0</ele><time>2026-03-24T12:50:17Z</time></trkpt><trkpt lat="45.56000727424419" lon="11.984659752386456"><ele>16.0</ele><time>2026-03-24T12:50:18Z</time></trkpt><trkpt lat="45.560002573695364" lon="11.984432244822157"><ele>16.25</ele><time>2026-03-24T12:50:19Z</time></trkpt><trkpt lat="45.55999184548533" lon="11.98420448143086"><ele>16.5</ele><time>2026-03-24T12:50:20Z</time></trkpt><trkpt lat="45.55997158503135" lon="11.983997091755066"><ele>16.75</ele><time>2026-03-24T12:50:21Z</time></trkpt><trkpt lat="45.55995473195261" lon="11.983800859620816"><ele>17.0</ele><time>2026-03-24T12:50:22Z</time></trkpt><trkpt lat="45.55994412031348" lon="11.983605942857402"><ele>17.0</ele><time>2026-03-24T12:50:23Z</time></trkpt><trkpt lat="45.55994162918995" lon="11.983431570154426"><ele>17.0</ele><time>2026-03-24T12:50:24Z</time></trkpt><trkpt lat="45.55997663112942" lon="11.983284990763494"><ele>17.0</ele><time>2026-03-24T12:50:25Z</time></trkpt><trkpt lat="45.560026633392546" lon="11.983174254799714"><ele>17.0</ele><time>2026-03-24T12:50:26Z</time></trkpt><trkpt lat="45.56010778662525" lon="11.983117827541378"><ele>17.0</ele><time>2026-03-24T12:50:27Z</time></trkpt><trkpt lat="45.560219951363244" lon="11.983109093670675"><ele>17.25</ele><time>2026-03-24T12:50:28Z</time></trkpt><trkpt lat="45.56034161406249" lon="11.983122670248788"><ele>17.5</ele><time>2026-03-24T12:50:29Z</time></trkpt><trkpt lat="45.56046834404629" lon="11.983132327846787"><ele>17.75</ele><time>2026-03-24T12:50:30Z</time></trkpt><trkpt lat="45.56064500270509" lon="11.983147523901184"><ele>18.0</ele><time>2026-03-24T12:50:31Z</time></trkpt><trkpt lat="45.56080172423077" lon="11.983163812261713"><ele>18.0</ele><time>2026-03-24T12:50:32Z</time></trkpt><trkpt lat="45.560965713945535" lon="11.983176610803087"><ele>18.0</ele><time>2026-03-24T12:50:33Z</time></trkpt><trkpt lat="45.56114789899605" lon="11.983197355316081"><ele>18.0</ele><time>2026-03-24T12:50:34Z</time></trkpt><trkpt lat="45.561332366575364" lon="11.983223345022457"><ele>18.0</ele><time>2026-03-24T12:50:35Z</time></trkpt><trkpt lat="45.56152437480883" lon="11.98324105887862"><ele>18.0</ele><time>2026-03-24T12:50:36Z</time></trkpt><trkpt lat="45.561711455363614" lon="11.983252443082224"><ele>18.0</ele><time>2026-03-24T12:50:37Z</time></trkpt><trkpt lat="45.561859108405926" lon="11.983268681507335"><ele>18.333333333333332</ele><time>2026-03-24T12:50:38Z</time></trkpt><trkpt lat="45.56205145734425" lon="11.983281277064162"><ele>18.666666666666664</ele><time>2026-03-24T12:50:39Z</time></trkpt><trkpt lat="45.5621995732313" lon="11.983286646325631"><ele>19.0</ele><time>2026-03-24T12:50:40Z</time></trkpt><trkpt lat="45.56232199981786" lon="11.983246973420876"><ele>19.0</ele><time>2026-03-24T12:50:41Z</time></trkpt><trkpt lat="45.56245494253706" lon="11.983170003878602"><ele>19.0</ele><time>2026-03-24T12:50:42Z</time></trkpt><trkpt lat="45.56257913849335" lon="11.98302818913471"><ele>19.0</ele><time>2026-03-24T12:50:43Z</time></trkpt><trkpt lat="45.56270392056129" lon="11.982866257774788"><ele>19.0</ele><time>2026-03-24T12:50:44Z</time></trkpt><trkpt lat="45.56282465114876" lon="11.982719774635303"><ele>19.0</ele><time>2026-03-24T12:50:45Z</time></trkpt><trkpt lat="45.562939726930274" lon="11.982614009339533"><ele>19.0</ele><time>2026-03-24T12:50:46Z</time></trkpt><trkpt lat="45.56306770767039" lon="11.982545449938442"><ele>19.0</ele><time>2026-03-24T12:50:47Z</time></trkpt><trkpt lat="45.56321137804533" lon="11.982562696200004"><ele>18.666666666666664</ele><time>2026-03-24T12:50:48Z</time></trkpt><trkpt lat="45.56335766746674" lon="11.982567743965792"><ele>18.333333333333332</ele><time>2026-03-24T12:50:49Z</time></trkpt><trkpt lat="45.56352212587269" lon="11.982584873165463"><ele>18.0</ele><time>2026-03-24T12:50:50Z</time></trkpt><trkpt lat="45.56369801543811" lon="11.98260001106115"><ele>17.666666666666668</ele><time>2026-03-24T12:50:51Z</time></trkpt><trkpt lat="45.56389260989384" lon="11.982630415303165"><ele>17.333333333333336</ele><time>2026-03-24T12:50:52Z</time></trkpt><trkpt lat="45.56409295169137" lon="11.982653309810289"><ele>17.0</ele><time>2026-03-24T12:50:53Z</time></trkpt><trkpt lat="45.564297699985545" lon="11.982674746202697"><ele>17.0</ele><time>2026-03-24T12:50:54Z</time></trkpt><trkpt lat="45.564511616391854" lon="11.982701680109047"><ele>17.0</ele><time>2026-03-24T12:50:55Z</time></trkpt><trkpt lat="45.56472621422937" lon="11.982721475310942"><ele>17.0</ele><time>2026-03-24T12:50:56Z</time></trkpt><trkpt lat="45.56494894547394" lon="11.98274780859409"><ele>17.0</ele><time>2026-03-24T12:50:57Z</time></trkpt><trkpt lat="45.56517577945355" lon="11.982769327689084"><ele>17.0</ele><time>2026-03-24T12:50:58Z</time></trkpt><trkpt lat="45.565399128918436" lon="11.982787048338448"><ele>18.0</ele><time>2026-03-24T12:50:59Z</time></trkpt><trkpt lat="45.565623122782895" lon="11.982816759863764"><ele>19.0</ele><time>2026-03-24T12:51:00Z</time></trkpt><trkpt lat="45.56584935452104" lon="11.982843063867076"><ele>19.0</ele><time>2026-03-24T12:51:01Z</time></trkpt><trkpt lat="45.56605718306357" lon="11.982863221611224"><ele>19.0</ele><time>2026-03-24T12:51:02Z</time></trkpt><trkpt lat="45.56625355425832" lon="11.982886043415592"><ele>19.0</ele><time>2026-03-24T12:51:03Z</time></trkpt><trkpt lat="45.56643797020398" lon="11.982903061490667"><ele>19.333333333333332</ele><time>2026-03-24T12:51:04Z</time></trkpt><trkpt lat="45.56660754253436" lon="11.982903363651838"><ele>19.666666666666668</ele><time>2026-03-24T12:51:05Z</time></trkpt><trkpt lat="45.56677222503203" lon="11.982904138602326"><ele>20.0</ele><time>2026-03-24T12:51:06Z</time></trkpt><trkpt lat="45.56694023892965" lon="11.982915468285299"><ele>19.666666666666668</ele><time>2026-03-24T12:51:07Z</time></trkpt><trkpt lat="45.56710715670679" lon="11.982922878069143"><ele>19.333333333333332</ele><time>2026-03-24T12:51:08Z</time></trkpt><trkpt lat="45.56727306758236" lon="11.982929760133382"><ele>19.0</ele><time>2026-03-24T12:51:09Z</time></trkpt><trkpt lat="45.56743728767835" lon="11.982944707525169"><ele>19.0</ele><time>2026-03-24T12:51:10Z</time></trkpt><trkpt lat="45.5676001608988" lon="11.982961726006359"><ele>19.0</ele><time>2026-03-24T12:51:11Z</time></trkpt><trkpt lat="45.56776719284068" lon="11.98297958600326"><ele>19.0</ele><time>2026-03-24T12:51:12Z</time></trkpt><trkpt lat="45.56794570630566" lon="11.982999136093927"><ele>19.0</ele><time>2026-03-24T12:51:13Z</time></trkpt><trkpt lat="45.56812893939079" lon="11.983009963618859"><ele>19.0</ele><time>2026-03-24T12:51:14Z</time></trkpt><trkpt lat="45.568316982592975" lon="11.98302218876613"><ele>19.0</ele><time>2026-03-24T12:51:15Z</time></trkpt><trkpt lat="45.56848855996944" lon="11.983044967365084"><ele>19.0</ele><time>2026-03-24T12:51:16Z</time></trkpt><trkpt lat="45.568636835602824" lon="11.983060755881372"><ele>19.0</ele><time>2026-03-24T12:51:17Z</time></trkpt><trkpt lat="45.56877111420724" lon="11.98306406710696"><ele>19.0</ele><time>2026-03-24T12:51:18Z</time></trkpt><trkpt lat="45.568906693773435" lon="11.983048747835337"><ele>19.0</ele><time>2026-03-24T12:51:19Z</time></trkpt><trkpt lat="45.56903695731961" lon="11.983000271655872"><ele>19.0</ele><time>2026-03-24T12:51:20Z</time></trkpt><trkpt lat="45.56915569102767" lon="11.982901160717615"><ele>19.0</ele><time>2026-03-24T12:51:21Z</time></trkpt><trkpt lat="45.569248701392354" lon="11.982755127341795"><ele>19.0</ele><time>2026-03-24T12:51:22Z</time></trkpt><trkpt lat="45.569310232349466" lon="11.982602773932463"><ele>19.0</ele><time>2026-03-24T12:51:23Z</time></trkpt><trkpt lat="45.56934610544938" lon="11.982459288821504"><ele>19.0</ele><time>2026-03-24T12:51:24Z</time></trkpt><trkpt lat="45.569368527466004" lon="11.982359853094522"><ele>19.0</ele><time>2026-03-24T12:51:25Z</time></trkpt><trkpt lat="45.569407368393925" lon="11.982240756489142"><ele>19.0</ele><time>2026-03-24T12:51:27Z</time></trkpt><trkpt lat="45.56942730836678" lon="11.982113753996117"><ele>19.0</ele><time>2026-03-24T12:51:29Z</time></trkpt><trkpt lat="45.56941492567153" lon="11.981883727589532"><ele>19.0</ele><time>2026-03-24T12:51:31Z</time></trkpt><trkpt lat="45.56942214232635" lon="11.981740705795437"><ele>19.5</ele><time>2026-03-24T12:51:32Z</time></trkpt><trkpt lat="45.56944378882165" lon="11.981566031880247"><ele>20.0</ele><time>2026-03-24T12:51:33Z</time></trkpt><trkpt lat="45.56946531395378" lon="11.981377139068806"><ele>20.5</ele><time>2026-03-24T12:51:34Z</time></trkpt><trkpt lat="45.569479824015325" lon="11.981169678988348"><ele>21.0</ele><time>2026-03-24T12:51:35Z</time></trkpt><trkpt lat="45.569493843553005" lon="11.980948755350923"><ele>21.0</ele><time>2026-03-24T12:51:36Z</time></trkpt><trkpt lat="45.5695022017558" lon="11.980721806258728"><ele>21.0</ele><time>2026-03-24T12:51:37Z</time></trkpt><trkpt lat="45.56948496461794" lon="11.98049250331824"><ele>21.0</ele><time>2026-03-24T12:51:38Z</time></trkpt><trkpt lat="45.569472337401756" lon="11.980263673791073"><ele>21.0</ele><time>2026-03-24T12:51:39Z</time></trkpt><trkpt lat="45.56946678832143" lon="11.98004416290244"><ele>21.0</ele><time>2026-03-24T12:51:40Z</time></trkpt><trkpt lat="45.56946473098523" lon="11.97983864949196"><ele>21.0</ele><time>2026-03-24T12:51:41Z</time></trkpt><trkpt lat="45.56946967111039" lon="11.979650653081737"><ele>21.0</ele><time>2026-03-24T12:51:42Z</time></trkpt><trkpt lat="45.569475521242616" lon="11.979465793612615"><ele>21.0</ele><time>2026-03-24T12:51:43Z</time></trkpt><trkpt lat="45.56948293362056" lon="11.979271311930606"><ele>21.0</ele><time>2026-03-24T12:51:44Z</time></trkpt><trkpt lat="45.56948863236272" lon="11.97906939612604"><ele>21.0</ele><time>2026-03-24T12:51:45Z</time></trkpt><trkpt lat="45.569493539747185" lon="11.978856836312241"><ele>21.0</ele><time>2026-03-24T12:51:46Z</time></trkpt><trkpt lat="45.569501227496204" lon="11.978645076724202"><ele>20.75</ele><time>2026-03-24T12:51:47Z</time></trkpt><trkpt lat="45.56950277669021" lon="11.9784360767902"><ele>20.5</ele><time>2026-03-24T12:51:48Z</time></trkpt><trkpt lat="45.56949872290303" lon="11.978241736013326"><ele>20.25</ele><time>2026-03-24T12:51:49Z</time></trkpt><trkpt lat="45.569497174401825" lon="11.978057350423235"><ele>20.0</ele><time>2026-03-24T12:51:50Z</time></trkpt><trkpt lat="45.56949106968922" lon="11.977873658011328"><ele>20.0</ele><time>2026-03-24T12:51:51Z</time></trkpt><trkpt lat="45.56948160649" lon="11.977675232530894"><ele>20.0</ele><time>2026-03-24T12:51:52Z</time></trkpt><trkpt lat="45.569469614793974" lon="11.97748166163676"><ele>20.0</ele><time>2026-03-24T12:51:53Z</time></trkpt><trkpt lat="45.56946367250177" lon="11.977284257754508"><ele>20.0</ele><time>2026-03-24T12:51:54Z</time></trkpt><trkpt lat="45.569459730902715" lon="11.977083106290333"><ele>20.0</ele><time>2026-03-24T12:51:55Z</time></trkpt><trkpt lat="45.56945930164392" lon="11.976880321509947"><ele>20.0</ele><time>2026-03-24T12:51:56Z</time></trkpt><trkpt lat="45.569459532709786" lon="11.976661237159448"><ele>20.0</ele><time>2026-03-24T12:51:57Z</time></trkpt><trkpt lat="45.56947282349367" lon="11.976427250087363"><ele>20.333333333333336</ele><time>2026-03-24T12:51:58Z</time></trkpt><trkpt lat="45.56948661696625" lon="11.976187417521235"><ele>20.666666666666668</ele><time>2026-03-24T12:51:59Z</time></trkpt><trkpt lat="45.56950418715106" lon="11.975920966147338"><ele>21.0</ele><time>2026-03-24T12:52:00Z</time></trkpt><trkpt lat="45.569510307546444" lon="11.975639488940857"><ele>21.0</ele><time>2026-03-24T12:52:01Z</time></trkpt><trkpt lat="45.56952251265535" lon="11.97538899521002"><ele>21.0</ele><time>2026-03-24T12:52:02Z</time></trkpt><trkpt lat="45.56953439691784" lon="11.97515791731327"><ele>21.0</ele><time>2026-03-24T12:52:03Z</time></trkpt><trkpt lat="45.56954301896306" lon="11.974952117241353"><ele>20.75</ele><time>2026-03-24T12:52:04Z</time></trkpt><trkpt lat="45.56954991462628" lon="11.974759120019382"><ele>20.5</ele><time>2026-03-24T12:52:05Z</time></trkpt><trkpt lat="45.56955422481257" lon="11.974573385763174"><ele>20.25</ele><time>2026-03-24T12:52:06Z</time></trkpt><trkpt lat="45.56956195519321" lon="11.974405584926744"><ele>20.0</ele><time>2026-03-24T12:52:07Z</time></trkpt><trkpt lat="45.56956984583762" lon="11.974257882994742"><ele>20.0</ele><time>2026-03-24T12:52:08Z</time></trkpt><trkpt lat="45.56957917416136" lon="11.974120632167182"><ele>20.0</ele><time>2026-03-24T12:52:09Z</time></trkpt><trkpt lat="45.569584885851576" lon="11.973996688069379"><ele>20.0</ele><time>2026-03-24T12:52:10Z</time></trkpt><trkpt lat="45.56959386151312" lon="11.973884986886492"><ele>20.0</ele><time>2026-03-24T12:52:11Z</time></trkpt><trkpt lat="45.569623939550155" lon="11.973779742910153"><ele>20.0</ele><time>2026-03-24T12:52:12Z</time></trkpt><trkpt lat="45.56965285777844" lon="11.973685052144004"><ele>20.0</ele><time>2026-03-24T12:52:13Z</time></trkpt><trkpt lat="45.569769207466486" lon="11.973682944351456"><ele>20.0</ele><time>2026-03-24T12:52:14Z</time></trkpt><trkpt lat="45.56985949480512" lon="11.97367896641565"><ele>20.0</ele><time>2026-03-24T12:52:15Z</time></trkpt><trkpt lat="45.569963242369795" lon="11.973674395456827"><ele>20.0</ele><time>2026-03-24T12:52:16Z</time></trkpt><trkpt lat="45.57008042630228" lon="11.973661001273433"><ele>20.0</ele><time>2026-03-24T12:52:17Z</time></trkpt><trkpt lat="45.570209811018316" lon="11.973661818070282"><ele>20.0</ele><time>2026-03-24T12:52:18Z</time></trkpt><trkpt lat="45.57035523926235" lon="11.97365869147248"><ele>19.333333333333336</ele><time>2026-03-24T12:52:19Z</time></trkpt><trkpt lat="45.57051323001576" lon="11.973660410065786"><ele>18.666666666666668</ele><time>2026-03-24T12:52:20Z</time></trkpt><trkpt lat="45.5706693222455" lon="11.973657591567287"><ele>18.0</ele><time>2026-03-24T12:52:21Z</time></trkpt><trkpt lat="45.57083147670606" lon="11.973639726895767"><ele>18.0</ele><time>2026-03-24T12:52:22Z</time></trkpt><trkpt lat="45.571016800199914" lon="11.973640651690282"><ele>18.0</ele><time>2026-03-24T12:52:23Z</time></trkpt><trkpt lat="45.57120948029604" lon="11.9736459720591"><ele>18.0</ele><time>2026-03-24T12:52:24Z</time></trkpt><trkpt lat="45.571408292323206" lon="11.973629370462088"><ele>18.333333333333332</ele><time>2026-03-24T12:52:25Z</time></trkpt><trkpt lat="45.571618908968205" lon="11.973625799766548"><ele>18.666666666666664</ele><time>2026-03-24T12:52:26Z</time></trkpt><trkpt lat="45.57182479686301" lon="11.973605933751903"><ele>19.0</ele><time>2026-03-24T12:52:27Z</time></trkpt><trkpt lat="45.57203943648205" lon="11.973597396060311"><ele>18.0</ele><time>2026-03-24T12:52:28Z</time></trkpt><trkpt lat="45.5722703075202" lon="11.973589861511034"><ele>17.0</ele><time>2026-03-24T12:52:29Z</time></trkpt><trkpt lat="45.57250650868048" lon="11.973581784213662"><ele>17.0</ele><time>2026-03-24T12:52:30Z</time></trkpt><trkpt lat="45.5727548256328" lon="11.973575753394982"><ele>17.0</ele><time>2026-03-24T12:52:31Z</time></trkpt><trkpt lat="45.57302186098318" lon="11.973567267624416"><ele>17.5</ele><time>2026-03-24T12:52:32Z</time></trkpt><trkpt lat="45.57329013330358" lon="11.973553242856752"><ele>18.0</ele><time>2026-03-24T12:52:33Z</time></trkpt><trkpt lat="45.573540670180826" lon="11.973538216652846"><ele>19.0</ele><time>2026-03-24T12:52:34Z</time></trkpt><trkpt lat="45.57378500392214" lon="11.973520319875256"><ele>20.0</ele><time>2026-03-24T12:52:35Z</time></trkpt><trkpt lat="45.574002891206696" lon="11.973532643137528"><ele>20.0</ele><time>2026-03-24T12:52:36Z</time></trkpt><trkpt lat="45.57422049802984" lon="11.97352950726697"><ele>20.0</ele><time>2026-03-24T12:52:37Z</time></trkpt><trkpt lat="45.57441962614854" lon="11.973520619454954"><ele>20.0</ele><time>2026-03-24T12:52:38Z</time></trkpt><trkpt lat="45.57460264458654" lon="11.97350933102145"><ele>19.666666666666668</ele><time>2026-03-24T12:52:39Z</time></trkpt><trkpt lat="45.574780560668174" lon="11.973508158841712"><ele>19.333333333333332</ele><time>2026-03-24T12:52:40Z</time></trkpt><trkpt lat="45.57494226792145" lon="11.973497597353697"><ele>19.0</ele><time>2026-03-24T12:52:41Z</time></trkpt><trkpt lat="45.57509061436254" lon="11.973493267979947"><ele>19.0</ele><time>2026-03-24T12:52:42Z</time></trkpt><trkpt lat="45.57524203064914" lon="11.973485925696417"><ele>19.0</ele><time>2026-03-24T12:52:43Z</time></trkpt><trkpt lat="45.575403631217675" lon="11.973483775835081"><ele>19.0</ele><time>2026-03-24T12:52:44Z</time></trkpt><trkpt lat="45.575561310587254" lon="11.973470472534295"><ele>19.25</ele><time>2026-03-24T12:52:45Z</time></trkpt><trkpt lat="45.57569889037123" lon="11.973444165161455"><ele>19.5</ele><time>2026-03-24T12:52:46Z</time></trkpt><trkpt lat="45.57581627821124" lon="11.973429310077593"><ele>19.75</ele><time>2026-03-24T12:52:47Z</time></trkpt><trkpt lat="45.57592942979016" lon="11.973411616017348"><ele>20.0</ele><time>2026-03-24T12:52:48Z</time></trkpt><trkpt lat="45.575981730395526" lon="11.973085340727954"><ele>20.333333333333336</ele><time>2026-03-24T12:52:49Z</time></trkpt><trkpt lat="45.57603482544085" lon="11.972898616971326"><ele>20.666666666666668</ele><time>2026-03-24T12:52:50Z</time></trkpt><trkpt lat="45.57602918070445" lon="11.972686252689192"><ele>21.0</ele><time>2026-03-24T12:52:51Z</time></trkpt><trkpt lat="45.57601217372318" lon="11.972457227067826"><ele>20.666666666666668</ele><time>2026-03-24T12:52:52Z</time></trkpt><trkpt lat="45.57602384453029" lon="11.972195367594876"><ele>20.333333333333336</ele><time>2026-03-24T12:52:53Z</time></trkpt><trkpt lat="45.576039603390434" lon="11.97189345789091"><ele>20.0</ele><time>2026-03-24T12:52:54Z</time></trkpt><trkpt lat="45.57604976354154" lon="11.971576654856145"><ele>20.0</ele><time>2026-03-24T12:52:55Z</time></trkpt><trkpt lat="45.57606072349148" lon="11.971245814058491"><ele>20.0</ele><time>2026-03-24T12:52:56Z</time></trkpt><trkpt lat="45.57607886148415" lon="11.970912082619586"><ele>20.0</ele><time>2026-03-24T12:52:57Z</time></trkpt><trkpt lat="45.576094468208716" lon="11.97059851534313"><ele>20.0</ele><time>2026-03-24T12:52:58Z</time></trkpt><trkpt lat="45.57610306725696" lon="11.970320915383462"><ele>20.0</ele><time>2026-03-24T12:52:59Z</time></trkpt><trkpt lat="45.57611687254603" lon="11.970040571448928"><ele>20.0</ele><time>2026-03-24T12:53:00Z</time></trkpt><trkpt lat="45.57612896828017" lon="11.969757818420884"><ele>20.0</ele><time>2026-03-24T12:53:01Z</time></trkpt><trkpt lat="45.57614105730282" lon="11.969463059881068"><ele>20.0</ele><time>2026-03-24T12:53:02Z</time></trkpt><trkpt lat="45.576153672383114" lon="11.969196143171404"><ele>20.333333333333336</ele><time>2026-03-24T12:53:03Z</time></trkpt><trkpt lat="45.57615796740748" lon="11.968958168537403"><ele>20.666666666666668</ele><time>2026-03-24T12:53:04Z</time></trkpt><trkpt lat="45.576166402266175" lon="11.968737003381902"><ele>21.0</ele><time>2026-03-24T12:53:05Z</time></trkpt><trkpt lat="45.576171984047996" lon="11.968527873725536"><ele>20.75</ele><time>2026-03-24T12:53:06Z</time></trkpt><trkpt lat="45.57618569241018" lon="11.968340086704837"><ele>20.5</ele><time>2026-03-24T12:53:07Z</time></trkpt><trkpt lat="45.57623794973121" lon="11.968169083666526"><ele>20.25</ele><time>2026-03-24T12:53:08Z</time></trkpt><trkpt lat="45.576302336485234" lon="11.96799695534171"><ele>20.0</ele><time>2026-03-24T12:53:09Z</time></trkpt><trkpt lat="45.576391391279515" lon="11.967838308456008"><ele>20.0</ele><time>2026-03-24T12:53:10Z</time></trkpt><trkpt lat="45.57652496801346" lon="11.967744541333055"><ele>20.0</ele><time>2026-03-24T12:53:11Z</time></trkpt><trkpt lat="45.57666415329855" lon="11.967696282721997"><ele>20.0</ele><time>2026-03-24T12:53:12Z</time></trkpt><trkpt lat="45.57682884469077" lon="11.967695020858693"><ele>20.0</ele><time>2026-03-24T12:53:13Z</time></trkpt><trkpt lat="45.576995835234015" lon="11.96768005429768"><ele>20.0</ele><time>2026-03-24T12:53:14Z</time></trkpt><trkpt lat="45.57716636325147" lon="11.96767835693012"><ele>20.0</ele><time>2026-03-24T12:53:15Z</time></trkpt><trkpt lat="45.577360573986056" lon="11.967670684871065"><ele>20.0</ele><time>2026-03-24T12:53:16Z</time></trkpt><trkpt lat="45.57757314632644" lon="11.96767066923389"><ele>20.0</ele><time>2026-03-24T12:53:17Z</time></trkpt><trkpt lat="45.57781778846718" lon="11.967685662806915"><ele>20.0</ele><time>2026-03-24T12:53:18Z</time></trkpt><trkpt lat="45.57803798291765" lon="11.967712148844745"><ele>20.0</ele><time>2026-03-24T12:53:19Z</time></trkpt><trkpt lat="45.5782339431884" lon="11.967705228637357"><ele>20.0</ele><time>2026-03-24T12:53:20Z</time></trkpt><trkpt lat="45.57841352232696" lon="11.96770496634862"><ele>20.0</ele><time>2026-03-24T12:53:21Z</time></trkpt><trkpt lat="45.578580348645154" lon="11.96771023194941"><ele>20.0</ele><time>2026-03-24T12:53:22Z</time></trkpt><trkpt lat="45.57873505183578" lon="11.967712053315596"><ele>20.0</ele><time>2026-03-24T12:53:23Z</time></trkpt><trkpt lat="45.57888296959721" lon="11.967710232581856"><ele>20.0</ele><time>2026-03-24T12:53:24Z</time></trkpt><trkpt lat="45.579013466007055" lon="11.96769266924181"><ele>20.0</ele><time>2026-03-24T12:53:25Z</time></trkpt><trkpt lat="45.579132436400776" lon="11.967648052789219"><ele>20.0</ele><time>2026-03-24T12:53:26Z</time></trkpt><trkpt lat="45.57923964095589" lon="11.967550447807726"><ele>20.0</ele><time>2026-03-24T12:53:27Z</time></trkpt><trkpt lat="45.57931348147923" lon="11.967394651271338"><ele>20.0</ele><time>2026-03-24T12:53:28Z</time></trkpt><trkpt lat="45.57936923771213" lon="11.96722279300574"><ele>20.0</ele><time>2026-03-24T12:53:29Z</time></trkpt><trkpt lat="45.5793977714552" lon="11.967010412457512"><ele>20.0</ele><time>2026-03-24T12:53:30Z</time></trkpt><trkpt lat="45.579404309905634" lon="11.966782523364976"><ele>20.0</ele><time>2026-03-24T12:53:31Z</time></trkpt><trkpt lat="45.57941316726615" lon="11.96653685458114"><ele>20.0</ele><time>2026-03-24T12:53:32Z</time></trkpt><trkpt lat="45.57941605027818" lon="11.966270387806587"><ele>20.0</ele><time>2026-03-24T12:53:33Z</time></trkpt><trkpt lat="45.57941544585494" lon="11.96598729357526"><ele>20.0</ele><time>2026-03-24T12:53:34Z</time></trkpt><trkpt lat="45.57941959215761" lon="11.965696858159337"><ele>20.0</ele><time>2026-03-24T12:53:35Z</time></trkpt><trkpt lat="45.57942594968228" lon="11.965384934886881"><ele>20.0</ele><time>2026-03-24T12:53:36Z</time></trkpt><trkpt lat="45.57943363086685" lon="11.96505996126148"><ele>20.0</ele><time>2026-03-24T12:53:37Z</time></trkpt><trkpt lat="45.57943417168614" lon="11.964760757198237"><ele>20.0</ele><time>2026-03-24T12:53:38Z</time></trkpt><trkpt lat="45.57943606953882" lon="11.964480605816888"><ele>20.0</ele><time>2026-03-24T12:53:39Z</time></trkpt><trkpt lat="45.579439321479164" lon="11.964217274928618"><ele>20.0</ele><time>2026-03-24T12:53:40Z</time></trkpt><trkpt lat="45.57944384268159" lon="11.963973257011034"><ele>20.25</ele><time>2026-03-24T12:53:41Z</time></trkpt><trkpt lat="45.579461127174575" lon="11.963760057287132"><ele>20.5</ele><time>2026-03-24T12:53:42Z</time></trkpt><trkpt lat="45.5794533070983" lon="11.963567744268861"><ele>20.75</ele><time>2026-03-24T12:53:43Z</time></trkpt><trkpt lat="45.57948770152518" lon="11.963466367405976"><ele>21.0</ele><time>2026-03-24T12:53:44Z</time></trkpt><trkpt lat="45.57953598287829" lon="11.963337764230237"><ele>21.25</ele><time>2026-03-24T12:53:45Z</time></trkpt><trkpt lat="45.57963040821106" lon="11.963242040635992"><ele>21.5</ele><time>2026-03-24T12:53:46Z</time></trkpt><trkpt lat="45.579751862209186" lon="11.963195905375759"><ele>21.75</ele><time>2026-03-24T12:53:47Z</time></trkpt><trkpt lat="45.57987973314955" lon="11.96322062697299"><ele>22.0</ele><time>2026-03-24T12:53:48Z</time></trkpt><trkpt lat="45.58001938512227" lon="11.96321969813038"><ele>22.0</ele><time>2026-03-24T12:53:49Z</time></trkpt><trkpt lat="45.58017299879741" lon="11.963246813482996"><ele>22.0</ele><time>2026-03-24T12:53:50Z</time></trkpt><trkpt lat="45.5803641549481" lon="11.963252840491663"><ele>22.0</ele><time>2026-03-24T12:53:51Z</time></trkpt><trkpt lat="45.58059598407409" lon="11.963295075007013"><ele>22.0</ele><time>2026-03-24T12:53:52Z</time></trkpt><trkpt lat="45.58081408482794" lon="11.96333578319805"><ele>22.0</ele><time>2026-03-24T12:53:53Z</time></trkpt><trkpt lat="45.581043549957435" lon="11.963366347114814"><ele>21.333333333333332</ele><time>2026-03-24T12:53:54Z</time></trkpt><trkpt lat="45.58125823000238" lon="11.963385736245273"><ele>20.666666666666668</ele><time>2026-03-24T12:53:55Z</time></trkpt><trkpt lat="45.581465660013464" lon="11.96339968382501"><ele>20.0</ele><time>2026-03-24T12:53:56Z</time></trkpt><trkpt lat="45.581656183367166" lon="11.963412101717227"><ele>20.0</ele><time>2026-03-24T12:53:57Z</time></trkpt><trkpt lat="45.581834242159744" lon="11.963428004021774"><ele>20.0</ele><time>2026-03-24T12:53:58Z</time></trkpt><trkpt lat="45.5820085234939" lon="11.96345158098966"><ele>20.0</ele><time>2026-03-24T12:53:59Z</time></trkpt><trkpt lat="45.582163654911206" lon="11.963466092937312"><ele>20.5</ele><time>2026-03-24T12:54:00Z</time></trkpt><trkpt lat="45.582308201206345" lon="11.963479425437622"><ele>21.0</ele><time>2026-03-24T12:54:01Z</time></trkpt><trkpt lat="45.58245509695635" lon="11.963490944244858"><ele>21.5</ele><time>2026-03-24T12:54:02Z</time></trkpt><trkpt lat="45.58260268282426" lon="11.963509094703435"><ele>22.0</ele><time>2026-03-24T12:54:03Z</time></trkpt><trkpt lat="45.58273675977381" lon="11.963517762199418"><ele>22.0</ele><time>2026-03-24T12:54:04Z</time></trkpt><trkpt lat="45.58287028953733" lon="11.963530758382223"><ele>22.0</ele><time>2026-03-24T12:54:05Z</time></trkpt><trkpt lat="45.5829619418279" lon="11.963541385261685"><ele>22.0</ele><time>2026-03-24T12:54:06Z</time></trkpt><trkpt lat="45.58304390353045" lon="11.96355021247108"><ele>22.0</ele><time>2026-03-24T12:54:07Z</time></trkpt><trkpt lat="45.58314710981054" lon="11.963542689739771"><ele>22.0</ele><time>2026-03-24T12:54:09Z</time></trkpt><trkpt lat="45.58322740671668" lon="11.963542383669123"><ele>22.0</ele><time>2026-03-24T12:54:11Z</time></trkpt><trkpt lat="45.58329928781713" lon="11.963541197367032"><ele>22.0</ele><time>2026-03-24T12:54:14Z</time></trkpt><trkpt lat="45.58337369419479" lon="11.963534123217595"><ele>22.0</ele><time>2026-03-24T12:54:17Z</time></trkpt><trkpt lat="45.583445207955066" lon="11.963451755163678"><ele>22.0</ele><time>2026-03-24T12:54:24Z</time></trkpt><trkpt lat="45.5834810334932" lon="11.963287668539177"><ele>22.0</ele><time>2026-03-24T12:54:26Z</time></trkpt><trkpt lat="45.58348570708882" lon="11.963170056737548"><ele>22.0</ele><time>2026-03-24T12:54:27Z</time></trkpt><trkpt lat="45.58348898116514" lon="11.963049177439139"><ele>22.0</ele><time>2026-03-24T12:54:28Z</time></trkpt><trkpt lat="45.583495530125376" lon="11.962920268885508"><ele>22.0</ele><time>2026-03-24T12:54:29Z</time></trkpt><trkpt lat="45.583502194466405" lon="11.962780818988417"><ele>22.0</ele><time>2026-03-24T12:54:30Z</time></trkpt><trkpt lat="45.58350250438485" lon="11.962627586863157"><ele>22.0</ele><time>2026-03-24T12:54:31Z</time></trkpt><trkpt lat="45.583504413466905" lon="11.962458790661607"><ele>22.0</ele><time>2026-03-24T12:54:32Z</time></trkpt><trkpt lat="45.58350955009987" lon="11.962276344814587"><ele>21.75</ele><time>2026-03-24T12:54:33Z</time></trkpt><trkpt lat="45.58351289366437" lon="11.96208560490501"><ele>21.5</ele><time>2026-03-24T12:54:34Z</time></trkpt><trkpt lat="45.58351719646045" lon="11.96188474808426"><ele>21.25</ele><time>2026-03-24T12:54:35Z</time></trkpt><trkpt lat="45.583520459761885" lon="11.961676831457915"><ele>21.0</ele><time>2026-03-24T12:54:36Z</time></trkpt><trkpt lat="45.58352283976312" lon="11.961456858019073"><ele>21.0</ele><time>2026-03-24T12:54:37Z</time></trkpt><trkpt lat="45.583525421717724" lon="11.961222936508975"><ele>21.0</ele><time>2026-03-24T12:54:38Z</time></trkpt><trkpt lat="45.583532082507126" lon="11.961011046955441"><ele>21.0</ele><time>2026-03-24T12:54:39Z</time></trkpt><trkpt lat="45.58353821423332" lon="11.96081293467761"><ele>20.75</ele><time>2026-03-24T12:54:40Z</time></trkpt><trkpt lat="45.58354393918038" lon="11.960636471677782"><ele>20.5</ele><time>2026-03-24T12:54:41Z</time></trkpt><trkpt lat="45.58354892259361" lon="11.960465082333256"><ele>20.25</ele><time>2026-03-24T12:54:42Z</time></trkpt><trkpt lat="45.58355297862181" lon="11.96031327714478"><ele>20.0</ele><time>2026-03-24T12:54:43Z</time></trkpt><trkpt lat="45.58355807471663" lon="11.960164703851259"><ele>20.0</ele><time>2026-03-24T12:54:44Z</time></trkpt><trkpt lat="45.58356811502707" lon="11.960002773349"><ele>20.0</ele><time>2026-03-24T12:54:45Z</time></trkpt><trkpt lat="45.58358752613904" lon="11.959838997313515"><ele>20.0</ele><time>2026-03-24T12:54:46Z</time></trkpt><trkpt lat="45.58362521781663" lon="11.95968600714987"><ele>20.0</ele><time>2026-03-24T12:54:47Z</time></trkpt><trkpt lat="45.58367979051244" lon="11.95954240346896"><ele>20.4</ele><time>2026-03-24T12:54:48Z</time></trkpt><trkpt lat="45.583750529683265" lon="11.959408728378014"><ele>20.8</ele><time>2026-03-24T12:54:49Z</time></trkpt><trkpt lat="45.58383700688721" lon="11.959314775233349"><ele>21.200000000000003</ele><time>2026-03-24T12:54:50Z</time></trkpt><trkpt lat="45.58392750900846" lon="11.959238404114675"><ele>21.6</ele><time>2026-03-24T12:54:51Z</time></trkpt><trkpt lat="45.58401527491381" lon="11.9591887657904"><ele>22.0</ele><time>2026-03-24T12:54:52Z</time></trkpt><trkpt lat="45.5841136839548" lon="11.959151895810628"><ele>22.0</ele><time>2026-03-24T12:54:53Z</time></trkpt><trkpt lat="45.584226676555794" lon="11.959123189285169"><ele>22.0</ele><time>2026-03-24T12:54:54Z</time></trkpt><trkpt lat="45.58434106925893" lon="11.959115954564652"><ele>22.0</ele><time>2026-03-24T12:54:55Z</time></trkpt><trkpt lat="45.58446032691546" lon="11.959127636277978"><ele>22.0</ele><time>2026-03-24T12:54:56Z</time></trkpt><trkpt lat="45.58457311866368" lon="11.959149213031525"><ele>22.200000000000003</ele><time>2026-03-24T12:54:57Z</time></trkpt><trkpt lat="45.584680185471974" lon="11.959160481996872"><ele>22.4</ele><time>2026-03-24T12:54:58Z</time></trkpt><trkpt lat="45.58478448082349" lon="11.959168745003113"><ele>22.6</ele><time>2026-03-24T12:54:59Z</time></trkpt><trkpt lat="45.58488723472286" lon="11.959180331225683"><ele>22.799999999999997</ele><time>2026-03-24T12:55:00Z</time></trkpt><trkpt lat="45.584990436724" lon="11.95919709803764"><ele>23.0</ele><time>2026-03-24T12:55:01Z</time></trkpt><trkpt lat="45.58509573998718" lon="11.95920902439399"><ele>22.833333333333336</ele><time>2026-03-24T12:55:02Z</time></trkpt><trkpt lat="45.585191559557686" lon="11.95921761868714"><ele>22.666666666666668</ele><time>2026-03-24T12:55:03Z</time></trkpt><trkpt lat="45.585270751857564" lon="11.959227446497476"><ele>22.5</ele><time>2026-03-24T12:55:04Z</time></trkpt><trkpt lat="45.58534244334089" lon="11.959239219061018"><ele>22.333333333333332</ele><time>2026-03-24T12:55:05Z</time></trkpt><trkpt lat="45.58541128710746" lon="11.959247243041247"><ele>22.166666666666664</ele><time>2026-03-24T12:55:06Z</time></trkpt><trkpt lat="45.58552281839466" lon="11.95927130126493"><ele>22.0</ele><time>2026-03-24T12:55:08Z</time></trkpt><trkpt lat="45.58561493411368" lon="11.959284796711431"><ele>22.0</ele><time>2026-03-24T12:55:10Z</time></trkpt><trkpt lat="45.585700169703095" lon="11.959295662279326"><ele>22.0</ele><time>2026-03-24T12:55:12Z</time></trkpt><trkpt lat="45.585769429463745" lon="11.95911340072186"><ele>22.0</ele><time>2026-03-24T12:55:14Z</time></trkpt><trkpt lat="45.58577263912403" lon="11.95901047954464"><ele>22.0</ele><time>2026-03-24T12:55:15Z</time></trkpt><trkpt lat="45.5857609019456" lon="11.958896451336718"><ele>22.0</ele><time>2026-03-24T12:55:16Z</time></trkpt><trkpt lat="45.58575495062433" lon="11.958780474001202"><ele>22.0</ele><time>2026-03-24T12:55:17Z</time></trkpt><trkpt lat="45.58575557416709" lon="11.958653232510311"><ele>22.0</ele><time>2026-03-24T12:55:18Z</time></trkpt><trkpt lat="45.585751765701104" lon="11.958520502573988"><ele>22.0</ele><time>2026-03-24T12:55:19Z</time></trkpt><trkpt lat="45.58574323687212" lon="11.958386375102409"><ele>22.0</ele><time>2026-03-24T12:55:20Z</time></trkpt><trkpt lat="45.585732023300004" lon="11.958274243427963"><ele>22.0</ele><time>2026-03-24T12:55:21Z</time></trkpt><trkpt lat="45.585723787624104" lon="11.958176040143682"><ele>22.0</ele><time>2026-03-24T12:55:22Z</time></trkpt><trkpt lat="45.58572014279066" lon="11.958078159954152"><ele>22.0</ele><time>2026-03-24T12:55:23Z</time></trkpt><trkpt lat="45.58571779769312" lon="11.957985350167132"><ele>22.0</ele><time>2026-03-24T12:55:24Z</time></trkpt><trkpt lat="45.5857176499891" lon="11.957880508896432"><ele>22.0</ele><time>2026-03-24T12:55:25Z</time></trkpt><trkpt lat="45.58572877106855" lon="11.957776595524956"><ele>22.0</ele><time>2026-03-24T12:55:26Z</time></trkpt><trkpt lat="45.58575523496751" lon="11.957666081357782"><ele>22.0</ele><time>2026-03-24T12:55:27Z</time></trkpt><trkpt lat="45.5857986154689" lon="11.957574238019697"><ele>22.0</ele><time>2026-03-24T12:55:28Z</time></trkpt><trkpt lat="45.58584633722754" lon="11.957484410108622"><ele>22.0</ele><time>2026-03-24T12:55:29Z</time></trkpt><trkpt lat="45.58588811542235" lon="11.957368930409697"><ele>22.0</ele><time>2026-03-24T12:55:30Z</time></trkpt><trkpt lat="45.585969872773106" lon="11.957279220379194"><ele>22.0</ele><time>2026-03-24T12:55:31Z</time></trkpt><trkpt lat="45.58604033454869" lon="11.957174180168316"><ele>22.0</ele><time>2026-03-24T12:55:32Z</time></trkpt><trkpt lat="45.5861790126996" lon="11.957155960673466"><ele>22.0</ele><time>2026-03-24T12:55:33Z</time></trkpt><trkpt lat="45.586303035225626" lon="11.957117526962707"><ele>22.0</ele><time>2026-03-24T12:55:34Z</time></trkpt><trkpt lat="45.58643949009775" lon="11.957080817850489"><ele>22.0</ele><time>2026-03-24T12:55:35Z</time></trkpt><trkpt lat="45.586616156001234" lon="11.957078089061909"><ele>22.0</ele><time>2026-03-24T12:55:36Z</time></trkpt><trkpt lat="45.586786195900814" lon="11.95704890173166"><ele>22.0</ele><time>2026-03-24T12:55:37Z</time></trkpt><trkpt lat="45.5869645532587" lon="11.957013374033723"><ele>22.0</ele><time>2026-03-24T12:55:38Z</time></trkpt><trkpt lat="45.58714655389062" lon="11.956966916949426"><ele>22.0</ele><time>2026-03-24T12:55:39Z</time></trkpt><trkpt lat="45.587337558345396" lon="11.95694007401774"><ele>22.333333333333332</ele><time>2026-03-24T12:55:40Z</time></trkpt><trkpt lat="45.58753034760345" lon="11.956901771470726"><ele>22.666666666666668</ele><time>2026-03-24T12:55:41Z</time></trkpt><trkpt lat="45.58771008264115" lon="11.9568681138388"><ele>23.0</ele><time>2026-03-24T12:55:42Z</time></trkpt><trkpt lat="45.58787516559586" lon="11.956832791428763"><ele>23.0</ele><time>2026-03-24T12:55:43Z</time></trkpt><trkpt lat="45.58804015392089" lon="11.956791986802202"><ele>23.0</ele><time>2026-03-24T12:55:44Z</time></trkpt><trkpt lat="45.58820648571717" lon="11.956759823732881"><ele>23.0</ele><time>2026-03-24T12:55:45Z</time></trkpt><trkpt lat="45.58837773851035" lon="11.956698541300907"><ele>23.333333333333336</ele><time>2026-03-24T12:55:46Z</time></trkpt><trkpt lat="45.5885703576838" lon="11.956706905016093"><ele>23.666666666666668</ele><time>2026-03-24T12:55:47Z</time></trkpt><trkpt lat="45.58877982205337" lon="11.956690801796313"><ele>24.0</ele><time>2026-03-24T12:55:48Z</time></trkpt><trkpt lat="45.5889970238881" lon="11.956678234231754"><ele>23.0</ele><time>2026-03-24T12:55:49Z</time></trkpt><trkpt lat="45.589222527012666" lon="11.95666199623609"><ele>22.0</ele><time>2026-03-24T12:55:50Z</time></trkpt><trkpt lat="45.589456700872674" lon="11.956638211096836"><ele>21.5</ele><time>2026-03-24T12:55:51Z</time></trkpt><trkpt lat="45.58969368087448" lon="11.956600541561512"><ele>21.0</ele><time>2026-03-24T12:55:52Z</time></trkpt><trkpt lat="45.589915027370466" lon="11.956582544432509"><ele>21.0</ele><time>2026-03-24T12:55:53Z</time></trkpt><trkpt lat="45.59011728364191" lon="11.956559336317254"><ele>21.0</ele><time>2026-03-24T12:55:54Z</time></trkpt><trkpt lat="45.59031842010552" lon="11.956547109401797"><ele>21.0</ele><time>2026-03-24T12:55:55Z</time></trkpt><trkpt lat="45.59050894005585" lon="11.956534607164976"><ele>22.333333333333336</ele><time>2026-03-24T12:55:56Z</time></trkpt><trkpt lat="45.59069726683277" lon="11.956525706267037"><ele>23.666666666666668</ele><time>2026-03-24T12:55:57Z</time></trkpt><trkpt lat="45.59088075314952" lon="11.956511091086245"><ele>25.0</ele><time>2026-03-24T12:55:58Z</time></trkpt><trkpt lat="45.59106172422807" lon="11.956491136353929"><ele>24.333333333333336</ele><time>2026-03-24T12:55:59Z</time></trkpt><trkpt lat="45.591246811509976" lon="11.956469818530627"><ele>23.666666666666668</ele><time>2026-03-24T12:56:00Z</time></trkpt><trkpt lat="45.59143059206895" lon="11.956444651847871"><ele>23.0</ele><time>2026-03-24T12:56:01Z</time></trkpt><trkpt lat="45.59161891597378" lon="11.956450877121677"><ele>23.0</ele><time>2026-03-24T12:56:02Z</time></trkpt><trkpt lat="45.591797817304034" lon="11.956426305092663"><ele>23.0</ele><time>2026-03-24T12:56:03Z</time></trkpt><trkpt lat="45.59197659373953" lon="11.956415858680103"><ele>23.0</ele><time>2026-03-24T12:56:04Z</time></trkpt><trkpt lat="45.59215259039211" lon="11.956415131025137"><ele>22.333333333333336</ele><time>2026-03-24T12:56:05Z</time></trkpt><trkpt lat="45.59232729138982" lon="11.956396383440202"><ele>21.666666666666668</ele><time>2026-03-24T12:56:06Z</time></trkpt><trkpt lat="45.59250474683933" lon="11.956388880522644"><ele>21.0</ele><time>2026-03-24T12:56:07Z</time></trkpt><trkpt lat="45.592678145351634" lon="11.956375808733716"><ele>21.333333333333332</ele><time>2026-03-24T12:56:08Z</time></trkpt><trkpt lat="45.592859432628934" lon="11.956370259005741"><ele>21.666666666666664</ele><time>2026-03-24T12:56:09Z</time></trkpt><trkpt lat="45.59304869479577" lon="11.95636911170718"><ele>22.0</ele><time>2026-03-24T12:56:10Z</time></trkpt><trkpt lat="45.5932179665119" lon="11.956380151173429"><ele>22.0</ele><time>2026-03-24T12:56:11Z</time></trkpt><trkpt lat="45.59338979610178" lon="11.956388207569377"><ele>22.0</ele><time>2026-03-24T12:56:12Z</time></trkpt><trkpt lat="45.59356009131806" lon="11.956390232041231"><ele>22.0</ele><time>2026-03-24T12:56:13Z</time></trkpt><trkpt lat="45.593726959083895" lon="11.956391526110576"><ele>22.0</ele><time>2026-03-24T12:56:14Z</time></trkpt><trkpt lat="45.59389757208466" lon="11.956400804157079"><ele>22.0</ele><time>2026-03-24T12:56:15Z</time></trkpt><trkpt lat="45.594065628996866" lon="11.956410526526666"><ele>22.0</ele><time>2026-03-24T12:56:16Z</time></trkpt><trkpt lat="45.59423142695738" lon="11.956419940222588"><ele>22.0</ele><time>2026-03-24T12:56:17Z</time></trkpt><trkpt lat="45.59440178903564" lon="11.956435646115217"><ele>22.0</ele><time>2026-03-24T12:56:18Z</time></trkpt><trkpt lat="45.594575153876164" lon="11.956453947736717"><ele>22.0</ele><time>2026-03-24T12:56:19Z</time></trkpt><trkpt lat="45.59474923995234" lon="11.956471854213445"><ele>22.333333333333332</ele><time>2026-03-24T12:56:20Z</time></trkpt><trkpt lat="45.59491985729326" lon="11.956487975599169"><ele>22.666666666666668</ele><time>2026-03-24T12:56:21Z</time></trkpt><trkpt lat="45.59508672510107" lon="11.956506720106296"><ele>23.0</ele><time>2026-03-24T12:56:22Z</time></trkpt><trkpt lat="45.59525381224391" lon="11.956530137323403"><ele>22.333333333333336</ele><time>2026-03-24T12:56:23Z</time></trkpt><trkpt lat="45.595419329137634" lon="11.956553724759749"><ele>21.666666666666668</ele><time>2026-03-24T12:56:24Z</time></trkpt><trkpt lat="45.59559479561814" lon="11.956571948447664"><ele>21.0</ele><time>2026-03-24T12:56:25Z</time></trkpt><trkpt lat="45.59577051340884" lon="11.956589047652338"><ele>21.0</ele><time>2026-03-24T12:56:26Z</time></trkpt><trkpt lat="45.595948546056846" lon="11.956611415833187"><ele>21.0</ele><time>2026-03-24T12:56:27Z</time></trkpt><trkpt lat="45.59614023307689" lon="11.956635956188409"><ele>21.0</ele><time>2026-03-24T12:56:28Z</time></trkpt><trkpt lat="45.59635506977027" lon="11.956659962866597"><ele>21.5</ele><time>2026-03-24T12:56:29Z</time></trkpt><trkpt lat="45.59658075506735" lon="11.956680744230157"><ele>22.0</ele><time>2026-03-24T12:56:30Z</time></trkpt><trkpt lat="45.59682640014402" lon="11.956706362131403"><ele>22.0</ele><time>2026-03-24T12:56:31Z</time></trkpt><trkpt lat="45.59707513591408" lon="11.956748010213074"><ele>22.0</ele><time>2026-03-24T12:56:32Z</time></trkpt><trkpt lat="45.59733417990448" lon="11.956784969145122"><ele>22.0</ele><time>2026-03-24T12:56:33Z</time></trkpt><trkpt lat="45.597587071354226" lon="11.956831080716132"><ele>22.0</ele><time>2026-03-24T12:56:34Z</time></trkpt><trkpt lat="45.59782224990557" lon="11.956850877429142"><ele>21.666666666666664</ele><time>2026-03-24T12:56:35Z</time></trkpt><trkpt lat="45.59804177492044" lon="11.956871611812485"><ele>21.333333333333332</ele><time>2026-03-24T12:56:36Z</time></trkpt><trkpt lat="45.5982560355897" lon="11.956901570935548"><ele>21.0</ele><time>2026-03-24T12:56:37Z</time></trkpt><trkpt lat="45.5984553300845" lon="11.956923269400628"><ele>21.0</ele><time>2026-03-24T12:56:38Z</time></trkpt><trkpt lat="45.59864996005644" lon="11.956948993169467"><ele>21.0</ele><time>2026-03-24T12:56:39Z</time></trkpt><trkpt lat="45.598841196766266" lon="11.956980672992993"><ele>21.0</ele><time>2026-03-24T12:56:40Z</time></trkpt><trkpt lat="45.59902792174951" lon="11.957004032850943"><ele>21.333333333333332</ele><time>2026-03-24T12:56:41Z</time></trkpt><trkpt lat="45.59920387917254" lon="11.957021676921004"><ele>21.666666666666664</ele><time>2026-03-24T12:56:42Z</time></trkpt><trkpt lat="45.59937162749024" lon="11.957037247050533"><ele>22.0</ele><time>2026-03-24T12:56:43Z</time></trkpt><trkpt lat="45.59954073007076" lon="11.957056917296764"><ele>22.0</ele><time>2026-03-24T12:56:44Z</time></trkpt><trkpt lat="45.599717408473104" lon="11.957081042833863"><ele>22.0</ele><time>2026-03-24T12:56:45Z</time></trkpt><trkpt lat="45.59990834526642" lon="11.957105456418638"><ele>22.0</ele><time>2026-03-24T12:56:46Z</time></trkpt><trkpt lat="45.600110871546974" lon="11.957125516003837"><ele>22.0</ele><time>2026-03-24T12:56:47Z</time></trkpt><trkpt lat="45.600321459668535" lon="11.957151953724981"><ele>22.0</ele><time>2026-03-24T12:56:48Z</time></trkpt><trkpt lat="45.60056348927953" lon="11.95718564465845"><ele>23.0</ele><time>2026-03-24T12:56:49Z</time></trkpt><trkpt lat="45.60080359144789" lon="11.957212680113589"><ele>24.0</ele><time>2026-03-24T12:56:50Z</time></trkpt><trkpt lat="45.601063107575904" lon="11.957219667115838"><ele>23.5</ele><time>2026-03-24T12:56:51Z</time></trkpt><trkpt lat="45.601333572386686" lon="11.957248876869008"><ele>23.0</ele><time>2026-03-24T12:56:52Z</time></trkpt><trkpt lat="45.601612198204506" lon="11.957282555084548"><ele>23.0</ele><time>2026-03-24T12:56:53Z</time></trkpt><trkpt lat="45.60189174926317" lon="11.95732668935841"><ele>23.0</ele><time>2026-03-24T12:56:54Z</time></trkpt><trkpt lat="45.60218848544218" lon="11.957393775309217"><ele>23.5</ele><time>2026-03-24T12:56:55Z</time></trkpt><trkpt lat="45.6024877319765" lon="11.95743289050136"><ele>24.0</ele><time>2026-03-24T12:56:56Z</time></trkpt><trkpt lat="45.60278181323801" lon="11.957480992279127"><ele>24.0</ele><time>2026-03-24T12:56:57Z</time></trkpt><trkpt lat="45.603092428626816" lon="11.957529828909111"><ele>24.0</ele><time>2026-03-24T12:56:58Z</time></trkpt><trkpt lat="45.60339309895313" lon="11.957590967513884"><ele>24.0</ele><time>2026-03-24T12:56:59Z</time></trkpt><trkpt lat="45.603671094633626" lon="11.957656273536754"><ele>24.0</ele><time>2026-03-24T12:57:00Z</time></trkpt><trkpt lat="45.60394593854049" lon="11.957737850057985"><ele>24.0</ele><time>2026-03-24T12:57:01Z</time></trkpt><trkpt lat="45.604213998371016" lon="11.957822970842528"><ele>24.0</ele><time>2026-03-24T12:57:02Z</time></trkpt><trkpt lat="45.60448340081689" lon="11.957928570577444"><ele>24.0</ele><time>2026-03-24T12:57:03Z</time></trkpt><trkpt lat="45.60476132989018" lon="11.958027823602215"><ele>24.0</ele><time>2026-03-24T12:57:04Z</time></trkpt><trkpt lat="45.60504282576812" lon="11.958138607037476"><ele>24.0</ele><time>2026-03-24T12:57:05Z</time></trkpt><trkpt lat="45.605318341957776" lon="11.958235227488801"><ele>24.0</ele><time>2026-03-24T12:57:06Z</time></trkpt><trkpt lat="45.60560724948385" lon="11.958343126009229"><ele>24.0</ele><time>2026-03-24T12:57:07Z</time></trkpt><trkpt lat="45.6058966191197" lon="11.958439879423377"><ele>24.0</ele><time>2026-03-24T12:57:08Z</time></trkpt><trkpt lat="45.606185514111566" lon="11.958526724990293"><ele>24.0</ele><time>2026-03-24T12:57:09Z</time></trkpt><trkpt lat="45.606473236241534" lon="11.958602515137109"><ele>24.0</ele><time>2026-03-24T12:57:10Z</time></trkpt><trkpt lat="45.606752153996354" lon="11.95866487225708"><ele>23.5</ele><time>2026-03-24T12:57:11Z</time></trkpt><trkpt lat="45.607025047297476" lon="11.958706872209977"><ele>23.0</ele><time>2026-03-24T12:57:12Z</time></trkpt><trkpt lat="45.60728371119375" lon="11.958734280739787"><ele>23.0</ele><time>2026-03-24T12:57:13Z</time></trkpt><trkpt lat="45.607548660153064" lon="11.958745391285817"><ele>23.0</ele><time>2026-03-24T12:57:14Z</time></trkpt><trkpt lat="45.60781000573358" lon="11.958731121647242"><ele>23.0</ele><time>2026-03-24T12:57:15Z</time></trkpt><trkpt lat="45.6080759668692" lon="11.958706994230159"><ele>23.0</ele><time>2026-03-24T12:57:16Z</time></trkpt><trkpt lat="45.60833732303402" lon="11.958659608849347"><ele>23.0</ele><time>2026-03-24T12:57:17Z</time></trkpt><trkpt lat="45.60859855622876" lon="11.958593693148858"><ele>23.0</ele><time>2026-03-24T12:57:18Z</time></trkpt><trkpt lat="45.608864272230484" lon="11.958518965572868"><ele>23.0</ele><time>2026-03-24T12:57:19Z</time></trkpt><trkpt lat="45.60911891972719" lon="11.958400040971116"><ele>23.0</ele><time>2026-03-24T12:57:20Z</time></trkpt><trkpt lat="45.609376325661025" lon="11.958275067649389"><ele>23.0</ele><time>2026-03-24T12:57:21Z</time></trkpt><trkpt lat="45.609629523283566" lon="11.958136266839755"><ele>23.0</ele><time>2026-03-24T12:57:22Z</time></trkpt><trkpt lat="45.60987723950323" lon="11.957983224591782"><ele>23.0</ele><time>2026-03-24T12:57:23Z</time></trkpt><trkpt lat="45.610115915753724" lon="11.957806395760695"><ele>23.0</ele><time>2026-03-24T12:57:24Z</time></trkpt><trkpt lat="45.6103498922863" lon="11.957618158923305"><ele>23.0</ele><time>2026-03-24T12:57:25Z</time></trkpt><trkpt lat="45.61058047954014" lon="11.957417696466264"><ele>23.0</ele><time>2026-03-24T12:57:26Z</time></trkpt><trkpt lat="45.61080414676355" lon="11.957203090672445"><ele>23.0</ele><time>2026-03-24T12:57:27Z</time></trkpt><trkpt lat="45.61101947195408" lon="11.956973789854798"><ele>23.0</ele><time>2026-03-24T12:57:28Z</time></trkpt><trkpt lat="45.611212334562616" lon="11.956711331341003"><ele>24.0</ele><time>2026-03-24T12:57:29Z</time></trkpt><trkpt lat="45.61140751551448" lon="11.956445555750113"><ele>25.0</ele><time>2026-03-24T12:57:30Z</time></trkpt><trkpt lat="45.61159478990368" lon="11.956164970842286"><ele>25.0</ele><time>2026-03-24T12:57:31Z</time></trkpt><trkpt lat="45.61176991055364" lon="11.955871187289821"><ele>25.0</ele><time>2026-03-24T12:57:32Z</time></trkpt><trkpt lat="45.61193859907113" lon="11.955560673186952"><ele>25.0</ele><time>2026-03-24T12:57:33Z</time></trkpt><trkpt lat="45.612096666288664" lon="11.955235559326317"><ele>25.0</ele><time>2026-03-24T12:57:34Z</time></trkpt><trkpt lat="45.61224350514896" lon="11.954899927150317"><ele>25.5</ele><time>2026-03-24T12:57:35Z</time></trkpt><trkpt lat="45.61237933916795" lon="11.9545503316286"><ele>26.0</ele><time>2026-03-24T12:57:36Z</time></trkpt><trkpt lat="45.61250225730467" lon="11.954190157460276"><ele>26.5</ele><time>2026-03-24T12:57:37Z</time></trkpt><trkpt lat="45.61261811844427" lon="11.953824554311467"><ele>27.0</ele><time>2026-03-24T12:57:38Z</time></trkpt><trkpt lat="45.61272848222508" lon="11.953455868973004"><ele>26.0</ele><time>2026-03-24T12:57:39Z</time></trkpt><trkpt lat="45.612835099377456" lon="11.953086136089798"><ele>25.0</ele><time>2026-03-24T12:57:40Z</time></trkpt><trkpt lat="45.61294036105069" lon="11.952710320417493"><ele>25.5</ele><time>2026-03-24T12:57:41Z</time></trkpt><trkpt lat="45.61304156836987" lon="11.952331156418374"><ele>26.0</ele><time>2026-03-24T12:57:42Z</time></trkpt><trkpt lat="45.61313677289001" lon="11.951950051792913"><ele>26.0</ele><time>2026-03-24T12:57:43Z</time></trkpt><trkpt lat="45.61323031386258" lon="11.951572608392647"><ele>26.0</ele><time>2026-03-24T12:57:44Z</time></trkpt><trkpt lat="45.613327996177794" lon="11.95119667051481"><ele>25.5</ele><time>2026-03-24T12:57:45Z</time></trkpt><trkpt lat="45.61342726226948" lon="11.950825657888544"><ele>25.0</ele><time>2026-03-24T12:57:46Z</time></trkpt><trkpt lat="45.61352686894689" lon="11.950463108288561"><ele>25.0</ele><time>2026-03-24T12:57:47Z</time></trkpt><trkpt lat="45.61361339075234" lon="11.95012203315257"><ele>25.0</ele><time>2026-03-24T12:57:48Z</time></trkpt><trkpt lat="45.613692072647474" lon="11.949797581782066"><ele>25.333333333333336</ele><time>2026-03-24T12:57:49Z</time></trkpt><trkpt lat="45.613770986570415" lon="11.949493765577285"><ele>25.666666666666664</ele><time>2026-03-24T12:57:50Z</time></trkpt><trkpt lat="45.61384763424741" lon="11.949196125943661"><ele>26.0</ele><time>2026-03-24T12:57:51Z</time></trkpt><trkpt lat="45.61392756062727" lon="11.94890926601197"><ele>26.0</ele><time>2026-03-24T12:57:52Z</time></trkpt><trkpt lat="45.61400815287853" lon="11.948626550778341"><ele>26.0</ele><time>2026-03-24T12:57:53Z</time></trkpt><trkpt lat="45.61408738581317" lon="11.948350388524156"><ele>26.0</ele><time>2026-03-24T12:57:54Z</time></trkpt><trkpt lat="45.614167125954076" lon="11.948080073611667"><ele>26.0</ele><time>2026-03-24T12:57:55Z</time></trkpt><trkpt lat="45.614253728893175" lon="11.94780736314343"><ele>26.0</ele><time>2026-03-24T12:57:56Z</time></trkpt><trkpt lat="45.61434624898544" lon="11.947541672928715"><ele>26.0</ele><time>2026-03-24T12:57:57Z</time></trkpt><trkpt lat="45.61444389201269" lon="11.947278790746356"><ele>25.666666666666664</ele><time>2026-03-24T12:57:58Z</time></trkpt><trkpt lat="45.61454492055735" lon="11.947025895234924"><ele>25.333333333333336</ele><time>2026-03-24T12:57:59Z</time></trkpt><trkpt lat="45.6146482281053" lon="11.946784103905108"><ele>25.0</ele><time>2026-03-24T12:58:00Z</time></trkpt><trkpt lat="45.61475189100496" lon="11.946562786151672"><ele>25.0</ele><time>2026-03-24T12:58:01Z</time></trkpt><trkpt lat="45.61485543094112" lon="11.946345302782213"><ele>25.0</ele><time>2026-03-24T12:58:02Z</time></trkpt><trkpt lat="45.614960208281225" lon="11.946132351440742"><ele>25.0</ele><time>2026-03-24T12:58:03Z</time></trkpt><trkpt lat="45.61507257778142" lon="11.94591811175211"><ele>25.0</ele><time>2026-03-24T12:58:04Z</time></trkpt><trkpt lat="45.61519032728691" lon="11.945701421791702"><ele>25.0</ele><time>2026-03-24T12:58:05Z</time></trkpt><trkpt lat="45.615312914089436" lon="11.945488786021182"><ele>25.0</ele><time>2026-03-24T12:58:06Z</time></trkpt><trkpt lat="45.61544093679315" lon="11.945281281483217"><ele>25.0</ele><time>2026-03-24T12:58:07Z</time></trkpt><trkpt lat="45.61557854373666" lon="11.945083697635663"><ele>25.0</ele><time>2026-03-24T12:58:08Z</time></trkpt><trkpt lat="45.615726035874985" lon="11.944890298840335"><ele>25.0</ele><time>2026-03-24T12:58:09Z</time></trkpt><trkpt lat="45.61587759352989" lon="11.944683779843709"><ele>24.5</ele><time>2026-03-24T12:58:10Z</time></trkpt><trkpt lat="45.616044827644515" lon="11.94446963970402"><ele>24.0</ele><time>2026-03-24T12:58:11Z</time></trkpt><trkpt lat="45.61622757604436" lon="11.944263950856813"><ele>24.333333333333336</ele><time>2026-03-24T12:58:12Z</time></trkpt><trkpt lat="45.616413922675854" lon="11.944080333504678"><ele>24.666666666666668</ele><time>2026-03-24T12:58:13Z</time></trkpt><trkpt lat="45.616598756454316" lon="11.94391835994451"><ele>25.0</ele><time>2026-03-24T12:58:14Z</time></trkpt><trkpt lat="45.616773780546794" lon="11.943764879298891"><ele>25.0</ele><time>2026-03-24T12:58:15Z</time></trkpt><trkpt lat="45.61694262717749" lon="11.943624765727494"><ele>25.0</ele><time>2026-03-24T12:58:16Z</time></trkpt><trkpt lat="45.617105233635584" lon="11.943492899491691"><ele>25.0</ele><time>2026-03-24T12:58:17Z</time></trkpt><trkpt lat="45.61726535177074" lon="11.94337081826838"><ele>25.333333333333336</ele><time>2026-03-24T12:58:18Z</time></trkpt><trkpt lat="45.61742606622722" lon="11.943257625775658"><ele>25.666666666666664</ele><time>2026-03-24T12:58:19Z</time></trkpt><trkpt lat="45.61758032647244" lon="11.943139342726555"><ele>26.0</ele><time>2026-03-24T12:58:20Z</time></trkpt><trkpt lat="45.61775004842006" lon="11.943022248440046"><ele>26.0</ele><time>2026-03-24T12:58:21Z</time></trkpt><trkpt lat="45.61791281171732" lon="11.942916724979115"><ele>26.0</ele><time>2026-03-24T12:58:22Z</time></trkpt><trkpt lat="45.6180617448066" lon="11.9428234784066"><ele>26.0</ele><time>2026-03-24T12:58:23Z</time></trkpt><trkpt lat="45.618196931807525" lon="11.942723586811825"><ele>26.0</ele><time>2026-03-24T12:58:24Z</time></trkpt><trkpt lat="45.61833254819046" lon="11.942637746829043"><ele>26.0</ele><time>2026-03-24T12:58:25Z</time></trkpt><trkpt lat="45.618471242355156" lon="11.942544282433042"><ele>26.0</ele><time>2026-03-24T12:58:26Z</time></trkpt><trkpt lat="45.61862306606139" lon="11.942431872376504"><ele>26.333333333333332</ele><time>2026-03-24T12:58:27Z</time></trkpt><trkpt lat="45.618789397801876" lon="11.942319608192909"><ele>26.666666666666664</ele><time>2026-03-24T12:58:28Z</time></trkpt><trkpt lat="45.618972488113926" lon="11.942209058229432"><ele>27.0</ele><time>2026-03-24T12:58:29Z</time></trkpt><trkpt lat="45.61916727755306" lon="11.942096441780832"><ele>27.0</ele><time>2026-03-24T12:58:30Z</time></trkpt><trkpt lat="45.61937410362362" lon="11.941975338616123"><ele>27.0</ele><time>2026-03-24T12:58:31Z</time></trkpt><trkpt lat="45.619593615632176" lon="11.941848796122326"><ele>26.5</ele><time>2026-03-24T12:58:32Z</time></trkpt><trkpt lat="45.619817827685054" lon="11.941703303080315"><ele>26.0</ele><time>2026-03-24T12:58:33Z</time></trkpt><trkpt lat="45.62005256137228" lon="11.941549986714953"><ele>26.0</ele><time>2026-03-24T12:58:33.999Z</time></trkpt><trkpt lat="45.62029122945096" lon="11.941390370219581"><ele>26.0</ele><time>2026-03-24T12:58:34.999Z</time></trkpt><trkpt lat="45.620534694225455" lon="11.941232025563423"><ele>26.0</ele><time>2026-03-24T12:58:35.999Z</time></trkpt><trkpt lat="45.62078207044113" lon="11.941077411352243"><ele>26.0</ele><time>2026-03-24T12:58:36.999Z</time></trkpt><trkpt lat="45.621034438651726" lon="11.940919184822517"><ele>26.0</ele><time>2026-03-24T12:58:37.999Z</time></trkpt><trkpt lat="45.62128826749598" lon="11.940755254135716"><ele>26.0</ele><time>2026-03-24T12:58:38.999Z</time></trkpt><trkpt lat="45.62154228359804" lon="11.940591124321898"><ele>26.0</ele><time>2026-03-24T12:58:39.999Z</time></trkpt><trkpt lat="45.62179604502163" lon="11.940425077189166"><ele>26.0</ele><time>2026-03-24T12:58:40.999Z</time></trkpt><trkpt lat="45.62203197242394" lon="11.940268651319387"><ele>27.0</ele><time>2026-03-24T12:58:41.999Z</time></trkpt><trkpt lat="45.62225594861887" lon="11.940124515418649"><ele>28.0</ele><time>2026-03-24T12:58:42.999Z</time></trkpt><trkpt lat="45.622469679908136" lon="11.939990967051179"><ele>28.333333333333336</ele><time>2026-03-24T12:58:43.999Z</time></trkpt><trkpt lat="45.62267611459684" lon="11.939864870709679"><ele>28.666666666666664</ele><time>2026-03-24T12:58:44.999Z</time></trkpt><trkpt lat="45.62287526369039" lon="11.939730903378958"><ele>29.0</ele><time>2026-03-24T12:58:45.999Z</time></trkpt><trkpt lat="45.62306881064617" lon="11.93960945655979"><ele>28.333333333333332</ele><time>2026-03-24T12:58:46.999Z</time></trkpt><trkpt lat="45.62325766532721" lon="11.939483147015187"><ele>27.666666666666664</ele><time>2026-03-24T12:58:47.999Z</time></trkpt><trkpt lat="45.62344510692277" lon="11.939356560792204"><ele>27.0</ele><time>2026-03-24T12:58:48.999Z</time></trkpt><trkpt lat="45.62362448886697" lon="11.939226465480514"><ele>27.333333333333336</ele><time>2026-03-24T12:58:49.999Z</time></trkpt><trkpt lat="45.62381532736214" lon="11.939124198287496"><ele>27.666666666666668</ele><time>2026-03-24T12:58:51Z</time></trkpt><trkpt lat="45.624018896279054" lon="11.938993617310004"><ele>28.0</ele><time>2026-03-24T12:58:52Z</time></trkpt><trkpt lat="45.624229037889485" lon="11.938858820321077"><ele>28.0</ele><time>2026-03-24T12:58:53Z</time></trkpt><trkpt lat="45.62443504979335" lon="11.938726672167972"><ele>28.0</ele><time>2026-03-24T12:58:54Z</time></trkpt><trkpt lat="45.62462442582504" lon="11.938605195379159"><ele>28.0</ele><time>2026-03-24T12:58:55Z</time></trkpt><trkpt lat="45.62480661524788" lon="11.938488328390646"><ele>28.0</ele><time>2026-03-24T12:58:56Z</time></trkpt><trkpt lat="45.62497539791468" lon="11.938356825496301"><ele>28.0</ele><time>2026-03-24T12:58:57Z</time></trkpt><trkpt lat="45.62515040116212" lon="11.938253531803976"><ele>28.0</ele><time>2026-03-24T12:58:58Z</time></trkpt><trkpt lat="45.62532811905977" lon="11.938145012267361"><ele>28.333333333333336</ele><time>2026-03-24T12:58:59Z</time></trkpt><trkpt lat="45.625503667665264" lon="11.938031017444931"><ele>28.666666666666664</ele><time>2026-03-24T12:59:00Z</time></trkpt><trkpt lat="45.62567387536109" lon="11.937920619267521"><ele>29.0</ele><time>2026-03-24T12:59:01Z</time></trkpt><trkpt lat="45.62584008691122" lon="11.937817304576098"><ele>29.0</ele><time>2026-03-24T12:59:02Z</time></trkpt><trkpt lat="45.62601023265377" lon="11.937711117371133"><ele>29.0</ele><time>2026-03-24T12:59:03Z</time></trkpt><trkpt lat="45.6261752897672" lon="11.937601651985153"><ele>29.0</ele><time>2026-03-24T12:59:04Z</time></trkpt><trkpt lat="45.62633612681415" lon="11.93750441148744"><ele>28.333333333333332</ele><time>2026-03-24T12:59:05Z</time></trkpt><trkpt lat="45.62650119768858" lon="11.937406921651679"><ele>27.666666666666664</ele><time>2026-03-24T12:59:06Z</time></trkpt><trkpt lat="45.6266579459008" lon="11.937303210457754"><ele>27.0</ele><time>2026-03-24T12:59:07Z</time></trkpt><trkpt lat="45.626814892570316" lon="11.93720783197441"><ele>27.0</ele><time>2026-03-24T12:59:08Z</time></trkpt><trkpt lat="45.626973999402" lon="11.937122793693128"><ele>27.0</ele><time>2026-03-24T12:59:09Z</time></trkpt><trkpt lat="45.6271306754452" lon="11.93703723442992"><ele>27.0</ele><time>2026-03-24T12:59:10Z</time></trkpt><trkpt lat="45.627290231857124" lon="11.93695696798823"><ele>27.0</ele><time>2026-03-24T12:59:11Z</time></trkpt><trkpt lat="45.627439447908706" lon="11.936875895000924"><ele>27.0</ele><time>2026-03-24T12:59:12Z</time></trkpt><trkpt lat="45.62759590525113" lon="11.936802475345408"><ele>27.0</ele><time>2026-03-24T12:59:13Z</time></trkpt><trkpt lat="45.62776008922619" lon="11.936731413837133"><ele>28.0</ele><time>2026-03-24T12:59:14Z</time></trkpt><trkpt lat="45.62792342289183" lon="11.936661144920095"><ele>29.0</ele><time>2026-03-24T12:59:15Z</time></trkpt><trkpt lat="45.62808854515627" lon="11.936594306378634"><ele>30.0</ele><time>2026-03-24T12:59:16Z</time></trkpt><trkpt lat="45.62825770008397" lon="11.93653764029419"><ele>30.0</ele><time>2026-03-24T12:59:17Z</time></trkpt><trkpt lat="45.6284302765796" lon="11.936473586738078"><ele>30.0</ele><time>2026-03-24T12:59:18Z</time></trkpt><trkpt lat="45.62860891090113" lon="11.93640637173438"><ele>30.0</ele><time>2026-03-24T12:59:19Z</time></trkpt><trkpt lat="45.62880338649811" lon="11.936332477720525"><ele>29.666666666666664</ele><time>2026-03-24T12:59:20Z</time></trkpt><trkpt lat="45.6290134151646" lon="11.93626421661951"><ele>29.333333333333332</ele><time>2026-03-24T12:59:21Z</time></trkpt><trkpt lat="45.62924063581779" lon="11.936199892412526"><ele>29.0</ele><time>2026-03-24T12:59:22Z</time></trkpt><trkpt lat="45.62947797435739" lon="11.936128427589047"><ele>29.0</ele><time>2026-03-24T12:59:23Z</time></trkpt><trkpt lat="45.6297262168871" lon="11.936047946783836"><ele>29.0</ele><time>2026-03-24T12:59:24Z</time></trkpt><trkpt lat="45.629982343296426" lon="11.935966714149998"><ele>29.0</ele><time>2026-03-24T12:59:25Z</time></trkpt><trkpt lat="45.630249767724905" lon="11.935908676458013"><ele>29.0</ele><time>2026-03-24T12:59:26Z</time></trkpt><trkpt lat="45.63051138935844" lon="11.93581216414425"><ele>29.0</ele><time>2026-03-24T12:59:27Z</time></trkpt><trkpt lat="45.630776548348" lon="11.935744898394809"><ele>29.0</ele><time>2026-03-24T12:59:28Z</time></trkpt><trkpt lat="45.6310207474462" lon="11.935687903851404"><ele>29.0</ele><time>2026-03-24T12:59:29Z</time></trkpt><trkpt lat="45.6312487469526" lon="11.935626233955709"><ele>29.0</ele><time>2026-03-24T12:59:30Z</time></trkpt><trkpt lat="45.63147168856726" lon="11.935559837354981"><ele>29.0</ele><time>2026-03-24T12:59:31Z</time></trkpt><trkpt lat="45.631670063062714" lon="11.935481926468094"><ele>29.0</ele><time>2026-03-24T12:59:32Z</time></trkpt><trkpt lat="45.63186270196732" lon="11.935414031129227"><ele>29.0</ele><time>2026-03-24T12:59:33Z</time></trkpt><trkpt lat="45.63205911149987" lon="11.935380401319662"><ele>29.0</ele><time>2026-03-24T12:59:34Z</time></trkpt><trkpt lat="45.63225306419407" lon="11.935301321965655"><ele>29.0</ele><time>2026-03-24T12:59:35Z</time></trkpt><trkpt lat="45.63244657567252" lon="11.93524383010766"><ele>29.0</ele><time>2026-03-24T12:59:36Z</time></trkpt><trkpt lat="45.632634504983535" lon="11.935187544177367"><ele>29.333333333333332</ele><time>2026-03-24T12:59:37Z</time></trkpt><trkpt lat="45.632823101799275" lon="11.935125120075257"><ele>29.666666666666664</ele><time>2026-03-24T12:59:38Z</time></trkpt><trkpt lat="45.633011299489894" lon="11.935053511928855"><ele>30.0</ele><time>2026-03-24T12:59:39Z</time></trkpt><trkpt lat="45.633201335727904" lon="11.934975090572634"><ele>30.0</ele><time>2026-03-24T12:59:40Z</time></trkpt><trkpt lat="45.63339593353661" lon="11.934895640480017"><ele>30.0</ele><time>2026-03-24T12:59:41Z</time></trkpt><trkpt lat="45.63359212697027" lon="11.934813690446505"><ele>30.0</ele><time>2026-03-24T12:59:42Z</time></trkpt><trkpt lat="45.63378775930382" lon="11.934716275007938"><ele>30.0</ele><time>2026-03-24T12:59:43Z</time></trkpt><trkpt lat="45.633985253123754" lon="11.934605814054459"><ele>30.0</ele><time>2026-03-24T12:59:44Z</time></trkpt><trkpt lat="45.634181467751354" lon="11.93448646762476"><ele>30.0</ele><time>2026-03-24T12:59:45Z</time></trkpt><trkpt lat="45.634367376572335" lon="11.934360193833532"><ele>30.0</ele><time>2026-03-24T12:59:46Z</time></trkpt><trkpt lat="45.63455138350969" lon="11.93423403318147"><ele>30.0</ele><time>2026-03-24T12:59:47Z</time></trkpt><trkpt lat="45.634736861121816" lon="11.934123935450007"><ele>30.0</ele><time>2026-03-24T12:59:48Z</time></trkpt><trkpt lat="45.63490854369975" lon="11.93399519974956"><ele>30.333333333333336</ele><time>2026-03-24T12:59:49Z</time></trkpt><trkpt lat="45.635059280769475" lon="11.9338501500064"><ele>30.666666666666668</ele><time>2026-03-24T12:59:50Z</time></trkpt><trkpt lat="45.635209012290986" lon="11.933733508184067"><ele>31.0</ele><time>2026-03-24T12:59:51Z</time></trkpt><trkpt lat="45.63535151794112" lon="11.933615180984118"><ele>31.0</ele><time>2026-03-24T12:59:52Z</time></trkpt><trkpt lat="45.63548619819929" lon="11.933496337366755"><ele>31.0</ele><time>2026-03-24T12:59:53Z</time></trkpt><trkpt lat="45.635622991871905" lon="11.9333675130782"><ele>31.0</ele><time>2026-03-24T12:59:54Z</time></trkpt><trkpt lat="45.63576109149138" lon="11.933235781713329"><ele>31.0</ele><time>2026-03-24T12:59:55Z</time></trkpt><trkpt lat="45.635902076623275" lon="11.933100936531778"><ele>31.0</ele><time>2026-03-24T12:59:56Z</time></trkpt><trkpt lat="45.636044052246625" lon="11.932964094842534"><ele>31.0</ele><time>2026-03-24T12:59:57Z</time></trkpt><trkpt lat="45.63618816056872" lon="11.932826765047999"><ele>31.0</ele><time>2026-03-24T12:59:58Z</time></trkpt><trkpt lat="45.636334409959694" lon="11.932685237293853"><ele>31.0</ele><time>2026-03-24T12:59:59Z</time></trkpt><trkpt lat="45.63648631008021" lon="11.932537129176994"><ele>31.0</ele><time>2026-03-24T13:00:00Z</time></trkpt><trkpt lat="45.63664042832715" lon="11.932389845919166"><ele>31.0</ele><time>2026-03-24T13:00:01Z</time></trkpt><trkpt lat="45.63679270967586" lon="11.932241183936203"><ele>31.0</ele><time>2026-03-24T13:00:02Z</time></trkpt><trkpt lat="45.63694792712497" lon="11.932081493351081"><ele>31.0</ele><time>2026-03-24T13:00:03Z</time></trkpt><trkpt lat="45.637112587407145" lon="11.931915021445073"><ele>31.0</ele><time>2026-03-24T13:00:04Z</time></trkpt><trkpt lat="45.63729069302244" lon="11.93174352005436"><ele>31.0</ele><time>2026-03-24T13:00:05Z</time></trkpt><trkpt lat="45.63747570009898" lon="11.93156646768344"><ele>31.0</ele><time>2026-03-24T13:00:06Z</time></trkpt><trkpt lat="45.63767051394589" lon="11.931376826974477"><ele>31.0</ele><time>2026-03-24T13:00:07Z</time></trkpt><trkpt lat="45.637871395801724" lon="11.931185940589842"><ele>31.0</ele><time>2026-03-24T13:00:08Z</time></trkpt><trkpt lat="45.638065551967756" lon="11.931007694482165"><ele>30.666666666666668</ele><time>2026-03-24T13:00:09Z</time></trkpt><trkpt lat="45.63824236518782" lon="11.93084368419368"><ele>30.333333333333336</ele><time>2026-03-24T13:00:10Z</time></trkpt><trkpt lat="45.638408860744015" lon="11.930687515958725"><ele>30.0</ele><time>2026-03-24T13:00:11Z</time></trkpt><trkpt lat="45.63855948004632" lon="11.930549392041202"><ele>30.333333333333336</ele><time>2026-03-24T13:00:12Z</time></trkpt><trkpt lat="45.63870606579961" lon="11.930409661752016"><ele>30.666666666666668</ele><time>2026-03-24T13:00:13Z</time></trkpt><trkpt lat="45.63884805774514" lon="11.930291127868628"><ele>31.0</ele><time>2026-03-24T13:00:14Z</time></trkpt><trkpt lat="45.63899613888007" lon="11.930158394676937"><ele>31.333333333333336</ele><time>2026-03-24T13:00:15Z</time></trkpt><trkpt lat="45.63914508752928" lon="11.930032768330083"><ele>31.666666666666664</ele><time>2026-03-24T13:00:16Z</time></trkpt><trkpt lat="45.63929822753359" lon="11.929913963402647"><ele>32.0</ele><time>2026-03-24T13:00:17Z</time></trkpt><trkpt lat="45.639457160162515" lon="11.929795492439245"><ele>32.0</ele><time>2026-03-24T13:00:18Z</time></trkpt><trkpt lat="45.63961908521903" lon="11.929673110832875"><ele>32.0</ele><time>2026-03-24T13:00:19Z</time></trkpt><trkpt lat="45.639792404913074" lon="11.929549331411028"><ele>32.0</ele><time>2026-03-24T13:00:20Z</time></trkpt><trkpt lat="45.63998021925151" lon="11.929423345800833"><ele>32.0</ele><time>2026-03-24T13:00:21Z</time></trkpt><trkpt lat="45.64018609115746" lon="11.92929695409226"><ele>32.0</ele><time>2026-03-24T13:00:22Z</time></trkpt><trkpt lat="45.64039501482615" lon="11.929179206279354"><ele>32.0</ele><time>2026-03-24T13:00:23Z</time></trkpt><trkpt lat="45.64058937740895" lon="11.929076458120104"><ele>31.666666666666664</ele><time>2026-03-24T13:00:24Z</time></trkpt><trkpt lat="45.64077465516024" lon="11.928994388140673"><ele>31.333333333333336</ele><time>2026-03-24T13:00:25Z</time></trkpt><trkpt lat="45.640948180100466" lon="11.928922480145895"><ele>31.0</ele><time>2026-03-24T13:00:26Z</time></trkpt><trkpt lat="45.641112752135975" lon="11.92884891319276"><ele>31.0</ele><time>2026-03-24T13:00:27Z</time></trkpt><trkpt lat="45.64127372233214" lon="11.928787360114944"><ele>31.0</ele><time>2026-03-24T13:00:28Z</time></trkpt><trkpt lat="45.64143486782323" lon="11.928727782722364"><ele>31.0</ele><time>2026-03-24T13:00:29Z</time></trkpt><trkpt lat="45.64159815145827" lon="11.92867594518872"><ele>31.0</ele><time>2026-03-24T13:00:30Z</time></trkpt><trkpt lat="45.64176564456156" lon="11.928627477884097"><ele>31.0</ele><time>2026-03-24T13:00:31Z</time></trkpt><trkpt lat="45.64193706341065" lon="11.928579797310947"><ele>31.0</ele><time>2026-03-24T13:00:32Z</time></trkpt><trkpt lat="45.6421162449574" lon="11.928537089005072"><ele>31.0</ele><time>2026-03-24T13:00:33Z</time></trkpt><trkpt lat="45.642298941466024" lon="11.928497295340225"><ele>31.0</ele><time>2026-03-24T13:00:34Z</time></trkpt><trkpt lat="45.64247860144345" lon="11.928462084491004"><ele>31.0</ele><time>2026-03-24T13:00:35Z</time></trkpt><trkpt lat="45.64265826524199" lon="11.92843703459893"><ele>31.666666666666668</ele><time>2026-03-24T13:00:36Z</time></trkpt><trkpt lat="45.642836079990204" lon="11.928400306184725"><ele>32.333333333333336</ele><time>2026-03-24T13:00:37Z</time></trkpt><trkpt lat="45.6430146047652" lon="11.928391146999891"><ele>33.0</ele><time>2026-03-24T13:00:38Z</time></trkpt><trkpt lat="45.64319115916722" lon="11.928364582621807"><ele>33.333333333333336</ele><time>2026-03-24T13:00:39Z</time></trkpt><trkpt lat="45.64336962564923" lon="11.928356494024756"><ele>33.66666666666667</ele><time>2026-03-24T13:00:40Z</time></trkpt><trkpt lat="45.64354275799591" lon="11.928340091699045"><ele>34.0</ele><time>2026-03-24T13:00:41Z</time></trkpt><trkpt lat="45.643714222910134" lon="11.928318638938421"><ele>34.0</ele><time>2026-03-24T13:00:42Z</time></trkpt><trkpt lat="45.643884650203866" lon="11.928300834970688"><ele>34.0</ele><time>2026-03-24T13:00:43Z</time></trkpt><trkpt lat="45.644061664635615" lon="11.928275308123592"><ele>34.0</ele><time>2026-03-24T13:00:44Z</time></trkpt><trkpt lat="45.644256411204196" lon="11.928248309637183"><ele>33.333333333333336</ele><time>2026-03-24T13:00:45Z</time></trkpt><trkpt lat="45.644470430974096" lon="11.928246502498624"><ele>32.666666666666664</ele><time>2026-03-24T13:00:46Z</time></trkpt><trkpt lat="45.64469827839158" lon="11.928224057043044"><ele>32.0</ele><time>2026-03-24T13:00:47Z</time></trkpt><trkpt lat="45.64494220594714" lon="11.928199474412358"><ele>32.0</ele><time>2026-03-24T13:00:48Z</time></trkpt><trkpt lat="45.64519384642935" lon="11.92817370872131"><ele>32.0</ele><time>2026-03-24T13:00:49Z</time></trkpt><trkpt lat="45.64545284837759" lon="11.928147189250865"><ele>32.0</ele><time>2026-03-24T13:00:50Z</time></trkpt><trkpt lat="45.64571515517053" lon="11.928102855964433"><ele>32.0</ele><time>2026-03-24T13:00:51Z</time></trkpt><trkpt lat="45.64598782686691" lon="11.928091505347275"><ele>33.0</ele><time>2026-03-24T13:00:52Z</time></trkpt><trkpt lat="45.646267068762775" lon="11.928070131458695"><ele>34.0</ele><time>2026-03-24T13:00:53Z</time></trkpt><trkpt lat="45.6465448854518" lon="11.928039413688266"><ele>34.0</ele><time>2026-03-24T13:00:54Z</time></trkpt><trkpt lat="45.646817167958076" lon="11.928012496459901"><ele>34.0</ele><time>2026-03-24T13:00:55Z</time></trkpt><trkpt lat="45.64707944405232" lon="11.927990341567531"><ele>33.5</ele><time>2026-03-24T13:00:56Z</time></trkpt><trkpt lat="45.647332867314596" lon="11.927964770047778"><ele>33.0</ele><time>2026-03-24T13:00:57Z</time></trkpt><trkpt lat="45.64758817378806" lon="11.927935973521164"><ele>34.0</ele><time>2026-03-24T13:00:58Z</time></trkpt><trkpt lat="45.647838682198575" lon="11.927914689800563"><ele>35.0</ele><time>2026-03-24T13:00:59Z</time></trkpt><trkpt lat="45.648088021389846" lon="11.927886264178218"><ele>35.0</ele><time>2026-03-24T13:01:00Z</time></trkpt><trkpt lat="45.64834430586899" lon="11.927844494111055"><ele>35.0</ele><time>2026-03-24T13:01:01Z</time></trkpt><trkpt lat="45.64860254707673" lon="11.927810737341039"><ele>33.5</ele><time>2026-03-24T13:01:02Z</time></trkpt><trkpt lat="45.64885744754783" lon="11.927803111881683"><ele>32.0</ele><time>2026-03-24T13:01:03Z</time></trkpt><trkpt lat="45.6491126592639" lon="11.92774853004827"><ele>32.0</ele><time>2026-03-24T13:01:04Z</time></trkpt><trkpt lat="45.64935104958905" lon="11.927708348917257"><ele>32.0</ele><time>2026-03-24T13:01:05Z</time></trkpt><trkpt lat="45.649576741118956" lon="11.927660366237644"><ele>32.0</ele><time>2026-03-24T13:01:06Z</time></trkpt><trkpt lat="45.649786073251434" lon="11.927601983191837"><ele>32.0</ele><time>2026-03-24T13:01:07Z</time></trkpt><trkpt lat="45.649984507839896" lon="11.927543158186223"><ele>32.0</ele><time>2026-03-24T13:01:08Z</time></trkpt><trkpt lat="45.650169733039505" lon="11.92747843140606"><ele>32.0</ele><time>2026-03-24T13:01:09Z</time></trkpt><trkpt lat="45.650344695663115" lon="11.927413116461066"><ele>32.0</ele><time>2026-03-24T13:01:10Z</time></trkpt><trkpt lat="45.65049386113168" lon="11.927356287444034"><ele>32.0</ele><time>2026-03-24T13:01:11Z</time></trkpt><trkpt lat="45.65062404763344" lon="11.927301466699442"><ele>32.0</ele><time>2026-03-24T13:01:12Z</time></trkpt><trkpt lat="45.65073623812542" lon="11.927274692388043"><ele>32.0</ele><time>2026-03-24T13:01:13Z</time></trkpt><trkpt lat="45.65084173809036" lon="11.927267004349101"><ele>32.0</ele><time>2026-03-24T13:01:14Z</time></trkpt><trkpt lat="45.650942909361625" lon="11.927300556084305"><ele>32.0</ele><time>2026-03-24T13:01:15Z</time></trkpt><trkpt lat="45.65104067260438" lon="11.927375007555996"><ele>32.0</ele><time>2026-03-24T13:01:16Z</time></trkpt><trkpt lat="45.6511453971133" lon="11.927494437446386"><ele>32.0</ele><time>2026-03-24T13:01:17Z</time></trkpt><trkpt lat="45.651263670369026" lon="11.927609430489126"><ele>32.0</ele><time>2026-03-24T13:01:18Z</time></trkpt><trkpt lat="45.65139448861436" lon="11.927695862093586"><ele>32.0</ele><time>2026-03-24T13:01:19Z</time></trkpt><trkpt lat="45.65153762538486" lon="11.927731434321935"><ele>32.0</ele><time>2026-03-24T13:01:20Z</time></trkpt><trkpt lat="45.65169148631303" lon="11.927696033433252"><ele>32.0</ele><time>2026-03-24T13:01:21Z</time></trkpt><trkpt lat="45.65184105608022" lon="11.927618435099793"><ele>32.0</ele><time>2026-03-24T13:01:22Z</time></trkpt><trkpt lat="45.651969446318006" lon="11.927481556996277"><ele>32.0</ele><time>2026-03-24T13:01:23Z</time></trkpt><trkpt lat="45.65208507316402" lon="11.927310343333387"><ele>33.0</ele><time>2026-03-24T13:01:24Z</time></trkpt><trkpt lat="45.652170163297775" lon="11.927103491671497"><ele>34.0</ele><time>2026-03-24T13:01:25Z</time></trkpt><trkpt lat="45.65221042976482" lon="11.926883594557054"><ele>35.0</ele><time>2026-03-24T13:01:26Z</time></trkpt><trkpt lat="45.65221004919105" lon="11.92668690755193"><ele>35.0</ele><time>2026-03-24T13:01:27Z</time></trkpt><trkpt lat="45.65219540178664" lon="11.92649754356788"><ele>35.0</ele><time>2026-03-24T13:01:28Z</time></trkpt><trkpt lat="45.652200222372926" lon="11.926321661531944"><ele>35.0</ele><time>2026-03-24T13:01:29Z</time></trkpt><trkpt lat="45.6522379684083" lon="11.92617247288445"><ele>35.0</ele><time>2026-03-24T13:01:30Z</time></trkpt><trkpt lat="45.65231081422168" lon="11.926049506532044"><ele>35.0</ele><time>2026-03-24T13:01:31Z</time></trkpt><trkpt lat="45.65242608735419" lon="11.925974907618604"><ele>35.0</ele><time>2026-03-24T13:01:32Z</time></trkpt><trkpt lat="45.65254609977062" lon="11.925869921650289"><ele>35.0</ele><time>2026-03-24T13:01:33Z</time></trkpt><trkpt lat="45.652685499066735" lon="11.92575503356865"><ele>35.0</ele><time>2026-03-24T13:01:34Z</time></trkpt><trkpt lat="45.652830863229106" lon="11.925608199041433"><ele>35.666666666666664</ele><time>2026-03-24T13:01:35Z</time></trkpt><trkpt lat="45.652990936713145" lon="11.925450424962687"><ele>36.333333333333336</ele><time>2026-03-24T13:01:36Z</time></trkpt><trkpt lat="45.653156820285325" lon="11.925287243217218"><ele>37.0</ele><time>2026-03-24T13:01:37Z</time></trkpt><trkpt lat="45.65333152132459" lon="11.925119663131685"><ele>37.0</ele><time>2026-03-24T13:01:38Z</time></trkpt><trkpt lat="45.653510192656654" lon="11.924949669230466"><ele>37.0</ele><time>2026-03-24T13:01:39Z</time></trkpt><trkpt lat="45.65369175088991" lon="11.924776694243244"><ele>37.0</ele><time>2026-03-24T13:01:40Z</time></trkpt><trkpt lat="45.65388830450362" lon="11.924613538504824"><ele>37.0</ele><time>2026-03-24T13:01:41Z</time></trkpt><trkpt lat="45.65410358305376" lon="11.924478835955659"><ele>37.0</ele><time>2026-03-24T13:01:42Z</time></trkpt><trkpt lat="45.65432991297909" lon="11.924366298546019"><ele>37.0</ele><time>2026-03-24T13:01:43Z</time></trkpt><trkpt lat="45.654556264088406" lon="11.924263894811359"><ele>37.0</ele><time>2026-03-24T13:01:44Z</time></trkpt><trkpt lat="45.654778187808816" lon="11.924141607347915"><ele>38.5</ele><time>2026-03-24T13:01:45Z</time></trkpt><trkpt lat="45.6550029164865" lon="11.924009976304708"><ele>40.0</ele><time>2026-03-24T13:01:46Z</time></trkpt><trkpt lat="45.65523588074724" lon="11.923876265420455"><ele>39.5</ele><time>2026-03-24T13:01:47Z</time></trkpt><trkpt lat="45.65546694273658" lon="11.923728839192686"><ele>39.0</ele><time>2026-03-24T13:01:48Z</time></trkpt><trkpt lat="45.65570323245283" lon="11.923586973053899"><ele>39.0</ele><time>2026-03-24T13:01:49Z</time></trkpt><trkpt lat="45.65594551790953" lon="11.923455280989579"><ele>39.0</ele><time>2026-03-24T13:01:50Z</time></trkpt><trkpt lat="45.656187279147474" lon="11.923310553055426"><ele>38.5</ele><time>2026-03-24T13:01:51Z</time></trkpt><trkpt lat="45.65642209618094" lon="11.92317442517719"><ele>38.0</ele><time>2026-03-24T13:01:52Z</time></trkpt><trkpt lat="45.656648505545846" lon="11.923037317594002"><ele>38.0</ele><time>2026-03-24T13:01:53Z</time></trkpt><trkpt lat="45.65688126457697" lon="11.922897787870061"><ele>38.0</ele><time>2026-03-24T13:01:54Z</time></trkpt><trkpt lat="45.65712374023751" lon="11.92276139926813"><ele>37.5</ele><time>2026-03-24T13:01:55Z</time></trkpt><trkpt lat="45.657373839300796" lon="11.92261844555074"><ele>37.0</ele><time>2026-03-24T13:01:56Z</time></trkpt><trkpt lat="45.65763531196574" lon="11.922473680152628"><ele>38.0</ele><time>2026-03-24T13:01:57Z</time></trkpt><trkpt lat="45.65789396799152" lon="11.922317603787063"><ele>39.0</ele><time>2026-03-24T13:01:58Z</time></trkpt><trkpt lat="45.65815087343684" lon="11.922155109808559"><ele>39.0</ele><time>2026-03-24T13:01:59Z</time></trkpt><trkpt lat="45.65841333483371" lon="11.921997868041897"><ele>39.0</ele><time>2026-03-24T13:02:00Z</time></trkpt><trkpt lat="45.65867676709886" lon="11.921843562001367"><ele>38.5</ele><time>2026-03-24T13:02:01Z</time></trkpt><trkpt lat="45.658936358510815" lon="11.92168326829885"><ele>38.0</ele><time>2026-03-24T13:02:02Z</time></trkpt><trkpt lat="45.65918698857902" lon="11.9215089485427"><ele>38.0</ele><time>2026-03-24T13:02:03Z</time></trkpt><trkpt lat="45.65943507601512" lon="11.921321433931913"><ele>38.0</ele><time>2026-03-24T13:02:04Z</time></trkpt><trkpt lat="45.65967664328504" lon="11.921115624026097"><ele>37.5</ele><time>2026-03-24T13:02:05Z</time></trkpt><trkpt lat="45.65991759430788" lon="11.920911409237016"><ele>37.0</ele><time>2026-03-24T13:02:06Z</time></trkpt><trkpt lat="45.66015694634907" lon="11.920700176535558"><ele>36.5</ele><time>2026-03-24T13:02:07Z</time></trkpt><trkpt lat="45.660396848888" lon="11.92048781697787"><ele>36.0</ele><time>2026-03-24T13:02:08Z</time></trkpt><trkpt lat="45.66062744778576" lon="11.920255449092567"><ele>36.5</ele><time>2026-03-24T13:02:09Z</time></trkpt><trkpt lat="45.66085363374178" lon="11.920017578567082"><ele>37.0</ele><time>2026-03-24T13:02:10Z</time></trkpt><trkpt lat="45.661076896422514" lon="11.919772296487816"><ele>37.5</ele><time>2026-03-24T13:02:11Z</time></trkpt><trkpt lat="45.661294335559724" lon="11.919520241197793"><ele>38.0</ele><time>2026-03-24T13:02:12Z</time></trkpt><trkpt lat="45.66150725283719" lon="11.919265787770447"><ele>39.0</ele><time>2026-03-24T13:02:13Z</time></trkpt><trkpt lat="45.66171676618503" lon="11.919001852241589"><ele>40.0</ele><time>2026-03-24T13:02:14Z</time></trkpt><trkpt lat="45.66192282356831" lon="11.918725171024029"><ele>40.5</ele><time>2026-03-24T13:02:15Z</time></trkpt><trkpt lat="45.66212092362757" lon="11.918442440259673"><ele>41.0</ele><time>2026-03-24T13:02:16Z</time></trkpt><trkpt lat="45.66231616426597" lon="11.918152501384252"><ele>41.0</ele><time>2026-03-24T13:02:17Z</time></trkpt><trkpt lat="45.66250751445629" lon="11.917860462725578"><ele>41.0</ele><time>2026-03-24T13:02:18Z</time></trkpt><trkpt lat="45.662693013743194" lon="11.917560182068373"><ele>40.0</ele><time>2026-03-24T13:02:19Z</time></trkpt><trkpt lat="45.66287301624307" lon="11.917253847503929"><ele>39.0</ele><time>2026-03-24T13:02:20Z</time></trkpt><trkpt lat="45.663047999077314" lon="11.916935535173373"><ele>40.0</ele><time>2026-03-24T13:02:21Z</time></trkpt><trkpt lat="45.66322058228531" lon="11.916619827614669"><ele>41.0</ele><time>2026-03-24T13:02:22Z</time></trkpt><trkpt lat="45.663379116343584" lon="11.916286277857798"><ele>41.0</ele><time>2026-03-24T13:02:23Z</time></trkpt><trkpt lat="45.66353399238225" lon="11.915952207806283"><ele>41.0</ele><time>2026-03-24T13:02:24Z</time></trkpt><trkpt lat="45.66368590164984" lon="11.915616281983771"><ele>41.0</ele><time>2026-03-24T13:02:25Z</time></trkpt><trkpt lat="45.663832299370014" lon="11.915272300109468"><ele>41.0</ele><time>2026-03-24T13:02:26Z</time></trkpt><trkpt lat="45.663973906788904" lon="11.914923509531617"><ele>41.0</ele><time>2026-03-24T13:02:27Z</time></trkpt><trkpt lat="45.66410687014872" lon="11.91456638622794"><ele>41.0</ele><time>2026-03-24T13:02:28Z</time></trkpt><trkpt lat="45.664233410059964" lon="11.914205406887227"><ele>41.5</ele><time>2026-03-24T13:02:29Z</time></trkpt><trkpt lat="45.664354656015426" lon="11.913845655303772"><ele>42.0</ele><time>2026-03-24T13:02:30Z</time></trkpt><trkpt lat="45.664469324380065" lon="11.913480704358818"><ele>40.5</ele><time>2026-03-24T13:02:31Z</time></trkpt><trkpt lat="45.664578569213745" lon="11.913112009717882"><ele>39.0</ele><time>2026-03-24T13:02:32Z</time></trkpt><trkpt lat="45.664686847830396" lon="11.912743477586423"><ele>39.5</ele><time>2026-03-24T13:02:33Z</time></trkpt><trkpt lat="45.664794863520505" lon="11.912369648773751"><ele>40.0</ele><time>2026-03-24T13:02:34Z</time></trkpt><trkpt lat="45.664900309484345" lon="11.911997768734798"><ele>40.0</ele><time>2026-03-24T13:02:35Z</time></trkpt><trkpt lat="45.665006624675755" lon="11.911625115808581"><ele>40.0</ele><time>2026-03-24T13:02:36Z</time></trkpt><trkpt lat="45.66511089216019" lon="11.911251193995012"><ele>40.5</ele><time>2026-03-24T13:02:37Z</time></trkpt><trkpt lat="45.66521380201754" lon="11.910877242369622"><ele>41.0</ele><time>2026-03-24T13:02:38Z</time></trkpt><trkpt lat="45.6653173958997" lon="11.910504453669704"><ele>40.0</ele><time>2026-03-24T13:02:39Z</time></trkpt><trkpt lat="45.665424965507945" lon="11.910133245490293"><ele>39.0</ele><time>2026-03-24T13:02:40Z</time></trkpt><trkpt lat="45.66553851531667" lon="11.909768746477514"><ele>39.0</ele><time>2026-03-24T13:02:41Z</time></trkpt><trkpt lat="45.66565623827926" lon="11.909406422551053"><ele>39.0</ele><time>2026-03-24T13:02:42Z</time></trkpt><trkpt lat="45.665781956615476" lon="11.909045284910391"><ele>40.5</ele><time>2026-03-24T13:02:43Z</time></trkpt><trkpt lat="45.66591525049765" lon="11.908691946782108"><ele>42.0</ele><time>2026-03-24T13:02:44Z</time></trkpt><trkpt lat="45.66605632526737" lon="11.908342359717794"><ele>42.0</ele><time>2026-03-24T13:02:45Z</time></trkpt><trkpt lat="45.66620165606427" lon="11.907997733858227"><ele>42.0</ele><time>2026-03-24T13:02:46Z</time></trkpt><trkpt lat="45.66635973662119" lon="11.907664070652064"><ele>42.5</ele><time>2026-03-24T13:02:47Z</time></trkpt><trkpt lat="45.66652831259727" lon="11.907343891184311"><ele>43.0</ele><time>2026-03-24T13:02:48Z</time></trkpt><trkpt lat="45.66670525964124" lon="11.90702878363674"><ele>43.0</ele><time>2026-03-24T13:02:49Z</time></trkpt><trkpt lat="45.6668802891766" lon="11.906718707645966"><ele>43.0</ele><time>2026-03-24T13:02:50Z</time></trkpt><trkpt lat="45.667062636710895" lon="11.906413377405334"><ele>42.5</ele><time>2026-03-24T13:02:51Z</time></trkpt><trkpt lat="45.66724989189637" lon="11.906114218307032"><ele>42.0</ele><time>2026-03-24T13:02:52Z</time></trkpt><trkpt lat="45.66744742554291" lon="11.905829170659759"><ele>42.0</ele><time>2026-03-24T13:02:53Z</time></trkpt><trkpt lat="45.66763809342037" lon="11.90556999512164"><ele>42.0</ele><time>2026-03-24T13:02:54Z</time></trkpt><trkpt lat="45.667822329026656" lon="11.90533782680633"><ele>42.0</ele><time>2026-03-24T13:02:55Z</time></trkpt><trkpt lat="45.6680049299108" lon="11.905137321311397"><ele>42.0</ele><time>2026-03-24T13:02:56Z</time></trkpt><trkpt lat="45.6681883036456" lon="11.904951240220898"><ele>43.5</ele><time>2026-03-24T13:02:57Z</time></trkpt><trkpt lat="45.668375179985276" lon="11.904768108171444"><ele>45.0</ele><time>2026-03-24T13:02:58Z</time></trkpt><trkpt lat="45.66857404499221" lon="11.904617999877884"><ele>44.0</ele><time>2026-03-24T13:02:59Z</time></trkpt><trkpt lat="45.668756991887" lon="11.904485284767551"><ele>43.0</ele><time>2026-03-24T13:03:00Z</time></trkpt><trkpt lat="45.668936453439315" lon="11.904373177063805"><ele>42.0</ele><time>2026-03-24T13:03:01Z</time></trkpt><trkpt lat="45.66910873361171" lon="11.904274355135307"><ele>42.333333333333336</ele><time>2026-03-24T13:03:02Z</time></trkpt><trkpt lat="45.6692784465369" lon="11.904196160084528"><ele>42.66666666666667</ele><time>2026-03-24T13:03:03Z</time></trkpt><trkpt lat="45.66944261489398" lon="11.90412983708055"><ele>43.0</ele><time>2026-03-24T13:03:04Z</time></trkpt><trkpt lat="45.66960054975183" lon="11.904073328341948"><ele>42.25</ele><time>2026-03-24T13:03:05Z</time></trkpt><trkpt lat="45.66975158431286" lon="11.90401766726788"><ele>41.5</ele><time>2026-03-24T13:03:06Z</time></trkpt><trkpt lat="45.669892696830274" lon="11.90396931098663"><ele>40.75</ele><time>2026-03-24T13:03:07Z</time></trkpt><trkpt lat="45.670028055533585" lon="11.903942771029211"><ele>40.0</ele><time>2026-03-24T13:03:08Z</time></trkpt><trkpt lat="45.6701629895195" lon="11.903958146420951"><ele>40.25</ele><time>2026-03-24T13:03:09Z</time></trkpt><trkpt lat="45.670284137822534" lon="11.904016455957741"><ele>40.5</ele><time>2026-03-24T13:03:10Z</time></trkpt><trkpt lat="45.67041072333603" lon="11.904078579043514"><ele>40.75</ele><time>2026-03-24T13:03:11Z</time></trkpt><trkpt lat="45.67054087321103" lon="11.904119993971044"><ele>41.0</ele><time>2026-03-24T13:03:12Z</time></trkpt><trkpt lat="45.67068085945094" lon="11.904115713134013"><ele>41.0</ele><time>2026-03-24T13:03:13Z</time></trkpt><trkpt lat="45.67082322653696" lon="11.90406402512611"><ele>41.0</ele><time>2026-03-24T13:03:14Z</time></trkpt><trkpt lat="45.670955941150744" lon="11.903960900275864"><ele>41.0</ele><time>2026-03-24T13:03:15Z</time></trkpt><trkpt lat="45.67106894749002" lon="11.903832361663978"><ele>41.0</ele><time>2026-03-24T13:03:16Z</time></trkpt><trkpt lat="45.67116088804491" lon="11.903663862112241"><ele>41.33333333333333</ele><time>2026-03-24T13:03:17Z</time></trkpt><trkpt lat="45.6712162154488" lon="11.903465466882528"><ele>41.666666666666664</ele><time>2026-03-24T13:03:18Z</time></trkpt><trkpt lat="45.67122541710207" lon="11.903239991211427"><ele>42.0</ele><time>2026-03-24T13:03:19Z</time></trkpt><trkpt lat="45.67122608738064" lon="11.90303279750381"><ele>42.0</ele><time>2026-03-24T13:03:20Z</time></trkpt><trkpt lat="45.67118978119883" lon="11.90282510726604"><ele>42.0</ele><time>2026-03-24T13:03:21Z</time></trkpt><trkpt lat="45.67112199149616" lon="11.902639137762238"><ele>42.0</ele><time>2026-03-24T13:03:22Z</time></trkpt><trkpt lat="45.671026302780895" lon="11.902481717183823"><ele>42.0</ele><time>2026-03-24T13:03:23Z</time></trkpt><trkpt lat="45.6709018636753" lon="11.902367653110206"><ele>42.0</ele><time>2026-03-24T13:03:24Z</time></trkpt><trkpt lat="45.67076850659131" lon="11.902289455981805"><ele>42.0</ele><time>2026-03-24T13:03:25Z</time></trkpt><trkpt lat="45.67063202978915" lon="11.90223460076115"><ele>42.0</ele><time>2026-03-24T13:03:26Z</time></trkpt><trkpt lat="45.670487990119724" lon="11.902237120344012"><ele>42.0</ele><time>2026-03-24T13:03:27Z</time></trkpt><trkpt lat="45.670360016011756" lon="11.90228060613839"><ele>42.0</ele><time>2026-03-24T13:03:28Z</time></trkpt><trkpt lat="45.67024762379328" lon="11.902357088202272"><ele>42.0</ele><time>2026-03-24T13:03:29Z</time></trkpt><trkpt lat="45.67015638422571" lon="11.902445344956364"><ele>42.0</ele><time>2026-03-24T13:03:30Z</time></trkpt><trkpt lat="45.67008288812383" lon="11.90248667547508"><ele>42.0</ele><time>2026-03-24T13:03:31Z</time></trkpt><trkpt lat="45.67000383941601" lon="11.90249845032925"><ele>42.0</ele><time>2026-03-24T13:03:32Z</time></trkpt><trkpt lat="45.66993257311846" lon="11.902478688213538"><ele>42.0</ele><time>2026-03-24T13:03:33Z</time></trkpt><trkpt lat="45.669864991786916" lon="11.902449829838607"><ele>42.0</ele><time>2026-03-24T13:03:34Z</time></trkpt><trkpt lat="45.669791690257476" lon="11.902402068217986"><ele>42.0</ele><time>2026-03-24T13:03:35Z</time></trkpt><trkpt lat="45.66971176434483" lon="11.902335450502818"><ele>42.0</ele><time>2026-03-24T13:03:36Z</time></trkpt><trkpt lat="45.66963563994083" lon="11.902238490204368"><ele>42.0</ele><time>2026-03-24T13:03:37Z</time></trkpt><trkpt lat="45.6695621513086" lon="11.902109376990246"><ele>42.0</ele><time>2026-03-24T13:03:38Z</time></trkpt><trkpt lat="45.669479484487745" lon="11.901985511888288"><ele>42.0</ele><time>2026-03-24T13:03:39Z</time></trkpt><trkpt lat="45.66939107013612" lon="11.90185008919392"><ele>42.0</ele><time>2026-03-24T13:03:40Z</time></trkpt><trkpt lat="45.669293951694975" lon="11.901704479196884"><ele>42.0</ele><time>2026-03-24T13:03:41Z</time></trkpt><trkpt lat="45.66919231561268" lon="11.901571165503285"><ele>41.333333333333336</ele><time>2026-03-24T13:03:42Z</time></trkpt><trkpt lat="45.669091284211184" lon="11.90143219597646"><ele>40.66666666666667</ele><time>2026-03-24T13:03:43Z</time></trkpt><trkpt lat="45.66898825750886" lon="11.901280181939818"><ele>40.0</ele><time>2026-03-24T13:03:44Z</time></trkpt><trkpt lat="45.66886768097834" lon="11.901103339807158"><ele>40.333333333333336</ele><time>2026-03-24T13:03:45Z</time></trkpt><trkpt lat="45.66874137193029" lon="11.900903675119508"><ele>40.666666666666664</ele><time>2026-03-24T13:03:46Z</time></trkpt><trkpt lat="45.66863122501093" lon="11.90071866273387"><ele>41.0</ele><time>2026-03-24T13:03:47Z</time></trkpt><trkpt lat="45.668532253775936" lon="11.900556364849486"><ele>41.0</ele><time>2026-03-24T13:03:48Z</time></trkpt><trkpt lat="45.66844803411825" lon="11.900395645971448"><ele>41.0</ele><time>2026-03-24T13:03:49Z</time></trkpt><trkpt lat="45.668345404019576" lon="11.90026937626135"><ele>41.0</ele><time>2026-03-24T13:03:50Z</time></trkpt><trkpt lat="45.668254918849996" lon="11.900126625456272"><ele>41.0</ele><time>2026-03-24T13:03:51Z</time></trkpt><trkpt lat="45.66815256701847" lon="11.89998208920003"><ele>41.0</ele><time>2026-03-24T13:03:52Z</time></trkpt><trkpt lat="45.66805337622577" lon="11.89983053033194"><ele>41.0</ele><time>2026-03-24T13:03:53Z</time></trkpt><trkpt lat="45.66795033236925" lon="11.899681868044798"><ele>41.0</ele><time>2026-03-24T13:03:54Z</time></trkpt><trkpt lat="45.6678559184147" lon="11.899511391215665"><ele>41.0</ele><time>2026-03-24T13:03:55Z</time></trkpt><trkpt lat="45.667757048116584" lon="11.899358888945223"><ele>41.33333333333333</ele><time>2026-03-24T13:03:56Z</time></trkpt><trkpt lat="45.667655962813505" lon="11.899194171782748"><ele>41.666666666666664</ele><time>2026-03-24T13:03:57Z</time></trkpt><trkpt lat="45.6675620113544" lon="11.899003628360713"><ele>42.0</ele><time>2026-03-24T13:03:58Z</time></trkpt><trkpt lat="45.66744447661028" lon="11.898804289999866"><ele>42.0</ele><time>2026-03-24T13:03:59Z</time></trkpt><trkpt lat="45.66733499841462" lon="11.898574906264084"><ele>42.0</ele><time>2026-03-24T13:04:00Z</time></trkpt><trkpt lat="45.66721248008475" lon="11.898323210564099"><ele>42.0</ele><time>2026-03-24T13:04:01Z</time></trkpt><trkpt lat="45.6670986358298" lon="11.898087750306201"><ele>42.0</ele><time>2026-03-24T13:04:02Z</time></trkpt><trkpt lat="45.66699502785657" lon="11.897856452594308"><ele>42.0</ele><time>2026-03-24T13:04:03Z</time></trkpt><trkpt lat="45.666918616125805" lon="11.897626395637634"><ele>42.0</ele><time>2026-03-24T13:04:04Z</time></trkpt><trkpt lat="45.666840207217376" lon="11.897421066760339"><ele>42.0</ele><time>2026-03-24T13:04:05Z</time></trkpt><trkpt lat="45.6667682426007" lon="11.897226396140573"><ele>42.0</ele><time>2026-03-24T13:04:06Z</time></trkpt><trkpt lat="45.66668903287004" lon="11.897018921111913"><ele>42.0</ele><time>2026-03-24T13:04:07Z</time></trkpt><trkpt lat="45.66661433751792" lon="11.896803408783159"><ele>41.666666666666664</ele><time>2026-03-24T13:04:08Z</time></trkpt><trkpt lat="45.666541959049404" lon="11.89657274668478"><ele>41.33333333333333</ele><time>2026-03-24T13:04:09Z</time></trkpt><trkpt lat="45.66646762084566" lon="11.896334776687153"><ele>41.0</ele><time>2026-03-24T13:04:10Z</time></trkpt><trkpt lat="45.66639414124607" lon="11.896104395224247"><ele>40.666666666666664</ele><time>2026-03-24T13:04:11Z</time></trkpt><trkpt lat="45.66632449363319" lon="11.895898974457564"><ele>40.333333333333336</ele><time>2026-03-24T13:04:12Z</time></trkpt><trkpt lat="45.66626312129362" lon="11.895703988749126"><ele>40.0</ele><time>2026-03-24T13:04:13Z</time></trkpt><trkpt lat="45.66620223872531" lon="11.895506731824463"><ele>40.0</ele><time>2026-03-24T13:04:14Z</time></trkpt><trkpt lat="45.6661375058926" lon="11.895296496336869"><ele>40.0</ele><time>2026-03-24T13:04:15Z</time></trkpt><trkpt lat="45.666072007756796" lon="11.895092790983464"><ele>40.0</ele><time>2026-03-24T13:04:16Z</time></trkpt><trkpt lat="45.66600877912874" lon="11.894883889618677"><ele>39.66666666666667</ele><time>2026-03-24T13:04:17Z</time></trkpt><trkpt lat="45.66594475841169" lon="11.894671028283415"><ele>39.333333333333336</ele><time>2026-03-24T13:04:18Z</time></trkpt><trkpt lat="45.665879644406886" lon="11.894469047928279"><ele>39.0</ele><time>2026-03-24T13:04:19Z</time></trkpt><trkpt lat="45.665821025688544" lon="11.894281533938988"><ele>39.0</ele><time>2026-03-24T13:04:20Z</time></trkpt><trkpt lat="45.66576793976491" lon="11.894111397177932"><ele>39.0</ele><time>2026-03-24T13:04:21Z</time></trkpt><trkpt lat="45.66571267016327" lon="11.893941132783432"><ele>39.0</ele><time>2026-03-24T13:04:22Z</time></trkpt><trkpt lat="45.66565826643652" lon="11.89375872459186"><ele>39.0</ele><time>2026-03-24T13:04:23Z</time></trkpt><trkpt lat="45.66560643623443" lon="11.89356517863977"><ele>39.333333333333336</ele><time>2026-03-24T13:04:24Z</time></trkpt><trkpt lat="45.665555074759865" lon="11.893362089977094"><ele>39.66666666666667</ele><time>2026-03-24T13:04:25Z</time></trkpt><trkpt lat="45.66550707516337" lon="11.893144202079064"><ele>40.0</ele><time>2026-03-24T13:04:26Z</time></trkpt><trkpt lat="45.66546533033616" lon="11.892909701643127"><ele>40.0</ele><time>2026-03-24T13:04:27Z</time></trkpt><trkpt lat="45.6654276511408" lon="11.892664420862054"><ele>40.0</ele><time>2026-03-24T13:04:28Z</time></trkpt><trkpt lat="45.66539623028745" lon="11.892411514588392"><ele>40.0</ele><time>2026-03-24T13:04:29Z</time></trkpt><trkpt lat="45.665368380018066" lon="11.892164191232855"><ele>40.0</ele><time>2026-03-24T13:04:30Z</time></trkpt><trkpt lat="45.66534758250064" lon="11.891933707207349"><ele>40.0</ele><time>2026-03-24T13:04:31Z</time></trkpt><trkpt lat="45.665330846162995" lon="11.891715141900956"><ele>40.0</ele><time>2026-03-24T13:04:32Z</time></trkpt><trkpt lat="45.665321614621185" lon="11.891492379968417"><ele>40.0</ele><time>2026-03-24T13:04:33Z</time></trkpt><trkpt lat="45.66531695850244" lon="11.89125208020374"><ele>40.0</ele><time>2026-03-24T13:04:34Z</time></trkpt><trkpt lat="45.6653254911816" lon="11.890996186899168"><ele>40.0</ele><time>2026-03-24T13:04:35Z</time></trkpt><trkpt lat="45.665338727337456" lon="11.890743297579967"><ele>40.0</ele><time>2026-03-24T13:04:36Z</time></trkpt><trkpt lat="45.665357248681524" lon="11.890516989348518"><ele>40.0</ele><time>2026-03-24T13:04:37Z</time></trkpt><trkpt lat="45.66538109999928" lon="11.8903039310785"><ele>40.0</ele><time>2026-03-24T13:04:38Z</time></trkpt><trkpt lat="45.66540794195144" lon="11.890102469117394"><ele>39.75</ele><time>2026-03-24T13:04:39Z</time></trkpt><trkpt lat="45.66543433142956" lon="11.889911248041448"><ele>39.5</ele><time>2026-03-24T13:04:40Z</time></trkpt><trkpt lat="45.66545961807916" lon="11.889731702649295"><ele>39.25</ele><time>2026-03-24T13:04:41Z</time></trkpt><trkpt lat="45.665486071190394" lon="11.88955182724825"><ele>39.0</ele><time>2026-03-24T13:04:42Z</time></trkpt><trkpt lat="45.6655125274767" lon="11.889374253244496"><ele>39.5</ele><time>2026-03-24T13:04:43Z</time></trkpt><trkpt lat="45.66553836725268" lon="11.889205696605133"><ele>40.0</ele><time>2026-03-24T13:04:44Z</time></trkpt><trkpt lat="45.66556131560947" lon="11.889039378406697"><ele>40.5</ele><time>2026-03-24T13:04:45Z</time></trkpt><trkpt lat="45.66558800459105" lon="11.888865860844675"><ele>41.0</ele><time>2026-03-24T13:04:46Z</time></trkpt><trkpt lat="45.66561024068746" lon="11.888694287258591"><ele>41.0</ele><time>2026-03-24T13:04:47Z</time></trkpt><trkpt lat="45.665635096128746" lon="11.888521826326986"><ele>41.0</ele><time>2026-03-24T13:04:48Z</time></trkpt><trkpt lat="45.66566079452774" lon="11.888353305748026"><ele>41.0</ele><time>2026-03-24T13:04:49Z</time></trkpt><trkpt lat="45.66568611501171" lon="11.888183928227903"><ele>41.0</ele><time>2026-03-24T13:04:50Z</time></trkpt><trkpt lat="45.66570884576765" lon="11.888015003911534"><ele>41.25</ele><time>2026-03-24T13:04:51Z</time></trkpt><trkpt lat="45.665731847372086" lon="11.887843107710788"><ele>41.5</ele><time>2026-03-24T13:04:52Z</time></trkpt><trkpt lat="45.6657574316866" lon="11.887673193052775"><ele>41.75</ele><time>2026-03-24T13:04:53Z</time></trkpt><trkpt lat="45.665782892814605" lon="11.887496717980804"><ele>42.0</ele><time>2026-03-24T13:04:54Z</time></trkpt><trkpt lat="45.66580864786853" lon="11.887331156404802"><ele>42.0</ele><time>2026-03-24T13:04:55Z</time></trkpt><trkpt lat="45.66583376208479" lon="11.88716415974715"><ele>42.0</ele><time>2026-03-24T13:04:56Z</time></trkpt><trkpt lat="45.66586116769577" lon="11.88700012896183"><ele>42.0</ele><time>2026-03-24T13:04:57Z</time></trkpt><trkpt lat="45.665886451829465" lon="11.886831895984134"><ele>42.0</ele><time>2026-03-24T13:04:58Z</time></trkpt><trkpt lat="45.66591299831586" lon="11.88665136558998"><ele>42.0</ele><time>2026-03-24T13:04:59Z</time></trkpt><trkpt lat="45.665940230846594" lon="11.8864495736606"><ele>42.0</ele><time>2026-03-24T13:05:00Z</time></trkpt><trkpt lat="45.66597150737064" lon="11.886219479561685"><ele>42.0</ele><time>2026-03-24T13:05:01Z</time></trkpt><trkpt lat="45.66600348119978" lon="11.885956185063355"><ele>42.0</ele><time>2026-03-24T13:05:02Z</time></trkpt><trkpt lat="45.66603230801783" lon="11.885669095652366"><ele>42.0</ele><time>2026-03-24T13:05:03Z</time></trkpt><trkpt lat="45.66606814416036" lon="11.885359632025501"><ele>42.0</ele><time>2026-03-24T13:05:04Z</time></trkpt><trkpt lat="45.666098624707836" lon="11.885072181938247"><ele>41.666666666666664</ele><time>2026-03-24T13:05:05Z</time></trkpt><trkpt lat="45.6661151943071" lon="11.884794508708957"><ele>41.33333333333333</ele><time>2026-03-24T13:05:06Z</time></trkpt><trkpt lat="45.66612921594101" lon="11.884531308530368"><ele>41.0</ele><time>2026-03-24T13:05:07Z</time></trkpt><trkpt lat="45.666143128605306" lon="11.884275634624446"><ele>40.666666666666664</ele><time>2026-03-24T13:05:08Z</time></trkpt><trkpt lat="45.666156296834906" lon="11.88403546743747"><ele>40.333333333333336</ele><time>2026-03-24T13:05:09Z</time></trkpt><trkpt lat="45.66616641844091" lon="11.883815317033177"><ele>40.0</ele><time>2026-03-24T13:05:10Z</time></trkpt><trkpt lat="45.66617481987891" lon="11.8835994181566"><ele>40.0</ele><time>2026-03-24T13:05:11Z</time></trkpt><trkpt lat="45.666185197464" lon="11.883379276270524"><ele>40.0</ele><time>2026-03-24T13:05:12Z</time></trkpt><trkpt lat="45.66619398816383" lon="11.883146718293629"><ele>40.0</ele><time>2026-03-24T13:05:13Z</time></trkpt><trkpt lat="45.66620328201166" lon="11.882903826959044"><ele>40.0</ele><time>2026-03-24T13:05:14Z</time></trkpt><trkpt lat="45.66620974542538" lon="11.882655877775722"><ele>40.0</ele><time>2026-03-24T13:05:15Z</time></trkpt><trkpt lat="45.666220351055095" lon="11.882387734505818"><ele>40.0</ele><time>2026-03-24T13:05:16Z</time></trkpt><trkpt lat="45.66623510788585" lon="11.882113251122995"><ele>40.333333333333336</ele><time>2026-03-24T13:05:17Z</time></trkpt><trkpt lat="45.666239659530284" lon="11.88186616957616"><ele>40.666666666666664</ele><time>2026-03-24T13:05:18Z</time></trkpt><trkpt lat="45.66625516658287" lon="11.881624348374764"><ele>41.0</ele><time>2026-03-24T13:05:19Z</time></trkpt><trkpt lat="45.66626780216344" lon="11.88139422402653"><ele>41.5</ele><time>2026-03-24T13:05:20Z</time></trkpt><trkpt lat="45.66627680890202" lon="11.88118480533779"><ele>42.0</ele><time>2026-03-24T13:05:21Z</time></trkpt><trkpt lat="45.666285100834585" lon="11.880981871425895"><ele>42.5</ele><time>2026-03-24T13:05:22Z</time></trkpt><trkpt lat="45.666296067292265" lon="11.880771611698082"><ele>43.0</ele><time>2026-03-24T13:05:23Z</time></trkpt><trkpt lat="45.66630370937797" lon="11.880554843497519"><ele>43.0</ele><time>2026-03-24T13:05:24Z</time></trkpt><trkpt lat="45.66631179598865" lon="11.880339108945469"><ele>43.0</ele><time>2026-03-24T13:05:25Z</time></trkpt><trkpt lat="45.66631678784699" lon="11.880126768763768"><ele>43.0</ele><time>2026-03-24T13:05:26Z</time></trkpt><trkpt lat="45.666316847246016" lon="11.879919836489607"><ele>43.0</ele><time>2026-03-24T13:05:27Z</time></trkpt><trkpt lat="45.66631730921306" lon="11.879690096691997"><ele>42.66666666666667</ele><time>2026-03-24T13:05:28Z</time></trkpt><trkpt lat="45.666333025408605" lon="11.879432939453672"><ele>42.333333333333336</ele><time>2026-03-24T13:05:29Z</time></trkpt><trkpt lat="45.66632154785865" lon="11.87914826898114"><ele>42.0</ele><time>2026-03-24T13:05:30Z</time></trkpt><trkpt lat="45.66633162427222" lon="11.87883614352714"><ele>42.0</ele><time>2026-03-24T13:05:31Z</time></trkpt><trkpt lat="45.66633584608643" lon="11.878489813532106"><ele>42.0</ele><time>2026-03-24T13:05:32Z</time></trkpt><trkpt lat="45.666348188324434" lon="11.878135539540432"><ele>42.0</ele><time>2026-03-24T13:05:33Z</time></trkpt><trkpt lat="45.6663633846439" lon="11.87776606555446"><ele>42.0</ele><time>2026-03-24T13:05:34Z</time></trkpt><trkpt lat="45.66638059009177" lon="11.877406426116337"><ele>42.0</ele><time>2026-03-24T13:05:35Z</time></trkpt><trkpt lat="45.66639626284601" lon="11.8770815021693"><ele>42.0</ele><time>2026-03-24T13:05:36Z</time></trkpt><trkpt lat="45.666413561727694" lon="11.876763471857757"><ele>42.0</ele><time>2026-03-24T13:05:37Z</time></trkpt><trkpt lat="45.666429003378354" lon="11.876458315795047"><ele>42.0</ele><time>2026-03-24T13:05:38Z</time></trkpt><trkpt lat="45.666440436051815" lon="11.876150162041238"><ele>42.0</ele><time>2026-03-24T13:05:39Z</time></trkpt><trkpt lat="45.66645284377722" lon="11.875827076060997"><ele>42.0</ele><time>2026-03-24T13:05:40Z</time></trkpt><trkpt lat="45.6664617673563" lon="11.875496547550743"><ele>42.0</ele><time>2026-03-24T13:05:41Z</time></trkpt><trkpt lat="45.666466282242034" lon="11.875165933217085"><ele>42.0</ele><time>2026-03-24T13:05:42Z</time></trkpt><trkpt lat="45.66646931437284" lon="11.874854618926724"><ele>42.0</ele><time>2026-03-24T13:05:43Z</time></trkpt><trkpt lat="45.666472478668204" lon="11.874567741927157"><ele>42.0</ele><time>2026-03-24T13:05:44Z</time></trkpt><trkpt lat="45.66647006952272" lon="11.874304380102412"><ele>42.0</ele><time>2026-03-24T13:05:45Z</time></trkpt><trkpt lat="45.66648002908449" lon="11.874055765794578"><ele>42.0</ele><time>2026-03-24T13:05:46Z</time></trkpt><trkpt lat="45.66648807782013" lon="11.87382238254245"><ele>42.0</ele><time>2026-03-24T13:05:47Z</time></trkpt><trkpt lat="45.66649706464985" lon="11.873595857670063"><ele>42.0</ele><time>2026-03-24T13:05:48Z</time></trkpt><trkpt lat="45.66650900761674" lon="11.87335767879708"><ele>42.0</ele><time>2026-03-24T13:05:49Z</time></trkpt><trkpt lat="45.666534039299805" lon="11.873106289706572"><ele>42.0</ele><time>2026-03-24T13:05:50Z</time></trkpt><trkpt lat="45.66656733091783" lon="11.872844326105529"><ele>41.333333333333336</ele><time>2026-03-24T13:05:51Z</time></trkpt><trkpt lat="45.666606487485424" lon="11.872564492479311"><ele>40.66666666666667</ele><time>2026-03-24T13:05:52Z</time></trkpt><trkpt lat="45.666654912841494" lon="11.872265088980779"><ele>40.0</ele><time>2026-03-24T13:05:53Z</time></trkpt><trkpt lat="45.66671340653356" lon="11.871936480208298"><ele>41.5</ele><time>2026-03-24T13:05:54Z</time></trkpt><trkpt lat="45.666782056932306" lon="11.87159574478712"><ele>43.0</ele><time>2026-03-24T13:05:55Z</time></trkpt><trkpt lat="45.666854035024095" lon="11.871253718849227"><ele>43.0</ele><time>2026-03-24T13:05:56Z</time></trkpt><trkpt lat="45.66691816274243" lon="11.87090341152385"><ele>43.0</ele><time>2026-03-24T13:05:57Z</time></trkpt><trkpt lat="45.66697799406432" lon="11.870549857904647"><ele>42.5</ele><time>2026-03-24T13:05:58Z</time></trkpt><trkpt lat="45.66703848933945" lon="11.8701962652415"><ele>42.0</ele><time>2026-03-24T13:05:59Z</time></trkpt><trkpt lat="45.667094113431695" lon="11.869838103270453"><ele>42.0</ele><time>2026-03-24T13:06:00Z</time></trkpt><trkpt lat="45.6671483168268" lon="11.869480991398902"><ele>42.0</ele><time>2026-03-24T13:06:01Z</time></trkpt><trkpt lat="45.667200289709996" lon="11.869120461697237"><ele>42.5</ele><time>2026-03-24T13:06:02Z</time></trkpt><trkpt lat="45.667249786779784" lon="11.868776193922237"><ele>43.0</ele><time>2026-03-24T13:06:03Z</time></trkpt><trkpt lat="45.667293253045784" lon="11.868460758498632"><ele>43.333333333333336</ele><time>2026-03-24T13:06:04Z</time></trkpt><trkpt lat="45.667333600932984" lon="11.86816842134064"><ele>43.666666666666664</ele><time>2026-03-24T13:06:05Z</time></trkpt><trkpt lat="45.66738110366259" lon="11.867888050610656"><ele>44.0</ele><time>2026-03-24T13:06:06Z</time></trkpt><trkpt lat="45.667431940869484" lon="11.867621623671202"><ele>44.33333333333333</ele><time>2026-03-24T13:06:07Z</time></trkpt><trkpt lat="45.667479130936066" lon="11.86736620768817"><ele>44.666666666666664</ele><time>2026-03-24T13:06:08Z</time></trkpt><trkpt lat="45.667526952529414" lon="11.867104851254647"><ele>45.0</ele><time>2026-03-24T13:06:09Z</time></trkpt><trkpt lat="45.6675746412169" lon="11.866848019539347"><ele>45.0</ele><time>2026-03-24T13:06:10Z</time></trkpt><trkpt lat="45.66761549300547" lon="11.866608632755804"><ele>45.0</ele><time>2026-03-24T13:06:11Z</time></trkpt><trkpt lat="45.66765471500244" lon="11.866390575324509"><ele>45.0</ele><time>2026-03-24T13:06:12Z</time></trkpt><trkpt lat="45.66768459549828" lon="11.866181881195525"><ele>45.0</ele><time>2026-03-24T13:06:13Z</time></trkpt><trkpt lat="45.66771344233613" lon="11.86598290193535"><ele>45.0</ele><time>2026-03-24T13:06:14Z</time></trkpt><trkpt lat="45.66773839384577" lon="11.865779833230992"><ele>45.0</ele><time>2026-03-24T13:06:15Z</time></trkpt><trkpt lat="45.66776199678888" lon="11.865582423797102"><ele>45.0</ele><time>2026-03-24T13:06:16Z</time></trkpt><trkpt lat="45.66778917793506" lon="11.865383449285044"><ele>44.75</ele><time>2026-03-24T13:06:17Z</time></trkpt><trkpt lat="45.66781679163231" lon="11.865184728166273"><ele>44.5</ele><time>2026-03-24T13:06:18Z</time></trkpt><trkpt lat="45.66784488766659" lon="11.86498724284012"><ele>44.25</ele><time>2026-03-24T13:06:19Z</time></trkpt><trkpt lat="45.66787408365809" lon="11.864786252773275"><ele>44.0</ele><time>2026-03-24T13:06:20Z</time></trkpt><trkpt lat="45.66790018283608" lon="11.8645860078915"><ele>44.0</ele><time>2026-03-24T13:06:21Z</time></trkpt><trkpt lat="45.66792779639103" lon="11.864389036170756"><ele>44.0</ele><time>2026-03-24T13:06:22Z</time></trkpt><trkpt lat="45.66795814991672" lon="11.86417468544768"><ele>44.0</ele><time>2026-03-24T13:06:23Z</time></trkpt><trkpt lat="45.66799721828593" lon="11.863954701284527"><ele>44.33333333333333</ele><time>2026-03-24T13:06:24Z</time></trkpt><trkpt lat="45.668041468869994" lon="11.863723588382515"><ele>44.666666666666664</ele><time>2026-03-24T13:06:25Z</time></trkpt><trkpt lat="45.668091762145124" lon="11.863475184694174"><ele>45.0</ele><time>2026-03-24T13:06:26Z</time></trkpt><trkpt lat="45.66814367247719" lon="11.863220435811362"><ele>45.0</ele><time>2026-03-24T13:06:27Z</time></trkpt><trkpt lat="45.66820007736407" lon="11.862954651376134"><ele>45.0</ele><time>2026-03-24T13:06:28Z</time></trkpt><trkpt lat="45.66825659932741" lon="11.86269348986475"><ele>45.0</ele><time>2026-03-24T13:06:29Z</time></trkpt><trkpt lat="45.66830502969243" lon="11.862439062175548"><ele>45.0</ele><time>2026-03-24T13:06:30Z</time></trkpt><trkpt lat="45.66833996579275" lon="11.86219537179604"><ele>45.0</ele><time>2026-03-24T13:06:31Z</time></trkpt><trkpt lat="45.668356560240774" lon="11.861950260550381"><ele>45.0</ele><time>2026-03-24T13:06:32Z</time></trkpt><trkpt lat="45.66835414590282" lon="11.861702253201729"><ele>45.0</ele><time>2026-03-24T13:06:33Z</time></trkpt><trkpt lat="45.66833384179583" lon="11.861450239637628"><ele>45.0</ele><time>2026-03-24T13:06:34Z</time></trkpt><trkpt lat="45.668296954695876" lon="11.861190046068048"><ele>45.0</ele><time>2026-03-24T13:06:35Z</time></trkpt><trkpt lat="45.66824544783914" lon="11.86092615676196"><ele>45.0</ele><time>2026-03-24T13:06:36Z</time></trkpt><trkpt lat="45.6681908460237" lon="11.860658351301108"><ele>45.0</ele><time>2026-03-24T13:06:37Z</time></trkpt><trkpt lat="45.66813960890079" lon="11.860387030696295"><ele>45.0</ele><time>2026-03-24T13:06:38Z</time></trkpt><trkpt lat="45.66809455647148" lon="11.860102521640565"><ele>45.0</ele><time>2026-03-24T13:06:39Z</time></trkpt><trkpt lat="45.66805230250395" lon="11.859823802743362"><ele>45.0</ele><time>2026-03-24T13:06:40Z</time></trkpt><trkpt lat="45.66801348063195" lon="11.859569627132656"><ele>45.0</ele><time>2026-03-24T13:06:41Z</time></trkpt><trkpt lat="45.66797238789626" lon="11.859324776226908"><ele>44.666666666666664</ele><time>2026-03-24T13:06:42Z</time></trkpt><trkpt lat="45.66793629612686" lon="11.859080039009527"><ele>44.33333333333333</ele><time>2026-03-24T13:06:43Z</time></trkpt><trkpt lat="45.66790243767346" lon="11.858851772630254"><ele>44.0</ele><time>2026-03-24T13:06:44Z</time></trkpt><trkpt lat="45.667874505214996" lon="11.858637317282314"><ele>44.0</ele><time>2026-03-24T13:06:45Z</time></trkpt><trkpt lat="45.66784603627246" lon="11.8584333918245"><ele>44.0</ele><time>2026-03-24T13:06:46Z</time></trkpt><trkpt lat="45.667819213723476" lon="11.858245179622086"><ele>44.0</ele><time>2026-03-24T13:06:47Z</time></trkpt><trkpt lat="45.6677910939557" lon="11.858066797224039"><ele>44.0</ele><time>2026-03-24T13:06:48Z</time></trkpt><trkpt lat="45.66777193603868" lon="11.857906382731601"><ele>44.2</ele><time>2026-03-24T13:06:49Z</time></trkpt><trkpt lat="45.66775291274756" lon="11.857758570460257"><ele>44.400000000000006</ele><time>2026-03-24T13:06:50Z</time></trkpt><trkpt lat="45.66772825121067" lon="11.857621160586293"><ele>44.6</ele><time>2026-03-24T13:06:51Z</time></trkpt><trkpt lat="45.66771712147628" lon="11.85749089025867"><ele>44.8</ele><time>2026-03-24T13:06:52Z</time></trkpt><trkpt lat="45.66770388916785" lon="11.857367205194958"><ele>45.0</ele><time>2026-03-24T13:06:53Z</time></trkpt><trkpt lat="45.667689742833375" lon="11.857257489772676"><ele>45.0</ele><time>2026-03-24T13:06:54Z</time></trkpt><trkpt lat="45.66767944993854" lon="11.857158728599144"><ele>45.0</ele><time>2026-03-24T13:06:55Z</time></trkpt><trkpt lat="45.667657505739136" lon="11.85699492344537"><ele>45.0</ele><time>2026-03-24T13:06:57Z</time></trkpt><trkpt lat="45.667624915929885" lon="11.856852229978088"><ele>45.0</ele><time>2026-03-24T13:06:59Z</time></trkpt><trkpt lat="45.667604765990056" lon="11.85676681251064"><ele>45.0</ele><time>2026-03-24T13:07:00Z</time></trkpt><trkpt lat="45.667596758631014" lon="11.856666560570433"><ele>45.0</ele><time>2026-03-24T13:07:01Z</time></trkpt><trkpt lat="45.66759298464797" lon="11.856567871626421"><ele>45.0</ele><time>2026-03-24T13:07:02Z</time></trkpt><trkpt lat="45.66759646538999" lon="11.856425188630737"><ele>45.0</ele><time>2026-03-24T13:07:04Z</time></trkpt><trkpt lat="45.667595386774856" lon="11.856322280622276"><ele>45.0</ele><time>2026-03-24T13:07:07Z</time></trkpt><trkpt lat="45.667605306882024" lon="11.856214068795476"><ele>45.0</ele><time>2026-03-24T13:07:09Z</time></trkpt><trkpt lat="45.667625966519715" lon="11.856126135753778"><ele>45.0</ele><time>2026-03-24T13:07:10Z</time></trkpt><trkpt lat="45.667672636820114" lon="11.856025427724678"><ele>45.0</ele><time>2026-03-24T13:07:11Z</time></trkpt><trkpt lat="45.667707856402764" lon="11.855902239296395"><ele>45.2</ele><time>2026-03-24T13:07:12Z</time></trkpt><trkpt lat="45.667748107657815" lon="11.855777473837003"><ele>45.4</ele><time>2026-03-24T13:07:13Z</time></trkpt><trkpt lat="45.66781219472063" lon="11.855659489952867"><ele>45.599999999999994</ele><time>2026-03-24T13:07:14Z</time></trkpt><trkpt lat="45.66789904392532" lon="11.855571819766196"><ele>45.8</ele><time>2026-03-24T13:07:15.001Z</time></trkpt><trkpt lat="45.667999888310106" lon="11.855479278718018"><ele>46.0</ele><time>2026-03-24T13:07:16.001Z</time></trkpt><trkpt lat="45.66812108346865" lon="11.855386475267103"><ele>46.66666666666667</ele><time>2026-03-24T13:07:17.001Z</time></trkpt><trkpt lat="45.66826506092969" lon="11.855310015420581"><ele>47.333333333333336</ele><time>2026-03-24T13:07:18.001Z</time></trkpt><trkpt lat="45.668412802874975" lon="11.855237009984437"><ele>48.0</ele><time>2026-03-24T13:07:19.001Z</time></trkpt><trkpt lat="45.668558974607286" lon="11.855169240356474"><ele>48.0</ele><time>2026-03-24T13:07:20.001Z</time></trkpt><trkpt lat="45.66869283957691" lon="11.855099020494508"><ele>48.0</ele><time>2026-03-24T13:07:21.001Z</time></trkpt><trkpt lat="45.668818711063054" lon="11.85503823135402"><ele>48.0</ele><time>2026-03-24T13:07:22.001Z</time></trkpt><trkpt lat="45.66894378571436" lon="11.85497982704665"><ele>48.0</ele><time>2026-03-24T13:07:23.001Z</time></trkpt><trkpt lat="45.66907160669076" lon="11.854918395893597"><ele>48.0</ele><time>2026-03-24T13:07:24.001Z</time></trkpt><trkpt lat="45.66919750912531" lon="11.854849937192478"><ele>48.0</ele><time>2026-03-24T13:07:25.001Z</time></trkpt><trkpt lat="45.66931652204009" lon="11.854778319116498"><ele>48.0</ele><time>2026-03-24T13:07:26.001Z</time></trkpt><trkpt lat="45.66941687157631" lon="11.854691769983527"><ele>48.0</ele><time>2026-03-24T13:07:27Z</time></trkpt><trkpt lat="45.669517985793256" lon="11.854634944732162"><ele>48.0</ele><time>2026-03-24T13:07:28Z</time></trkpt><trkpt lat="45.66961675641112" lon="11.85460952115281"><ele>48.0</ele><time>2026-03-24T13:07:29Z</time></trkpt><trkpt lat="45.66970855836195" lon="11.854599673169968"><ele>48.0</ele><time>2026-03-24T13:07:30Z</time></trkpt><trkpt lat="45.669796387650514" lon="11.854617139736048"><ele>48.0</ele><time>2026-03-24T13:07:31Z</time></trkpt><trkpt lat="45.66987657523678" lon="11.854660113503462"><ele>48.0</ele><time>2026-03-24T13:07:32Z</time></trkpt><trkpt lat="45.66994150227262" lon="11.854720297889621"><ele>48.0</ele><time>2026-03-24T13:07:33Z</time></trkpt><trkpt lat="45.66999759577042" lon="11.854764417851154"><ele>48.0</ele><time>2026-03-24T13:07:34Z</time></trkpt><trkpt lat="45.67006078497492" lon="11.854769139640522"><ele>48.0</ele><time>2026-03-24T13:07:35Z</time></trkpt><trkpt lat="45.670118754650616" lon="11.854714478852829"><ele>48.0</ele><time>2026-03-24T13:07:36Z</time></trkpt><trkpt lat="45.6701588995182" lon="11.854614422936816"><ele>48.0</ele><time>2026-03-24T13:07:37Z</time></trkpt><trkpt lat="45.67017429934574" lon="11.854493352159675"><ele>48.0</ele><time>2026-03-24T13:07:38Z</time></trkpt><trkpt lat="45.67022815466794" lon="11.854395226369048"><ele>48.0</ele><time>2026-03-24T13:07:39Z</time></trkpt><trkpt lat="45.67030713540831" lon="11.854327635424676"><ele>47.75</ele><time>2026-03-24T13:07:40Z</time></trkpt><trkpt lat="45.67040830200691" lon="11.854290049461921"><ele>47.5</ele><time>2026-03-24T13:07:41Z</time></trkpt><trkpt lat="45.67050650820967" lon="11.854235985799182"><ele>47.25</ele><time>2026-03-24T13:07:42Z</time></trkpt><trkpt lat="45.67062907667469" lon="11.85418886372627"><ele>47.0</ele><time>2026-03-24T13:07:43Z</time></trkpt><trkpt lat="45.670752299905395" lon="11.854132240679776"><ele>47.0</ele><time>2026-03-24T13:07:44Z</time></trkpt><trkpt lat="45.670877154625465" lon="11.854084016671836"><ele>47.0</ele><time>2026-03-24T13:07:45Z</time></trkpt><trkpt lat="45.67099754297847" lon="11.854032066667461"><ele>47.0</ele><time>2026-03-24T13:07:46Z</time></trkpt><trkpt lat="45.671128367563526" lon="11.853992329570596"><ele>47.0</ele><time>2026-03-24T13:07:47Z</time></trkpt><trkpt lat="45.67126635512551" lon="11.853950801559797"><ele>46.666666666666664</ele><time>2026-03-24T13:07:48Z</time></trkpt><trkpt lat="45.671422356147474" lon="11.853992496505565"><ele>46.333333333333336</ele><time>2026-03-24T13:07:49Z</time></trkpt><trkpt lat="45.671546345475875" lon="11.853850197171752"><ele>46.0</ele><time>2026-03-24T13:07:50Z</time></trkpt><trkpt lat="45.67168804544373" lon="11.853789537832304"><ele>46.0</ele><time>2026-03-24T13:07:51Z</time></trkpt><trkpt lat="45.6718319428619" lon="11.853733404543254"><ele>46.0</ele><time>2026-03-24T13:07:52Z</time></trkpt><trkpt lat="45.67197817434916" lon="11.853676118307217"><ele>46.0</ele><time>2026-03-24T13:07:53Z</time></trkpt><trkpt lat="45.6721251873426" lon="11.853617836358763"><ele>46.333333333333336</ele><time>2026-03-24T13:07:54Z</time></trkpt><trkpt lat="45.67228334664944" lon="11.853557584937242"><ele>46.666666666666664</ele><time>2026-03-24T13:07:55Z</time></trkpt><trkpt lat="45.67244892612472" lon="11.853497674405839"><ele>47.0</ele><time>2026-03-24T13:07:56Z</time></trkpt><trkpt lat="45.67261928807185" lon="11.853424951291883"><ele>47.666666666666664</ele><time>2026-03-24T13:07:57Z</time></trkpt><trkpt lat="45.6727938019963" lon="11.85334799533658"><ele>48.33333333333333</ele><time>2026-03-24T13:07:58Z</time></trkpt><trkpt lat="45.67296837659145" lon="11.853257286676063"><ele>49.0</ele><time>2026-03-24T13:07:59Z</time></trkpt><trkpt lat="45.67314271912057" lon="11.853147437201505"><ele>49.0</ele><time>2026-03-24T13:08:00Z</time></trkpt><trkpt lat="45.67332090816928" lon="11.85302978265351"><ele>49.0</ele><time>2026-03-24T13:08:01Z</time></trkpt><trkpt lat="45.67350564799497" lon="11.852904529029523"><ele>49.0</ele><time>2026-03-24T13:08:02Z</time></trkpt><trkpt lat="45.6736953214331" lon="11.852767197624386"><ele>49.0</ele><time>2026-03-24T13:08:03Z</time></trkpt><trkpt lat="45.673886762510556" lon="11.852626441227535"><ele>49.0</ele><time>2026-03-24T13:08:04Z</time></trkpt><trkpt lat="45.67408972990278" lon="11.852490943528611"><ele>49.0</ele><time>2026-03-24T13:08:05Z</time></trkpt><trkpt lat="45.674297920655995" lon="11.85235447375637"><ele>49.0</ele><time>2026-03-24T13:08:06Z</time></trkpt><trkpt lat="45.674503551288424" lon="11.852201963482688"><ele>49.0</ele><time>2026-03-24T13:08:07Z</time></trkpt><trkpt lat="45.674712138311705" lon="11.852057942490632"><ele>49.0</ele><time>2026-03-24T13:08:08Z</time></trkpt><trkpt lat="45.67490414201711" lon="11.851911798863155"><ele>49.0</ele><time>2026-03-24T13:08:09Z</time></trkpt><trkpt lat="45.67508398682491" lon="11.851787480608566"><ele>49.0</ele><time>2026-03-24T13:08:10Z</time></trkpt><trkpt lat="45.67526513761049" lon="11.851675464980474"><ele>49.33333333333333</ele><time>2026-03-24T13:08:11Z</time></trkpt><trkpt lat="45.67544315952118" lon="11.851571680322092"><ele>49.66666666666667</ele><time>2026-03-24T13:08:12Z</time></trkpt><trkpt lat="45.67562502172661" lon="11.851460535998713"><ele>50.0</ele><time>2026-03-24T13:08:13Z</time></trkpt><trkpt lat="45.675812525526545" lon="11.851360446150359"><ele>50.0</ele><time>2026-03-24T13:08:14Z</time></trkpt><trkpt lat="45.676002164331145" lon="11.851261831755336"><ele>50.0</ele><time>2026-03-24T13:08:15Z</time></trkpt><trkpt lat="45.67619858644623" lon="11.851164200587812"><ele>50.0</ele><time>2026-03-24T13:08:16Z</time></trkpt><trkpt lat="45.6763991029332" lon="11.851065914555608"><ele>50.0</ele><time>2026-03-24T13:08:17Z</time></trkpt><trkpt lat="45.676600188487306" lon="11.85096171877655"><ele>50.0</ele><time>2026-03-24T13:08:18Z</time></trkpt><trkpt lat="45.67680159624361" lon="11.85084758707495"><ele>50.0</ele><time>2026-03-24T13:08:19Z</time></trkpt><trkpt lat="45.677015762951065" lon="11.850747397416809"><ele>50.0</ele><time>2026-03-24T13:08:20Z</time></trkpt><trkpt lat="45.67723542485567" lon="11.85064987693956"><ele>50.0</ele><time>2026-03-24T13:08:21Z</time></trkpt><trkpt lat="45.67745625254748" lon="11.850550238321802"><ele>50.0</ele><time>2026-03-24T13:08:22Z</time></trkpt><trkpt lat="45.6776685759397" lon="11.8504494291268"><ele>50.0</ele><time>2026-03-24T13:08:23Z</time></trkpt><trkpt lat="45.67786302861113" lon="11.85035467900688"><ele>50.0</ele><time>2026-03-24T13:08:24Z</time></trkpt><trkpt lat="45.67804726996097" lon="11.850269797078704"><ele>50.0</ele><time>2026-03-24T13:08:25Z</time></trkpt><trkpt lat="45.67823007273264" lon="11.850186038730987"><ele>50.0</ele><time>2026-03-24T13:08:26Z</time></trkpt><trkpt lat="45.678414849391885" lon="11.850102486488067"><ele>50.0</ele><time>2026-03-24T13:08:27Z</time></trkpt><trkpt lat="45.67860307927177" lon="11.850014459717643"><ele>50.0</ele><time>2026-03-24T13:08:28Z</time></trkpt><trkpt lat="45.67880043426499" lon="11.84992127975982"><ele>50.0</ele><time>2026-03-24T13:08:29Z</time></trkpt><trkpt lat="45.67901346764174" lon="11.84984968031809"><ele>50.0</ele><time>2026-03-24T13:08:30Z</time></trkpt><trkpt lat="45.67921808510967" lon="11.849780334606743"><ele>50.0</ele><time>2026-03-24T13:08:31Z</time></trkpt><trkpt lat="45.67941021004336" lon="11.849720262504222"><ele>50.0</ele><time>2026-03-24T13:08:32Z</time></trkpt><trkpt lat="45.67958769255346" lon="11.849673909443982"><ele>50.0</ele><time>2026-03-24T13:08:33Z</time></trkpt><trkpt lat="45.67975792095024" lon="11.849618134498577"><ele>50.66666666666667</ele><time>2026-03-24T13:08:34Z</time></trkpt><trkpt lat="45.679930138028" lon="11.84955709995521"><ele>51.33333333333333</ele><time>2026-03-24T13:08:35Z</time></trkpt><trkpt lat="45.68010364439219" lon="11.849493309110713"><ele>52.0</ele><time>2026-03-24T13:08:36Z</time></trkpt><trkpt lat="45.68026347716353" lon="11.849426558773635"><ele>52.0</ele><time>2026-03-24T13:08:37Z</time></trkpt><trkpt lat="45.68040920644613" lon="11.849365903948154"><ele>52.0</ele><time>2026-03-24T13:08:38Z</time></trkpt><trkpt lat="45.680549429654945" lon="11.849307884646322"><ele>52.0</ele><time>2026-03-24T13:08:39Z</time></trkpt><trkpt lat="45.68068591173214" lon="11.849255015824648"><ele>52.0</ele><time>2026-03-24T13:08:40Z</time></trkpt><trkpt lat="45.68082499406849" lon="11.849200162251934"><ele>52.0</ele><time>2026-03-24T13:08:41Z</time></trkpt><trkpt lat="45.68096767389583" lon="11.849140846996626"><ele>52.0</ele><time>2026-03-24T13:08:42Z</time></trkpt><trkpt lat="45.68111424466515" lon="11.84908353964331"><ele>52.0</ele><time>2026-03-24T13:08:43Z</time></trkpt><trkpt lat="45.681269872909134" lon="11.849015184361221"><ele>52.0</ele><time>2026-03-24T13:08:44Z</time></trkpt><trkpt lat="45.681433012962636" lon="11.848951898725717"><ele>52.0</ele><time>2026-03-24T13:08:45Z</time></trkpt><trkpt lat="45.681601809492754" lon="11.848888082400281"><ele>52.0</ele><time>2026-03-24T13:08:46Z</time></trkpt><trkpt lat="45.681772284049686" lon="11.848824070561362"><ele>52.33333333333333</ele><time>2026-03-24T13:08:47Z</time></trkpt><trkpt lat="45.68195170335651" lon="11.848766065519523"><ele>52.66666666666667</ele><time>2026-03-24T13:08:48Z</time></trkpt><trkpt lat="45.68212656849831" lon="11.848690627816957"><ele>53.0</ele><time>2026-03-24T13:08:49Z</time></trkpt><trkpt lat="45.682303287301714" lon="11.848614673445791"><ele>53.0</ele><time>2026-03-24T13:08:50Z</time></trkpt><trkpt lat="45.682470038237625" lon="11.848543321335047"><ele>53.0</ele><time>2026-03-24T13:08:51Z</time></trkpt><trkpt lat="45.68262522086308" lon="11.848485546812075"><ele>53.0</ele><time>2026-03-24T13:08:52Z</time></trkpt><trkpt lat="45.68277351194032" lon="11.848430409104049"><ele>53.25</ele><time>2026-03-24T13:08:53Z</time></trkpt><trkpt lat="45.68290710335894" lon="11.848374562480213"><ele>53.5</ele><time>2026-03-24T13:08:54Z</time></trkpt><trkpt lat="45.68304380028744" lon="11.8483256122087"><ele>53.75</ele><time>2026-03-24T13:08:55Z</time></trkpt><trkpt lat="45.68318522157238" lon="11.848289632386619"><ele>54.0</ele><time>2026-03-24T13:08:56Z</time></trkpt><trkpt lat="45.683335914057004" lon="11.848272643174193"><ele>54.0</ele><time>2026-03-24T13:08:57Z</time></trkpt><trkpt lat="45.683490221020016" lon="11.84827730621725"><ele>54.0</ele><time>2026-03-24T13:08:58Z</time></trkpt><trkpt lat="45.68365106968733" lon="11.848307358455965"><ele>54.0</ele><time>2026-03-24T13:08:59Z</time></trkpt><trkpt lat="45.68383631147969" lon="11.848388558550512"><ele>54.0</ele><time>2026-03-24T13:09:00Z</time></trkpt><trkpt lat="45.68400236636251" lon="11.848425134355246"><ele>54.0</ele><time>2026-03-24T13:09:01Z</time></trkpt><trkpt lat="45.68414828604285" lon="11.84846231581121"><ele>54.0</ele><time>2026-03-24T13:09:02Z</time></trkpt><trkpt lat="45.68429473477787" lon="11.848511922326766"><ele>53.66666666666667</ele><time>2026-03-24T13:09:03Z</time></trkpt><trkpt lat="45.68443469617501" lon="11.848585304168404"><ele>53.333333333333336</ele><time>2026-03-24T13:09:04Z</time></trkpt><trkpt lat="45.684569914805024" lon="11.848685291368696"><ele>53.0</ele><time>2026-03-24T13:09:05Z</time></trkpt><trkpt lat="45.68469935842628" lon="11.848795025368576"><ele>53.0</ele><time>2026-03-24T13:09:06Z</time></trkpt><trkpt lat="45.68483577520392" lon="11.848898509093576"><ele>53.0</ele><time>2026-03-24T13:09:07Z</time></trkpt><trkpt lat="45.684982962728135" lon="11.848985759982025"><ele>53.0</ele><time>2026-03-24T13:09:08Z</time></trkpt><trkpt lat="45.68513657845983" lon="11.849047360780311"><ele>52.75</ele><time>2026-03-24T13:09:09Z</time></trkpt><trkpt lat="45.68529152540083" lon="11.849086954989495"><ele>52.5</ele><time>2026-03-24T13:09:10Z</time></trkpt><trkpt lat="45.68543094774871" lon="11.849103849918004"><ele>52.25</ele><time>2026-03-24T13:09:11Z</time></trkpt><trkpt lat="45.685561861341284" lon="11.849112062560097"><ele>52.0</ele><time>2026-03-24T13:09:12Z</time></trkpt><trkpt lat="45.685680382433496" lon="11.84912419990782"><ele>52.0</ele><time>2026-03-24T13:09:13Z</time></trkpt><trkpt lat="45.685788978312836" lon="11.849134457551564"><ele>52.0</ele><time>2026-03-24T13:09:14Z</time></trkpt><trkpt lat="45.68587842549331" lon="11.849141355386775"><ele>52.0</ele><time>2026-03-24T13:09:15Z</time></trkpt><trkpt lat="45.68594895889466" lon="11.849148430521145"><ele>52.0</ele><time>2026-03-24T13:09:16Z</time></trkpt><trkpt lat="45.686072988313356" lon="11.849165425037002"><ele>52.0</ele><time>2026-03-24T13:09:18Z</time></trkpt><trkpt lat="45.686187729465" lon="11.849151679862919"><ele>52.49999999999999</ele><time>2026-03-24T13:09:20Z</time></trkpt><trkpt lat="45.68626285732147" lon="11.849148437651504"><ele>53.0</ele><time>2026-03-24T13:09:21Z</time></trkpt><trkpt lat="45.68633969422885" lon="11.849140930535395"><ele>53.5</ele><time>2026-03-24T13:09:22Z</time></trkpt><trkpt lat="45.68642202705197" lon="11.849137479534422"><ele>54.0</ele><time>2026-03-24T13:09:23Z</time></trkpt><trkpt lat="45.68650143231328" lon="11.849120670897749"><ele>54.49999999999999</ele><time>2026-03-24T13:09:24Z</time></trkpt><trkpt lat="45.68656797316158" lon="11.849108534392224"><ele>55.0</ele><time>2026-03-24T13:09:25Z</time></trkpt><trkpt lat="45.68663619581026" lon="11.849087237052267"><ele>55.0</ele><time>2026-03-24T13:09:26Z</time></trkpt><trkpt lat="45.68671674582114" lon="11.849072915805138"><ele>55.0</ele><time>2026-03-24T13:09:27Z</time></trkpt><trkpt lat="45.68680437565135" lon="11.849059981463776"><ele>55.0</ele><time>2026-03-24T13:09:28Z</time></trkpt><trkpt lat="45.68690356346511" lon="11.849048421370384"><ele>55.0</ele><time>2026-03-24T13:09:29Z</time></trkpt><trkpt lat="45.687014708087716" lon="11.849033217051531"><ele>55.0</ele><time>2026-03-24T13:09:30Z</time></trkpt><trkpt lat="45.68713026013195" lon="11.849010236884114"><ele>55.25</ele><time>2026-03-24T13:09:31Z</time></trkpt><trkpt lat="45.68725318406464" lon="11.84898757137376"><ele>55.5</ele><time>2026-03-24T13:09:32Z</time></trkpt><trkpt lat="45.687385392846444" lon="11.848963978640723"><ele>55.75</ele><time>2026-03-24T13:09:33Z</time></trkpt><trkpt lat="45.687521523603806" lon="11.84893265575716"><ele>56.0</ele><time>2026-03-24T13:09:34Z</time></trkpt><trkpt lat="45.68766665663378" lon="11.848903191213429"><ele>55.66666666666667</ele><time>2026-03-24T13:09:35Z</time></trkpt><trkpt lat="45.68782047143729" lon="11.848881172913217"><ele>55.33333333333333</ele><time>2026-03-24T13:09:36Z</time></trkpt><trkpt lat="45.68797876491591" lon="11.84884844688058"><ele>55.0</ele><time>2026-03-24T13:09:37Z</time></trkpt><trkpt lat="45.688136460441676" lon="11.84881594073685"><ele>55.0</ele><time>2026-03-24T13:09:38Z</time></trkpt><trkpt lat="45.688283792643816" lon="11.848783804032001"><ele>55.0</ele><time>2026-03-24T13:09:39Z</time></trkpt><trkpt lat="45.688416957786075" lon="11.848751733049012"><ele>55.0</ele><time>2026-03-24T13:09:40Z</time></trkpt><trkpt lat="45.68854151470139" lon="11.848724154751647"><ele>55.0</ele><time>2026-03-24T13:09:41Z</time></trkpt><trkpt lat="45.68865770538111" lon="11.848703046618915"><ele>55.166666666666664</ele><time>2026-03-24T13:09:42Z</time></trkpt><trkpt lat="45.68876325472104" lon="11.848682486662529"><ele>55.33333333333333</ele><time>2026-03-24T13:09:43Z</time></trkpt><trkpt lat="45.68885631262101" lon="11.848663193935908"><ele>55.5</ele><time>2026-03-24T13:09:44Z</time></trkpt><trkpt lat="45.68893252014016" lon="11.848658690312236"><ele>55.66666666666667</ele><time>2026-03-24T13:09:45Z</time></trkpt><trkpt lat="45.68900829706331" lon="11.848680197816128"><ele>55.833333333333336</ele><time>2026-03-24T13:09:46Z</time></trkpt><trkpt lat="45.68907347313693" lon="11.84871492854122"><ele>56.0</ele><time>2026-03-24T13:09:47Z</time></trkpt><trkpt lat="45.689132664441445" lon="11.848749741623818"><ele>56.0</ele><time>2026-03-24T13:09:48Z</time></trkpt><trkpt lat="45.68919663052649" lon="11.848754291106319"><ele>55.99999999999999</ele><time>2026-03-24T13:09:49Z</time></trkpt><trkpt lat="45.68927780070973" lon="11.848656176939722"><ele>55.99999999999999</ele><time>2026-03-24T13:09:51Z</time></trkpt><trkpt lat="45.689246476420585" lon="11.848480301471007"><ele>56.0</ele><time>2026-03-24T13:09:53Z</time></trkpt><trkpt lat="45.689198315200144" lon="11.848381956621797"><ele>56.0</ele><time>2026-03-24T13:09:54Z</time></trkpt><trkpt lat="45.68914996959118" lon="11.848253456033978"><ele>55.75</ele><time>2026-03-24T13:09:55Z</time></trkpt><trkpt lat="45.68911954897852" lon="11.848099445728717"><ele>55.5</ele><time>2026-03-24T13:09:56Z</time></trkpt><trkpt lat="45.68910090148984" lon="11.847924326259008"><ele>55.25</ele><time>2026-03-24T13:09:57Z</time></trkpt><trkpt lat="45.68908817194695" lon="11.84773178947779"><ele>55.0</ele><time>2026-03-24T13:09:58Z</time></trkpt><trkpt lat="45.689069242465344" lon="11.84753585198685"><ele>54.75</ele><time>2026-03-24T13:09:59Z</time></trkpt><trkpt lat="45.68905131753183" lon="11.847339292537473"><ele>54.5</ele><time>2026-03-24T13:10:00Z</time></trkpt><trkpt lat="45.68902715033989" lon="11.847126183084594"><ele>54.25</ele><time>2026-03-24T13:10:01Z</time></trkpt><trkpt lat="45.68900603415126" lon="11.846899808488741"><ele>54.0</ele><time>2026-03-24T13:10:02Z</time></trkpt><trkpt lat="45.68898924867106" lon="11.846656482907674"><ele>55.0</ele><time>2026-03-24T13:10:03Z</time></trkpt><trkpt lat="45.68897013426566" lon="11.846400882560454"><ele>56.0</ele><time>2026-03-24T13:10:04Z</time></trkpt><trkpt lat="45.688943309121186" lon="11.846133732806827"><ele>57.0</ele><time>2026-03-24T13:10:05Z</time></trkpt><trkpt lat="45.68891816380517" lon="11.8458526043226"><ele>57.0</ele><time>2026-03-24T13:10:06Z</time></trkpt><trkpt lat="45.688894907537005" lon="11.845562952726318"><ele>57.0</ele><time>2026-03-24T13:10:07Z</time></trkpt><trkpt lat="45.68887132597022" lon="11.845271948156473"><ele>57.0</ele><time>2026-03-24T13:10:08Z</time></trkpt><trkpt lat="45.68885212234974" lon="11.84496678678041"><ele>57.0</ele><time>2026-03-24T13:10:09Z</time></trkpt><trkpt lat="45.688835062852554" lon="11.844652792316612"><ele>57.0</ele><time>2026-03-24T13:10:10Z</time></trkpt><trkpt lat="45.68881563460252" lon="11.844326951783927"><ele>57.0</ele><time>2026-03-24T13:10:11Z</time></trkpt><trkpt lat="45.68878782179521" lon="11.843995930192682"><ele>57.0</ele><time>2026-03-24T13:10:12Z</time></trkpt><trkpt lat="45.688755442397095" lon="11.84365680280158"><ele>57.0</ele><time>2026-03-24T13:10:13Z</time></trkpt><trkpt lat="45.68871877082163" lon="11.843345778006404"><ele>57.0</ele><time>2026-03-24T13:10:14Z</time></trkpt><trkpt lat="45.68868930701906" lon="11.843057368534803"><ele>57.0</ele><time>2026-03-24T13:10:15Z</time></trkpt><trkpt lat="45.6886602436499" lon="11.842788588618832"><ele>57.0</ele><time>2026-03-24T13:10:16Z</time></trkpt><trkpt lat="45.688632256507816" lon="11.842543754330972"><ele>57.0</ele><time>2026-03-24T13:10:17Z</time></trkpt><trkpt lat="45.68861018255045" lon="11.842308978462224"><ele>57.0</ele><time>2026-03-24T13:10:18Z</time></trkpt><trkpt lat="45.688583456255806" lon="11.84208538923889"><ele>57.0</ele><time>2026-03-24T13:10:19Z</time></trkpt><trkpt lat="45.68855708343337" lon="11.841860916890935"><ele>56.33333333333333</ele><time>2026-03-24T13:10:20Z</time></trkpt><trkpt lat="45.68852582933173" lon="11.841644722158488"><ele>55.666666666666664</ele><time>2026-03-24T13:10:21Z</time></trkpt><trkpt lat="45.68848960084081" lon="11.841418041619756"><ele>55.0</ele><time>2026-03-24T13:10:22Z</time></trkpt><trkpt lat="45.6884478108586" lon="11.841196610484186"><ele>55.0</ele><time>2026-03-24T13:10:23Z</time></trkpt><trkpt lat="45.6883966326408" lon="11.840973302673083"><ele>55.0</ele><time>2026-03-24T13:10:24Z</time></trkpt><trkpt lat="45.688348524266026" lon="11.84074882018308"><ele>55.0</ele><time>2026-03-24T13:10:25Z</time></trkpt><trkpt lat="45.6883001648978" lon="11.840525659736716"><ele>55.33333333333333</ele><time>2026-03-24T13:10:26Z</time></trkpt><trkpt lat="45.68825294465654" lon="11.840300433919868"><ele>55.66666666666667</ele><time>2026-03-24T13:10:27Z</time></trkpt><trkpt lat="45.688210049446965" lon="11.840081445217631"><ele>56.0</ele><time>2026-03-24T13:10:28Z</time></trkpt><trkpt lat="45.688168824551646" lon="11.839865184889659"><ele>56.333333333333336</ele><time>2026-03-24T13:10:29Z</time></trkpt><trkpt lat="45.68813408094458" lon="11.839648324818247"><ele>56.66666666666667</ele><time>2026-03-24T13:10:30Z</time></trkpt><trkpt lat="45.6881086360375" lon="11.839428908721109"><ele>57.0</ele><time>2026-03-24T13:10:31Z</time></trkpt><trkpt lat="45.6880984381871" lon="11.839198228475889"><ele>57.0</ele><time>2026-03-24T13:10:32Z</time></trkpt><trkpt lat="45.68807956667495" lon="11.83896614880502"><ele>57.0</ele><time>2026-03-24T13:10:33Z</time></trkpt><trkpt lat="45.68805783260332" lon="11.83872947481221"><ele>57.0</ele><time>2026-03-24T13:10:34Z</time></trkpt><trkpt lat="45.68802923310898" lon="11.838495718795366"><ele>57.33333333333333</ele><time>2026-03-24T13:10:35Z</time></trkpt><trkpt lat="45.68798187123264" lon="11.838268114337966"><ele>57.666666666666664</ele><time>2026-03-24T13:10:36Z</time></trkpt><trkpt lat="45.687913475058394" lon="11.838031594443356"><ele>58.0</ele><time>2026-03-24T13:10:37Z</time></trkpt><trkpt lat="45.68783972645435" lon="11.83778991559068"><ele>58.33333333333333</ele><time>2026-03-24T13:10:38Z</time></trkpt><trkpt lat="45.68776306421354" lon="11.837535680101285"><ele>58.66666666666667</ele><time>2026-03-24T13:10:39Z</time></trkpt><trkpt lat="45.68769830719033" lon="11.837254817396712"><ele>59.0</ele><time>2026-03-24T13:10:40Z</time></trkpt><trkpt lat="45.68764557346224" lon="11.83696096986195"><ele>58.0</ele><time>2026-03-24T13:10:41Z</time></trkpt><trkpt lat="45.687604890232514" lon="11.83665906414718"><ele>57.0</ele><time>2026-03-24T13:10:42Z</time></trkpt><trkpt lat="45.687557739849964" lon="11.83635255787455"><ele>56.0</ele><time>2026-03-24T13:10:43Z</time></trkpt><trkpt lat="45.687503707147805" lon="11.836040974951196"><ele>55.66666666666667</ele><time>2026-03-24T13:10:44Z</time></trkpt><trkpt lat="45.687452590624666" lon="11.83572913868817"><ele>55.33333333333333</ele><time>2026-03-24T13:10:45Z</time></trkpt><trkpt lat="45.68740514054581" lon="11.835415860528368"><ele>55.0</ele><time>2026-03-24T13:10:46Z</time></trkpt><trkpt lat="45.68736219348021" lon="11.835104406650176"><ele>55.666666666666664</ele><time>2026-03-24T13:10:47Z</time></trkpt><trkpt lat="45.68731633923028" lon="11.834799917903586"><ele>56.33333333333333</ele><time>2026-03-24T13:10:48Z</time></trkpt><trkpt lat="45.68727116633612" lon="11.834496040141454"><ele>57.0</ele><time>2026-03-24T13:10:49Z</time></trkpt><trkpt lat="45.68723219920754" lon="11.834195142584882"><ele>57.0</ele><time>2026-03-24T13:10:50Z</time></trkpt><trkpt lat="45.68718860929914" lon="11.833894410683074"><ele>57.0</ele><time>2026-03-24T13:10:51Z</time></trkpt><trkpt lat="45.68715150925181" lon="11.83359592070198"><ele>57.0</ele><time>2026-03-24T13:10:52Z</time></trkpt><trkpt lat="45.68711176859329" lon="11.83330019459531"><ele>57.0</ele><time>2026-03-24T13:10:52.999Z</time></trkpt><trkpt lat="45.687077941506914" lon="11.833005829264456"><ele>57.0</ele><time>2026-03-24T13:10:53.999Z</time></trkpt><trkpt lat="45.68704193063594" lon="11.832711886683786"><ele>57.0</ele><time>2026-03-24T13:10:54.999Z</time></trkpt><trkpt lat="45.687006116561626" lon="11.83241637772057"><ele>57.0</ele><time>2026-03-24T13:10:55.999Z</time></trkpt><trkpt lat="45.686966425025986" lon="11.83212103323018"><ele>57.0</ele><time>2026-03-24T13:10:56.999Z</time></trkpt><trkpt lat="45.686920713055144" lon="11.831826770428172"><ele>57.0</ele><time>2026-03-24T13:10:57.999Z</time></trkpt><trkpt lat="45.6868756524639" lon="11.831527908076659"><ele>57.0</ele><time>2026-03-24T13:10:58.999Z</time></trkpt><trkpt lat="45.686833924196236" lon="11.831235102295643"><ele>57.0</ele><time>2026-03-24T13:10:59.999Z</time></trkpt><trkpt lat="45.6867936862431" lon="11.830943802601684"><ele>57.0</ele><time>2026-03-24T13:11:00.999Z</time></trkpt><trkpt lat="45.68675887665404" lon="11.83064023380256"><ele>57.0</ele><time>2026-03-24T13:11:01.999Z</time></trkpt><trkpt lat="45.686720978636714" lon="11.830342431910625"><ele>57.0</ele><time>2026-03-24T13:11:02.999Z</time></trkpt><trkpt lat="45.68668364152567" lon="11.830048466664639"><ele>57.0</ele><time>2026-03-24T13:11:03.999Z</time></trkpt><trkpt lat="45.68664191251424" lon="11.829748534168834"><ele>56.33333333333333</ele><time>2026-03-24T13:11:04.999Z</time></trkpt><trkpt lat="45.68660063515595" lon="11.829444861691005"><ele>55.666666666666664</ele><time>2026-03-24T13:11:05.999Z</time></trkpt><trkpt lat="45.68656071610491" lon="11.829137287401622"><ele>55.0</ele><time>2026-03-24T13:11:06.999Z</time></trkpt><trkpt lat="45.68651916949006" lon="11.828823623160462"><ele>56.33333333333333</ele><time>2026-03-24T13:11:07.999Z</time></trkpt><trkpt lat="45.68648111097566" lon="11.828528123741712"><ele>57.66666666666667</ele><time>2026-03-24T13:11:08.999Z</time></trkpt><trkpt lat="45.68644203604435" lon="11.828259413178989"><ele>59.0</ele><time>2026-03-24T13:11:09.999Z</time></trkpt><trkpt lat="45.686409028963915" lon="11.82800967973951"><ele>59.0</ele><time>2026-03-24T13:11:10.999Z</time></trkpt><trkpt lat="45.68638081583131" lon="11.827773370181427"><ele>59.0</ele><time>2026-03-24T13:11:11.999Z</time></trkpt><trkpt lat="45.68635579407633" lon="11.827551849996674"><ele>59.0</ele><time>2026-03-24T13:11:12.999Z</time></trkpt><trkpt lat="45.68633010794097" lon="11.827346345860025"><ele>58.75</ele><time>2026-03-24T13:11:13.999Z</time></trkpt><trkpt lat="45.686303519053055" lon="11.82715382971935"><ele>58.5</ele><time>2026-03-24T13:11:14.999Z</time></trkpt><trkpt lat="45.68627837375266" lon="11.826977252102521"><ele>58.25</ele><time>2026-03-24T13:11:15.999Z</time></trkpt><trkpt lat="45.6862597389644" lon="11.82681758193542"><ele>58.0</ele><time>2026-03-24T13:11:16.999Z</time></trkpt><trkpt lat="45.686237851204844" lon="11.826682974331566"><ele>58.0</ele><time>2026-03-24T13:11:17.999Z</time></trkpt><trkpt lat="45.68621078723166" lon="11.826570562118144"><ele>58.0</ele><time>2026-03-24T13:11:18.999Z</time></trkpt><trkpt lat="45.68617464772657" lon="11.826463121217841"><ele>58.0</ele><time>2026-03-24T13:11:19.999Z</time></trkpt><trkpt lat="45.68612550628921" lon="11.826348022689752"><ele>58.0</ele><time>2026-03-24T13:11:20.999Z</time></trkpt><trkpt lat="45.686044759299136" lon="11.826253541718977"><ele>58.0</ele><time>2026-03-24T13:11:21.999Z</time></trkpt><trkpt lat="45.685927081878376" lon="11.826234729842383"><ele>57.75</ele><time>2026-03-24T13:11:22.999Z</time></trkpt><trkpt lat="45.68580742445179" lon="11.826193366294419"><ele>57.5</ele><time>2026-03-24T13:11:23.999Z</time></trkpt><trkpt lat="45.68568204156502" lon="11.82615774254425"><ele>57.25</ele><time>2026-03-24T13:11:24.999Z</time></trkpt><trkpt lat="45.68557094095267" lon="11.826085018732737"><ele>57.0</ele><time>2026-03-24T13:11:25.999Z</time></trkpt><trkpt lat="45.68549828878385" lon="11.82598745772255"><ele>57.2</ele><time>2026-03-24T13:11:27Z</time></trkpt><trkpt lat="45.68545887178685" lon="11.825871050274694"><ele>57.400000000000006</ele><time>2026-03-24T13:11:28Z</time></trkpt><trkpt lat="45.68543794948319" lon="11.825708736686874"><ele>57.599999999999994</ele><time>2026-03-24T13:11:29Z</time></trkpt><trkpt lat="45.685449030492904" lon="11.825546211684097"><ele>57.8</ele><time>2026-03-24T13:11:30Z</time></trkpt><trkpt lat="45.6855135748644" lon="11.825386850139454"><ele>58.0</ele><time>2026-03-24T13:11:31Z</time></trkpt><trkpt lat="45.685584434272165" lon="11.825242656179762"><ele>58.0</ele><time>2026-03-24T13:11:32Z</time></trkpt><trkpt lat="45.685620500035014" lon="11.825087258890305"><ele>58.0</ele><time>2026-03-24T13:11:33Z</time></trkpt><trkpt lat="45.68566701449581" lon="11.82491926110856"><ele>58.0</ele><time>2026-03-24T13:11:34Z</time></trkpt><trkpt lat="45.68570429061373" lon="11.824737205786901"><ele>58.0</ele><time>2026-03-24T13:11:35Z</time></trkpt><trkpt lat="45.68575098279892" lon="11.824541906162008"><ele>58.0</ele><time>2026-03-24T13:11:36Z</time></trkpt><trkpt lat="45.685812154509" lon="11.824344378997802"><ele>58.0</ele><time>2026-03-24T13:11:37Z</time></trkpt><trkpt lat="45.685865896430165" lon="11.82417361805243"><ele>58.0</ele><time>2026-03-24T13:11:38Z</time></trkpt><trkpt lat="45.68591084204705" lon="11.82402561322967"><ele>58.0</ele><time>2026-03-24T13:11:39Z</time></trkpt><trkpt lat="45.685954504920126" lon="11.823887061432249"><ele>58.25</ele><time>2026-03-24T13:11:40Z</time></trkpt><trkpt lat="45.68600910809294" lon="11.823735238845812"><ele>58.5</ele><time>2026-03-24T13:11:41Z</time></trkpt><trkpt lat="45.68606623485781" lon="11.823555915906185"><ele>58.75</ele><time>2026-03-24T13:11:42Z</time></trkpt><trkpt lat="45.68615416835792" lon="11.823404867165696"><ele>59.0</ele><time>2026-03-24T13:11:43Z</time></trkpt><trkpt lat="45.686235361648926" lon="11.823235582453849"><ele>59.5</ele><time>2026-03-24T13:11:44Z</time></trkpt><trkpt lat="45.68633817749311" lon="11.823089459534149"><ele>60.0</ele><time>2026-03-24T13:11:45Z</time></trkpt><trkpt lat="45.68642262744447" lon="11.822936760112034"><ele>60.5</ele><time>2026-03-24T13:11:46Z</time></trkpt><trkpt lat="45.686520236734744" lon="11.822790338785927"><ele>61.0</ele><time>2026-03-24T13:11:47Z</time></trkpt><trkpt lat="45.68661373219203" lon="11.82264388033596"><ele>61.25</ele><time>2026-03-24T13:11:48Z</time></trkpt><trkpt lat="45.6866931365721" lon="11.822506222584863"><ele>61.5</ele><time>2026-03-24T13:11:49Z</time></trkpt><trkpt lat="45.68678224485005" lon="11.822384874558486"><ele>61.75</ele><time>2026-03-24T13:11:50Z</time></trkpt><trkpt lat="45.68683723002218" lon="11.822261379740304"><ele>62.0</ele><time>2026-03-24T13:11:51Z</time></trkpt><trkpt lat="45.686910374414936" lon="11.82215617667077"><ele>61.6</ele><time>2026-03-24T13:11:52Z</time></trkpt><trkpt lat="45.686972658866104" lon="11.822068435314973"><ele>61.2</ele><time>2026-03-24T13:11:53Z</time></trkpt><trkpt lat="45.68704832443753" lon="11.821984349220093"><ele>60.8</ele><time>2026-03-24T13:11:54Z</time></trkpt><trkpt lat="45.68710561126606" lon="11.821908899473296"><ele>60.4</ele><time>2026-03-24T13:11:55Z</time></trkpt><trkpt lat="45.68719407344437" lon="11.821766547992215"><ele>60.0</ele><time>2026-03-24T13:11:57Z</time></trkpt><trkpt lat="45.68724343840581" lon="11.821700972154408"><ele>60.0</ele><time>2026-03-24T13:11:58Z</time></trkpt><trkpt lat="45.68730406526941" lon="11.821621665823463"><ele>60.0</ele><time>2026-03-24T13:11:59Z</time></trkpt><trkpt lat="45.68738324204246" lon="11.821542260409382"><ele>60.0</ele><time>2026-03-24T13:12:00Z</time></trkpt><trkpt lat="45.68746979264138" lon="11.82145207670018"><ele>60.0</ele><time>2026-03-24T13:12:01Z</time></trkpt><trkpt lat="45.68757052049266" lon="11.82136025695967"><ele>60.0</ele><time>2026-03-24T13:12:02Z</time></trkpt><trkpt lat="45.6876716223926" lon="11.821259557444856"><ele>59.75</ele><time>2026-03-24T13:12:03Z</time></trkpt><trkpt lat="45.68776342138499" lon="11.821154486188943"><ele>59.5</ele><time>2026-03-24T13:12:04Z</time></trkpt><trkpt lat="45.68783753785692" lon="11.821044274056794"><ele>59.25</ele><time>2026-03-24T13:12:05Z</time></trkpt><trkpt lat="45.68788152326171" lon="11.820906414651542"><ele>59.0</ele><time>2026-03-24T13:12:06Z</time></trkpt><trkpt lat="45.687932809981646" lon="11.82074938883538"><ele>59.0</ele><time>2026-03-24T13:12:07Z</time></trkpt><trkpt lat="45.68797679314686" lon="11.820584078815045"><ele>59.0</ele><time>2026-03-24T13:12:08Z</time></trkpt><trkpt lat="45.68802935587518" lon="11.82040533410039"><ele>59.0</ele><time>2026-03-24T13:12:09Z</time></trkpt><trkpt lat="45.68809764151857" lon="11.820232867395141"><ele>59.0</ele><time>2026-03-24T13:12:10Z</time></trkpt><trkpt lat="45.68817652884877" lon="11.820046292588742"><ele>59.0</ele><time>2026-03-24T13:12:11Z</time></trkpt><trkpt lat="45.68826897078771" lon="11.819851152034719"><ele>59.0</ele><time>2026-03-24T13:12:12Z</time></trkpt><trkpt lat="45.68836556955201" lon="11.819664559426117"><ele>59.0</ele><time>2026-03-24T13:12:13Z</time></trkpt><trkpt lat="45.68846899385965" lon="11.819493125640316"><ele>59.0</ele><time>2026-03-24T13:12:14Z</time></trkpt><trkpt lat="45.688559107874724" lon="11.819311565396921"><ele>59.0</ele><time>2026-03-24T13:12:15Z</time></trkpt><trkpt lat="45.68864437043452" lon="11.81914307670394"><ele>59.0</ele><time>2026-03-24T13:12:16Z</time></trkpt><trkpt lat="45.68872107884198" lon="11.818993862678159"><ele>59.0</ele><time>2026-03-24T13:12:17Z</time></trkpt><trkpt lat="45.68879762969484" lon="11.818860607472386"><ele>59.0</ele><time>2026-03-24T13:12:18Z</time></trkpt><trkpt lat="45.688868054265654" lon="11.818731932502857"><ele>59.00000000000001</ele><time>2026-03-24T13:12:19Z</time></trkpt><trkpt lat="45.688925707763964" lon="11.818603944398944"><ele>59.00000000000001</ele><time>2026-03-24T13:12:20Z</time></trkpt><trkpt lat="45.68898733251197" lon="11.818475733227052"><ele>59.0</ele><time>2026-03-24T13:12:21Z</time></trkpt><trkpt lat="45.68905561060682" lon="11.818335333454721"><ele>59.0</ele><time>2026-03-24T13:12:22Z</time></trkpt><trkpt lat="45.68912923129239" lon="11.818194361598852"><ele>58.75</ele><time>2026-03-24T13:12:23Z</time></trkpt><trkpt lat="45.68919698702324" lon="11.81806067555579"><ele>58.5</ele><time>2026-03-24T13:12:24Z</time></trkpt><trkpt lat="45.68927098025451" lon="11.817927497899197"><ele>58.25</ele><time>2026-03-24T13:12:25Z</time></trkpt><trkpt lat="45.689352118088514" lon="11.81779297436606"><ele>58.0</ele><time>2026-03-24T13:12:26Z</time></trkpt><trkpt lat="45.68943371726341" lon="11.817655701429757"><ele>58.75</ele><time>2026-03-24T13:12:27Z</time></trkpt><trkpt lat="45.68951511851442" lon="11.817505958990582"><ele>59.5</ele><time>2026-03-24T13:12:28Z</time></trkpt><trkpt lat="45.689588125763805" lon="11.817350324195978"><ele>60.25</ele><time>2026-03-24T13:12:29Z</time></trkpt><trkpt lat="45.68965136852985" lon="11.81717445683503"><ele>61.0</ele><time>2026-03-24T13:12:30Z</time></trkpt><trkpt lat="45.689720468167025" lon="11.816989771895066"><ele>61.0</ele><time>2026-03-24T13:12:31Z</time></trkpt><trkpt lat="45.68979646428024" lon="11.81682672415537"><ele>61.0</ele><time>2026-03-24T13:12:32Z</time></trkpt><trkpt lat="45.6898653045536" lon="11.816682921952786"><ele>61.0</ele><time>2026-03-24T13:12:33Z</time></trkpt><trkpt lat="45.68993632756924" lon="11.816559868448918"><ele>61.0</ele><time>2026-03-24T13:12:33.999Z</time></trkpt><trkpt lat="45.69003122820671" lon="11.81645949747644"><ele>61.0</ele><time>2026-03-24T13:12:34.999Z</time></trkpt><trkpt lat="45.69014306727594" lon="11.816369517768214"><ele>61.0</ele><time>2026-03-24T13:12:35.999Z</time></trkpt><trkpt lat="45.69028194880672" lon="11.816335555335844"><ele>61.0</ele><time>2026-03-24T13:12:36.999Z</time></trkpt><trkpt lat="45.69041487682283" lon="11.816280210241068"><ele>61.0</ele><time>2026-03-24T13:12:37.999Z</time></trkpt><trkpt lat="45.69053175030803" lon="11.816236048606278"><ele>61.199999999999996</ele><time>2026-03-24T13:12:38.999Z</time></trkpt><trkpt lat="45.69062766666449" lon="11.816198051565"><ele>61.39999999999999</ele><time>2026-03-24T13:12:39.999Z</time></trkpt><trkpt lat="45.69073367263948" lon="11.816155155481805"><ele>61.6</ele><time>2026-03-24T13:12:40.999Z</time></trkpt><trkpt lat="45.690788912284006" lon="11.816084947109596"><ele>61.8</ele><time>2026-03-24T13:12:41.999Z</time></trkpt><trkpt lat="45.690855514382065" lon="11.815999902734628"><ele>62.0</ele><time>2026-03-24T13:12:42.999Z</time></trkpt><trkpt lat="45.690888375275286" lon="11.815864396726662"><ele>62.00000000000001</ele><time>2026-03-24T13:12:43.999Z</time></trkpt><trkpt lat="45.690913479037214" lon="11.815723867378418"><ele>62.0</ele><time>2026-03-24T13:12:44.999Z</time></trkpt><trkpt lat="45.690925221822084" lon="11.81560070221563"><ele>62.0</ele><time>2026-03-24T13:12:45.999Z</time></trkpt><trkpt lat="45.690957128166666" lon="11.815504067511105"><ele>62.0</ele><time>2026-03-24T13:12:46.999Z</time></trkpt><trkpt lat="45.691006030812105" lon="11.81543129115934"><ele>62.00000000000001</ele><time>2026-03-24T13:12:47.999Z</time></trkpt><trkpt lat="45.69107682973082" lon="11.81537714742599"><ele>62.0</ele><time>2026-03-24T13:12:48.999Z</time></trkpt><trkpt lat="45.69116344479541" lon="11.815337324939533"><ele>62.16666666666667</ele><time>2026-03-24T13:12:49.999Z</time></trkpt><trkpt lat="45.691262309471846" lon="11.815311682152936"><ele>62.333333333333336</ele><time>2026-03-24T13:12:50.999Z</time></trkpt><trkpt lat="45.69134471513059" lon="11.81526510514024"><ele>62.5</ele><time>2026-03-24T13:12:51.999Z</time></trkpt><trkpt lat="45.691389031332655" lon="11.815181488211003"><ele>62.66666666666667</ele><time>2026-03-24T13:12:52.999Z</time></trkpt><trkpt lat="45.69141203327848" lon="11.815083436894193"><ele>62.833333333333336</ele><time>2026-03-24T13:12:53.999Z</time></trkpt><trkpt lat="45.691395777859135" lon="11.814976365015474"><ele>63.0</ele><time>2026-03-24T13:12:54.999Z</time></trkpt><trkpt lat="45.691364230953695" lon="11.814844193988304"><ele>63.5</ele><time>2026-03-24T13:12:55.999Z</time></trkpt><trkpt lat="45.69133110305714" lon="11.814687008631248"><ele>64.0</ele><time>2026-03-24T13:12:56.999Z</time></trkpt><trkpt lat="45.69129755095894" lon="11.814505530880488"><ele>64.5</ele><time>2026-03-24T13:12:57.999Z</time></trkpt><trkpt lat="45.6912596864749" lon="11.814310785926326"><ele>65.0</ele><time>2026-03-24T13:12:58.999Z</time></trkpt><trkpt lat="45.69122143781533" lon="11.814105110447562"><ele>65.0</ele><time>2026-03-24T13:12:59.999Z</time></trkpt><trkpt lat="45.691186595341335" lon="11.813927583951626"><ele>65.0</ele><time>2026-03-24T13:13:00.999Z</time></trkpt><trkpt lat="45.691164488402364" lon="11.813762540795361"><ele>65.0</ele><time>2026-03-24T13:13:01.999Z</time></trkpt><trkpt lat="45.691159341026875" lon="11.813617949931666"><ele>65.0</ele><time>2026-03-24T13:13:02.999Z</time></trkpt><trkpt lat="45.69117914836533" lon="11.813464811467624"><ele>65.0</ele><time>2026-03-24T13:13:03.999Z</time></trkpt><trkpt lat="45.69123093882857" lon="11.813323771012254"><ele>65.0</ele><time>2026-03-24T13:13:04.999Z</time></trkpt><trkpt lat="45.6913136615299" lon="11.81319793969001"><ele>65.0</ele><time>2026-03-24T13:13:05.999Z</time></trkpt><trkpt lat="45.69141071745199" lon="11.813071063292043"><ele>65.0</ele><time>2026-03-24T13:13:06.999Z</time></trkpt><trkpt lat="45.69151131677366" lon="11.812926614119366"><ele>65.0</ele><time>2026-03-24T13:13:07.999Z</time></trkpt><trkpt lat="45.69162105679206" lon="11.81277407827706"><ele>65.0</ele><time>2026-03-24T13:13:08.999Z</time></trkpt><trkpt lat="45.69173658914575" lon="11.812612915707225"><ele>65.0</ele><time>2026-03-24T13:13:09.999Z</time></trkpt><trkpt lat="45.69185679703081" lon="11.812441006230324"><ele>64.66666666666667</ele><time>2026-03-24T13:13:10.999Z</time></trkpt><trkpt lat="45.69198240850632" lon="11.812276607072615"><ele>64.33333333333333</ele><time>2026-03-24T13:13:11.999Z</time></trkpt><trkpt lat="45.69213219660547" lon="11.812136786919917"><ele>64.0</ele><time>2026-03-24T13:13:12.999Z</time></trkpt><trkpt lat="45.69227566038404" lon="11.811995923309087"><ele>64.0</ele><time>2026-03-24T13:13:13.999Z</time></trkpt><trkpt lat="45.69239832076524" lon="11.811852145742286"><ele>64.0</ele><time>2026-03-24T13:13:14.999Z</time></trkpt><trkpt lat="45.692509030247756" lon="11.81170376725415"><ele>64.0</ele><time>2026-03-24T13:13:15.999Z</time></trkpt><trkpt lat="45.69261797701131" lon="11.811546432101261"><ele>64.0</ele><time>2026-03-24T13:13:16.999Z</time></trkpt><trkpt lat="45.69272717918453" lon="11.81138692445471"><ele>64.0</ele><time>2026-03-24T13:13:17.999Z</time></trkpt><trkpt lat="45.69283656247933" lon="11.81124695143441"><ele>64.0</ele><time>2026-03-24T13:13:18.999Z</time></trkpt><trkpt lat="45.69294542119686" lon="11.811143117422985"><ele>64.0</ele><time>2026-03-24T13:13:19.999Z</time></trkpt><trkpt lat="45.6930545874886" lon="11.811062645498914"><ele>64.0</ele><time>2026-03-24T13:13:20.999Z</time></trkpt><trkpt lat="45.69316459797694" lon="11.810998814179131"><ele>64.0</ele><time>2026-03-24T13:13:21.999Z</time></trkpt><trkpt lat="45.69328706871361" lon="11.81095771342919"><ele>64.0</ele><time>2026-03-24T13:13:22.999Z</time></trkpt><trkpt lat="45.69341677474159" lon="11.810913876672346"><ele>64.0</ele><time>2026-03-24T13:13:23.999Z</time></trkpt><trkpt lat="45.693538448990495" lon="11.810857327148794"><ele>64.4</ele><time>2026-03-24T13:13:24.999Z</time></trkpt><trkpt lat="45.6936420776399" lon="11.81080247907964"><ele>64.80000000000001</ele><time>2026-03-24T13:13:25.999Z</time></trkpt><trkpt lat="45.693729962104335" lon="11.810735978554025"><ele>65.19999999999999</ele><time>2026-03-24T13:13:26.999Z</time></trkpt><trkpt lat="45.6937988837297" lon="11.810646438710657"><ele>65.6</ele><time>2026-03-24T13:13:27.999Z</time></trkpt><trkpt lat="45.693856285928526" lon="11.810542633375464"><ele>66.0</ele><time>2026-03-24T13:13:28.999Z</time></trkpt><trkpt lat="45.69389459468264" lon="11.810433016394503"><ele>66.0</ele><time>2026-03-24T13:13:29.999Z</time></trkpt><trkpt lat="45.6939106032647" lon="11.810339452629215"><ele>66.0</ele><time>2026-03-24T13:13:30.999Z</time></trkpt><trkpt lat="45.69392606052131" lon="11.81021007454791"><ele>66.0</ele><time>2026-03-24T13:13:33Z</time></trkpt><trkpt lat="45.69393026830594" lon="11.810082425590473"><ele>66.0</ele><time>2026-03-24T13:13:36Z</time></trkpt><trkpt lat="45.69407620383202" lon="11.81003906336426"><ele>66.0</ele><time>2026-03-24T13:13:37Z</time></trkpt><trkpt lat="45.69416602072133" lon="11.810010213084563"><ele>66.2</ele><time>2026-03-24T13:13:38Z</time></trkpt><trkpt lat="45.69425153159838" lon="11.809979713004338"><ele>66.39999999999999</ele><time>2026-03-24T13:13:39Z</time></trkpt><trkpt lat="45.694348616359136" lon="11.809947056658626"><ele>66.6</ele><time>2026-03-24T13:13:40Z</time></trkpt><trkpt lat="45.69444787782826" lon="11.809914396935023"><ele>66.8</ele><time>2026-03-24T13:13:41Z</time></trkpt><trkpt lat="45.69455463072009" lon="11.809883415527239"><ele>67.0</ele><time>2026-03-24T13:13:42Z</time></trkpt><trkpt lat="45.6946754320922" lon="11.809856980447506"><ele>67.0</ele><time>2026-03-24T13:13:43Z</time></trkpt><trkpt lat="45.69480651294904" lon="11.809833036430405"><ele>67.0</ele><time>2026-03-24T13:13:44Z</time></trkpt><trkpt lat="45.69494137836215" lon="11.809814086035137"><ele>67.0</ele><time>2026-03-24T13:13:45Z</time></trkpt><trkpt lat="45.695089954665896" lon="11.809797147438383"><ele>67.0</ele><time>2026-03-24T13:13:46Z</time></trkpt><trkpt lat="45.6952367138676" lon="11.809772663543757"><ele>66.33333333333333</ele><time>2026-03-24T13:13:47Z</time></trkpt><trkpt lat="45.6953844342979" lon="11.809729945213444"><ele>65.66666666666667</ele><time>2026-03-24T13:13:48Z</time></trkpt><trkpt lat="45.695535286821325" lon="11.809703109859436"><ele>65.0</ele><time>2026-03-24T13:13:49Z</time></trkpt><trkpt lat="45.695683092020424" lon="11.809672390112368"><ele>65.0</ele><time>2026-03-24T13:13:50Z</time></trkpt><trkpt lat="45.69583053490821" lon="11.809638804458162"><ele>65.0</ele><time>2026-03-24T13:13:51Z</time></trkpt><trkpt lat="45.6959720110742" lon="11.809598712824931"><ele>65.0</ele><time>2026-03-24T13:13:52Z</time></trkpt><trkpt lat="45.69610564216339" lon="11.809549700391576"><ele>65.0</ele><time>2026-03-24T13:13:53Z</time></trkpt><trkpt lat="45.69623377705694" lon="11.80949633617571"><ele>65.25</ele><time>2026-03-24T13:13:54Z</time></trkpt><trkpt lat="45.696356196358416" lon="11.80944784507908"><ele>65.5</ele><time>2026-03-24T13:13:55Z</time></trkpt><trkpt lat="45.696474910221475" lon="11.809392816517311"><ele>65.75</ele><time>2026-03-24T13:13:56Z</time></trkpt><trkpt lat="45.6965926805868" lon="11.80934611909175"><ele>66.0</ele><time>2026-03-24T13:13:57Z</time></trkpt><trkpt lat="45.6967101940967" lon="11.80930189540311"><ele>66.0</ele><time>2026-03-24T13:13:58Z</time></trkpt><trkpt lat="45.69683049016419" lon="11.809267824505037"><ele>66.0</ele><time>2026-03-24T13:13:59Z</time></trkpt><trkpt lat="45.69694794141239" lon="11.809228399006386"><ele>66.0</ele><time>2026-03-24T13:14:00Z</time></trkpt><trkpt lat="45.69705971603392" lon="11.809184954362507"><ele>66.0</ele><time>2026-03-24T13:14:01Z</time></trkpt><trkpt lat="45.69716728337464" lon="11.809138033101561"><ele>67.0</ele><time>2026-03-24T13:14:02Z</time></trkpt><trkpt lat="45.69727619182299" lon="11.809093195304369"><ele>68.0</ele><time>2026-03-24T13:14:03Z</time></trkpt><trkpt lat="45.697384467973194" lon="11.809055721966931"><ele>69.0</ele><time>2026-03-24T13:14:04Z</time></trkpt><trkpt lat="45.697496006595784" lon="11.809018845979951"><ele>70.0</ele><time>2026-03-24T13:14:05Z</time></trkpt><trkpt lat="45.697611480685275" lon="11.808978470226956"><ele>70.0</ele><time>2026-03-24T13:14:06Z</time></trkpt><trkpt lat="45.697733842287406" lon="11.808930104901483"><ele>70.0</ele><time>2026-03-24T13:14:07Z</time></trkpt><trkpt lat="45.697860827689624" lon="11.808884329327732"><ele>70.0</ele><time>2026-03-24T13:14:08Z</time></trkpt><trkpt lat="45.69799697133602" lon="11.80882349148525"><ele>70.0</ele><time>2026-03-24T13:14:09Z</time></trkpt><trkpt lat="45.698145169013436" lon="11.808772627420273"><ele>70.0</ele><time>2026-03-24T13:14:10Z</time></trkpt><trkpt lat="45.69829553092742" lon="11.8087098061634"><ele>70.0</ele><time>2026-03-24T13:14:11Z</time></trkpt><trkpt lat="45.698448637855414" lon="11.808652807577433"><ele>70.0</ele><time>2026-03-24T13:14:12Z</time></trkpt><trkpt lat="45.698587233377744" lon="11.808605313435946"><ele>69.75</ele><time>2026-03-24T13:14:13Z</time></trkpt><trkpt lat="45.69871029188165" lon="11.808567647642558"><ele>69.5</ele><time>2026-03-24T13:14:14Z</time></trkpt><trkpt lat="45.69883848900221" lon="11.808530198471846"><ele>69.25</ele><time>2026-03-24T13:14:15Z</time></trkpt><trkpt lat="45.698974174826795" lon="11.808474493497856"><ele>69.0</ele><time>2026-03-24T13:14:16Z</time></trkpt><trkpt lat="45.699116461003634" lon="11.808420133770133"><ele>69.0</ele><time>2026-03-24T13:14:17Z</time></trkpt><trkpt lat="45.69926299604251" lon="11.808366085641955"><ele>69.0</ele><time>2026-03-24T13:14:18Z</time></trkpt><trkpt lat="45.69941578071083" lon="11.808325125364107"><ele>69.0</ele><time>2026-03-24T13:14:19Z</time></trkpt><trkpt lat="45.69957923095677" lon="11.80825821795365"><ele>70.0</ele><time>2026-03-24T13:14:20Z</time></trkpt><trkpt lat="45.6997471273279" lon="11.808191619489817"><ele>71.0</ele><time>2026-03-24T13:14:21Z</time></trkpt><trkpt lat="45.69991571031605" lon="11.808130669760702"><ele>72.0</ele><time>2026-03-24T13:14:22Z</time></trkpt><trkpt lat="45.70006249380382" lon="11.808084757403376"><ele>72.0</ele><time>2026-03-24T13:14:23Z</time></trkpt><trkpt lat="45.7001845571364" lon="11.80804273758671"><ele>72.0</ele><time>2026-03-24T13:14:24Z</time></trkpt><trkpt lat="45.70030990071517" lon="11.807999791121778"><ele>72.0</ele><time>2026-03-24T13:14:25Z</time></trkpt><trkpt lat="45.70042736267751" lon="11.80796149548012"><ele>72.0</ele><time>2026-03-24T13:14:26Z</time></trkpt><trkpt lat="45.700539172176335" lon="11.80791364218328"><ele>71.8</ele><time>2026-03-24T13:14:27Z</time></trkpt><trkpt lat="45.700660982773464" lon="11.807880271047637"><ele>71.6</ele><time>2026-03-24T13:14:28Z</time></trkpt><trkpt lat="45.70077558940783" lon="11.807862631470648"><ele>71.39999999999999</ele><time>2026-03-24T13:14:29Z</time></trkpt><trkpt lat="45.70087562111901" lon="11.80787663243383"><ele>71.2</ele><time>2026-03-24T13:14:30Z</time></trkpt><trkpt lat="45.70097037287887" lon="11.807914861406275"><ele>71.0</ele><time>2026-03-24T13:14:31Z</time></trkpt><trkpt lat="45.70107194781282" lon="11.807996628666366"><ele>70.75</ele><time>2026-03-24T13:14:32Z</time></trkpt><trkpt lat="45.7011720110618" lon="11.808098158595122"><ele>70.5</ele><time>2026-03-24T13:14:33Z</time></trkpt><trkpt lat="45.70128296396965" lon="11.80818695325965"><ele>70.25</ele><time>2026-03-24T13:14:34Z</time></trkpt><trkpt lat="45.70140730281068" lon="11.808270516503159"><ele>70.0</ele><time>2026-03-24T13:14:35Z</time></trkpt><trkpt lat="45.70153515230612" lon="11.808351550265725"><ele>70.0</ele><time>2026-03-24T13:14:36Z</time></trkpt><trkpt lat="45.70165806001472" lon="11.80844328780099"><ele>70.0</ele><time>2026-03-24T13:14:37Z</time></trkpt><trkpt lat="45.70179166650653" lon="11.808540741713063"><ele>70.0</ele><time>2026-03-24T13:14:38Z</time></trkpt><trkpt lat="45.70192441758627" lon="11.808635895693435"><ele>70.0</ele><time>2026-03-24T13:14:39Z</time></trkpt><trkpt lat="45.702056627711904" lon="11.808728504633901"><ele>69.5</ele><time>2026-03-24T13:14:40Z</time></trkpt><trkpt lat="45.7021858923368" lon="11.808817873687877"><ele>69.0</ele><time>2026-03-24T13:14:41Z</time></trkpt><trkpt lat="45.702314729241515" lon="11.808908686586514"><ele>68.5</ele><time>2026-03-24T13:14:42Z</time></trkpt><trkpt lat="45.70244042365954" lon="11.808998541598932"><ele>68.0</ele><time>2026-03-24T13:14:43Z</time></trkpt><trkpt lat="45.702566161950195" lon="11.809089830397612"><ele>68.0</ele><time>2026-03-24T13:14:44Z</time></trkpt><trkpt lat="45.702687235233206" lon="11.809175199149326"><ele>68.0</ele><time>2026-03-24T13:14:45Z</time></trkpt><trkpt lat="45.70281307736449" lon="11.809253469607862"><ele>68.0</ele><time>2026-03-24T13:14:46Z</time></trkpt><trkpt lat="45.70295568127153" lon="11.809302988195645"><ele>68.0</ele><time>2026-03-24T13:14:47Z</time></trkpt><trkpt lat="45.70310699201759" lon="11.809324165421792"><ele>68.25</ele><time>2026-03-24T13:14:48Z</time></trkpt><trkpt lat="45.70325599513208" lon="11.809323280545208"><ele>68.5</ele><time>2026-03-24T13:14:49Z</time></trkpt><trkpt lat="45.7033959556053" lon="11.809306009835817"><ele>68.75</ele><time>2026-03-24T13:14:50Z</time></trkpt><trkpt lat="45.70352068389158" lon="11.809281573626045"><ele>69.0</ele><time>2026-03-24T13:14:51Z</time></trkpt><trkpt lat="45.703624311038666" lon="11.809257868129365"><ele>69.33333333333333</ele><time>2026-03-24T13:14:52Z</time></trkpt><trkpt lat="45.70371081292362" lon="11.809237900504678"><ele>69.66666666666667</ele><time>2026-03-24T13:14:53Z</time></trkpt><trkpt lat="45.703789317841974" lon="11.809242369368533"><ele>70.0</ele><time>2026-03-24T13:14:54Z</time></trkpt><trkpt lat="45.70386525536825" lon="11.809282116979752"><ele>70.33333333333334</ele><time>2026-03-24T13:14:55.999Z</time></trkpt><trkpt lat="45.70392998179125" lon="11.809319877481519"><ele>70.66666666666667</ele><time>2026-03-24T13:15:08.999Z</time></trkpt><trkpt lat="45.70400658984559" lon="11.809343783353714"><ele>71.0</ele><time>2026-03-24T13:15:10.999Z</time></trkpt><trkpt lat="45.7040940301237" lon="11.809330918642166"><ele>71.2</ele><time>2026-03-24T13:15:12.999Z</time></trkpt><trkpt lat="45.70418105867638" lon="11.809197495267835"><ele>71.39999999999999</ele><time>2026-03-24T13:15:14.999Z</time></trkpt><trkpt lat="45.70422634886887" lon="11.809102960441102"><ele>71.6</ele><time>2026-03-24T13:15:15.999Z</time></trkpt><trkpt lat="45.70427767021973" lon="11.809002809512629"><ele>71.8</ele><time>2026-03-24T13:15:16.999Z</time></trkpt><trkpt lat="45.704325459246355" lon="11.808895764572213"><ele>72.0</ele><time>2026-03-24T13:15:17.999Z</time></trkpt><trkpt lat="45.70437708973363" lon="11.808776956728787"><ele>72.0</ele><time>2026-03-24T13:15:18.999Z</time></trkpt><trkpt lat="45.70443376675627" lon="11.808646628370829"><ele>72.0</ele><time>2026-03-24T13:15:19.999Z</time></trkpt><trkpt lat="45.70449619805881" lon="11.80851304502144"><ele>72.0</ele><time>2026-03-24T13:15:20.999Z</time></trkpt><trkpt lat="45.704571027342986" lon="11.808384375087236"><ele>72.0</ele><time>2026-03-24T13:15:21.999Z</time></trkpt><trkpt lat="45.704660077563446" lon="11.808269571264065"><ele>72.0</ele><time>2026-03-24T13:15:22.999Z</time></trkpt><trkpt lat="45.70476310665997" lon="11.808177215607596"><ele>72.0</ele><time>2026-03-24T13:15:23.999Z</time></trkpt><trkpt lat="45.704880813256565" lon="11.808116468469173"><ele>72.0</ele><time>2026-03-24T13:15:24.999Z</time></trkpt><trkpt lat="45.70500402255512" lon="11.808077253782445"><ele>72.0</ele><time>2026-03-24T13:15:25.999Z</time></trkpt><trkpt lat="45.705124646987166" lon="11.808047335749832"><ele>72.0</ele><time>2026-03-24T13:15:26.999Z</time></trkpt><trkpt lat="45.70523048829408" lon="11.808003785007367"><ele>72.0</ele><time>2026-03-24T13:15:27.999Z</time></trkpt><trkpt lat="45.705327769855735" lon="11.807967285476636"><ele>72.0</ele><time>2026-03-24T13:15:28.999Z</time></trkpt><trkpt lat="45.7054124259385" lon="11.80794059204502"><ele>72.0</ele><time>2026-03-24T13:15:29.999Z</time></trkpt><trkpt lat="45.70549244236974" lon="11.807935800182683"><ele>72.0</ele><time>2026-03-24T13:15:30.999Z</time></trkpt><trkpt lat="45.70555859730222" lon="11.807896372733424"><ele>72.0</ele><time>2026-03-24T13:15:31.999Z</time></trkpt><trkpt lat="45.70562796915966" lon="11.807883328237272"><ele>72.16666666666667</ele><time>2026-03-24T13:15:32.999Z</time></trkpt><trkpt lat="45.70570134161743" lon="11.807864699817594"><ele>72.33333333333333</ele><time>2026-03-24T13:15:33.999Z</time></trkpt><trkpt lat="45.70577463299008" lon="11.80784030677437"><ele>72.5</ele><time>2026-03-24T13:15:34.999Z</time></trkpt><trkpt lat="45.705840588494006" lon="11.80781546841344"><ele>72.66666666666666</ele><time>2026-03-24T13:15:35.999Z</time></trkpt><trkpt lat="45.705944748638785" lon="11.807784849003674"><ele>72.83333333333333</ele><time>2026-03-24T13:15:37.999Z</time></trkpt><trkpt lat="45.70600964139686" lon="11.807761431261099"><ele>73.0</ele><time>2026-03-24T13:15:41Z</time></trkpt><trkpt lat="45.70607907003378" lon="11.807737859786995"><ele>73.0</ele><time>2026-03-24T13:16:12Z</time></trkpt><trkpt lat="45.706154285082036" lon="11.807715330810439"><ele>73.0</ele><time>2026-03-24T13:16:13Z</time></trkpt><trkpt lat="45.706244814965466" lon="11.807679045772389"><ele>73.0</ele><time>2026-03-24T13:16:14Z</time></trkpt><trkpt lat="45.706326294012904" lon="11.807616182835051"><ele>73.0</ele><time>2026-03-24T13:16:15Z</time></trkpt><trkpt lat="45.70641674748483" lon="11.807556198431685"><ele>73.0</ele><time>2026-03-24T13:16:16Z</time></trkpt><trkpt lat="45.70650813015873" lon="11.80749133878283"><ele>73.0</ele><time>2026-03-24T13:16:17Z</time></trkpt><trkpt lat="45.706598557012775" lon="11.807410087699846"><ele>73.0</ele><time>2026-03-24T13:16:18Z</time></trkpt><trkpt lat="45.706693816538184" lon="11.807315258627"><ele>73.0</ele><time>2026-03-24T13:16:19Z</time></trkpt><trkpt lat="45.70679702919524" lon="11.807211618972268"><ele>73.0</ele><time>2026-03-24T13:16:20Z</time></trkpt><trkpt lat="45.706900757555076" lon="11.80709008030732"><ele>72.75</ele><time>2026-03-24T13:16:21Z</time></trkpt><trkpt lat="45.707000263779804" lon="11.806949808130973"><ele>72.5</ele><time>2026-03-24T13:16:22Z</time></trkpt><trkpt lat="45.70709781260627" lon="11.806792742204655"><ele>72.25</ele><time>2026-03-24T13:16:23Z</time></trkpt><trkpt lat="45.70718757419827" lon="11.806619638696807"><ele>72.0</ele><time>2026-03-24T13:16:24Z</time></trkpt><trkpt lat="45.70727263784078" lon="11.806426788305844"><ele>72.66666666666667</ele><time>2026-03-24T13:16:25Z</time></trkpt><trkpt lat="45.70734898591194" lon="11.806206373269493"><ele>73.33333333333334</ele><time>2026-03-24T13:16:26Z</time></trkpt><trkpt lat="45.70741647474916" lon="11.805971013583262"><ele>74.0</ele><time>2026-03-24T13:16:27Z</time></trkpt><trkpt lat="45.70747412839407" lon="11.805724493446867"><ele>74.0</ele><time>2026-03-24T13:16:28Z</time></trkpt><trkpt lat="45.70752465388446" lon="11.805463333089026"><ele>74.0</ele><time>2026-03-24T13:16:29Z</time></trkpt><trkpt lat="45.70757343149729" lon="11.805196790044372"><ele>74.0</ele><time>2026-03-24T13:16:30Z</time></trkpt><trkpt lat="45.70762166823301" lon="11.804924020840858"><ele>73.66666666666667</ele><time>2026-03-24T13:16:31Z</time></trkpt><trkpt lat="45.7076717100091" lon="11.804650124921034"><ele>73.33333333333333</ele><time>2026-03-24T13:16:32Z</time></trkpt><trkpt lat="45.70772192318283" lon="11.804378975314048"><ele>73.0</ele><time>2026-03-24T13:16:33Z</time></trkpt><trkpt lat="45.70776665858137" lon="11.804121045117157"><ele>74.0</ele><time>2026-03-24T13:16:34Z</time></trkpt><trkpt lat="45.7078086092175" lon="11.803881287579296"><ele>75.0</ele><time>2026-03-24T13:16:35Z</time></trkpt><trkpt lat="45.70784880498824" lon="11.803655168085918"><ele>76.0</ele><time>2026-03-24T13:16:36Z</time></trkpt><trkpt lat="45.70788780891226" lon="11.803443405013283"><ele>76.0</ele><time>2026-03-24T13:16:37Z</time></trkpt><trkpt lat="45.707924759698685" lon="11.80323156443575"><ele>76.0</ele><time>2026-03-24T13:16:38Z</time></trkpt><trkpt lat="45.70796209878522" lon="11.803024037194822"><ele>76.0</ele><time>2026-03-24T13:16:39Z</time></trkpt><trkpt lat="45.70799822411481" lon="11.802818831384947"><ele>75.66666666666666</ele><time>2026-03-24T13:16:40Z</time></trkpt><trkpt lat="45.708033539872716" lon="11.802607493671433"><ele>75.33333333333333</ele><time>2026-03-24T13:16:41Z</time></trkpt><trkpt lat="45.708072201855906" lon="11.802394747521909"><ele>75.0</ele><time>2026-03-24T13:16:42Z</time></trkpt><trkpt lat="45.70811251282028" lon="11.802176696596428"><ele>75.0</ele><time>2026-03-24T13:16:43Z</time></trkpt><trkpt lat="45.70816150507806" lon="11.801956278576458"><ele>75.0</ele><time>2026-03-24T13:16:44Z</time></trkpt><trkpt lat="45.708216140193" lon="11.801739225551463"><ele>75.0</ele><time>2026-03-24T13:16:45Z</time></trkpt><trkpt lat="45.708285899283496" lon="11.801516099497983"><ele>75.0</ele><time>2026-03-24T13:16:46Z</time></trkpt><trkpt lat="45.70836599916924" lon="11.801285500150314"><ele>75.0</ele><time>2026-03-24T13:16:47Z</time></trkpt><trkpt lat="45.7084481529911" lon="11.801065928467013"><ele>75.0</ele><time>2026-03-24T13:16:48Z</time></trkpt><trkpt lat="45.7085203383579" lon="11.800875631607068"><ele>75.2</ele><time>2026-03-24T13:16:49Z</time></trkpt><trkpt lat="45.70859536550235" lon="11.800701140224701"><ele>75.4</ele><time>2026-03-24T13:16:50Z</time></trkpt><trkpt lat="45.70866079718395" lon="11.800550869939322"><ele>75.6</ele><time>2026-03-24T13:16:51Z</time></trkpt><trkpt lat="45.7087243254296" lon="11.80044225172197"><ele>75.8</ele><time>2026-03-24T13:16:52Z</time></trkpt><trkpt lat="45.70877792754972" lon="11.800350626757654"><ele>76.0</ele><time>2026-03-24T13:16:53Z</time></trkpt><trkpt lat="45.70881864313734" lon="11.800262742496828"><ele>76.0</ele><time>2026-03-24T13:16:54Z</time></trkpt><trkpt lat="45.7088709930457" lon="11.800158584587841"><ele>76.0</ele><time>2026-03-24T13:16:56Z</time></trkpt><trkpt lat="45.70892645402332" lon="11.800091522286943"><ele>76.0</ele><time>2026-03-24T13:16:59Z</time></trkpt><trkpt lat="45.70903137440225" lon="11.800025249899626"><ele>76.0</ele><time>2026-03-24T13:17:00.999Z</time></trkpt><trkpt lat="45.709173957429904" lon="11.80006110424806"><ele>76.0</ele><time>2026-03-24T13:17:02.999Z</time></trkpt><trkpt lat="45.709255527683894" lon="11.800126749836698"><ele>76.0</ele><time>2026-03-24T13:17:03.999Z</time></trkpt><trkpt lat="45.709322664257726" lon="11.800200483008986"><ele>76.0</ele><time>2026-03-24T13:17:04.999Z</time></trkpt><trkpt lat="45.70939691611216" lon="11.800280655443437"><ele>76.0</ele><time>2026-03-24T13:17:05.999Z</time></trkpt><trkpt lat="45.70948443051188" lon="11.800368324129064"><ele>76.0</ele><time>2026-03-24T13:17:06.999Z</time></trkpt><trkpt lat="45.70956977839294" lon="11.800460926890167"><ele>76.0</ele><time>2026-03-24T13:17:07.999Z</time></trkpt><trkpt lat="45.7096573806746" lon="11.800569954738004"><ele>76.25</ele><time>2026-03-24T13:17:08.999Z</time></trkpt><trkpt lat="45.70974372404527" lon="11.800697414189912"><ele>76.5</ele><time>2026-03-24T13:17:09.999Z</time></trkpt><trkpt lat="45.70982493498124" lon="11.800837847137933"><ele>76.75</ele><time>2026-03-24T13:17:10.999Z</time></trkpt><trkpt lat="45.709901489705594" lon="11.800990112246655"><ele>77.0</ele><time>2026-03-24T13:17:11.999Z</time></trkpt><trkpt lat="45.70998213875286" lon="11.801133532095307"><ele>77.2</ele><time>2026-03-24T13:17:12.999Z</time></trkpt><trkpt lat="45.71006132002442" lon="11.801261039131626"><ele>77.4</ele><time>2026-03-24T13:17:13.999Z</time></trkpt><trkpt lat="45.71013800063856" lon="11.801371168828517"><ele>77.6</ele><time>2026-03-24T13:17:14.999Z</time></trkpt><trkpt lat="45.71021574731733" lon="11.801467259112407"><ele>77.8</ele><time>2026-03-24T13:17:15.999Z</time></trkpt><trkpt lat="45.71030031828183" lon="11.801543410207053"><ele>78.0</ele><time>2026-03-24T13:17:16.999Z</time></trkpt><trkpt lat="45.71040034677305" lon="11.80160666924761"><ele>78.0</ele><time>2026-03-24T13:17:17.999Z</time></trkpt><trkpt lat="45.71051376043317" lon="11.801649051700654"><ele>78.0</ele><time>2026-03-24T13:17:18.999Z</time></trkpt><trkpt lat="45.71063553117158" lon="11.801695882074757"><ele>78.0</ele><time>2026-03-24T13:17:19.999Z</time></trkpt><trkpt lat="45.71076082005372" lon="11.801741194701897"><ele>78.0</ele><time>2026-03-24T13:17:20.999Z</time></trkpt><trkpt lat="45.71088837949862" lon="11.801791296312011"><ele>78.0</ele><time>2026-03-24T13:17:21.999Z</time></trkpt><trkpt lat="45.71102045647345" lon="11.80186796900016"><ele>78.0</ele><time>2026-03-24T13:17:22.999Z</time></trkpt><trkpt lat="45.711153621300014" lon="11.801957800669552"><ele>78.0</ele><time>2026-03-24T13:17:23.999Z</time></trkpt><trkpt lat="45.71127690490164" lon="11.802043825329603"><ele>78.0</ele><time>2026-03-24T13:17:24.999Z</time></trkpt><trkpt lat="45.711396225417474" lon="11.802124407544273"><ele>78.0</ele><time>2026-03-24T13:17:25.999Z</time></trkpt><trkpt lat="45.71150751194366" lon="11.802192400379491"><ele>78.0</ele><time>2026-03-24T13:17:26.999Z</time></trkpt><trkpt lat="45.71160688240028" lon="11.802256669879881"><ele>78.0</ele><time>2026-03-24T13:17:27.999Z</time></trkpt><trkpt lat="45.71169982631526" lon="11.802324236336545"><ele>78.0</ele><time>2026-03-24T13:17:28.999Z</time></trkpt><trkpt lat="45.711792141936066" lon="11.802388875861325"><ele>78.0</ele><time>2026-03-24T13:17:29.999Z</time></trkpt><trkpt lat="45.711891007620046" lon="11.802449386198319"><ele>77.8</ele><time>2026-03-24T13:17:30.999Z</time></trkpt><trkpt lat="45.7119905655838" lon="11.802509293473586"><ele>77.6</ele><time>2026-03-24T13:17:31.999Z</time></trkpt><trkpt lat="45.712083260216815" lon="11.802567222583367"><ele>77.4</ele><time>2026-03-24T13:17:32.999Z</time></trkpt><trkpt lat="45.71218021843797" lon="11.80264039490021"><ele>77.2</ele><time>2026-03-24T13:17:33.999Z</time></trkpt><trkpt lat="45.71227911613682" lon="11.802715803019336"><ele>77.0</ele><time>2026-03-24T13:17:34.999Z</time></trkpt><trkpt lat="45.71237734344341" lon="11.802796314476266"><ele>77.0</ele><time>2026-03-24T13:17:35.999Z</time></trkpt><trkpt lat="45.712475524876844" lon="11.802879020622289"><ele>77.0</ele><time>2026-03-24T13:17:36.999Z</time></trkpt><trkpt lat="45.712580907426265" lon="11.802952534997297"><ele>77.0</ele><time>2026-03-24T13:17:37.999Z</time></trkpt><trkpt lat="45.712692511972435" lon="11.803029254546919"><ele>77.0</ele><time>2026-03-24T13:17:38.999Z</time></trkpt><trkpt lat="45.71280563104807" lon="11.80310611962218"><ele>77.25</ele><time>2026-03-24T13:17:39.999Z</time></trkpt><trkpt lat="45.712916566255466" lon="11.803182054470497"><ele>77.5</ele><time>2026-03-24T13:17:40.999Z</time></trkpt><trkpt lat="45.71303100049798" lon="11.803262701038637"><ele>77.75</ele><time>2026-03-24T13:17:41.999Z</time></trkpt><trkpt lat="45.71313681316615" lon="11.803328025461683"><ele>78.0</ele><time>2026-03-24T13:17:42.999Z</time></trkpt><trkpt lat="45.71322899838117" lon="11.803383199820576"><ele>78.0</ele><time>2026-03-24T13:17:43.999Z</time></trkpt><trkpt lat="45.71332059417069" lon="11.803440815017778"><ele>78.0</ele><time>2026-03-24T13:17:45Z</time></trkpt><trkpt lat="45.713403594729265" lon="11.8034864072865"><ele>78.0</ele><time>2026-03-24T13:17:46Z</time></trkpt><trkpt lat="45.713465742304386" lon="11.803527704652796"><ele>78.0</ele><time>2026-03-24T13:17:47Z</time></trkpt><trkpt lat="45.713527148116604" lon="11.803566323211717"><ele>78.0</ele><time>2026-03-24T13:17:48Z</time></trkpt><trkpt lat="45.71361554072352" lon="11.803656123224883"><ele>78.0</ele><time>2026-03-24T13:17:50Z</time></trkpt><trkpt lat="45.71367848688143" lon="11.803790193691974"><ele>77.83333333333333</ele><time>2026-03-24T13:17:52Z</time></trkpt><trkpt lat="45.713772401481435" lon="11.803780089588873"><ele>77.66666666666667</ele><time>2026-03-24T13:17:54Z</time></trkpt><trkpt lat="45.71378654344689" lon="11.803613603167555"><ele>77.5</ele><time>2026-03-24T13:17:56Z</time></trkpt><trkpt lat="45.71376095301927" lon="11.803524674079124"><ele>77.33333333333334</ele><time>2026-03-24T13:17:57Z</time></trkpt><trkpt lat="45.71374439952139" lon="11.803416692342669"><ele>77.16666666666667</ele><time>2026-03-24T13:17:58Z</time></trkpt><trkpt lat="45.7137409186514" lon="11.803289657337006"><ele>77.0</ele><time>2026-03-24T13:17:59Z</time></trkpt><trkpt lat="45.7137493645603" lon="11.803137792959038"><ele>77.0</ele><time>2026-03-24T13:18:00Z</time></trkpt><trkpt lat="45.71378046922561" lon="11.802943773679914"><ele>77.0</ele><time>2026-03-24T13:18:01Z</time></trkpt><trkpt lat="45.71380783695835" lon="11.80276612986543"><ele>77.0</ele><time>2026-03-24T13:18:02Z</time></trkpt><trkpt lat="45.71383468884316" lon="11.802582891895353"><ele>77.0</ele><time>2026-03-24T13:18:03Z</time></trkpt><trkpt lat="45.71387118021993" lon="11.802389812553496"><ele>76.66666666666667</ele><time>2026-03-24T13:18:04Z</time></trkpt><trkpt lat="45.7139096381515" lon="11.802183269993675"><ele>76.33333333333333</ele><time>2026-03-24T13:18:05Z</time></trkpt><trkpt lat="45.71395028038227" lon="11.8019580174762"><ele>76.0</ele><time>2026-03-24T13:18:06Z</time></trkpt><trkpt lat="45.71399101596105" lon="11.801708345691392"><ele>76.66666666666666</ele><time>2026-03-24T13:18:07Z</time></trkpt><trkpt lat="45.714026779985694" lon="11.801455744304912"><ele>77.33333333333333</ele><time>2026-03-24T13:18:08Z</time></trkpt><trkpt lat="45.71405952159166" lon="11.801193534152816"><ele>78.0</ele><time>2026-03-24T13:18:09Z</time></trkpt><trkpt lat="45.71408789009951" lon="11.800920270677974"><ele>78.33333333333333</ele><time>2026-03-24T13:18:10Z</time></trkpt><trkpt lat="45.71410797216065" lon="11.800658383212348"><ele>78.66666666666666</ele><time>2026-03-24T13:18:11Z</time></trkpt><trkpt lat="45.71411978118897" lon="11.8004167598231"><ele>79.0</ele><time>2026-03-24T13:18:12Z</time></trkpt><trkpt lat="45.71413188823544" lon="11.800189779847125"><ele>79.0</ele><time>2026-03-24T13:18:13Z</time></trkpt><trkpt lat="45.71414345581052" lon="11.799981256628199"><ele>79.0</ele><time>2026-03-24T13:18:14Z</time></trkpt><trkpt lat="45.714154643425644" lon="11.799789169212817"><ele>79.0</ele><time>2026-03-24T13:18:15Z</time></trkpt><trkpt lat="45.71416124879647" lon="11.799602097746964"><ele>79.0</ele><time>2026-03-24T13:18:16Z</time></trkpt><trkpt lat="45.71417750602687" lon="11.799411869709479"><ele>79.0</ele><time>2026-03-24T13:18:17Z</time></trkpt><trkpt lat="45.714193057456285" lon="11.799221325186506"><ele>79.0</ele><time>2026-03-24T13:18:18Z</time></trkpt><trkpt lat="45.714205836871514" lon="11.79902082860331"><ele>79.0</ele><time>2026-03-24T13:18:19Z</time></trkpt><trkpt lat="45.714220458129724" lon="11.798818538260711"><ele>79.0</ele><time>2026-03-24T13:18:20Z</time></trkpt><trkpt lat="45.714231801780095" lon="11.798625091663098"><ele>79.5</ele><time>2026-03-24T13:18:21Z</time></trkpt><trkpt lat="45.714244094529626" lon="11.798427855175797"><ele>80.0</ele><time>2026-03-24T13:18:22Z</time></trkpt><trkpt lat="45.71425838125643" lon="11.798249673373947"><ele>80.5</ele><time>2026-03-24T13:18:23Z</time></trkpt><trkpt lat="45.71427067917503" lon="11.798087947219344"><ele>81.0</ele><time>2026-03-24T13:18:24Z</time></trkpt><trkpt lat="45.714285740124815" lon="11.797938060857138"><ele>81.0</ele><time>2026-03-24T13:18:25Z</time></trkpt><trkpt lat="45.7142930699843" lon="11.797798065989477"><ele>81.0</ele><time>2026-03-24T13:18:26Z</time></trkpt><trkpt lat="45.71430298353146" lon="11.797684860706529"><ele>81.0</ele><time>2026-03-24T13:18:27Z</time></trkpt><trkpt lat="45.71432223393413" lon="11.797594678464401"><ele>81.0</ele><time>2026-03-24T13:18:28Z</time></trkpt><trkpt lat="45.7143599924295" lon="11.797517441283007"><ele>81.0</ele><time>2026-03-24T13:18:29Z</time></trkpt><trkpt lat="45.7144156157761" lon="11.797468557989681"><ele>81.0</ele><time>2026-03-24T13:18:30Z</time></trkpt><trkpt lat="45.714486953232836" lon="11.797437584640171"><ele>81.0</ele><time>2026-03-24T13:18:31Z</time></trkpt><trkpt lat="45.71456981541977" lon="11.797405641090094"><ele>81.0</ele><time>2026-03-24T13:18:32Z</time></trkpt><trkpt lat="45.714667136764184" lon="11.797357327692913"><ele>81.0</ele><time>2026-03-24T13:18:33Z</time></trkpt><trkpt lat="45.714780088630235" lon="11.797303295080212"><ele>81.0</ele><time>2026-03-24T13:18:34Z</time></trkpt><trkpt lat="45.71490453233319" lon="11.797247471680478"><ele>81.0</ele><time>2026-03-24T13:18:35Z</time></trkpt><trkpt lat="45.71503318427839" lon="11.79719263475911"><ele>81.0</ele><time>2026-03-24T13:18:36Z</time></trkpt><trkpt lat="45.71515917850649" lon="11.797138657748256"><ele>81.0</ele><time>2026-03-24T13:18:37Z</time></trkpt><trkpt lat="45.71529030512958" lon="11.797071149623124"><ele>81.0</ele><time>2026-03-24T13:18:38Z</time></trkpt><trkpt lat="45.715415090608694" lon="11.797009729927106"><ele>81.0</ele><time>2026-03-24T13:18:39Z</time></trkpt><trkpt lat="45.715536517046495" lon="11.796941155225898"><ele>81.0</ele><time>2026-03-24T13:18:40Z</time></trkpt><trkpt lat="45.7156713784332" lon="11.796885259057598"><ele>81.0</ele><time>2026-03-24T13:18:41Z</time></trkpt><trkpt lat="45.71581215378286" lon="11.796830652238231"><ele>81.0</ele><time>2026-03-24T13:18:42Z</time></trkpt><trkpt lat="45.71595780611743" lon="11.796769218051011"><ele>81.0</ele><time>2026-03-24T13:18:43Z</time></trkpt><trkpt lat="45.716109557607886" lon="11.796706918531703"><ele>81.33333333333333</ele><time>2026-03-24T13:18:44Z</time></trkpt><trkpt lat="45.71627910794735" lon="11.796662870398874"><ele>81.66666666666666</ele><time>2026-03-24T13:18:45Z</time></trkpt><trkpt lat="45.7164385158989" lon="11.796596766215302"><ele>82.0</ele><time>2026-03-24T13:18:46Z</time></trkpt><trkpt lat="45.71660021889834" lon="11.796520595693078"><ele>82.0</ele><time>2026-03-24T13:18:47Z</time></trkpt><trkpt lat="45.71675448196421" lon="11.796435203109667"><ele>82.0</ele><time>2026-03-24T13:18:48Z</time></trkpt><trkpt lat="45.716924899479444" lon="11.796350448276597"><ele>82.0</ele><time>2026-03-24T13:18:49Z</time></trkpt><trkpt lat="45.71709939700011" lon="11.796270151199474"><ele>82.33333333333333</ele><time>2026-03-24T13:18:50Z</time></trkpt><trkpt lat="45.71728083518385" lon="11.79617293707348"><ele>82.66666666666667</ele><time>2026-03-24T13:18:51Z</time></trkpt><trkpt lat="45.71747080321576" lon="11.796083535642405"><ele>83.0</ele><time>2026-03-24T13:18:52Z</time></trkpt><trkpt lat="45.717657711389904" lon="11.79599216888972"><ele>83.0</ele><time>2026-03-24T13:18:53Z</time></trkpt><trkpt lat="45.71783490925602" lon="11.795902959058429"><ele>83.0</ele><time>2026-03-24T13:18:54Z</time></trkpt><trkpt lat="45.71799649681191" lon="11.795834582750091"><ele>83.0</ele><time>2026-03-24T13:18:55Z</time></trkpt><trkpt lat="45.71815382608283" lon="11.795767795093127"><ele>83.0</ele><time>2026-03-24T13:18:55.999Z</time></trkpt><trkpt lat="45.71829957269863" lon="11.795696980147659"><ele>83.0</ele><time>2026-03-24T13:18:56.999Z</time></trkpt><trkpt lat="45.71843723732877" lon="11.795615672236748"><ele>83.0</ele><time>2026-03-24T13:18:57.999Z</time></trkpt><trkpt lat="45.71858970084491" lon="11.79556013431222"><ele>83.33333333333334</ele><time>2026-03-24T13:18:58.999Z</time></trkpt><trkpt lat="45.71873108864808" lon="11.79548379079561"><ele>83.66666666666667</ele><time>2026-03-24T13:18:59.999Z</time></trkpt><trkpt lat="45.71887399454436" lon="11.795414295153849"><ele>84.0</ele><time>2026-03-24T13:19:00.999Z</time></trkpt><trkpt lat="45.719021154736694" lon="11.795341836067351"><ele>84.0</ele><time>2026-03-24T13:19:01.999Z</time></trkpt><trkpt lat="45.71917569122517" lon="11.795267842053313"><ele>84.0</ele><time>2026-03-24T13:19:02.999Z</time></trkpt><trkpt lat="45.71933158225728" lon="11.795191309660952"><ele>84.0</ele><time>2026-03-24T13:19:03.999Z</time></trkpt><trkpt lat="45.71949029763089" lon="11.795104944453788"><ele>84.0</ele><time>2026-03-24T13:19:04.999Z</time></trkpt><trkpt lat="45.719652876645235" lon="11.795030511271976"><ele>84.0</ele><time>2026-03-24T13:19:05.999Z</time></trkpt><trkpt lat="45.71982057587742" lon="11.794961405449286"><ele>84.0</ele><time>2026-03-24T13:19:06.999Z</time></trkpt><trkpt lat="45.71999397611399" lon="11.794878252422716"><ele>84.0</ele><time>2026-03-24T13:19:07.999Z</time></trkpt><trkpt lat="45.72016862318536" lon="11.794797642920095"><ele>84.0</ele><time>2026-03-24T13:19:08.999Z</time></trkpt><trkpt lat="45.720335029875386" lon="11.794722322596272"><ele>84.0</ele><time>2026-03-24T13:19:09.999Z</time></trkpt><trkpt lat="45.720497450270976" lon="11.794662896629955"><ele>85.33333333333333</ele><time>2026-03-24T13:19:10.999Z</time></trkpt><trkpt lat="45.72064798483016" lon="11.794600823801417"><ele>86.66666666666666</ele><time>2026-03-24T13:19:11.999Z</time></trkpt><trkpt lat="45.720784519620786" lon="11.794525819358714"><ele>88.0</ele><time>2026-03-24T13:19:12.999Z</time></trkpt><trkpt lat="45.72093100455295" lon="11.794475002730362"><ele>87.25</ele><time>2026-03-24T13:19:13.999Z</time></trkpt><trkpt lat="45.72106922317136" lon="11.794413993565778"><ele>86.5</ele><time>2026-03-24T13:19:14.999Z</time></trkpt><trkpt lat="45.7212030945439" lon="11.7943441615013"><ele>85.75</ele><time>2026-03-24T13:19:15.999Z</time></trkpt><trkpt lat="45.72134244594923" lon="11.794286692477295"><ele>85.0</ele><time>2026-03-24T13:19:16.999Z</time></trkpt><trkpt lat="45.72147974720184" lon="11.794227245399378"><ele>85.0</ele><time>2026-03-24T13:19:17.999Z</time></trkpt><trkpt lat="45.72162164072548" lon="11.794176589572814"><ele>85.0</ele><time>2026-03-24T13:19:18.999Z</time></trkpt><trkpt lat="45.721755487033946" lon="11.794120572221408"><ele>85.0</ele><time>2026-03-24T13:19:19.999Z</time></trkpt><trkpt lat="45.7218934465458" lon="11.79406133257483"><ele>85.0</ele><time>2026-03-24T13:19:20.999Z</time></trkpt><trkpt lat="45.722033667776735" lon="11.79399963763781"><ele>85.0</ele><time>2026-03-24T13:19:21.999Z</time></trkpt><trkpt lat="45.7221746954388" lon="11.79393545995917"><ele>85.0</ele><time>2026-03-24T13:19:22.999Z</time></trkpt><trkpt lat="45.72231753313086" lon="11.793873218470159"><ele>85.0</ele><time>2026-03-24T13:19:23.999Z</time></trkpt><trkpt lat="45.72246111998377" lon="11.793810353451722"><ele>85.0</ele><time>2026-03-24T13:19:24.999Z</time></trkpt><trkpt lat="45.7226091962863" lon="11.79374713346592"><ele>85.66666666666666</ele><time>2026-03-24T13:19:25.999Z</time></trkpt><trkpt lat="45.72275968877419" lon="11.793683379762234"><ele>86.33333333333333</ele><time>2026-03-24T13:19:26.999Z</time></trkpt><trkpt lat="45.72291181989347" lon="11.793614624673507"><ele>87.0</ele><time>2026-03-24T13:19:27.999Z</time></trkpt><trkpt lat="45.7230632785845" lon="11.793548131940831"><ele>86.75</ele><time>2026-03-24T13:19:28.999Z</time></trkpt><trkpt lat="45.72320256224319" lon="11.793488642362787"><ele>86.5</ele><time>2026-03-24T13:19:29.999Z</time></trkpt><trkpt lat="45.723333184495665" lon="11.79342548168596"><ele>86.25</ele><time>2026-03-24T13:19:30.999Z</time></trkpt><trkpt lat="45.7234514802496" lon="11.793373046409862"><ele>86.0</ele><time>2026-03-24T13:19:31.999Z</time></trkpt><trkpt lat="45.72355041160991" lon="11.793324338709207"><ele>85.4</ele><time>2026-03-24T13:19:32.999Z</time></trkpt><trkpt lat="45.72363487345196" lon="11.793289234654722"><ele>84.8</ele><time>2026-03-24T13:19:33.999Z</time></trkpt><trkpt lat="45.72371735592865" lon="11.793267820208536"><ele>84.2</ele><time>2026-03-24T13:19:34.999Z</time></trkpt><trkpt lat="45.723790993624895" lon="11.793265782275354"><ele>83.60000000000001</ele><time>2026-03-24T13:19:35.999Z</time></trkpt><trkpt lat="45.72389806314854" lon="11.793289980139464"><ele>83.0</ele><time>2026-03-24T13:19:37.999Z</time></trkpt><trkpt lat="45.72401013174302" lon="11.793332742633503"><ele>83.0</ele><time>2026-03-24T13:19:39.999Z</time></trkpt><trkpt lat="45.72407701167887" lon="11.793320957647618"><ele>83.0</ele><time>2026-03-24T13:19:40.999Z</time></trkpt><trkpt lat="45.72414051659271" lon="11.793276951215306"><ele>83.0</ele><time>2026-03-24T13:19:41.999Z</time></trkpt><trkpt lat="45.72418860544791" lon="11.793196511468917"><ele>83.0</ele><time>2026-03-24T13:19:42.999Z</time></trkpt><trkpt lat="45.724250102275036" lon="11.793127384632289"><ele>83.0</ele><time>2026-03-24T13:19:43.999Z</time></trkpt><trkpt lat="45.72431128131668" lon="11.793069222339662"><ele>83.0</ele><time>2026-03-24T13:19:44.999Z</time></trkpt><trkpt lat="45.72442039361357" lon="11.79299961816004"><ele>83.5</ele><time>2026-03-24T13:19:46.999Z</time></trkpt><trkpt lat="45.72451450888516" lon="11.792960023129739"><ele>84.0</ele><time>2026-03-24T13:19:48.999Z</time></trkpt><trkpt lat="45.724588465385075" lon="11.792927733350055"><ele>84.5</ele><time>2026-03-24T13:19:52Z</time></trkpt><trkpt lat="45.72465696937153" lon="11.792901910880664"><ele>85.0</ele><time>2026-03-24T13:20:36Z</time></trkpt><trkpt lat="45.724725290071035" lon="11.792899564956038"><ele>85.5</ele><time>2026-03-24T13:20:38Z</time></trkpt><trkpt lat="45.72479570493764" lon="11.792878751654621"><ele>86.0</ele><time>2026-03-24T13:20:39Z</time></trkpt><trkpt lat="45.72488361870544" lon="11.792853067558175"><ele>86.0</ele><time>2026-03-24T13:20:40Z</time></trkpt><trkpt lat="45.724974510120376" lon="11.792826854014853"><ele>86.0</ele><time>2026-03-24T13:20:41Z</time></trkpt><trkpt lat="45.725071400980596" lon="11.792775723342888"><ele>86.0</ele><time>2026-03-24T13:20:42Z</time></trkpt><trkpt lat="45.72518540019862" lon="11.792761806769201"><ele>86.0</ele><time>2026-03-24T13:20:43Z</time></trkpt><trkpt lat="45.7253020019307" lon="11.792734365311976"><ele>86.0</ele><time>2026-03-24T13:20:44Z</time></trkpt><trkpt lat="45.72541148532563" lon="11.792705224340816"><ele>86.0</ele><time>2026-03-24T13:20:45Z</time></trkpt><trkpt lat="45.72551031242168" lon="11.7926772377388"><ele>86.0</ele><time>2026-03-24T13:20:46Z</time></trkpt><trkpt lat="45.72560330517497" lon="11.792648728549288"><ele>86.0</ele><time>2026-03-24T13:20:47Z</time></trkpt><trkpt lat="45.725694258518104" lon="11.792622970133198"><ele>86.0</ele><time>2026-03-24T13:20:48Z</time></trkpt><trkpt lat="45.72578709906132" lon="11.79259525182713"><ele>86.0</ele><time>2026-03-24T13:20:49Z</time></trkpt><trkpt lat="45.725887681030564" lon="11.792570461878782"><ele>86.25</ele><time>2026-03-24T13:20:50Z</time></trkpt><trkpt lat="45.72599406326886" lon="11.792545623398285"><ele>86.5</ele><time>2026-03-24T13:20:51Z</time></trkpt><trkpt lat="45.72610787076701" lon="11.792518239634731"><ele>86.75</ele><time>2026-03-24T13:20:52Z</time></trkpt><trkpt lat="45.7262236810081" lon="11.792479259125772"><ele>87.0</ele><time>2026-03-24T13:20:53Z</time></trkpt><trkpt lat="45.726341999091574" lon="11.79244222246172"><ele>87.5</ele><time>2026-03-24T13:20:54Z</time></trkpt><trkpt lat="45.72646502983942" lon="11.792406730439062"><ele>88.0</ele><time>2026-03-24T13:20:55Z</time></trkpt><trkpt lat="45.72658300296542" lon="11.792372359687544"><ele>88.5</ele><time>2026-03-24T13:20:56Z</time></trkpt><trkpt lat="45.72669634177692" lon="11.792341191466672"><ele>89.0</ele><time>2026-03-24T13:20:57Z</time></trkpt><trkpt lat="45.726801862363196" lon="11.792313186050068"><ele>89.0</ele><time>2026-03-24T13:20:58Z</time></trkpt><trkpt lat="45.72690890832058" lon="11.792279986241624"><ele>89.0</ele><time>2026-03-24T13:20:59Z</time></trkpt><trkpt lat="45.72702586909382" lon="11.79224870359315"><ele>89.0</ele><time>2026-03-24T13:21:00Z</time></trkpt><trkpt lat="45.727148202429746" lon="11.792205696522338"><ele>89.0</ele><time>2026-03-24T13:21:01Z</time></trkpt><trkpt lat="45.727278719507744" lon="11.792169404957427"><ele>89.0</ele><time>2026-03-24T13:21:02Z</time></trkpt><trkpt lat="45.727409932088825" lon="11.792134158014782"><ele>89.0</ele><time>2026-03-24T13:21:03Z</time></trkpt><trkpt lat="45.72754441623392" lon="11.792095702801488"><ele>89.0</ele><time>2026-03-24T13:21:04Z</time></trkpt><trkpt lat="45.72767089515233" lon="11.79205983424808"><ele>89.0</ele><time>2026-03-24T13:21:05Z</time></trkpt><trkpt lat="45.72778036339267" lon="11.792022964038285"><ele>89.0</ele><time>2026-03-24T13:21:05.999Z</time></trkpt><trkpt lat="45.727881394016315" lon="11.791989980734499"><ele>89.0</ele><time>2026-03-24T13:21:06.999Z</time></trkpt><trkpt lat="45.727972283037445" lon="11.791954156862522"><ele>89.0</ele><time>2026-03-24T13:21:07.999Z</time></trkpt><trkpt lat="45.72807060715433" lon="11.791923748220633"><ele>89.0</ele><time>2026-03-24T13:21:08.999Z</time></trkpt><trkpt lat="45.728170441795186" lon="11.791886837617817"><ele>89.0</ele><time>2026-03-24T13:21:09.999Z</time></trkpt><trkpt lat="45.72827228645715" lon="11.791851265918703"><ele>89.0</ele><time>2026-03-24T13:21:10.999Z</time></trkpt><trkpt lat="45.72837357777626" lon="11.791805620316534"><ele>89.0</ele><time>2026-03-24T13:21:11.999Z</time></trkpt><trkpt lat="45.72848314237465" lon="11.791753803751606"><ele>89.0</ele><time>2026-03-24T13:21:12.999Z</time></trkpt><trkpt lat="45.72860145463961" lon="11.79170261865383"><ele>89.0</ele><time>2026-03-24T13:21:13.999Z</time></trkpt><trkpt lat="45.728722694968035" lon="11.791645760496387"><ele>89.0</ele><time>2026-03-24T13:21:14.999Z</time></trkpt><trkpt lat="45.728845167164984" lon="11.791595662761173"><ele>89.0</ele><time>2026-03-24T13:21:15.999Z</time></trkpt><trkpt lat="45.72896280924109" lon="11.79153693903673"><ele>89.0</ele><time>2026-03-24T13:21:16.999Z</time></trkpt><trkpt lat="45.72906500239395" lon="11.791474365972158"><ele>89.0</ele><time>2026-03-24T13:21:17.999Z</time></trkpt><trkpt lat="45.72916582276706" lon="11.791434974909906"><ele>89.0</ele><time>2026-03-24T13:21:18.999Z</time></trkpt><trkpt lat="45.72925740217023" lon="11.791391076165507"><ele>89.0</ele><time>2026-03-24T13:21:19.999Z</time></trkpt><trkpt lat="45.72935003127625" lon="11.791353816814643"><ele>89.0</ele><time>2026-03-24T13:21:20.999Z</time></trkpt><trkpt lat="45.729447495039494" lon="11.791314577787501"><ele>89.0</ele><time>2026-03-24T13:21:21.999Z</time></trkpt><trkpt lat="45.72955057308398" lon="11.79127235575696"><ele>89.0</ele><time>2026-03-24T13:21:22.999Z</time></trkpt><trkpt lat="45.72966010318986" lon="11.791224830946634"><ele>89.25</ele><time>2026-03-24T13:21:23.999Z</time></trkpt><trkpt lat="45.72977599709579" lon="11.79117527950459"><ele>89.5</ele><time>2026-03-24T13:21:24.999Z</time></trkpt><trkpt lat="45.72989317327185" lon="11.791117609271534"><ele>89.75</ele><time>2026-03-24T13:21:25.999Z</time></trkpt><trkpt lat="45.73001083954805" lon="11.791062671132417"><ele>90.0</ele><time>2026-03-24T13:21:26.999Z</time></trkpt><trkpt lat="45.730114202130224" lon="11.791014963681437"><ele>90.2</ele><time>2026-03-24T13:21:27.999Z</time></trkpt><trkpt lat="45.73020763882442" lon="11.790968600456031"><ele>90.4</ele><time>2026-03-24T13:21:28.999Z</time></trkpt><trkpt lat="45.73028803483625" lon="11.79093148349339"><ele>90.6</ele><time>2026-03-24T13:21:29.999Z</time></trkpt><trkpt lat="45.73039588223342" lon="11.790881407970556"><ele>90.8</ele><time>2026-03-24T13:21:31.999Z</time></trkpt><trkpt lat="45.73049902552295" lon="11.790835245651916"><ele>91.0</ele><time>2026-03-24T13:21:33.999Z</time></trkpt><trkpt lat="45.73061738517545" lon="11.790782614097129"><ele>91.16666666666666</ele><time>2026-03-24T13:21:35.999Z</time></trkpt><trkpt lat="45.730682258319376" lon="11.790748733260509"><ele>91.33333333333333</ele><time>2026-03-24T13:21:36.999Z</time></trkpt><trkpt lat="45.73075296126636" lon="11.790714640835398"><ele>91.5</ele><time>2026-03-24T13:21:37.999Z</time></trkpt><trkpt lat="45.73083897043324" lon="11.790684475589824"><ele>91.66666666666667</ele><time>2026-03-24T13:21:38.999Z</time></trkpt><trkpt lat="45.73092706720346" lon="11.790648040658668"><ele>91.83333333333334</ele><time>2026-03-24T13:21:39.999Z</time></trkpt><trkpt lat="45.73101917412082" lon="11.790599304060919"><ele>92.0</ele><time>2026-03-24T13:21:40.999Z</time></trkpt><trkpt lat="45.73112204870931" lon="11.79055779288831"><ele>92.5</ele><time>2026-03-24T13:21:41.999Z</time></trkpt><trkpt lat="45.73123122384514" lon="11.790511842823687"><ele>93.0</ele><time>2026-03-24T13:21:42.999Z</time></trkpt><trkpt lat="45.73135101236091" lon="11.790458582469018"><ele>93.5</ele><time>2026-03-24T13:21:43.999Z</time></trkpt><trkpt lat="45.731478393049095" lon="11.790408546753408"><ele>94.0</ele><time>2026-03-24T13:21:44.999Z</time></trkpt><trkpt lat="45.73161662833528" lon="11.790363130215146"><ele>94.0</ele><time>2026-03-24T13:21:45.999Z</time></trkpt><trkpt lat="45.73174838429588" lon="11.790302409102146"><ele>94.0</ele><time>2026-03-24T13:21:46.999Z</time></trkpt><trkpt lat="45.731884658096284" lon="11.790259099332218"><ele>94.0</ele><time>2026-03-24T13:21:47.999Z</time></trkpt><trkpt lat="45.732014299806615" lon="11.790209218435807"><ele>94.0</ele><time>2026-03-24T13:21:48.999Z</time></trkpt><trkpt lat="45.73213628921412" lon="11.790183218125806"><ele>93.80000000000001</ele><time>2026-03-24T13:21:49.999Z</time></trkpt><trkpt lat="45.73225328292443" lon="11.790145940495984"><ele>93.60000000000001</ele><time>2026-03-24T13:21:50.999Z</time></trkpt><trkpt lat="45.73236382593908" lon="11.79011161582044"><ele>93.4</ele><time>2026-03-24T13:21:51.999Z</time></trkpt><trkpt lat="45.73246910187277" lon="11.790077987625041"><ele>93.2</ele><time>2026-03-24T13:21:52.999Z</time></trkpt><trkpt lat="45.73257459925994" lon="11.790049192337401"><ele>93.0</ele><time>2026-03-24T13:21:53.999Z</time></trkpt><trkpt lat="45.732678095551336" lon="11.790014831432874"><ele>92.80000000000001</ele><time>2026-03-24T13:21:54.999Z</time></trkpt><trkpt lat="45.732782555608054" lon="11.789979912937383"><ele>92.6</ele><time>2026-03-24T13:21:55.999Z</time></trkpt><trkpt lat="45.73289167061615" lon="11.789944014795767"><ele>92.4</ele><time>2026-03-24T13:21:57Z</time></trkpt><trkpt lat="45.732998137055" lon="11.78990265740939"><ele>92.19999999999999</ele><time>2026-03-24T13:21:58Z</time></trkpt><trkpt lat="45.73310777114872" lon="11.789857419830133"><ele>92.0</ele><time>2026-03-24T13:21:59Z</time></trkpt><trkpt lat="45.733219608737336" lon="11.789819882066256"><ele>92.0</ele><time>2026-03-24T13:22:00Z</time></trkpt><trkpt lat="45.733334986487925" lon="11.789777733849418"><ele>92.0</ele><time>2026-03-24T13:22:01Z</time></trkpt><trkpt lat="45.73345539523748" lon="11.789735221294139"><ele>92.0</ele><time>2026-03-24T13:22:02Z</time></trkpt><trkpt lat="45.73358269795557" lon="11.789690026763182"><ele>92.0</ele><time>2026-03-24T13:22:03Z</time></trkpt><trkpt lat="45.73371905422699" lon="11.789645322044734"><ele>92.25</ele><time>2026-03-24T13:22:04Z</time></trkpt><trkpt lat="45.73385596845879" lon="11.789601872820791"><ele>92.5</ele><time>2026-03-24T13:22:05Z</time></trkpt><trkpt lat="45.733997906255844" lon="11.789560363724336"><ele>92.75</ele><time>2026-03-24T13:22:06Z</time></trkpt><trkpt lat="45.73413796998407" lon="11.789517342503492"><ele>93.0</ele><time>2026-03-24T13:22:07Z</time></trkpt><trkpt lat="45.73428407609656" lon="11.789476152928676"><ele>93.0</ele><time>2026-03-24T13:22:08Z</time></trkpt><trkpt lat="45.73442911347614" lon="11.789433032371667"><ele>93.0</ele><time>2026-03-24T13:22:09Z</time></trkpt><trkpt lat="45.73456112428258" lon="11.789407462733939"><ele>93.0</ele><time>2026-03-24T13:22:10Z</time></trkpt><trkpt lat="45.734678171421386" lon="11.789379143803725"><ele>93.0</ele><time>2026-03-24T13:22:11Z</time></trkpt><trkpt lat="45.734786976095904" lon="11.789365105288962"><ele>93.0</ele><time>2026-03-24T13:22:12Z</time></trkpt><trkpt lat="45.73489930116829" lon="11.789342756140114"><ele>93.0</ele><time>2026-03-24T13:22:13Z</time></trkpt><trkpt lat="45.735007864248985" lon="11.78931934872881"><ele>93.0</ele><time>2026-03-24T13:22:14Z</time></trkpt><trkpt lat="45.735117305152" lon="11.789300994455683"><ele>93.0</ele><time>2026-03-24T13:22:15Z</time></trkpt><trkpt lat="45.735226518872594" lon="11.789281027475434"><ele>93.0</ele><time>2026-03-24T13:22:16Z</time></trkpt><trkpt lat="45.73533453210964" lon="11.78925973979445"><ele>93.2</ele><time>2026-03-24T13:22:17Z</time></trkpt><trkpt lat="45.735446106194665" lon="11.789243128145515"><ele>93.4</ele><time>2026-03-24T13:22:18Z</time></trkpt><trkpt lat="45.73554873151383" lon="11.789223141499729"><ele>93.60000000000001</ele><time>2026-03-24T13:22:19Z</time></trkpt><trkpt lat="45.7356446648944" lon="11.789205346794635"><ele>93.80000000000001</ele><time>2026-03-24T13:22:20Z</time></trkpt><trkpt lat="45.73572606947419" lon="11.789184669132819"><ele>94.0</ele><time>2026-03-24T13:22:21Z</time></trkpt><trkpt lat="45.735812357654794" lon="11.789169889616804"><ele>94.0</ele><time>2026-03-24T13:22:22Z</time></trkpt><trkpt lat="45.73590976063828" lon="11.789166099935173"><ele>94.0</ele><time>2026-03-24T13:22:23Z</time></trkpt><trkpt lat="45.73601273912748" lon="11.789162547178474"><ele>94.0</ele><time>2026-03-24T13:22:24Z</time></trkpt><trkpt lat="45.73612035433905" lon="11.789143521622618"><ele>94.0</ele><time>2026-03-24T13:22:25Z</time></trkpt><trkpt lat="45.73623334516489" lon="11.789112150775935"><ele>94.0</ele><time>2026-03-24T13:22:26Z</time></trkpt><trkpt lat="45.73634779588872" lon="11.789077935005615"><ele>94.25</ele><time>2026-03-24T13:22:27Z</time></trkpt><trkpt lat="45.73646650911879" lon="11.78903851687011"><ele>94.5</ele><time>2026-03-24T13:22:28Z</time></trkpt><trkpt lat="45.73659032907726" lon="11.789001642190584"><ele>94.75</ele><time>2026-03-24T13:22:29Z</time></trkpt><trkpt lat="45.73672185528825" lon="11.788971220804745"><ele>95.0</ele><time>2026-03-24T13:22:30Z</time></trkpt><trkpt lat="45.7368567023213" lon="11.78893522058106"><ele>95.5</ele><time>2026-03-24T13:22:31Z</time></trkpt><trkpt lat="45.73699550090948" lon="11.788897178062406"><ele>96.0</ele><time>2026-03-24T13:22:32Z</time></trkpt><trkpt lat="45.737131918070716" lon="11.788858068943906"><ele>96.5</ele><time>2026-03-24T13:22:33Z</time></trkpt><trkpt lat="45.737277641797206" lon="11.788817777058107"><ele>97.0</ele><time>2026-03-24T13:22:34Z</time></trkpt><trkpt lat="45.737427540178295" lon="11.788774618824124"><ele>97.0</ele><time>2026-03-24T13:22:35Z</time></trkpt><trkpt lat="45.73758533343412" lon="11.788730668340843"><ele>97.0</ele><time>2026-03-24T13:22:36Z</time></trkpt><trkpt lat="45.73775346510866" lon="11.788686291112363"><ele>97.0</ele><time>2026-03-24T13:22:37Z</time></trkpt><trkpt lat="45.737921901170395" lon="11.788636430563878"><ele>97.0</ele><time>2026-03-24T13:22:38Z</time></trkpt><trkpt lat="45.738098283598674" lon="11.788584525942339"><ele>97.0</ele><time>2026-03-24T13:22:39Z</time></trkpt><trkpt lat="45.73827315043732" lon="11.788539910331837"><ele>97.0</ele><time>2026-03-24T13:22:40Z</time></trkpt><trkpt lat="45.73843221712674" lon="11.788492750710182"><ele>97.0</ele><time>2026-03-24T13:22:41Z</time></trkpt><trkpt lat="45.738581536893875" lon="11.788451817564372"><ele>97.0</ele><time>2026-03-24T13:22:42Z</time></trkpt><trkpt lat="45.73873156290064" lon="11.788405360401685"><ele>97.0</ele><time>2026-03-24T13:22:43Z</time></trkpt><trkpt lat="45.73886743896057" lon="11.788367451944355"><ele>97.0</ele><time>2026-03-24T13:22:44Z</time></trkpt><trkpt lat="45.73898989764507" lon="11.788333246771302"><ele>97.0</ele><time>2026-03-24T13:22:45Z</time></trkpt><trkpt lat="45.739109236578116" lon="11.788297692825317"><ele>97.0</ele><time>2026-03-24T13:22:46Z</time></trkpt><trkpt lat="45.739236775300725" lon="11.78823968662848"><ele>97.0</ele><time>2026-03-24T13:22:47Z</time></trkpt><trkpt lat="45.73939550755638" lon="11.788192389002353"><ele>97.0</ele><time>2026-03-24T13:22:48Z</time></trkpt><trkpt lat="45.73957846030775" lon="11.788121684565144"><ele>97.0</ele><time>2026-03-24T13:22:49Z</time></trkpt><trkpt lat="45.73977971688855" lon="11.788039838941414"><ele>97.0</ele><time>2026-03-24T13:22:50Z</time></trkpt><trkpt lat="45.739977103776276" lon="11.787964693797482"><ele>97.0</ele><time>2026-03-24T13:22:51Z</time></trkpt><trkpt lat="45.74015071681514" lon="11.787897547787985"><ele>97.0</ele><time>2026-03-24T13:22:52Z</time></trkpt><trkpt lat="45.740309410923736" lon="11.787840448072446"><ele>97.0</ele><time>2026-03-24T13:22:53Z</time></trkpt><trkpt lat="45.74045771534209" lon="11.787776711687581"><ele>97.0</ele><time>2026-03-24T13:22:54Z</time></trkpt><trkpt lat="45.74059436677536" lon="11.787721658626005"><ele>97.0</ele><time>2026-03-24T13:22:55Z</time></trkpt><trkpt lat="45.74072645051124" lon="11.787670007440136"><ele>97.0</ele><time>2026-03-24T13:22:56Z</time></trkpt><trkpt lat="45.74084353203064" lon="11.78762072286881"><ele>97.0</ele><time>2026-03-24T13:22:57Z</time></trkpt><trkpt lat="45.74095483680932" lon="11.787577783393187"><ele>97.0</ele><time>2026-03-24T13:22:58Z</time></trkpt><trkpt lat="45.74106865395518" lon="11.78753278266029"><ele>97.0</ele><time>2026-03-24T13:22:59Z</time></trkpt><trkpt lat="45.74119150847941" lon="11.787488643747988"><ele>97.0</ele><time>2026-03-24T13:23:00Z</time></trkpt><trkpt lat="45.74131557728167" lon="11.787439699333833"><ele>97.0</ele><time>2026-03-24T13:23:01Z</time></trkpt><trkpt lat="45.74144389747526" lon="11.787390836777693"><ele>97.0</ele><time>2026-03-24T13:23:02Z</time></trkpt><trkpt lat="45.74157390922225" lon="11.787346554617168"><ele>97.0</ele><time>2026-03-24T13:23:03Z</time></trkpt><trkpt lat="45.74171000012227" lon="11.787296036276977"><ele>97.0</ele><time>2026-03-24T13:23:04Z</time></trkpt><trkpt lat="45.74185075622015" lon="11.787245225012063"><ele>97.0</ele><time>2026-03-24T13:23:05Z</time></trkpt><trkpt lat="45.7419910257944" lon="11.787196957256329"><ele>97.0</ele><time>2026-03-24T13:23:06Z</time></trkpt><trkpt lat="45.742132801339686" lon="11.787148419984332"><ele>97.5</ele><time>2026-03-24T13:23:07Z</time></trkpt><trkpt lat="45.74226914875395" lon="11.787088914667821"><ele>98.0</ele><time>2026-03-24T13:23:08Z</time></trkpt><trkpt lat="45.74240317244202" lon="11.787015896621218"><ele>98.5</ele><time>2026-03-24T13:23:08.999Z</time></trkpt><trkpt lat="45.742534319923124" lon="11.786936975811356"><ele>99.0</ele><time>2026-03-24T13:23:09.999Z</time></trkpt><trkpt lat="45.74266280326954" lon="11.786859420638425"><ele>99.5</ele><time>2026-03-24T13:23:10.999Z</time></trkpt><trkpt lat="45.74279519821618" lon="11.786801285321289"><ele>100.0</ele><time>2026-03-24T13:23:11.999Z</time></trkpt><trkpt lat="45.74292875174241" lon="11.786758490873678"><ele>100.5</ele><time>2026-03-24T13:23:12.999Z</time></trkpt><trkpt lat="45.74306422448374" lon="11.786722152512368"><ele>101.0</ele><time>2026-03-24T13:23:13.999Z</time></trkpt><trkpt lat="45.74320360393429" lon="11.786680578822455"><ele>101.0</ele><time>2026-03-24T13:23:14.999Z</time></trkpt><trkpt lat="45.74334351061434" lon="11.78663340635117"><ele>101.0</ele><time>2026-03-24T13:23:15.999Z</time></trkpt><trkpt lat="45.7434873722767" lon="11.78658949631146"><ele>101.0</ele><time>2026-03-24T13:23:16.999Z</time></trkpt><trkpt lat="45.74362970767547" lon="11.786526214748717"><ele>101.0</ele><time>2026-03-24T13:23:17.999Z</time></trkpt><trkpt lat="45.74377683886283" lon="11.786459533784855"><ele>101.0</ele><time>2026-03-24T13:23:18.999Z</time></trkpt><trkpt lat="45.743925522516356" lon="11.786387704940504"><ele>101.0</ele><time>2026-03-24T13:23:19.999Z</time></trkpt><trkpt lat="45.7440765408164" lon="11.786306699796082"><ele>101.0</ele><time>2026-03-24T13:23:20.999Z</time></trkpt><trkpt lat="45.74423914165654" lon="11.78622260894778"><ele>101.33333333333333</ele><time>2026-03-24T13:23:21.999Z</time></trkpt><trkpt lat="45.7443972544175" lon="11.786149903830523"><ele>101.66666666666666</ele><time>2026-03-24T13:23:22.999Z</time></trkpt><trkpt lat="45.74454319988572" lon="11.786074818319824"><ele>102.0</ele><time>2026-03-24T13:23:23.999Z</time></trkpt><trkpt lat="45.74468057517645" lon="11.786010908178405"><ele>102.25</ele><time>2026-03-24T13:23:24.999Z</time></trkpt><trkpt lat="45.74480981473568" lon="11.785955812287119"><ele>102.5</ele><time>2026-03-24T13:23:25.999Z</time></trkpt><trkpt lat="45.74492892252688" lon="11.785895630394672"><ele>102.75</ele><time>2026-03-24T13:23:26.999Z</time></trkpt><trkpt lat="45.74505059372222" lon="11.78584091759096"><ele>103.0</ele><time>2026-03-24T13:23:27.999Z</time></trkpt><trkpt lat="45.745172690591644" lon="11.785780909088247"><ele>102.75</ele><time>2026-03-24T13:23:28.999Z</time></trkpt><trkpt lat="45.74529480566103" lon="11.785724952501146"><ele>102.5</ele><time>2026-03-24T13:23:29.999Z</time></trkpt><trkpt lat="45.74541830890388" lon="11.785673463921494"><ele>102.25</ele><time>2026-03-24T13:23:30.999Z</time></trkpt><trkpt lat="45.745541134133056" lon="11.78561867807489"><ele>102.0</ele><time>2026-03-24T13:23:31.999Z</time></trkpt><trkpt lat="45.74566629669755" lon="11.785557886741817"><ele>102.0</ele><time>2026-03-24T13:23:32.999Z</time></trkpt><trkpt lat="45.745790321206655" lon="11.785490826752188"><ele>102.0</ele><time>2026-03-24T13:23:33.999Z</time></trkpt><trkpt lat="45.74590023966771" lon="11.785411965001927"><ele>102.0</ele><time>2026-03-24T13:23:34.999Z</time></trkpt><trkpt lat="45.74599753717842" lon="11.785317008548203"><ele>102.0</ele><time>2026-03-24T13:23:35.999Z</time></trkpt><trkpt lat="45.74607272728926" lon="11.785209172703679"><ele>102.19999999999999</ele><time>2026-03-24T13:23:36.999Z</time></trkpt><trkpt lat="45.74612121467183" lon="11.785090566488616"><ele>102.4</ele><time>2026-03-24T13:23:37.999Z</time></trkpt><trkpt lat="45.74615490344714" lon="11.78496840351162"><ele>102.6</ele><time>2026-03-24T13:23:38.999Z</time></trkpt><trkpt lat="45.74617776063534" lon="11.784839946601794"><ele>102.80000000000001</ele><time>2026-03-24T13:23:39.999Z</time></trkpt><trkpt lat="45.74618642179383" lon="11.784701755995494"><ele>103.0</ele><time>2026-03-24T13:23:40.999Z</time></trkpt><trkpt lat="45.74618352653634" lon="11.784553640339839"><ele>103.0</ele><time>2026-03-24T13:23:41.999Z</time></trkpt><trkpt lat="45.74617884195998" lon="11.784396886361437"><ele>103.0</ele><time>2026-03-24T13:23:42.999Z</time></trkpt><trkpt lat="45.746168082995" lon="11.784227291874277"><ele>103.0</ele><time>2026-03-24T13:23:43.999Z</time></trkpt><trkpt lat="45.74615530842915" lon="11.784056292178917"><ele>103.0</ele><time>2026-03-24T13:23:44.999Z</time></trkpt><trkpt lat="45.74614227991864" lon="11.783902498106348"><ele>103.16666666666667</ele><time>2026-03-24T13:23:45.999Z</time></trkpt><trkpt lat="45.74613007405309" lon="11.783758779553661"><ele>103.33333333333334</ele><time>2026-03-24T13:23:46.999Z</time></trkpt><trkpt lat="45.74612534564337" lon="11.783624977180455"><ele>103.5</ele><time>2026-03-24T13:23:47.999Z</time></trkpt><trkpt lat="45.7461273723287" lon="11.783502468431132"><ele>103.66666666666666</ele><time>2026-03-24T13:23:48.999Z</time></trkpt><trkpt lat="45.74614096530961" lon="11.783395705717252"><ele>103.83333333333333</ele><time>2026-03-24T13:23:49.999Z</time></trkpt><trkpt lat="45.74616437827426" lon="11.783306134816144"><ele>104.0</ele><time>2026-03-24T13:23:50.999Z</time></trkpt><trkpt lat="45.74622577399237" lon="11.78316964016099"><ele>104.0</ele><time>2026-03-24T13:23:52.999Z</time></trkpt><trkpt lat="45.74631199661836" lon="11.783053325211823"><ele>104.0</ele><time>2026-03-24T13:23:54.999Z</time></trkpt><trkpt lat="45.746372339211504" lon="11.783004995942976"><ele>104.0</ele><time>2026-03-24T13:23:55.999Z</time></trkpt><trkpt lat="45.74643960532759" lon="11.78295284255702"><ele>104.0</ele><time>2026-03-24T13:23:56.999Z</time></trkpt><trkpt lat="45.746519182122945" lon="11.78289672694429"><ele>104.0</ele><time>2026-03-24T13:23:57.999Z</time></trkpt><trkpt lat="45.74661213205792" lon="11.782831352100574"><ele>104.0</ele><time>2026-03-24T13:23:58.999Z</time></trkpt><trkpt lat="45.746719729836556" lon="11.78278159387497"><ele>104.0</ele><time>2026-03-24T13:23:59.999Z</time></trkpt><trkpt lat="45.7468388013573" lon="11.782761320179382"><ele>104.0</ele><time>2026-03-24T13:24:00.999Z</time></trkpt><trkpt lat="45.74697150087502" lon="11.782770719952234"><ele>104.0</ele><time>2026-03-24T13:24:01.999Z</time></trkpt><trkpt lat="45.747111063349465" lon="11.782785501138532"><ele>104.33333333333333</ele><time>2026-03-24T13:24:02.999Z</time></trkpt><trkpt lat="45.74725484858813" lon="11.782786026494614"><ele>104.66666666666666</ele><time>2026-03-24T13:24:03.999Z</time></trkpt><trkpt lat="45.74741260303611" lon="11.782764118803685"><ele>105.0</ele><time>2026-03-24T13:24:04.999Z</time></trkpt><trkpt lat="45.7475671286943" lon="11.78272031536971"><ele>104.0</ele><time>2026-03-24T13:24:05.999Z</time></trkpt><trkpt lat="45.74772291767234" lon="11.782665929278656"><ele>103.0</ele><time>2026-03-24T13:24:06.999Z</time></trkpt><trkpt lat="45.74787828931306" lon="11.782608336556066"><ele>102.0</ele><time>2026-03-24T13:24:07.999Z</time></trkpt><trkpt lat="45.74802981087458" lon="11.782551232365128"><ele>102.0</ele><time>2026-03-24T13:24:08.999Z</time></trkpt><trkpt lat="45.74816911334543" lon="11.782495823158056"><ele>102.0</ele><time>2026-03-24T13:24:09.999Z</time></trkpt><trkpt lat="45.74829994340183" lon="11.782450622418931"><ele>102.0</ele><time>2026-03-24T13:24:10.999Z</time></trkpt><trkpt lat="45.748425636444914" lon="11.782399579416378"><ele>102.0</ele><time>2026-03-24T13:24:11.999Z</time></trkpt><trkpt lat="45.74856987536203" lon="11.782354545405447"><ele>102.5</ele><time>2026-03-24T13:24:13Z</time></trkpt><trkpt lat="45.74870589755269" lon="11.782301909259143"><ele>103.0</ele><time>2026-03-24T13:24:14Z</time></trkpt><trkpt lat="45.7488243888667" lon="11.782262096141913"><ele>103.5</ele><time>2026-03-24T13:24:15Z</time></trkpt><trkpt lat="45.74892902135211" lon="11.782222010894515"><ele>104.0</ele><time>2026-03-24T13:24:16Z</time></trkpt><trkpt lat="45.749033391781744" lon="11.782188951712655"><ele>104.0</ele><time>2026-03-24T13:24:17Z</time></trkpt><trkpt lat="45.74914098451925" lon="11.782159922633857"><ele>104.0</ele><time>2026-03-24T13:24:18Z</time></trkpt><trkpt lat="45.74925434984725" lon="11.782119021296626"><ele>104.0</ele><time>2026-03-24T13:24:19Z</time></trkpt><trkpt lat="45.74936996370617" lon="11.78207644588584"><ele>104.0</ele><time>2026-03-24T13:24:20Z</time></trkpt><trkpt lat="45.7494904086037" lon="11.78203221231645"><ele>103.75</ele><time>2026-03-24T13:24:21Z</time></trkpt><trkpt lat="45.749616395052016" lon="11.781984683665193"><ele>103.5</ele><time>2026-03-24T13:24:22Z</time></trkpt><trkpt lat="45.74974286515934" lon="11.781934784419612"><ele>103.25</ele><time>2026-03-24T13:24:23Z</time></trkpt><trkpt lat="45.749868529072394" lon="11.781880927335143"><ele>103.0</ele><time>2026-03-24T13:24:24Z</time></trkpt><trkpt lat="45.749987788540146" lon="11.781823266177016"><ele>103.0</ele><time>2026-03-24T13:24:25Z</time></trkpt><trkpt lat="45.750095520047154" lon="11.781761197263238"><ele>103.0</ele><time>2026-03-24T13:24:26Z</time></trkpt><trkpt lat="45.750195579948176" lon="11.781698290950708"><ele>103.0</ele><time>2026-03-24T13:24:27Z</time></trkpt><trkpt lat="45.75029561745366" lon="11.781626096739746"><ele>103.0</ele><time>2026-03-24T13:24:28Z</time></trkpt><trkpt lat="45.75039918343187" lon="11.781558024074364"><ele>104.0</ele><time>2026-03-24T13:24:29Z</time></trkpt><trkpt lat="45.750507103791456" lon="11.781495115474234"><ele>105.0</ele><time>2026-03-24T13:24:30Z</time></trkpt><trkpt lat="45.75061031191817" lon="11.781413830899584"><ele>106.0</ele><time>2026-03-24T13:24:31Z</time></trkpt><trkpt lat="45.75072796000317" lon="11.781354465577794"><ele>107.0</ele><time>2026-03-24T13:24:32Z</time></trkpt><trkpt lat="45.75082660101838" lon="11.78127329687119"><ele>106.99999999999999</ele><time>2026-03-24T13:24:33Z</time></trkpt><trkpt lat="45.750919123889446" lon="11.781207322290443"><ele>107.0</ele><time>2026-03-24T13:24:34Z</time></trkpt><trkpt lat="45.750999595132406" lon="11.781155669334053"><ele>107.0</ele><time>2026-03-24T13:24:35Z</time></trkpt><trkpt lat="45.75106074426572" lon="11.781114588777667"><ele>107.0</ele><time>2026-03-24T13:24:36Z</time></trkpt><trkpt lat="45.75113713020781" lon="11.781058024856556"><ele>106.99999999999999</ele><time>2026-03-24T13:24:38Z</time></trkpt><trkpt lat="45.75120315381348" lon="11.781009369278017"><ele>107.0</ele><time>2026-03-24T13:24:54Z</time></trkpt><trkpt lat="45.75119406344259" lon="11.780834647235043"><ele>106.83333333333333</ele><time>2026-03-24T13:24:56Z</time></trkpt><trkpt lat="45.75115579637197" lon="11.780740353430307"><ele>106.66666666666666</ele><time>2026-03-24T13:24:57Z</time></trkpt><trkpt lat="45.75111626335314" lon="11.78063404476133"><ele>106.5</ele><time>2026-03-24T13:24:58Z</time></trkpt><trkpt lat="45.751081967520506" lon="11.780524469148025"><ele>106.33333333333334</ele><time>2026-03-24T13:24:59Z</time></trkpt><trkpt lat="45.751052845113534" lon="11.780407139949236"><ele>106.16666666666667</ele><time>2026-03-24T13:25:00Z</time></trkpt><trkpt lat="45.75102005788004" lon="11.780278960471291"><ele>106.0</ele><time>2026-03-24T13:25:01Z</time></trkpt><trkpt lat="45.75098598705602" lon="11.780145322137203"><ele>105.19999999999999</ele><time>2026-03-24T13:25:02Z</time></trkpt><trkpt lat="45.750949951226616" lon="11.779998015224484"><ele>104.39999999999999</ele><time>2026-03-24T13:25:03Z</time></trkpt><trkpt lat="45.750913301272206" lon="11.779845247791469"><ele>103.6</ele><time>2026-03-24T13:25:04Z</time></trkpt><trkpt lat="45.75088311163199" lon="11.77967198323687"><ele>102.8</ele><time>2026-03-24T13:25:05Z</time></trkpt><trkpt lat="45.75085282759602" lon="11.779532646855484"><ele>102.0</ele><time>2026-03-24T13:25:06Z</time></trkpt><trkpt lat="45.75081931130557" lon="11.779409538065119"><ele>102.8</ele><time>2026-03-24T13:25:07Z</time></trkpt><trkpt lat="45.7507835064287" lon="11.779264096091817"><ele>103.6</ele><time>2026-03-24T13:25:08Z</time></trkpt><trkpt lat="45.750758064981085" lon="11.779112774374514"><ele>104.39999999999999</ele><time>2026-03-24T13:25:09Z</time></trkpt><trkpt lat="45.7507339194424" lon="11.778965288139684"><ele>105.19999999999999</ele><time>2026-03-24T13:25:10Z</time></trkpt><trkpt lat="45.75071591477363" lon="11.778815891472457"><ele>106.0</ele><time>2026-03-24T13:25:11Z</time></trkpt><trkpt lat="45.75069546062754" lon="11.77868066350408"><ele>106.00000000000001</ele><time>2026-03-24T13:25:12Z</time></trkpt><trkpt lat="45.75066973722322" lon="11.778563050932025"><ele>106.0</ele><time>2026-03-24T13:25:13Z</time></trkpt><trkpt lat="45.7506763099329" lon="11.778449499310732"><ele>106.0</ele><time>2026-03-24T13:25:14Z</time></trkpt><trkpt lat="45.7506668001686" lon="11.778350010213249"><ele>106.0</ele><time>2026-03-24T13:25:15Z</time></trkpt><trkpt lat="45.75064983603895" lon="11.778194978150907"><ele>106.00000000000001</ele><time>2026-03-24T13:25:16.999Z</time></trkpt><trkpt lat="45.75063805562781" lon="11.77807004951949"><ele>106.0</ele><time>2026-03-24T13:25:18.999Z</time></trkpt><trkpt lat="45.75060744163642" lon="11.777966684882673"><ele>106.25</ele><time>2026-03-24T13:25:20.999Z</time></trkpt><trkpt lat="45.75043796141051" lon="11.778007739872914"><ele>106.5</ele><time>2026-03-24T13:25:22.999Z</time></trkpt><trkpt lat="45.75035683235478" lon="11.778052624363704"><ele>106.75</ele><time>2026-03-24T13:25:23.999Z</time></trkpt><trkpt lat="45.75025394091852" lon="11.778096153313632"><ele>107.0</ele><time>2026-03-24T13:25:24.999Z</time></trkpt><trkpt lat="45.75013214672943" lon="11.778134608141793"><ele>107.0</ele><time>2026-03-24T13:25:25.999Z</time></trkpt><trkpt lat="45.749994941857565" lon="11.77817531040357"><ele>107.0</ele><time>2026-03-24T13:25:26.999Z</time></trkpt><trkpt lat="45.749852960370916" lon="11.778225782093113"><ele>107.0</ele><time>2026-03-24T13:25:27.999Z</time></trkpt><trkpt lat="45.74971822618314" lon="11.778273826608126"><ele>107.0</ele><time>2026-03-24T13:25:28.999Z</time></trkpt><trkpt lat="45.749603815345516" lon="11.77831625249386"><ele>107.0</ele><time>2026-03-24T13:25:29.999Z</time></trkpt><trkpt lat="45.7495028324081" lon="11.778346355205397"><ele>106.99999999999999</ele><time>2026-03-24T13:25:30.999Z</time></trkpt><trkpt lat="45.74940141408339" lon="11.778331326139236"><ele>106.99999999999999</ele><time>2026-03-24T13:25:31.999Z</time></trkpt><trkpt lat="45.74929149443875" lon="11.778327403497707"><ele>107.0</ele><time>2026-03-24T13:25:32.999Z</time></trkpt><trkpt lat="45.74920099469618" lon="11.778237953641622"><ele>107.0</ele><time>2026-03-24T13:25:33.999Z</time></trkpt><trkpt lat="45.74914904085105" lon="11.778094620962928"><ele>107.0</ele><time>2026-03-24T13:25:34.999Z</time></trkpt><trkpt lat="45.74911978678439" lon="11.777944176139385"><ele>107.0</ele><time>2026-03-24T13:25:35.999Z</time></trkpt><trkpt lat="45.749105223015725" lon="11.777778560437307"><ele>107.0</ele><time>2026-03-24T13:25:36.999Z</time></trkpt><trkpt lat="45.749067906666454" lon="11.777610435788059"><ele>107.0</ele><time>2026-03-24T13:25:37.999Z</time></trkpt><trkpt lat="45.74904991456274" lon="11.777423052539342"><ele>106.75</ele><time>2026-03-24T13:25:38.999Z</time></trkpt><trkpt lat="45.749021905722536" lon="11.777228069226599"><ele>106.5</ele><time>2026-03-24T13:25:39.999Z</time></trkpt><trkpt lat="45.74899762787238" lon="11.77706588517705"><ele>106.25</ele><time>2026-03-24T13:25:40.999Z</time></trkpt><trkpt lat="45.748972945352804" lon="11.776913029584781"><ele>106.0</ele><time>2026-03-24T13:25:41.999Z</time></trkpt><trkpt lat="45.74896404861785" lon="11.776771314239996"><ele>105.8</ele><time>2026-03-24T13:25:42.999Z</time></trkpt><trkpt lat="45.748958112678075" lon="11.776641293435558"><ele>105.6</ele><time>2026-03-24T13:25:43.999Z</time></trkpt><trkpt lat="45.74901233318004" lon="11.776521329231544"><ele>105.4</ele><time>2026-03-24T13:25:44.999Z</time></trkpt><trkpt lat="45.74909602407131" lon="11.776426032297177"><ele>105.2</ele><time>2026-03-24T13:25:45.999Z</time></trkpt><trkpt lat="45.74920582836975" lon="11.77638512749579"><ele>105.0</ele><time>2026-03-24T13:25:46.999Z</time></trkpt><trkpt lat="45.749335335741264" lon="11.776348867583598"><ele>105.33333333333334</ele><time>2026-03-24T13:25:47.999Z</time></trkpt><trkpt lat="45.74947507643857" lon="11.77633764433789"><ele>105.66666666666667</ele><time>2026-03-24T13:25:48.999Z</time></trkpt><trkpt lat="45.749638242071285" lon="11.776321924464687"><ele>106.0</ele><time>2026-03-24T13:25:49.999Z</time></trkpt><trkpt lat="45.749810188485455" lon="11.77627467912766"><ele>106.0</ele><time>2026-03-24T13:25:50.999Z</time></trkpt><trkpt lat="45.74998281873357" lon="11.77621352670491"><ele>106.0</ele><time>2026-03-24T13:25:51.999Z</time></trkpt><trkpt lat="45.75018909237466" lon="11.776282637890269"><ele>106.0</ele><time>2026-03-24T13:25:52.999Z</time></trkpt><trkpt lat="45.75040507590625" lon="11.77626788338078"><ele>106.0</ele><time>2026-03-24T13:25:53.999Z</time></trkpt><trkpt lat="45.75063635582913" lon="11.776249036205945"><ele>106.0</ele><time>2026-03-24T13:25:54.999Z</time></trkpt><trkpt lat="45.75087642297998" lon="11.776240500048024"><ele>106.5</ele><time>2026-03-24T13:25:55.999Z</time></trkpt><trkpt lat="45.751139482411276" lon="11.776233467236912"><ele>107.0</ele><time>2026-03-24T13:25:56.999Z</time></trkpt><trkpt lat="45.75139182367805" lon="11.776205987150579"><ele>107.0</ele><time>2026-03-24T13:25:57.999Z</time></trkpt><trkpt lat="45.75164401112647" lon="11.776164714230747"><ele>107.0</ele><time>2026-03-24T13:25:58.999Z</time></trkpt><trkpt lat="45.751896982286446" lon="11.776128921883068"><ele>107.5</ele><time>2026-03-24T13:25:59.999Z</time></trkpt><trkpt lat="45.75213928888174" lon="11.776082256715446"><ele>108.0</ele><time>2026-03-24T13:26:00.999Z</time></trkpt><trkpt lat="45.75237735429883" lon="11.776037554430472"><ele>108.0</ele><time>2026-03-24T13:26:01.999Z</time></trkpt><trkpt lat="45.75259894165309" lon="11.77598567377964"><ele>108.0</ele><time>2026-03-24T13:26:02.999Z</time></trkpt><trkpt lat="45.75281485278647" lon="11.775933481145715"><ele>108.0</ele><time>2026-03-24T13:26:03.999Z</time></trkpt><trkpt lat="45.75303249861033" lon="11.775875147572659"><ele>108.0</ele><time>2026-03-24T13:26:04.999Z</time></trkpt><trkpt lat="45.75325090376595" lon="11.77581473881922"><ele>108.0</ele><time>2026-03-24T13:26:05.999Z</time></trkpt><trkpt lat="45.75345833896491" lon="11.775746763785179"><ele>108.0</ele><time>2026-03-24T13:26:06.999Z</time></trkpt><trkpt lat="45.753663974299194" lon="11.775678050330146"><ele>108.33333333333334</ele><time>2026-03-24T13:26:07.999Z</time></trkpt><trkpt lat="45.7538682906686" lon="11.775600179460298"><ele>108.66666666666667</ele><time>2026-03-24T13:26:09Z</time></trkpt><trkpt lat="45.754069169565334" lon="11.775516109734486"><ele>109.0</ele><time>2026-03-24T13:26:10Z</time></trkpt><trkpt lat="45.75427538935159" lon="11.775427201017719"><ele>109.0</ele><time>2026-03-24T13:26:11Z</time></trkpt><trkpt lat="45.75449299662009" lon="11.77533920763325"><ele>109.0</ele><time>2026-03-24T13:26:12Z</time></trkpt><trkpt lat="45.75470996649587" lon="11.77524929092858"><ele>108.0</ele><time>2026-03-24T13:26:13Z</time></trkpt><trkpt lat="45.75492972935654" lon="11.77515938641545"><ele>107.0</ele><time>2026-03-24T13:26:14Z</time></trkpt><trkpt lat="45.755151596734244" lon="11.775065648970273"><ele>110.0</ele><time>2026-03-24T13:26:15Z</time></trkpt><trkpt lat="45.75537362504999" lon="11.774966579387554"><ele>113.0</ele><time>2026-03-24T13:26:16Z</time></trkpt><trkpt lat="45.755596381792174" lon="11.774871569214051"><ele>113.0</ele><time>2026-03-24T13:26:17Z</time></trkpt><trkpt lat="45.75581853424435" lon="11.774770615709484"><ele>113.0</ele><time>2026-03-24T13:26:18Z</time></trkpt><trkpt lat="45.75604237584022" lon="11.774671132011449"><ele>112.0</ele><time>2026-03-24T13:26:19Z</time></trkpt><trkpt lat="45.756264237219355" lon="11.774577557988593"><ele>111.0</ele><time>2026-03-24T13:26:20Z</time></trkpt><trkpt lat="45.75648519490323" lon="11.774483759849968"><ele>111.0</ele><time>2026-03-24T13:26:21Z</time></trkpt><trkpt lat="45.75670151007671" lon="11.774388595026888"><ele>111.0</ele><time>2026-03-24T13:26:22Z</time></trkpt><trkpt lat="45.75691391686747" lon="11.774289939046918"><ele>111.0</ele><time>2026-03-24T13:26:23Z</time></trkpt><trkpt lat="45.75713004808014" lon="11.77416292322533"><ele>111.0</ele><time>2026-03-24T13:26:24Z</time></trkpt><trkpt lat="45.757357810004876" lon="11.774033731270134"><ele>111.0</ele><time>2026-03-24T13:26:25Z</time></trkpt><trkpt lat="45.75759664992279" lon="11.77390067427015"><ele>111.0</ele><time>2026-03-24T13:26:26Z</time></trkpt><trkpt lat="45.75784429585321" lon="11.773763309658813"><ele>111.0</ele><time>2026-03-24T13:26:27Z</time></trkpt><trkpt lat="45.75809142652176" lon="11.773621289676107"><ele>111.0</ele><time>2026-03-24T13:26:28Z</time></trkpt><trkpt lat="45.75834389737732" lon="11.773481527936703"><ele>110.5</ele><time>2026-03-24T13:26:29Z</time></trkpt><trkpt lat="45.758595684482906" lon="11.773337426237056"><ele>110.0</ele><time>2026-03-24T13:26:30Z</time></trkpt><trkpt lat="45.75884422264061" lon="11.773182688046136"><ele>110.0</ele><time>2026-03-24T13:26:31Z</time></trkpt><trkpt lat="45.75908821288641" lon="11.773019666170864"><ele>110.0</ele><time>2026-03-24T13:26:32Z</time></trkpt><trkpt lat="45.75932959363847" lon="11.772860272536818"><ele>112.0</ele><time>2026-03-24T13:26:33Z</time></trkpt><trkpt lat="45.75956882603553" lon="11.772697891111536"><ele>114.0</ele><time>2026-03-24T13:26:34Z</time></trkpt><trkpt lat="45.75980663827037" lon="11.772531580270991"><ele>114.0</ele><time>2026-03-24T13:26:35Z</time></trkpt><trkpt lat="45.760038221789465" lon="11.772355235202756"><ele>114.0</ele><time>2026-03-24T13:26:36Z</time></trkpt><trkpt lat="45.76027057855569" lon="11.77218025522526"><ele>113.5</ele><time>2026-03-24T13:26:37Z</time></trkpt><trkpt lat="45.7605020973204" lon="11.772016562867687"><ele>113.0</ele><time>2026-03-24T13:26:38Z</time></trkpt><trkpt lat="45.7607335728168" lon="11.77183621394555"><ele>114.0</ele><time>2026-03-24T13:26:39Z</time></trkpt><trkpt lat="45.76096120070583" lon="11.771653918170339"><ele>115.0</ele><time>2026-03-24T13:26:40Z</time></trkpt><trkpt lat="45.76118744059001" lon="11.771465535312023"><ele>115.0</ele><time>2026-03-24T13:26:41Z</time></trkpt><trkpt lat="45.76141366216885" lon="11.77127286309445"><ele>115.0</ele><time>2026-03-24T13:26:42Z</time></trkpt><trkpt lat="45.76163954361777" lon="11.771082814495077"><ele>114.5</ele><time>2026-03-24T13:26:43Z</time></trkpt><trkpt lat="45.7618657977345" lon="11.770896484356301"><ele>114.0</ele><time>2026-03-24T13:26:44Z</time></trkpt><trkpt lat="45.76210019964447" lon="11.770711520786554"><ele>114.0</ele><time>2026-03-24T13:26:45Z</time></trkpt><trkpt lat="45.76232276161223" lon="11.770526910887078"><ele>114.0</ele><time>2026-03-24T13:26:46Z</time></trkpt><trkpt lat="45.76254906209955" lon="11.770342755181534"><ele>115.0</ele><time>2026-03-24T13:26:47Z</time></trkpt><trkpt lat="45.76277765525053" lon="11.770156560445798"><ele>116.0</ele><time>2026-03-24T13:26:48Z</time></trkpt><trkpt lat="45.76300447380952" lon="11.76997019587624"><ele>116.0</ele><time>2026-03-24T13:26:49Z</time></trkpt><trkpt lat="45.763232353695685" lon="11.769784351286319"><ele>116.0</ele><time>2026-03-24T13:26:50Z</time></trkpt><trkpt lat="45.7634620168707" lon="11.76959745424845"><ele>117.5</ele><time>2026-03-24T13:26:51Z</time></trkpt><trkpt lat="45.763692186034625" lon="11.769409960123907"><ele>119.0</ele><time>2026-03-24T13:26:52Z</time></trkpt><trkpt lat="45.76391912472432" lon="11.769218823171627"><ele>119.0</ele><time>2026-03-24T13:26:53Z</time></trkpt><trkpt lat="45.76414698484019" lon="11.769032713156083"><ele>119.0</ele><time>2026-03-24T13:26:54Z</time></trkpt><trkpt lat="45.76437534727674" lon="11.768849273860978"><ele>119.0</ele><time>2026-03-24T13:26:55Z</time></trkpt><trkpt lat="45.764609694928765" lon="11.768676609818531"><ele>119.0</ele><time>2026-03-24T13:26:56Z</time></trkpt><trkpt lat="45.76484232856855" lon="11.76851097364368"><ele>119.0</ele><time>2026-03-24T13:26:57Z</time></trkpt><trkpt lat="45.76508245288896" lon="11.76836204235225"><ele>119.0</ele><time>2026-03-24T13:26:58Z</time></trkpt><trkpt lat="45.765321495821325" lon="11.768201730544693"><ele>119.0</ele><time>2026-03-24T13:26:59Z</time></trkpt><trkpt lat="45.76556027004734" lon="11.768046145830716"><ele>119.0</ele><time>2026-03-24T13:27:00Z</time></trkpt><trkpt lat="45.7658001234289" lon="11.767895072687612"><ele>120.0</ele><time>2026-03-24T13:27:01Z</time></trkpt><trkpt lat="45.76605400584956" lon="11.767780249641905"><ele>121.0</ele><time>2026-03-24T13:27:02Z</time></trkpt><trkpt lat="45.76629697132326" lon="11.767640337445476"><ele>121.0</ele><time>2026-03-24T13:27:03Z</time></trkpt><trkpt lat="45.766536093733585" lon="11.767498682405536"><ele>121.0</ele><time>2026-03-24T13:27:04Z</time></trkpt><trkpt lat="45.76678371123715" lon="11.767365316266506"><ele>120.5</ele><time>2026-03-24T13:27:05Z</time></trkpt><trkpt lat="45.76702773495171" lon="11.767230570472943"><ele>120.0</ele><time>2026-03-24T13:27:06Z</time></trkpt><trkpt lat="45.767274123322935" lon="11.767099860433715"><ele>120.0</ele><time>2026-03-24T13:27:07Z</time></trkpt><trkpt lat="45.76751938872945" lon="11.766968250328144"><ele>120.0</ele><time>2026-03-24T13:27:08Z</time></trkpt><trkpt lat="45.76776536747841" lon="11.766845931460526"><ele>121.0</ele><time>2026-03-24T13:27:09Z</time></trkpt><trkpt lat="45.768013436096886" lon="11.766722326142856"><ele>122.0</ele><time>2026-03-24T13:27:10Z</time></trkpt><trkpt lat="45.76825562626769" lon="11.76658651227868"><ele>122.0</ele><time>2026-03-24T13:27:11Z</time></trkpt><trkpt lat="45.768499049476894" lon="11.766446311323536"><ele>122.0</ele><time>2026-03-24T13:27:12Z</time></trkpt><trkpt lat="45.7687442623599" lon="11.766313777480065"><ele>123.0</ele><time>2026-03-24T13:27:13Z</time></trkpt><trkpt lat="45.768990812606894" lon="11.766190184971421"><ele>124.0</ele><time>2026-03-24T13:27:14Z</time></trkpt><trkpt lat="45.76923573661858" lon="11.766063761859359"><ele>125.0</ele><time>2026-03-24T13:27:15Z</time></trkpt><trkpt lat="45.76948165193336" lon="11.765934466143642"><ele>126.0</ele><time>2026-03-24T13:27:16Z</time></trkpt><trkpt lat="45.76972666102525" lon="11.765804595521912"><ele>126.0</ele><time>2026-03-24T13:27:17Z</time></trkpt><trkpt lat="45.76996647349866" lon="11.765673730091205"><ele>126.0</ele><time>2026-03-24T13:27:18Z</time></trkpt><trkpt lat="45.77020896519508" lon="11.765537227195097"><ele>126.0</ele><time>2026-03-24T13:27:19Z</time></trkpt><trkpt lat="45.77045427433374" lon="11.76540470526646"><ele>126.0</ele><time>2026-03-24T13:27:20Z</time></trkpt><trkpt lat="45.77070120570222" lon="11.765262968053822"><ele>126.5</ele><time>2026-03-24T13:27:21Z</time></trkpt><trkpt lat="45.77095622284514" lon="11.765133370265026"><ele>127.0</ele><time>2026-03-24T13:27:22Z</time></trkpt><trkpt lat="45.77120204111267" lon="11.76499476295679"><ele>127.0</ele><time>2026-03-24T13:27:23Z</time></trkpt><trkpt lat="45.77144734075801" lon="11.76485959563678"><ele>127.0</ele><time>2026-03-24T13:27:24Z</time></trkpt><trkpt lat="45.7716901673463" lon="11.764719374943223"><ele>127.0</ele><time>2026-03-24T13:27:25Z</time></trkpt><trkpt lat="45.771936549885886" lon="11.764580731620265"><ele>127.0</ele><time>2026-03-24T13:27:26Z</time></trkpt><trkpt lat="45.77217955643725" lon="11.764448304547052"><ele>128.0</ele><time>2026-03-24T13:27:27Z</time></trkpt><trkpt lat="45.77243225121589" lon="11.764326979085636"><ele>129.0</ele><time>2026-03-24T13:27:28Z</time></trkpt><trkpt lat="45.7726740779338" lon="11.764186288657454"><ele>129.0</ele><time>2026-03-24T13:27:29Z</time></trkpt><trkpt lat="45.77291838024352" lon="11.764051393106685"><ele>129.0</ele><time>2026-03-24T13:27:30Z</time></trkpt><trkpt lat="45.773162768019965" lon="11.763909749142547"><ele>129.0</ele><time>2026-03-24T13:27:31Z</time></trkpt><trkpt lat="45.77340898873303" lon="11.763771200295574"><ele>129.0</ele><time>2026-03-24T13:27:32Z</time></trkpt><trkpt lat="45.77365632132741" lon="11.763635217387547"><ele>128.0</ele><time>2026-03-24T13:27:33Z</time></trkpt><trkpt lat="45.773893156231644" lon="11.763495802963412"><ele>127.0</ele><time>2026-03-24T13:27:34Z</time></trkpt><trkpt lat="45.7741382073185" lon="11.763355818927817"><ele>127.0</ele><time>2026-03-24T13:27:35Z</time></trkpt><trkpt lat="45.774386840624864" lon="11.763233850257174"><ele>127.0</ele><time>2026-03-24T13:27:36Z</time></trkpt><trkpt lat="45.77462763474658" lon="11.763100253993041"><ele>127.0</ele><time>2026-03-24T13:27:37Z</time></trkpt><trkpt lat="45.774867977070876" lon="11.762968912074987"><ele>127.0</ele><time>2026-03-24T13:27:38Z</time></trkpt><trkpt lat="45.77511298174419" lon="11.762837537638564"><ele>127.0</ele><time>2026-03-24T13:27:39Z</time></trkpt><trkpt lat="45.77535686219969" lon="11.762710646809557"><ele>127.0</ele><time>2026-03-24T13:27:40Z</time></trkpt><trkpt lat="45.7756042916382" lon="11.762587618561517"><ele>127.5</ele><time>2026-03-24T13:27:41Z</time></trkpt><trkpt lat="45.77585626769412" lon="11.762445337491691"><ele>128.0</ele><time>2026-03-24T13:27:42Z</time></trkpt><trkpt lat="45.77611562441909" lon="11.762305383772798"><ele>129.0</ele><time>2026-03-24T13:27:43Z</time></trkpt><trkpt lat="45.77637911594812" lon="11.762154465504919"><ele>130.0</ele><time>2026-03-24T13:27:44Z</time></trkpt><trkpt lat="45.7766456154808" lon="11.762015929465685"><ele>130.0</ele><time>2026-03-24T13:27:45Z</time></trkpt><trkpt lat="45.77691359726421" lon="11.761870652568616"><ele>130.0</ele><time>2026-03-24T13:27:46Z</time></trkpt><trkpt lat="45.77717805080538" lon="11.761730831064087"><ele>131.0</ele><time>2026-03-24T13:27:47Z</time></trkpt><trkpt lat="45.77744313270192" lon="11.761594990729307"><ele>132.0</ele><time>2026-03-24T13:27:48Z</time></trkpt><trkpt lat="45.777709574471245" lon="11.761457722837157"><ele>132.0</ele><time>2026-03-24T13:27:49Z</time></trkpt><trkpt lat="45.777976223972026" lon="11.761326846468837"><ele>132.0</ele><time>2026-03-24T13:27:50Z</time></trkpt><trkpt lat="45.7782520975899" lon="11.761200917836431"><ele>132.0</ele><time>2026-03-24T13:27:51Z</time></trkpt><trkpt lat="45.778514359621916" lon="11.761063237594595"><ele>132.0</ele><time>2026-03-24T13:27:52Z</time></trkpt><trkpt lat="45.77877716669493" lon="11.760924773401157"><ele>132.0</ele><time>2026-03-24T13:27:53Z</time></trkpt><trkpt lat="45.77904998351793" lon="11.760800408202703"><ele>132.0</ele><time>2026-03-24T13:27:54Z</time></trkpt><trkpt lat="45.77931051751102" lon="11.760659788622256"><ele>132.5</ele><time>2026-03-24T13:27:55Z</time></trkpt><trkpt lat="45.77957329739401" lon="11.76051628487994"><ele>133.0</ele><time>2026-03-24T13:27:56Z</time></trkpt><trkpt lat="45.77983549365154" lon="11.760372678314013"><ele>133.0</ele><time>2026-03-24T13:27:57Z</time></trkpt><trkpt lat="45.780100050544874" lon="11.760224487384729"><ele>133.0</ele><time>2026-03-24T13:27:58Z</time></trkpt><trkpt lat="45.780366935634135" lon="11.76009270519117"><ele>134.5</ele><time>2026-03-24T13:27:59Z</time></trkpt><trkpt lat="45.78062847724089" lon="11.759968081803812"><ele>136.0</ele><time>2026-03-24T13:28:00Z</time></trkpt><trkpt lat="45.78087499124915" lon="11.759831553368857"><ele>136.5</ele><time>2026-03-24T13:28:01Z</time></trkpt><trkpt lat="45.78112073982569" lon="11.759710985692458"><ele>137.0</ele><time>2026-03-24T13:28:02Z</time></trkpt><trkpt lat="45.78135774467921" lon="11.759582872600198"><ele>137.0</ele><time>2026-03-24T13:28:03Z</time></trkpt><trkpt lat="45.78160233625728" lon="11.759458677422783"><ele>137.0</ele><time>2026-03-24T13:28:03.999Z</time></trkpt><trkpt lat="45.78184684855926" lon="11.759328200932353"><ele>137.5</ele><time>2026-03-24T13:28:04.999Z</time></trkpt><trkpt lat="45.78208496124009" lon="11.75918343784537"><ele>138.0</ele><time>2026-03-24T13:28:05.999Z</time></trkpt><trkpt lat="45.78232220458446" lon="11.759019899071452"><ele>138.0</ele><time>2026-03-24T13:28:06.999Z</time></trkpt><trkpt lat="45.78255450872449" lon="11.758844841841002"><ele>138.0</ele><time>2026-03-24T13:28:07.999Z</time></trkpt><trkpt lat="45.7827772272729" lon="11.758662330225937"><ele>139.0</ele><time>2026-03-24T13:28:08.999Z</time></trkpt><trkpt lat="45.7829774937575" lon="11.758485721987409"><ele>140.0</ele><time>2026-03-24T13:28:09.999Z</time></trkpt><trkpt lat="45.78316320674405" lon="11.75830745758245"><ele>140.0</ele><time>2026-03-24T13:28:10.999Z</time></trkpt><trkpt lat="45.7833450485136" lon="11.758156859866078"><ele>140.0</ele><time>2026-03-24T13:28:11.999Z</time></trkpt><trkpt lat="45.78350769911768" lon="11.758008302383933"><ele>140.0</ele><time>2026-03-24T13:28:12.999Z</time></trkpt><trkpt lat="45.78364363519681" lon="11.757859857663844"><ele>140.5</ele><time>2026-03-24T13:28:13.999Z</time></trkpt><trkpt lat="45.78375050142427" lon="11.757739782368015"><ele>141.0</ele><time>2026-03-24T13:28:15Z</time></trkpt><trkpt lat="45.78384168301821" lon="11.75764287791948"><ele>141.5</ele><time>2026-03-24T13:28:16Z</time></trkpt><trkpt lat="45.783938309611564" lon="11.757577396575773"><ele>142.0</ele><time>2026-03-24T13:28:17Z</time></trkpt><trkpt lat="45.78403332386249" lon="11.757533772170417"><ele>142.5</ele><time>2026-03-24T13:28:18Z</time></trkpt><trkpt lat="45.78414036501834" lon="11.757568893142116"><ele>143.0</ele><time>2026-03-24T13:28:19Z</time></trkpt><trkpt lat="45.78425845110093" lon="11.757622788213137"><ele>143.5</ele><time>2026-03-24T13:28:20Z</time></trkpt><trkpt lat="45.78440027204558" lon="11.757740293755795"><ele>144.0</ele><time>2026-03-24T13:28:21Z</time></trkpt><trkpt lat="45.78452418132556" lon="11.757889486722053"><ele>144.0</ele><time>2026-03-24T13:28:22Z</time></trkpt><trkpt lat="45.78465561226547" lon="11.758039038419355"><ele>144.0</ele><time>2026-03-24T13:28:23Z</time></trkpt><trkpt lat="45.78478050777415" lon="11.758165806838361"><ele>144.0</ele><time>2026-03-24T13:28:24Z</time></trkpt><trkpt lat="45.78488856298908" lon="11.758262904616762"><ele>144.0</ele><time>2026-03-24T13:28:25Z</time></trkpt><trkpt lat="45.78497902952008" lon="11.758344155165808"><ele>144.0</ele><time>2026-03-24T13:28:26Z</time></trkpt><trkpt lat="45.78504979119038" lon="11.758407446976957"><ele>144.0</ele><time>2026-03-24T13:28:27Z</time></trkpt><trkpt lat="45.78511373752983" lon="11.758481995603919"><ele>144.0</ele><time>2026-03-24T13:28:28Z</time></trkpt><trkpt lat="45.7851684236346" lon="11.758554528778063"><ele>144.0</ele><time>2026-03-24T13:28:29Z</time></trkpt><trkpt lat="45.785222268660156" lon="11.758654588395206"><ele>144.0</ele><time>2026-03-24T13:28:30Z</time></trkpt><trkpt lat="45.78530236282644" lon="11.7586875208958"><ele>144.0</ele><time>2026-03-24T13:28:31Z</time></trkpt><trkpt lat="45.78538384576914" lon="11.758677795008222"><ele>144.66666666666666</ele><time>2026-03-24T13:28:32Z</time></trkpt><trkpt lat="45.78544407164363" lon="11.758588981605406"><ele>145.33333333333334</ele><time>2026-03-24T13:28:33Z</time></trkpt><trkpt lat="45.78547689051106" lon="11.75849850483684"><ele>146.0</ele><time>2026-03-24T13:28:34Z</time></trkpt><trkpt lat="45.78548832748817" lon="11.758381278518332"><ele>146.66666666666669</ele><time>2026-03-24T13:28:35Z</time></trkpt><trkpt lat="45.78547930688635" lon="11.758246525350739"><ele>147.33333333333334</ele><time>2026-03-24T13:28:36Z</time></trkpt><trkpt lat="45.78546165860169" lon="11.758093323275993"><ele>148.0</ele><time>2026-03-24T13:28:37Z</time></trkpt><trkpt lat="45.7854404770186" lon="11.757921292891135"><ele>148.0</ele><time>2026-03-24T13:28:38Z</time></trkpt><trkpt lat="45.78541882899766" lon="11.757737123115657"><ele>148.0</ele><time>2026-03-24T13:28:39Z</time></trkpt><trkpt lat="45.785415597163144" lon="11.757525325166057"><ele>148.0</ele><time>2026-03-24T13:28:40Z</time></trkpt><trkpt lat="45.785417372980895" lon="11.757310198720441"><ele>148.0</ele><time>2026-03-24T13:28:41Z</time></trkpt><trkpt lat="45.78543077862877" lon="11.757079662275462"><ele>148.33333333333334</ele><time>2026-03-24T13:28:42Z</time></trkpt><trkpt lat="45.785460193559906" lon="11.756816413624081"><ele>148.66666666666666</ele><time>2026-03-24T13:28:43Z</time></trkpt><trkpt lat="45.785491805102495" lon="11.756546690239299"><ele>149.0</ele><time>2026-03-24T13:28:44Z</time></trkpt><trkpt lat="45.78552917226953" lon="11.756288437500997"><ele>149.0</ele><time>2026-03-24T13:28:45Z</time></trkpt><trkpt lat="45.785582306246305" lon="11.756045301133327"><ele>149.0</ele><time>2026-03-24T13:28:46Z</time></trkpt><trkpt lat="45.785647371098726" lon="11.755834377771162"><ele>149.0</ele><time>2026-03-24T13:28:47Z</time></trkpt><trkpt lat="45.78571848736916" lon="11.75563917478549"><ele>148.33333333333331</ele><time>2026-03-24T13:28:48Z</time></trkpt><trkpt lat="45.78580155968458" lon="11.755459385215214"><ele>147.66666666666666</ele><time>2026-03-24T13:28:49Z</time></trkpt><trkpt lat="45.785903123194174" lon="11.755284496879893"><ele>147.0</ele><time>2026-03-24T13:28:50Z</time></trkpt><trkpt lat="45.78601941659145" lon="11.755127772296587"><ele>148.33333333333334</ele><time>2026-03-24T13:28:51Z</time></trkpt><trkpt lat="45.78612971783012" lon="11.754960110504399"><ele>149.66666666666669</ele><time>2026-03-24T13:28:52Z</time></trkpt><trkpt lat="45.78623026580415" lon="11.754777159558483"><ele>151.0</ele><time>2026-03-24T13:28:53Z</time></trkpt><trkpt lat="45.786313589156364" lon="11.75461221749849"><ele>151.0</ele><time>2026-03-24T13:28:54Z</time></trkpt><trkpt lat="45.786383046692656" lon="11.754471817498494"><ele>151.0</ele><time>2026-03-24T13:28:55Z</time></trkpt><trkpt lat="45.78644765071487" lon="11.754349878556226"><ele>151.0</ele><time>2026-03-24T13:28:56Z</time></trkpt><trkpt lat="45.786497867191294" lon="11.754263240301967"><ele>151.0</ele><time>2026-03-24T13:28:57Z</time></trkpt><trkpt lat="45.786540802220195" lon="11.754188528018396"><ele>151.0</ele><time>2026-03-24T13:28:58Z</time></trkpt><trkpt lat="45.78658413452938" lon="11.754078903076632"><ele>151.25</ele><time>2026-03-24T13:29:00Z</time></trkpt><trkpt lat="45.786789229730175" lon="11.754166990396344"><ele>151.5</ele><time>2026-03-24T13:29:03Z</time></trkpt><trkpt lat="45.78686981255158" lon="11.754236506865542"><ele>151.75</ele><time>2026-03-24T13:29:04Z</time></trkpt><trkpt lat="45.78696617983319" lon="11.75430262140784"><ele>152.0</ele><time>2026-03-24T13:29:05Z</time></trkpt><trkpt lat="45.78707366282659" lon="11.754383809855074"><ele>152.0</ele><time>2026-03-24T13:29:06Z</time></trkpt><trkpt lat="45.787189514884375" lon="11.754443308085337"><ele>152.0</ele><time>2026-03-24T13:29:07Z</time></trkpt><trkpt lat="45.78732415626997" lon="11.75449941419825"><ele>152.0</ele><time>2026-03-24T13:29:08Z</time></trkpt><trkpt lat="45.787462760342756" lon="11.75455602610686"><ele>152.0</ele><time>2026-03-24T13:29:09Z</time></trkpt><trkpt lat="45.78760969724767" lon="11.754602632194178"><ele>151.66666666666666</ele><time>2026-03-24T13:29:10Z</time></trkpt><trkpt lat="45.78776503930901" lon="11.75464677560554"><ele>151.33333333333334</ele><time>2026-03-24T13:29:11Z</time></trkpt><trkpt lat="45.78792582907005" lon="11.75469510157633"><ele>151.0</ele><time>2026-03-24T13:29:12Z</time></trkpt><trkpt lat="45.78809385245986" lon="11.754740560916904"><ele>151.0</ele><time>2026-03-24T13:29:13Z</time></trkpt><trkpt lat="45.788271810975665" lon="11.754795234686613"><ele>151.0</ele><time>2026-03-24T13:29:14Z</time></trkpt><trkpt lat="45.78846252864421" lon="11.754852188380033"><ele>151.0</ele><time>2026-03-24T13:29:15Z</time></trkpt><trkpt lat="45.78863881494222" lon="11.754898985853151"><ele>151.75</ele><time>2026-03-24T13:29:16Z</time></trkpt><trkpt lat="45.788794972534404" lon="11.754967902737862"><ele>152.5</ele><time>2026-03-24T13:29:17Z</time></trkpt><trkpt lat="45.78894128872112" lon="11.755011601135877"><ele>153.25</ele><time>2026-03-24T13:29:18Z</time></trkpt><trkpt lat="45.789076013481555" lon="11.755043642685925"><ele>154.0</ele><time>2026-03-24T13:29:19Z</time></trkpt><trkpt lat="45.78920602324814" lon="11.755072115674391"><ele>154.0</ele><time>2026-03-24T13:29:20Z</time></trkpt><trkpt lat="45.7893241382716" lon="11.755093875520032"><ele>154.0</ele><time>2026-03-24T13:29:21Z</time></trkpt><trkpt lat="45.78943404295376" lon="11.755127059661458"><ele>154.0</ele><time>2026-03-24T13:29:22Z</time></trkpt><trkpt lat="45.78954190777912" lon="11.755132743650503"><ele>154.0</ele><time>2026-03-24T13:29:23Z</time></trkpt><trkpt lat="45.78965013918881" lon="11.755135375277064"><ele>154.0</ele><time>2026-03-24T13:29:24Z</time></trkpt><trkpt lat="45.78977317969976" lon="11.755147683343255"><ele>154.0</ele><time>2026-03-24T13:29:25Z</time></trkpt><trkpt lat="45.78990116047092" lon="11.755161671782997"><ele>154.0</ele><time>2026-03-24T13:29:26Z</time></trkpt><trkpt lat="45.79003072946487" lon="11.755179938163938"><ele>154.0</ele><time>2026-03-24T13:29:27Z</time></trkpt><trkpt lat="45.79016594722231" lon="11.755204160433422"><ele>154.0</ele><time>2026-03-24T13:29:28Z</time></trkpt><trkpt lat="45.79030343753683" lon="11.755238622869923"><ele>154.5</ele><time>2026-03-24T13:29:29Z</time></trkpt><trkpt lat="45.79043828814124" lon="11.755293435898276"><ele>155.0</ele><time>2026-03-24T13:29:30Z</time></trkpt><trkpt lat="45.7905743779601" lon="11.755359707690397"><ele>155.5</ele><time>2026-03-24T13:29:31Z</time></trkpt><trkpt lat="45.790718825278944" lon="11.755430710905742"><ele>156.0</ele><time>2026-03-24T13:29:32Z</time></trkpt><trkpt lat="45.79086483647833" lon="11.755504225242138"><ele>156.0</ele><time>2026-03-24T13:29:33Z</time></trkpt><trkpt lat="45.79101210571287" lon="11.755581237921357"><ele>156.0</ele><time>2026-03-24T13:29:34Z</time></trkpt><trkpt lat="45.791165644368434" lon="11.75566125422358"><ele>156.0</ele><time>2026-03-24T13:29:35Z</time></trkpt><trkpt lat="45.791322236384474" lon="11.755743806793788"><ele>156.0</ele><time>2026-03-24T13:29:36Z</time></trkpt><trkpt lat="45.79148562457681" lon="11.755825021138373"><ele>156.0</ele><time>2026-03-24T13:29:36.999Z</time></trkpt><trkpt lat="45.7916529337927" lon="11.755913313785198"><ele>156.0</ele><time>2026-03-24T13:29:37.999Z</time></trkpt><trkpt lat="45.791825036112805" lon="11.756002268516182"><ele>157.0</ele><time>2026-03-24T13:29:38.999Z</time></trkpt><trkpt lat="45.79200633139663" lon="11.756098486574688"><ele>158.0</ele><time>2026-03-24T13:29:39.999Z</time></trkpt><trkpt lat="45.79219609488486" lon="11.756194605273564"><ele>159.0</ele><time>2026-03-24T13:29:40.999Z</time></trkpt><trkpt lat="45.79239263620548" lon="11.756293127396425"><ele>159.0</ele><time>2026-03-24T13:29:41.999Z</time></trkpt><trkpt lat="45.7925878891138" lon="11.756397457755654"><ele>159.0</ele><time>2026-03-24T13:29:42.999Z</time></trkpt><trkpt lat="45.79276336036296" lon="11.756488188729941"><ele>159.0</ele><time>2026-03-24T13:29:43.999Z</time></trkpt><trkpt lat="45.79292454835129" lon="11.756576094752482"><ele>159.33333333333334</ele><time>2026-03-24T13:29:44.999Z</time></trkpt><trkpt lat="45.79308944235666" lon="11.756665987196088"><ele>159.66666666666669</ele><time>2026-03-24T13:29:45.999Z</time></trkpt><trkpt lat="45.79325198756974" lon="11.756739503454742"><ele>160.0</ele><time>2026-03-24T13:29:46.999Z</time></trkpt><trkpt lat="45.793419682528615" lon="11.756823277134597"><ele>161.0</ele><time>2026-03-24T13:29:47.999Z</time></trkpt><trkpt lat="45.79358090364894" lon="11.756930768686894"><ele>162.0</ele><time>2026-03-24T13:29:48.999Z</time></trkpt><trkpt lat="45.79375999143428" lon="11.757001997312884"><ele>163.0</ele><time>2026-03-24T13:29:49.999Z</time></trkpt><trkpt lat="45.793941358610816" lon="11.757122735931452"><ele>163.0</ele><time>2026-03-24T13:29:50.999Z</time></trkpt><trkpt lat="45.79413982222734" lon="11.757203407403624"><ele>163.0</ele><time>2026-03-24T13:29:51.999Z</time></trkpt><trkpt lat="45.794334497553706" lon="11.757304506304017"><ele>163.0</ele><time>2026-03-24T13:29:52.999Z</time></trkpt><trkpt lat="45.79451206336709" lon="11.757421378973142"><ele>163.66666666666669</ele><time>2026-03-24T13:29:53.999Z</time></trkpt><trkpt lat="45.79467955286927" lon="11.75750883643494"><ele>164.33333333333334</ele><time>2026-03-24T13:29:54.999Z</time></trkpt><trkpt lat="45.79483831321273" lon="11.75759173600778"><ele>165.0</ele><time>2026-03-24T13:29:55.999Z</time></trkpt><trkpt lat="45.79498321126905" lon="11.757667397424507"><ele>165.5</ele><time>2026-03-24T13:29:56.999Z</time></trkpt><trkpt lat="45.795117893071016" lon="11.757737723828864"><ele>166.0</ele><time>2026-03-24T13:29:57.999Z</time></trkpt><trkpt lat="45.7952410556107" lon="11.757801672302584"><ele>166.5</ele><time>2026-03-24T13:29:58.999Z</time></trkpt><trkpt lat="45.795368645356305" lon="11.757867707908806"><ele>167.0</ele><time>2026-03-24T13:29:59.999Z</time></trkpt><trkpt lat="45.795499119949" lon="11.757935077640697"><ele>167.2</ele><time>2026-03-24T13:30:00.999Z</time></trkpt><trkpt lat="45.79561422752745" lon="11.757994512721458"><ele>167.39999999999998</ele><time>2026-03-24T13:30:01.999Z</time></trkpt><trkpt lat="45.795730633952665" lon="11.758058080057713"><ele>167.60000000000002</ele><time>2026-03-24T13:30:02.999Z</time></trkpt><trkpt lat="45.7958267850899" lon="11.758104882965041"><ele>167.8</ele><time>2026-03-24T13:30:03.999Z</time></trkpt><trkpt lat="45.79590262621459" lon="11.758121940089596"><ele>168.0</ele><time>2026-03-24T13:30:04.999Z</time></trkpt><trkpt lat="45.79597397605786" lon="11.758199682389808"><ele>168.2</ele><time>2026-03-24T13:30:05.999Z</time></trkpt><trkpt lat="45.796043024500136" lon="11.75823508764585"><ele>168.4</ele><time>2026-03-24T13:30:06.999Z</time></trkpt><trkpt lat="45.79609119328732" lon="11.7582986296455"><ele>168.6</ele><time>2026-03-24T13:30:07.999Z</time></trkpt><trkpt lat="45.796142100219676" lon="11.758448601335605"><ele>168.79999999999998</ele><time>2026-03-24T13:30:09.999Z</time></trkpt><trkpt lat="45.79621240804248" lon="11.758559536439968"><ele>169.0</ele><time>2026-03-24T13:30:11.999Z</time></trkpt><trkpt lat="45.79632158027167" lon="11.758492106366255"><ele>169.0</ele><time>2026-03-24T13:30:13.999Z</time></trkpt><trkpt lat="45.7963413991022" lon="11.758400940378001"><ele>169.0</ele><time>2026-03-24T13:30:14.999Z</time></trkpt><trkpt lat="45.79633793242968" lon="11.758298036610165"><ele>169.0</ele><time>2026-03-24T13:30:15.999Z</time></trkpt><trkpt lat="45.79629584393511" lon="11.758210304575421"><ele>169.0</ele><time>2026-03-24T13:30:16.999Z</time></trkpt><trkpt lat="45.796351595224635" lon="11.758088988896715"><ele>169.0</ele><time>2026-03-24T13:30:17.999Z</time></trkpt><trkpt lat="45.796387017191854" lon="11.75799135838214"><ele>169.0</ele><time>2026-03-24T13:30:18.999Z</time></trkpt><trkpt lat="45.79644773518104" lon="11.75790364226442"><ele>169.0</ele><time>2026-03-24T13:30:19.999Z</time></trkpt><trkpt lat="45.796533198113394" lon="11.757842794994058"><ele>169.0</ele><time>2026-03-24T13:30:21Z</time></trkpt><trkpt lat="45.7966108062481" lon="11.757742893048114"><ele>169.0</ele><time>2026-03-24T13:30:22Z</time></trkpt><trkpt lat="45.79669545655488" lon="11.757650097973762"><ele>169.0</ele><time>2026-03-24T13:30:23Z</time></trkpt><trkpt lat="45.79677486751714" lon="11.757566965514528"><ele>169.0</ele><time>2026-03-24T13:30:24Z</time></trkpt><trkpt lat="45.79685507225897" lon="11.757519441310926"><ele>169.79999999999998</ele><time>2026-03-24T13:30:25Z</time></trkpt><trkpt lat="45.796980199738876" lon="11.7574896128397"><ele>170.6</ele><time>2026-03-24T13:30:27Z</time></trkpt><trkpt lat="45.79704645036351" lon="11.75745974867125"><ele>171.4</ele><time>2026-03-24T13:30:28Z</time></trkpt><trkpt lat="45.79713147515321" lon="11.7574293017704"><ele>172.2</ele><time>2026-03-24T13:30:29Z</time></trkpt><trkpt lat="45.79721821120646" lon="11.757372578312813"><ele>173.0</ele><time>2026-03-24T13:30:30Z</time></trkpt><trkpt lat="45.7973106010919" lon="11.757310165817783"><ele>173.0</ele><time>2026-03-24T13:30:31Z</time></trkpt><trkpt lat="45.79739512013153" lon="11.757225685323249"><ele>173.0</ele><time>2026-03-24T13:30:32Z</time></trkpt><trkpt lat="45.797486309211514" lon="11.757146805744112"><ele>173.0</ele><time>2026-03-24T13:30:33Z</time></trkpt><trkpt lat="45.797581835126685" lon="11.757061031501252"><ele>173.0</ele><time>2026-03-24T13:30:34Z</time></trkpt><trkpt lat="45.797689265596034" lon="11.756965679271307"><ele>173.0</ele><time>2026-03-24T13:30:35Z</time></trkpt><trkpt lat="45.79779763057273" lon="11.756866615468123"><ele>173.5</ele><time>2026-03-24T13:30:36Z</time></trkpt><trkpt lat="45.79792778425162" lon="11.756821321676723"><ele>174.0</ele><time>2026-03-24T13:30:37Z</time></trkpt><trkpt lat="45.798061122885166" lon="11.75678057775289"><ele>174.5</ele><time>2026-03-24T13:30:38Z</time></trkpt><trkpt lat="45.79819480586711" lon="11.756742653395508"><ele>175.0</ele><time>2026-03-24T13:30:39Z</time></trkpt><trkpt lat="45.79830489831573" lon="11.756721196252435"><ele>175.0</ele><time>2026-03-24T13:30:40Z</time></trkpt><trkpt lat="45.79840933578502" lon="11.756709556118519"><ele>175.0</ele><time>2026-03-24T13:30:41Z</time></trkpt><trkpt lat="45.798520272534596" lon="11.756681339785759"><ele>175.0</ele><time>2026-03-24T13:30:42Z</time></trkpt><trkpt lat="45.798635025859504" lon="11.756646598027476"><ele>175.0</ele><time>2026-03-24T13:30:43Z</time></trkpt><trkpt lat="45.79876612876276" lon="11.756614424548099"><ele>176.0</ele><time>2026-03-24T13:30:44Z</time></trkpt><trkpt lat="45.79890204913168" lon="11.756584529154146"><ele>177.0</ele><time>2026-03-24T13:30:45Z</time></trkpt><trkpt lat="45.79904643909935" lon="11.756547550734878"><ele>178.0</ele><time>2026-03-24T13:30:46Z</time></trkpt><trkpt lat="45.79916987171235" lon="11.756509459045335"><ele>179.0</ele><time>2026-03-24T13:30:47Z</time></trkpt><trkpt lat="45.799283176629274" lon="11.756470072974988"><ele>180.0</ele><time>2026-03-24T13:30:48Z</time></trkpt><trkpt lat="45.799385584071686" lon="11.756463036186405"><ele>181.0</ele><time>2026-03-24T13:30:49Z</time></trkpt><trkpt lat="45.79947346490941" lon="11.756461195745445"><ele>182.0</ele><time>2026-03-24T13:30:50Z</time></trkpt><trkpt lat="45.799569405904364" lon="11.756474821971056"><ele>183.0</ele><time>2026-03-24T13:30:51Z</time></trkpt><trkpt lat="45.79967925614313" lon="11.756490856457477"><ele>184.0</ele><time>2026-03-24T13:30:52Z</time></trkpt><trkpt lat="45.79979065651133" lon="11.756505198919205"><ele>184.0</ele><time>2026-03-24T13:30:53Z</time></trkpt><trkpt lat="45.79991413748675" lon="11.756527748520053"><ele>184.0</ele><time>2026-03-24T13:30:54Z</time></trkpt><trkpt lat="45.800035517578316" lon="11.756538766219144"><ele>184.0</ele><time>2026-03-24T13:30:55Z</time></trkpt><trkpt lat="45.8001281877444" lon="11.756553591509329"><ele>184.0</ele><time>2026-03-24T13:30:56Z</time></trkpt><trkpt lat="45.80020691631502" lon="11.756567503904009"><ele>184.0</ele><time>2026-03-24T13:30:57Z</time></trkpt><trkpt lat="45.800301544476255" lon="11.756643443726155"><ele>184.0</ele><time>2026-03-24T13:30:59Z</time></trkpt><trkpt lat="45.800320843939176" lon="11.756750826025817"><ele>184.0</ele><time>2026-03-24T13:31:00Z</time></trkpt><trkpt lat="45.800380079803304" lon="11.756834285472419"><ele>184.0</ele><time>2026-03-24T13:31:01Z</time></trkpt><trkpt lat="45.80042284703412" lon="11.756935045588527"><ele>184.0</ele><time>2026-03-24T13:31:02Z</time></trkpt><trkpt lat="45.800496420832395" lon="11.757033351342724"><ele>184.0</ele><time>2026-03-24T13:31:03Z</time></trkpt><trkpt lat="45.800587603049834" lon="11.757133796473871"><ele>184.0</ele><time>2026-03-24T13:31:04Z</time></trkpt><trkpt lat="45.800698596470305" lon="11.75722355435803"><ele>184.0</ele><time>2026-03-24T13:31:05Z</time></trkpt><trkpt lat="45.80080630467838" lon="11.75732559845814"><ele>184.0</ele><time>2026-03-24T13:31:06Z</time></trkpt><trkpt lat="45.80092144229781" lon="11.757432175895111"><ele>184.0</ele><time>2026-03-24T13:31:07Z</time></trkpt><trkpt lat="45.80103139995737" lon="11.757530238691913"><ele>184.6</ele><time>2026-03-24T13:31:08Z</time></trkpt><trkpt lat="45.801125685217315" lon="11.757615413815149"><ele>185.2</ele><time>2026-03-24T13:31:09Z</time></trkpt><trkpt lat="45.80120407682989" lon="11.757705111404443"><ele>185.79999999999998</ele><time>2026-03-24T13:31:10Z</time></trkpt><trkpt lat="45.801282702924055" lon="11.757802278758271"><ele>186.39999999999998</ele><time>2026-03-24T13:31:11Z</time></trkpt><trkpt lat="45.801359137890934" lon="11.75790262751304"><ele>187.0</ele><time>2026-03-24T13:31:12Z</time></trkpt><trkpt lat="45.801451094168634" lon="11.757980716015798"><ele>187.0</ele><time>2026-03-24T13:31:13Z</time></trkpt><trkpt lat="45.80154303793735" lon="11.758011585242595"><ele>187.0</ele><time>2026-03-24T13:31:14Z</time></trkpt><trkpt lat="45.801614374139305" lon="11.75799193533654"><ele>187.0</ele><time>2026-03-24T13:31:15Z</time></trkpt><trkpt lat="45.80173996774045" lon="11.757912519784103"><ele>187.0</ele><time>2026-03-24T13:31:17Z</time></trkpt><trkpt lat="45.801829815358026" lon="11.757876363844801"><ele>187.0</ele><time>2026-03-24T13:31:18Z</time></trkpt><trkpt lat="45.801939807550305" lon="11.757877305904445"><ele>187.5</ele><time>2026-03-24T13:31:19Z</time></trkpt><trkpt lat="45.802055472149135" lon="11.757916747170595"><ele>188.0</ele><time>2026-03-24T13:31:20Z</time></trkpt><trkpt lat="45.802172701188645" lon="11.757939308255175"><ele>188.5</ele><time>2026-03-24T13:31:21Z</time></trkpt><trkpt lat="45.80229185315702" lon="11.75791953555042"><ele>189.0</ele><time>2026-03-24T13:31:22Z</time></trkpt><trkpt lat="45.80242431292326" lon="11.757850965452775"><ele>189.0</ele><time>2026-03-24T13:31:23Z</time></trkpt><trkpt lat="45.80256160132003" lon="11.757760321165776"><ele>189.0</ele><time>2026-03-24T13:31:24Z</time></trkpt><trkpt lat="45.80270471894148" lon="11.757671851774047"><ele>189.0</ele><time>2026-03-24T13:31:25Z</time></trkpt><trkpt lat="45.80285127074208" lon="11.757580257035455"><ele>190.0</ele><time>2026-03-24T13:31:26Z</time></trkpt><trkpt lat="45.80298272114137" lon="11.757488525673258"><ele>191.0</ele><time>2026-03-24T13:31:27Z</time></trkpt><trkpt lat="45.803099778358046" lon="11.757411996512872"><ele>192.0</ele><time>2026-03-24T13:31:28Z</time></trkpt><trkpt lat="45.803221612160655" lon="11.757362207624789"><ele>193.0</ele><time>2026-03-24T13:31:29Z</time></trkpt><trkpt lat="45.803329241381604" lon="11.757290010948722"><ele>193.0</ele><time>2026-03-24T13:31:30Z</time></trkpt><trkpt lat="45.803439263759" lon="11.757212683604969"><ele>193.0</ele><time>2026-03-24T13:31:31Z</time></trkpt><trkpt lat="45.80354972575208" lon="11.757141400685377"><ele>193.0</ele><time>2026-03-24T13:31:32Z</time></trkpt><trkpt lat="45.80366632797512" lon="11.757068476794315"><ele>193.0</ele><time>2026-03-24T13:31:33Z</time></trkpt><trkpt lat="45.8037787594477" lon="11.756987308741994"><ele>193.25</ele><time>2026-03-24T13:31:34Z</time></trkpt><trkpt lat="45.80389161168921" lon="11.756907960242174"><ele>193.5</ele><time>2026-03-24T13:31:35Z</time></trkpt><trkpt lat="45.804010671700304" lon="11.756837970050938"><ele>193.75</ele><time>2026-03-24T13:31:36Z</time></trkpt><trkpt lat="45.80412731384546" lon="11.756764596443483"><ele>194.0</ele><time>2026-03-24T13:31:37Z</time></trkpt><trkpt lat="45.80423571391381" lon="11.75668680948527"><ele>195.39999999999998</ele><time>2026-03-24T13:31:38Z</time></trkpt><trkpt lat="45.80432498030123" lon="11.75658533557822"><ele>196.8</ele><time>2026-03-24T13:31:39Z</time></trkpt><trkpt lat="45.80439777043838" lon="11.75648621853688"><ele>198.2</ele><time>2026-03-24T13:31:40Z</time></trkpt><trkpt lat="45.804474332383855" lon="11.756382967881063"><ele>199.60000000000002</ele><time>2026-03-24T13:31:41Z</time></trkpt><trkpt lat="45.804577360625046" lon="11.75631644671579"><ele>201.0</ele><time>2026-03-24T13:31:42Z</time></trkpt><trkpt lat="45.80469324936294" lon="11.756306881652884"><ele>203.0</ele><time>2026-03-24T13:31:43Z</time></trkpt><trkpt lat="45.80481218892597" lon="11.756309148275607"><ele>205.0</ele><time>2026-03-24T13:31:44Z</time></trkpt><trkpt lat="45.80493109368163" lon="11.756357537551661"><ele>207.0</ele><time>2026-03-24T13:31:45Z</time></trkpt><trkpt lat="45.80506911918048" lon="11.756409446675743"><ele>209.0</ele><time>2026-03-24T13:31:46Z</time></trkpt><trkpt lat="45.80522639597917" lon="11.756453331951104"><ele>214.0</ele><time>2026-03-24T13:31:47Z</time></trkpt><trkpt lat="45.805383240248055" lon="11.756520611891021"><ele>219.0</ele><time>2026-03-24T13:31:48Z</time></trkpt><trkpt lat="45.80556337897399" lon="11.75658093785012"><ele>224.0</ele><time>2026-03-24T13:31:49Z</time></trkpt><trkpt lat="45.80575974506146" lon="11.756643568158074"><ele>224.0</ele><time>2026-03-24T13:31:50Z</time></trkpt><trkpt lat="45.80595659082105" lon="11.756684405700348"><ele>224.0</ele><time>2026-03-24T13:31:51Z</time></trkpt><trkpt lat="45.80616308556772" lon="11.756721699105695"><ele>224.0</ele><time>2026-03-24T13:31:52Z</time></trkpt><trkpt lat="45.80637919205424" lon="11.756744428181744"><ele>228.66666666666669</ele><time>2026-03-24T13:31:53Z</time></trkpt><trkpt lat="45.80656009140756" lon="11.756758797846674"><ele>233.33333333333331</ele><time>2026-03-24T13:31:54Z</time></trkpt><trkpt lat="45.8067395252228" lon="11.75677593451902"><ele>238.0</ele><time>2026-03-24T13:31:55Z</time></trkpt><trkpt lat="45.80689453479797" lon="11.75677371490906"><ele>239.25</ele><time>2026-03-24T13:31:56Z</time></trkpt><trkpt lat="45.80702408889718" lon="11.756776077880614"><ele>240.5</ele><time>2026-03-24T13:31:57Z</time></trkpt><trkpt lat="45.80712870248637" lon="11.756781049882374"><ele>241.75</ele><time>2026-03-24T13:31:58Z</time></trkpt><trkpt lat="45.8072423021681" lon="11.756792347442259"><ele>243.0</ele><time>2026-03-24T13:31:59Z</time></trkpt><trkpt lat="45.80737105254822" lon="11.756800218369143"><ele>243.0</ele><time>2026-03-24T13:32:00Z</time></trkpt><trkpt lat="45.80747457907186" lon="11.756808663957905"><ele>243.0</ele><time>2026-03-24T13:32:01Z</time></trkpt><trkpt lat="45.80754448581532" lon="11.75684129049629"><ele>243.0</ele><time>2026-03-24T13:32:02Z</time></trkpt><trkpt lat="45.80763159820003" lon="11.75689256341537"><ele>243.0</ele><time>2026-03-24T13:32:03Z</time></trkpt><trkpt lat="45.807705176981024" lon="11.756929701154892"><ele>243.0</ele><time>2026-03-24T13:32:05Z</time></trkpt><trkpt lat="45.807791044799934" lon="11.75685181753806"><ele>243.0</ele><time>2026-03-24T13:32:07Z</time></trkpt><trkpt lat="45.80781472216443" lon="11.756667463378756"><ele>243.0</ele><time>2026-03-24T13:32:09Z</time></trkpt><trkpt lat="45.80772817470208" lon="11.756581054481678"><ele>243.0</ele><time>2026-03-24T13:32:10Z</time></trkpt><trkpt lat="45.807641244759985" lon="11.756554817152645"><ele>243.0</ele><time>2026-03-24T13:32:11Z</time></trkpt><trkpt lat="45.80753713129995" lon="11.756537839575989"><ele>243.0</ele><time>2026-03-24T13:32:12Z</time></trkpt><trkpt lat="45.807421490988844" lon="11.756534964751076"><ele>243.0</ele><time>2026-03-24T13:32:13Z</time></trkpt><trkpt lat="45.8073146032619" lon="11.756502831608596"><ele>243.0</ele><time>2026-03-24T13:32:14Z</time></trkpt><trkpt lat="45.80718196408185" lon="11.756483428728053"><ele>243.0</ele><time>2026-03-24T13:32:15Z</time></trkpt><trkpt lat="45.80704329203034" lon="11.75645750854651"><ele>243.0</ele><time>2026-03-24T13:32:16Z</time></trkpt><trkpt lat="45.806895067338104" lon="11.75642466683369"><ele>241.33333333333331</ele><time>2026-03-24T13:32:17Z</time></trkpt><trkpt lat="45.80675160660332" lon="11.756360444185727"><ele>239.66666666666666</ele><time>2026-03-24T13:32:18Z</time></trkpt><trkpt lat="45.80660607474628" lon="11.756301544378525"><ele>238.0</ele><time>2026-03-24T13:32:19Z</time></trkpt><trkpt lat="45.806452888320564" lon="11.756214416060756"><ele>238.0</ele><time>2026-03-24T13:32:20Z</time></trkpt><trkpt lat="45.80630405366103" lon="11.756123071553882"><ele>238.0</ele><time>2026-03-24T13:32:21Z</time></trkpt><trkpt lat="45.80615470977885" lon="11.756027655650232"><ele>238.0</ele><time>2026-03-24T13:32:22Z</time></trkpt><trkpt lat="45.8059972549434" lon="11.755924925972579"><ele>246.66666666666666</ele><time>2026-03-24T13:32:23Z</time></trkpt><trkpt lat="45.8058284642934" lon="11.755812941905727"><ele>255.33333333333331</ele><time>2026-03-24T13:32:24Z</time></trkpt><trkpt lat="45.80566509763036" lon="11.75569219437468"><ele>264.0</ele><time>2026-03-24T13:32:25Z</time></trkpt><trkpt lat="45.80550058497086" lon="11.755548742376721"><ele>264.0</ele><time>2026-03-24T13:32:26Z</time></trkpt><trkpt lat="45.8053635829729" lon="11.755417150174411"><ele>264.0</ele><time>2026-03-24T13:32:27Z</time></trkpt><trkpt lat="45.80524813386029" lon="11.755281148600286"><ele>264.0</ele><time>2026-03-24T13:32:28Z</time></trkpt><trkpt lat="45.80512541316603" lon="11.755146004511762"><ele>267.6666666666667</ele><time>2026-03-24T13:32:29Z</time></trkpt><trkpt lat="45.80502528160793" lon="11.75499682275668"><ele>271.33333333333337</ele><time>2026-03-24T13:32:30Z</time></trkpt><trkpt lat="45.804913719613396" lon="11.754837376730137"><ele>275.0</ele><time>2026-03-24T13:32:31Z</time></trkpt><trkpt lat="45.80479958286603" lon="11.754675016328006"><ele>275.0</ele><time>2026-03-24T13:32:32Z</time></trkpt><trkpt lat="45.804678505460785" lon="11.754513031693017"><ele>275.0</ele><time>2026-03-24T13:32:33Z</time></trkpt><trkpt lat="45.80456256616363" lon="11.75436556065501"><ele>275.0</ele><time>2026-03-24T13:32:34Z</time></trkpt><trkpt lat="45.804441016715636" lon="11.754214642455377"><ele>273.6666666666667</ele><time>2026-03-24T13:32:35Z</time></trkpt><trkpt lat="45.804331190760024" lon="11.754045551258557"><ele>272.3333333333333</ele><time>2026-03-24T13:32:36Z</time></trkpt><trkpt lat="45.80422387003039" lon="11.753866736162138"><ele>271.0</ele><time>2026-03-24T13:32:37Z</time></trkpt><trkpt lat="45.80410807452432" lon="11.753672643229235"><ele>281.0</ele><time>2026-03-24T13:32:38Z</time></trkpt><trkpt lat="45.80397959482851" lon="11.753456713819075"><ele>291.0</ele><time>2026-03-24T13:32:39Z</time></trkpt><trkpt lat="45.803851304068765" lon="11.75323718915093"><ele>301.0</ele><time>2026-03-24T13:32:40Z</time></trkpt><trkpt lat="45.803732501638" lon="11.753036692279522"><ele>301.0</ele><time>2026-03-24T13:32:41Z</time></trkpt><trkpt lat="45.80362873959285" lon="11.752864785429779"><ele>301.0</ele><time>2026-03-24T13:32:42Z</time></trkpt><trkpt lat="45.80353876946756" lon="11.752733016820308"><ele>301.0</ele><time>2026-03-24T13:32:43Z</time></trkpt><trkpt lat="45.803458824981895" lon="11.752575142732775"><ele>301.0</ele><time>2026-03-24T13:32:44Z</time></trkpt><trkpt lat="45.80339177044265" lon="11.752400267067134"><ele>296.0</ele><time>2026-03-24T13:32:45Z</time></trkpt><trkpt lat="45.80332200485037" lon="11.752212464525282"><ele>291.0</ele><time>2026-03-24T13:32:46Z</time></trkpt><trkpt lat="45.80324213747203" lon="11.752031627592821"><ele>286.0</ele><time>2026-03-24T13:32:47Z</time></trkpt><trkpt lat="45.803177302216795" lon="11.75182989131587"><ele>298.0</ele><time>2026-03-24T13:32:48Z</time></trkpt><trkpt lat="45.80311118426861" lon="11.751629307655001"><ele>310.0</ele><time>2026-03-24T13:32:49Z</time></trkpt><trkpt lat="45.80304558816864" lon="11.751421230599853"><ele>322.0</ele><time>2026-03-24T13:32:50Z</time></trkpt><trkpt lat="45.80297108068284" lon="11.751211620792859"><ele>329.0</ele><time>2026-03-24T13:32:51Z</time></trkpt><trkpt lat="45.80289919687316" lon="11.751004391563301"><ele>336.0</ele><time>2026-03-24T13:32:52Z</time></trkpt><trkpt lat="45.80284294078733" lon="11.750783264394002"><ele>343.0</ele><time>2026-03-24T13:32:53Z</time></trkpt><trkpt lat="45.80276504492582" lon="11.750569973499404"><ele>343.0</ele><time>2026-03-24T13:32:54Z</time></trkpt><trkpt lat="45.80270194198775" lon="11.750369601855688"><ele>343.0</ele><time>2026-03-24T13:32:55Z</time></trkpt><trkpt lat="45.80264972394246" lon="11.75020515127647"><ele>343.0</ele><time>2026-03-24T13:32:56Z</time></trkpt><trkpt lat="45.802602061100124" lon="11.750059592671834"><ele>343.0</ele><time>2026-03-24T13:32:57Z</time></trkpt><trkpt lat="45.80256061001731" lon="11.749932212577015"><ele>337.0</ele><time>2026-03-24T13:32:58Z</time></trkpt><trkpt lat="45.802504880811256" lon="11.749811136994953"><ele>331.0</ele><time>2026-03-24T13:32:59Z</time></trkpt><trkpt lat="45.802419523043945" lon="11.749702431016683"><ele>325.0</ele><time>2026-03-24T13:33:00Z</time></trkpt><trkpt lat="45.802319793813176" lon="11.749622345991275"><ele>319.0</ele><time>2026-03-24T13:33:01Z</time></trkpt><trkpt lat="45.8022063146588" lon="11.749526855097296"><ele>319.0</ele><time>2026-03-24T13:33:02Z</time></trkpt><trkpt lat="45.80205630695607" lon="11.749456130618514"><ele>319.0</ele><time>2026-03-24T13:33:03Z</time></trkpt><trkpt lat="45.80193390449492" lon="11.749346437611878"><ele>319.0</ele><time>2026-03-24T13:33:04Z</time></trkpt><trkpt lat="45.80179700440101" lon="11.749273966849438"><ele>319.0</ele><time>2026-03-24T13:33:05Z</time></trkpt><trkpt lat="45.80167945579576" lon="11.749182944826176"><ele>320.75</ele><time>2026-03-24T13:33:06Z</time></trkpt><trkpt lat="45.80157653893368" lon="11.749059749147307"><ele>322.5</ele><time>2026-03-24T13:33:07Z</time></trkpt><trkpt lat="45.80149477321381" lon="11.748879515978643"><ele>324.25</ele><time>2026-03-24T13:33:08Z</time></trkpt><trkpt lat="45.801397149285414" lon="11.748708996510159"><ele>326.0</ele><time>2026-03-24T13:33:09Z</time></trkpt><trkpt lat="45.8012946973524" lon="11.74849753032163"><ele>325.0</ele><time>2026-03-24T13:33:10Z</time></trkpt><trkpt lat="45.80117106799676" lon="11.748292433149484"><ele>324.0</ele><time>2026-03-24T13:33:11Z</time></trkpt><trkpt lat="45.801070595380516" lon="11.748103115366044"><ele>323.0</ele><time>2026-03-24T13:33:12Z</time></trkpt><trkpt lat="45.800984377691876" lon="11.747920109013016"><ele>323.0</ele><time>2026-03-24T13:33:13Z</time></trkpt><trkpt lat="45.800922519542446" lon="11.747752259501556"><ele>323.0</ele><time>2026-03-24T13:33:14Z</time></trkpt><trkpt lat="45.80086107194708" lon="11.747620597065877"><ele>323.0</ele><time>2026-03-24T13:33:15Z</time></trkpt><trkpt lat="45.80080413009549" lon="11.747508729765734"><ele>323.0</ele><time>2026-03-24T13:33:16Z</time></trkpt><trkpt lat="45.80074523227561" lon="11.747414923963543"><ele>323.0</ele><time>2026-03-24T13:33:17Z</time></trkpt><trkpt lat="45.800690415558854" lon="11.747356619182698"><ele>328.0</ele><time>2026-03-24T13:33:18Z</time></trkpt><trkpt lat="45.80062461659464" lon="11.747268490586597"><ele>333.0</ele><time>2026-03-24T13:33:20Z</time></trkpt><trkpt lat="45.800559759634766" lon="11.747165610105272"><ele>338.0</ele><time>2026-03-24T13:33:22Z</time></trkpt><trkpt lat="45.80054743659687" lon="11.747010904676058"><ele>343.0</ele><time>2026-03-24T13:33:24Z</time></trkpt><trkpt lat="45.80060669699232" lon="11.746960819156007"><ele>348.0</ele><time>2026-03-24T13:33:25Z</time></trkpt><trkpt lat="45.80070787981176" lon="11.74703312079929"><ele>348.0</ele><time>2026-03-24T13:33:27Z</time></trkpt><trkpt lat="45.8007425630727" lon="11.74715656243365"><ele>348.0</ele><time>2026-03-24T13:33:28Z</time></trkpt><trkpt lat="45.800780407991354" lon="11.74725664326198"><ele>348.0</ele><time>2026-03-24T13:33:29Z</time></trkpt><trkpt lat="45.800839665153305" lon="11.747365611973258"><ele>348.0</ele><time>2026-03-24T13:33:30Z</time></trkpt><trkpt lat="45.800912335327475" lon="11.747475807266625"><ele>348.0</ele><time>2026-03-24T13:33:31Z</time></trkpt><trkpt lat="45.80100370685405" lon="11.747577387140206"><ele>352.0</ele><time>2026-03-24T13:33:32Z</time></trkpt><trkpt lat="45.80109950907378" lon="11.747685299043846"><ele>356.0</ele><time>2026-03-24T13:33:33Z</time></trkpt><trkpt lat="45.80119068559716" lon="11.74779788226568"><ele>360.0</ele><time>2026-03-24T13:33:34Z</time></trkpt><trkpt lat="45.801275321867735" lon="11.747903203124586"><ele>364.0</ele><time>2026-03-24T13:33:35Z</time></trkpt><trkpt lat="45.80135153601977" lon="11.747987733304827"><ele>364.0</ele><time>2026-03-24T13:33:36Z</time></trkpt><trkpt lat="45.80140988439463" lon="11.748059869599837"><ele>364.0</ele><time>2026-03-24T13:33:37Z</time></trkpt><trkpt lat="45.801459485453876" lon="11.748130799365072"><ele>364.0</ele><time>2026-03-24T13:33:39Z</time></trkpt><trkpt lat="45.80150787404207" lon="11.748197069000073"><ele>364.0</ele><time>2026-03-24T13:33:42Z</time></trkpt><trkpt lat="45.801574690394254" lon="11.748258606679695"><ele>364.0</ele><time>2026-03-24T13:37:38Z</time></trkpt><trkpt lat="45.80164777236044" lon="11.748335308758998"><ele>364.0</ele><time>2026-03-24T13:37:40Z</time></trkpt><trkpt lat="45.80171118945745" lon="11.748419497326667"><ele>364.0</ele><time>2026-03-24T13:37:42Z</time></trkpt><trkpt lat="45.801762829046496" lon="11.748479972349946"><ele>364.0</ele><time>2026-03-24T13:37:43Z</time></trkpt><trkpt lat="45.80182396810335" lon="11.748534683128707"><ele>364.0</ele><time>2026-03-24T13:37:44Z</time></trkpt><trkpt lat="45.801891184717654" lon="11.748590060582583"><ele>364.0</ele><time>2026-03-24T13:37:45Z</time></trkpt><trkpt lat="45.80198627509011" lon="11.748649615859872"><ele>364.0</ele><time>2026-03-24T13:37:46Z</time></trkpt><trkpt lat="45.802086319477574" lon="11.748700014796773"><ele>364.0</ele><time>2026-03-24T13:37:47Z</time></trkpt><trkpt lat="45.80218691337509" lon="11.748752207253736"><ele>362.2</ele><time>2026-03-24T13:37:48Z</time></trkpt><trkpt lat="45.802289074008456" lon="11.748774734868205"><ele>360.4</ele><time>2026-03-24T13:37:49Z</time></trkpt><trkpt lat="45.802394036710375" lon="11.748788975698238"><ele>358.6</ele><time>2026-03-24T13:37:50Z</time></trkpt><trkpt lat="45.802500048773204" lon="11.748791320705147"><ele>356.8</ele><time>2026-03-24T13:37:51Z</time></trkpt><trkpt lat="45.802623147977094" lon="11.748803840398674"><ele>355.0</ele><time>2026-03-24T13:37:52Z</time></trkpt><trkpt lat="45.802742858517654" lon="11.748814487457123"><ele>362.2</ele><time>2026-03-24T13:37:53Z</time></trkpt><trkpt lat="45.80284567630848" lon="11.748834389250584"><ele>369.4</ele><time>2026-03-24T13:37:54Z</time></trkpt><trkpt lat="45.80292039735696" lon="11.74887262828856"><ele>376.6</ele><time>2026-03-24T13:37:55Z</time></trkpt><trkpt lat="45.80299810683269" lon="11.748903473919578"><ele>383.8</ele><time>2026-03-24T13:37:56Z</time></trkpt><trkpt lat="45.80306071979026" lon="11.748980431759671"><ele>391.0</ele><time>2026-03-24T13:37:57Z</time></trkpt><trkpt lat="45.80313555160258" lon="11.749084782547163"><ele>391.0</ele><time>2026-03-24T13:37:58Z</time></trkpt><trkpt lat="45.80321170832682" lon="11.749199549023945"><ele>391.0</ele><time>2026-03-24T13:37:59Z</time></trkpt><trkpt lat="45.80329294837064" lon="11.749312543945704"><ele>391.0</ele><time>2026-03-24T13:38:00Z</time></trkpt><trkpt lat="45.8033766017211" lon="11.749445636542816"><ele>391.0</ele><time>2026-03-24T13:38:01Z</time></trkpt><trkpt lat="45.803457927477936" lon="11.749586324119463"><ele>392.5</ele><time>2026-03-24T13:38:02Z</time></trkpt><trkpt lat="45.80353517333566" lon="11.749736044429596"><ele>394.0</ele><time>2026-03-24T13:38:03Z</time></trkpt><trkpt lat="45.80361942767875" lon="11.749889786205618"><ele>395.5</ele><time>2026-03-24T13:38:04Z</time></trkpt><trkpt lat="45.803701525714175" lon="11.750068152756999"><ele>397.0</ele><time>2026-03-24T13:38:05Z</time></trkpt><trkpt lat="45.80379421078301" lon="11.750250357024926"><ele>397.0</ele><time>2026-03-24T13:38:06Z</time></trkpt><trkpt lat="45.80389270526237" lon="11.750456551485353"><ele>397.0</ele><time>2026-03-24T13:38:07Z</time></trkpt><trkpt lat="45.80400021469736" lon="11.75066434989854"><ele>397.0</ele><time>2026-03-24T13:38:08Z</time></trkpt><trkpt lat="45.80409698539012" lon="11.75086070882892"><ele>397.0</ele><time>2026-03-24T13:38:09Z</time></trkpt><trkpt lat="45.80417234776409" lon="11.751034265270569"><ele>397.0</ele><time>2026-03-24T13:38:10Z</time></trkpt><trkpt lat="45.804232280400576" lon="11.751173843322961"><ele>397.0</ele><time>2026-03-24T13:38:11Z</time></trkpt><trkpt lat="45.80428021060541" lon="11.751300805283012"><ele>397.0</ele><time>2026-03-24T13:38:12Z</time></trkpt><trkpt lat="45.80433477365415" lon="11.751408609549312"><ele>400.6</ele><time>2026-03-24T13:38:13Z</time></trkpt><trkpt lat="45.80441260281957" lon="11.751495706221844"><ele>404.20000000000005</ele><time>2026-03-24T13:38:14Z</time></trkpt><trkpt lat="45.80449783419162" lon="11.751587751585928"><ele>407.8</ele><time>2026-03-24T13:38:15Z</time></trkpt><trkpt lat="45.804595055143324" lon="11.751684195752276"><ele>411.4</ele><time>2026-03-24T13:38:16Z</time></trkpt><trkpt lat="45.8046943074545" lon="11.7517816652135"><ele>415.0</ele><time>2026-03-24T13:38:17Z</time></trkpt><trkpt lat="45.80480374469179" lon="11.751872554040698"><ele>416.25</ele><time>2026-03-24T13:38:18Z</time></trkpt><trkpt lat="45.80491567875541" lon="11.75196310986783"><ele>417.5</ele><time>2026-03-24T13:38:19Z</time></trkpt><trkpt lat="45.80502924547749" lon="11.752053837699364"><ele>418.75</ele><time>2026-03-24T13:38:20Z</time></trkpt><trkpt lat="45.805140693058384" lon="11.75214962512977"><ele>420.0</ele><time>2026-03-24T13:38:21Z</time></trkpt><trkpt lat="45.805257149234905" lon="11.752249176038204"><ele>420.0</ele><time>2026-03-24T13:38:22Z</time></trkpt><trkpt lat="45.805384279034456" lon="11.752353442708351"><ele>420.0</ele><time>2026-03-24T13:38:23Z</time></trkpt><trkpt lat="45.80551632214265" lon="11.752455051241279"><ele>420.0</ele><time>2026-03-24T13:38:24Z</time></trkpt><trkpt lat="45.80565147007493" lon="11.752562585686192"><ele>420.0</ele><time>2026-03-24T13:38:25Z</time></trkpt><trkpt lat="45.80579094490125" lon="11.752677344669568"><ele>420.0</ele><time>2026-03-24T13:38:26Z</time></trkpt><trkpt lat="45.80593506353539" lon="11.752778413870924"><ele>420.0</ele><time>2026-03-24T13:38:27Z</time></trkpt><trkpt lat="45.80607844357357" lon="11.752894692893578"><ele>417.5</ele><time>2026-03-24T13:38:28Z</time></trkpt><trkpt lat="45.8061992289779" lon="11.753015091361682"><ele>415.0</ele><time>2026-03-24T13:38:29Z</time></trkpt><trkpt lat="45.80629930272258" lon="11.753096725514656"><ele>412.5</ele><time>2026-03-24T13:38:30Z</time></trkpt><trkpt lat="45.80638957602899" lon="11.753166213899696"><ele>410.0</ele><time>2026-03-24T13:38:31Z</time></trkpt><trkpt lat="45.80648820604777" lon="11.753231440930684"><ele>410.0</ele><time>2026-03-24T13:38:32Z</time></trkpt><trkpt lat="45.80662768218535" lon="11.753323249022305"><ele>410.0</ele><time>2026-03-24T13:38:33Z</time></trkpt><trkpt lat="45.80675436280171" lon="11.753363916748778"><ele>410.0</ele><time>2026-03-24T13:38:34Z</time></trkpt><trkpt lat="45.80687545210821" lon="11.753397957884989"><ele>410.0</ele><time>2026-03-24T13:38:35Z</time></trkpt><trkpt lat="45.80698901407726" lon="11.753407484062372"><ele>416.66666666666663</ele><time>2026-03-24T13:38:36Z</time></trkpt><trkpt lat="45.80713667574526" lon="11.753404773509818"><ele>423.33333333333337</ele><time>2026-03-24T13:38:37Z</time></trkpt><trkpt lat="45.80730060223689" lon="11.753343547702972"><ele>430.0</ele><time>2026-03-24T13:38:38Z</time></trkpt><trkpt lat="45.807438060415635" lon="11.753290912760017"><ele>430.0</ele><time>2026-03-24T13:38:39Z</time></trkpt><trkpt lat="45.807565559636565" lon="11.753267438662524"><ele>430.0</ele><time>2026-03-24T13:38:40Z</time></trkpt><trkpt lat="45.80769755780735" lon="11.753259550691741"><ele>430.0</ele><time>2026-03-24T13:38:41Z</time></trkpt><trkpt lat="45.807820613903566" lon="11.753228532164144"><ele>430.0</ele><time>2026-03-24T13:38:42Z</time></trkpt><trkpt lat="45.80794107618825" lon="11.753210546045594"><ele>427.75</ele><time>2026-03-24T13:38:43Z</time></trkpt><trkpt lat="45.80805570245331" lon="11.753215334093488"><ele>425.5</ele><time>2026-03-24T13:38:44Z</time></trkpt><trkpt lat="45.80817906982311" lon="11.753176002882302"><ele>423.25</ele><time>2026-03-24T13:38:45.001Z</time></trkpt><trkpt lat="45.808306283922505" lon="11.753135783717225"><ele>421.0</ele><time>2026-03-24T13:38:46.001Z</time></trkpt><trkpt lat="45.80842731699715" lon="11.753106394508325"><ele>419.5</ele><time>2026-03-24T13:38:47.001Z</time></trkpt><trkpt lat="45.80854874305154" lon="11.753055790907164"><ele>418.0</ele><time>2026-03-24T13:38:48.001Z</time></trkpt><trkpt lat="45.80867147580827" lon="11.75299374568725"><ele>416.5</ele><time>2026-03-24T13:38:49.001Z</time></trkpt><trkpt lat="45.808789066148016" lon="11.752929578190923"><ele>415.0</ele><time>2026-03-24T13:38:50.001Z</time></trkpt><trkpt lat="45.808912109059946" lon="11.752860261113943"><ele>415.0</ele><time>2026-03-24T13:38:51.001Z</time></trkpt><trkpt lat="45.809050165650866" lon="11.75280436797977"><ele>415.0</ele><time>2026-03-24T13:38:52.001Z</time></trkpt><trkpt lat="45.80918102945105" lon="11.752752522714083"><ele>415.0</ele><time>2026-03-24T13:38:53.001Z</time></trkpt><trkpt lat="45.809319548956346" lon="11.752705917887422"><ele>415.0</ele><time>2026-03-24T13:38:54.001Z</time></trkpt><trkpt lat="45.80944735703172" lon="11.75266048662929"><ele>419.6</ele><time>2026-03-24T13:38:55.001Z</time></trkpt><trkpt lat="45.80954929824479" lon="11.752607432682073"><ele>424.2</ele><time>2026-03-24T13:38:56.001Z</time></trkpt><trkpt lat="45.8096386041076" lon="11.752558335830741"><ele>428.79999999999995</ele><time>2026-03-24T13:38:57Z</time></trkpt><trkpt lat="45.809717607199914" lon="11.75245619986118"><ele>433.4</ele><time>2026-03-24T13:38:58Z</time></trkpt><trkpt lat="45.80979363764172" lon="11.752352959203652"><ele>438.0</ele><time>2026-03-24T13:38:59Z</time></trkpt><trkpt lat="45.80988879205124" lon="11.752245591277182"><ele>438.0</ele><time>2026-03-24T13:39:00Z</time></trkpt><trkpt lat="45.809971139474285" lon="11.752125624518598"><ele>437.99999999999994</ele><time>2026-03-24T13:39:01Z</time></trkpt><trkpt lat="45.8100613847792" lon="11.752020652721875"><ele>437.99999999999994</ele><time>2026-03-24T13:39:02Z</time></trkpt><trkpt lat="45.81016926777552" lon="11.752032963644709"><ele>438.0</ele><time>2026-03-24T13:39:03Z</time></trkpt><trkpt lat="45.81026788039602" lon="11.752013858283348"><ele>438.0</ele><time>2026-03-24T13:39:04Z</time></trkpt><trkpt lat="45.81037476750446" lon="11.751995132178235"><ele>441.4</ele><time>2026-03-24T13:39:05Z</time></trkpt><trkpt lat="45.81050161350564" lon="11.75197295478275"><ele>444.79999999999995</ele><time>2026-03-24T13:39:06Z</time></trkpt><trkpt lat="45.81059525914544" lon="11.751956582047093"><ele>448.2</ele><time>2026-03-24T13:39:07Z</time></trkpt><trkpt lat="45.8107018783557" lon="11.751928479940165"><ele>451.6</ele><time>2026-03-24T13:39:09Z</time></trkpt><trkpt lat="45.81074305943273" lon="11.75178187180653"><ele>455.0</ele><time>2026-03-24T13:39:11Z</time></trkpt><trkpt lat="45.81071675506348" lon="11.751699258447603"><ele>455.0</ele><time>2026-03-24T13:39:12Z</time></trkpt><trkpt lat="45.810648293900364" lon="11.751668584779873"><ele>455.0</ele><time>2026-03-24T13:39:13Z</time></trkpt><trkpt lat="45.81058018219079" lon="11.751693430986094"><ele>455.0</ele><time>2026-03-24T13:39:14Z</time></trkpt><trkpt lat="45.81047169678724" lon="11.751758305690126"><ele>455.0</ele><time>2026-03-24T13:39:15Z</time></trkpt><trkpt lat="45.810355503157176" lon="11.751809006103741"><ele>455.0</ele><time>2026-03-24T13:39:16Z</time></trkpt><trkpt lat="45.810236075954855" lon="11.751843474311034"><ele>450.75</ele><time>2026-03-24T13:39:17Z</time></trkpt><trkpt lat="45.810091441930304" lon="11.751844100682714"><ele>446.5</ele><time>2026-03-24T13:39:18Z</time></trkpt><trkpt lat="45.80994631893232" lon="11.75186722627075"><ele>442.25</ele><time>2026-03-24T13:39:19Z</time></trkpt><trkpt lat="45.809829395426135" lon="11.751925226813045"><ele>438.0</ele><time>2026-03-24T13:39:20Z</time></trkpt><trkpt lat="45.80972073086929" lon="11.75203332645708"><ele>438.0</ele><time>2026-03-24T13:39:21Z</time></trkpt><trkpt lat="45.80957530901101" lon="11.752120831107653"><ele>438.0</ele><time>2026-03-24T13:39:22Z</time></trkpt><trkpt lat="45.80944150998953" lon="11.752200405169697"><ele>438.0</ele><time>2026-03-24T13:39:23Z</time></trkpt><trkpt lat="45.80929026064367" lon="11.752241038255578"><ele>444.33333333333337</ele><time>2026-03-24T13:39:24Z</time></trkpt><trkpt lat="45.80911498214007" lon="11.75227159545759"><ele>450.6666666666667</ele><time>2026-03-24T13:39:25Z</time></trkpt><trkpt lat="45.8089109953663" lon="11.752307869802756"><ele>457.0</ele><time>2026-03-24T13:39:26Z</time></trkpt><trkpt lat="45.80870736826183" lon="11.752340526421738"><ele>460.6666666666667</ele><time>2026-03-24T13:39:27Z</time></trkpt><trkpt lat="45.808484502811396" lon="11.752370763529214"><ele>464.33333333333337</ele><time>2026-03-24T13:39:28Z</time></trkpt><trkpt lat="45.808266795836836" lon="11.75238062943353"><ele>468.0</ele><time>2026-03-24T13:39:29Z</time></trkpt><trkpt lat="45.808112050579155" lon="11.752371274166308"><ele>468.0</ele><time>2026-03-24T13:39:30Z</time></trkpt><trkpt lat="45.80794827213065" lon="11.752347826643943"><ele>468.0</ele><time>2026-03-24T13:39:31Z</time></trkpt><trkpt lat="45.80777272917878" lon="11.75232398521776"><ele>468.0</ele><time>2026-03-24T13:39:32Z</time></trkpt><trkpt lat="45.80760223444117" lon="11.752301976639826"><ele>467.75</ele><time>2026-03-24T13:39:33Z</time></trkpt><trkpt lat="45.80744114254904" lon="11.752281181848387"><ele>467.5</ele><time>2026-03-24T13:39:34Z</time></trkpt><trkpt lat="45.80731825812805" lon="11.752263059355247"><ele>467.25</ele><time>2026-03-24T13:39:35Z</time></trkpt><trkpt lat="45.80721186202732" lon="11.752230244175655"><ele>467.0</ele><time>2026-03-24T13:39:36Z</time></trkpt><trkpt lat="45.80710834276438" lon="11.75214827701558"><ele>467.0</ele><time>2026-03-24T13:39:37Z</time></trkpt><trkpt lat="45.80699015554628" lon="11.75204859921101"><ele>467.0</ele><time>2026-03-24T13:39:38Z</time></trkpt><trkpt lat="45.806864187850785" lon="11.751939960582716"><ele>467.0</ele><time>2026-03-24T13:39:39Z</time></trkpt><trkpt lat="45.80674699899309" lon="11.75183192648652"><ele>467.0</ele><time>2026-03-24T13:39:40Z</time></trkpt><trkpt lat="45.806656089868135" lon="11.751733399211641"><ele>473.75</ele><time>2026-03-24T13:39:41Z</time></trkpt><trkpt lat="45.806588583021046" lon="11.751614799694195"><ele>480.5</ele><time>2026-03-24T13:39:42Z</time></trkpt><trkpt lat="45.80652495414879" lon="11.751446750720461"><ele>487.25</ele><time>2026-03-24T13:39:43Z</time></trkpt><trkpt lat="45.80643561715054" lon="11.751261877310279"><ele>494.0</ele><time>2026-03-24T13:39:44Z</time></trkpt><trkpt lat="45.80632650612097" lon="11.751088369633885"><ele>504.3333333333333</ele><time>2026-03-24T13:39:45Z</time></trkpt><trkpt lat="45.80622191053409" lon="11.750899487428207"><ele>514.6666666666666</ele><time>2026-03-24T13:39:46Z</time></trkpt><trkpt lat="45.80611635870481" lon="11.750720099781585"><ele>525.0</ele><time>2026-03-24T13:39:47Z</time></trkpt><trkpt lat="45.80601209149677" lon="11.750569228763464"><ele>524.25</ele><time>2026-03-24T13:39:48Z</time></trkpt><trkpt lat="45.80591603469268" lon="11.75043379063507"><ele>523.5</ele><time>2026-03-24T13:39:49Z</time></trkpt><trkpt lat="45.80579856961654" lon="11.750376002643058"><ele>522.75</ele><time>2026-03-24T13:39:50Z</time></trkpt><trkpt lat="45.805664702514726" lon="11.750301741302241"><ele>522.0</ele><time>2026-03-24T13:39:51Z</time></trkpt><trkpt lat="45.80556317740937" lon="11.750176378943145"><ele>522.0</ele><time>2026-03-24T13:39:52Z</time></trkpt><trkpt lat="45.80547288587772" lon="11.75006303761583"><ele>522.0</ele><time>2026-03-24T13:39:53Z</time></trkpt><trkpt lat="45.80540116935562" lon="11.749937992703252"><ele>522.0</ele><time>2026-03-24T13:39:54Z</time></trkpt><trkpt lat="45.805411146938944" lon="11.749760675735176"><ele>522.0</ele><time>2026-03-24T13:39:55Z</time></trkpt><trkpt lat="45.80535328247174" lon="11.749581492432434"><ele>514.0</ele><time>2026-03-24T13:39:56Z</time></trkpt><trkpt lat="45.80529588351064" lon="11.749373806839403"><ele>506.0</ele><time>2026-03-24T13:39:57Z</time></trkpt><trkpt lat="45.805236481231965" lon="11.749123591288418"><ele>498.0</ele><time>2026-03-24T13:39:58Z</time></trkpt><trkpt lat="45.80515710724278" lon="11.748850228869934"><ele>498.0</ele><time>2026-03-24T13:39:59Z</time></trkpt><trkpt lat="45.80507366587414" lon="11.748562308450781"><ele>498.0</ele><time>2026-03-24T13:40:00Z</time></trkpt><trkpt lat="45.80498883339306" lon="11.74826928059062"><ele>498.0</ele><time>2026-03-24T13:40:01Z</time></trkpt><trkpt lat="45.80491425215551" lon="11.748014623588748"><ele>506.0</ele><time>2026-03-24T13:40:02Z</time></trkpt><trkpt lat="45.80484560063086" lon="11.747797611545616"><ele>514.0</ele><time>2026-03-24T13:40:03Z</time></trkpt><trkpt lat="45.8047769021742" lon="11.747606154343568"><ele>522.0</ele><time>2026-03-24T13:40:04Z</time></trkpt><trkpt lat="45.804699372428786" lon="11.747416929210004"><ele>530.3333333333334</ele><time>2026-03-24T13:40:05Z</time></trkpt><trkpt lat="45.80459436766103" lon="11.74722279549471"><ele>538.6666666666667</ele><time>2026-03-24T13:40:06Z</time></trkpt><trkpt lat="45.804469648788796" lon="11.747034995595575"><ele>547.0</ele><time>2026-03-24T13:40:07Z</time></trkpt><trkpt lat="45.80434278699137" lon="11.746828206011136"><ele>540.0</ele><time>2026-03-24T13:40:08Z</time></trkpt><trkpt lat="45.80419136208457" lon="11.746604442629785"><ele>533.0</ele><time>2026-03-24T13:40:09Z</time></trkpt><trkpt lat="45.80404561928404" lon="11.746388111692939"><ele>526.0</ele><time>2026-03-24T13:40:10Z</time></trkpt><trkpt lat="45.80392702312754" lon="11.746196569062398"><ele>533.3333333333334</ele><time>2026-03-24T13:40:10.999Z</time></trkpt><trkpt lat="45.80384962884337" lon="11.746011480399483"><ele>540.6666666666666</ele><time>2026-03-24T13:40:11.999Z</time></trkpt><trkpt lat="45.803792551908764" lon="11.745800539848291"><ele>548.0</ele><time>2026-03-24T13:40:12.999Z</time></trkpt><trkpt lat="45.80376812710755" lon="11.745571491645341"><ele>548.0</ele><time>2026-03-24T13:40:13.999Z</time></trkpt><trkpt lat="45.803794049755545" lon="11.745373605218926"><ele>548.0</ele><time>2026-03-24T13:40:14.999Z</time></trkpt><trkpt lat="45.80387036239105" lon="11.745204588177913"><ele>548.0</ele><time>2026-03-24T13:40:15.999Z</time></trkpt><trkpt lat="45.80391288016672" lon="11.745004450266789"><ele>548.0</ele><time>2026-03-24T13:40:16.999Z</time></trkpt><trkpt lat="45.80396329813345" lon="11.744827917674247"><ele>550.0</ele><time>2026-03-24T13:40:17.999Z</time></trkpt><trkpt lat="45.80397191634469" lon="11.744656653179607"><ele>552.0</ele><time>2026-03-24T13:40:18.999Z</time></trkpt><trkpt lat="45.80395016725164" lon="11.744528315439803"><ele>554.0</ele><time>2026-03-24T13:40:19.999Z</time></trkpt><trkpt lat="45.80390654972195" lon="11.744430175003894"><ele>556.0</ele><time>2026-03-24T13:40:20.999Z</time></trkpt><trkpt lat="45.803845665183935" lon="11.74437560773597"><ele>558.0</ele><time>2026-03-24T13:40:21.999Z</time></trkpt><trkpt lat="45.80375668091011" lon="11.744404191008154"><ele>558.0</ele><time>2026-03-24T13:40:22.999Z</time></trkpt><trkpt lat="45.80365206194805" lon="11.744483822168714"><ele>558.0</ele><time>2026-03-24T13:40:23.999Z</time></trkpt><trkpt lat="45.8035547069653" lon="11.744541221241638"><ele>558.0</ele><time>2026-03-24T13:40:24.999Z</time></trkpt><trkpt lat="45.80345605992827" lon="11.744568859591444"><ele>558.0</ele><time>2026-03-24T13:40:25.999Z</time></trkpt><trkpt lat="45.80337946232357" lon="11.744530346625684"><ele>558.0</ele><time>2026-03-24T13:40:26.999Z</time></trkpt><trkpt lat="45.80329450595718" lon="11.744459563503387"><ele>557.0</ele><time>2026-03-24T13:40:27.999Z</time></trkpt><trkpt lat="45.80319841233415" lon="11.744376092439422"><ele>556.0</ele><time>2026-03-24T13:40:28.999Z</time></trkpt><trkpt lat="45.803104338705744" lon="11.74428284603997"><ele>555.0</ele><time>2026-03-24T13:40:29.999Z</time></trkpt><trkpt lat="45.80301699294855" lon="11.744173028880995"><ele>554.0</ele><time>2026-03-24T13:40:30.999Z</time></trkpt><trkpt lat="45.80291908851319" lon="11.744098055525543"><ele>554.0</ele><time>2026-03-24T13:40:31.999Z</time></trkpt><trkpt lat="45.80282873115855" lon="11.744058253239047"><ele>554.0</ele><time>2026-03-24T13:40:32.999Z</time></trkpt><trkpt lat="45.802762350706395" lon="11.744021688226884"><ele>554.0</ele><time>2026-03-24T13:40:33.999Z</time></trkpt><trkpt lat="45.80273200215984" lon="11.743892731165976"><ele>554.0</ele><time>2026-03-24T13:40:35.999Z</time></trkpt><trkpt lat="45.80283972083608" lon="11.743791303722366"><ele>554.0</ele><time>2026-03-24T13:40:37.999Z</time></trkpt><trkpt lat="45.802918101204114" lon="11.743822270459194"><ele>554.0</ele><time>2026-03-24T13:40:38.999Z</time></trkpt><trkpt lat="45.803000970592265" lon="11.743881236608473"><ele>554.0</ele><time>2026-03-24T13:40:39.999Z</time></trkpt><trkpt lat="45.803097878178924" lon="11.743946017059491"><ele>554.0</ele><time>2026-03-24T13:40:40.999Z</time></trkpt><trkpt lat="45.803208779246496" lon="11.743999384517931"><ele>554.0</ele><time>2026-03-24T13:40:41.999Z</time></trkpt><trkpt lat="45.80332737555689" lon="11.744040902677922"><ele>554.0</ele><time>2026-03-24T13:40:42.999Z</time></trkpt><trkpt lat="45.80342915161741" lon="11.744056791035026"><ele>555.4285714285714</ele><time>2026-03-24T13:40:43.999Z</time></trkpt><trkpt lat="45.80351219697625" lon="11.744046414765586"><ele>556.8571428571428</ele><time>2026-03-24T13:40:44.999Z</time></trkpt><trkpt lat="45.80358157177376" lon="11.744013486879338"><ele>558.2857142857142</ele><time>2026-03-24T13:40:45.999Z</time></trkpt><trkpt lat="45.80364767047017" lon="11.743977871889005"><ele>559.7142857142857</ele><time>2026-03-24T13:40:46.999Z</time></trkpt><trkpt lat="45.80371554525199" lon="11.743944312538062"><ele>561.1428571428571</ele><time>2026-03-24T13:40:47.999Z</time></trkpt><trkpt lat="45.803781734555365" lon="11.743911388079034"><ele>562.5714285714286</ele><time>2026-03-24T13:40:48.999Z</time></trkpt><trkpt lat="45.80384902974263" lon="11.743878515526715"><ele>564.0</ele><time>2026-03-24T13:40:49.999Z</time></trkpt><trkpt lat="45.80392451500547" lon="11.743850745265814"><ele>564.0</ele><time>2026-03-24T13:40:51Z</time></trkpt><trkpt lat="45.80399854270241" lon="11.743803827435348"><ele>564.0</ele><time>2026-03-24T13:40:52Z</time></trkpt><trkpt lat="45.8040809717197" lon="11.743764985636664"><ele>564.0</ele><time>2026-03-24T13:40:53Z</time></trkpt><trkpt lat="45.804166919581895" lon="11.74372416397351"><ele>564.0</ele><time>2026-03-24T13:40:54Z</time></trkpt><trkpt lat="45.80425234745594" lon="11.743683988454158"><ele>564.0</ele><time>2026-03-24T13:40:55Z</time></trkpt><trkpt lat="45.80433470440053" lon="11.743689812977573"><ele>564.0</ele><time>2026-03-24T13:40:56Z</time></trkpt><trkpt lat="45.8043953734933" lon="11.743745977370962"><ele>569.8</ele><time>2026-03-24T13:40:57Z</time></trkpt><trkpt lat="45.80442967863273" lon="11.743838521861266"><ele>575.5999999999999</ele><time>2026-03-24T13:40:58Z</time></trkpt><trkpt lat="45.80443334695926" lon="11.74396432867383"><ele>581.4</ele><time>2026-03-24T13:40:59Z</time></trkpt><trkpt lat="45.804437039078465" lon="11.744116499907815"><ele>587.1999999999999</ele><time>2026-03-24T13:41:00Z</time></trkpt><trkpt lat="45.804453597306356" lon="11.744286026982149"><ele>593.0</ele><time>2026-03-24T13:41:01Z</time></trkpt><trkpt lat="45.804469048100074" lon="11.744478509762468"><ele>593.0</ele><time>2026-03-24T13:41:02Z</time></trkpt><trkpt lat="45.80451039961576" lon="11.744682776564193"><ele>593.0</ele><time>2026-03-24T13:41:03Z</time></trkpt><trkpt lat="45.80457941912936" lon="11.744885471565622"><ele>593.0</ele><time>2026-03-24T13:41:04Z</time></trkpt><trkpt lat="45.80467402846012" lon="11.745084223686423"><ele>590.6666666666666</ele><time>2026-03-24T13:41:05Z</time></trkpt><trkpt lat="45.80478454774781" lon="11.745260807375914"><ele>588.3333333333334</ele><time>2026-03-24T13:41:06Z</time></trkpt><trkpt lat="45.804880231878066" lon="11.745449937894437"><ele>586.0</ele><time>2026-03-24T13:41:07Z</time></trkpt><trkpt lat="45.804922205036206" lon="11.745660913739687"><ele>586.0</ele><time>2026-03-24T13:41:08Z</time></trkpt><trkpt lat="45.80497028024769" lon="11.745866682183525"><ele>586.0</ele><time>2026-03-24T13:41:09Z</time></trkpt><trkpt lat="45.80503133035108" lon="11.746062850209679"><ele>586.0</ele><time>2026-03-24T13:41:10Z</time></trkpt><trkpt lat="45.80507621861612" lon="11.7462669243619"><ele>588.5</ele><time>2026-03-24T13:41:11Z</time></trkpt><trkpt lat="45.80513085749307" lon="11.74646081544715"><ele>591.0</ele><time>2026-03-24T13:41:12Z</time></trkpt><trkpt lat="45.80519435589992" lon="11.746635874359484"><ele>593.5</ele><time>2026-03-24T13:41:13Z</time></trkpt><trkpt lat="45.80527280719982" lon="11.746806952380064"><ele>596.0</ele><time>2026-03-24T13:41:14Z</time></trkpt><trkpt lat="45.80537792097144" lon="11.746982334145175"><ele>596.0</ele><time>2026-03-24T13:41:15Z</time></trkpt><trkpt lat="45.805448767620405" lon="11.747201992712998"><ele>596.0</ele><time>2026-03-24T13:41:16Z</time></trkpt><trkpt lat="45.80553151054072" lon="11.747416880350855"><ele>596.0</ele><time>2026-03-24T13:41:17Z</time></trkpt><trkpt lat="45.8056232615795" lon="11.747614364727513"><ele>596.75</ele><time>2026-03-24T13:41:18Z</time></trkpt><trkpt lat="45.80570192225609" lon="11.747780646133332"><ele>597.5</ele><time>2026-03-24T13:41:19Z</time></trkpt><trkpt lat="45.8057960642946" lon="11.74791804449418"><ele>598.25</ele><time>2026-03-24T13:41:20Z</time></trkpt><trkpt lat="45.805923262430305" lon="11.748049266588257"><ele>599.0</ele><time>2026-03-24T13:41:21Z</time></trkpt><trkpt lat="45.80605081384004" lon="11.748171097274959"><ele>599.0</ele><time>2026-03-24T13:41:22Z</time></trkpt><trkpt lat="45.80614363290854" lon="11.74829685356604"><ele>599.0</ele><time>2026-03-24T13:41:23Z</time></trkpt><trkpt lat="45.80624273517932" lon="11.748373672704888"><ele>599.0</ele><time>2026-03-24T13:41:24Z</time></trkpt><trkpt lat="45.806323875809056" lon="11.748442365008845"><ele>599.0</ele><time>2026-03-24T13:41:25Z</time></trkpt><trkpt lat="45.80639643350612" lon="11.74846365208879"><ele>599.0</ele><time>2026-03-24T13:41:26Z</time></trkpt><trkpt lat="45.80645992728769" lon="11.74842617015103"><ele>599.0</ele><time>2026-03-24T13:41:27Z</time></trkpt><trkpt lat="45.806499943399714" lon="11.748323786582095"><ele>599.0</ele><time>2026-03-24T13:41:28Z</time></trkpt><trkpt lat="45.80643396362932" lon="11.748069078008157"><ele>599.0</ele><time>2026-03-24T13:41:30Z</time></trkpt><trkpt lat="45.80633591435501" lon="11.747985410488887"><ele>599.0</ele><time>2026-03-24T13:41:31Z</time></trkpt><trkpt lat="45.806218231769385" lon="11.747917080460242"><ele>599.0</ele><time>2026-03-24T13:41:32Z</time></trkpt><trkpt lat="45.806113111887505" lon="11.747811791279327"><ele>599.0</ele><time>2026-03-24T13:41:33Z</time></trkpt><trkpt lat="45.806023237508185" lon="11.747653663380984"><ele>599.0</ele><time>2026-03-24T13:41:34Z</time></trkpt><trkpt lat="45.80594237181973" lon="11.747446197258471"><ele>599.0</ele><time>2026-03-24T13:41:35Z</time></trkpt><trkpt lat="45.805863013625086" lon="11.747200275864307"><ele>598.0</ele><time>2026-03-24T13:41:36Z</time></trkpt><trkpt lat="45.80579330678932" lon="11.74691917542088"><ele>597.0</ele><time>2026-03-24T13:41:37Z</time></trkpt><trkpt lat="45.80574202597196" lon="11.74662822033959"><ele>596.0</ele><time>2026-03-24T13:41:38Z</time></trkpt><trkpt lat="45.8057251170849" lon="11.746317450931638"><ele>603.6666666666666</ele><time>2026-03-24T13:41:39Z</time></trkpt><trkpt lat="45.805740839469166" lon="11.746004394929244"><ele>611.3333333333334</ele><time>2026-03-24T13:41:40Z</time></trkpt><trkpt lat="45.80577128610304" lon="11.745730195525317"><ele>619.0</ele><time>2026-03-24T13:41:41Z</time></trkpt><trkpt lat="45.8058144753762" lon="11.745494925589641"><ele>619.0</ele><time>2026-03-24T13:41:42Z</time></trkpt><trkpt lat="45.8058572897035" lon="11.745294216666835"><ele>619.0</ele><time>2026-03-24T13:41:43Z</time></trkpt><trkpt lat="45.80586166601469" lon="11.745125735473538"><ele>619.0</ele><time>2026-03-24T13:41:44Z</time></trkpt><trkpt lat="45.80581302848809" lon="11.744954340100268"><ele>619.0</ele><time>2026-03-24T13:41:45Z</time></trkpt><trkpt lat="45.805751624920994" lon="11.744767287921404"><ele>621.0</ele><time>2026-03-24T13:41:46Z</time></trkpt><trkpt lat="45.80569614043218" lon="11.744541001423265"><ele>623.0</ele><time>2026-03-24T13:41:47Z</time></trkpt><trkpt lat="45.805689994346935" lon="11.744299386296346"><ele>625.0</ele><time>2026-03-24T13:41:48Z</time></trkpt><trkpt lat="45.80569422792932" lon="11.744034917561434"><ele>627.3333333333334</ele><time>2026-03-24T13:41:49Z</time></trkpt><trkpt lat="45.805749555630584" lon="11.743770875447824"><ele>629.6666666666666</ele><time>2026-03-24T13:41:50Z</time></trkpt><trkpt lat="45.80581440202103" lon="11.743494945014541"><ele>632.0</ele><time>2026-03-24T13:41:51Z</time></trkpt><trkpt lat="45.80590860396076" lon="11.743220041792169"><ele>632.0</ele><time>2026-03-24T13:41:52Z</time></trkpt><trkpt lat="45.805972169376645" lon="11.742974469485102"><ele>632.0</ele><time>2026-03-24T13:41:53Z</time></trkpt><trkpt lat="45.8060418647695" lon="11.742785835160454"><ele>632.0</ele><time>2026-03-24T13:41:54Z</time></trkpt><trkpt lat="45.80607907616929" lon="11.742631703210781"><ele>632.0</ele><time>2026-03-24T13:41:55Z</time></trkpt><trkpt lat="45.8060878918538" lon="11.742517966123843"><ele>638.8</ele><time>2026-03-24T13:41:56Z</time></trkpt><trkpt lat="45.806097962784534" lon="11.742428718523314"><ele>645.6</ele><time>2026-03-24T13:41:56.999Z</time></trkpt><trkpt lat="45.80615571106739" lon="11.742319068484043"><ele>652.4</ele><time>2026-03-24T13:41:58.999Z</time></trkpt><trkpt lat="45.80622981729618" lon="11.742348352608369"><ele>659.1999999999999</ele><time>2026-03-24T13:41:59.999Z</time></trkpt><trkpt lat="45.80627934633353" lon="11.742566517183668"><ele>666.0</ele><time>2026-03-24T13:42:01.999Z</time></trkpt><trkpt lat="45.80620783841937" lon="11.742655389162667"><ele>665.5</ele><time>2026-03-24T13:42:02.999Z</time></trkpt><trkpt lat="45.80617458404291" lon="11.742795070446578"><ele>665.0</ele><time>2026-03-24T13:42:03.999Z</time></trkpt><trkpt lat="45.80613450931417" lon="11.742963399972838"><ele>664.5</ele><time>2026-03-24T13:42:04.999Z</time></trkpt><trkpt lat="45.806102518126174" lon="11.743147602793492"><ele>664.0</ele><time>2026-03-24T13:42:05.999Z</time></trkpt><trkpt lat="45.80611344849939" lon="11.743356134565039"><ele>664.0</ele><time>2026-03-24T13:42:06.999Z</time></trkpt><trkpt lat="45.806133996482195" lon="11.743527231340325"><ele>664.0</ele><time>2026-03-24T13:42:07.999Z</time></trkpt><trkpt lat="45.80617426494218" lon="11.743707694190022"><ele>664.0</ele><time>2026-03-24T13:42:08.999Z</time></trkpt><trkpt lat="45.806257993998464" lon="11.743888835242311"><ele>664.0</ele><time>2026-03-24T13:42:09.999Z</time></trkpt><trkpt lat="45.80632992840278" lon="11.744089280697391"><ele>662.0</ele><time>2026-03-24T13:42:10.999Z</time></trkpt><trkpt lat="45.80643294204933" lon="11.744293901267204"><ele>660.0</ele><time>2026-03-24T13:42:11.999Z</time></trkpt><trkpt lat="45.80653835950714" lon="11.744451232223934"><ele>658.0</ele><time>2026-03-24T13:42:12.999Z</time></trkpt><trkpt lat="45.806638135326345" lon="11.744571326106898"><ele>658.75</ele><time>2026-03-24T13:42:13.999Z</time></trkpt><trkpt lat="45.80673537858639" lon="11.744678050825703"><ele>659.5</ele><time>2026-03-24T13:42:14.999Z</time></trkpt><trkpt lat="45.80684841593717" lon="11.744750651776323"><ele>660.25</ele><time>2026-03-24T13:42:15.999Z</time></trkpt><trkpt lat="45.806965681330105" lon="11.744783598333772"><ele>661.0</ele><time>2026-03-24T13:42:16.999Z</time></trkpt><trkpt lat="45.8070930053917" lon="11.74480976979778"><ele>661.0</ele><time>2026-03-24T13:42:17.999Z</time></trkpt><trkpt lat="45.80722334700203" lon="11.744816812237291"><ele>661.0</ele><time>2026-03-24T13:42:18.999Z</time></trkpt><trkpt lat="45.80736574728349" lon="11.744789350828086"><ele>661.0</ele><time>2026-03-24T13:42:19.999Z</time></trkpt><trkpt lat="45.807503281273675" lon="11.744713323936194"><ele>661.0</ele><time>2026-03-24T13:42:20.999Z</time></trkpt><trkpt lat="45.807642597060756" lon="11.744589876382486"><ele>663.6666666666667</ele><time>2026-03-24T13:42:21.999Z</time></trkpt><trkpt lat="45.80778118875252" lon="11.74441913029911"><ele>666.3333333333334</ele><time>2026-03-24T13:42:22.999Z</time></trkpt><trkpt lat="45.8079208810582" lon="11.744222155680758"><ele>669.0</ele><time>2026-03-24T13:42:23.999Z</time></trkpt><trkpt lat="45.80807889180399" lon="11.744033077278416"><ele>669.0</ele><time>2026-03-24T13:42:24.999Z</time></trkpt><trkpt lat="45.80824249178999" lon="11.743848308461933"><ele>669.0</ele><time>2026-03-24T13:42:25.999Z</time></trkpt><trkpt lat="45.8083910357364" lon="11.743680185646436"><ele>669.0</ele><time>2026-03-24T13:42:26.999Z</time></trkpt><trkpt lat="45.80853307998931" lon="11.74357359085531"><ele>676.6666666666666</ele><time>2026-03-24T13:42:27.999Z</time></trkpt><trkpt lat="45.80867047672675" lon="11.743489086624786"><ele>684.3333333333333</ele><time>2026-03-24T13:42:28.999Z</time></trkpt><trkpt lat="45.808832720026814" lon="11.743387382393141"><ele>692.0</ele><time>2026-03-24T13:42:29.999Z</time></trkpt><trkpt lat="45.80899382387111" lon="11.743324221031509"><ele>692.0</ele><time>2026-03-24T13:42:30.999Z</time></trkpt><trkpt lat="45.80914816181038" lon="11.743272992892843"><ele>692.0</ele><time>2026-03-24T13:42:31.999Z</time></trkpt><trkpt lat="45.80928542407251" lon="11.743272249270035"><ele>692.0</ele><time>2026-03-24T13:42:32.999Z</time></trkpt><trkpt lat="45.80940252162867" lon="11.743269854002394"><ele>692.0</ele><time>2026-03-24T13:42:33.999Z</time></trkpt><trkpt lat="45.809494326614505" lon="11.743283408734698"><ele>694.5</ele><time>2026-03-24T13:42:34.999Z</time></trkpt><trkpt lat="45.809561866653" lon="11.743315758786233"><ele>697.0</ele><time>2026-03-24T13:42:35.999Z</time></trkpt><trkpt lat="45.80962183215996" lon="11.743534121536202"><ele>699.5</ele><time>2026-03-24T13:42:37.999Z</time></trkpt><trkpt lat="45.80963256531421" lon="11.743684238048337"><ele>702.0</ele><time>2026-03-24T13:42:38.999Z</time></trkpt><trkpt lat="45.80964511319533" lon="11.743855585962864"><ele>702.0</ele><time>2026-03-24T13:42:39.999Z</time></trkpt><trkpt lat="45.809693258812956" lon="11.744015617515188"><ele>702.0</ele><time>2026-03-24T13:42:40.999Z</time></trkpt><trkpt lat="45.80975116951577" lon="11.744172867063464"><ele>702.0</ele><time>2026-03-24T13:42:41.999Z</time></trkpt><trkpt lat="45.80985019328784" lon="11.744301842183363"><ele>702.0</ele><time>2026-03-24T13:42:42.999Z</time></trkpt><trkpt lat="45.809968430469794" lon="11.744439908866962"><ele>700.75</ele><time>2026-03-24T13:42:43.999Z</time></trkpt><trkpt lat="45.8100610056347" lon="11.744564179637928"><ele>699.5</ele><time>2026-03-24T13:42:44.999Z</time></trkpt><trkpt lat="45.810113475094845" lon="11.744690747140993"><ele>698.25</ele><time>2026-03-24T13:42:45.999Z</time></trkpt><trkpt lat="45.81009548909009" lon="11.744842668482715"><ele>697.0</ele><time>2026-03-24T13:42:46.999Z</time></trkpt><trkpt lat="45.81007059523069" lon="11.745026551695508"><ele>697.0</ele><time>2026-03-24T13:42:47.999Z</time></trkpt><trkpt lat="45.81004863627446" lon="11.745200778271744"><ele>697.0</ele><time>2026-03-24T13:42:48.999Z</time></trkpt><trkpt lat="45.81005816112098" lon="11.745352627642855"><ele>697.0</ele><time>2026-03-24T13:42:49.999Z</time></trkpt><trkpt lat="45.81009416521318" lon="11.74550950030438"><ele>697.0</ele><time>2026-03-24T13:42:50.999Z</time></trkpt><trkpt lat="45.810156631958414" lon="11.745666650406193"><ele>700.25</ele><time>2026-03-24T13:42:51.999Z</time></trkpt><trkpt lat="45.810244278139486" lon="11.745811474336158"><ele>703.5</ele><time>2026-03-24T13:42:52.999Z</time></trkpt><trkpt lat="45.81036486770243" lon="11.745919521507263"><ele>706.75</ele><time>2026-03-24T13:42:53.999Z</time></trkpt><trkpt lat="45.810485301542805" lon="11.745997568910948"><ele>710.0</ele><time>2026-03-24T13:42:54.999Z</time></trkpt><trkpt lat="45.810620178549065" lon="11.746024662929543"><ele>710.0</ele><time>2026-03-24T13:42:55.999Z</time></trkpt><trkpt lat="45.81078636444038" lon="11.745970696970515"><ele>710.0</ele><time>2026-03-24T13:42:57Z</time></trkpt><trkpt lat="45.81095964252055" lon="11.745948881083608"><ele>710.0</ele><time>2026-03-24T13:42:58Z</time></trkpt><trkpt lat="45.81113915940572" lon="11.745932927416321"><ele>712.6666666666666</ele><time>2026-03-24T13:42:59Z</time></trkpt><trkpt lat="45.81134122819648" lon="11.745902855477224"><ele>715.3333333333334</ele><time>2026-03-24T13:43:00Z</time></trkpt><trkpt lat="45.81155142614275" lon="11.74590068092652"><ele>718.0</ele><time>2026-03-24T13:43:01Z</time></trkpt><trkpt lat="45.811784085362284" lon="11.7458945255646"><ele>722.5</ele><time>2026-03-24T13:43:02Z</time></trkpt><trkpt lat="45.812026464741635" lon="11.745871527233337"><ele>727.0</ele><time>2026-03-24T13:43:03Z</time></trkpt><trkpt lat="45.81224300902898" lon="11.745869920987701"><ele>727.0</ele><time>2026-03-24T13:43:04Z</time></trkpt><trkpt lat="45.812428470624646" lon="11.74587844211184"><ele>727.0</ele><time>2026-03-24T13:43:05Z</time></trkpt><trkpt lat="45.81257165777103" lon="11.745923512787739"><ele>727.0</ele><time>2026-03-24T13:43:06Z</time></trkpt><trkpt lat="45.81272529119827" lon="11.745949600718236"><ele>728.25</ele><time>2026-03-24T13:43:07Z</time></trkpt><trkpt lat="45.812866079705444" lon="11.745957311358728"><ele>729.5</ele><time>2026-03-24T13:43:08Z</time></trkpt><trkpt lat="45.813000727131765" lon="11.745941759433693"><ele>730.75</ele><time>2026-03-24T13:43:09Z</time></trkpt><trkpt lat="45.81313808270679" lon="11.74589471404936"><ele>732.0</ele><time>2026-03-24T13:43:10Z</time></trkpt><trkpt lat="45.81327113533125" lon="11.745803032097777"><ele>732.0</ele><time>2026-03-24T13:43:11Z</time></trkpt><trkpt lat="45.81340685149301" lon="11.745740261012969"><ele>732.0</ele><time>2026-03-24T13:43:12Z</time></trkpt><trkpt lat="45.81351781134664" lon="11.745761032732007"><ele>732.0</ele><time>2026-03-24T13:43:13Z</time></trkpt><trkpt lat="45.813607609962226" lon="11.745758538442722"><ele>732.0</ele><time>2026-03-24T13:43:14Z</time></trkpt><trkpt lat="45.81373179196675" lon="11.745757293975068"><ele>730.4000000000001</ele><time>2026-03-24T13:43:15Z</time></trkpt><trkpt lat="45.81384907399779" lon="11.74586226550071"><ele>728.8000000000001</ele><time>2026-03-24T13:43:16Z</time></trkpt><trkpt lat="45.81395193286255" lon="11.745894400148815"><ele>727.2</ele><time>2026-03-24T13:43:17Z</time></trkpt><trkpt lat="45.81403123515541" lon="11.745913585066363"><ele>725.6</ele><time>2026-03-24T13:43:18Z</time></trkpt><trkpt lat="45.81409806308922" lon="11.745951182073185"><ele>724.0</ele><time>2026-03-24T13:43:19Z</time></trkpt><trkpt lat="45.81421341015012" lon="11.745992794023437"><ele>724.0</ele><time>2026-03-24T13:43:21Z</time></trkpt><trkpt lat="45.81425311844514" lon="11.745835004939954"><ele>724.0</ele><time>2026-03-24T13:43:23Z</time></trkpt><trkpt lat="45.81421449814927" lon="11.745744544853109"><ele>724.0</ele><time>2026-03-24T13:43:24Z</time></trkpt><trkpt lat="45.81411835080053" lon="11.745710313982638"><ele>724.0</ele><time>2026-03-24T13:43:25Z</time></trkpt><trkpt lat="45.81401133096164" lon="11.745721195998144"><ele>724.0</ele><time>2026-03-24T13:43:26Z</time></trkpt><trkpt lat="45.81389040490204" lon="11.745711404328908"><ele>724.0</ele><time>2026-03-24T13:43:27Z</time></trkpt><trkpt lat="45.81375716568369" lon="11.745678564510838"><ele>724.0</ele><time>2026-03-24T13:43:28Z</time></trkpt><trkpt lat="45.813609557632866" lon="11.745615519673015"><ele>724.0</ele><time>2026-03-24T13:43:29Z</time></trkpt><trkpt lat="45.81344821833328" lon="11.745569519538252"><ele>726.6666666666667</ele><time>2026-03-24T13:43:30Z</time></trkpt><trkpt lat="45.81327535180272" lon="11.745547746314124"><ele>729.3333333333334</ele><time>2026-03-24T13:43:31Z</time></trkpt><trkpt lat="45.81312641221301" lon="11.745521292363346"><ele>732.0</ele><time>2026-03-24T13:43:32Z</time></trkpt><trkpt lat="45.81300161921208" lon="11.745460493442833"><ele>732.0</ele><time>2026-03-24T13:43:33Z</time></trkpt><trkpt lat="45.81288046230854" lon="11.745330480633184"><ele>732.0</ele><time>2026-03-24T13:43:34Z</time></trkpt><trkpt lat="45.81273169706279" lon="11.74522169903238"><ele>732.0</ele><time>2026-03-24T13:43:35Z</time></trkpt><trkpt lat="45.8125698219651" lon="11.745103603881509"><ele>739.0</ele><time>2026-03-24T13:43:36Z</time></trkpt><trkpt lat="45.81240923977412" lon="11.744989861137237"><ele>746.0</ele><time>2026-03-24T13:43:37Z</time></trkpt><trkpt lat="45.81226456462154" lon="11.74488738570123"><ele>753.0</ele><time>2026-03-24T13:43:38Z</time></trkpt><trkpt lat="45.81213953509115" lon="11.744798825385233"><ele>753.0</ele><time>2026-03-24T13:43:39Z</time></trkpt><trkpt lat="45.81203274126564" lon="11.74471703203934"><ele>753.0</ele><time>2026-03-24T13:43:40Z</time></trkpt><trkpt lat="45.81193528105892" lon="11.744632814961578"><ele>753.0</ele><time>2026-03-24T13:43:41Z</time></trkpt><trkpt lat="45.811851620883004" lon="11.744528309618035"><ele>753.0</ele><time>2026-03-24T13:43:42Z</time></trkpt><trkpt lat="45.8117817794051" lon="11.744410204541742"><ele>753.75</ele><time>2026-03-24T13:43:43Z</time></trkpt><trkpt lat="45.811740001645944" lon="11.744260230155554"><ele>754.5</ele><time>2026-03-24T13:43:44Z</time></trkpt><trkpt lat="45.811727053386676" lon="11.744078223321445"><ele>755.25</ele><time>2026-03-24T13:43:45Z</time></trkpt><trkpt lat="45.81171948654253" lon="11.743873829340906"><ele>756.0</ele><time>2026-03-24T13:43:46Z</time></trkpt><trkpt lat="45.81170553431943" lon="11.743690918703832"><ele>758.25</ele><time>2026-03-24T13:43:47Z</time></trkpt><trkpt lat="45.81174658397035" lon="11.743528424203266"><ele>760.5</ele><time>2026-03-24T13:43:48Z</time></trkpt><trkpt lat="45.81179368623121" lon="11.74336524400417"><ele>762.75</ele><time>2026-03-24T13:43:49Z</time></trkpt><trkpt lat="45.81182497673963" lon="11.74320397183908"><ele>765.0</ele><time>2026-03-24T13:43:50Z</time></trkpt><trkpt lat="45.81186311638002" lon="11.743051483642125"><ele>766.25</ele><time>2026-03-24T13:43:51Z</time></trkpt><trkpt lat="45.81185857145745" lon="11.742860386894383"><ele>767.5</ele><time>2026-03-24T13:43:52Z</time></trkpt><trkpt lat="45.81180285266976" lon="11.742656527387432"><ele>768.75</ele><time>2026-03-24T13:43:53Z</time></trkpt><trkpt lat="45.81171805744674" lon="11.742461214011728"><ele>770.0</ele><time>2026-03-24T13:43:54Z</time></trkpt><trkpt lat="45.81161993422405" lon="11.742265742559065"><ele>770.0</ele><time>2026-03-24T13:43:55Z</time></trkpt><trkpt lat="45.81152353546041" lon="11.742069272968939"><ele>770.0</ele><time>2026-03-24T13:43:56Z</time></trkpt><trkpt lat="45.81148383373255" lon="11.741885852675123"><ele>770.0</ele><time>2026-03-24T13:43:57Z</time></trkpt><trkpt lat="45.81145855471791" lon="11.741730548002002"><ele>770.0</ele><time>2026-03-24T13:43:58Z</time></trkpt><trkpt lat="45.81146798709192" lon="11.741561038383772"><ele>771.5</ele><time>2026-03-24T13:43:59Z</time></trkpt><trkpt lat="45.81149685306845" lon="11.74138125394849"><ele>773.0</ele><time>2026-03-24T13:44:00Z</time></trkpt><trkpt lat="45.811557702129356" lon="11.741225956122983"><ele>774.5</ele><time>2026-03-24T13:44:01Z</time></trkpt><trkpt lat="45.8116432123761" lon="11.741072827657755"><ele>776.0</ele><time>2026-03-24T13:44:02Z</time></trkpt><trkpt lat="45.81172676804557" lon="11.740926428059437"><ele>777.4</ele><time>2026-03-24T13:44:03Z</time></trkpt><trkpt lat="45.81180523720274" lon="11.740813674455264"><ele>778.8</ele><time>2026-03-24T13:44:04Z</time></trkpt><trkpt lat="45.811877512198265" lon="11.740697036217217"><ele>780.1999999999999</ele><time>2026-03-24T13:44:04.999Z</time></trkpt><trkpt lat="45.81195355379274" lon="11.740594379489169"><ele>781.5999999999999</ele><time>2026-03-24T13:44:05.999Z</time></trkpt><trkpt lat="45.81204812664862" lon="11.740528959795993"><ele>783.0</ele><time>2026-03-24T13:44:06.999Z</time></trkpt><trkpt lat="45.81213928920804" lon="11.740508155313936"><ele>784.8</ele><time>2026-03-24T13:44:07.999Z</time></trkpt><trkpt lat="45.812215721501516" lon="11.740485452290295"><ele>786.5999999999999</ele><time>2026-03-24T13:44:08.999Z</time></trkpt><trkpt lat="45.812285817352056" lon="11.740432332086"><ele>788.4000000000001</ele><time>2026-03-24T13:44:09.999Z</time></trkpt><trkpt lat="45.812429494954614" lon="11.74056534555956"><ele>790.2</ele><time>2026-03-24T13:44:10.999Z</time></trkpt><trkpt lat="45.812544294800794" lon="11.7406075919746"><ele>792.0</ele><time>2026-03-24T13:44:11.999Z</time></trkpt><trkpt lat="45.812682315656836" lon="11.740666755513118"><ele>792.0</ele><time>2026-03-24T13:44:12.999Z</time></trkpt><trkpt lat="45.81283230830092" lon="11.74081790049936"><ele>792.0</ele><time>2026-03-24T13:44:13.999Z</time></trkpt><trkpt lat="45.81300066655192" lon="11.74093767508887"><ele>792.0</ele><time>2026-03-24T13:44:14.999Z</time></trkpt><trkpt lat="45.81317419654274" lon="11.74105807293386"><ele>786.0</ele><time>2026-03-24T13:44:15.999Z</time></trkpt><trkpt lat="45.81335308055837" lon="11.741170112829263"><ele>780.0</ele><time>2026-03-24T13:44:16.999Z</time></trkpt><trkpt lat="45.813525050487954" lon="11.741239185568306"><ele>774.0</ele><time>2026-03-24T13:44:17.999Z</time></trkpt><trkpt lat="45.813692860067256" lon="11.741279544155702"><ele>773.0</ele><time>2026-03-24T13:44:18.999Z</time></trkpt><trkpt lat="45.81384464521241" lon="11.74126863136513"><ele>772.0</ele><time>2026-03-24T13:44:19.999Z</time></trkpt><trkpt lat="45.813992629134056" lon="11.741218809916147"><ele>771.0</ele><time>2026-03-24T13:44:20.999Z</time></trkpt><trkpt lat="45.81415429972159" lon="11.741165593195428"><ele>771.0</ele><time>2026-03-24T13:44:21.999Z</time></trkpt><trkpt lat="45.81430226061941" lon="11.74108013879312"><ele>771.0</ele><time>2026-03-24T13:44:22.999Z</time></trkpt><trkpt lat="45.81443384768562" lon="11.740979223497646"><ele>771.0</ele><time>2026-03-24T13:44:23.999Z</time></trkpt><trkpt lat="45.81454418129388" lon="11.740852749717064"><ele>773.6666666666667</ele><time>2026-03-24T13:44:24.999Z</time></trkpt><trkpt lat="45.81463661352892" lon="11.740679867750986"><ele>776.3333333333334</ele><time>2026-03-24T13:44:25.999Z</time></trkpt><trkpt lat="45.814728296099226" lon="11.740468737810984"><ele>779.0</ele><time>2026-03-24T13:44:26.999Z</time></trkpt><trkpt lat="45.81484033823099" lon="11.74026773179773"><ele>781.5</ele><time>2026-03-24T13:44:27.999Z</time></trkpt><trkpt lat="45.81494573452527" lon="11.740086549127835"><ele>784.0</ele><time>2026-03-24T13:44:28.999Z</time></trkpt><trkpt lat="45.815042792480824" lon="11.739953149534049"><ele>786.5</ele><time>2026-03-24T13:44:29.999Z</time></trkpt><trkpt lat="45.81515172834823" lon="11.739875118612423"><ele>789.0</ele><time>2026-03-24T13:44:30.999Z</time></trkpt><trkpt lat="45.815279480624724" lon="11.739829831788727"><ele>791.75</ele><time>2026-03-24T13:44:31.999Z</time></trkpt><trkpt lat="45.81540977837134" lon="11.739831259582166"><ele>794.5</ele><time>2026-03-24T13:44:32.999Z</time></trkpt><trkpt lat="45.81552157566383" lon="11.739875045405672"><ele>797.25</ele><time>2026-03-24T13:44:33.999Z</time></trkpt><trkpt lat="45.81560687658546" lon="11.739965106316536"><ele>800.0</ele><time>2026-03-24T13:44:34.999Z</time></trkpt><trkpt lat="45.81566064557031" lon="11.740092509053374"><ele>801.0</ele><time>2026-03-24T13:44:35.999Z</time></trkpt><trkpt lat="45.81568769484972" lon="11.740256152822539"><ele>802.0</ele><time>2026-03-24T13:44:36.999Z</time></trkpt><trkpt lat="45.81569851729166" lon="11.74044368908083"><ele>803.0</ele><time>2026-03-24T13:44:37.999Z</time></trkpt><trkpt lat="45.815724128687194" lon="11.740638079206024"><ele>804.0</ele><time>2026-03-24T13:44:38.999Z</time></trkpt><trkpt lat="45.815757009021226" lon="11.740840439857298"><ele>804.0</ele><time>2026-03-24T13:44:39.999Z</time></trkpt><trkpt lat="45.815771052165246" lon="11.7410196126596"><ele>804.0</ele><time>2026-03-24T13:44:40.999Z</time></trkpt><trkpt lat="45.815761458792466" lon="11.741169748424793"><ele>804.0</ele><time>2026-03-24T13:44:41.999Z</time></trkpt><trkpt lat="45.815738490745794" lon="11.741314302271258"><ele>804.0</ele><time>2026-03-24T13:44:42.999Z</time></trkpt><trkpt lat="45.815742752608415" lon="11.741459442233582"><ele>804.0</ele><time>2026-03-24T13:44:43.999Z</time></trkpt><trkpt lat="45.81578653859587" lon="11.741614550217662"><ele>803.2</ele><time>2026-03-24T13:44:44.999Z</time></trkpt><trkpt lat="45.81585566349094" lon="11.741775934641451"><ele>802.4000000000001</ele><time>2026-03-24T13:44:45.999Z</time></trkpt><trkpt lat="45.81592883379998" lon="11.741899722080657"><ele>801.6</ele><time>2026-03-24T13:44:46.999Z</time></trkpt><trkpt lat="45.815975728216266" lon="11.741998055819913"><ele>800.8</ele><time>2026-03-24T13:44:47.999Z</time></trkpt><trkpt lat="45.81602697407237" lon="11.742063801166545"><ele>800.0</ele><time>2026-03-24T13:44:48.999Z</time></trkpt><trkpt lat="45.81609933081844" lon="11.742104154739613"><ele>797.8</ele><time>2026-03-24T13:44:49.999Z</time></trkpt><trkpt lat="45.81618572712199" lon="11.742120909306017"><ele>795.6</ele><time>2026-03-24T13:44:50.999Z</time></trkpt><trkpt lat="45.81628754101174" lon="11.742106087672587"><ele>793.4000000000001</ele><time>2026-03-24T13:44:51.999Z</time></trkpt><trkpt lat="45.816396237100015" lon="11.742115176560805"><ele>791.2</ele><time>2026-03-24T13:44:52.999Z</time></trkpt><trkpt lat="45.81652176340328" lon="11.742132920716061"><ele>789.0</ele><time>2026-03-24T13:44:53.999Z</time></trkpt><trkpt lat="45.816652346311066" lon="11.742162059389152"><ele>789.0</ele><time>2026-03-24T13:44:54.999Z</time></trkpt><trkpt lat="45.816763294328" lon="11.742177884155572"><ele>789.0</ele><time>2026-03-24T13:44:55.999Z</time></trkpt><trkpt lat="45.81684167874207" lon="11.742184630962857"><ele>789.0</ele><time>2026-03-24T13:44:56.999Z</time></trkpt><trkpt lat="45.816913774899284" lon="11.742142931397234"><ele>789.0</ele><time>2026-03-24T13:44:57.999Z</time></trkpt><trkpt lat="45.81697782468638" lon="11.742072180553137"><ele>789.0</ele><time>2026-03-24T13:44:58.999Z</time></trkpt><trkpt lat="45.81703563132765" lon="11.741961398831467"><ele>789.0</ele><time>2026-03-24T13:44:59.999Z</time></trkpt><trkpt lat="45.81708363235751" lon="11.741826917385898"><ele>794.2</ele><time>2026-03-24T13:45:00.999Z</time></trkpt><trkpt lat="45.817123536810534" lon="11.741694663733421"><ele>799.4000000000001</ele><time>2026-03-24T13:45:01.999Z</time></trkpt><trkpt lat="45.817172620899576" lon="11.741570376075643"><ele>804.6</ele><time>2026-03-24T13:45:03Z</time></trkpt><trkpt lat="45.81722257704316" lon="11.74145886895751"><ele>809.8</ele><time>2026-03-24T13:45:04Z</time></trkpt><trkpt lat="45.817267019756656" lon="11.741342153355857"><ele>815.0</ele><time>2026-03-24T13:45:05Z</time></trkpt><trkpt lat="45.817325694336006" lon="11.741241490972087"><ele>815.0</ele><time>2026-03-24T13:45:06Z</time></trkpt><trkpt lat="45.817401608733675" lon="11.741174879074"><ele>815.0</ele><time>2026-03-24T13:45:07Z</time></trkpt><trkpt lat="45.817493191845074" lon="11.741178181165335"><ele>815.0</ele><time>2026-03-24T13:45:08Z</time></trkpt><trkpt lat="45.81758859207588" lon="11.741202968646183"><ele>815.0</ele><time>2026-03-24T13:45:09Z</time></trkpt><trkpt lat="45.81771684698188" lon="11.741300980559792"><ele>815.0</ele><time>2026-03-24T13:45:10Z</time></trkpt><trkpt lat="45.817794587251406" lon="11.74136488602421"><ele>816.2</ele><time>2026-03-24T13:45:11Z</time></trkpt><trkpt lat="45.817879944282794" lon="11.741443634155333"><ele>817.4</ele><time>2026-03-24T13:45:12Z</time></trkpt><trkpt lat="45.81795640496923" lon="11.74155837850775"><ele>818.5999999999999</ele><time>2026-03-24T13:45:13Z</time></trkpt><trkpt lat="45.818027014408216" lon="11.74167192302219"><ele>819.8</ele><time>2026-03-24T13:45:14Z</time></trkpt><trkpt lat="45.818092953154576" lon="11.741743879131283"><ele>821.0</ele><time>2026-03-24T13:45:15Z</time></trkpt><trkpt lat="45.81816725834178" lon="11.741790708062137"><ele>821.0</ele><time>2026-03-24T13:45:16Z</time></trkpt><trkpt lat="45.81825691305398" lon="11.741759228102362"><ele>821.0</ele><time>2026-03-24T13:45:17Z</time></trkpt><trkpt lat="45.81832768482945" lon="11.741724155463418"><ele>821.0</ele><time>2026-03-24T13:45:18Z</time></trkpt><trkpt lat="45.81840274851213" lon="11.741635860546673"><ele>821.0</ele><time>2026-03-24T13:45:19Z</time></trkpt><trkpt lat="45.81849271174156" lon="11.741535001293546"><ele>821.0</ele><time>2026-03-24T13:45:20Z</time></trkpt><trkpt lat="45.81857329757022" lon="11.741439915275366"><ele>819.75</ele><time>2026-03-24T13:45:21Z</time></trkpt><trkpt lat="45.81865423467051" lon="11.741323723479807"><ele>818.5</ele><time>2026-03-24T13:45:22Z</time></trkpt><trkpt lat="45.81874811139781" lon="11.741190257457243"><ele>817.25</ele><time>2026-03-24T13:45:23Z</time></trkpt><trkpt lat="45.81883723688212" lon="11.741066049243901"><ele>816.0</ele><time>2026-03-24T13:45:24Z</time></trkpt><trkpt lat="45.8189221267116" lon="11.740982468756977"><ele>818.5999999999999</ele><time>2026-03-24T13:45:25Z</time></trkpt><trkpt lat="45.81901464812586" lon="11.740950385704718"><ele>821.2</ele><time>2026-03-24T13:45:26Z</time></trkpt><trkpt lat="45.81911451800728" lon="11.740969970394488"><ele>823.8</ele><time>2026-03-24T13:45:27Z</time></trkpt><trkpt lat="45.81922830937608" lon="11.741011222734159"><ele>826.4000000000001</ele><time>2026-03-24T13:45:28Z</time></trkpt><trkpt lat="45.819347718348496" lon="11.741037215463061"><ele>829.0</ele><time>2026-03-24T13:45:29Z</time></trkpt><trkpt lat="45.81947429679089" lon="11.74107104473671"><ele>830.4000000000001</ele><time>2026-03-24T13:45:30Z</time></trkpt><trkpt lat="45.81959489459172" lon="11.74112056088252"><ele>831.8</ele><time>2026-03-24T13:45:31Z</time></trkpt><trkpt lat="45.81969025243688" lon="11.74119907784028"><ele>833.2</ele><time>2026-03-24T13:45:32Z</time></trkpt><trkpt lat="45.81976555349209" lon="11.741303092306616"><ele>834.5999999999999</ele><time>2026-03-24T13:45:33Z</time></trkpt><trkpt lat="45.8198296288123" lon="11.741430430841433"><ele>836.0</ele><time>2026-03-24T13:45:34Z</time></trkpt><trkpt lat="45.81990402358747" lon="11.74156611313731"><ele>836.0</ele><time>2026-03-24T13:45:35Z</time></trkpt><trkpt lat="45.81998092460849" lon="11.74169726083098"><ele>836.0</ele><time>2026-03-24T13:45:36Z</time></trkpt><trkpt lat="45.82007212587617" lon="11.741800626328182"><ele>836.0</ele><time>2026-03-24T13:45:37Z</time></trkpt><trkpt lat="45.8201794275681" lon="11.741850494828231"><ele>836.0</ele><time>2026-03-24T13:45:38Z</time></trkpt><trkpt lat="45.820297581582814" lon="11.74185478386802"><ele>833.75</ele><time>2026-03-24T13:45:39Z</time></trkpt><trkpt lat="45.82042322384944" lon="11.741864635988186"><ele>831.5</ele><time>2026-03-24T13:45:40Z</time></trkpt><trkpt lat="45.82055661039868" lon="11.741916105726093"><ele>829.25</ele><time>2026-03-24T13:45:41Z</time></trkpt><trkpt lat="45.82067343317815" lon="11.742010717311846"><ele>827.0</ele><time>2026-03-24T13:45:42Z</time></trkpt><trkpt lat="45.82079401482969" lon="11.742114949676717"><ele>827.0</ele><time>2026-03-24T13:45:43Z</time></trkpt><trkpt lat="45.82090535285772" lon="11.742173757616936"><ele>827.0</ele><time>2026-03-24T13:45:44Z</time></trkpt><trkpt lat="45.8210136448748" lon="11.742169127891993"><ele>827.0</ele><time>2026-03-24T13:45:45Z</time></trkpt><trkpt lat="45.82110910723934" lon="11.742128396431381"><ele>827.0</ele><time>2026-03-24T13:45:46Z</time></trkpt><trkpt lat="45.82120315100482" lon="11.742068886158467"><ele>827.0</ele><time>2026-03-24T13:45:47Z</time></trkpt><trkpt lat="45.8212798683699" lon="11.741999104316164"><ele>831.2</ele><time>2026-03-24T13:45:48Z</time></trkpt><trkpt lat="45.821362987845916" lon="11.741966275377095"><ele>835.4000000000001</ele><time>2026-03-24T13:45:49Z</time></trkpt><trkpt lat="45.82143765485063" lon="11.741991269863576"><ele>839.5999999999999</ele><time>2026-03-24T13:45:50Z</time></trkpt><trkpt lat="45.82152612048883" lon="11.742075111256835"><ele>843.8</ele><time>2026-03-24T13:45:51Z</time></trkpt><trkpt lat="45.82161834751533" lon="11.742176976865098"><ele>848.0</ele><time>2026-03-24T13:45:52Z</time></trkpt><trkpt lat="45.8217074876924" lon="11.74223110579379"><ele>850.0</ele><time>2026-03-24T13:45:53Z</time></trkpt><trkpt lat="45.82181921106242" lon="11.742258719452927"><ele>852.0</ele><time>2026-03-24T13:45:54Z</time></trkpt><trkpt lat="45.82194140323666" lon="11.742248481850114"><ele>854.0</ele><time>2026-03-24T13:45:55Z</time></trkpt><trkpt lat="45.82206248391232" lon="11.742243217261981"><ele>856.0</ele><time>2026-03-24T13:45:56Z</time></trkpt><trkpt lat="45.822180305546496" lon="11.74228746843523"><ele>856.0</ele><time>2026-03-24T13:45:57Z</time></trkpt><trkpt lat="45.82230021996198" lon="11.742378118143447"><ele>856.0</ele><time>2026-03-24T13:45:58Z</time></trkpt><trkpt lat="45.82241210887331" lon="11.742472408287766"><ele>856.0</ele><time>2026-03-24T13:45:59Z</time></trkpt><trkpt lat="45.82251956695212" lon="11.742542610383717"><ele>856.0</ele><time>2026-03-24T13:46:00Z</time></trkpt><trkpt lat="45.82262292531263" lon="11.74260468103701"><ele>857.0</ele><time>2026-03-24T13:46:01Z</time></trkpt><trkpt lat="45.82271758598984" lon="11.742666456820585"><ele>857.9999999999999</ele><time>2026-03-24T13:46:02Z</time></trkpt><trkpt lat="45.822811959475715" lon="11.742712266270026"><ele>858.9999999999999</ele><time>2026-03-24T13:46:03Z</time></trkpt><trkpt lat="45.82291777273776" lon="11.742728658412432"><ele>860.0</ele><time>2026-03-24T13:46:04Z</time></trkpt><trkpt lat="45.82303206245656" lon="11.742723342327618"><ele>861.0</ele><time>2026-03-24T13:46:05Z</time></trkpt><trkpt lat="45.82315392492729" lon="11.74269896668311"><ele>861.0</ele><time>2026-03-24T13:46:06Z</time></trkpt><trkpt lat="45.82327186688496" lon="11.74267069121359"><ele>861.0</ele><time>2026-03-24T13:46:07Z</time></trkpt><trkpt lat="45.823369284386324" lon="11.742612199653001"><ele>861.0</ele><time>2026-03-24T13:46:08Z</time></trkpt><trkpt lat="45.82344862258971" lon="11.742507893274562"><ele>861.0</ele><time>2026-03-24T13:46:09Z</time></trkpt><trkpt lat="45.82351517920391" lon="11.742370029946139"><ele>857.5</ele><time>2026-03-24T13:46:10Z</time></trkpt><trkpt lat="45.82356978019256" lon="11.74220891409667"><ele>854.0</ele><time>2026-03-24T13:46:11Z</time></trkpt><trkpt lat="45.823639267027396" lon="11.742049047391957"><ele>850.5</ele><time>2026-03-24T13:46:12Z</time></trkpt><trkpt lat="45.82373382237675" lon="11.741877551343256"><ele>847.0</ele><time>2026-03-24T13:46:13Z</time></trkpt><trkpt lat="45.82383393752456" lon="11.741719643864677"><ele>847.0</ele><time>2026-03-24T13:46:14Z</time></trkpt><trkpt lat="45.823907907383024" lon="11.741551953805583"><ele>847.0</ele><time>2026-03-24T13:46:15Z</time></trkpt><trkpt lat="45.82396758778838" lon="11.741383919603715"><ele>847.0</ele><time>2026-03-24T13:46:16Z</time></trkpt><trkpt lat="45.82401133232815" lon="11.741179764013877"><ele>847.0</ele><time>2026-03-24T13:46:17Z</time></trkpt><trkpt lat="45.82403917578688" lon="11.740943522340379"><ele>847.6666666666666</ele><time>2026-03-24T13:46:17.999Z</time></trkpt><trkpt lat="45.824053211503575" lon="11.74068017125812"><ele>848.3333333333333</ele><time>2026-03-24T13:46:18.999Z</time></trkpt><trkpt lat="45.82407963923242" lon="11.740407055943349"><ele>849.0</ele><time>2026-03-24T13:46:19.999Z</time></trkpt><trkpt lat="45.82413863300024" lon="11.740132059787106"><ele>852.0</ele><time>2026-03-24T13:46:20.999Z</time></trkpt><trkpt lat="45.82419357464614" lon="11.739890535204832"><ele>855.0</ele><time>2026-03-24T13:46:21.999Z</time></trkpt><trkpt lat="45.82424084816584" lon="11.739660200451327"><ele>858.0</ele><time>2026-03-24T13:46:22.999Z</time></trkpt><trkpt lat="45.82426769665718" lon="11.73943365219003"><ele>858.75</ele><time>2026-03-24T13:46:23.999Z</time></trkpt><trkpt lat="45.824272281415844" lon="11.73925800439661"><ele>859.5</ele><time>2026-03-24T13:46:24.999Z</time></trkpt><trkpt lat="45.82428846601522" lon="11.73906610523994"><ele>860.25</ele><time>2026-03-24T13:46:25.999Z</time></trkpt><trkpt lat="45.824316018613445" lon="11.738880462237317"><ele>861.0</ele><time>2026-03-24T13:46:26.999Z</time></trkpt><trkpt lat="45.824365604833055" lon="11.738693555510253"><ele>858.75</ele><time>2026-03-24T13:46:27.999Z</time></trkpt><trkpt lat="45.8243927855427" lon="11.738517124942502"><ele>856.5</ele><time>2026-03-24T13:46:28.999Z</time></trkpt><trkpt lat="45.82439856527315" lon="11.738346722922932"><ele>854.25</ele><time>2026-03-24T13:46:29.999Z</time></trkpt><trkpt lat="45.824385524327546" lon="11.738191096612168"><ele>852.0</ele><time>2026-03-24T13:46:30.999Z</time></trkpt><trkpt lat="45.824326359377714" lon="11.73803710761724"><ele>853.0</ele><time>2026-03-24T13:46:31.999Z</time></trkpt><trkpt lat="45.82423679174587" lon="11.737886773866204"><ele>854.0</ele><time>2026-03-24T13:46:32.999Z</time></trkpt><trkpt lat="45.82413183597926" lon="11.737748776178679"><ele>855.0</ele><time>2026-03-24T13:46:33.999Z</time></trkpt><trkpt lat="45.82402897390802" lon="11.73764040969803"><ele>856.0</ele><time>2026-03-24T13:46:34.999Z</time></trkpt><trkpt lat="45.823933131227804" lon="11.737556959873821"><ele>856.0</ele><time>2026-03-24T13:46:35.999Z</time></trkpt><trkpt lat="45.82385619122385" lon="11.737486592159774"><ele>855.9999999999999</ele><time>2026-03-24T13:46:36.999Z</time></trkpt><trkpt lat="45.82382024533596" lon="11.73738459340863"><ele>855.9999999999999</ele><time>2026-03-24T13:46:37.999Z</time></trkpt><trkpt lat="45.82383559426263" lon="11.737266883908358"><ele>856.0</ele><time>2026-03-24T13:46:38.999Z</time></trkpt><trkpt lat="45.823876478278315" lon="11.737166162716136"><ele>856.0</ele><time>2026-03-24T13:46:39.999Z</time></trkpt><trkpt lat="45.82398425080126" lon="11.737101553234249"><ele>856.0</ele><time>2026-03-24T13:46:40.999Z</time></trkpt><trkpt lat="45.82407007248207" lon="11.737064552680442"><ele>855.9999999999999</ele><time>2026-03-24T13:46:41.999Z</time></trkpt><trkpt lat="45.824140006209674" lon="11.737003796302133"><ele>855.9999999999999</ele><time>2026-03-24T13:46:42.999Z</time></trkpt><trkpt lat="45.82422198235574" lon="11.736944736403125"><ele>856.0</ele><time>2026-03-24T13:46:43.999Z</time></trkpt><trkpt lat="45.824316144887966" lon="11.736937136066164"><ele>856.0</ele><time>2026-03-24T13:46:44.999Z</time></trkpt><trkpt lat="45.82440477684492" lon="11.736973464499385"><ele>856.5</ele><time>2026-03-24T13:46:45.999Z</time></trkpt><trkpt lat="45.824502368021484" lon="11.737047339054437"><ele>857.0</ele><time>2026-03-24T13:46:46.999Z</time></trkpt><trkpt lat="45.824603165424314" lon="11.737136141369012"><ele>857.5</ele><time>2026-03-24T13:46:47.999Z</time></trkpt><trkpt lat="45.82472340135578" lon="11.737233517524118"><ele>858.0</ele><time>2026-03-24T13:46:48.999Z</time></trkpt><trkpt lat="45.824858924990274" lon="11.737343198401408"><ele>858.0</ele><time>2026-03-24T13:46:49.999Z</time></trkpt><trkpt lat="45.8249903147145" lon="11.737472169242265"><ele>858.0</ele><time>2026-03-24T13:46:50.999Z</time></trkpt><trkpt lat="45.825093174891705" lon="11.7376239737579"><ele>858.0</ele><time>2026-03-24T13:46:51.999Z</time></trkpt><trkpt lat="45.82516056255617" lon="11.737809264969838"><ele>862.25</ele><time>2026-03-24T13:46:52.999Z</time></trkpt><trkpt lat="45.82521090535502" lon="11.73798234129469"><ele>866.5</ele><time>2026-03-24T13:46:53.999Z</time></trkpt><trkpt lat="45.82528228007455" lon="11.738103907055516"><ele>870.75</ele><time>2026-03-24T13:46:54.999Z</time></trkpt><trkpt lat="45.82538311677338" lon="11.738202815516875"><ele>875.0</ele><time>2026-03-24T13:46:55.999Z</time></trkpt><trkpt lat="45.82550641980048" lon="11.738268017473834"><ele>875.0</ele><time>2026-03-24T13:46:56.999Z</time></trkpt><trkpt lat="45.82562370984222" lon="11.738346812518651"><ele>875.0</ele><time>2026-03-24T13:46:57.999Z</time></trkpt><trkpt lat="45.82570547512472" lon="11.738479725618548"><ele>875.0</ele><time>2026-03-24T13:46:58.999Z</time></trkpt><trkpt lat="45.825765886130355" lon="11.73865480594399"><ele>875.0</ele><time>2026-03-24T13:46:59.999Z</time></trkpt><trkpt lat="45.8258196749419" lon="11.738848842627831"><ele>874.25</ele><time>2026-03-24T13:47:00.999Z</time></trkpt><trkpt lat="45.82589795070417" lon="11.73902890342711"><ele>873.5</ele><time>2026-03-24T13:47:01.999Z</time></trkpt><trkpt lat="45.82599527068746" lon="11.73916057795094"><ele>872.75</ele><time>2026-03-24T13:47:02.999Z</time></trkpt><trkpt lat="45.82607152614592" lon="11.739286224599308"><ele>872.0</ele><time>2026-03-24T13:47:03.999Z</time></trkpt><trkpt lat="45.826106553610494" lon="11.739444000122084"><ele>881.25</ele><time>2026-03-24T13:47:04.999Z</time></trkpt><trkpt lat="45.82610776867695" lon="11.739633429744691"><ele>890.5</ele><time>2026-03-24T13:47:05.999Z</time></trkpt><trkpt lat="45.82610721751855" lon="11.739835765688396"><ele>899.75</ele><time>2026-03-24T13:47:06.999Z</time></trkpt><trkpt lat="45.82611963099605" lon="11.740037454610256"><ele>909.0</ele><time>2026-03-24T13:47:07.999Z</time></trkpt><trkpt lat="45.82613991735027" lon="11.74025792799577"><ele>910.0</ele><time>2026-03-24T13:47:09Z</time></trkpt><trkpt lat="45.82617162665627" lon="11.740489737585657"><ele>911.0</ele><time>2026-03-24T13:47:10Z</time></trkpt><trkpt lat="45.82620715417797" lon="11.740735944077084"><ele>912.0</ele><time>2026-03-24T13:47:11Z</time></trkpt><trkpt lat="45.82623682136444" lon="11.740967531091302"><ele>910.25</ele><time>2026-03-24T13:47:12Z</time></trkpt><trkpt lat="45.8262775601528" lon="11.741163035130398"><ele>908.5</ele><time>2026-03-24T13:47:13Z</time></trkpt><trkpt lat="45.82633583045219" lon="11.7413497208902"><ele>906.75</ele><time>2026-03-24T13:47:14Z</time></trkpt><trkpt lat="45.826407771374186" lon="11.741551168097887"><ele>905.0</ele><time>2026-03-24T13:47:15Z</time></trkpt><trkpt lat="45.82648696225165" lon="11.741752583535462"><ele>906.25</ele><time>2026-03-24T13:47:16Z</time></trkpt><trkpt lat="45.82656846213672" lon="11.74196192036081"><ele>907.5</ele><time>2026-03-24T13:47:17Z</time></trkpt><trkpt lat="45.82664634958457" lon="11.742136344593362"><ele>908.75</ele><time>2026-03-24T13:47:18Z</time></trkpt><trkpt lat="45.826725895824424" lon="11.742275424818251"><ele>910.0</ele><time>2026-03-24T13:47:19Z</time></trkpt><trkpt lat="45.8268284203177" lon="11.742390584049145"><ele>910.0</ele><time>2026-03-24T13:47:20Z</time></trkpt><trkpt lat="45.82694884614074" lon="11.742488012504886"><ele>910.0</ele><time>2026-03-24T13:47:21Z</time></trkpt><trkpt lat="45.82708365555601" lon="11.742566678272008"><ele>910.0</ele><time>2026-03-24T13:47:22Z</time></trkpt><trkpt lat="45.8272283396842" lon="11.742622758711459"><ele>910.0</ele><time>2026-03-24T13:47:23Z</time></trkpt><trkpt lat="45.827372719317175" lon="11.742649956226957"><ele>910.0</ele><time>2026-03-24T13:47:24Z</time></trkpt><trkpt lat="45.82753061989339" lon="11.742652421641921"><ele>910.0</ele><time>2026-03-24T13:47:25Z</time></trkpt><trkpt lat="45.827692167704896" lon="11.74262804010506"><ele>910.0</ele><time>2026-03-24T13:47:26Z</time></trkpt><trkpt lat="45.827861581685646" lon="11.74257726147636"><ele>914.0</ele><time>2026-03-24T13:47:27Z</time></trkpt><trkpt lat="45.82801583641773" lon="11.74251996542755"><ele>918.0</ele><time>2026-03-24T13:47:28Z</time></trkpt><trkpt lat="45.82814258491891" lon="11.74249292006488"><ele>922.0</ele><time>2026-03-24T13:47:29Z</time></trkpt><trkpt lat="45.828230473219925" lon="11.742538682019008"><ele>926.0</ele><time>2026-03-24T13:47:30Z</time></trkpt><trkpt lat="45.8283080582329" lon="11.742600507842354"><ele>925.25</ele><time>2026-03-24T13:47:31Z</time></trkpt><trkpt lat="45.82836062659245" lon="11.742718014541282"><ele>924.5</ele><time>2026-03-24T13:47:32Z</time></trkpt><trkpt lat="45.828410526593764" lon="11.742863356542843"><ele>923.75</ele><time>2026-03-24T13:47:33Z</time></trkpt><trkpt lat="45.82843912516213" lon="11.74302017155316"><ele>923.0</ele><time>2026-03-24T13:47:34Z</time></trkpt><trkpt lat="45.82845855524202" lon="11.743202945939089"><ele>923.0</ele><time>2026-03-24T13:47:35Z</time></trkpt><trkpt lat="45.828470509430204" lon="11.743396328282712"><ele>923.0</ele><time>2026-03-24T13:47:36Z</time></trkpt><trkpt lat="45.82846825792438" lon="11.743600195972881"><ele>923.0</ele><time>2026-03-24T13:47:37Z</time></trkpt><trkpt lat="45.82845700943113" lon="11.743811232534968"><ele>923.0</ele><time>2026-03-24T13:47:38Z</time></trkpt><trkpt lat="45.82845565447004" lon="11.744033864036261"><ele>930.0</ele><time>2026-03-24T13:47:39Z</time></trkpt><trkpt lat="45.82848539075057" lon="11.744253311549269"><ele>937.0</ele><time>2026-03-24T13:47:40Z</time></trkpt><trkpt lat="45.8285347188265" lon="11.744464702922507"><ele>944.0</ele><time>2026-03-24T13:47:41Z</time></trkpt><trkpt lat="45.82859328597873" lon="11.744669138185488"><ele>944.0</ele><time>2026-03-24T13:47:42Z</time></trkpt><trkpt lat="45.828665077405155" lon="11.744839166696462"><ele>944.0</ele><time>2026-03-24T13:47:43Z</time></trkpt><trkpt lat="45.82875133288163" lon="11.744978750196934"><ele>944.0</ele><time>2026-03-24T13:47:44Z</time></trkpt><trkpt lat="45.828852008135" lon="11.745091822449512"><ele>944.0</ele><time>2026-03-24T13:47:45Z</time></trkpt><trkpt lat="45.828963235765144" lon="11.74519254429209"><ele>941.0</ele><time>2026-03-24T13:47:46Z</time></trkpt><trkpt lat="45.82908439440223" lon="11.745273468122962"><ele>938.0</ele><time>2026-03-24T13:47:47Z</time></trkpt><trkpt lat="45.82920280970391" lon="11.745324459551883"><ele>935.0</ele><time>2026-03-24T13:47:48Z</time></trkpt><trkpt lat="45.829326422446584" lon="11.745336306603626"><ele>932.0</ele><time>2026-03-24T13:47:49Z</time></trkpt><trkpt lat="45.82945823768874" lon="11.745318107590604"><ele>932.0</ele><time>2026-03-24T13:47:50Z</time></trkpt><trkpt lat="45.829582264881324" lon="11.745310766474224"><ele>932.0</ele><time>2026-03-24T13:47:51Z</time></trkpt><trkpt lat="45.82968473968214" lon="11.745320020107004"><ele>932.0</ele><time>2026-03-24T13:47:52Z</time></trkpt><trkpt lat="45.829763545025855" lon="11.745349338139414"><ele>932.0</ele><time>2026-03-24T13:47:53Z</time></trkpt><trkpt lat="45.82983005863209" lon="11.745395859398368"><ele>932.0</ele><time>2026-03-24T13:47:54Z</time></trkpt><trkpt lat="45.82994079905444" lon="11.745412619410862"><ele>932.0</ele><time>2026-03-24T13:47:56Z</time></trkpt><trkpt lat="45.829996553831684" lon="11.745257337643414"><ele>932.0</ele><time>2026-03-24T13:47:58Z</time></trkpt><trkpt lat="45.829890305797115" lon="11.745151934116409"><ele>932.0</ele><time>2026-03-24T13:48:00Z</time></trkpt><trkpt lat="45.829801015186725" lon="11.745166718675673"><ele>932.0</ele><time>2026-03-24T13:48:01Z</time></trkpt><trkpt lat="45.829701167847354" lon="11.745169519706916"><ele>932.0</ele><time>2026-03-24T13:48:02Z</time></trkpt><trkpt lat="45.82958535008182" lon="11.745136936015424"><ele>935.0</ele><time>2026-03-24T13:48:03Z</time></trkpt><trkpt lat="45.82945528519993" lon="11.745083783330717"><ele>938.0</ele><time>2026-03-24T13:48:04Z</time></trkpt><trkpt lat="45.82931417347996" lon="11.745004964267878"><ele>941.0</ele><time>2026-03-24T13:48:05Z</time></trkpt><trkpt lat="45.82917110825187" lon="11.744905796899841"><ele>944.0</ele><time>2026-03-24T13:48:06Z</time></trkpt><trkpt lat="45.82906255277318" lon="11.744786559584911"><ele>944.0</ele><time>2026-03-24T13:48:07Z</time></trkpt><trkpt lat="45.82899032035872" lon="11.744661320879214"><ele>944.0000000000001</ele><time>2026-03-24T13:48:08Z</time></trkpt><trkpt lat="45.82897079486988" lon="11.744523605193027"><ele>944.0000000000001</ele><time>2026-03-24T13:48:09Z</time></trkpt><trkpt lat="45.82897812969304" lon="11.744369833479869"><ele>944.0</ele><time>2026-03-24T13:48:10Z</time></trkpt><trkpt lat="45.82899531770029" lon="11.744189630029327"><ele>944.0</ele><time>2026-03-24T13:48:11Z</time></trkpt><trkpt lat="45.82899423770663" lon="11.743995906340674"><ele>950.0</ele><time>2026-03-24T13:48:12Z</time></trkpt><trkpt lat="45.82899523545878" lon="11.743785514084959"><ele>956.0</ele><time>2026-03-24T13:48:13Z</time></trkpt><trkpt lat="45.82901554797486" lon="11.743558379693113"><ele>962.0</ele><time>2026-03-24T13:48:14Z</time></trkpt><trkpt lat="45.829053552754345" lon="11.743327028566352"><ele>962.5</ele><time>2026-03-24T13:48:15Z</time></trkpt><trkpt lat="45.82910616103239" lon="11.743096948435726"><ele>963.0</ele><time>2026-03-24T13:48:16Z</time></trkpt><trkpt lat="45.82915716569735" lon="11.742909580022271"><ele>963.5</ele><time>2026-03-24T13:48:16.999Z</time></trkpt><trkpt lat="45.82921172066495" lon="11.74273873923067"><ele>964.0</ele><time>2026-03-24T13:48:17.999Z</time></trkpt><trkpt lat="45.82927819678008" lon="11.742544164321137"><ele>973.3333333333333</ele><time>2026-03-24T13:48:18.999Z</time></trkpt><trkpt lat="45.829351389890135" lon="11.742331130802185"><ele>982.6666666666667</ele><time>2026-03-24T13:48:19.999Z</time></trkpt><trkpt lat="45.829420617183644" lon="11.742100062826873"><ele>992.0</ele><time>2026-03-24T13:48:20.999Z</time></trkpt><trkpt lat="45.82948182816829" lon="11.741858340593923"><ele>992.0</ele><time>2026-03-24T13:48:21.999Z</time></trkpt><trkpt lat="45.82954590726913" lon="11.74165304555444"><ele>992.0</ele><time>2026-03-24T13:48:22.999Z</time></trkpt><trkpt lat="45.82961709720195" lon="11.741484102578777"><ele>992.0</ele><time>2026-03-24T13:48:23.999Z</time></trkpt><trkpt lat="45.82969460830532" lon="11.741346058681536"><ele>992.0</ele><time>2026-03-24T13:48:24.999Z</time></trkpt><trkpt lat="45.82975972845886" lon="11.741230574921936"><ele>992.0</ele><time>2026-03-24T13:48:25.999Z</time></trkpt><trkpt lat="45.82980133275135" lon="11.741116926009722"><ele>992.0</ele><time>2026-03-24T13:48:26.999Z</time></trkpt><trkpt lat="45.829819116318646" lon="11.741006511658657"><ele>992.0</ele><time>2026-03-24T13:48:27.999Z</time></trkpt><trkpt lat="45.82978527529119" lon="11.740882987853642"><ele>992.0</ele><time>2026-03-24T13:48:28.999Z</time></trkpt><trkpt lat="45.829709246613184" lon="11.740784346950623"><ele>992.0</ele><time>2026-03-24T13:48:29.999Z</time></trkpt><trkpt lat="45.82961858625131" lon="11.740740519390723"><ele>991.25</ele><time>2026-03-24T13:48:30.999Z</time></trkpt><trkpt lat="45.829506215911984" lon="11.740747586662891"><ele>990.5</ele><time>2026-03-24T13:48:31.999Z</time></trkpt><trkpt lat="45.829384288113665" lon="11.740748703600575"><ele>989.75</ele><time>2026-03-24T13:48:32.999Z</time></trkpt><trkpt lat="45.82925274246581" lon="11.740737725914546"><ele>989.0</ele><time>2026-03-24T13:48:33.999Z</time></trkpt><trkpt lat="45.82910619486022" lon="11.740716787463704"><ele>984.0</ele><time>2026-03-24T13:48:34.999Z</time></trkpt><trkpt lat="45.82894982293277" lon="11.74069950239785"><ele>979.0</ele><time>2026-03-24T13:48:35.999Z</time></trkpt><trkpt lat="45.82879832038666" lon="11.740688778642069"><ele>974.0</ele><time>2026-03-24T13:48:36.999Z</time></trkpt><trkpt lat="45.82864594747136" lon="11.740688494128714"><ele>974.0</ele><time>2026-03-24T13:48:37.999Z</time></trkpt><trkpt lat="45.828534734063204" lon="11.740674542036478"><ele>974.0000000000001</ele><time>2026-03-24T13:48:38.999Z</time></trkpt><trkpt lat="45.82844126662834" lon="11.740636470436124"><ele>974.0000000000001</ele><time>2026-03-24T13:48:39.999Z</time></trkpt><trkpt lat="45.82834607767274" lon="11.740588840958761"><ele>974.0</ele><time>2026-03-24T13:48:40.999Z</time></trkpt><trkpt lat="45.8282549797111" lon="11.740526945561564"><ele>974.0</ele><time>2026-03-24T13:48:41.999Z</time></trkpt><trkpt lat="45.82817681537867" lon="11.74042091636707"><ele>973.75</ele><time>2026-03-24T13:48:42.999Z</time></trkpt><trkpt lat="45.82813329732698" lon="11.740276023376804"><ele>973.5</ele><time>2026-03-24T13:48:43.999Z</time></trkpt><trkpt lat="45.828112991717056" lon="11.740115363497889"><ele>973.25</ele><time>2026-03-24T13:48:44.999Z</time></trkpt><trkpt lat="45.82812240778326" lon="11.739951564067587"><ele>973.0</ele><time>2026-03-24T13:48:45.999Z</time></trkpt><trkpt lat="45.8281716418624" lon="11.739796099151837"><ele>975.25</ele><time>2026-03-24T13:48:46.999Z</time></trkpt><trkpt lat="45.82825337337106" lon="11.739667712276583"><ele>977.5</ele><time>2026-03-24T13:48:47.999Z</time></trkpt><trkpt lat="45.828340525522" lon="11.739543512915095"><ele>979.75</ele><time>2026-03-24T13:48:48.999Z</time></trkpt><trkpt lat="45.82839687828276" lon="11.739388896963261"><ele>982.0</ele><time>2026-03-24T13:48:49.999Z</time></trkpt><trkpt lat="45.828420068106084" lon="11.739209642574993"><ele>983.75</ele><time>2026-03-24T13:48:50.999Z</time></trkpt><trkpt lat="45.82840754382041" lon="11.739032052447683"><ele>985.5</ele><time>2026-03-24T13:48:51.999Z</time></trkpt><trkpt lat="45.8283621308112" lon="11.738845106573327"><ele>987.25</ele><time>2026-03-24T13:48:52.999Z</time></trkpt><trkpt lat="45.82830532809958" lon="11.738657629698094"><ele>989.0</ele><time>2026-03-24T13:48:53.999Z</time></trkpt><trkpt lat="45.828248254247214" lon="11.738447571316781"><ele>992.3333333333334</ele><time>2026-03-24T13:48:54.999Z</time></trkpt><trkpt lat="45.82820281338075" lon="11.738221277717818"><ele>995.6666666666667</ele><time>2026-03-24T13:48:55.999Z</time></trkpt><trkpt lat="45.82816104501102" lon="11.73798062214485"><ele>999.0</ele><time>2026-03-24T13:48:56.999Z</time></trkpt><trkpt lat="45.828145958484306" lon="11.737719551216578"><ele>1000.0</ele><time>2026-03-24T13:48:57.999Z</time></trkpt><trkpt lat="45.828169114844144" lon="11.737463285643242"><ele>1001.0</ele><time>2026-03-24T13:48:58.999Z</time></trkpt><trkpt lat="45.828212592059465" lon="11.737244547828194"><ele>1002.0</ele><time>2026-03-24T13:48:59.999Z</time></trkpt><trkpt lat="45.82827717640621" lon="11.737055163833766"><ele>1002.0</ele><time>2026-03-24T13:49:00.999Z</time></trkpt><trkpt lat="45.82836429600952" lon="11.736905245528916"><ele>1002.0</ele><time>2026-03-24T13:49:01.999Z</time></trkpt><trkpt lat="45.82845865425303" lon="11.73680851057936"><ele>1002.0</ele><time>2026-03-24T13:49:02.999Z</time></trkpt><trkpt lat="45.82856142069804" lon="11.73676288231229"><ele>1002.0</ele><time>2026-03-24T13:49:03.999Z</time></trkpt><trkpt lat="45.82869064436225" lon="11.736746971412831"><ele>1001.6666666666667</ele><time>2026-03-24T13:49:04.999Z</time></trkpt><trkpt lat="45.82884011500728" lon="11.736732256293173"><ele>1001.3333333333334</ele><time>2026-03-24T13:49:05.999Z</time></trkpt><trkpt lat="45.82900435556397" lon="11.736727747206375"><ele>1001.0</ele><time>2026-03-24T13:49:06.999Z</time></trkpt><trkpt lat="45.829174960236564" lon="11.73673718879471"><ele>999.0</ele><time>2026-03-24T13:49:07.999Z</time></trkpt><trkpt lat="45.829344770004134" lon="11.73676169676514"><ele>997.0</ele><time>2026-03-24T13:49:08.999Z</time></trkpt><trkpt lat="45.82952837298085" lon="11.736821571530482"><ele>995.0</ele><time>2026-03-24T13:49:09.999Z</time></trkpt><trkpt lat="45.82970972580469" lon="11.736872663295651"><ele>1004.6666666666667</ele><time>2026-03-24T13:49:10.999Z</time></trkpt><trkpt lat="45.82990063005134" lon="11.736916791092554"><ele>1014.3333333333333</ele><time>2026-03-24T13:49:11.999Z</time></trkpt><trkpt lat="45.83006921967189" lon="11.736943177553416"><ele>1024.0</ele><time>2026-03-24T13:49:12.999Z</time></trkpt><trkpt lat="45.83019430376367" lon="11.736957101100407"><ele>1025.75</ele><time>2026-03-24T13:49:13.999Z</time></trkpt><trkpt lat="45.83032132872874" lon="11.736988595953047"><ele>1027.5</ele><time>2026-03-24T13:49:15Z</time></trkpt><trkpt lat="45.83044637630637" lon="11.73701534119595"><ele>1029.25</ele><time>2026-03-24T13:49:16Z</time></trkpt><trkpt lat="45.830566604340326" lon="11.737026700622017"><ele>1031.0</ele><time>2026-03-24T13:49:17Z</time></trkpt><trkpt lat="45.83067448705223" lon="11.737011969471514"><ele>1031.0</ele><time>2026-03-24T13:49:18Z</time></trkpt><trkpt lat="45.830779050905846" lon="11.736983509230805"><ele>1031.0</ele><time>2026-03-24T13:49:19Z</time></trkpt><trkpt lat="45.83088154609933" lon="11.736939126196573"><ele>1031.0</ele><time>2026-03-24T13:49:20Z</time></trkpt><trkpt lat="45.83098912386388" lon="11.736909677969765"><ele>1031.0</ele><time>2026-03-24T13:49:21Z</time></trkpt><trkpt lat="45.8310969256784" lon="11.736906423862976"><ele>1031.0</ele><time>2026-03-24T13:49:22Z</time></trkpt><trkpt lat="45.83121273102911" lon="11.736912053799461"><ele>1028.0</ele><time>2026-03-24T13:49:23Z</time></trkpt><trkpt lat="45.83133137042436" lon="11.736925039994535"><ele>1025.0</ele><time>2026-03-24T13:49:24Z</time></trkpt><trkpt lat="45.83145178114239" lon="11.736909834789918"><ele>1022.0</ele><time>2026-03-24T13:49:25Z</time></trkpt><trkpt lat="45.831557094744205" lon="11.736812600883281"><ele>1019.0</ele><time>2026-03-24T13:49:26Z</time></trkpt><trkpt lat="45.83163162794353" lon="11.736692597377134"><ele>1019.0</ele><time>2026-03-24T13:49:27Z</time></trkpt><trkpt lat="45.83166055399648" lon="11.736551666437693"><ele>1019.0</ele><time>2026-03-24T13:49:28Z</time></trkpt><trkpt lat="45.831673638216394" lon="11.736378130564194"><ele>1019.0</ele><time>2026-03-24T13:49:29Z</time></trkpt><trkpt lat="45.83171824064331" lon="11.736222828798955"><ele>1019.0</ele><time>2026-03-24T13:49:30Z</time></trkpt><trkpt lat="45.83176619950504" lon="11.736080761548829"><ele>1019.6</ele><time>2026-03-24T13:49:31Z</time></trkpt><trkpt lat="45.831835940606254" lon="11.735983187052252"><ele>1020.2</ele><time>2026-03-24T13:49:32Z</time></trkpt><trkpt lat="45.83192543322662" lon="11.735940495681898"><ele>1020.8000000000001</ele><time>2026-03-24T13:49:33Z</time></trkpt><trkpt lat="45.83202218386365" lon="11.73594995580307"><ele>1021.4000000000001</ele><time>2026-03-24T13:49:34Z</time></trkpt><trkpt lat="45.832133755516246" lon="11.735968235995069"><ele>1022.0</ele><time>2026-03-24T13:49:35Z</time></trkpt><trkpt lat="45.832243051670794" lon="11.735952089889459"><ele>1022.0</ele><time>2026-03-24T13:49:36Z</time></trkpt><trkpt lat="45.83235810404096" lon="11.735922142532335"><ele>1022.0</ele><time>2026-03-24T13:49:37Z</time></trkpt><trkpt lat="45.83245964900638" lon="11.73590341823565"><ele>1022.0</ele><time>2026-03-24T13:49:38Z</time></trkpt><trkpt lat="45.83254707589421" lon="11.735870328378288"><ele>1022.0</ele><time>2026-03-24T13:49:39Z</time></trkpt><trkpt lat="45.83262548086814" lon="11.73579807124361"><ele>1022.0</ele><time>2026-03-24T13:49:40Z</time></trkpt><trkpt lat="45.832697538087594" lon="11.735689477248675"><ele>1021.4000000000001</ele><time>2026-03-24T13:49:41Z</time></trkpt><trkpt lat="45.832761938478974" lon="11.735556753566241"><ele>1020.8000000000001</ele><time>2026-03-24T13:49:42Z</time></trkpt><trkpt lat="45.832813434565544" lon="11.73540976208098"><ele>1020.2</ele><time>2026-03-24T13:49:43Z</time></trkpt><trkpt lat="45.83286874930493" lon="11.735289980039154"><ele>1019.6</ele><time>2026-03-24T13:49:44Z</time></trkpt><trkpt lat="45.83294580296328" lon="11.735217058574875"><ele>1019.0</ele><time>2026-03-24T13:49:45Z</time></trkpt><trkpt lat="45.833039163151696" lon="11.735187732364588"><ele>1019.0</ele><time>2026-03-24T13:49:46Z</time></trkpt><trkpt lat="45.833146526478814" lon="11.735173206270968"><ele>1019.0</ele><time>2026-03-24T13:49:47Z</time></trkpt><trkpt lat="45.83325691947741" lon="11.735153138285646"><ele>1019.0</ele><time>2026-03-24T13:49:48Z</time></trkpt><trkpt lat="45.83337173877675" lon="11.73511564123831"><ele>1019.0</ele><time>2026-03-24T13:49:49Z</time></trkpt><trkpt lat="45.83348724990453" lon="11.73507756283616"><ele>1019.75</ele><time>2026-03-24T13:49:50Z</time></trkpt><trkpt lat="45.83360544804897" lon="11.735042955688195"><ele>1020.5</ele><time>2026-03-24T13:49:51Z</time></trkpt><trkpt lat="45.833721304884335" lon="11.73498251866728"><ele>1021.25</ele><time>2026-03-24T13:49:52Z</time></trkpt><trkpt lat="45.83383374229402" lon="11.734888738725518"><ele>1022.0</ele><time>2026-03-24T13:49:53Z</time></trkpt><trkpt lat="45.833940740747714" lon="11.734775318756652"><ele>1022.0</ele><time>2026-03-24T13:49:54Z</time></trkpt><trkpt lat="45.834034274185406" lon="11.734652724972573"><ele>1022.0</ele><time>2026-03-24T13:49:55Z</time></trkpt><trkpt lat="45.83411354252942" lon="11.734543758829298"><ele>1022.0</ele><time>2026-03-24T13:49:56Z</time></trkpt><trkpt lat="45.834185213139676" lon="11.73444614194806"><ele>1022.0</ele><time>2026-03-24T13:49:57Z</time></trkpt><trkpt lat="45.83424561513246" lon="11.734356434655918"><ele>1022.0</ele><time>2026-03-24T13:49:58Z</time></trkpt><trkpt lat="45.83430613534644" lon="11.734258147568253"><ele>1022.0</ele><time>2026-03-24T13:49:59Z</time></trkpt><trkpt lat="45.8343788027368" lon="11.734173838188253"><ele>1022.0</ele><time>2026-03-24T13:50:00Z</time></trkpt><trkpt lat="45.83445682411211" lon="11.734103934350012"><ele>1022.0</ele><time>2026-03-24T13:50:01Z</time></trkpt><trkpt lat="45.83454792750876" lon="11.734046303023971"><ele>1022.0</ele><time>2026-03-24T13:50:02Z</time></trkpt><trkpt lat="45.83464308929728" lon="11.734003687308073"><ele>1022.0</ele><time>2026-03-24T13:50:03Z</time></trkpt><trkpt lat="45.8347317991919" lon="11.733978115863875"><ele>1022.0000000000001</ele><time>2026-03-24T13:50:04Z</time></trkpt><trkpt lat="45.83481599154265" lon="11.733969217842326"><ele>1022.0</ele><time>2026-03-24T13:50:05Z</time></trkpt><trkpt lat="45.83489385706915" lon="11.733979141925545"><ele>1022.0</ele><time>2026-03-24T13:50:06Z</time></trkpt><trkpt lat="45.834962560023854" lon="11.734019463482575"><ele>1022.0</ele><time>2026-03-24T13:50:07Z</time></trkpt><trkpt lat="45.835016518376854" lon="11.73410530248758"><ele>1022.0000000000001</ele><time>2026-03-24T13:50:08Z</time></trkpt><trkpt lat="45.83504244237367" lon="11.734230915232198"><ele>1022.0</ele><time>2026-03-24T13:50:09Z</time></trkpt><trkpt lat="45.835058283251755" lon="11.734370648012092"><ele>1020.0</ele><time>2026-03-24T13:50:10Z</time></trkpt><trkpt lat="45.8350887037808" lon="11.734505958177449"><ele>1018.0</ele><time>2026-03-24T13:50:11Z</time></trkpt><trkpt lat="45.83513506418033" lon="11.734623502115257"><ele>1016.0</ele><time>2026-03-24T13:50:12Z</time></trkpt><trkpt lat="45.83521314828453" lon="11.734735411800049"><ele>1014.0</ele><time>2026-03-24T13:50:13Z</time></trkpt><trkpt lat="45.835317133460926" lon="11.734842221315668"><ele>1012.0</ele><time>2026-03-24T13:50:14Z</time></trkpt><trkpt lat="45.83544271446529" lon="11.734943514550402"><ele>1010.6666666666666</ele><time>2026-03-24T13:50:15Z</time></trkpt><trkpt lat="45.83558198688952" lon="11.735065388319665"><ele>1009.3333333333333</ele><time>2026-03-24T13:50:16Z</time></trkpt><trkpt lat="45.83572380021538" lon="11.735207692524884"><ele>1008.0</ele><time>2026-03-24T13:50:17Z</time></trkpt><trkpt lat="45.83586423731314" lon="11.73538260885638"><ele>1006.0</ele><time>2026-03-24T13:50:18Z</time></trkpt><trkpt lat="45.83599093321512" lon="11.735565208832554"><ele>1004.0</ele><time>2026-03-24T13:50:19Z</time></trkpt><trkpt lat="45.836106506645464" lon="11.73572823947213"><ele>1002.0</ele><time>2026-03-24T13:50:20Z</time></trkpt><trkpt lat="45.83624533568134" lon="11.73584196687497"><ele>1002.0</ele><time>2026-03-24T13:50:21Z</time></trkpt><trkpt lat="45.83638832338857" lon="11.735921718337973"><ele>1002.0</ele><time>2026-03-24T13:50:22Z</time></trkpt><trkpt lat="45.83653143264358" lon="11.735952928108937"><ele>1002.0</ele><time>2026-03-24T13:50:23Z</time></trkpt><trkpt lat="45.83666987871625" lon="11.735981987498722"><ele>1002.0</ele><time>2026-03-24T13:50:24Z</time></trkpt><trkpt lat="45.83680436076962" lon="11.736025304103151"><ele>1002.3333333333333</ele><time>2026-03-24T13:50:25Z</time></trkpt><trkpt lat="45.836940298301435" lon="11.736105928586792"><ele>1002.6666666666666</ele><time>2026-03-24T13:50:26Z</time></trkpt><trkpt lat="45.83708250702116" lon="11.736195610669606"><ele>1003.0</ele><time>2026-03-24T13:50:27Z</time></trkpt><trkpt lat="45.83723678442008" lon="11.736268589854415"><ele>1003.0</ele><time>2026-03-24T13:50:28Z</time></trkpt><trkpt lat="45.837389009706634" lon="11.736321991153654"><ele>1003.0</ele><time>2026-03-24T13:50:29Z</time></trkpt><trkpt lat="45.837524788037086" lon="11.73638432060001"><ele>1003.0</ele><time>2026-03-24T13:50:29.999Z</time></trkpt><trkpt lat="45.83763834911646" lon="11.736477479575788"><ele>1003.0</ele><time>2026-03-24T13:50:30.999Z</time></trkpt><trkpt lat="45.83774424603326" lon="11.736578275933224"><ele>1002.25</ele><time>2026-03-24T13:50:31.999Z</time></trkpt><trkpt lat="45.83784941554399" lon="11.736665754532908"><ele>1001.5</ele><time>2026-03-24T13:50:32.999Z</time></trkpt><trkpt lat="45.83796430380175" lon="11.736721685903785"><ele>1000.75</ele><time>2026-03-24T13:50:33.999Z</time></trkpt><trkpt lat="45.838087002738526" lon="11.736746482335699"><ele>1000.0</ele><time>2026-03-24T13:50:34.999Z</time></trkpt><trkpt lat="45.838224323898544" lon="11.736733603372366"><ele>1000.0</ele><time>2026-03-24T13:50:35.999Z</time></trkpt><trkpt lat="45.8383617410033" lon="11.736717189155362"><ele>1000.0</ele><time>2026-03-24T13:50:36.999Z</time></trkpt><trkpt lat="45.83851089278932" lon="11.736703594780806"><ele>1000.0</ele><time>2026-03-24T13:50:37.999Z</time></trkpt><trkpt lat="45.83867154120788" lon="11.73673614621673"><ele>999.25</ele><time>2026-03-24T13:50:38.999Z</time></trkpt><trkpt lat="45.83882437411194" lon="11.736743857027022"><ele>998.5</ele><time>2026-03-24T13:50:39.999Z</time></trkpt><trkpt lat="45.83896160681408" lon="11.736742809071984"><ele>997.75</ele><time>2026-03-24T13:50:40.999Z</time></trkpt><trkpt lat="45.83909005585553" lon="11.736751382811613"><ele>997.0</ele><time>2026-03-24T13:50:41.999Z</time></trkpt><trkpt lat="45.839207816385134" lon="11.736786218738088"><ele>998.5</ele><time>2026-03-24T13:50:42.999Z</time></trkpt><trkpt lat="45.83932442140625" lon="11.736860767179904"><ele>1000.0</ele><time>2026-03-24T13:50:43.999Z</time></trkpt><trkpt lat="45.839435864655734" lon="11.73698231433066"><ele>1001.5</ele><time>2026-03-24T13:50:44.999Z</time></trkpt><trkpt lat="45.83954685615564" lon="11.737116655037575"><ele>1003.0</ele><time>2026-03-24T13:50:45.999Z</time></trkpt><trkpt lat="45.83967008696601" lon="11.737243269141487"><ele>1003.0</ele><time>2026-03-24T13:50:46.999Z</time></trkpt><trkpt lat="45.8398074302913" lon="11.737355997462718"><ele>1003.0</ele><time>2026-03-24T13:50:47.999Z</time></trkpt><trkpt lat="45.8399494356926" lon="11.737447374330836"><ele>1003.0</ele><time>2026-03-24T13:50:48.999Z</time></trkpt><trkpt lat="45.840074336239375" lon="11.737534742484362"><ele>1007.0</ele><time>2026-03-24T13:50:49.999Z</time></trkpt><trkpt lat="45.84018603165942" lon="11.737652700253772"><ele>1011.0</ele><time>2026-03-24T13:50:50.999Z</time></trkpt><trkpt lat="45.840289356964796" lon="11.737812627739459"><ele>1015.0</ele><time>2026-03-24T13:50:51.999Z</time></trkpt><trkpt lat="45.84038750954119" lon="11.737994758801014"><ele>1015.0</ele><time>2026-03-24T13:50:52.999Z</time></trkpt><trkpt lat="45.840480658861566" lon="11.738203525809178"><ele>1015.0</ele><time>2026-03-24T13:50:53.999Z</time></trkpt><trkpt lat="45.84055893373789" lon="11.738412332397516"><ele>1015.0</ele><time>2026-03-24T13:50:54.999Z</time></trkpt><trkpt lat="45.84062891297827" lon="11.738596075973916"><ele>1022.0</ele><time>2026-03-24T13:50:55.999Z</time></trkpt><trkpt lat="45.840891351403286" lon="11.738950750262426"><ele>1029.0</ele><time>2026-03-24T13:50:58.999Z</time></trkpt><trkpt lat="45.841031082917276" lon="11.739042913141061"><ele>1029.0</ele><time>2026-03-24T13:50:59.999Z</time></trkpt><trkpt lat="45.84115799527743" lon="11.739142105126726"><ele>1029.0</ele><time>2026-03-24T13:51:00.999Z</time></trkpt><trkpt lat="45.8412575431002" lon="11.739249701751705"><ele>1029.0</ele><time>2026-03-24T13:51:01.999Z</time></trkpt><trkpt lat="45.841322007683345" lon="11.739382914021016"><ele>1029.0</ele><time>2026-03-24T13:51:02.999Z</time></trkpt><trkpt lat="45.84138321299306" lon="11.739561542928572"><ele>1023.5</ele><time>2026-03-24T13:51:03.999Z</time></trkpt><trkpt lat="45.84145750652736" lon="11.739736332073825"><ele>1018.0</ele><time>2026-03-24T13:51:04.999Z</time></trkpt><trkpt lat="45.841535441281515" lon="11.739933033837595"><ele>1012.5</ele><time>2026-03-24T13:51:05.999Z</time></trkpt><trkpt lat="45.84161506721277" lon="11.740086557898673"><ele>1007.0</ele><time>2026-03-24T13:51:06.999Z</time></trkpt><trkpt lat="45.841698330946706" lon="11.740201640420286"><ele>1006.25</ele><time>2026-03-24T13:51:07.999Z</time></trkpt><trkpt lat="45.8418125713066" lon="11.740288443433583"><ele>1005.5</ele><time>2026-03-24T13:51:08.999Z</time></trkpt><trkpt lat="45.841921827886964" lon="11.740370631371013"><ele>1004.75</ele><time>2026-03-24T13:51:09.999Z</time></trkpt><trkpt lat="45.842045672542696" lon="11.740435997594364"><ele>1004.0</ele><time>2026-03-24T13:51:10.999Z</time></trkpt><trkpt lat="45.84217159445058" lon="11.740518225770876"><ele>1004.0</ele><time>2026-03-24T13:51:11.999Z</time></trkpt><trkpt lat="45.84228082756809" lon="11.740581630956"><ele>1004.0000000000001</ele><time>2026-03-24T13:51:12.999Z</time></trkpt><trkpt lat="45.8423794090256" lon="11.740605239766353"><ele>1004.0000000000001</ele><time>2026-03-24T13:51:13.999Z</time></trkpt><trkpt lat="45.84247123502549" lon="11.740574329236471"><ele>1004.0</ele><time>2026-03-24T13:51:14.999Z</time></trkpt><trkpt lat="45.8425687157422" lon="11.740542325456609"><ele>1004.0</ele><time>2026-03-24T13:51:15.999Z</time></trkpt><trkpt lat="45.842666685220664" lon="11.740513089581517"><ele>1009.2</ele><time>2026-03-24T13:51:16.999Z</time></trkpt><trkpt lat="45.84274302149087" lon="11.740548590048622"><ele>1014.4000000000001</ele><time>2026-03-24T13:51:17.999Z</time></trkpt><trkpt lat="45.84281215474272" lon="11.74061493911145"><ele>1019.6</ele><time>2026-03-24T13:51:18.999Z</time></trkpt><trkpt lat="45.842838574838744" lon="11.740754896445532"><ele>1024.8</ele><time>2026-03-24T13:51:19.999Z</time></trkpt><trkpt lat="45.842879198729726" lon="11.740973280550559"><ele>1030.0</ele><time>2026-03-24T13:51:21.001Z</time></trkpt><trkpt lat="45.84290257694065" lon="11.741184525734523"><ele>1030.0</ele><time>2026-03-24T13:51:22.001Z</time></trkpt><trkpt lat="45.84294052264905" lon="11.741403553861815"><ele>1030.0</ele><time>2026-03-24T13:51:23Z</time></trkpt><trkpt lat="45.84294943896151" lon="11.741633773731245"><ele>1030.0</ele><time>2026-03-24T13:51:24Z</time></trkpt><trkpt lat="45.84301127094904" lon="11.741859089714456"><ele>1028.25</ele><time>2026-03-24T13:51:25.001Z</time></trkpt><trkpt lat="45.843029501614915" lon="11.742072315639524"><ele>1026.5</ele><time>2026-03-24T13:51:26Z</time></trkpt><trkpt lat="45.8430363302782" lon="11.742235584315925"><ele>1024.75</ele><time>2026-03-24T13:51:27Z</time></trkpt><trkpt lat="45.843036716872014" lon="11.74239155438142"><ele>1023.0</ele><time>2026-03-24T13:51:28Z</time></trkpt><trkpt lat="45.84302550348036" lon="11.742529742494694"><ele>1023.0</ele><time>2026-03-24T13:51:29Z</time></trkpt><trkpt lat="45.842998515240495" lon="11.742667908543757"><ele>1023.0</ele><time>2026-03-24T13:51:30Z</time></trkpt><trkpt lat="45.84301727486434" lon="11.742799467405645"><ele>1023.0</ele><time>2026-03-24T13:51:31Z</time></trkpt><trkpt lat="45.843062322840794" lon="11.742908591873833"><ele>1023.0</ele><time>2026-03-24T13:51:32Z</time></trkpt><trkpt lat="45.843135915447085" lon="11.743016568711566"><ele>1023.0</ele><time>2026-03-24T13:51:33Z</time></trkpt><trkpt lat="45.84321760688151" lon="11.743128780130899"><ele>1023.0</ele><time>2026-03-24T13:51:34Z</time></trkpt><trkpt lat="45.84328555650613" lon="11.743257876576607"><ele>1023.0</ele><time>2026-03-24T13:51:35Z</time></trkpt><trkpt lat="45.843375728049736" lon="11.743415939179444"><ele>1023.0</ele><time>2026-03-24T13:51:36Z</time></trkpt><trkpt lat="45.8434673902004" lon="11.743587011553213"><ele>1023.0</ele><time>2026-03-24T13:51:37Z</time></trkpt><trkpt lat="45.84355958665963" lon="11.743757704088978"><ele>1023.0</ele><time>2026-03-24T13:51:38Z</time></trkpt><trkpt lat="45.84365775560351" lon="11.743927056807484"><ele>1023.0</ele><time>2026-03-24T13:51:39Z</time></trkpt><trkpt lat="45.84376934272895" lon="11.744103460582204"><ele>1023.0</ele><time>2026-03-24T13:51:40Z</time></trkpt><trkpt lat="45.84389089717031" lon="11.74428718913234"><ele>1020.3333333333333</ele><time>2026-03-24T13:51:41Z</time></trkpt><trkpt lat="45.84403426014499" lon="11.744474419255852"><ele>1017.6666666666666</ele><time>2026-03-24T13:51:42Z</time></trkpt><trkpt lat="45.844179335682654" lon="11.74465727232969"><ele>1015.0</ele><time>2026-03-24T13:51:43Z</time></trkpt><trkpt lat="45.84433027523404" lon="11.744833154520625"><ele>1015.0</ele><time>2026-03-24T13:51:44Z</time></trkpt><trkpt lat="45.84446339991139" lon="11.744984920946804"><ele>1015.0</ele><time>2026-03-24T13:51:45Z</time></trkpt><trkpt lat="45.844570805517556" lon="11.74508159536554"><ele>1015.0</ele><time>2026-03-24T13:51:46Z</time></trkpt><trkpt lat="45.84468240927626" lon="11.745197890656751"><ele>1015.0</ele><time>2026-03-24T13:51:47Z</time></trkpt><trkpt lat="45.84479481737745" lon="11.745241501391769"><ele>1013.0</ele><time>2026-03-24T13:51:48Z</time></trkpt><trkpt lat="45.844928037968025" lon="11.74526604822265"><ele>1011.0</ele><time>2026-03-24T13:51:49Z</time></trkpt><trkpt lat="45.84504855819517" lon="11.745246237902625"><ele>1009.0</ele><time>2026-03-24T13:51:50Z</time></trkpt><trkpt lat="45.845146877476566" lon="11.745149433922412"><ele>1007.0</ele><time>2026-03-24T13:51:51Z</time></trkpt><trkpt lat="45.84522566699812" lon="11.744977672451347"><ele>1007.0</ele><time>2026-03-24T13:51:52Z</time></trkpt><trkpt lat="45.84532833297043" lon="11.744845706118596"><ele>1007.0</ele><time>2026-03-24T13:51:53Z</time></trkpt><trkpt lat="45.84546251708836" lon="11.744764169025933"><ele>1007.0</ele><time>2026-03-24T13:51:54Z</time></trkpt><trkpt lat="45.84560507337682" lon="11.744692118774358"><ele>1007.0</ele><time>2026-03-24T13:51:55Z</time></trkpt><trkpt lat="45.845747187360715" lon="11.744604347329373"><ele>1007.0</ele><time>2026-03-24T13:51:56Z</time></trkpt><trkpt lat="45.84590190321825" lon="11.744493800613943"><ele>1007.0</ele><time>2026-03-24T13:51:57Z</time></trkpt><trkpt lat="45.84603863452299" lon="11.744399819021316"><ele>1007.0</ele><time>2026-03-24T13:51:58Z</time></trkpt><trkpt lat="45.846135321029976" lon="11.744263043064283"><ele>1006.3333333333334</ele><time>2026-03-24T13:51:59Z</time></trkpt><trkpt lat="45.84624968221169" lon="11.744117099029895"><ele>1005.6666666666667</ele><time>2026-03-24T13:52:00Z</time></trkpt><trkpt lat="45.84636420562781" lon="11.743973025928682"><ele>1005.0</ele><time>2026-03-24T13:52:01Z</time></trkpt><trkpt lat="45.84646776182947" lon="11.743816580568033"><ele>1005.0</ele><time>2026-03-24T13:52:02Z</time></trkpt><trkpt lat="45.8465140162639" lon="11.743630628752658"><ele>1005.0</ele><time>2026-03-24T13:52:03Z</time></trkpt><trkpt lat="45.846575861757685" lon="11.743468448438056"><ele>1005.0</ele><time>2026-03-24T13:52:04Z</time></trkpt><trkpt lat="45.84665145450101" lon="11.743325000882798"><ele>1005.0</ele><time>2026-03-24T13:52:05Z</time></trkpt><trkpt lat="45.84673693854448" lon="11.74322391349358"><ele>1010.25</ele><time>2026-03-24T13:52:06Z</time></trkpt><trkpt lat="45.84683834037332" lon="11.743175040033808"><ele>1015.5</ele><time>2026-03-24T13:52:07Z</time></trkpt><trkpt lat="45.84694437132236" lon="11.743197394509343"><ele>1020.75</ele><time>2026-03-24T13:52:08Z</time></trkpt><trkpt lat="45.84705837509231" lon="11.743256233769253"><ele>1026.0</ele><time>2026-03-24T13:52:09Z</time></trkpt><trkpt lat="45.847170481233405" lon="11.743365090956013"><ele>1026.0</ele><time>2026-03-24T13:52:10Z</time></trkpt><trkpt lat="45.84725914533141" lon="11.743511197546036"><ele>1026.0</ele><time>2026-03-24T13:52:11Z</time></trkpt><trkpt lat="45.847322515423805" lon="11.743697401488552"><ele>1026.0</ele><time>2026-03-24T13:52:12Z</time></trkpt><trkpt lat="45.84738275380855" lon="11.74386051276097"><ele>1026.0</ele><time>2026-03-24T13:52:13Z</time></trkpt><trkpt lat="45.847450268301266" lon="11.743995833242433"><ele>1022.5999999999999</ele><time>2026-03-24T13:52:14Z</time></trkpt><trkpt lat="45.8475187009018" lon="11.744069867779425"><ele>1019.1999999999999</ele><time>2026-03-24T13:52:15Z</time></trkpt><trkpt lat="45.84760235038371" lon="11.744101136843767"><ele>1015.8000000000001</ele><time>2026-03-24T13:52:16Z</time></trkpt><trkpt lat="45.847705412721126" lon="11.744084952334456"><ele>1012.4000000000001</ele><time>2026-03-24T13:52:17Z</time></trkpt><trkpt lat="45.847818496016735" lon="11.744014234474392"><ele>1009.0</ele><time>2026-03-24T13:52:18Z</time></trkpt><trkpt lat="45.84794248288738" lon="11.743907759421981"><ele>1007.0</ele><time>2026-03-24T13:52:19Z</time></trkpt><trkpt lat="45.848091520625246" lon="11.743808551349506"><ele>1005.0</ele><time>2026-03-24T13:52:20Z</time></trkpt><trkpt lat="45.84824842800608" lon="11.74371997419515"><ele>1003.0</ele><time>2026-03-24T13:52:21Z</time></trkpt><trkpt lat="45.848408209812824" lon="11.743621778898767"><ele>1007.0</ele><time>2026-03-24T13:52:22Z</time></trkpt><trkpt lat="45.848573298900604" lon="11.743481038425651"><ele>1011.0</ele><time>2026-03-24T13:52:23Z</time></trkpt><trkpt lat="45.84872656577436" lon="11.743309854887551"><ele>1015.0</ele><time>2026-03-24T13:52:24Z</time></trkpt><trkpt lat="45.84888773100694" lon="11.7431203851766"><ele>1015.0</ele><time>2026-03-24T13:52:24.999Z</time></trkpt><trkpt lat="45.84901923340713" lon="11.743004943424836"><ele>1015.0</ele><time>2026-03-24T13:52:25.999Z</time></trkpt><trkpt lat="45.84916514300404" lon="11.742934821828548"><ele>1015.0</ele><time>2026-03-24T13:52:26.999Z</time></trkpt><trkpt lat="45.849290927182984" lon="11.742934168478788"><ele>1015.0</ele><time>2026-03-24T13:52:27.999Z</time></trkpt><trkpt lat="45.84942614611536" lon="11.742910569921769"><ele>1011.3333333333333</ele><time>2026-03-24T13:52:28.999Z</time></trkpt><trkpt lat="45.84956131675442" lon="11.742867106265765"><ele>1007.6666666666667</ele><time>2026-03-24T13:52:29.999Z</time></trkpt><trkpt lat="45.84970192347967" lon="11.742787106966249"><ele>1004.0</ele><time>2026-03-24T13:52:30.999Z</time></trkpt><trkpt lat="45.849863876639" lon="11.742772292714845"><ele>1004.0</ele><time>2026-03-24T13:52:31.999Z</time></trkpt><trkpt lat="45.84998469626404" lon="11.7427932127419"><ele>1004.0000000000001</ele><time>2026-03-24T13:52:32.999Z</time></trkpt><trkpt lat="45.850090419145346" lon="11.742838760442934"><ele>1004.0000000000001</ele><time>2026-03-24T13:52:33.999Z</time></trkpt><trkpt lat="45.85019424662272" lon="11.742890864169352"><ele>1004.0</ele><time>2026-03-24T13:52:34.999Z</time></trkpt><trkpt lat="45.85028362300416" lon="11.742932259019438"><ele>1004.0</ele><time>2026-03-24T13:52:35.999Z</time></trkpt><trkpt lat="45.85037145338181" lon="11.742947899517764"><ele>1001.75</ele><time>2026-03-24T13:52:36.999Z</time></trkpt><trkpt lat="45.850459920195775" lon="11.742918925899552"><ele>999.5</ele><time>2026-03-24T13:52:37.999Z</time></trkpt><trkpt lat="45.85055780405874" lon="11.742836346744909"><ele>997.25</ele><time>2026-03-24T13:52:38.999Z</time></trkpt><trkpt lat="45.850656064480425" lon="11.742746556599826"><ele>995.0</ele><time>2026-03-24T13:52:39.999Z</time></trkpt><trkpt lat="45.850773805674656" lon="11.74266181208605"><ele>996.25</ele><time>2026-03-24T13:52:40.999Z</time></trkpt><trkpt lat="45.850893225278554" lon="11.742576204279722"><ele>997.5</ele><time>2026-03-24T13:52:41.999Z</time></trkpt><trkpt lat="45.85102221871649" lon="11.742491541405085"><ele>998.75</ele><time>2026-03-24T13:52:42.999Z</time></trkpt><trkpt lat="45.85112549619735" lon="11.742392367299185"><ele>1000.0</ele><time>2026-03-24T13:52:43.999Z</time></trkpt><trkpt lat="45.85121738056616" lon="11.742259553807328"><ele>1000.0</ele><time>2026-03-24T13:52:44.999Z</time></trkpt><trkpt lat="45.85131481871489" lon="11.742119871727922"><ele>1000.0</ele><time>2026-03-24T13:52:45.999Z</time></trkpt><trkpt lat="45.851395726494715" lon="11.741970696693338"><ele>1000.0</ele><time>2026-03-24T13:52:46.999Z</time></trkpt><trkpt lat="45.85146751743114" lon="11.741804883145447"><ele>1000.0</ele><time>2026-03-24T13:52:47.999Z</time></trkpt><trkpt lat="45.85155393714708" lon="11.741616785986796"><ele>1006.6666666666666</ele><time>2026-03-24T13:52:48.999Z</time></trkpt><trkpt lat="45.85163361953595" lon="11.741399886280632"><ele>1013.3333333333333</ele><time>2026-03-24T13:52:49.999Z</time></trkpt><trkpt lat="45.851706181296244" lon="11.741195963579743"><ele>1020.0</ele><time>2026-03-24T13:52:50.999Z</time></trkpt><trkpt lat="45.85177541954876" lon="11.74102428202569"><ele>1017.0</ele><time>2026-03-24T13:52:51.999Z</time></trkpt><trkpt lat="45.851855103325796" lon="11.740884336439988"><ele>1014.0</ele><time>2026-03-24T13:52:52.999Z</time></trkpt><trkpt lat="45.85194443667029" lon="11.740787507439679"><ele>1011.0</ele><time>2026-03-24T13:52:53.999Z</time></trkpt><trkpt lat="45.85203173063743" lon="11.74069059486639"><ele>1008.0</ele><time>2026-03-24T13:52:54.999Z</time></trkpt><trkpt lat="45.85210300972362" lon="11.740553898413092"><ele>1008.0</ele><time>2026-03-24T13:52:55.999Z</time></trkpt><trkpt lat="45.85216395815293" lon="11.740383023440668"><ele>1008.0</ele><time>2026-03-24T13:52:56.999Z</time></trkpt><trkpt lat="45.85222326366261" lon="11.740196217799152"><ele>1008.0</ele><time>2026-03-24T13:52:57.999Z</time></trkpt><trkpt lat="45.852273872940835" lon="11.740017543296485"><ele>1008.0</ele><time>2026-03-24T13:52:58.999Z</time></trkpt><trkpt lat="45.852307596447574" lon="11.739858952353664"><ele>1010.0</ele><time>2026-03-24T13:52:59.999Z</time></trkpt><trkpt lat="45.85232199507989" lon="11.73971567871025"><ele>1012.0</ele><time>2026-03-24T13:53:00.999Z</time></trkpt><trkpt lat="45.852298494309565" lon="11.73957985777037"><ele>1014.0</ele><time>2026-03-24T13:53:01.999Z</time></trkpt><trkpt lat="45.85225778918506" lon="11.739430078641503"><ele>1016.0</ele><time>2026-03-24T13:53:02.999Z</time></trkpt><trkpt lat="45.85220597309767" lon="11.739272332066188"><ele>1018.0</ele><time>2026-03-24T13:53:03.999Z</time></trkpt><trkpt lat="45.85209546564547" lon="11.739132043101176"><ele>1019.25</ele><time>2026-03-24T13:53:04.999Z</time></trkpt><trkpt lat="45.851994250045756" lon="11.738986782788709"><ele>1020.5</ele><time>2026-03-24T13:53:05.999Z</time></trkpt><trkpt lat="45.851902072645935" lon="11.738861912807035"><ele>1021.75</ele><time>2026-03-24T13:53:06.999Z</time></trkpt><trkpt lat="45.851827539548886" lon="11.73873602417989"><ele>1023.0</ele><time>2026-03-24T13:53:07.999Z</time></trkpt><trkpt lat="45.85179460963727" lon="11.738618948224811"><ele>1023.8</ele><time>2026-03-24T13:53:08.999Z</time></trkpt><trkpt lat="45.85179074068257" lon="11.738482041784865"><ele>1024.6</ele><time>2026-03-24T13:53:09.999Z</time></trkpt><trkpt lat="45.851824599137416" lon="11.738342796889182"><ele>1025.4</ele><time>2026-03-24T13:53:10.999Z</time></trkpt><trkpt lat="45.85191686244032" lon="11.738231021732354"><ele>1026.2</ele><time>2026-03-24T13:53:11.999Z</time></trkpt><trkpt lat="45.85199894158128" lon="11.738142430164354"><ele>1027.0</ele><time>2026-03-24T13:53:12.999Z</time></trkpt><trkpt lat="45.8520796276858" lon="11.738073554134692"><ele>1027.0</ele><time>2026-03-24T13:53:13.999Z</time></trkpt><trkpt lat="45.852173754100725" lon="11.737974892203663"><ele>1027.0</ele><time>2026-03-24T13:53:14.999Z</time></trkpt><trkpt lat="45.852290156363566" lon="11.737886494955696"><ele>1027.0</ele><time>2026-03-24T13:53:15.999Z</time></trkpt><trkpt lat="45.85239948939664" lon="11.737777098372632"><ele>1027.0</ele><time>2026-03-24T13:53:16.999Z</time></trkpt><trkpt lat="45.85249460530277" lon="11.737658361699014"><ele>1029.0</ele><time>2026-03-24T13:53:17.999Z</time></trkpt><trkpt lat="45.852550356195344" lon="11.737529146985453"><ele>1031.0</ele><time>2026-03-24T13:53:18.999Z</time></trkpt><trkpt lat="45.85258670102528" lon="11.73739304487644"><ele>1033.0</ele><time>2026-03-24T13:53:19.999Z</time></trkpt><trkpt lat="45.85259141884497" lon="11.737272430723054"><ele>1035.0</ele><time>2026-03-24T13:53:20.999Z</time></trkpt><trkpt lat="45.85256749560156" lon="11.737151592685164"><ele>1037.0</ele><time>2026-03-24T13:53:21.999Z</time></trkpt><trkpt lat="45.85252736960993" lon="11.73702143317899"><ele>1037.0</ele><time>2026-03-24T13:53:22.999Z</time></trkpt><trkpt lat="45.852504085724966" lon="11.736897803984876"><ele>1037.0</ele><time>2026-03-24T13:53:23.999Z</time></trkpt><trkpt lat="45.852502563798524" lon="11.736770619602947"><ele>1037.0</ele><time>2026-03-24T13:53:24.999Z</time></trkpt><trkpt lat="45.8525189793547" lon="11.736649721775581"><ele>1037.0</ele><time>2026-03-24T13:53:25.999Z</time></trkpt><trkpt lat="45.85256093879173" lon="11.736542399869585"><ele>1037.0</ele><time>2026-03-24T13:53:27Z</time></trkpt><trkpt lat="45.85264958854841" lon="11.736447423173441"><ele>1034.0</ele><time>2026-03-24T13:53:28Z</time></trkpt><trkpt lat="45.85274630418786" lon="11.736356399213301"><ele>1031.0</ele><time>2026-03-24T13:53:29Z</time></trkpt><trkpt lat="45.852837688635574" lon="11.736271122814353"><ele>1028.0</ele><time>2026-03-24T13:53:30Z</time></trkpt><trkpt lat="45.85295206631373" lon="11.736174308994578"><ele>1025.0</ele><time>2026-03-24T13:53:31Z</time></trkpt><trkpt lat="45.853053813992716" lon="11.736058366466876"><ele>1026.75</ele><time>2026-03-24T13:53:32Z</time></trkpt><trkpt lat="45.853173081820636" lon="11.735953064281981"><ele>1028.5</ele><time>2026-03-24T13:53:33Z</time></trkpt><trkpt lat="45.85330829211481" lon="11.73584614602945"><ele>1030.25</ele><time>2026-03-24T13:53:34Z</time></trkpt><trkpt lat="45.85344124696151" lon="11.73576129492563"><ele>1032.0</ele><time>2026-03-24T13:53:35Z</time></trkpt><trkpt lat="45.853545952056" lon="11.735669069936426"><ele>1032.0</ele><time>2026-03-24T13:53:36Z</time></trkpt><trkpt lat="45.853644075539584" lon="11.73562885487332"><ele>1032.0</ele><time>2026-03-24T13:53:37Z</time></trkpt><trkpt lat="45.85374512238935" lon="11.735591117582134"><ele>1032.0</ele><time>2026-03-24T13:53:38Z</time></trkpt><trkpt lat="45.85382019959308" lon="11.735553137446267"><ele>1032.0</ele><time>2026-03-24T13:53:39Z</time></trkpt><trkpt lat="45.85388422216559" lon="11.735487267263899"><ele>1032.0</ele><time>2026-03-24T13:53:40Z</time></trkpt><trkpt lat="45.85392597680326" lon="11.735367016995818"><ele>1032.0</ele><time>2026-03-24T13:53:41Z</time></trkpt><trkpt lat="45.85399033762392" lon="11.735246872961724"><ele>1032.0</ele><time>2026-03-24T13:53:42Z</time></trkpt><trkpt lat="45.85406216853414" lon="11.735136944967474"><ele>1032.0</ele><time>2026-03-24T13:53:43Z</time></trkpt><trkpt lat="45.85414788615333" lon="11.735054138711673"><ele>1032.0</ele><time>2026-03-24T13:53:44Z</time></trkpt><trkpt lat="45.85424867994157" lon="11.735020303001816"><ele>1032.0</ele><time>2026-03-24T13:53:45Z</time></trkpt><trkpt lat="45.85434720396462" lon="11.735012615520898"><ele>1035.75</ele><time>2026-03-24T13:53:46Z</time></trkpt><trkpt lat="45.85446044081149" lon="11.734967120896432"><ele>1039.5</ele><time>2026-03-24T13:53:47Z</time></trkpt><trkpt lat="45.85457283788477" lon="11.73489774228954"><ele>1043.25</ele><time>2026-03-24T13:53:48Z</time></trkpt><trkpt lat="45.854673387321235" lon="11.734792406942692"><ele>1047.0</ele><time>2026-03-24T13:53:49Z</time></trkpt><trkpt lat="45.854737042508376" lon="11.734694229598142"><ele>1047.0</ele><time>2026-03-24T13:53:50Z</time></trkpt><trkpt lat="45.85481070589846" lon="11.734613987628979"><ele>1047.0</ele><time>2026-03-24T13:53:51Z</time></trkpt><trkpt lat="45.854898460013786" lon="11.734577288764891"><ele>1047.0</ele><time>2026-03-24T13:53:52Z</time></trkpt><trkpt lat="45.85499287532464" lon="11.734588508053408"><ele>1047.0</ele><time>2026-03-24T13:53:53Z</time></trkpt><trkpt lat="45.85510295684211" lon="11.734632308668612"><ele>1047.0</ele><time>2026-03-24T13:53:54Z</time></trkpt><trkpt lat="45.85521333006797" lon="11.734707845297653"><ele>1049.0</ele><time>2026-03-24T13:53:55Z</time></trkpt><trkpt lat="45.85532363820057" lon="11.734807626098718"><ele>1051.0</ele><time>2026-03-24T13:53:56Z</time></trkpt><trkpt lat="45.855423994942846" lon="11.734925575383505"><ele>1053.0</ele><time>2026-03-24T13:53:57Z</time></trkpt><trkpt lat="45.85550509942136" lon="11.735013548375427"><ele>1055.0</ele><time>2026-03-24T13:53:58Z</time></trkpt><trkpt lat="45.85558938425745" lon="11.735096120382954"><ele>1055.0</ele><time>2026-03-24T13:53:59Z</time></trkpt><trkpt lat="45.85568728817953" lon="11.735136147873353"><ele>1055.0</ele><time>2026-03-24T13:54:00Z</time></trkpt><trkpt lat="45.85580409336115" lon="11.735132601493067"><ele>1055.0</ele><time>2026-03-24T13:54:01Z</time></trkpt><trkpt lat="45.85591562623521" lon="11.735115020862539"><ele>1055.0</ele><time>2026-03-24T13:54:02Z</time></trkpt><trkpt lat="45.85601487585321" lon="11.735080831214137"><ele>1055.0</ele><time>2026-03-24T13:54:03Z</time></trkpt><trkpt lat="45.85610141027623" lon="11.735025908724872"><ele>1054.25</ele><time>2026-03-24T13:54:04Z</time></trkpt><trkpt lat="45.85618519197716" lon="11.734921712705631"><ele>1053.5</ele><time>2026-03-24T13:54:05Z</time></trkpt><trkpt lat="45.856256566042234" lon="11.73478213137373"><ele>1052.75</ele><time>2026-03-24T13:54:06Z</time></trkpt><trkpt lat="45.856327236734664" lon="11.734653813786906"><ele>1052.0</ele><time>2026-03-24T13:54:07Z</time></trkpt><trkpt lat="45.85638449789394" lon="11.73451692784115"><ele>1054.0</ele><time>2026-03-24T13:54:08Z</time></trkpt><trkpt lat="45.85642915445362" lon="11.734367193055819"><ele>1056.0</ele><time>2026-03-24T13:54:09Z</time></trkpt><trkpt lat="45.85648595832947" lon="11.734239007151965"><ele>1058.0</ele><time>2026-03-24T13:54:10Z</time></trkpt><trkpt lat="45.85657364960595" lon="11.73415572010038"><ele>1060.0</ele><time>2026-03-24T13:54:11Z</time></trkpt><trkpt lat="45.85667131320584" lon="11.734115958059244"><ele>1062.0</ele><time>2026-03-24T13:54:12Z</time></trkpt><trkpt lat="45.85676455703705" lon="11.734085613183042"><ele>1061.4</ele><time>2026-03-24T13:54:13Z</time></trkpt><trkpt lat="45.85684978187492" lon="11.734030580161328"><ele>1060.8000000000002</ele><time>2026-03-24T13:54:14Z</time></trkpt><trkpt lat="45.85691472855967" lon="11.733937355243546"><ele>1060.2</ele><time>2026-03-24T13:54:15Z</time></trkpt><trkpt lat="45.85695909714052" lon="11.733798367262715"><ele>1059.6000000000001</ele><time>2026-03-24T13:54:16Z</time></trkpt><trkpt lat="45.85701799547753" lon="11.733660731629712"><ele>1059.0</ele><time>2026-03-24T13:54:17Z</time></trkpt><trkpt lat="45.857083090637836" lon="11.733548155517225"><ele>1059.0</ele><time>2026-03-24T13:54:18Z</time></trkpt><trkpt lat="45.857158360768175" lon="11.7335026533109"><ele>1059.0</ele><time>2026-03-24T13:54:19Z</time></trkpt><trkpt lat="45.85723308742369" lon="11.733500308590695"><ele>1059.0</ele><time>2026-03-24T13:54:20Z</time></trkpt><trkpt lat="45.857317400722444" lon="11.733550990713809"><ele>1059.0</ele><time>2026-03-24T13:54:21Z</time></trkpt><trkpt lat="45.85738727582998" lon="11.733628559647398"><ele>1059.0</ele><time>2026-03-24T13:54:21.999Z</time></trkpt><trkpt lat="45.8574776067907" lon="11.733672394235148"><ele>1059.0</ele><time>2026-03-24T13:54:22.999Z</time></trkpt><trkpt lat="45.85759295639465" lon="11.733681156294146"><ele>1059.2</ele><time>2026-03-24T13:54:23.999Z</time></trkpt><trkpt lat="45.85769878034196" lon="11.733647677213169"><ele>1059.4</ele><time>2026-03-24T13:54:24.999Z</time></trkpt><trkpt lat="45.85779397468707" lon="11.733573057786122"><ele>1059.6</ele><time>2026-03-24T13:54:25.999Z</time></trkpt><trkpt lat="45.85787754785912" lon="11.733468279638366"><ele>1059.8</ele><time>2026-03-24T13:54:26.999Z</time></trkpt><trkpt lat="45.857963586760974" lon="11.733352818152742"><ele>1060.0</ele><time>2026-03-24T13:54:27.999Z</time></trkpt><trkpt lat="45.858055638581284" lon="11.73326225109638"><ele>1060.0</ele><time>2026-03-24T13:54:28.999Z</time></trkpt><trkpt lat="45.85816782284187" lon="11.733199512870929"><ele>1060.0</ele><time>2026-03-24T13:54:29.999Z</time></trkpt><trkpt lat="45.8582906807477" lon="11.73314647529489"><ele>1060.0</ele><time>2026-03-24T13:54:30.999Z</time></trkpt><trkpt lat="45.85839075649306" lon="11.733066431229918"><ele>1060.0</ele><time>2026-03-24T13:54:31.999Z</time></trkpt><trkpt lat="45.85844754678169" lon="11.732959565432028"><ele>1060.0</ele><time>2026-03-24T13:54:32.999Z</time></trkpt><trkpt lat="45.858449980902925" lon="11.732838022354054"><ele>1060.0</ele><time>2026-03-24T13:54:33.999Z</time></trkpt><trkpt lat="45.85843437329509" lon="11.732702140541845"><ele>1060.0</ele><time>2026-03-24T13:54:34.999Z</time></trkpt><trkpt lat="45.85842779696664" lon="11.73255677084814"><ele>1060.0</ele><time>2026-03-24T13:54:35.999Z</time></trkpt><trkpt lat="45.85843078537723" lon="11.73243674984111"><ele>1060.0</ele><time>2026-03-24T13:54:36.999Z</time></trkpt><trkpt lat="45.85846066108763" lon="11.732346515689697"><ele>1060.0</ele><time>2026-03-24T13:54:37.999Z</time></trkpt><trkpt lat="45.85852457991717" lon="11.732293755023116"><ele>1063.2</ele><time>2026-03-24T13:54:38.999Z</time></trkpt><trkpt lat="45.85860971840151" lon="11.732288566144783"><ele>1066.4</ele><time>2026-03-24T13:54:39.999Z</time></trkpt><trkpt lat="45.85869907554101" lon="11.732335890807661"><ele>1069.6</ele><time>2026-03-24T13:54:40.999Z</time></trkpt><trkpt lat="45.85879067770613" lon="11.732398961877958"><ele>1072.8</ele><time>2026-03-24T13:54:41.999Z</time></trkpt><trkpt lat="45.8588721408856" lon="11.732508141064146"><ele>1076.0</ele><time>2026-03-24T13:54:42.999Z</time></trkpt><trkpt lat="45.85895541653055" lon="11.732646495019067"><ele>1076.2</ele><time>2026-03-24T13:54:43.999Z</time></trkpt><trkpt lat="45.85902893977367" lon="11.732783453158117"><ele>1076.3999999999999</ele><time>2026-03-24T13:54:44.999Z</time></trkpt><trkpt lat="45.85908972781072" lon="11.73290086053223"><ele>1076.6</ele><time>2026-03-24T13:54:45.999Z</time></trkpt><trkpt lat="45.85915114516063" lon="11.733005900441013"><ele>1076.8</ele><time>2026-03-24T13:54:46.999Z</time></trkpt><trkpt lat="45.859191686700626" lon="11.733118929400135"><ele>1077.0</ele><time>2026-03-24T13:54:47.999Z</time></trkpt><trkpt lat="45.859199358923995" lon="11.733236333689165"><ele>1077.0</ele><time>2026-03-24T13:54:48.999Z</time></trkpt><trkpt lat="45.859165253378656" lon="11.733355170637555"><ele>1077.0</ele><time>2026-03-24T13:54:49.999Z</time></trkpt><trkpt lat="45.85907545544948" lon="11.733450153274507"><ele>1077.0</ele><time>2026-03-24T13:54:50.999Z</time></trkpt><trkpt lat="45.85899823965329" lon="11.733555696651022"><ele>1077.0</ele><time>2026-03-24T13:54:51.999Z</time></trkpt><trkpt lat="45.85894032797143" lon="11.73368533418562"><ele>1077.0</ele><time>2026-03-24T13:54:52.999Z</time></trkpt><trkpt lat="45.85890696565671" lon="11.733845113453956"><ele>1079.75</ele><time>2026-03-24T13:54:53.999Z</time></trkpt><trkpt lat="45.858895909773224" lon="11.734023298764255"><ele>1082.5</ele><time>2026-03-24T13:54:54.999Z</time></trkpt><trkpt lat="45.85886753610044" lon="11.734230392260345"><ele>1085.25</ele><time>2026-03-24T13:54:55.999Z</time></trkpt><trkpt lat="45.85881656173237" lon="11.734438880603296"><ele>1088.0</ele><time>2026-03-24T13:54:56.999Z</time></trkpt><trkpt lat="45.85874798511611" lon="11.734673706879137"><ele>1092.6666666666667</ele><time>2026-03-24T13:54:57.999Z</time></trkpt><trkpt lat="45.85868984317923" lon="11.734912705270663"><ele>1097.3333333333333</ele><time>2026-03-24T13:54:58.999Z</time></trkpt><trkpt lat="45.85863136351348" lon="11.73514109131322"><ele>1102.0</ele><time>2026-03-24T13:54:59.999Z</time></trkpt><trkpt lat="45.858585112178076" lon="11.735333756468348"><ele>1103.4</ele><time>2026-03-24T13:55:00.999Z</time></trkpt><trkpt lat="45.858543016182544" lon="11.735508052116508"><ele>1104.8000000000002</ele><time>2026-03-24T13:55:01.999Z</time></trkpt><trkpt lat="45.85850557985589" lon="11.735661469575717"><ele>1106.2</ele><time>2026-03-24T13:55:02.999Z</time></trkpt><trkpt lat="45.85848351499416" lon="11.735804025991033"><ele>1107.6000000000001</ele><time>2026-03-24T13:55:03.999Z</time></trkpt><trkpt lat="45.85845855461864" lon="11.73593517053384"><ele>1109.0</ele><time>2026-03-24T13:55:04.999Z</time></trkpt><trkpt lat="45.85843646049814" lon="11.73610103630809"><ele>1109.5</ele><time>2026-03-24T13:55:05.999Z</time></trkpt><trkpt lat="45.85846396621664" lon="11.736260186478885"><ele>1110.0</ele><time>2026-03-24T13:55:06.999Z</time></trkpt><trkpt lat="45.858509929039954" lon="11.73644270751944"><ele>1110.5</ele><time>2026-03-24T13:55:07.999Z</time></trkpt><trkpt lat="45.858548718031194" lon="11.73663220339049"><ele>1111.0</ele><time>2026-03-24T13:55:08.999Z</time></trkpt><trkpt lat="45.85858203684165" lon="11.736848818199212"><ele>1113.0</ele><time>2026-03-24T13:55:09.999Z</time></trkpt><trkpt lat="45.85856054390536" lon="11.737022382513928"><ele>1115.0</ele><time>2026-03-24T13:55:10.999Z</time></trkpt><trkpt lat="45.858523777894014" lon="11.737173447522743"><ele>1117.0</ele><time>2026-03-24T13:55:11.999Z</time></trkpt><trkpt lat="45.85844834349819" lon="11.737294312962327"><ele>1119.0</ele><time>2026-03-24T13:55:12.999Z</time></trkpt><trkpt lat="45.858342359730166" lon="11.737387720107241"><ele>1115.25</ele><time>2026-03-24T13:55:13.999Z</time></trkpt><trkpt lat="45.858252003519915" lon="11.737498944513817"><ele>1111.5</ele><time>2026-03-24T13:55:14.999Z</time></trkpt><trkpt lat="45.858193255772775" lon="11.737632514359753"><ele>1107.75</ele><time>2026-03-24T13:55:15.999Z</time></trkpt><trkpt lat="45.85815665099252" lon="11.73778051904448"><ele>1104.0</ele><time>2026-03-24T13:55:16.999Z</time></trkpt><trkpt lat="45.858138434996015" lon="11.73796689026913"><ele>1104.0</ele><time>2026-03-24T13:55:17.999Z</time></trkpt><trkpt lat="45.85811846218399" lon="11.738156820045369"><ele>1104.0</ele><time>2026-03-24T13:55:18.999Z</time></trkpt><trkpt lat="45.85809252973824" lon="11.738312901548738"><ele>1104.0</ele><time>2026-03-24T13:55:19.999Z</time></trkpt><trkpt lat="45.858060923662684" lon="11.738440815092085"><ele>1104.0</ele><time>2026-03-24T13:55:20.999Z</time></trkpt><trkpt lat="45.85805675710497" lon="11.73856475161004"><ele>1104.0</ele><time>2026-03-24T13:55:21.999Z</time></trkpt><trkpt lat="45.858093367762905" lon="11.738709954726064"><ele>1104.25</ele><time>2026-03-24T13:55:22.999Z</time></trkpt><trkpt lat="45.85815075484021" lon="11.738861165339232"><ele>1104.5</ele><time>2026-03-24T13:55:23.999Z</time></trkpt><trkpt lat="45.85820082534768" lon="11.739029842218363"><ele>1104.75</ele><time>2026-03-24T13:55:24.999Z</time></trkpt><trkpt lat="45.85824581602652" lon="11.739219046698766"><ele>1105.0</ele><time>2026-03-24T13:55:25.999Z</time></trkpt><trkpt lat="45.858266135073954" lon="11.739393857219834"><ele>1103.0</ele><time>2026-03-24T13:55:26.999Z</time></trkpt><trkpt lat="45.85828925092088" lon="11.739543513822838"><ele>1101.0</ele><time>2026-03-24T13:55:27.999Z</time></trkpt><trkpt lat="45.85833696522224" lon="11.739696998522323"><ele>1099.0</ele><time>2026-03-24T13:55:28.999Z</time></trkpt><trkpt lat="45.858403333813875" lon="11.739853107791188"><ele>1097.0</ele><time>2026-03-24T13:55:29.999Z</time></trkpt><trkpt lat="45.85848082952575" lon="11.74002420978699"><ele>1100.4</ele><time>2026-03-24T13:55:30.999Z</time></trkpt><trkpt lat="45.858561036089384" lon="11.74019189638042"><ele>1103.8000000000002</ele><time>2026-03-24T13:55:31.999Z</time></trkpt><trkpt lat="45.85863264448641" lon="11.74032125539468"><ele>1107.2</ele><time>2026-03-24T13:55:33Z</time></trkpt><trkpt lat="45.85870796345277" lon="11.740415685831811"><ele>1110.6000000000001</ele><time>2026-03-24T13:55:34Z</time></trkpt><trkpt lat="45.858785300497345" lon="11.740482710006729"><ele>1114.0</ele><time>2026-03-24T13:55:35Z</time></trkpt><trkpt lat="45.85887388044047" lon="11.740544236078529"><ele>1114.0</ele><time>2026-03-24T13:55:36Z</time></trkpt><trkpt lat="45.85896955585069" lon="11.740620375550257"><ele>1114.0</ele><time>2026-03-24T13:55:37Z</time></trkpt><trkpt lat="45.85905801126674" lon="11.74071209065093"><ele>1114.0</ele><time>2026-03-24T13:55:38Z</time></trkpt><trkpt lat="45.859122862165414" lon="11.74082636373137"><ele>1114.0</ele><time>2026-03-24T13:55:39Z</time></trkpt><trkpt lat="45.85914444320113" lon="11.740961848989356"><ele>1114.0</ele><time>2026-03-24T13:55:40Z</time></trkpt><trkpt lat="45.85913229374814" lon="11.741103919057997"><ele>1112.8</ele><time>2026-03-24T13:55:41Z</time></trkpt><trkpt lat="45.859117965047716" lon="11.741240516371521"><ele>1111.6000000000001</ele><time>2026-03-24T13:55:42Z</time></trkpt><trkpt lat="45.85913618400577" lon="11.74136340303809"><ele>1110.4</ele><time>2026-03-24T13:55:43Z</time></trkpt><trkpt lat="45.85918681996846" lon="11.741463433996806"><ele>1109.2</ele><time>2026-03-24T13:55:44Z</time></trkpt><trkpt lat="45.85925811046325" lon="11.741563387043216"><ele>1108.0</ele><time>2026-03-24T13:55:45Z</time></trkpt><trkpt lat="45.859326176377536" lon="11.74168033296404"><ele>1113.75</ele><time>2026-03-24T13:55:46Z</time></trkpt><trkpt lat="45.85937987559632" lon="11.741830427133827"><ele>1119.5</ele><time>2026-03-24T13:55:47Z</time></trkpt><trkpt lat="45.859427185692034" lon="11.741982830529766"><ele>1125.25</ele><time>2026-03-24T13:55:48Z</time></trkpt><trkpt lat="45.8594776261377" lon="11.742134844113844"><ele>1131.0</ele><time>2026-03-24T13:55:49Z</time></trkpt><trkpt lat="45.85955160515575" lon="11.742282797861552"><ele>1131.0</ele><time>2026-03-24T13:55:50Z</time></trkpt><trkpt lat="45.85964348762401" lon="11.742424272882122"><ele>1131.0</ele><time>2026-03-24T13:55:51Z</time></trkpt><trkpt lat="45.85974569723788" lon="11.742560583927643"><ele>1131.0</ele><time>2026-03-24T13:55:52Z</time></trkpt><trkpt lat="45.85985376751196" lon="11.742687527340603"><ele>1131.0</ele><time>2026-03-24T13:55:53Z</time></trkpt><trkpt lat="45.85996249498488" lon="11.742831199559213"><ele>1129.25</ele><time>2026-03-24T13:55:54Z</time></trkpt><trkpt lat="45.8600694990416" lon="11.742977200958988"><ele>1127.5</ele><time>2026-03-24T13:55:55Z</time></trkpt><trkpt lat="45.86013634474838" lon="11.743122412148589"><ele>1125.75</ele><time>2026-03-24T13:55:56Z</time></trkpt><trkpt lat="45.860185142414274" lon="11.743275609221216"><ele>1124.0</ele><time>2026-03-24T13:55:57Z</time></trkpt><trkpt lat="45.86023917092765" lon="11.74343544849902"><ele>1132.0</ele><time>2026-03-24T13:55:58Z</time></trkpt><trkpt lat="45.86027865848724" lon="11.74362641024094"><ele>1140.0</ele><time>2026-03-24T13:55:59Z</time></trkpt><trkpt lat="45.86031548736757" lon="11.743819705923544"><ele>1148.0</ele><time>2026-03-24T13:56:00Z</time></trkpt><trkpt lat="45.86035688953878" lon="11.743988351314702"><ele>1156.0</ele><time>2026-03-24T13:56:01Z</time></trkpt><trkpt lat="45.86040047329849" lon="11.744140938425113"><ele>1156.0</ele><time>2026-03-24T13:56:02Z</time></trkpt><trkpt lat="45.86040543170041" lon="11.744257957931724"><ele>1156.0</ele><time>2026-03-24T13:56:03Z</time></trkpt><trkpt lat="45.86042551931837" lon="11.744351642819638"><ele>1156.0</ele><time>2026-03-24T13:56:04Z</time></trkpt><trkpt lat="45.86042708107438" lon="11.744469501772913"><ele>1156.0</ele><time>2026-03-24T13:56:06Z</time></trkpt><trkpt lat="45.8603627544448" lon="11.744519786835635"><ele>1156.0</ele><time>2026-03-24T13:56:07Z</time></trkpt><trkpt lat="45.860284996400345" lon="11.744510189615983"><ele>1156.0</ele><time>2026-03-24T13:56:08Z</time></trkpt><trkpt lat="45.86022382479071" lon="11.744439790264755"><ele>1156.0</ele><time>2026-03-24T13:56:09Z</time></trkpt><trkpt lat="45.860157649701634" lon="11.744351478262335"><ele>1156.0</ele><time>2026-03-24T13:56:10Z</time></trkpt><trkpt lat="45.86008584512668" lon="11.744259010123896"><ele>1156.0</ele><time>2026-03-24T13:56:11Z</time></trkpt><trkpt lat="45.8600011553106" lon="11.744186320336086"><ele>1156.0</ele><time>2026-03-24T13:56:12Z</time></trkpt><trkpt lat="45.85989422946534" lon="11.744126299430519"><ele>1156.0</ele><time>2026-03-24T13:56:13Z</time></trkpt><trkpt lat="45.85978641528501" lon="11.74416078459974"><ele>1153.6</ele><time>2026-03-24T13:56:14Z</time></trkpt><trkpt lat="45.85969245400995" lon="11.744215722784224"><ele>1151.1999999999998</ele><time>2026-03-24T13:56:15Z</time></trkpt><trkpt lat="45.85960127897568" lon="11.744288141539183"><ele>1148.8000000000002</ele><time>2026-03-24T13:56:16Z</time></trkpt><trkpt lat="45.859502093030834" lon="11.744327493290317"><ele>1146.4</ele><time>2026-03-24T13:56:17Z</time></trkpt><trkpt lat="45.85940586984235" lon="11.744376921392783"><ele>1144.0</ele><time>2026-03-24T13:56:18Z</time></trkpt><trkpt lat="45.859297768233006" lon="11.744429787516836"><ele>1145.5</ele><time>2026-03-24T13:56:19Z</time></trkpt><trkpt lat="45.859167639892505" lon="11.744463453726915"><ele>1147.0</ele><time>2026-03-24T13:56:20Z</time></trkpt><trkpt lat="45.859053600467945" lon="11.744487709035527"><ele>1148.5</ele><time>2026-03-24T13:56:21Z</time></trkpt><trkpt lat="45.858934492202806" lon="11.744507895346409"><ele>1150.0</ele><time>2026-03-24T13:56:22Z</time></trkpt><trkpt lat="45.85884230981489" lon="11.744504100152769"><ele>1150.0</ele><time>2026-03-24T13:56:23Z</time></trkpt><trkpt lat="45.858766521546784" lon="11.744537722713375"><ele>1150.0</ele><time>2026-03-24T13:56:24Z</time></trkpt><trkpt lat="45.858703788238934" lon="11.744588850181286"><ele>1150.0</ele><time>2026-03-24T13:56:25Z</time></trkpt><trkpt lat="45.858653280065305" lon="11.744659420483043"><ele>1150.0</ele><time>2026-03-24T13:56:26Z</time></trkpt><trkpt lat="45.85860769219809" lon="11.744741435066892"><ele>1150.0</ele><time>2026-03-24T13:56:27Z</time></trkpt><trkpt lat="45.858584243789004" lon="11.744850019138976"><ele>1150.0</ele><time>2026-03-24T13:56:28Z</time></trkpt><trkpt lat="45.85857609531298" lon="11.744979681131914"><ele>1150.0</ele><time>2026-03-24T13:56:28.999Z</time></trkpt><trkpt lat="45.85856417474524" lon="11.745127331210044"><ele>1150.0</ele><time>2026-03-24T13:56:29.999Z</time></trkpt><trkpt lat="45.858547918097536" lon="11.74529289651453"><ele>1150.0</ele><time>2026-03-24T13:56:30.999Z</time></trkpt><trkpt lat="45.85852635746774" lon="11.745490825505852"><ele>1150.0</ele><time>2026-03-24T13:56:31.999Z</time></trkpt><trkpt lat="45.85851139219617" lon="11.745705218907432"><ele>1155.6666666666665</ele><time>2026-03-24T13:56:32.999Z</time></trkpt><trkpt lat="45.85851031334524" lon="11.74593285976873"><ele>1161.3333333333333</ele><time>2026-03-24T13:56:33.999Z</time></trkpt><trkpt lat="45.85851034682728" lon="11.746204123954513"><ele>1167.0</ele><time>2026-03-24T13:56:34.999Z</time></trkpt><trkpt lat="45.85849873047039" lon="11.746500086290698"><ele>1170.3333333333333</ele><time>2026-03-24T13:56:35.999Z</time></trkpt><trkpt lat="45.85847099472958" lon="11.746808413615595"><ele>1173.6666666666665</ele><time>2026-03-24T13:56:36.999Z</time></trkpt><trkpt lat="45.85844836899382" lon="11.747121439861488"><ele>1177.0</ele><time>2026-03-24T13:56:37.999Z</time></trkpt><trkpt lat="45.858425767607045" lon="11.747415781284948"><ele>1171.3333333333333</ele><time>2026-03-24T13:56:38.999Z</time></trkpt><trkpt lat="45.85841257028295" lon="11.747668041788907"><ele>1165.6666666666667</ele><time>2026-03-24T13:56:39.999Z</time></trkpt><trkpt lat="45.858387496944026" lon="11.747880906541132"><ele>1160.0</ele><time>2026-03-24T13:56:40.999Z</time></trkpt><trkpt lat="45.8583594727471" lon="11.748064041451592"><ele>1160.0</ele><time>2026-03-24T13:56:41.999Z</time></trkpt><trkpt lat="45.858360534501045" lon="11.748297596583539"><ele>1160.0</ele><time>2026-03-24T13:56:42.999Z</time></trkpt><trkpt lat="45.858380150041405" lon="11.748542591653399"><ele>1160.0</ele><time>2026-03-24T13:56:43.999Z</time></trkpt><trkpt lat="45.85841744247706" lon="11.748776174015127"><ele>1160.75</ele><time>2026-03-24T13:56:44.999Z</time></trkpt><trkpt lat="45.85844777832258" lon="11.748975254364591"><ele>1161.5</ele><time>2026-03-24T13:56:45.999Z</time></trkpt><trkpt lat="45.85848834838954" lon="11.749148156389861"><ele>1162.25</ele><time>2026-03-24T13:56:46.999Z</time></trkpt><trkpt lat="45.85855007292702" lon="11.749325776722763"><ele>1163.0</ele><time>2026-03-24T13:56:47.999Z</time></trkpt><trkpt lat="45.85861862046629" lon="11.749496574524935"><ele>1171.25</ele><time>2026-03-24T13:56:48.999Z</time></trkpt><trkpt lat="45.85867852794517" lon="11.74965852120774"><ele>1179.5</ele><time>2026-03-24T13:56:49.999Z</time></trkpt><trkpt lat="45.85872249872592" lon="11.749810914495365"><ele>1187.75</ele><time>2026-03-24T13:56:50.999Z</time></trkpt><trkpt lat="45.85870575980391" lon="11.749986342407636"><ele>1196.0</ele><time>2026-03-24T13:56:51.999Z</time></trkpt><trkpt lat="45.858682338268714" lon="11.750199916174049"><ele>1197.25</ele><time>2026-03-24T13:56:52.999Z</time></trkpt><trkpt lat="45.85866752473239" lon="11.750410084091074"><ele>1198.5</ele><time>2026-03-24T13:56:53.999Z</time></trkpt><trkpt lat="45.85865014346968" lon="11.750626860085214"><ele>1199.75</ele><time>2026-03-24T13:56:54.999Z</time></trkpt><trkpt lat="45.858656367375644" lon="11.750839804115211"><ele>1201.0</ele><time>2026-03-24T13:56:55.999Z</time></trkpt><trkpt lat="45.85867218249537" lon="11.751027063764619"><ele>1202.0</ele><time>2026-03-24T13:56:56.999Z</time></trkpt><trkpt lat="45.85865988899227" lon="11.75118350848852"><ele>1203.0</ele><time>2026-03-24T13:56:57.999Z</time></trkpt><trkpt lat="45.85862539668165" lon="11.751336754682875"><ele>1204.0</ele><time>2026-03-24T13:56:58.999Z</time></trkpt><trkpt lat="45.85856412377328" lon="11.751502363159654"><ele>1205.0</ele><time>2026-03-24T13:56:59.999Z</time></trkpt><trkpt lat="45.85850705538386" lon="11.75167067480872"><ele>1199.25</ele><time>2026-03-24T13:57:00.999Z</time></trkpt><trkpt lat="45.858451159105265" lon="11.751853453065593"><ele>1193.5</ele><time>2026-03-24T13:57:01.999Z</time></trkpt><trkpt lat="45.85840717283254" lon="11.752053596383188"><ele>1187.75</ele><time>2026-03-24T13:57:02.999Z</time></trkpt><trkpt lat="45.858382163744565" lon="11.752264212170362"><ele>1182.0</ele><time>2026-03-24T13:57:03.999Z</time></trkpt><trkpt lat="45.858386881488585" lon="11.752485610303808"><ele>1182.0</ele><time>2026-03-24T13:57:04.999Z</time></trkpt><trkpt lat="45.858401369638806" lon="11.752697060039823"><ele>1182.0</ele><time>2026-03-24T13:57:05.999Z</time></trkpt><trkpt lat="45.858404720143824" lon="11.752881057082044"><ele>1182.0</ele><time>2026-03-24T13:57:06.999Z</time></trkpt><trkpt lat="45.858421945092864" lon="11.753068997946047"><ele>1182.0</ele><time>2026-03-24T13:57:07.999Z</time></trkpt><trkpt lat="45.858454581657824" lon="11.753272416222263"><ele>1197.0</ele><time>2026-03-24T13:57:08.999Z</time></trkpt><trkpt lat="45.85848758055739" lon="11.75349814452743"><ele>1212.0</ele><time>2026-03-24T13:57:09.999Z</time></trkpt><trkpt lat="45.85851615776693" lon="11.753737931889878"><ele>1227.0</ele><time>2026-03-24T13:57:10.999Z</time></trkpt><trkpt lat="45.85855379520491" lon="11.753989880062162"><ele>1228.3333333333333</ele><time>2026-03-24T13:57:11.999Z</time></trkpt><trkpt lat="45.85859182689718" lon="11.754253047823687"><ele>1229.6666666666665</ele><time>2026-03-24T13:57:12.999Z</time></trkpt><trkpt lat="45.858630537707185" lon="11.754535628147522"><ele>1231.0</ele><time>2026-03-24T13:57:13.999Z</time></trkpt><trkpt lat="45.85868012807112" lon="11.754841924607147"><ele>1231.3333333333333</ele><time>2026-03-24T13:57:14.999Z</time></trkpt><trkpt lat="45.85872838551721" lon="11.755094227478642"><ele>1231.6666666666667</ele><time>2026-03-24T13:57:15.999Z</time></trkpt><trkpt lat="45.8587729327716" lon="11.755312898872745"><ele>1232.0</ele><time>2026-03-24T13:57:16.999Z</time></trkpt><trkpt lat="45.85881672324937" lon="11.75551902982527"><ele>1232.0</ele><time>2026-03-24T13:57:17.999Z</time></trkpt><trkpt lat="45.85885595657093" lon="11.755703256537528"><ele>1232.0</ele><time>2026-03-24T13:57:18.999Z</time></trkpt><trkpt lat="45.85889584799372" lon="11.755862615105189"><ele>1232.0</ele><time>2026-03-24T13:57:19.999Z</time></trkpt><trkpt lat="45.85890664023723" lon="11.75604493778932"><ele>1232.0</ele><time>2026-03-24T13:57:20.999Z</time></trkpt><trkpt lat="45.85891163990606" lon="11.756242043103798"><ele>1230.6666666666667</ele><time>2026-03-24T13:57:21.999Z</time></trkpt><trkpt lat="45.85891889800344" lon="11.756455382220162"><ele>1229.3333333333333</ele><time>2026-03-24T13:57:22.999Z</time></trkpt><trkpt lat="45.858923504891834" lon="11.756707373859047"><ele>1228.0</ele><time>2026-03-24T13:57:23.999Z</time></trkpt><trkpt lat="45.85893012225644" lon="11.756910838409208"><ele>1226.75</ele><time>2026-03-24T13:57:24.999Z</time></trkpt><trkpt lat="45.858963180594635" lon="11.757121713415083"><ele>1225.5</ele><time>2026-03-24T13:57:25.999Z</time></trkpt><trkpt lat="45.85901790626275" lon="11.757308445124165"><ele>1224.25</ele><time>2026-03-24T13:57:26.999Z</time></trkpt><trkpt lat="45.85903928199812" lon="11.757466765496735"><ele>1223.0</ele><time>2026-03-24T13:57:27.999Z</time></trkpt><trkpt lat="45.85903906698259" lon="11.757633039738884"><ele>1222.6</ele><time>2026-03-24T13:57:28.999Z</time></trkpt><trkpt lat="45.859057685868514" lon="11.75778891419682"><ele>1222.1999999999998</ele><time>2026-03-24T13:57:29.999Z</time></trkpt><trkpt lat="45.859062824882805" lon="11.757936080402114"><ele>1221.8</ele><time>2026-03-24T13:57:30.999Z</time></trkpt><trkpt lat="45.85907872286388" lon="11.758066834340521"><ele>1221.3999999999999</ele><time>2026-03-24T13:57:31.999Z</time></trkpt><trkpt lat="45.85913734692779" lon="11.75821286944685"><ele>1221.0</ele><time>2026-03-24T13:57:32.999Z</time></trkpt><trkpt lat="45.859200994569335" lon="11.758368696294138"><ele>1221.0</ele><time>2026-03-24T13:57:33.999Z</time></trkpt><trkpt lat="45.859274624357475" lon="11.758526871872217"><ele>1221.0</ele><time>2026-03-24T13:57:34.999Z</time></trkpt><trkpt lat="45.859351125527795" lon="11.758705601261061"><ele>1221.0</ele><time>2026-03-24T13:57:35.999Z</time></trkpt><trkpt lat="45.859435817154235" lon="11.758880007692348"><ele>1221.0</ele><time>2026-03-24T13:57:36.999Z</time></trkpt><trkpt lat="45.85953166087518" lon="11.75905830822659"><ele>1224.6666666666667</ele><time>2026-03-24T13:57:37.999Z</time></trkpt><trkpt lat="45.85964165555608" lon="11.759245992021915"><ele>1228.3333333333335</ele><time>2026-03-24T13:57:39Z</time></trkpt><trkpt lat="45.85972376622352" lon="11.759428016950649"><ele>1232.0</ele><time>2026-03-24T13:57:40Z</time></trkpt><trkpt lat="45.85979135502985" lon="11.759584593105858"><ele>1232.0</ele><time>2026-03-24T13:57:41Z</time></trkpt><trkpt lat="45.859872336018526" lon="11.759725179510118"><ele>1232.0</ele><time>2026-03-24T13:57:42Z</time></trkpt><trkpt lat="45.85995065943681" lon="11.759877347615332"><ele>1232.0</ele><time>2026-03-24T13:57:43Z</time></trkpt><trkpt lat="45.860025103447434" lon="11.760027045218457"><ele>1232.0</ele><time>2026-03-24T13:57:44Z</time></trkpt><trkpt lat="45.86007812055278" lon="11.760176879356537"><ele>1229.75</ele><time>2026-03-24T13:57:45Z</time></trkpt><trkpt lat="45.86011556469755" lon="11.760335326415488"><ele>1227.5</ele><time>2026-03-24T13:57:46Z</time></trkpt><trkpt lat="45.86017205751329" lon="11.760479757671447"><ele>1225.25</ele><time>2026-03-24T13:57:47Z</time></trkpt><trkpt lat="45.86024404101942" lon="11.760620066771343"><ele>1223.0</ele><time>2026-03-24T13:57:48Z</time></trkpt><trkpt lat="45.86033956536156" lon="11.76075513278121"><ele>1224.75</ele><time>2026-03-24T13:57:49Z</time></trkpt><trkpt lat="45.86045953549032" lon="11.760884519404708"><ele>1226.5</ele><time>2026-03-24T13:57:50Z</time></trkpt><trkpt lat="45.860559024553396" lon="11.76099766867736"><ele>1228.25</ele><time>2026-03-24T13:57:51Z</time></trkpt><trkpt lat="45.86065248273161" lon="11.761088583893097"><ele>1230.0</ele><time>2026-03-24T13:57:52Z</time></trkpt><trkpt lat="45.8607273866475" lon="11.761143352709068"><ele>1230.0</ele><time>2026-03-24T13:57:53Z</time></trkpt><trkpt lat="45.860843037266584" lon="11.761115776272824"><ele>1230.0</ele><time>2026-03-24T13:57:54Z</time></trkpt><trkpt lat="45.86094773679612" lon="11.761089010628966"><ele>1230.0</ele><time>2026-03-24T13:57:55Z</time></trkpt><trkpt lat="45.861100420654175" lon="11.761016810594786"><ele>1230.0</ele><time>2026-03-24T13:57:56Z</time></trkpt><trkpt lat="45.861226256289484" lon="11.760994565589042"><ele>1233.0</ele><time>2026-03-24T13:57:57Z</time></trkpt><trkpt lat="45.86137090568273" lon="11.761015250554344"><ele>1236.0</ele><time>2026-03-24T13:57:58Z</time></trkpt><trkpt lat="45.86150660175525" lon="11.76105671315324"><ele>1239.0</ele><time>2026-03-24T13:57:59Z</time></trkpt><trkpt lat="45.86159622972051" lon="11.761109462967447"><ele>1242.0</ele><time>2026-03-24T13:58:00Z</time></trkpt><trkpt lat="45.861668096103095" lon="11.76119715599612"><ele>1242.0</ele><time>2026-03-24T13:58:01Z</time></trkpt><trkpt lat="45.86167152585568" lon="11.761372489009048"><ele>1242.0</ele><time>2026-03-24T13:58:02Z</time></trkpt><trkpt lat="45.86170829597932" lon="11.761501967504122"><ele>1242.0</ele><time>2026-03-24T13:58:03Z</time></trkpt><trkpt lat="45.86177583514936" lon="11.761594399241039"><ele>1242.0</ele><time>2026-03-24T13:58:04Z</time></trkpt><trkpt lat="45.861867096952494" lon="11.76160684043185"><ele>1242.0</ele><time>2026-03-24T13:58:05Z</time></trkpt><trkpt lat="45.86197945029681" lon="11.761595030036844"><ele>1244.5</ele><time>2026-03-24T13:58:06Z</time></trkpt><trkpt lat="45.86209936627943" lon="11.76155017493284"><ele>1247.0</ele><time>2026-03-24T13:58:07Z</time></trkpt><trkpt lat="45.8622314512253" lon="11.761523834109578"><ele>1249.5</ele><time>2026-03-24T13:58:08Z</time></trkpt><trkpt lat="45.86235107914144" lon="11.761524338167996"><ele>1252.0</ele><time>2026-03-24T13:58:09Z</time></trkpt><trkpt lat="45.86244258049264" lon="11.761572405245909"><ele>1252.0</ele><time>2026-03-24T13:58:10Z</time></trkpt><trkpt lat="45.86250841630086" lon="11.761679443482349"><ele>1252.0</ele><time>2026-03-24T13:58:11Z</time></trkpt><trkpt lat="45.86257092875515" lon="11.7618070324173"><ele>1252.0</ele><time>2026-03-24T13:58:12Z</time></trkpt><trkpt lat="45.86265313896785" lon="11.7619033542653"><ele>1252.0</ele><time>2026-03-24T13:58:13Z</time></trkpt><trkpt lat="45.862762909342436" lon="11.761979903087358"><ele>1252.0</ele><time>2026-03-24T13:58:14Z</time></trkpt><trkpt lat="45.86287367642532" lon="11.762040752286952"><ele>1255.0</ele><time>2026-03-24T13:58:15Z</time></trkpt><trkpt lat="45.86298486286451" lon="11.762093108349475"><ele>1258.0</ele><time>2026-03-24T13:58:16Z</time></trkpt><trkpt lat="45.863075987506235" lon="11.762147347837681"><ele>1261.0</ele><time>2026-03-24T13:58:17Z</time></trkpt><trkpt lat="45.86313585790938" lon="11.762235797460658"><ele>1264.0</ele><time>2026-03-24T13:58:18Z</time></trkpt><trkpt lat="45.863173993238796" lon="11.762371497885752"><ele>1267.0</ele><time>2026-03-24T13:58:19Z</time></trkpt><trkpt lat="45.863186317117204" lon="11.762536302868238"><ele>1265.75</ele><time>2026-03-24T13:58:20Z</time></trkpt><trkpt lat="45.86319578737727" lon="11.762711813221319"><ele>1264.5</ele><time>2026-03-24T13:58:21Z</time></trkpt><trkpt lat="45.86322567174246" lon="11.762896068631683"><ele>1263.25</ele><time>2026-03-24T13:58:22Z</time></trkpt><trkpt lat="45.86327897425896" lon="11.763079315998823"><ele>1262.0</ele><time>2026-03-24T13:58:23Z</time></trkpt><trkpt lat="45.863362223783746" lon="11.763259052651641"><ele>1262.0</ele><time>2026-03-24T13:58:24Z</time></trkpt><trkpt lat="45.86344665443525" lon="11.763401809526096"><ele>1262.0</ele><time>2026-03-24T13:58:25Z</time></trkpt><trkpt lat="45.863525723803605" lon="11.763495975252798"><ele>1262.0</ele><time>2026-03-24T13:58:26Z</time></trkpt><trkpt lat="45.86360390120314" lon="11.763532372049225"><ele>1262.0</ele><time>2026-03-24T13:58:27Z</time></trkpt><trkpt lat="45.86371946205959" lon="11.763497587640892"><ele>1262.0</ele><time>2026-03-24T13:58:28Z</time></trkpt><trkpt lat="45.8638310950379" lon="11.763485400576357"><ele>1264.75</ele><time>2026-03-24T13:58:29Z</time></trkpt><trkpt lat="45.86394944890128" lon="11.763493872754129"><ele>1267.5</ele><time>2026-03-24T13:58:29.999Z</time></trkpt><trkpt lat="45.86406096830819" lon="11.76353974891998"><ele>1270.25</ele><time>2026-03-24T13:58:30.999Z</time></trkpt><trkpt lat="45.86415012132387" lon="11.763627842149855"><ele>1273.0</ele><time>2026-03-24T13:58:31.999Z</time></trkpt><trkpt lat="45.86421254417096" lon="11.763755132369754"><ele>1273.0</ele><time>2026-03-24T13:58:32.999Z</time></trkpt><trkpt lat="45.86427649817673" lon="11.763904717708163"><ele>1273.0</ele><time>2026-03-24T13:58:33.999Z</time></trkpt><trkpt lat="45.8643470237399" lon="11.764056088889983"><ele>1273.0</ele><time>2026-03-24T13:58:34.999Z</time></trkpt><trkpt lat="45.86442278352615" lon="11.764174779518424"><ele>1273.0</ele><time>2026-03-24T13:58:35.999Z</time></trkpt><trkpt lat="45.86448960918561" lon="11.764273948832935"><ele>1275.2</ele><time>2026-03-24T13:58:36.999Z</time></trkpt><trkpt lat="45.864517151071745" lon="11.76436494584765"><ele>1277.4</ele><time>2026-03-24T13:58:37.999Z</time></trkpt><trkpt lat="45.86449804037596" lon="11.764475685819175"><ele>1279.6000000000001</ele><time>2026-03-24T13:58:38.999Z</time></trkpt><trkpt lat="45.86443817807779" lon="11.764584804679838"><ele>1281.8</ele><time>2026-03-24T13:58:39.999Z</time></trkpt><trkpt lat="45.864342098576984" lon="11.764656302111522"><ele>1284.0</ele><time>2026-03-24T13:58:40.999Z</time></trkpt><trkpt lat="45.86424644357731" lon="11.764698368388892"><ele>1284.0</ele><time>2026-03-24T13:58:41.999Z</time></trkpt><trkpt lat="45.86414249054253" lon="11.764717449956223"><ele>1284.0</ele><time>2026-03-24T13:58:42.999Z</time></trkpt><trkpt lat="45.86405534246698" lon="11.764651586764437"><ele>1284.0</ele><time>2026-03-24T13:58:43.999Z</time></trkpt><trkpt lat="45.86401960124354" lon="11.764565272461383"><ele>1284.0</ele><time>2026-03-24T13:58:44.999Z</time></trkpt><trkpt lat="45.86394616758848" lon="11.76451546937203"><ele>1284.0</ele><time>2026-03-24T13:58:45.999Z</time></trkpt><trkpt lat="45.86384310372654" lon="11.764494826843984"><ele>1284.0</ele><time>2026-03-24T13:58:46.999Z</time></trkpt><trkpt lat="45.86372151154785" lon="11.764512307490964"><ele>1284.0</ele><time>2026-03-24T13:58:47.999Z</time></trkpt><trkpt lat="45.863610059371645" lon="11.764558166826175"><ele>1284.0</ele><time>2026-03-24T13:58:48.999Z</time></trkpt><trkpt lat="45.86344775674066" lon="11.764655960374615"><ele>1284.0</ele><time>2026-03-24T13:58:49.999Z</time></trkpt><trkpt lat="45.86335112571338" lon="11.76473784203561"><ele>1285.8000000000002</ele><time>2026-03-24T13:58:50.999Z</time></trkpt><trkpt lat="45.863276896375844" lon="11.764829478966458"><ele>1287.6000000000001</ele><time>2026-03-24T13:58:51.999Z</time></trkpt><trkpt lat="45.8632055120529" lon="11.764913288126856"><ele>1289.4</ele><time>2026-03-24T13:58:52.999Z</time></trkpt><trkpt lat="45.86312361083582" lon="11.764949154723578"><ele>1291.2</ele><time>2026-03-24T13:58:53.999Z</time></trkpt><trkpt lat="45.86303551261622" lon="11.764921857632583"><ele>1293.0</ele><time>2026-03-24T13:58:54.999Z</time></trkpt><trkpt lat="45.86296783719522" lon="11.764820728511555"><ele>1293.0</ele><time>2026-03-24T13:58:55.999Z</time></trkpt><trkpt lat="45.86293677379955" lon="11.764676483547623"><ele>1293.0</ele><time>2026-03-24T13:58:56.999Z</time></trkpt><trkpt lat="45.86289270729427" lon="11.764560020985376"><ele>1293.0</ele><time>2026-03-24T13:58:57.999Z</time></trkpt><trkpt lat="45.862828927312336" lon="11.764477750677157"><ele>1293.0</ele><time>2026-03-24T13:58:58.999Z</time></trkpt><trkpt lat="45.862746698033014" lon="11.76444016777401"><ele>1293.0</ele><time>2026-03-24T13:58:59.999Z</time></trkpt><trkpt lat="45.86265097474746" lon="11.764462297621678"><ele>1293.25</ele><time>2026-03-24T13:59:00.999Z</time></trkpt><trkpt lat="45.862560864343955" lon="11.764539888099725"><ele>1293.5</ele><time>2026-03-24T13:59:01.999Z</time></trkpt><trkpt lat="45.862473490309206" lon="11.764630362196929"><ele>1293.75</ele><time>2026-03-24T13:59:02.999Z</time></trkpt><trkpt lat="45.86238269047993" lon="11.764738293740816"><ele>1294.0</ele><time>2026-03-24T13:59:03.999Z</time></trkpt><trkpt lat="45.86229096407251" lon="11.764854744771586"><ele>1294.0</ele><time>2026-03-24T13:59:04.999Z</time></trkpt><trkpt lat="45.862188811726895" lon="11.764981839321516"><ele>1294.0</ele><time>2026-03-24T13:59:05.999Z</time></trkpt><trkpt lat="45.862074478715705" lon="11.765102825115088"><ele>1294.0</ele><time>2026-03-24T13:59:06.999Z</time></trkpt><trkpt lat="45.86195517100628" lon="11.76522677360875"><ele>1294.0</ele><time>2026-03-24T13:59:07.999Z</time></trkpt><trkpt lat="45.86186167566979" lon="11.765331649203066"><ele>1295.2</ele><time>2026-03-24T13:59:08.999Z</time></trkpt><trkpt lat="45.86179011581173" lon="11.765431921889407"><ele>1296.4</ele><time>2026-03-24T13:59:09.999Z</time></trkpt><trkpt lat="45.861735613633876" lon="11.765559323798808"><ele>1297.6</ele><time>2026-03-24T13:59:10.999Z</time></trkpt><trkpt lat="45.861694652814215" lon="11.7657115525693"><ele>1298.8</ele><time>2026-03-24T13:59:11.999Z</time></trkpt><trkpt lat="45.861650513998626" lon="11.76587388167961"><ele>1300.0</ele><time>2026-03-24T13:59:12.999Z</time></trkpt><trkpt lat="45.86161193210687" lon="11.766027696733198"><ele>1302.75</ele><time>2026-03-24T13:59:13.999Z</time></trkpt><trkpt lat="45.861559538285086" lon="11.76618966423473"><ele>1305.5</ele><time>2026-03-24T13:59:14.999Z</time></trkpt><trkpt lat="45.8614862625213" lon="11.766349393932646"><ele>1308.25</ele><time>2026-03-24T13:59:15.999Z</time></trkpt><trkpt lat="45.86141731273932" lon="11.766490487176709"><ele>1311.0</ele><time>2026-03-24T13:59:16.999Z</time></trkpt><trkpt lat="45.86136395999104" lon="11.76660691855046"><ele>1311.0</ele><time>2026-03-24T13:59:17.999Z</time></trkpt><trkpt lat="45.861327944191466" lon="11.766749654273708"><ele>1311.0</ele><time>2026-03-24T13:59:18.999Z</time></trkpt><trkpt lat="45.86132388956376" lon="11.76691591643346"><ele>1311.0</ele><time>2026-03-24T13:59:19.999Z</time></trkpt><trkpt lat="45.86135936678422" lon="11.76705945677625"><ele>1311.0</ele><time>2026-03-24T13:59:20.999Z</time></trkpt><trkpt lat="45.86141997985421" lon="11.767169825055344"><ele>1311.0</ele><time>2026-03-24T13:59:21.999Z</time></trkpt><trkpt lat="45.86151565002744" lon="11.767229010342465"><ele>1310.0</ele><time>2026-03-24T13:59:22.999Z</time></trkpt><trkpt lat="45.861619533596205" lon="11.767275066194008"><ele>1309.0</ele><time>2026-03-24T13:59:23.999Z</time></trkpt><trkpt lat="45.86173121190689" lon="11.767324741130384"><ele>1308.0</ele><time>2026-03-24T13:59:24.999Z</time></trkpt><trkpt lat="45.86184679053143" lon="11.767363801243905"><ele>1307.0</ele><time>2026-03-24T13:59:25.999Z</time></trkpt><trkpt lat="45.86196026627715" lon="11.767389209234334"><ele>1311.8</ele><time>2026-03-24T13:59:26.999Z</time></trkpt><trkpt lat="45.862054693843355" lon="11.767413502781606"><ele>1316.6</ele><time>2026-03-24T13:59:27.999Z</time></trkpt><trkpt lat="45.86213191256325" lon="11.767453300366585"><ele>1321.3999999999999</ele><time>2026-03-24T13:59:28.999Z</time></trkpt><trkpt lat="45.86219422683967" lon="11.767631115079483"><ele>1326.1999999999998</ele><time>2026-03-24T13:59:30.999Z</time></trkpt><trkpt lat="45.86218541202362" lon="11.767767115316506"><ele>1331.0</ele><time>2026-03-24T13:59:31.999Z</time></trkpt><trkpt lat="45.86215059693815" lon="11.767903937156397"><ele>1331.0</ele><time>2026-03-24T13:59:32.999Z</time></trkpt><trkpt lat="45.86213427426239" lon="11.768041660795696"><ele>1331.0</ele><time>2026-03-24T13:59:33.998Z</time></trkpt><trkpt lat="45.862155039205774" lon="11.768186502430884"><ele>1331.0</ele><time>2026-03-24T13:59:34.998Z</time></trkpt><trkpt lat="45.86221728401638" lon="11.768307312840294"><ele>1331.0</ele><time>2026-03-24T13:59:35.998Z</time></trkpt><trkpt lat="45.86230378223023" lon="11.768401390477734"><ele>1331.0</ele><time>2026-03-24T13:59:36.998Z</time></trkpt><trkpt lat="45.86238186114721" lon="11.768478753488157"><ele>1332.8333333333335</ele><time>2026-03-24T13:59:37.998Z</time></trkpt><trkpt lat="45.86242521593552" lon="11.768574163701784"><ele>1334.6666666666667</ele><time>2026-03-24T13:59:38.998Z</time></trkpt><trkpt lat="45.86241474927717" lon="11.768665658628809"><ele>1336.5</ele><time>2026-03-24T13:59:39.998Z</time></trkpt><trkpt lat="45.862357688550134" lon="11.768765307786014"><ele>1338.3333333333333</ele><time>2026-03-24T13:59:40.998Z</time></trkpt><trkpt lat="45.862268043677936" lon="11.768835713221108"><ele>1340.1666666666665</ele><time>2026-03-24T13:59:41.998Z</time></trkpt><trkpt lat="45.862173543362076" lon="11.768898008372545"><ele>1342.0</ele><time>2026-03-24T13:59:42.998Z</time></trkpt><trkpt lat="45.862084592271465" lon="11.768976148733314"><ele>1342.0</ele><time>2026-03-24T13:59:43.998Z</time></trkpt><trkpt lat="45.86200530664095" lon="11.769070116874051"><ele>1342.0</ele><time>2026-03-24T13:59:45Z</time></trkpt><trkpt lat="45.8619529515059" lon="11.769180642301308"><ele>1342.0</ele><time>2026-03-24T13:59:46Z</time></trkpt><trkpt lat="45.8619324933788" lon="11.769304945870461"><ele>1342.0</ele><time>2026-03-24T13:59:47Z</time></trkpt><trkpt lat="45.86195515720072" lon="11.769444940366924"><ele>1342.0</ele><time>2026-03-24T13:59:48Z</time></trkpt><trkpt lat="45.862004481561925" lon="11.769598187287048"><ele>1344.3999999999999</ele><time>2026-03-24T13:59:49Z</time></trkpt><trkpt lat="45.86204953095548" lon="11.769754834993943"><ele>1346.8</ele><time>2026-03-24T13:59:50Z</time></trkpt><trkpt lat="45.86209948679788" lon="11.769907764712547"><ele>1349.2</ele><time>2026-03-24T13:59:51Z</time></trkpt><trkpt lat="45.862116366732906" lon="11.770028225602221"><ele>1351.6</ele><time>2026-03-24T13:59:52Z</time></trkpt><trkpt lat="45.86210333669397" lon="11.770137575424926"><ele>1354.0</ele><time>2026-03-24T13:59:53Z</time></trkpt><trkpt lat="45.86206628413272" lon="11.770232215267754"><ele>1356.2</ele><time>2026-03-24T13:59:54Z</time></trkpt><trkpt lat="45.86199455250223" lon="11.770324776073824"><ele>1358.4</ele><time>2026-03-24T13:59:55Z</time></trkpt><trkpt lat="45.861913993765" lon="11.770412269425368"><ele>1360.6</ele><time>2026-03-24T13:59:56Z</time></trkpt><trkpt lat="45.86184469174139" lon="11.77053789532271"><ele>1362.8</ele><time>2026-03-24T13:59:57Z</time></trkpt><trkpt lat="45.86178959084033" lon="11.770696848345302"><ele>1365.0</ele><time>2026-03-24T13:59:58Z</time></trkpt><trkpt lat="45.861734977520875" lon="11.770855602186563"><ele>1359.25</ele><time>2026-03-24T13:59:59Z</time></trkpt><trkpt lat="45.86168886355624" lon="11.771048704232156"><ele>1353.5</ele><time>2026-03-24T14:00:00Z</time></trkpt><trkpt lat="45.86166267227422" lon="11.771232896078699"><ele>1347.75</ele><time>2026-03-24T14:00:01Z</time></trkpt><trkpt lat="45.861662613424606" lon="11.771410532370606"><ele>1342.0</ele><time>2026-03-24T14:00:02Z</time></trkpt><trkpt lat="45.86167983992769" lon="11.771588914721994"><ele>1342.0</ele><time>2026-03-24T14:00:03Z</time></trkpt><trkpt lat="45.861671582019405" lon="11.771761754033928"><ele>1342.0</ele><time>2026-03-24T14:00:04Z</time></trkpt><trkpt lat="45.8616332920821" lon="11.771909710886385"><ele>1342.0</ele><time>2026-03-24T14:00:05Z</time></trkpt><trkpt lat="45.86156743547387" lon="11.77202238581959"><ele>1342.0</ele><time>2026-03-24T14:00:06Z</time></trkpt><trkpt lat="45.86152924188981" lon="11.772121215923413"><ele>1342.0</ele><time>2026-03-24T14:00:07Z</time></trkpt><trkpt lat="45.861519093597444" lon="11.772244059300176"><ele>1343.3999999999999</ele><time>2026-03-24T14:00:08Z</time></trkpt><trkpt lat="45.861521354580795" lon="11.772383603449553"><ele>1344.8</ele><time>2026-03-24T14:00:09Z</time></trkpt><trkpt lat="45.86154349206977" lon="11.77253060350057"><ele>1346.2</ele><time>2026-03-24T14:00:10Z</time></trkpt><trkpt lat="45.861576230842125" lon="11.77267746609763"><ele>1347.6</ele><time>2026-03-24T14:00:11Z</time></trkpt><trkpt lat="45.8616026944485" lon="11.772828321349598"><ele>1349.0</ele><time>2026-03-24T14:00:12Z</time></trkpt><trkpt lat="45.86163439991477" lon="11.772983708544139"><ele>1349.75</ele><time>2026-03-24T14:00:13Z</time></trkpt><trkpt lat="45.86167647745048" lon="11.773138538891535"><ele>1350.5</ele><time>2026-03-24T14:00:14Z</time></trkpt><trkpt lat="45.86172886426026" lon="11.773298007107387"><ele>1351.25</ele><time>2026-03-24T14:00:15Z</time></trkpt><trkpt lat="45.86178473689691" lon="11.773469080054127"><ele>1352.0</ele><time>2026-03-24T14:00:16Z</time></trkpt><trkpt lat="45.861830508567664" lon="11.773654265231851"><ele>1362.75</ele><time>2026-03-24T14:00:17Z</time></trkpt><trkpt lat="45.86186411656504" lon="11.773841149494293"><ele>1373.5</ele><time>2026-03-24T14:00:18Z</time></trkpt><trkpt lat="45.86186714470093" lon="11.774037490952887"><ele>1384.25</ele><time>2026-03-24T14:00:19Z</time></trkpt><trkpt lat="45.86183772406201" lon="11.774249637366472"><ele>1395.0</ele><time>2026-03-24T14:00:20Z</time></trkpt><trkpt lat="45.861790550015336" lon="11.774465756332113"><ele>1395.0</ele><time>2026-03-24T14:00:21Z</time></trkpt><trkpt lat="45.86177318163637" lon="11.774641784782679"><ele>1395.0</ele><time>2026-03-24T14:00:22Z</time></trkpt><trkpt lat="45.861764692806524" lon="11.774793392973914"><ele>1395.0</ele><time>2026-03-24T14:00:23Z</time></trkpt><trkpt lat="45.861771768694226" lon="11.7749381827756"><ele>1395.0</ele><time>2026-03-24T14:00:24Z</time></trkpt><trkpt lat="45.861801241256416" lon="11.775088020561263"><ele>1395.0</ele><time>2026-03-24T14:00:25Z</time></trkpt><trkpt lat="45.86184504820919" lon="11.775249078442616"><ele>1392.0</ele><time>2026-03-24T14:00:26Z</time></trkpt><trkpt lat="45.86189078178682" lon="11.775413653073533"><ele>1389.0</ele><time>2026-03-24T14:00:27Z</time></trkpt><trkpt lat="45.86193878308656" lon="11.775584614923952"><ele>1386.0</ele><time>2026-03-24T14:00:28Z</time></trkpt><trkpt lat="45.86199096238111" lon="11.775751447657997"><ele>1383.0</ele><time>2026-03-24T14:00:29Z</time></trkpt><trkpt lat="45.86204681594212" lon="11.775882497452782"><ele>1383.0</ele><time>2026-03-24T14:00:30Z</time></trkpt><trkpt lat="45.86210473953936" lon="11.775997500738626"><ele>1383.0</ele><time>2026-03-24T14:00:30.999Z</time></trkpt><trkpt lat="45.86217658840524" lon="11.776110522732374"><ele>1383.0</ele><time>2026-03-24T14:00:31.999Z</time></trkpt><trkpt lat="45.86227030004592" lon="11.776222895067425"><ele>1383.0</ele><time>2026-03-24T14:00:32.999Z</time></trkpt><trkpt lat="45.862376187523274" lon="11.776343042239345"><ele>1382.25</ele><time>2026-03-24T14:00:33.999Z</time></trkpt><trkpt lat="45.86249100393334" lon="11.77648083634334"><ele>1381.5</ele><time>2026-03-24T14:00:34.999Z</time></trkpt><trkpt lat="45.86260705920788" lon="11.776626955222566"><ele>1380.75</ele><time>2026-03-24T14:00:35.999Z</time></trkpt><trkpt lat="45.86270642840043" lon="11.77675432949579"><ele>1380.0</ele><time>2026-03-24T14:00:36.999Z</time></trkpt><trkpt lat="45.862787597287124" lon="11.77685781211253"><ele>1380.0</ele><time>2026-03-24T14:00:37.999Z</time></trkpt><trkpt lat="45.862851619278956" lon="11.776944680509734"><ele>1380.0</ele><time>2026-03-24T14:00:38.999Z</time></trkpt><trkpt lat="45.86292770564738" lon="11.777027892253681"><ele>1380.0</ele><time>2026-03-24T14:00:39.999Z</time></trkpt><trkpt lat="45.863015802379735" lon="11.777099504263015"><ele>1380.0</ele><time>2026-03-24T14:00:40.999Z</time></trkpt><trkpt lat="45.86311969452123" lon="11.777145241199904"><ele>1380.0</ele><time>2026-03-24T14:00:41.999Z</time></trkpt><trkpt lat="45.86322644957169" lon="11.777173981353227"><ele>1380.0</ele><time>2026-03-24T14:00:42.999Z</time></trkpt><trkpt lat="45.863341554273106" lon="11.777212434472686"><ele>1380.0</ele><time>2026-03-24T14:00:43.999Z</time></trkpt><trkpt lat="45.86342315920098" lon="11.777300747009091"><ele>1380.0</ele><time>2026-03-24T14:00:44.999Z</time></trkpt><trkpt lat="45.863467371679164" lon="11.777401045652866"><ele>1380.0</ele><time>2026-03-24T14:00:45.999Z</time></trkpt><trkpt lat="45.863502230924425" lon="11.777522971344428"><ele>1380.0</ele><time>2026-03-24T14:00:46.999Z</time></trkpt><trkpt lat="45.863558185351" lon="11.777637346564006"><ele>1380.6</ele><time>2026-03-24T14:00:47.999Z</time></trkpt><trkpt lat="45.86363043747402" lon="11.777727932578706"><ele>1381.2</ele><time>2026-03-24T14:00:48.999Z</time></trkpt><trkpt lat="45.86372265000276" lon="11.777793342600432"><ele>1381.8000000000002</ele><time>2026-03-24T14:00:49.999Z</time></trkpt><trkpt lat="45.863822279501534" lon="11.777821704739003"><ele>1382.4</ele><time>2026-03-24T14:00:50.999Z</time></trkpt><trkpt lat="45.86392828699641" lon="11.77781020228333"><ele>1383.0</ele><time>2026-03-24T14:00:51.999Z</time></trkpt><trkpt lat="45.86403556856976" lon="11.777765480954399"><ele>1383.0</ele><time>2026-03-24T14:00:52.999Z</time></trkpt><trkpt lat="45.86414887635013" lon="11.777702768540768"><ele>1383.0</ele><time>2026-03-24T14:00:53.999Z</time></trkpt><trkpt lat="45.86426567990459" lon="11.777622938367365"><ele>1383.0</ele><time>2026-03-24T14:00:54.999Z</time></trkpt><trkpt lat="45.864373953698426" lon="11.777515107160237"><ele>1383.0</ele><time>2026-03-24T14:00:55.999Z</time></trkpt><trkpt lat="45.86447923622404" lon="11.777367846703141"><ele>1384.6666666666667</ele><time>2026-03-24T14:00:56.999Z</time></trkpt><trkpt lat="45.864582308307384" lon="11.77719861070735"><ele>1386.3333333333335</ele><time>2026-03-24T14:00:57.999Z</time></trkpt><trkpt lat="45.864684746252" lon="11.777033209509396"><ele>1388.0</ele><time>2026-03-24T14:00:58.999Z</time></trkpt><trkpt lat="45.86479938151614" lon="11.776867629331639"><ele>1391.6666666666667</ele><time>2026-03-24T14:00:59.999Z</time></trkpt><trkpt lat="45.864920043683455" lon="11.776685530165668"><ele>1395.3333333333333</ele><time>2026-03-24T14:01:00.999Z</time></trkpt><trkpt lat="45.865044300988245" lon="11.776507197943557"><ele>1399.0</ele><time>2026-03-24T14:01:01.999Z</time></trkpt><trkpt lat="45.865180878199794" lon="11.776333002437907"><ele>1399.3333333333333</ele><time>2026-03-24T14:01:02.999Z</time></trkpt><trkpt lat="45.86530636803087" lon="11.776189711290154"><ele>1399.6666666666667</ele><time>2026-03-24T14:01:03.999Z</time></trkpt><trkpt lat="45.86540017866055" lon="11.776033710053161"><ele>1400.0</ele><time>2026-03-24T14:01:04.999Z</time></trkpt><trkpt lat="45.86550475590578" lon="11.775883869068258"><ele>1401.0</ele><time>2026-03-24T14:01:05.999Z</time></trkpt><trkpt lat="45.86560525629285" lon="11.775707773637146"><ele>1402.0</ele><time>2026-03-24T14:01:06.999Z</time></trkpt><trkpt lat="45.865710261564175" lon="11.775517416730352"><ele>1403.0</ele><time>2026-03-24T14:01:07.999Z</time></trkpt><trkpt lat="45.86582627808113" lon="11.77532408612695"><ele>1407.3333333333335</ele><time>2026-03-24T14:01:08.999Z</time></trkpt><trkpt lat="45.8659420485581" lon="11.775122706720158"><ele>1411.6666666666667</ele><time>2026-03-24T14:01:09.999Z</time></trkpt><trkpt lat="45.866047885098865" lon="11.77493647161409"><ele>1416.0</ele><time>2026-03-24T14:01:10.999Z</time></trkpt><trkpt lat="45.86613265804516" lon="11.774777711701166"><ele>1416.4</ele><time>2026-03-24T14:01:11.999Z</time></trkpt><trkpt lat="45.86620115487448" lon="11.774633165141358"><ele>1416.8</ele><time>2026-03-24T14:01:12.999Z</time></trkpt><trkpt lat="45.86623320438611" lon="11.774498292189334"><ele>1417.2</ele><time>2026-03-24T14:01:13.999Z</time></trkpt><trkpt lat="45.86627217514085" lon="11.774369388029225"><ele>1417.6000000000001</ele><time>2026-03-24T14:01:14.999Z</time></trkpt><trkpt lat="45.86630591141835" lon="11.774233402575442"><ele>1418.0</ele><time>2026-03-24T14:01:15.999Z</time></trkpt><trkpt lat="45.86634639289562" lon="11.774094010477398"><ele>1420.4</ele><time>2026-03-24T14:01:16.999Z</time></trkpt><trkpt lat="45.866392940824056" lon="11.773985981849128"><ele>1422.8000000000002</ele><time>2026-03-24T14:01:17.999Z</time></trkpt><trkpt lat="45.866450928893855" lon="11.773944142798324"><ele>1425.2</ele><time>2026-03-24T14:01:18.999Z</time></trkpt><trkpt lat="45.866526889088455" lon="11.773956027970351"><ele>1427.6</ele><time>2026-03-24T14:01:19.999Z</time></trkpt><trkpt lat="45.866620828526344" lon="11.774012423629417"><ele>1430.0</ele><time>2026-03-24T14:01:20.999Z</time></trkpt><trkpt lat="45.86670400974568" lon="11.77414187406799"><ele>1438.3333333333335</ele><time>2026-03-24T14:01:21.999Z</time></trkpt><trkpt lat="45.86679006741689" lon="11.774296359566717"><ele>1446.6666666666667</ele><time>2026-03-24T14:01:22.999Z</time></trkpt><trkpt lat="45.86687912814751" lon="11.774481211606126"><ele>1455.0</ele><time>2026-03-24T14:01:23.999Z</time></trkpt><trkpt lat="45.86695734850839" lon="11.774687491453152"><ele>1455.0</ele><time>2026-03-24T14:01:24.999Z</time></trkpt><trkpt lat="45.867008722498085" lon="11.774922435086031"><ele>1455.0</ele><time>2026-03-24T14:01:25.999Z</time></trkpt><trkpt lat="45.867026126702335" lon="11.775187895243647"><ele>1455.0</ele><time>2026-03-24T14:01:26.999Z</time></trkpt><trkpt lat="45.86700203859032" lon="11.775532809736056"><ele>1455.6666666666667</ele><time>2026-03-24T14:01:27.999Z</time></trkpt><trkpt lat="45.86698550137089" lon="11.775844441206242"><ele>1456.3333333333335</ele><time>2026-03-24T14:01:28.999Z</time></trkpt><trkpt lat="45.866970940491534" lon="11.776128228145796"><ele>1457.0</ele><time>2026-03-24T14:01:29.999Z</time></trkpt><trkpt lat="45.866945106944485" lon="11.776368071761938"><ele>1458.3333333333335</ele><time>2026-03-24T14:01:30.999Z</time></trkpt><trkpt lat="45.86689831733869" lon="11.776579991499293"><ele>1459.6666666666667</ele><time>2026-03-24T14:01:31.999Z</time></trkpt><trkpt lat="45.86684336809103" lon="11.776780172170556"><ele>1461.0</ele><time>2026-03-24T14:01:32.999Z</time></trkpt><trkpt lat="45.86679726588798" lon="11.776989742112283"><ele>1453.6666666666667</ele><time>2026-03-24T14:01:33.998Z</time></trkpt><trkpt lat="45.86676767760458" lon="11.777207429740887"><ele>1446.3333333333335</ele><time>2026-03-24T14:01:34.998Z</time></trkpt><trkpt lat="45.866748941729504" lon="11.777428821460672"><ele>1439.0</ele><time>2026-03-24T14:01:35.998Z</time></trkpt><trkpt lat="45.866716941452935" lon="11.77763417651459"><ele>1440.75</ele><time>2026-03-24T14:01:36.998Z</time></trkpt><trkpt lat="45.86666858100563" lon="11.777813776014957"><ele>1442.5</ele><time>2026-03-24T14:01:37.998Z</time></trkpt><trkpt lat="45.866627100618445" lon="11.777963820723874"><ele>1444.25</ele><time>2026-03-24T14:01:38.998Z</time></trkpt><trkpt lat="45.86659241102133" lon="11.778107876079543"><ele>1446.0</ele><time>2026-03-24T14:01:39.998Z</time></trkpt><trkpt lat="45.86657964539668" lon="11.778289127609899"><ele>1446.0</ele><time>2026-03-24T14:01:40.998Z</time></trkpt><trkpt lat="45.8665769421969" lon="11.778498836697896"><ele>1446.0</ele><time>2026-03-24T14:01:41.998Z</time></trkpt><trkpt lat="45.86658009920777" lon="11.77872651362055"><ele>1446.0</ele><time>2026-03-24T14:01:42.998Z</time></trkpt><trkpt lat="45.86658160126441" lon="11.778969094493263"><ele>1448.0</ele><time>2026-03-24T14:01:43.998Z</time></trkpt><trkpt lat="45.866577984915935" lon="11.77919294318107"><ele>1450.0</ele><time>2026-03-24T14:01:44.998Z</time></trkpt><trkpt lat="45.86655680257284" lon="11.779380850399157"><ele>1452.0</ele><time>2026-03-24T14:01:45.998Z</time></trkpt><trkpt lat="45.86652294923042" lon="11.779533102836995"><ele>1454.0</ele><time>2026-03-24T14:01:46.998Z</time></trkpt><trkpt lat="45.86648845386586" lon="11.779673546984172"><ele>1456.25</ele><time>2026-03-24T14:01:47.998Z</time></trkpt><trkpt lat="45.86642504013135" lon="11.779810548387275"><ele>1458.5</ele><time>2026-03-24T14:01:48.998Z</time></trkpt><trkpt lat="45.86639763672237" lon="11.779953621520006"><ele>1460.75</ele><time>2026-03-24T14:01:49.998Z</time></trkpt><trkpt lat="45.866398958140365" lon="11.780114444237519"><ele>1463.0</ele><time>2026-03-24T14:01:51Z</time></trkpt><trkpt lat="45.86643284474313" lon="11.78029675552085"><ele>1463.5</ele><time>2026-03-24T14:01:52Z</time></trkpt><trkpt lat="45.86646261519013" lon="11.780498935982303"><ele>1464.0</ele><time>2026-03-24T14:01:53Z</time></trkpt><trkpt lat="45.86647823889038" lon="11.780715789393552"><ele>1464.5</ele><time>2026-03-24T14:01:54Z</time></trkpt><trkpt lat="45.86650956348971" lon="11.780924963764138"><ele>1465.0</ele><time>2026-03-24T14:01:55Z</time></trkpt><trkpt lat="45.86655520370005" lon="11.781091990176634"><ele>1465.0</ele><time>2026-03-24T14:01:56Z</time></trkpt><trkpt lat="45.86660893968632" lon="11.781226572060822"><ele>1465.0</ele><time>2026-03-24T14:01:57Z</time></trkpt><trkpt lat="45.86665144935042" lon="11.781352269926943"><ele>1465.0</ele><time>2026-03-24T14:01:58Z</time></trkpt><trkpt lat="45.86667980990572" lon="11.781488977189746"><ele>1465.0</ele><time>2026-03-24T14:01:59Z</time></trkpt><trkpt lat="45.86667367062375" lon="11.78163407630022"><ele>1465.0</ele><time>2026-03-24T14:02:00Z</time></trkpt><trkpt lat="45.86663698286776" lon="11.781777853526947"><ele>1464.0</ele><time>2026-03-24T14:02:01Z</time></trkpt><trkpt lat="45.86658963794477" lon="11.781906187287499"><ele>1463.0</ele><time>2026-03-24T14:02:02Z</time></trkpt><trkpt lat="45.86657269998123" lon="11.782039361573434"><ele>1462.0</ele><time>2026-03-24T14:02:03Z</time></trkpt><trkpt lat="45.866585136912136" lon="11.782171385688562"><ele>1461.0</ele><time>2026-03-24T14:02:04Z</time></trkpt><trkpt lat="45.86662061362274" lon="11.78229664391733"><ele>1460.0</ele><time>2026-03-24T14:02:05Z</time></trkpt><trkpt lat="45.866678665717494" lon="11.78240827926897"><ele>1460.0</ele><time>2026-03-24T14:02:06Z</time></trkpt><trkpt lat="45.8667472004248" lon="11.78251576721258"><ele>1460.0</ele><time>2026-03-24T14:02:07Z</time></trkpt><trkpt lat="45.86682875712142" lon="11.782617895347563"><ele>1460.0</ele><time>2026-03-24T14:02:08Z</time></trkpt><trkpt lat="45.86693734162237" lon="11.782702074565073"><ele>1460.0</ele><time>2026-03-24T14:02:09Z</time></trkpt><trkpt lat="45.867043468009" lon="11.782810068044927"><ele>1465.0</ele><time>2026-03-24T14:02:10Z</time></trkpt><trkpt lat="45.86716204767933" lon="11.782937799139486"><ele>1470.0</ele><time>2026-03-24T14:02:11Z</time></trkpt><trkpt lat="45.86727708588608" lon="11.783069893093288"><ele>1475.0</ele><time>2026-03-24T14:02:12Z</time></trkpt><trkpt lat="45.86740173124315" lon="11.783206663535184"><ele>1475.0</ele><time>2026-03-24T14:02:13Z</time></trkpt><trkpt lat="45.867527063004786" lon="11.78333474188046"><ele>1475.0</ele><time>2026-03-24T14:02:14Z</time></trkpt><trkpt lat="45.86762657244353" lon="11.783445274746848"><ele>1475.0</ele><time>2026-03-24T14:02:15Z</time></trkpt><trkpt lat="45.86771083839065" lon="11.783534568601226"><ele>1475.0</ele><time>2026-03-24T14:02:16Z</time></trkpt><trkpt lat="45.86778741809791" lon="11.783628281519452"><ele>1478.8333333333335</ele><time>2026-03-24T14:02:17Z</time></trkpt><trkpt lat="45.86784805406181" lon="11.783699010939536"><ele>1482.6666666666667</ele><time>2026-03-24T14:02:18Z</time></trkpt><trkpt lat="45.86788406595246" lon="11.783784349964185"><ele>1486.5</ele><time>2026-03-24T14:02:19Z</time></trkpt><trkpt lat="45.867888434562055" lon="11.783890349179408"><ele>1490.3333333333333</ele><time>2026-03-24T14:02:20Z</time></trkpt><trkpt lat="45.867854239796195" lon="11.784007957174198"><ele>1494.1666666666665</ele><time>2026-03-24T14:02:21Z</time></trkpt><trkpt lat="45.86777840288589" lon="11.784111594606632"><ele>1498.0</ele><time>2026-03-24T14:02:22Z</time></trkpt><trkpt lat="45.86768747515282" lon="11.784208423689812"><ele>1495.4</ele><time>2026-03-24T14:02:23Z</time></trkpt><trkpt lat="45.86760135645441" lon="11.78432069122056"><ele>1492.8000000000002</ele><time>2026-03-24T14:02:24Z</time></trkpt><trkpt lat="45.86754634720458" lon="11.784432626956125"><ele>1490.2</ele><time>2026-03-24T14:02:25Z</time></trkpt><trkpt lat="45.86753476426059" lon="11.784553032297277"><ele>1487.6</ele><time>2026-03-24T14:02:26Z</time></trkpt><trkpt lat="45.86754427136796" lon="11.784700903238473"><ele>1485.0</ele><time>2026-03-24T14:02:27Z</time></trkpt><trkpt lat="45.86757720282276" lon="11.78486649025134"><ele>1485.0</ele><time>2026-03-24T14:02:28Z</time></trkpt><trkpt lat="45.86758877718407" lon="11.785049589797593"><ele>1485.0</ele><time>2026-03-24T14:02:29Z</time></trkpt><trkpt lat="45.8675936212392" lon="11.785241705780042"><ele>1485.0</ele><time>2026-03-24T14:02:30Z</time></trkpt><trkpt lat="45.86758998912986" lon="11.785416677209849"><ele>1485.0</ele><time>2026-03-24T14:02:31Z</time></trkpt><trkpt lat="45.86757364794768" lon="11.78555992685498"><ele>1487.0</ele><time>2026-03-24T14:02:32Z</time></trkpt><trkpt lat="45.86753705607818" lon="11.785681761739683"><ele>1489.0</ele><time>2026-03-24T14:02:32.999Z</time></trkpt><trkpt lat="45.867466626488756" lon="11.785792292107347"><ele>1491.0</ele><time>2026-03-24T14:02:33.999Z</time></trkpt><trkpt lat="45.867381933405355" lon="11.785888178144251"><ele>1493.0</ele><time>2026-03-24T14:02:34.999Z</time></trkpt><trkpt lat="45.86731384056092" lon="11.785997774988072"><ele>1495.0</ele><time>2026-03-24T14:02:35.999Z</time></trkpt><trkpt lat="45.867261251637125" lon="11.786134594966521"><ele>1496.75</ele><time>2026-03-24T14:02:36.999Z</time></trkpt><trkpt lat="45.86722659457599" lon="11.786284793520785"><ele>1498.5</ele><time>2026-03-24T14:02:37.999Z</time></trkpt><trkpt lat="45.867208008603136" lon="11.786446399465609"><ele>1500.25</ele><time>2026-03-24T14:02:38.999Z</time></trkpt><trkpt lat="45.86723840997913" lon="11.78660190973327"><ele>1502.0</ele><time>2026-03-24T14:02:39.999Z</time></trkpt><trkpt lat="45.867273825516364" lon="11.786780393743232"><ele>1502.3999999999999</ele><time>2026-03-24T14:02:40.999Z</time></trkpt><trkpt lat="45.867319477158354" lon="11.786953660882244"><ele>1502.8</ele><time>2026-03-24T14:02:41.999Z</time></trkpt><trkpt lat="45.86736784869698" lon="11.787101682640065"><ele>1503.2</ele><time>2026-03-24T14:02:42.999Z</time></trkpt><trkpt lat="45.867433000473504" lon="11.787213020630304"><ele>1503.6</ele><time>2026-03-24T14:02:43.999Z</time></trkpt><trkpt lat="45.86752054861563" lon="11.787281358736838"><ele>1504.0</ele><time>2026-03-24T14:02:44.999Z</time></trkpt><trkpt lat="45.867632751581795" lon="11.787310228421523"><ele>1504.0</ele><time>2026-03-24T14:02:45.999Z</time></trkpt><trkpt lat="45.867757024270475" lon="11.787326721710297"><ele>1504.0</ele><time>2026-03-24T14:02:46.999Z</time></trkpt><trkpt lat="45.86788543218041" lon="11.787339963747323"><ele>1504.0</ele><time>2026-03-24T14:02:47.999Z</time></trkpt><trkpt lat="45.86801892746391" lon="11.787358055587173"><ele>1504.0</ele><time>2026-03-24T14:02:48.999Z</time></trkpt><trkpt lat="45.868167761497745" lon="11.787363189652664"><ele>1504.0</ele><time>2026-03-24T14:02:49.999Z</time></trkpt><trkpt lat="45.86832185359829" lon="11.787369053288897"><ele>1504.0</ele><time>2026-03-24T14:02:50.999Z</time></trkpt><trkpt lat="45.86845622153357" lon="11.787388427581764"><ele>1504.0</ele><time>2026-03-24T14:02:51.999Z</time></trkpt><trkpt lat="45.86855958768739" lon="11.787429095890259"><ele>1504.0</ele><time>2026-03-24T14:02:52.999Z</time></trkpt><trkpt lat="45.868652601779345" lon="11.787521073924085"><ele>1509.25</ele><time>2026-03-24T14:02:53.999Z</time></trkpt><trkpt lat="45.86874221870535" lon="11.78766246807979"><ele>1514.5</ele><time>2026-03-24T14:02:54.999Z</time></trkpt><trkpt lat="45.86883240054845" lon="11.787822988818842"><ele>1519.75</ele><time>2026-03-24T14:02:55.999Z</time></trkpt><trkpt lat="45.86893296622319" lon="11.787969938639574"><ele>1525.0</ele><time>2026-03-24T14:02:56.999Z</time></trkpt><trkpt lat="45.869011054828555" lon="11.788079001075314"><ele>1525.0</ele><time>2026-03-24T14:02:57.999Z</time></trkpt><trkpt lat="45.86907560214382" lon="11.788167876373013"><ele>1525.0</ele><time>2026-03-24T14:02:58.999Z</time></trkpt><trkpt lat="45.86912005536867" lon="11.788255600985584"><ele>1525.0</ele><time>2026-03-24T14:02:59.999Z</time></trkpt><trkpt lat="45.86914668207273" lon="11.78836316976436"><ele>1525.0</ele><time>2026-03-24T14:03:00.999Z</time></trkpt><trkpt lat="45.86913403054928" lon="11.788498679651584"><ele>1525.0</ele><time>2026-03-24T14:03:01.999Z</time></trkpt><trkpt lat="45.86909181840335" lon="11.788630042259111"><ele>1525.0</ele><time>2026-03-24T14:03:02.999Z</time></trkpt><trkpt lat="45.868996644483445" lon="11.788723814630492"><ele>1526.6</ele><time>2026-03-24T14:03:03.999Z</time></trkpt><trkpt lat="45.86887936087163" lon="11.788754995055632"><ele>1528.2</ele><time>2026-03-24T14:03:04.999Z</time></trkpt><trkpt lat="45.868756417330616" lon="11.788742774624442"><ele>1529.8000000000002</ele><time>2026-03-24T14:03:05.999Z</time></trkpt><trkpt lat="45.8686455753384" lon="11.788713800121533"><ele>1531.4</ele><time>2026-03-24T14:03:06.999Z</time></trkpt><trkpt lat="45.86856475185691" lon="11.788724610273125"><ele>1533.0</ele><time>2026-03-24T14:03:07.999Z</time></trkpt><trkpt lat="45.86850706445894" lon="11.788772507249972"><ele>1533.0</ele><time>2026-03-24T14:03:08.999Z</time></trkpt><trkpt lat="45.86847075439004" lon="11.788938787076729"><ele>1533.0</ele><time>2026-03-24T14:03:10.999Z</time></trkpt><trkpt lat="45.868512746073655" lon="11.789007035528833"><ele>1533.0</ele><time>2026-03-24T14:03:11.999Z</time></trkpt><trkpt lat="45.868574089845616" lon="11.789051560670504"><ele>1533.0</ele><time>2026-03-24T14:03:12.999Z</time></trkpt><trkpt lat="45.86864388738909" lon="11.789054497617037"><ele>1533.0</ele><time>2026-03-24T14:03:13.999Z</time></trkpt><trkpt lat="45.868709424005914" lon="11.789018289152203"><ele>1533.0</ele><time>2026-03-24T14:03:14.999Z</time></trkpt><trkpt lat="45.86877459550707" lon="11.78896792883845"><ele>1533.0</ele><time>2026-03-24T14:03:15.999Z</time></trkpt><trkpt lat="45.86884317112862" lon="11.78893557686703"><ele>1533.0</ele><time>2026-03-24T14:03:16.999Z</time></trkpt><trkpt lat="45.868926714725625" lon="11.788923635549546"><ele>1533.0</ele><time>2026-03-24T14:03:17.999Z</time></trkpt><trkpt lat="45.86901870763162" lon="11.788934781502348"><ele>1533.0</ele><time>2026-03-24T14:03:18.999Z</time></trkpt><trkpt lat="45.869120501526545" lon="11.78895306036329"><ele>1533.0</ele><time>2026-03-24T14:03:19.999Z</time></trkpt><trkpt lat="45.86921525141397" lon="11.788930517420658"><ele>1533.0</ele><time>2026-03-24T14:03:20.999Z</time></trkpt><trkpt lat="45.86929913530584" lon="11.788867065280899"><ele>1541.75</ele><time>2026-03-24T14:03:21.999Z</time></trkpt><trkpt lat="45.86934671794828" lon="11.788757164919495"><ele>1550.5</ele><time>2026-03-24T14:03:22.999Z</time></trkpt><trkpt lat="45.86936798160937" lon="11.78860874900772"><ele>1559.25</ele><time>2026-03-24T14:03:23.999Z</time></trkpt><trkpt lat="45.869374582905635" lon="11.788433326607969"><ele>1568.0</ele><time>2026-03-24T14:03:24.999Z</time></trkpt><trkpt lat="45.869374790717224" lon="11.788237727745765"><ele>1568.0</ele><time>2026-03-24T14:03:25.999Z</time></trkpt><trkpt lat="45.8693885235561" lon="11.788025947003744"><ele>1568.0</ele><time>2026-03-24T14:03:26.999Z</time></trkpt><trkpt lat="45.869402962175535" lon="11.787805960994685"><ele>1568.0</ele><time>2026-03-24T14:03:27.999Z</time></trkpt><trkpt lat="45.86942644562834" lon="11.787630841433403"><ele>1568.0</ele><time>2026-03-24T14:03:28.999Z</time></trkpt><trkpt lat="45.86946708232404" lon="11.787498836924705"><ele>1566.8000000000002</ele><time>2026-03-24T14:03:29.999Z</time></trkpt><trkpt lat="45.86952126274884" lon="11.787400636835626"><ele>1565.6</ele><time>2026-03-24T14:03:30.999Z</time></trkpt><trkpt lat="45.86957143827415" lon="11.787332141291413"><ele>1564.4</ele><time>2026-03-24T14:03:31.999Z</time></trkpt><trkpt lat="45.86957453992131" lon="11.787221400233841"><ele>1563.1999999999998</ele><time>2026-03-24T14:03:32.999Z</time></trkpt><trkpt lat="45.86953762591553" lon="11.787079559500008"><ele>1562.0</ele><time>2026-03-24T14:03:33.999Z</time></trkpt><trkpt lat="45.869488203303774" lon="11.786923015442607"><ele>1561.5</ele><time>2026-03-24T14:03:34.999Z</time></trkpt><trkpt lat="45.86945490329922" lon="11.786747392267634"><ele>1561.0</ele><time>2026-03-24T14:03:35.999Z</time></trkpt><trkpt lat="45.86943719275955" lon="11.786553659065941"><ele>1560.5</ele><time>2026-03-24T14:03:36.999Z</time></trkpt><trkpt lat="45.86941131469207" lon="11.786359271347429"><ele>1560.0</ele><time>2026-03-24T14:03:37.998Z</time></trkpt><trkpt lat="45.86936493570848" lon="11.786204252623008"><ele>1560.0</ele><time>2026-03-24T14:03:38.998Z</time></trkpt><trkpt lat="45.869327606337016" lon="11.786064664675633"><ele>1560.0</ele><time>2026-03-24T14:03:39.998Z</time></trkpt><trkpt lat="45.86930428085444" lon="11.785923148356837"><ele>1560.0</ele><time>2026-03-24T14:03:40.998Z</time></trkpt><trkpt lat="45.86930382081007" lon="11.785779874950576"><ele>1560.0</ele><time>2026-03-24T14:03:41.998Z</time></trkpt><trkpt lat="45.86932924007992" lon="11.785646553428313"><ele>1560.0</ele><time>2026-03-24T14:03:42.998Z</time></trkpt><trkpt lat="45.86938088297537" lon="11.78552423385315"><ele>1558.6</ele><time>2026-03-24T14:03:43.998Z</time></trkpt><trkpt lat="45.86945387275059" lon="11.785424163008901"><ele>1557.2</ele><time>2026-03-24T14:03:44.998Z</time></trkpt><trkpt lat="45.86953435201017" lon="11.785349338019133"><ele>1555.8000000000002</ele><time>2026-03-24T14:03:45.998Z</time></trkpt><trkpt lat="45.86962196714738" lon="11.785318486398877"><ele>1554.4</ele><time>2026-03-24T14:03:46.998Z</time></trkpt><trkpt lat="45.86970946189912" lon="11.785318976770204"><ele>1553.0</ele><time>2026-03-24T14:03:47.998Z</time></trkpt><trkpt lat="45.86979737665406" lon="11.785342244634672"><ele>1553.0</ele><time>2026-03-24T14:03:48.998Z</time></trkpt><trkpt lat="45.86989179797063" lon="11.78536906468838"><ele>1553.0</ele><time>2026-03-24T14:03:49.998Z</time></trkpt><trkpt lat="45.869994361168295" lon="11.785388826597522"><ele>1553.0</ele><time>2026-03-24T14:03:50.998Z</time></trkpt><trkpt lat="45.87010614057774" lon="11.785409036073327"><ele>1553.0</ele><time>2026-03-24T14:03:51.998Z</time></trkpt><trkpt lat="45.870227018941996" lon="11.785425003557492"><ele>1553.0</ele><time>2026-03-24T14:03:52.998Z</time></trkpt><trkpt lat="45.87035042383704" lon="11.785435116418853"><ele>1555.75</ele><time>2026-03-24T14:03:53.998Z</time></trkpt><trkpt lat="45.87048697131294" lon="11.785437889542576"><ele>1558.5</ele><time>2026-03-24T14:03:54.998Z</time></trkpt><trkpt lat="45.87063123184226" lon="11.785429317616565"><ele>1561.25</ele><time>2026-03-24T14:03:55.998Z</time></trkpt><trkpt lat="45.8707814119995" lon="11.785416457017481"><ele>1564.0</ele><time>2026-03-24T14:03:57Z</time></trkpt><trkpt lat="45.870932255081485" lon="11.785411707326801"><ele>1565.0</ele><time>2026-03-24T14:03:58Z</time></trkpt><trkpt lat="45.87104071397998" lon="11.785401382624931"><ele>1566.0</ele><time>2026-03-24T14:03:59Z</time></trkpt><trkpt lat="45.87114151591948" lon="11.785393273923855"><ele>1567.0</ele><time>2026-03-24T14:04:00Z</time></trkpt><trkpt lat="45.871285793536615" lon="11.785389496743289"><ele>1568.0</ele><time>2026-03-24T14:04:01Z</time></trkpt><trkpt lat="45.87140831440995" lon="11.785404487482817"><ele>1568.0</ele><time>2026-03-24T14:04:02Z</time></trkpt><trkpt lat="45.87154390034147" lon="11.785440404157676"><ele>1568.0</ele><time>2026-03-24T14:04:03Z</time></trkpt><trkpt lat="45.871687341426004" lon="11.78548726725185"><ele>1568.0</ele><time>2026-03-24T14:04:04Z</time></trkpt><trkpt lat="45.871836599713525" lon="11.785551259363636"><ele>1568.0</ele><time>2026-03-24T14:04:05Z</time></trkpt><trkpt lat="45.87194864761726" lon="11.785619653656214"><ele>1566.5</ele><time>2026-03-24T14:04:06Z</time></trkpt><trkpt lat="45.87202955657288" lon="11.785712203987316"><ele>1565.0</ele><time>2026-03-24T14:04:07Z</time></trkpt><trkpt lat="45.87212347019965" lon="11.785834786607793"><ele>1563.5</ele><time>2026-03-24T14:04:08Z</time></trkpt><trkpt lat="45.872201088038715" lon="11.785976577721867"><ele>1562.0</ele><time>2026-03-24T14:04:09Z</time></trkpt><trkpt lat="45.87228575541092" lon="11.786136626753176"><ele>1562.0</ele><time>2026-03-24T14:04:10Z</time></trkpt><trkpt lat="45.8723632498325" lon="11.786323232111732"><ele>1562.0</ele><time>2026-03-24T14:04:11Z</time></trkpt><trkpt lat="45.872434346444315" lon="11.786531595212464"><ele>1562.0</ele><time>2026-03-24T14:04:12Z</time></trkpt><trkpt lat="45.872494610777935" lon="11.786755277552885"><ele>1567.0</ele><time>2026-03-24T14:04:13Z</time></trkpt><trkpt lat="45.872540378135604" lon="11.786989373071862"><ele>1572.0</ele><time>2026-03-24T14:04:14Z</time></trkpt><trkpt lat="45.872581393442104" lon="11.787223759760247"><ele>1577.0</ele><time>2026-03-24T14:04:15Z</time></trkpt><trkpt lat="45.87260982097857" lon="11.787424341136472"><ele>1568.25</ele><time>2026-03-24T14:04:16Z</time></trkpt><trkpt lat="45.87262922971719" lon="11.787597249418845"><ele>1559.5</ele><time>2026-03-24T14:04:17Z</time></trkpt><trkpt lat="45.872634354153824" lon="11.787762700948099"><ele>1550.75</ele><time>2026-03-24T14:04:18Z</time></trkpt><trkpt lat="45.8726500478842" lon="11.787928151653174"><ele>1542.0</ele><time>2026-03-24T14:04:19Z</time></trkpt><trkpt lat="45.87267765876281" lon="11.788085023600432"><ele>1542.0</ele><time>2026-03-24T14:04:20Z</time></trkpt><trkpt lat="45.872742404400164" lon="11.788239812080356"><ele>1542.0</ele><time>2026-03-24T14:04:21Z</time></trkpt><trkpt lat="45.872769881023935" lon="11.788396014825961"><ele>1542.0</ele><time>2026-03-24T14:04:22Z</time></trkpt><trkpt lat="45.872789890484306" lon="11.788562573414032"><ele>1542.0</ele><time>2026-03-24T14:04:23Z</time></trkpt><trkpt lat="45.872776725323305" lon="11.788741510573873"><ele>1543.25</ele><time>2026-03-24T14:04:24Z</time></trkpt><trkpt lat="45.8727693633771" lon="11.788916920248598"><ele>1544.5</ele><time>2026-03-24T14:04:25Z</time></trkpt><trkpt lat="45.872745631720676" lon="11.78908978903077"><ele>1545.75</ele><time>2026-03-24T14:04:26Z</time></trkpt><trkpt lat="45.87271306234042" lon="11.789268665769214"><ele>1547.0</ele><time>2026-03-24T14:04:27Z</time></trkpt><trkpt lat="45.87267039121268" lon="11.789454900883946"><ele>1547.75</ele><time>2026-03-24T14:04:28Z</time></trkpt><trkpt lat="45.87261091588091" lon="11.789638092425644"><ele>1548.5</ele><time>2026-03-24T14:04:29Z</time></trkpt><trkpt lat="45.87254704151473" lon="11.7897986312344"><ele>1549.25</ele><time>2026-03-24T14:04:30Z</time></trkpt><trkpt lat="45.87248254465382" lon="11.789938292545381"><ele>1550.0</ele><time>2026-03-24T14:04:31Z</time></trkpt><trkpt lat="45.87243040693801" lon="11.79006436679896"><ele>1556.4999999999998</ele><time>2026-03-24T14:04:32Z</time></trkpt><trkpt lat="45.872389390069856" lon="11.790178509070849"><ele>1563.0</ele><time>2026-03-24T14:04:33Z</time></trkpt><trkpt lat="45.87235126315277" lon="11.790289217765551"><ele>1569.5</ele><time>2026-03-24T14:04:34Z</time></trkpt><trkpt lat="45.872326558695136" lon="11.7903899476952"><ele>1576.0</ele><time>2026-03-24T14:04:35Z</time></trkpt><trkpt lat="45.87232092589919" lon="11.79048936682099"><ele>1582.4999999999998</ele><time>2026-03-24T14:04:36Z</time></trkpt><trkpt lat="45.872338934890045" lon="11.790615633843942"><ele>1589.0</ele><time>2026-03-24T14:04:37Z</time></trkpt><trkpt lat="45.87241872610293" lon="11.790712338328234"><ele>1589.0</ele><time>2026-03-24T14:04:38Z</time></trkpt><trkpt lat="45.872501505422406" lon="11.79080551199549"><ele>1589.0</ele><time>2026-03-24T14:04:39Z</time></trkpt><trkpt lat="45.872597788918625" lon="11.790878989087297"><ele>1589.0</ele><time>2026-03-24T14:04:40Z</time></trkpt><trkpt lat="45.87269743312787" lon="11.790956815725218"><ele>1589.0</ele><time>2026-03-24T14:04:41Z</time></trkpt><trkpt lat="45.87279924283976" lon="11.791054278737706"><ele>1588.75</ele><time>2026-03-24T14:04:42Z</time></trkpt><trkpt lat="45.87289478715291" lon="11.791164725200545"><ele>1588.5</ele><time>2026-03-24T14:04:42.999Z</time></trkpt><trkpt lat="45.87299245324401" lon="11.791267479535879"><ele>1588.25</ele><time>2026-03-24T14:04:43.999Z</time></trkpt><trkpt lat="45.8730813467052" lon="11.791377065951874"><ele>1588.0</ele><time>2026-03-24T14:04:44.999Z</time></trkpt><trkpt lat="45.87315776091993" lon="11.791503665151085"><ele>1588.0</ele><time>2026-03-24T14:04:45.999Z</time></trkpt><trkpt lat="45.87319733842378" lon="11.79165842843502"><ele>1588.0</ele><time>2026-03-24T14:04:46.999Z</time></trkpt><trkpt lat="45.87325684244362" lon="11.79179436015833"><ele>1588.0</ele><time>2026-03-24T14:04:47.999Z</time></trkpt><trkpt lat="45.87329963896001" lon="11.791947871659714"><ele>1588.0</ele><time>2026-03-24T14:04:48.999Z</time></trkpt><trkpt lat="45.87335492235204" lon="11.792098776915465"><ele>1587.25</ele><time>2026-03-24T14:04:49.999Z</time></trkpt><trkpt lat="45.87341841550318" lon="11.792262062395025"><ele>1586.5</ele><time>2026-03-24T14:04:50.999Z</time></trkpt><trkpt lat="45.87347911942183" lon="11.792440216941543"><ele>1585.75</ele><time>2026-03-24T14:04:51.999Z</time></trkpt><trkpt lat="45.873537761028196" lon="11.792633635530587"><ele>1585.0</ele><time>2026-03-24T14:04:52.999Z</time></trkpt><trkpt lat="45.87358384612522" lon="11.79283146418911"><ele>1587.8</ele><time>2026-03-24T14:04:53.999Z</time></trkpt><trkpt lat="45.8736354963867" lon="11.7929991971487"><ele>1590.6</ele><time>2026-03-24T14:04:54.999Z</time></trkpt><trkpt lat="45.87368502138096" lon="11.793125203946838"><ele>1593.4</ele><time>2026-03-24T14:04:55.999Z</time></trkpt><trkpt lat="45.87374703915338" lon="11.793228529763862"><ele>1596.2</ele><time>2026-03-24T14:04:56.999Z</time></trkpt><trkpt lat="45.87380657921042" lon="11.793335314471074"><ele>1599.0</ele><time>2026-03-24T14:04:57.999Z</time></trkpt><trkpt lat="45.873858885702546" lon="11.793449543715097"><ele>1599.4</ele><time>2026-03-24T14:04:58.999Z</time></trkpt><trkpt lat="45.87388864875205" lon="11.793580953115383"><ele>1599.8000000000002</ele><time>2026-03-24T14:04:59.999Z</time></trkpt><trkpt lat="45.87390132147627" lon="11.7937284239731"><ele>1600.1999999999998</ele><time>2026-03-24T14:05:00.999Z</time></trkpt><trkpt lat="45.87390413208394" lon="11.793879066354855"><ele>1600.6</ele><time>2026-03-24T14:05:01.999Z</time></trkpt><trkpt lat="45.873885998366774" lon="11.794032648093122"><ele>1601.0</ele><time>2026-03-24T14:05:02.999Z</time></trkpt><trkpt lat="45.873829209171824" lon="11.794184209335965"><ele>1602.8</ele><time>2026-03-24T14:05:03.999Z</time></trkpt><trkpt lat="45.87379781892929" lon="11.79434433964612"><ele>1604.6</ele><time>2026-03-24T14:05:04.999Z</time></trkpt><trkpt lat="45.87375952502847" lon="11.794468440650169"><ele>1606.4</ele><time>2026-03-24T14:05:05.999Z</time></trkpt><trkpt lat="45.873734192709655" lon="11.79458407318879"><ele>1608.2</ele><time>2026-03-24T14:05:06.999Z</time></trkpt><trkpt lat="45.873749985821206" lon="11.794694408133504"><ele>1610.0</ele><time>2026-03-24T14:05:07.999Z</time></trkpt><trkpt lat="45.8738010999716" lon="11.794799209787714"><ele>1610.0</ele><time>2026-03-24T14:05:08.999Z</time></trkpt><trkpt lat="45.873863768603215" lon="11.794901292338626"><ele>1610.0</ele><time>2026-03-24T14:05:09.999Z</time></trkpt><trkpt lat="45.87394566398466" lon="11.794993040593013"><ele>1610.0</ele><time>2026-03-24T14:05:10.999Z</time></trkpt><trkpt lat="45.87402970975719" lon="11.79510375607385"><ele>1610.0</ele><time>2026-03-24T14:05:11.999Z</time></trkpt><trkpt lat="45.87412138649673" lon="11.795232763459143"><ele>1610.0</ele><time>2026-03-24T14:05:12.999Z</time></trkpt><trkpt lat="45.874213263408805" lon="11.795378315685456"><ele>1608.75</ele><time>2026-03-24T14:05:13.999Z</time></trkpt><trkpt lat="45.87432226084151" lon="11.79552350526143"><ele>1607.5</ele><time>2026-03-24T14:05:14.999Z</time></trkpt><trkpt lat="45.87443488395176" lon="11.795672842658629"><ele>1606.25</ele><time>2026-03-24T14:05:15.999Z</time></trkpt><trkpt lat="45.87455443485891" lon="11.795791026217492"><ele>1605.0</ele><time>2026-03-24T14:05:16.999Z</time></trkpt><trkpt lat="45.874660424914076" lon="11.795905232719928"><ele>1609.75</ele><time>2026-03-24T14:05:17.999Z</time></trkpt><trkpt lat="45.874759809679745" lon="11.796019512309968"><ele>1614.5</ele><time>2026-03-24T14:05:18.999Z</time></trkpt><trkpt lat="45.87485095571316" lon="11.796122293675399"><ele>1619.25</ele><time>2026-03-24T14:05:19.999Z</time></trkpt><trkpt lat="45.87494487185055" lon="11.796219535994902"><ele>1624.0</ele><time>2026-03-24T14:05:20.999Z</time></trkpt><trkpt lat="45.87505493752695" lon="11.796308997182107"><ele>1618.25</ele><time>2026-03-24T14:05:21.999Z</time></trkpt><trkpt lat="45.8751795000401" lon="11.796372828256722"><ele>1612.5</ele><time>2026-03-24T14:05:22.999Z</time></trkpt><trkpt lat="45.875303113052716" lon="11.796407749649736"><ele>1606.75</ele><time>2026-03-24T14:05:23.999Z</time></trkpt><trkpt lat="45.875408204540335" lon="11.79644773220858"><ele>1601.0</ele><time>2026-03-24T14:05:24.999Z</time></trkpt><trkpt lat="45.87549121533864" lon="11.796506685826595"><ele>1601.0</ele><time>2026-03-24T14:05:25.999Z</time></trkpt><trkpt lat="45.87556565930836" lon="11.796606897636476"><ele>1601.0</ele><time>2026-03-24T14:05:26.999Z</time></trkpt><trkpt lat="45.87561810149072" lon="11.796739095335893"><ele>1601.0</ele><time>2026-03-24T14:05:27.999Z</time></trkpt><trkpt lat="45.87565946737913" lon="11.796897438267202"><ele>1601.0</ele><time>2026-03-24T14:05:28.999Z</time></trkpt><trkpt lat="45.87572085254386" lon="11.797052426279928"><ele>1606.75</ele><time>2026-03-24T14:05:29.999Z</time></trkpt><trkpt lat="45.87580410619165" lon="11.797188534452356"><ele>1612.5</ele><time>2026-03-24T14:05:30.999Z</time></trkpt><trkpt lat="45.8758983389918" lon="11.797312960389682"><ele>1618.25</ele><time>2026-03-24T14:05:31.999Z</time></trkpt><trkpt lat="45.87600799451891" lon="11.797409642555339"><ele>1624.0</ele><time>2026-03-24T14:05:32.999Z</time></trkpt><trkpt lat="45.87610612202801" lon="11.797478323890461"><ele>1625.0</ele><time>2026-03-24T14:05:33.999Z</time></trkpt><trkpt lat="45.87620979123545" lon="11.797466453125754"><ele>1626.0</ele><time>2026-03-24T14:05:34.999Z</time></trkpt><trkpt lat="45.87629276157085" lon="11.797447343158058"><ele>1627.0</ele><time>2026-03-24T14:05:35.999Z</time></trkpt><trkpt lat="45.876367460560836" lon="11.797418550325537"><ele>1628.0</ele><time>2026-03-24T14:05:36.999Z</time></trkpt><trkpt lat="45.8764128388621" lon="11.79732706330261"><ele>1629.0</ele><time>2026-03-24T14:05:37.999Z</time></trkpt><trkpt lat="45.87669582534899" lon="11.797074530417763"><ele>1632.3333333333335</ele><time>2026-03-24T14:05:38.999Z</time></trkpt><trkpt lat="45.87686139776164" lon="11.796953008568435"><ele>1635.6666666666667</ele><time>2026-03-24T14:05:39.999Z</time></trkpt><trkpt lat="45.87702760078483" lon="11.796815075914242"><ele>1639.0</ele><time>2026-03-24T14:05:40.999Z</time></trkpt><trkpt lat="45.877187077266555" lon="11.796698886313731"><ele>1634.25</ele><time>2026-03-24T14:05:41.999Z</time></trkpt><trkpt lat="45.87733155336295" lon="11.796618979957445"><ele>1629.5</ele><time>2026-03-24T14:05:42.999Z</time></trkpt><trkpt lat="45.87746016439802" lon="11.796559289268668"><ele>1624.75</ele><time>2026-03-24T14:05:43.999Z</time></trkpt><trkpt lat="45.87757571241559" lon="11.796523155157745"><ele>1620.0</ele><time>2026-03-24T14:05:44.999Z</time></trkpt><trkpt lat="45.87767717886531" lon="11.796517439238674"><ele>1620.0</ele><time>2026-03-24T14:05:45.999Z</time></trkpt><trkpt lat="45.87776404100252" lon="11.796560511644858"><ele>1620.0</ele><time>2026-03-24T14:05:46.999Z</time></trkpt><trkpt lat="45.87783660310862" lon="11.796631557350112"><ele>1620.0</ele><time>2026-03-24T14:05:47.998Z</time></trkpt><trkpt lat="45.87793804495091" lon="11.796746870529592"><ele>1620.0</ele><time>2026-03-24T14:05:48.998Z</time></trkpt><trkpt lat="45.8780441314146" lon="11.796839336885292"><ele>1620.0</ele><time>2026-03-24T14:05:49.998Z</time></trkpt><trkpt lat="45.8781458519541" lon="11.796919205812925"><ele>1620.0</ele><time>2026-03-24T14:05:50.998Z</time></trkpt><trkpt lat="45.87823121106383" lon="11.796916451653434"><ele>1620.0</ele><time>2026-03-24T14:05:51.998Z</time></trkpt><trkpt lat="45.87832188661857" lon="11.796875780543344"><ele>1620.0</ele><time>2026-03-24T14:05:52.998Z</time></trkpt><trkpt lat="45.87840700249809" lon="11.796789859896236"><ele>1620.0</ele><time>2026-03-24T14:05:53.998Z</time></trkpt><trkpt lat="45.87850164373529" lon="11.796703863988423"><ele>1620.0</ele><time>2026-03-24T14:05:54.998Z</time></trkpt><trkpt lat="45.87859600753958" lon="11.796604339382656"><ele>1623.5</ele><time>2026-03-24T14:05:55.998Z</time></trkpt><trkpt lat="45.87868261459604" lon="11.796489098049358"><ele>1627.0</ele><time>2026-03-24T14:05:56.998Z</time></trkpt><trkpt lat="45.87879156080346" lon="11.79639286642775"><ele>1630.5</ele><time>2026-03-24T14:05:57.998Z</time></trkpt><trkpt lat="45.878894393652594" lon="11.79626903719563"><ele>1634.0</ele><time>2026-03-24T14:05:58.998Z</time></trkpt><trkpt lat="45.879003210747136" lon="11.796191484788968"><ele>1633.9999999999998</ele><time>2026-03-24T14:05:59.998Z</time></trkpt><trkpt lat="45.8790930176193" lon="11.796126457547386"><ele>1634.0</ele><time>2026-03-24T14:06:00.998Z</time></trkpt><trkpt lat="45.87917084341057" lon="11.79607427136077"><ele>1634.0</ele><time>2026-03-24T14:06:01.998Z</time></trkpt><trkpt lat="45.879237636881086" lon="11.796018461842873"><ele>1634.0</ele><time>2026-03-24T14:06:03Z</time></trkpt><trkpt lat="45.87928301574955" lon="11.795915240160017"><ele>1633.9999999999998</ele><time>2026-03-24T14:06:04Z</time></trkpt><trkpt lat="45.879321147206944" lon="11.795806039894888"><ele>1634.0</ele><time>2026-03-24T14:06:05Z</time></trkpt><trkpt lat="45.87933155203413" lon="11.795670235493333"><ele>1633.3333333333333</ele><time>2026-03-24T14:06:06Z</time></trkpt><trkpt lat="45.879319371030746" lon="11.795530291781446"><ele>1632.6666666666665</ele><time>2026-03-24T14:06:07Z</time></trkpt><trkpt lat="45.87929571423013" lon="11.795411740390618"><ele>1632.0</ele><time>2026-03-24T14:06:08Z</time></trkpt><trkpt lat="45.87929185345988" lon="11.795296267440387"><ele>1631.3333333333335</ele><time>2026-03-24T14:06:09Z</time></trkpt><trkpt lat="45.8793070732773" lon="11.7951848405055"><ele>1630.6666666666667</ele><time>2026-03-24T14:06:10Z</time></trkpt><trkpt lat="45.879367505192164" lon="11.79508902873607"><ele>1630.0</ele><time>2026-03-24T14:06:11Z</time></trkpt><trkpt lat="45.87944460606601" lon="11.795006173513896"><ele>1626.75</ele><time>2026-03-24T14:06:12Z</time></trkpt><trkpt lat="45.87952716147808" lon="11.794912532165569"><ele>1623.5</ele><time>2026-03-24T14:06:13Z</time></trkpt><trkpt lat="45.87961946107619" lon="11.794806836144067"><ele>1620.25</ele><time>2026-03-24T14:06:14Z</time></trkpt><trkpt lat="45.87972062892419" lon="11.794682342669583"><ele>1617.0</ele><time>2026-03-24T14:06:15Z</time></trkpt><trkpt lat="45.879830694756286" lon="11.794557425005694"><ele>1617.0</ele><time>2026-03-24T14:06:16Z</time></trkpt><trkpt lat="45.87994276527569" lon="11.794444475673856"><ele>1617.0</ele><time>2026-03-24T14:06:17Z</time></trkpt><trkpt lat="45.88003514301476" lon="11.794341439277936"><ele>1617.0</ele><time>2026-03-24T14:06:18Z</time></trkpt><trkpt lat="45.88010925550034" lon="11.794227193420623"><ele>1617.0</ele><time>2026-03-24T14:06:19Z</time></trkpt><trkpt lat="45.880163526679155" lon="11.794092964803102"><ele>1618.8</ele><time>2026-03-24T14:06:20Z</time></trkpt><trkpt lat="45.88020633717419" lon="11.793959274504672"><ele>1620.6</ele><time>2026-03-24T14:06:21Z</time></trkpt><trkpt lat="45.88025509695545" lon="11.793831650065174"><ele>1622.3999999999999</ele><time>2026-03-24T14:06:22Z</time></trkpt><trkpt lat="45.880315656356096" lon="11.793726635980997"><ele>1624.1999999999998</ele><time>2026-03-24T14:06:23Z</time></trkpt><trkpt lat="45.880406070689716" lon="11.79367759822551"><ele>1626.0</ele><time>2026-03-24T14:06:24Z</time></trkpt><trkpt lat="45.880506500898385" lon="11.79361145948262"><ele>1626.0</ele><time>2026-03-24T14:06:25Z</time></trkpt><trkpt lat="45.88061353162927" lon="11.79352575954478"><ele>1626.0</ele><time>2026-03-24T14:06:26Z</time></trkpt><trkpt lat="45.8807296250102" lon="11.793464774668973"><ele>1626.0</ele><time>2026-03-24T14:06:27Z</time></trkpt><trkpt lat="45.8808308903879" lon="11.793384282937897"><ele>1626.0</ele><time>2026-03-24T14:06:28Z</time></trkpt><trkpt lat="45.88091383844877" lon="11.793276042324692"><ele>1623.6</ele><time>2026-03-24T14:06:29Z</time></trkpt><trkpt lat="45.880962231815495" lon="11.793129950659875"><ele>1621.1999999999998</ele><time>2026-03-24T14:06:30Z</time></trkpt><trkpt lat="45.88098783654479" lon="11.792978347445207"><ele>1618.8000000000002</ele><time>2026-03-24T14:06:31Z</time></trkpt><trkpt lat="45.88101841564227" lon="11.79284327146183"><ele>1616.4</ele><time>2026-03-24T14:06:32Z</time></trkpt><trkpt lat="45.88107663708042" lon="11.792731018159575"><ele>1614.0</ele><time>2026-03-24T14:06:33Z</time></trkpt><trkpt lat="45.881172683838315" lon="11.79269218976336"><ele>1614.0</ele><time>2026-03-24T14:06:34Z</time></trkpt><trkpt lat="45.881261728553255" lon="11.792656686100468"><ele>1614.0</ele><time>2026-03-24T14:06:35Z</time></trkpt><trkpt lat="45.88135002320803" lon="11.792668235316349"><ele>1614.0</ele><time>2026-03-24T14:06:36Z</time></trkpt><trkpt lat="45.88143709738224" lon="11.792692547407452"><ele>1614.0</ele><time>2026-03-24T14:06:37Z</time></trkpt><trkpt lat="45.88153246669243" lon="11.792728565834365"><ele>1614.0</ele><time>2026-03-24T14:06:38Z</time></trkpt><trkpt lat="45.88162954699972" lon="11.792758222627016"><ele>1614.0</ele><time>2026-03-24T14:06:39Z</time></trkpt><trkpt lat="45.88172123827367" lon="11.792770459854818"><ele>1614.0</ele><time>2026-03-24T14:06:40Z</time></trkpt><trkpt lat="45.88181168059999" lon="11.792747918353903"><ele>1614.0</ele><time>2026-03-24T14:06:41Z</time></trkpt><trkpt lat="45.881892359714946" lon="11.79265106931872"><ele>1614.0</ele><time>2026-03-24T14:06:42Z</time></trkpt><trkpt lat="45.881947941657955" lon="11.792508575481165"><ele>1614.0</ele><time>2026-03-24T14:06:43Z</time></trkpt><trkpt lat="45.88201185328036" lon="11.79234701843711"><ele>1616.0</ele><time>2026-03-24T14:06:44Z</time></trkpt><trkpt lat="45.88206591623708" lon="11.79216579387441"><ele>1618.0</ele><time>2026-03-24T14:06:45Z</time></trkpt><trkpt lat="45.882121384041184" lon="11.79196233623843"><ele>1620.0</ele><time>2026-03-24T14:06:46Z</time></trkpt><trkpt lat="45.8821900441684" lon="11.791735594808639"><ele>1613.6666666666665</ele><time>2026-03-24T14:06:47Z</time></trkpt><trkpt lat="45.88226279837319" lon="11.791499426719582"><ele>1607.3333333333333</ele><time>2026-03-24T14:06:48Z</time></trkpt><trkpt lat="45.88233523556863" lon="11.791254755764722"><ele>1601.0</ele><time>2026-03-24T14:06:49Z</time></trkpt><trkpt lat="45.882404199156234" lon="11.791012484214425"><ele>1603.3333333333333</ele><time>2026-03-24T14:06:50Z</time></trkpt><trkpt lat="45.88247958092117" lon="11.79078485787019"><ele>1605.6666666666665</ele><time>2026-03-24T14:06:51Z</time></trkpt><trkpt lat="45.88257055347213" lon="11.790565380999166"><ele>1608.0</ele><time>2026-03-24T14:06:51.999Z</time></trkpt><trkpt lat="45.88266819559879" lon="11.790357220508245"><ele>1600.0</ele><time>2026-03-24T14:06:52.999Z</time></trkpt><trkpt lat="45.88276149137866" lon="11.790155796388275"><ele>1592.0</ele><time>2026-03-24T14:06:53.999Z</time></trkpt><trkpt lat="45.882861360048246" lon="11.789977802871345"><ele>1584.0</ele><time>2026-03-24T14:06:54.999Z</time></trkpt><trkpt lat="45.882976425263685" lon="11.789818984405164"><ele>1584.0</ele><time>2026-03-24T14:06:55.999Z</time></trkpt><trkpt lat="45.883102229824026" lon="11.789684594700871"><ele>1584.0</ele><time>2026-03-24T14:06:56.999Z</time></trkpt><trkpt lat="45.883222328815464" lon="11.789548102668784"><ele>1584.0</ele><time>2026-03-24T14:06:57.999Z</time></trkpt><trkpt lat="45.88332846096229" lon="11.789391653582404"><ele>1581.6666666666665</ele><time>2026-03-24T14:06:58.999Z</time></trkpt><trkpt lat="45.8834232337056" lon="11.789217906684414"><ele>1579.3333333333333</ele><time>2026-03-24T14:06:59.999Z</time></trkpt><trkpt lat="45.8835230737335" lon="11.789047760296459"><ele>1577.0</ele><time>2026-03-24T14:07:00.999Z</time></trkpt><trkpt lat="45.88363809261693" lon="11.788892352609478"><ele>1577.0</ele><time>2026-03-24T14:07:01.999Z</time></trkpt><trkpt lat="45.88377651829103" lon="11.788763806887614"><ele>1577.0</ele><time>2026-03-24T14:07:02.999Z</time></trkpt><trkpt lat="45.883919760774944" lon="11.78866575743211"><ele>1577.0</ele><time>2026-03-24T14:07:03.999Z</time></trkpt><trkpt lat="45.88406328227823" lon="11.788636064752653"><ele>1577.0</ele><time>2026-03-24T14:07:04.999Z</time></trkpt><trkpt lat="45.8841945776738" lon="11.788597966744389"><ele>1577.0</ele><time>2026-03-24T14:07:05.999Z</time></trkpt><trkpt lat="45.88432223016308" lon="11.788554293464317"><ele>1577.0</ele><time>2026-03-24T14:07:06.999Z</time></trkpt><trkpt lat="45.8844305605595" lon="11.788473708303044"><ele>1577.0</ele><time>2026-03-24T14:07:07.999Z</time></trkpt><trkpt lat="45.884540812410265" lon="11.788401734847998"><ele>1575.0</ele><time>2026-03-24T14:07:08.999Z</time></trkpt><trkpt lat="45.88460732243183" lon="11.788232820114052"><ele>1573.0</ele><time>2026-03-24T14:07:09.999Z</time></trkpt><trkpt lat="45.88468165589132" lon="11.788055677230357"><ele>1571.0</ele><time>2026-03-24T14:07:10.999Z</time></trkpt><trkpt lat="45.88474228821067" lon="11.787842298429497"><ele>1569.0</ele><time>2026-03-24T14:07:11.999Z</time></trkpt><trkpt lat="45.884811200407846" lon="11.787613903555817"><ele>1564.6666666666665</ele><time>2026-03-24T14:07:12.999Z</time></trkpt><trkpt lat="45.88488746466117" lon="11.78736354383743"><ele>1560.3333333333333</ele><time>2026-03-24T14:07:13.999Z</time></trkpt><trkpt lat="45.88495078246212" lon="11.787098608169385"><ele>1556.0</ele><time>2026-03-24T14:07:14.999Z</time></trkpt><trkpt lat="45.884988926578735" lon="11.786838291989715"><ele>1552.0</ele><time>2026-03-24T14:07:15.999Z</time></trkpt><trkpt lat="45.885013786444944" lon="11.786585458769967"><ele>1548.0</ele><time>2026-03-24T14:07:16.999Z</time></trkpt><trkpt lat="45.885034007292376" lon="11.786343894537161"><ele>1544.0</ele><time>2026-03-24T14:07:17.999Z</time></trkpt><trkpt lat="45.88506564700821" lon="11.786108315055527"><ele>1549.6666666666665</ele><time>2026-03-24T14:07:18.999Z</time></trkpt><trkpt lat="45.885108289281696" lon="11.78589102116363"><ele>1555.3333333333335</ele><time>2026-03-24T14:07:19.999Z</time></trkpt><trkpt lat="45.88516544091656" lon="11.785681010796718"><ele>1561.0</ele><time>2026-03-24T14:07:20.999Z</time></trkpt><trkpt lat="45.885215315704116" lon="11.785467703974337"><ele>1561.0</ele><time>2026-03-24T14:07:21.999Z</time></trkpt><trkpt lat="45.885234077809045" lon="11.785256939608132"><ele>1561.0</ele><time>2026-03-24T14:07:22.999Z</time></trkpt><trkpt lat="45.88523371130505" lon="11.785045469740398"><ele>1561.0</ele><time>2026-03-24T14:07:23.999Z</time></trkpt><trkpt lat="45.885231418526025" lon="11.784851894916736"><ele>1561.0</ele><time>2026-03-24T14:07:24.999Z</time></trkpt><trkpt lat="45.88523608731066" lon="11.784659663390048"><ele>1558.75</ele><time>2026-03-24T14:07:25.999Z</time></trkpt><trkpt lat="45.885242856578266" lon="11.784474401779223"><ele>1556.5</ele><time>2026-03-24T14:07:26.999Z</time></trkpt><trkpt lat="45.88525513164832" lon="11.78429381469841"><ele>1554.25</ele><time>2026-03-24T14:07:27.999Z</time></trkpt><trkpt lat="45.88527552771491" lon="11.784117087872595"><ele>1552.0</ele><time>2026-03-24T14:07:28.999Z</time></trkpt><trkpt lat="45.88530121686089" lon="11.783927492955648"><ele>1548.0</ele><time>2026-03-24T14:07:29.999Z</time></trkpt><trkpt lat="45.88534549992777" lon="11.783716064866327"><ele>1544.0</ele><time>2026-03-24T14:07:30.999Z</time></trkpt><trkpt lat="45.885399271723" lon="11.78351552536452"><ele>1540.0</ele><time>2026-03-24T14:07:31.999Z</time></trkpt><trkpt lat="45.88545100510111" lon="11.783308183189343"><ele>1536.0</ele><time>2026-03-24T14:07:32.999Z</time></trkpt><trkpt lat="45.885502935448336" lon="11.7830857027318"><ele>1532.0</ele><time>2026-03-24T14:07:33.999Z</time></trkpt><trkpt lat="45.88555713831398" lon="11.78287442542897"><ele>1528.0</ele><time>2026-03-24T14:07:34.999Z</time></trkpt><trkpt lat="45.885619330078974" lon="11.782688193676698"><ele>1525.0</ele><time>2026-03-24T14:07:35.999Z</time></trkpt><trkpt lat="45.885689440483524" lon="11.782530329101753"><ele>1522.0</ele><time>2026-03-24T14:07:36.999Z</time></trkpt><trkpt lat="45.88577488760296" lon="11.782410408844832"><ele>1519.0</ele><time>2026-03-24T14:07:37.999Z</time></trkpt><trkpt lat="45.88586677020304" lon="11.782284315601263"><ele>1516.0</ele><time>2026-03-24T14:07:38.999Z</time></trkpt><trkpt lat="45.88596530681004" lon="11.782144066264154"><ele>1514.3333333333333</ele><time>2026-03-24T14:07:39.999Z</time></trkpt><trkpt lat="45.886063826364946" lon="11.781968336649944"><ele>1512.6666666666667</ele><time>2026-03-24T14:07:40.999Z</time></trkpt><trkpt lat="45.8861488781617" lon="11.781767629079484"><ele>1511.0</ele><time>2026-03-24T14:07:41.999Z</time></trkpt><trkpt lat="45.88619431629369" lon="11.78156017998749"><ele>1511.6666666666667</ele><time>2026-03-24T14:07:42.999Z</time></trkpt><trkpt lat="45.886251692036346" lon="11.78137006044098"><ele>1512.3333333333333</ele><time>2026-03-24T14:07:43.999Z</time></trkpt><trkpt lat="45.886319090823996" lon="11.781196144362786"><ele>1513.0</ele><time>2026-03-24T14:07:44.999Z</time></trkpt><trkpt lat="45.88642967879074" lon="11.780988813316213"><ele>1513.0</ele><time>2026-03-24T14:07:45.999Z</time></trkpt><trkpt lat="45.88650879721551" lon="11.78090011995822"><ele>1513.0</ele><time>2026-03-24T14:07:46.999Z</time></trkpt><trkpt lat="45.88657420267678" lon="11.780782948680411"><ele>1513.0</ele><time>2026-03-24T14:07:47.999Z</time></trkpt><trkpt lat="45.8866834366451" lon="11.780643666214022"><ele>1513.0</ele><time>2026-03-24T14:07:48.999Z</time></trkpt><trkpt lat="45.88680739315658" lon="11.780505219243667"><ele>1512.0</ele><time>2026-03-24T14:07:49.999Z</time></trkpt><trkpt lat="45.88692837395669" lon="11.780363063459317"><ele>1511.0</ele><time>2026-03-24T14:07:50.999Z</time></trkpt><trkpt lat="45.88702892876245" lon="11.780209129400363"><ele>1510.0</ele><time>2026-03-24T14:07:51.999Z</time></trkpt><trkpt lat="45.887117099367806" lon="11.780032285318423"><ele>1510.0</ele><time>2026-03-24T14:07:52.999Z</time></trkpt><trkpt lat="45.887195365145494" lon="11.779827982705406"><ele>1510.0</ele><time>2026-03-24T14:07:53.999Z</time></trkpt><trkpt lat="45.88726414903105" lon="11.779601901098449"><ele>1510.0</ele><time>2026-03-24T14:07:54.999Z</time></trkpt><trkpt lat="45.88731409723169" lon="11.779369309815994"><ele>1509.3333333333333</ele><time>2026-03-24T14:07:55.998Z</time></trkpt><trkpt lat="45.88734062144294" lon="11.779144004016015"><ele>1508.6666666666667</ele><time>2026-03-24T14:07:56.998Z</time></trkpt><trkpt lat="45.88735817370368" lon="11.778919114887156"><ele>1508.0</ele><time>2026-03-24T14:07:57.998Z</time></trkpt><trkpt lat="45.88738145021031" lon="11.778703179410162"><ele>1506.0</ele><time>2026-03-24T14:07:58.998Z</time></trkpt><trkpt lat="45.88741911916235" lon="11.778486069648451"><ele>1504.0</ele><time>2026-03-24T14:07:59.998Z</time></trkpt><trkpt lat="45.887470181830025" lon="11.778283027221523"><ele>1502.0</ele><time>2026-03-24T14:08:00.998Z</time></trkpt><trkpt lat="45.88753993750792" lon="11.778105904739826"><ele>1500.0</ele><time>2026-03-24T14:08:01.998Z</time></trkpt><trkpt lat="45.88763311626669" lon="11.777953869580342"><ele>1500.6666666666667</ele><time>2026-03-24T14:08:02.998Z</time></trkpt><trkpt lat="45.887727123653676" lon="11.777797337181124"><ele>1501.3333333333335</ele><time>2026-03-24T14:08:03.998Z</time></trkpt><trkpt lat="45.887806002001284" lon="11.777615079398867"><ele>1502.0</ele><time>2026-03-24T14:08:04.998Z</time></trkpt><trkpt lat="45.88786081962081" lon="11.777397749619675"><ele>1502.0</ele><time>2026-03-24T14:08:05.998Z</time></trkpt><trkpt lat="45.887894958539434" lon="11.777148028542197"><ele>1502.0</ele><time>2026-03-24T14:08:06.998Z</time></trkpt><trkpt lat="45.88792122723987" lon="11.776869841655303"><ele>1502.0</ele><time>2026-03-24T14:08:07.998Z</time></trkpt><trkpt lat="45.88796237664159" lon="11.776561491707486"><ele>1505.5</ele><time>2026-03-24T14:08:09Z</time></trkpt><trkpt lat="45.88800373790554" lon="11.776232779687662"><ele>1509.0</ele><time>2026-03-24T14:08:10Z</time></trkpt><trkpt lat="45.8880328308569" lon="11.775894801321533"><ele>1509.0</ele><time>2026-03-24T14:08:11Z</time></trkpt><trkpt lat="45.8880435301564" lon="11.775591992014645"><ele>1509.0</ele><time>2026-03-24T14:08:12Z</time></trkpt><trkpt lat="45.888044694848475" lon="11.775306589074928"><ele>1509.0</ele><time>2026-03-24T14:08:13Z</time></trkpt><trkpt lat="45.888051700466356" lon="11.77505286515106"><ele>1508.75</ele><time>2026-03-24T14:08:14Z</time></trkpt><trkpt lat="45.88807402601077" lon="11.774854586006901"><ele>1508.5</ele><time>2026-03-24T14:08:15Z</time></trkpt><trkpt lat="45.888098671599984" lon="11.774669409872676"><ele>1508.25</ele><time>2026-03-24T14:08:16Z</time></trkpt><trkpt lat="45.8881360020157" lon="11.774489507094726"><ele>1508.0</ele><time>2026-03-24T14:08:17Z</time></trkpt><trkpt lat="45.888163176825174" lon="11.774338922989704"><ele>1505.0</ele><time>2026-03-24T14:08:18Z</time></trkpt><trkpt lat="45.88826457231762" lon="11.773675478495814"><ele>1503.0</ele><time>2026-03-24T14:08:19Z</time></trkpt><trkpt lat="45.888275029855116" lon="11.77340064981558"><ele>1501.0</ele><time>2026-03-24T14:08:20Z</time></trkpt><trkpt lat="45.88828598679259" lon="11.773145448731151"><ele>1499.0</ele><time>2026-03-24T14:08:21Z</time></trkpt><trkpt lat="45.88827900212507" lon="11.772902406725487"><ele>1498.6666666666667</ele><time>2026-03-24T14:08:22Z</time></trkpt><trkpt lat="45.888256459155045" lon="11.772673384945735"><ele>1498.3333333333333</ele><time>2026-03-24T14:08:23Z</time></trkpt><trkpt lat="45.888206927294554" lon="11.772465902782178"><ele>1498.0</ele><time>2026-03-24T14:08:24Z</time></trkpt><trkpt lat="45.888147183168016" lon="11.772266125341305"><ele>1498.0</ele><time>2026-03-24T14:08:25Z</time></trkpt><trkpt lat="45.8880872714751" lon="11.77207996909932"><ele>1498.0</ele><time>2026-03-24T14:08:26Z</time></trkpt><trkpt lat="45.88802953489311" lon="11.77190195128513"><ele>1498.0</ele><time>2026-03-24T14:08:27Z</time></trkpt><trkpt lat="45.88799255901595" lon="11.771725703067382"><ele>1498.0</ele><time>2026-03-24T14:08:28Z</time></trkpt><trkpt lat="45.88794118806285" lon="11.771569499648319"><ele>1498.0</ele><time>2026-03-24T14:08:29Z</time></trkpt><trkpt lat="45.88788989832462" lon="11.771425174930078"><ele>1498.0</ele><time>2026-03-24T14:08:30Z</time></trkpt><trkpt lat="45.887855028914814" lon="11.771279830840797"><ele>1498.0</ele><time>2026-03-24T14:08:31Z</time></trkpt><trkpt lat="45.88784317920561" lon="11.771122363187752"><ele>1498.0</ele><time>2026-03-24T14:08:32Z</time></trkpt><trkpt lat="45.887862480137905" lon="11.770962891782844"><ele>1498.0</ele><time>2026-03-24T14:08:33Z</time></trkpt><trkpt lat="45.8879137486697" lon="11.770819841219327"><ele>1495.8000000000002</ele><time>2026-03-24T14:08:34Z</time></trkpt><trkpt lat="45.888008522720455" lon="11.77074023949787"><ele>1493.6</ele><time>2026-03-24T14:08:35Z</time></trkpt><trkpt lat="45.88809583185606" lon="11.770695486997832"><ele>1491.4</ele><time>2026-03-24T14:08:36Z</time></trkpt><trkpt lat="45.88819361984886" lon="11.770672377012797"><ele>1489.1999999999998</ele><time>2026-03-24T14:08:37Z</time></trkpt><trkpt lat="45.88830113827999" lon="11.770670195513388"><ele>1487.0</ele><time>2026-03-24T14:08:38Z</time></trkpt><trkpt lat="45.888412928254304" lon="11.770679044003439"><ele>1484.0</ele><time>2026-03-24T14:08:39Z</time></trkpt><trkpt lat="45.888526557979894" lon="11.770695017094795"><ele>1481.0</ele><time>2026-03-24T14:08:40Z</time></trkpt><trkpt lat="45.8886362672982" lon="11.770711174904472"><ele>1478.0</ele><time>2026-03-24T14:08:41Z</time></trkpt><trkpt lat="45.88874636794916" lon="11.7707273903438"><ele>1475.0</ele><time>2026-03-24T14:08:42Z</time></trkpt><trkpt lat="45.88888435902468" lon="11.770736599500186"><ele>1475.0</ele><time>2026-03-24T14:08:43Z</time></trkpt><trkpt lat="45.888992430711596" lon="11.770743443572925"><ele>1475.0</ele><time>2026-03-24T14:08:44Z</time></trkpt><trkpt lat="45.88910397959515" lon="11.770770976891127"><ele>1475.0</ele><time>2026-03-24T14:08:45Z</time></trkpt><trkpt lat="45.889209631362384" lon="11.77077676115044"><ele>1475.0</ele><time>2026-03-24T14:08:46Z</time></trkpt><trkpt lat="45.8893172787563" lon="11.770781150617816"><ele>1475.0</ele><time>2026-03-24T14:08:47Z</time></trkpt><trkpt lat="45.88942383561333" lon="11.77077176632016"><ele>1474.6</ele><time>2026-03-24T14:08:48Z</time></trkpt><trkpt lat="45.88953235046863" lon="11.770750249696606"><ele>1474.2</ele><time>2026-03-24T14:08:49Z</time></trkpt><trkpt lat="45.88963906564857" lon="11.770711208558518"><ele>1473.8000000000002</ele><time>2026-03-24T14:08:50Z</time></trkpt><trkpt lat="45.88973795919573" lon="11.770653464284685"><ele>1473.4</ele><time>2026-03-24T14:08:51Z</time></trkpt><trkpt lat="45.88984724062304" lon="11.770620058836514"><ele>1473.0</ele><time>2026-03-24T14:08:52Z</time></trkpt><trkpt lat="45.88994982258852" lon="11.77056629642389"><ele>1473.0</ele><time>2026-03-24T14:08:53Z</time></trkpt><trkpt lat="45.890047300210234" lon="11.770501114733865"><ele>1473.0</ele><time>2026-03-24T14:08:54Z</time></trkpt><trkpt lat="45.89014003460455" lon="11.770413838807332"><ele>1473.0</ele><time>2026-03-24T14:08:55Z</time></trkpt><trkpt lat="45.89022449045019" lon="11.770307102367914"><ele>1473.0</ele><time>2026-03-24T14:08:56Z</time></trkpt><trkpt lat="45.890301957564766" lon="11.77020675370585"><ele>1473.0</ele><time>2026-03-24T14:08:57Z</time></trkpt><trkpt lat="45.89038296628472" lon="11.77011345625586"><ele>1469.4</ele><time>2026-03-24T14:08:57.999Z</time></trkpt><trkpt lat="45.89046678102386" lon="11.770031771622449"><ele>1465.8000000000002</ele><time>2026-03-24T14:08:58.999Z</time></trkpt><trkpt lat="45.89054906526085" lon="11.769945687344245"><ele>1462.2</ele><time>2026-03-24T14:08:59.999Z</time></trkpt><trkpt lat="45.89062100714556" lon="11.769847939123434"><ele>1458.6</ele><time>2026-03-24T14:09:00.999Z</time></trkpt><trkpt lat="45.89070430985445" lon="11.76977531643236"><ele>1455.0</ele><time>2026-03-24T14:09:01.999Z</time></trkpt><trkpt lat="45.890787144760125" lon="11.769702203096166"><ele>1455.0</ele><time>2026-03-24T14:09:02.999Z</time></trkpt><trkpt lat="45.89087423968471" lon="11.76961518899561"><ele>1455.0</ele><time>2026-03-24T14:09:03.999Z</time></trkpt><trkpt lat="45.89096695497088" lon="11.769517713871574"><ele>1455.0</ele><time>2026-03-24T14:09:04.999Z</time></trkpt><trkpt lat="45.89106773860493" lon="11.769410289681398"><ele>1455.0</ele><time>2026-03-24T14:09:05.999Z</time></trkpt><trkpt lat="45.891188414840855" lon="11.769307224880968"><ele>1451.5</ele><time>2026-03-24T14:09:06.999Z</time></trkpt><trkpt lat="45.891293744359096" lon="11.769193794806508"><ele>1448.0</ele><time>2026-03-24T14:09:07.999Z</time></trkpt><trkpt lat="45.89139052547305" lon="11.769088634120974"><ele>1444.5</ele><time>2026-03-24T14:09:08.999Z</time></trkpt><trkpt lat="45.89148684770954" lon="11.768995212724084"><ele>1441.0</ele><time>2026-03-24T14:09:09.999Z</time></trkpt><trkpt lat="45.89157424867792" lon="11.768924096630275"><ele>1441.0</ele><time>2026-03-24T14:09:10.999Z</time></trkpt><trkpt lat="45.891656240283325" lon="11.76888209327823"><ele>1441.0</ele><time>2026-03-24T14:09:11.999Z</time></trkpt><trkpt lat="45.891744679505805" lon="11.768872060402531"><ele>1441.0</ele><time>2026-03-24T14:09:12.999Z</time></trkpt><trkpt lat="45.89181117896907" lon="11.768939118393913"><ele>1441.0</ele><time>2026-03-24T14:09:13.999Z</time></trkpt><trkpt lat="45.89186029850233" lon="11.769005592421827"><ele>1441.0</ele><time>2026-03-24T14:09:14.999Z</time></trkpt><trkpt lat="45.8919031645536" lon="11.76908211314865"><ele>1441.0</ele><time>2026-03-24T14:09:15.999Z</time></trkpt><trkpt lat="45.89188367079321" lon="11.769192912564765"><ele>1440.0</ele><time>2026-03-24T14:09:16.999Z</time></trkpt><trkpt lat="45.89185629129128" lon="11.769359837525926"><ele>1439.0</ele><time>2026-03-24T14:09:18.999Z</time></trkpt><trkpt lat="45.89179130557583" lon="11.769519254323061"><ele>1438.0</ele><time>2026-03-24T14:09:20.999Z</time></trkpt><trkpt lat="45.891737883019495" lon="11.769591611581557"><ele>1437.0</ele><time>2026-03-24T14:09:21.999Z</time></trkpt><trkpt lat="45.891690769484576" lon="11.76968257071196"><ele>1436.0</ele><time>2026-03-24T14:09:22.999Z</time></trkpt><trkpt lat="45.891630428465604" lon="11.769782894079748"><ele>1436.0</ele><time>2026-03-24T14:09:23.999Z</time></trkpt><trkpt lat="45.89156854847853" lon="11.76988716344659"><ele>1436.0</ele><time>2026-03-24T14:09:24.999Z</time></trkpt><trkpt lat="45.89150398282235" lon="11.769997133714995"><ele>1436.0</ele><time>2026-03-24T14:09:25.999Z</time></trkpt><trkpt lat="45.89144655936079" lon="11.770123802173112"><ele>1436.0</ele><time>2026-03-24T14:09:26.999Z</time></trkpt><trkpt lat="45.89139267028548" lon="11.770257498386002"><ele>1436.0</ele><time>2026-03-24T14:09:27.999Z</time></trkpt><trkpt lat="45.8913523826077" lon="11.770416129087014"><ele>1431.25</ele><time>2026-03-24T14:09:28.999Z</time></trkpt><trkpt lat="45.89130065958403" lon="11.770592111421763"><ele>1426.5</ele><time>2026-03-24T14:09:29.999Z</time></trkpt><trkpt lat="45.89123418302541" lon="11.770774065455234"><ele>1421.75</ele><time>2026-03-24T14:09:30.999Z</time></trkpt><trkpt lat="45.891166918771646" lon="11.770983712968018"><ele>1417.0</ele><time>2026-03-24T14:09:31.999Z</time></trkpt><trkpt lat="45.89110593402312" lon="11.771164104821187"><ele>1413.5</ele><time>2026-03-24T14:09:32.999Z</time></trkpt><trkpt lat="45.89105318511896" lon="11.771318939620175"><ele>1410.0</ele><time>2026-03-24T14:09:33.999Z</time></trkpt><trkpt lat="45.89099325997656" lon="11.77146459115875"><ele>1406.5</ele><time>2026-03-24T14:09:34.999Z</time></trkpt><trkpt lat="45.89092746132695" lon="11.77159771723731"><ele>1403.0</ele><time>2026-03-24T14:09:35.999Z</time></trkpt><trkpt lat="45.89088396407741" lon="11.771730604904711"><ele>1404.1666666666667</ele><time>2026-03-24T14:09:36.999Z</time></trkpt><trkpt lat="45.89084960690294" lon="11.771849299429746"><ele>1405.3333333333335</ele><time>2026-03-24T14:09:37.999Z</time></trkpt><trkpt lat="45.890841617471" lon="11.771966725981175"><ele>1406.5</ele><time>2026-03-24T14:09:38.999Z</time></trkpt><trkpt lat="45.89083890296799" lon="11.772088890048233"><ele>1407.6666666666667</ele><time>2026-03-24T14:09:39.999Z</time></trkpt><trkpt lat="45.890880729758614" lon="11.772201192626731"><ele>1408.8333333333333</ele><time>2026-03-24T14:09:40.999Z</time></trkpt><trkpt lat="45.890957200725566" lon="11.772297604019201"><ele>1410.0</ele><time>2026-03-24T14:09:41.999Z</time></trkpt><trkpt lat="45.891040679146194" lon="11.772386844470155"><ele>1410.0</ele><time>2026-03-24T14:09:42.999Z</time></trkpt><trkpt lat="45.89113950038705" lon="11.77246834454548"><ele>1410.0</ele><time>2026-03-24T14:09:43.999Z</time></trkpt><trkpt lat="45.89122859608409" lon="11.772568530363513"><ele>1410.0</ele><time>2026-03-24T14:09:44.999Z</time></trkpt><trkpt lat="45.89131579615119" lon="11.77267567513373"><ele>1410.0</ele><time>2026-03-24T14:09:45.999Z</time></trkpt><trkpt lat="45.89138459414677" lon="11.772797281758363"><ele>1412.8</ele><time>2026-03-24T14:09:46.999Z</time></trkpt><trkpt lat="45.891426173389085" lon="11.772930347792837"><ele>1415.6</ele><time>2026-03-24T14:09:47.999Z</time></trkpt><trkpt lat="45.89147135186799" lon="11.7730612652672"><ele>1418.4</ele><time>2026-03-24T14:09:48.999Z</time></trkpt><trkpt lat="45.8915166960675" lon="11.773190432111887"><ele>1421.2</ele><time>2026-03-24T14:09:49.999Z</time></trkpt><trkpt lat="45.89156750900804" lon="11.773322344452676"><ele>1424.0</ele><time>2026-03-24T14:09:50.999Z</time></trkpt><trkpt lat="45.89164796345519" lon="11.773435783015934"><ele>1422.75</ele><time>2026-03-24T14:09:51.999Z</time></trkpt><trkpt lat="45.89173901070269" lon="11.773533294549706"><ele>1421.5</ele><time>2026-03-24T14:09:52.999Z</time></trkpt><trkpt lat="45.89184008349422" lon="11.773605179612305"><ele>1420.25</ele><time>2026-03-24T14:09:53.999Z</time></trkpt><trkpt lat="45.891955557367666" lon="11.773675939380317"><ele>1419.0</ele><time>2026-03-24T14:09:54.999Z</time></trkpt><trkpt lat="45.892062392621526" lon="11.77378254670574"><ele>1419.0</ele><time>2026-03-24T14:09:55.999Z</time></trkpt><trkpt lat="45.89219748892961" lon="11.773876981419292"><ele>1419.0</ele><time>2026-03-24T14:09:56.999Z</time></trkpt><trkpt lat="45.89231590815114" lon="11.774023688236246"><ele>1419.0</ele><time>2026-03-24T14:09:57.999Z</time></trkpt><trkpt lat="45.89245082091225" lon="11.77417793781845"><ele>1419.0</ele><time>2026-03-24T14:09:58.999Z</time></trkpt><trkpt lat="45.89258321341398" lon="11.774310445302218"><ele>1419.0</ele><time>2026-03-24T14:09:59.998Z</time></trkpt><trkpt lat="45.89270231230032" lon="11.774446821695566"><ele>1419.0</ele><time>2026-03-24T14:10:00.998Z</time></trkpt><trkpt lat="45.89280060319031" lon="11.774584072045469"><ele>1416.25</ele><time>2026-03-24T14:10:01.998Z</time></trkpt><trkpt lat="45.89290155420641" lon="11.774684777744266"><ele>1413.5</ele><time>2026-03-24T14:10:02.998Z</time></trkpt><trkpt lat="45.893010566476526" lon="11.774759870839667"><ele>1410.75</ele><time>2026-03-24T14:10:03.998Z</time></trkpt><trkpt lat="45.89311094956273" lon="11.77484335136405"><ele>1408.0</ele><time>2026-03-24T14:10:04.998Z</time></trkpt><trkpt lat="45.89320743904798" lon="11.774928862195425"><ele>1408.0</ele><time>2026-03-24T14:10:05.998Z</time></trkpt><trkpt lat="45.89331067243288" lon="11.774989606417437"><ele>1408.0</ele><time>2026-03-24T14:10:06.998Z</time></trkpt><trkpt lat="45.893404235101485" lon="11.775051846124306"><ele>1408.0</ele><time>2026-03-24T14:10:07.998Z</time></trkpt><trkpt lat="45.89349182497151" lon="11.775138518409811"><ele>1408.0</ele><time>2026-03-24T14:10:08.998Z</time></trkpt><trkpt lat="45.89359694066675" lon="11.775207251687917"><ele>1408.0</ele><time>2026-03-24T14:10:09.998Z</time></trkpt><trkpt lat="45.893722558259604" lon="11.775264935002998"><ele>1403.75</ele><time>2026-03-24T14:10:10.998Z</time></trkpt><trkpt lat="45.89384864426714" lon="11.775313644103534"><ele>1399.5</ele><time>2026-03-24T14:10:11.998Z</time></trkpt><trkpt lat="45.8939724271753" lon="11.775353310405576"><ele>1395.25</ele><time>2026-03-24T14:10:12.998Z</time></trkpt><trkpt lat="45.89408635932001" lon="11.775398851892016"><ele>1391.0</ele><time>2026-03-24T14:10:13.998Z</time></trkpt><trkpt lat="45.8941941584843" lon="11.77546999901409"><ele>1390.6</ele><time>2026-03-24T14:10:15Z</time></trkpt><trkpt lat="45.89427485398156" lon="11.775587828630167"><ele>1390.1999999999998</ele><time>2026-03-24T14:10:16Z</time></trkpt><trkpt lat="45.8943546897609" lon="11.77569833256823"><ele>1389.8000000000002</ele><time>2026-03-24T14:10:17Z</time></trkpt><trkpt lat="45.89444083355654" lon="11.775801015211648"><ele>1389.4</ele><time>2026-03-24T14:10:18Z</time></trkpt><trkpt lat="45.89451311469025" lon="11.775909418529091"><ele>1389.0</ele><time>2026-03-24T14:10:19Z</time></trkpt><trkpt lat="45.89455921136694" lon="11.77602559597965"><ele>1389.0</ele><time>2026-03-24T14:10:20Z</time></trkpt><trkpt lat="45.89462727917536" lon="11.776110002028872"><ele>1389.0</ele><time>2026-03-24T14:10:21Z</time></trkpt><trkpt lat="45.8946766183646" lon="11.776208328514294"><ele>1389.0</ele><time>2026-03-24T14:10:22Z</time></trkpt><trkpt lat="45.89472575336963" lon="11.776290712503263"><ele>1389.0</ele><time>2026-03-24T14:10:23Z</time></trkpt><trkpt lat="45.89480152323166" lon="11.776389028659457"><ele>1389.0</ele><time>2026-03-24T14:10:25Z</time></trkpt><trkpt lat="45.89477540698985" lon="11.77647594833925"><ele>1389.0</ele><time>2026-03-24T14:10:37Z</time></trkpt><trkpt lat="45.89469180793903" lon="11.776436632895187"><ele>1389.0</ele><time>2026-03-24T14:10:40Z</time></trkpt><trkpt lat="45.894612151397176" lon="11.776326006706258"><ele>1389.0</ele><time>2026-03-24T14:10:42Z</time></trkpt><trkpt lat="45.89452327241489" lon="11.77628656079133"><ele>1389.0</ele><time>2026-03-24T14:10:44Z</time></trkpt><trkpt lat="45.89445100635142" lon="11.77626059380762"><ele>1389.0</ele><time>2026-03-24T14:10:46Z</time></trkpt><trkpt lat="45.89438630445775" lon="11.77624616339956"><ele>1389.0</ele><time>2026-03-24T14:10:48Z</time></trkpt><trkpt lat="45.89431347701632" lon="11.776241569115598"><ele>1389.0</ele><time>2026-03-24T14:10:50Z</time></trkpt><trkpt lat="45.89421038340337" lon="11.776250741030752"><ele>1387.1666666666667</ele><time>2026-03-24T14:10:52Z</time></trkpt><trkpt lat="45.89409258121597" lon="11.776263417870004"><ele>1385.3333333333333</ele><time>2026-03-24T14:10:54Z</time></trkpt><trkpt lat="45.89402237576814" lon="11.776265231789912"><ele>1383.5</ele><time>2026-03-24T14:10:55Z</time></trkpt><trkpt lat="45.893953900598724" lon="11.776270904631343"><ele>1381.6666666666665</ele><time>2026-03-24T14:10:56Z</time></trkpt><trkpt lat="45.89388844292297" lon="11.776279085292467"><ele>1379.8333333333333</ele><time>2026-03-24T14:10:57Z</time></trkpt><trkpt lat="45.893817290765746" lon="11.776318526705037"><ele>1378.0</ele><time>2026-03-24T14:10:58Z</time></trkpt><trkpt lat="45.89376419874286" lon="11.776367639168168"><ele>1378.0</ele><time>2026-03-24T14:10:59Z</time></trkpt><trkpt lat="45.893662351795754" lon="11.77647971503335"><ele>1378.0</ele><time>2026-03-24T14:11:01Z</time></trkpt><trkpt lat="45.89360403874664" lon="11.776532380983765"><ele>1378.0</ele><time>2026-03-24T14:11:02Z</time></trkpt><trkpt lat="45.893537014441165" lon="11.776592914468111"><ele>1378.0</ele><time>2026-03-24T14:11:03Z</time></trkpt><trkpt lat="45.893469940047915" lon="11.77666270734626"><ele>1378.0</ele><time>2026-03-24T14:11:04Z</time></trkpt><trkpt lat="45.893419005997465" lon="11.776743935464225"><ele>1378.0</ele><time>2026-03-24T14:11:05Z</time></trkpt><trkpt lat="45.89336431270897" lon="11.7767968257107"><ele>1379.2</ele><time>2026-03-24T14:11:06Z</time></trkpt><trkpt lat="45.89329664823861" lon="11.776842145856627"><ele>1380.4</ele><time>2026-03-24T14:11:06.999Z</time></trkpt><trkpt lat="45.89323645212506" lon="11.776893455896023"><ele>1381.6000000000001</ele><time>2026-03-24T14:11:07.999Z</time></trkpt><trkpt lat="45.893128098624" lon="11.776973557427622"><ele>1382.8000000000002</ele><time>2026-03-24T14:11:09.999Z</time></trkpt><trkpt lat="45.893038060071426" lon="11.777081958793103"><ele>1384.0</ele><time>2026-03-24T14:11:11.999Z</time></trkpt><trkpt lat="45.892943414613" lon="11.777189134075087"><ele>1378.25</ele><time>2026-03-24T14:11:13.999Z</time></trkpt><trkpt lat="45.89288711871802" lon="11.777281624818766"><ele>1372.5</ele><time>2026-03-24T14:11:15.999Z</time></trkpt><trkpt lat="45.892839960248075" lon="11.777366143029719"><ele>1366.75</ele><time>2026-03-24T14:11:18.999Z</time></trkpt><trkpt lat="45.893058004340645" lon="11.777298790131429"><ele>1361.0</ele><time>2026-03-24T14:11:39.999Z</time></trkpt><trkpt lat="45.89318361523852" lon="11.77716309432703"><ele>1361.0</ele><time>2026-03-24T14:11:41.999Z</time></trkpt><trkpt lat="45.89324690416058" lon="11.777114043550085"><ele>1361.0</ele><time>2026-03-24T14:11:42.999Z</time></trkpt><trkpt lat="45.893314844378" lon="11.777080617805904"><ele>1361.0</ele><time>2026-03-24T14:11:43.999Z</time></trkpt><trkpt lat="45.89338843561746" lon="11.777058870248121"><ele>1361.0</ele><time>2026-03-24T14:11:44.999Z</time></trkpt><trkpt lat="45.89345807444317" lon="11.777042540110774"><ele>1361.0</ele><time>2026-03-24T14:11:45.999Z</time></trkpt><trkpt lat="45.89357121219907" lon="11.77704894355609"><ele>1361.0</ele><time>2026-03-24T14:11:47.999Z</time></trkpt><trkpt lat="45.893668208633805" lon="11.777113590853329"><ele>1362.3333333333335</ele><time>2026-03-24T14:11:49.999Z</time></trkpt><trkpt lat="45.89374290710102" lon="11.777254774652457"><ele>1363.6666666666667</ele><time>2026-03-24T14:11:51.999Z</time></trkpt><trkpt lat="45.89378945134875" lon="11.77734515635675"><ele>1365.0</ele><time>2026-03-24T14:11:52.999Z</time></trkpt><trkpt lat="45.89381324973204" lon="11.777451905537731"><ele>1366.3333333333333</ele><time>2026-03-24T14:11:53.999Z</time></trkpt><trkpt lat="45.8938200284948" lon="11.777572836074349"><ele>1367.6666666666665</ele><time>2026-03-24T14:11:54.999Z</time></trkpt><trkpt lat="45.89383270554392" lon="11.77769296659724"><ele>1369.0</ele><time>2026-03-24T14:11:55.999Z</time></trkpt><trkpt lat="45.89384159071475" lon="11.777828043777903"><ele>1369.0000000000002</ele><time>2026-03-24T14:11:56.999Z</time></trkpt><trkpt lat="45.89383807327093" lon="11.77793918654468"><ele>1369.0</ele><time>2026-03-24T14:11:57.999Z</time></trkpt><trkpt lat="45.89382841893992" lon="11.778044897424628"><ele>1369.0</ele><time>2026-03-24T14:11:58.999Z</time></trkpt><trkpt lat="45.89380847593071" lon="11.778157632721891"><ele>1369.0</ele><time>2026-03-24T14:11:59.999Z</time></trkpt><trkpt lat="45.89377234555887" lon="11.77824604863335"><ele>1369.0</ele><time>2026-03-24T14:12:00.999Z</time></trkpt><trkpt lat="45.89373004681773" lon="11.778322150651944"><ele>1369.0000000000002</ele><time>2026-03-24T14:12:01.999Z</time></trkpt><trkpt lat="45.89368196272641" lon="11.778390022166336"><ele>1369.0</ele><time>2026-03-24T14:12:02.999Z</time></trkpt><trkpt lat="45.893632278496455" lon="11.778449213526127"><ele>1369.0</ele><time>2026-03-24T14:12:03.999Z</time></trkpt><trkpt lat="45.8935692302206" lon="11.778515625709291"><ele>1369.0</ele><time>2026-03-24T14:12:04.999Z</time></trkpt><trkpt lat="45.89349505688267" lon="11.778577754019718"><ele>1369.0</ele><time>2026-03-24T14:12:05.999Z</time></trkpt><trkpt lat="45.893416823179415" lon="11.778625053266342"><ele>1369.0</ele><time>2026-03-24T14:12:06.998Z</time></trkpt><trkpt lat="45.89334433440581" lon="11.778662430805781"><ele>1369.0</ele><time>2026-03-24T14:12:07.998Z</time></trkpt><trkpt lat="45.89327648393628" lon="11.77869558888923"><ele>1369.0</ele><time>2026-03-24T14:12:08.998Z</time></trkpt><trkpt lat="45.893213827484146" lon="11.778759978240476"><ele>1365.3333333333333</ele><time>2026-03-24T14:12:09.998Z</time></trkpt><trkpt lat="45.893165607978105" lon="11.77883338353221"><ele>1361.6666666666665</ele><time>2026-03-24T14:12:10.998Z</time></trkpt><trkpt lat="45.89314765471173" lon="11.778954689861395"><ele>1358.0</ele><time>2026-03-24T14:12:11.998Z</time></trkpt><trkpt lat="45.89315852778268" lon="11.7790738311088"><ele>1354.3333333333333</ele><time>2026-03-24T14:12:12.998Z</time></trkpt><trkpt lat="45.893174119181616" lon="11.779184541847181"><ele>1350.6666666666667</ele><time>2026-03-24T14:12:13.998Z</time></trkpt><trkpt lat="45.89317236382843" lon="11.77930468284268"><ele>1347.0</ele><time>2026-03-24T14:12:14.998Z</time></trkpt><trkpt lat="45.89319307216224" lon="11.779426784589184"><ele>1345.6666666666667</ele><time>2026-03-24T14:12:15.998Z</time></trkpt><trkpt lat="45.89321447388013" lon="11.779549686038084"><ele>1344.3333333333333</ele><time>2026-03-24T14:12:16.998Z</time></trkpt><trkpt lat="45.89323131013286" lon="11.779665590934648"><ele>1343.0</ele><time>2026-03-24T14:12:17.998Z</time></trkpt><trkpt lat="45.89324836668451" lon="11.779780085648534"><ele>1341.6666666666665</ele><time>2026-03-24T14:12:18.998Z</time></trkpt><trkpt lat="45.89325701549902" lon="11.779892220078867"><ele>1340.3333333333333</ele><time>2026-03-24T14:12:19.998Z</time></trkpt><trkpt lat="45.89326444454851" lon="11.78000331643648"><ele>1339.0</ele><time>2026-03-24T14:12:21Z</time></trkpt><trkpt lat="45.89328684691633" lon="11.780112297025989"><ele>1339.0</ele><time>2026-03-24T14:12:22Z</time></trkpt><trkpt lat="45.89332898700986" lon="11.780210437119221"><ele>1339.0</ele><time>2026-03-24T14:12:23Z</time></trkpt><trkpt lat="45.893383201085925" lon="11.78029139616608"><ele>1339.0</ele><time>2026-03-24T14:12:24Z</time></trkpt><trkpt lat="45.89345777194281" lon="11.7803425479982"><ele>1339.0</ele><time>2026-03-24T14:12:25Z</time></trkpt><trkpt lat="45.89353205679866" lon="11.78037787199438"><ele>1339.0</ele><time>2026-03-24T14:12:26Z</time></trkpt><trkpt lat="45.89359909445862" lon="11.78042533630609"><ele>1339.0</ele><time>2026-03-24T14:12:27Z</time></trkpt><trkpt lat="45.89364121042329" lon="11.780501935974403"><ele>1339.0</ele><time>2026-03-24T14:12:28Z</time></trkpt><trkpt lat="45.89361981305246" lon="11.780626521646504"><ele>1339.0</ele><time>2026-03-24T14:12:29Z</time></trkpt><trkpt lat="45.893686896883835" lon="11.780768671373947"><ele>1339.0</ele><time>2026-03-24T14:12:31Z</time></trkpt><trkpt lat="45.89371713415042" lon="11.780866938295132"><ele>1339.0</ele><time>2026-03-24T14:12:32Z</time></trkpt><trkpt lat="45.89378841096269" lon="11.780953584777098"><ele>1339.0</ele><time>2026-03-24T14:12:33Z</time></trkpt><trkpt lat="45.893857031595914" lon="11.78105501154146"><ele>1336.8000000000002</ele><time>2026-03-24T14:12:34Z</time></trkpt><trkpt lat="45.893929461173165" lon="11.781156525730523"><ele>1334.6000000000001</ele><time>2026-03-24T14:12:35Z</time></trkpt><trkpt lat="45.894006510772236" lon="11.781250644348615"><ele>1332.4</ele><time>2026-03-24T14:12:36Z</time></trkpt><trkpt lat="45.89405326128552" lon="11.781360336505605"><ele>1330.2</ele><time>2026-03-24T14:12:37Z</time></trkpt><trkpt lat="45.89411791363318" lon="11.781445747039124"><ele>1328.0</ele><time>2026-03-24T14:12:38Z</time></trkpt><trkpt lat="45.894190831737816" lon="11.78149177797262"><ele>1328.5</ele><time>2026-03-24T14:12:39Z</time></trkpt><trkpt lat="45.89426195230508" lon="11.781539292526967"><ele>1329.0</ele><time>2026-03-24T14:12:40Z</time></trkpt><trkpt lat="45.89433700587561" lon="11.781566985287169"><ele>1329.5</ele><time>2026-03-24T14:12:41Z</time></trkpt><trkpt lat="45.8944010447836" lon="11.78159500864011"><ele>1330.0</ele><time>2026-03-24T14:12:42Z</time></trkpt><trkpt lat="45.894450970551496" lon="11.78165302604496"><ele>1330.5</ele><time>2026-03-24T14:12:43Z</time></trkpt><trkpt lat="45.89451582888139" lon="11.781763388930647"><ele>1331.0</ele><time>2026-03-24T14:12:45Z</time></trkpt><trkpt lat="45.89459479053319" lon="11.781922797825812"><ele>1328.1666666666667</ele><time>2026-03-24T14:12:47Z</time></trkpt><trkpt lat="45.89462423050098" lon="11.782031616668984"><ele>1325.3333333333335</ele><time>2026-03-24T14:12:48Z</time></trkpt><trkpt lat="45.894666886748716" lon="11.782134588793646"><ele>1322.5</ele><time>2026-03-24T14:12:49Z</time></trkpt><trkpt lat="45.89470753312182" lon="11.782229070195285"><ele>1319.6666666666667</ele><time>2026-03-24T14:12:50Z</time></trkpt><trkpt lat="45.89473428680014" lon="11.782322264075487"><ele>1316.8333333333333</ele><time>2026-03-24T14:12:51Z</time></trkpt><trkpt lat="45.894690128045035" lon="11.782471312188664"><ele>1314.0</ele><time>2026-03-24T14:12:53Z</time></trkpt><trkpt lat="45.89458730855772" lon="11.782547549278119"><ele>1314.0</ele><time>2026-03-24T14:12:55Z</time></trkpt><trkpt lat="45.89453477407878" lon="11.782617020612761"><ele>1314.0</ele><time>2026-03-24T14:12:56Z</time></trkpt><trkpt lat="45.89447916953005" lon="11.782692941155418"><ele>1314.0</ele><time>2026-03-24T14:12:57Z</time></trkpt><trkpt lat="45.89443060503785" lon="11.782783965123764"><ele>1314.0</ele><time>2026-03-24T14:12:58Z</time></trkpt><trkpt lat="45.89439670451974" lon="11.782876327840953"><ele>1314.0</ele><time>2026-03-24T14:12:59Z</time></trkpt><trkpt lat="45.89436270721374" lon="11.782968434650005"><ele>1314.0</ele><time>2026-03-24T14:13:00Z</time></trkpt><trkpt lat="45.894319167356635" lon="11.78304541231941"><ele>1314.0</ele><time>2026-03-24T14:13:01Z</time></trkpt><trkpt lat="45.894201256782694" lon="11.783162080229658"><ele>1312.5</ele><time>2026-03-24T14:13:03Z</time></trkpt><trkpt lat="45.89412981789442" lon="11.783227574646688"><ele>1311.0</ele><time>2026-03-24T14:13:04Z</time></trkpt><trkpt lat="45.89407238219954" lon="11.783293691440868"><ele>1309.5</ele><time>2026-03-24T14:13:05Z</time></trkpt><trkpt lat="45.894020070668184" lon="11.783373859324291"><ele>1308.0</ele><time>2026-03-24T14:13:06Z</time></trkpt><trkpt lat="45.8939823418946" lon="11.783465048329253"><ele>1306.5</ele><time>2026-03-24T14:13:07Z</time></trkpt><trkpt lat="45.89391943955591" lon="11.783599840142848"><ele>1305.0</ele><time>2026-03-24T14:13:09Z</time></trkpt><trkpt lat="45.893898291368686" lon="11.783743186576919"><ele>1303.4</ele><time>2026-03-24T14:13:10.999Z</time></trkpt><trkpt lat="45.893961671396085" lon="11.783844590631615"><ele>1301.8</ele><time>2026-03-24T14:13:13.999Z</time></trkpt><trkpt lat="45.89408657792483" lon="11.783807469610398"><ele>1300.1999999999998</ele><time>2026-03-24T14:13:16.999Z</time></trkpt><trkpt lat="45.894179039242864" lon="11.783758739505966"><ele>1298.6</ele><time>2026-03-24T14:13:18.999Z</time></trkpt><trkpt lat="45.89423936470669" lon="11.783719251942463"><ele>1297.0</ele><time>2026-03-24T14:13:19.999Z</time></trkpt><trkpt lat="45.89430604877716" lon="11.783679353453378"><ele>1295.3333333333333</ele><time>2026-03-24T14:13:20.999Z</time></trkpt><trkpt lat="45.89439132852387" lon="11.783667502341851"><ele>1293.6666666666665</ele><time>2026-03-24T14:13:21.999Z</time></trkpt><trkpt lat="45.894473090727956" lon="11.783659036401106"><ele>1292.0</ele><time>2026-03-24T14:13:22.999Z</time></trkpt><trkpt lat="45.89455325060733" lon="11.783655606994342"><ele>1290.3333333333333</ele><time>2026-03-24T14:13:23.999Z</time></trkpt><trkpt lat="45.89463554556482" lon="11.783627247968653"><ele>1288.6666666666667</ele><time>2026-03-24T14:13:24.999Z</time></trkpt><trkpt lat="45.89471916742981" lon="11.783595086091301"><ele>1287.0</ele><time>2026-03-24T14:13:25.999Z</time></trkpt><trkpt lat="45.894804604066714" lon="11.78355874293949"><ele>1287.0</ele><time>2026-03-24T14:13:26.999Z</time></trkpt><trkpt lat="45.894889669503726" lon="11.783528594629601"><ele>1287.0</ele><time>2026-03-24T14:13:27.999Z</time></trkpt><trkpt lat="45.8949801258056" lon="11.783503668650594"><ele>1287.0</ele><time>2026-03-24T14:13:28.999Z</time></trkpt><trkpt lat="45.8950696249169" lon="11.783480361465799"><ele>1287.0</ele><time>2026-03-24T14:13:29.999Z</time></trkpt><trkpt lat="45.89515725805803" lon="11.783451209647675"><ele>1287.0</ele><time>2026-03-24T14:13:30.999Z</time></trkpt><trkpt lat="45.89523884800259" lon="11.78341240266124"><ele>1287.0</ele><time>2026-03-24T14:13:31.999Z</time></trkpt><trkpt lat="45.89531824028879" lon="11.783361600015358"><ele>1287.6666666666667</ele><time>2026-03-24T14:13:32.999Z</time></trkpt><trkpt lat="45.89540129453987" lon="11.78332945647123"><ele>1288.3333333333333</ele><time>2026-03-24T14:13:33.999Z</time></trkpt><trkpt lat="45.89548385588525" lon="11.783303446231582"><ele>1289.0</ele><time>2026-03-24T14:13:34.999Z</time></trkpt><trkpt lat="45.89556842397513" lon="11.7832936160984"><ele>1289.6666666666665</ele><time>2026-03-24T14:13:35.999Z</time></trkpt><trkpt lat="45.89565215262783" lon="11.783284115283795"><ele>1290.3333333333333</ele><time>2026-03-24T14:13:36.999Z</time></trkpt><trkpt lat="45.89572886709109" lon="11.783265171598888"><ele>1291.0</ele><time>2026-03-24T14:13:37.999Z</time></trkpt><trkpt lat="45.895811345137034" lon="11.783311643666087"><ele>1291.0</ele><time>2026-03-24T14:13:38.999Z</time></trkpt><trkpt lat="45.895906935967055" lon="11.78334495129248"><ele>1291.0</ele><time>2026-03-24T14:13:39.999Z</time></trkpt><trkpt lat="45.89600268432804" lon="11.783375673586882"><ele>1291.0</ele><time>2026-03-24T14:13:40.999Z</time></trkpt><trkpt lat="45.89609294619996" lon="11.783382109571924"><ele>1291.0</ele><time>2026-03-24T14:13:41.999Z</time></trkpt><trkpt lat="45.896171192533416" lon="11.783429616810546"><ele>1291.0</ele><time>2026-03-24T14:13:42.999Z</time></trkpt><trkpt lat="45.89625439313359" lon="11.783449494947588"><ele>1291.0</ele><time>2026-03-24T14:13:43.999Z</time></trkpt><trkpt lat="45.896331979366614" lon="11.783486567901171"><ele>1291.0</ele><time>2026-03-24T14:13:44.999Z</time></trkpt><trkpt lat="45.896406417686634" lon="11.783522224800874"><ele>1291.0</ele><time>2026-03-24T14:13:45.999Z</time></trkpt><trkpt lat="45.896470322173066" lon="11.78356781137293"><ele>1291.0</ele><time>2026-03-24T14:13:46.999Z</time></trkpt><trkpt lat="45.8965390792261" lon="11.78357988994825"><ele>1291.0</ele><time>2026-03-24T14:13:47.999Z</time></trkpt><trkpt lat="45.896610576976585" lon="11.783601891917607"><ele>1291.0</ele><time>2026-03-24T14:13:48.999Z</time></trkpt><trkpt lat="45.89669054651726" lon="11.783610056961614"><ele>1288.6666666666665</ele><time>2026-03-24T14:13:49.999Z</time></trkpt><trkpt lat="45.89677769117337" lon="11.783620681320194"><ele>1286.3333333333333</ele><time>2026-03-24T14:13:50.999Z</time></trkpt><trkpt lat="45.89687130330277" lon="11.783632403758682"><ele>1284.0</ele><time>2026-03-24T14:13:51.999Z</time></trkpt><trkpt lat="45.896953587426474" lon="11.783659413020198"><ele>1281.6666666666667</ele><time>2026-03-24T14:13:52.999Z</time></trkpt><trkpt lat="45.897025251641686" lon="11.783711240599136"><ele>1279.3333333333335</ele><time>2026-03-24T14:13:53.999Z</time></trkpt><trkpt lat="45.8970906234992" lon="11.783779065943007"><ele>1277.0</ele><time>2026-03-24T14:13:54.999Z</time></trkpt><trkpt lat="45.897158007745716" lon="11.783851687626424"><ele>1277.0</ele><time>2026-03-24T14:13:55.999Z</time></trkpt><trkpt lat="45.897233500121224" lon="11.783914699309655"><ele>1277.0</ele><time>2026-03-24T14:13:56.999Z</time></trkpt><trkpt lat="45.897318369539946" lon="11.783980776797224"><ele>1277.0</ele><time>2026-03-24T14:13:57.999Z</time></trkpt><trkpt lat="45.897409241389795" lon="11.78405659543952"><ele>1277.0</ele><time>2026-03-24T14:13:58.999Z</time></trkpt><trkpt lat="45.89750037033813" lon="11.784138813490797"><ele>1277.0</ele><time>2026-03-24T14:13:59.999Z</time></trkpt><trkpt lat="45.8975852797655" lon="11.784242718375696"><ele>1278.5</ele><time>2026-03-24T14:14:00.999Z</time></trkpt><trkpt lat="45.8976893512077" lon="11.7843310900016"><ele>1280.0</ele><time>2026-03-24T14:14:01.999Z</time></trkpt><trkpt lat="45.897789871834995" lon="11.784411869200405"><ele>1281.5</ele><time>2026-03-24T14:14:02.999Z</time></trkpt><trkpt lat="45.8978854402647" lon="11.784488738712671"><ele>1283.0</ele><time>2026-03-24T14:14:03.999Z</time></trkpt><trkpt lat="45.89799549272657" lon="11.784573540307516"><ele>1281.4</ele><time>2026-03-24T14:14:04.999Z</time></trkpt><trkpt lat="45.89809610338797" lon="11.7846687105118"><ele>1279.8000000000002</ele><time>2026-03-24T14:14:05.999Z</time></trkpt><trkpt lat="45.89819474802857" lon="11.784757948805119"><ele>1278.2</ele><time>2026-03-24T14:14:06.999Z</time></trkpt><trkpt lat="45.89828495746389" lon="11.784843027637827"><ele>1276.6</ele><time>2026-03-24T14:14:07.998Z</time></trkpt><trkpt lat="45.89836853672338" lon="11.784911134690587"><ele>1275.0</ele><time>2026-03-24T14:14:08.998Z</time></trkpt><trkpt lat="45.8984528607533" lon="11.784972304117431"><ele>1275.0</ele><time>2026-03-24T14:14:09.998Z</time></trkpt><trkpt lat="45.898526440571494" lon="11.785046872082406"><ele>1275.0</ele><time>2026-03-24T14:14:10.998Z</time></trkpt><trkpt lat="45.8985918113393" lon="11.785134171022419"><ele>1275.0</ele><time>2026-03-24T14:14:11.998Z</time></trkpt><trkpt lat="45.898656456245895" lon="11.785206408518581"><ele>1275.0</ele><time>2026-03-24T14:14:12.998Z</time></trkpt><trkpt lat="45.89873286802126" lon="11.785298897924964"><ele>1275.0</ele><time>2026-03-24T14:14:13.998Z</time></trkpt><trkpt lat="45.898817124539676" lon="11.785380622079753"><ele>1271.75</ele><time>2026-03-24T14:14:14.998Z</time></trkpt><trkpt lat="45.8989059890483" lon="11.785469038473154"><ele>1268.5</ele><time>2026-03-24T14:14:15.998Z</time></trkpt><trkpt lat="45.89898918550032" lon="11.785568898468163"><ele>1265.25</ele><time>2026-03-24T14:14:16.998Z</time></trkpt><trkpt lat="45.89907695985661" lon="11.785680979746889"><ele>1262.0</ele><time>2026-03-24T14:14:17.998Z</time></trkpt><trkpt lat="45.89916536045905" lon="11.785800686063581"><ele>1261.75</ele><time>2026-03-24T14:14:18.998Z</time></trkpt><trkpt lat="45.8992571638789" lon="11.785917871219318"><ele>1261.5</ele><time>2026-03-24T14:14:19.998Z</time></trkpt><trkpt lat="45.899350189721666" lon="11.786034873912953"><ele>1261.25</ele><time>2026-03-24T14:14:20.998Z</time></trkpt><trkpt lat="45.899448837367736" lon="11.786152059121283"><ele>1261.0</ele><time>2026-03-24T14:14:21.998Z</time></trkpt><trkpt lat="45.89953981640093" lon="11.786266194788066"><ele>1261.0</ele><time>2026-03-24T14:14:22.998Z</time></trkpt><trkpt lat="45.89962067792661" lon="11.786365005362732"><ele>1261.0</ele><time>2026-03-24T14:14:23.998Z</time></trkpt><trkpt lat="45.899689983027706" lon="11.786455044659103"><ele>1261.0</ele><time>2026-03-24T14:14:24.998Z</time></trkpt><trkpt lat="45.89975355545503" lon="11.786546104715148"><ele>1261.0</ele><time>2026-03-24T14:14:25.998Z</time></trkpt><trkpt lat="45.89980396473852" lon="11.786644947493121"><ele>1261.0</ele><time>2026-03-24T14:14:27Z</time></trkpt><trkpt lat="45.89984538298961" lon="11.78675547494061"><ele>1259.3999999999999</ele><time>2026-03-24T14:14:28Z</time></trkpt><trkpt lat="45.899878326885336" lon="11.786887907605946"><ele>1257.8</ele><time>2026-03-24T14:14:29Z</time></trkpt><trkpt lat="45.89990519448597" lon="11.787020384447603"><ele>1256.1999999999998</ele><time>2026-03-24T14:14:30Z</time></trkpt><trkpt lat="45.89991908255062" lon="11.787173693433928"><ele>1254.6</ele><time>2026-03-24T14:14:31Z</time></trkpt><trkpt lat="45.89993715916551" lon="11.787340220922648"><ele>1253.0</ele><time>2026-03-24T14:14:32Z</time></trkpt><trkpt lat="45.899960173137565" lon="11.787511219944571"><ele>1253.0</ele><time>2026-03-24T14:14:33Z</time></trkpt><trkpt lat="45.899990789389115" lon="11.787665777839077"><ele>1253.0</ele><time>2026-03-24T14:14:34Z</time></trkpt><trkpt lat="45.90001773911987" lon="11.787802512712236"><ele>1253.0</ele><time>2026-03-24T14:14:35Z</time></trkpt><trkpt lat="45.90004631593505" lon="11.78791093317998"><ele>1253.0</ele><time>2026-03-24T14:14:36Z</time></trkpt><trkpt lat="45.90006579271772" lon="11.787999118297993"><ele>1253.0</ele><time>2026-03-24T14:14:37Z</time></trkpt><trkpt lat="45.90009147938147" lon="11.788151011875831"><ele>1252.8</ele><time>2026-03-24T14:14:39Z</time></trkpt><trkpt lat="45.90009087564527" lon="11.788305342238417"><ele>1252.6</ele><time>2026-03-24T14:14:41Z</time></trkpt><trkpt lat="45.90004796004669" lon="11.788450172096454"><ele>1252.4</ele><time>2026-03-24T14:14:43Z</time></trkpt><trkpt lat="45.89998386409571" lon="11.788584841339661"><ele>1252.2</ele><time>2026-03-24T14:14:45Z</time></trkpt><trkpt lat="45.8999576457027" lon="11.788736292965911"><ele>1252.0</ele><time>2026-03-24T14:14:47Z</time></trkpt><trkpt lat="45.8999865249304" lon="11.788874064928757"><ele>1250.4</ele><time>2026-03-24T14:14:49Z</time></trkpt><trkpt lat="45.900045982193625" lon="11.789004660002293"><ele>1248.8000000000002</ele><time>2026-03-24T14:14:51Z</time></trkpt><trkpt lat="45.90012629318614" lon="11.789122548379769"><ele>1247.2</ele><time>2026-03-24T14:14:53Z</time></trkpt><trkpt lat="45.90022458308219" lon="11.78922444715539"><ele>1245.6000000000001</ele><time>2026-03-24T14:14:55Z</time></trkpt><trkpt lat="45.900280464521074" lon="11.789267917481537"><ele>1244.0</ele><time>2026-03-24T14:14:56Z</time></trkpt><trkpt lat="45.90033996283599" lon="11.789318399725977"><ele>1243.6666666666667</ele><time>2026-03-24T14:14:57Z</time></trkpt><trkpt lat="45.900403539804906" lon="11.789378190085678"><ele>1243.3333333333335</ele><time>2026-03-24T14:14:58Z</time></trkpt><trkpt lat="45.90045916412189" lon="11.789457107749385"><ele>1243.0</ele><time>2026-03-24T14:14:59Z</time></trkpt><trkpt lat="45.90051570300699" lon="11.789542086965236"><ele>1242.6666666666667</ele><time>2026-03-24T14:15:00Z</time></trkpt><trkpt lat="45.90056825274973" lon="11.789620554803792"><ele>1242.3333333333333</ele><time>2026-03-24T14:15:01Z</time></trkpt><trkpt lat="45.90063751946349" lon="11.789731949141013"><ele>1242.0</ele><time>2026-03-24T14:15:03Z</time></trkpt><trkpt lat="45.90067395810989" lon="11.789810357819759"><ele>1242.0</ele><time>2026-03-24T14:15:04.999Z</time></trkpt><trkpt lat="45.90072017609803" lon="11.789908315881013"><ele>1242.0</ele><time>2026-03-24T14:15:07.999Z</time></trkpt><trkpt lat="45.900784240296815" lon="11.790038764939505"><ele>1242.0</ele><time>2026-03-24T14:15:09.999Z</time></trkpt><trkpt lat="45.900839001846414" lon="11.790119225574006"><ele>1242.0</ele><time>2026-03-24T14:15:10.999Z</time></trkpt><trkpt lat="45.90090845285149" lon="11.790197995511921"><ele>1242.0</ele><time>2026-03-24T14:15:11.999Z</time></trkpt><trkpt lat="45.90099508242261" lon="11.790265910418709"><ele>1240.8</ele><time>2026-03-24T14:15:12.999Z</time></trkpt><trkpt lat="45.901075754150696" lon="11.790331830296077"><ele>1239.6</ele><time>2026-03-24T14:15:13.999Z</time></trkpt><trkpt lat="45.901140520723516" lon="11.790409822280214"><ele>1238.3999999999999</ele><time>2026-03-24T14:15:14.999Z</time></trkpt><trkpt lat="45.90121979214524" lon="11.790527034364969"><ele>1237.2</ele><time>2026-03-24T14:15:15.999Z</time></trkpt><trkpt lat="45.90128949147503" lon="11.790647477204843"><ele>1236.0</ele><time>2026-03-24T14:15:16.999Z</time></trkpt><trkpt lat="45.90134692280846" lon="11.790779120389741"><ele>1236.0</ele><time>2026-03-24T14:15:17.999Z</time></trkpt><trkpt lat="45.90140036949647" lon="11.790908067776204"><ele>1236.0</ele><time>2026-03-24T14:15:18.999Z</time></trkpt><trkpt lat="45.90144407218347" lon="11.791040055573976"><ele>1236.0</ele><time>2026-03-24T14:15:19.999Z</time></trkpt><trkpt lat="45.90148422321266" lon="11.791170819031738"><ele>1236.0</ele><time>2026-03-24T14:15:20.999Z</time></trkpt><trkpt lat="45.90152805751569" lon="11.79129816951756"><ele>1236.0</ele><time>2026-03-24T14:15:21.999Z</time></trkpt><trkpt lat="45.90158236872008" lon="11.791419001546206"><ele>1236.2</ele><time>2026-03-24T14:15:22.999Z</time></trkpt><trkpt lat="45.901643669331726" lon="11.791528497882162"><ele>1236.3999999999999</ele><time>2026-03-24T14:15:23.999Z</time></trkpt><trkpt lat="45.90171052342178" lon="11.791634304983493"><ele>1236.6</ele><time>2026-03-24T14:15:24.999Z</time></trkpt><trkpt lat="45.90177703282509" lon="11.79173431065235"><ele>1236.8</ele><time>2026-03-24T14:15:25.999Z</time></trkpt><trkpt lat="45.901832779093795" lon="11.791847453990858"><ele>1237.0</ele><time>2026-03-24T14:15:26.999Z</time></trkpt><trkpt lat="45.901892619343464" lon="11.791909043295073"><ele>1237.0</ele><time>2026-03-24T14:15:27.999Z</time></trkpt><trkpt lat="45.90193441472828" lon="11.792002652351982"><ele>1237.0</ele><time>2026-03-24T14:15:28.999Z</time></trkpt><trkpt lat="45.901967817450114" lon="11.792122509600873"><ele>1237.0</ele><time>2026-03-24T14:15:29.999Z</time></trkpt><trkpt lat="45.901989607800814" lon="11.79226290068654"><ele>1237.0</ele><time>2026-03-24T14:15:30.999Z</time></trkpt><trkpt lat="45.90201922904671" lon="11.792407280540408"><ele>1237.0</ele><time>2026-03-24T14:15:31.999Z</time></trkpt><trkpt lat="45.902063015807414" lon="11.792555864582512"><ele>1237.4</ele><time>2026-03-24T14:15:32.999Z</time></trkpt><trkpt lat="45.9021070347423" lon="11.792708417188727"><ele>1237.8000000000002</ele><time>2026-03-24T14:15:33.999Z</time></trkpt><trkpt lat="45.902148777427506" lon="11.79286361159522"><ele>1238.2</ele><time>2026-03-24T14:15:34.999Z</time></trkpt><trkpt lat="45.90218393850494" lon="11.79300702246456"><ele>1238.6000000000001</ele><time>2026-03-24T14:15:35.999Z</time></trkpt><trkpt lat="45.90220979452361" lon="11.793141897054348"><ele>1239.0</ele><time>2026-03-24T14:15:36.999Z</time></trkpt><trkpt lat="45.90224074478744" lon="11.793258658597265"><ele>1239.0</ele><time>2026-03-24T14:15:37.999Z</time></trkpt><trkpt lat="45.90226854415309" lon="11.793372635036041"><ele>1239.0</ele><time>2026-03-24T14:15:38.999Z</time></trkpt><trkpt lat="45.90230512321257" lon="11.793469379210324"><ele>1239.0</ele><time>2026-03-24T14:15:39.999Z</time></trkpt><trkpt lat="45.902352886698445" lon="11.79355173330593"><ele>1239.0</ele><time>2026-03-24T14:15:40.999Z</time></trkpt><trkpt lat="45.90240838246966" lon="11.793621508119928"><ele>1239.0</ele><time>2026-03-24T14:15:41.999Z</time></trkpt><trkpt lat="45.90247320901116" lon="11.793670863451583"><ele>1239.0</ele><time>2026-03-24T14:15:42.999Z</time></trkpt><trkpt lat="45.902547353239704" lon="11.793701988922091"><ele>1239.5</ele><time>2026-03-24T14:15:43.999Z</time></trkpt><trkpt lat="45.902624395234454" lon="11.793721016826954"><ele>1240.0</ele><time>2026-03-24T14:15:44.999Z</time></trkpt><trkpt lat="45.90270319392685" lon="11.793743354107626"><ele>1240.5</ele><time>2026-03-24T14:15:45.999Z</time></trkpt><trkpt lat="45.90277601986303" lon="11.793781097410063"><ele>1241.0</ele><time>2026-03-24T14:15:46.999Z</time></trkpt><trkpt lat="45.902830504992025" lon="11.793841235354723"><ele>1241.5</ele><time>2026-03-24T14:15:47.999Z</time></trkpt><trkpt lat="45.90287468594062" lon="11.7939164122366"><ele>1242.0</ele><time>2026-03-24T14:15:48.999Z</time></trkpt><trkpt lat="45.90292155529157" lon="11.794011695260117"><ele>1242.0</ele><time>2026-03-24T14:15:49.999Z</time></trkpt><trkpt lat="45.90297025467732" lon="11.794115058988947"><ele>1242.0</ele><time>2026-03-24T14:15:50.999Z</time></trkpt><trkpt lat="45.90305117847431" lon="11.794212841829443"><ele>1242.0</ele><time>2026-03-24T14:15:51.999Z</time></trkpt><trkpt lat="45.90309666500724" lon="11.794321764767927"><ele>1242.0</ele><time>2026-03-24T14:15:52.999Z</time></trkpt><trkpt lat="45.903140224966876" lon="11.794424533402921"><ele>1242.0</ele><time>2026-03-24T14:15:53.999Z</time></trkpt><trkpt lat="45.90317894896925" lon="11.794522617271017"><ele>1242.0</ele><time>2026-03-24T14:15:54.999Z</time></trkpt><trkpt lat="45.903208691031416" lon="11.79461219920413"><ele>1242.5</ele><time>2026-03-24T14:15:55.999Z</time></trkpt><trkpt lat="45.903246571052335" lon="11.794695450998285"><ele>1243.0</ele><time>2026-03-24T14:15:56.999Z</time></trkpt><trkpt lat="45.90328786624932" lon="11.794772567149051"><ele>1243.5</ele><time>2026-03-24T14:15:57.999Z</time></trkpt><trkpt lat="45.903329549426935" lon="11.794845131299565"><ele>1244.0</ele><time>2026-03-24T14:15:58.999Z</time></trkpt><trkpt lat="45.903364631914776" lon="11.794979520784356"><ele>1244.5</ele><time>2026-03-24T14:16:00.999Z</time></trkpt><trkpt lat="45.90337167788991" lon="11.795102332602788"><ele>1245.0</ele><time>2026-03-24T14:16:03.998Z</time></trkpt><trkpt lat="45.903339252231575" lon="11.795212401268651"><ele>1245.8</ele><time>2026-03-24T14:16:05.998Z</time></trkpt><trkpt lat="45.9032970851516" lon="11.795334653400946"><ele>1246.6</ele><time>2026-03-24T14:16:07.998Z</time></trkpt><trkpt lat="45.903255905249786" lon="11.795487753534536"><ele>1247.4</ele><time>2026-03-24T14:16:09.998Z</time></trkpt><trkpt lat="45.90325382392849" lon="11.79563631187716"><ele>1248.2</ele><time>2026-03-24T14:16:11.998Z</time></trkpt><trkpt lat="45.9032880058151" lon="11.79573905080279"><ele>1249.0</ele><time>2026-03-24T14:16:13.998Z</time></trkpt><trkpt lat="45.90333684738808" lon="11.795843655302598"><ele>1249.0</ele><time>2026-03-24T14:16:16.998Z</time></trkpt><trkpt lat="45.90338108442585" lon="11.795914140708014"><ele>1249.0</ele><time>2026-03-24T14:16:18.998Z</time></trkpt><trkpt lat="45.903435018563286" lon="11.796011815712147"><ele>1249.0</ele><time>2026-03-24T14:16:20.998Z</time></trkpt><trkpt lat="45.90349397850339" lon="11.796118114341459"><ele>1249.0</ele><time>2026-03-24T14:16:22.998Z</time></trkpt><trkpt lat="45.903540929897815" lon="11.796235698141532"><ele>1249.0</ele><time>2026-03-24T14:16:24.998Z</time></trkpt><trkpt lat="45.903578289611644" lon="11.796348692277386"><ele>1249.0</ele><time>2026-03-24T14:16:26.998Z</time></trkpt><trkpt lat="45.90360872323524" lon="11.796448713278672"><ele>1251.8333333333333</ele><time>2026-03-24T14:16:28.998Z</time></trkpt><trkpt lat="45.90363254592857" lon="11.796552960475529"><ele>1254.6666666666665</ele><time>2026-03-24T14:16:31.998Z</time></trkpt><trkpt lat="45.90358850015307" lon="11.796432779328276"><ele>1257.5</ele><time>2026-03-24T14:21:56.999Z</time></trkpt><trkpt lat="45.903544098685764" lon="11.796346458247482"><ele>1260.3333333333333</ele><time>2026-03-24T14:21:59.999Z</time></trkpt><trkpt lat="45.90350113256892" lon="11.796206402703183"><ele>1263.1666666666667</ele><time>2026-03-24T14:22:01.999Z</time></trkpt><trkpt lat="45.90344582536126" lon="11.79609863732842"><ele>1266.0</ele><time>2026-03-24T14:22:04.999Z</time></trkpt><trkpt lat="45.90340382012069" lon="11.796022181275925"><ele>1263.1666666666667</ele><time>2026-03-24T14:22:06.999Z</time></trkpt><trkpt lat="45.90336255518017" lon="11.795939976797914"><ele>1260.3333333333333</ele><time>2026-03-24T14:22:08.999Z</time></trkpt><trkpt lat="45.90331920463671" lon="11.795846869175907"><ele>1257.5</ele><time>2026-03-24T14:22:10.999Z</time></trkpt><trkpt lat="45.90326901209029" lon="11.795757654120036"><ele>1254.6666666666665</ele><time>2026-03-24T14:22:12.999Z</time></trkpt><trkpt lat="45.903233507522145" lon="11.795628732528376"><ele>1251.8333333333333</ele><time>2026-03-24T14:22:14.999Z</time></trkpt><trkpt lat="45.90323940407726" lon="11.795475573405657"><ele>1249.0</ele><time>2026-03-24T14:22:16.999Z</time></trkpt><trkpt lat="45.90326991373705" lon="11.795340158049695"><ele>1249.0</ele><time>2026-03-24T14:22:18.998Z</time></trkpt><trkpt lat="45.90329323568853" lon="11.795253559287096"><ele>1249.0</ele><time>2026-03-24T14:22:19.998Z</time></trkpt><trkpt lat="45.90332923802474" lon="11.795147022670914"><ele>1249.0</ele><time>2026-03-24T14:22:21.998Z</time></trkpt><trkpt lat="45.90334119503834" lon="11.79502234784724"><ele>1249.0</ele><time>2026-03-24T14:22:23.998Z</time></trkpt><trkpt lat="45.90331292121456" lon="11.794876101263467"><ele>1249.0</ele><time>2026-03-24T14:22:25.998Z</time></trkpt><trkpt lat="45.903258223139936" lon="11.79471961803759"><ele>1248.4285714285713</ele><time>2026-03-24T14:22:27.998Z</time></trkpt><trkpt lat="45.90322066396798" lon="11.794640896361537"><ele>1247.857142857143</ele><time>2026-03-24T14:22:28.998Z</time></trkpt><trkpt lat="45.903177977832314" lon="11.794565647015487"><ele>1247.2857142857142</ele><time>2026-03-24T14:22:29.998Z</time></trkpt><trkpt lat="45.903133202831526" lon="11.794483323080103"><ele>1246.7142857142858</ele><time>2026-03-24T14:22:30.998Z</time></trkpt><trkpt lat="45.9030892539136" lon="11.794395783720718"><ele>1246.142857142857</ele><time>2026-03-24T14:22:31.998Z</time></trkpt><trkpt lat="45.903045535851454" lon="11.794298093858245"><ele>1245.5714285714284</ele><time>2026-03-24T14:22:32.998Z</time></trkpt><trkpt lat="45.903003183446764" lon="11.794202255192074"><ele>1245.0</ele><time>2026-03-24T14:22:33.998Z</time></trkpt><trkpt lat="45.90296577798073" lon="11.794113058409607"><ele>1244.5</ele><time>2026-03-24T14:22:34.998Z</time></trkpt><trkpt lat="45.902922339862585" lon="11.794016923065481"><ele>1244.0</ele><time>2026-03-24T14:22:35.998Z</time></trkpt><trkpt lat="45.90287622730157" lon="11.793932285046324"><ele>1243.5</ele><time>2026-03-24T14:22:36.998Z</time></trkpt><trkpt lat="45.90282095035886" lon="11.793853669921232"><ele>1243.0</ele><time>2026-03-24T14:22:37.998Z</time></trkpt><trkpt lat="45.902779035886795" lon="11.793766364008475"><ele>1242.5</ele><time>2026-03-24T14:22:38.998Z</time></trkpt><trkpt lat="45.902712176626615" lon="11.793709431371278"><ele>1242.0</ele><time>2026-03-24T14:22:39.998Z</time></trkpt><trkpt lat="45.902633318788176" lon="11.793689851487986"><ele>1241.5</ele><time>2026-03-24T14:22:40.998Z</time></trkpt><trkpt lat="45.902559163125815" lon="11.793665419588962"><ele>1241.0</ele><time>2026-03-24T14:22:41.998Z</time></trkpt><trkpt lat="45.90249330013741" lon="11.793641646788227"><ele>1240.5</ele><time>2026-03-24T14:22:42.998Z</time></trkpt><trkpt lat="45.90242326129034" lon="11.793599995874535"><ele>1240.0</ele><time>2026-03-24T14:22:43.998Z</time></trkpt><trkpt lat="45.90235905639165" lon="11.793539510276666"><ele>1239.5</ele><time>2026-03-24T14:22:44.998Z</time></trkpt><trkpt lat="45.902315492090295" lon="11.79345585840031"><ele>1239.0</ele><time>2026-03-24T14:22:45.998Z</time></trkpt><trkpt lat="45.90226485053962" lon="11.793345388814101"><ele>1239.0</ele><time>2026-03-24T14:22:46.998Z</time></trkpt><trkpt lat="45.90222865316383" lon="11.793202551604907"><ele>1239.0</ele><time>2026-03-24T14:22:47.998Z</time></trkpt><trkpt lat="45.90219444363194" lon="11.793051927052893"><ele>1239.0</ele><time>2026-03-24T14:22:48.998Z</time></trkpt><trkpt lat="45.9021574604474" lon="11.792891628442886"><ele>1239.0</ele><time>2026-03-24T14:22:49.998Z</time></trkpt><trkpt lat="45.902116218614275" lon="11.7927190038929"><ele>1238.6000000000001</ele><time>2026-03-24T14:22:50.999Z</time></trkpt><trkpt lat="45.90207390749641" lon="11.792561750759598"><ele>1238.2</ele><time>2026-03-24T14:22:51.999Z</time></trkpt><trkpt lat="45.902033154033184" lon="11.792415666933215"><ele>1237.8000000000002</ele><time>2026-03-24T14:22:52.999Z</time></trkpt><trkpt lat="45.90199453939599" lon="11.792299033527721"><ele>1237.4</ele><time>2026-03-24T14:22:53.999Z</time></trkpt><trkpt lat="45.90196307749955" lon="11.792190074429117"><ele>1237.0</ele><time>2026-03-24T14:22:54.999Z</time></trkpt><trkpt lat="45.90193579580759" lon="11.79208288434509"><ele>1237.0</ele><time>2026-03-24T14:22:55.999Z</time></trkpt><trkpt lat="45.90190633335069" lon="11.791968132569226"><ele>1237.0</ele><time>2026-03-24T14:22:56.999Z</time></trkpt><trkpt lat="45.90188237186288" lon="11.791851931684656"><ele>1237.0</ele><time>2026-03-24T14:22:58Z</time></trkpt><trkpt lat="45.901833381532676" lon="11.791757833976884"><ele>1237.0</ele><time>2026-03-24T14:22:59Z</time></trkpt><trkpt lat="45.90174400120712" lon="11.791696634528297"><ele>1237.0</ele><time>2026-03-24T14:23:00Z</time></trkpt><trkpt lat="45.9016812763703" lon="11.791585044176257"><ele>1236.8</ele><time>2026-03-24T14:23:01Z</time></trkpt><trkpt lat="45.90161871327396" lon="11.791473034091192"><ele>1236.6</ele><time>2026-03-24T14:23:02Z</time></trkpt><trkpt lat="45.90155780372134" lon="11.791349403571964"><ele>1236.3999999999999</ele><time>2026-03-24T14:23:03Z</time></trkpt><trkpt lat="45.90149763847711" lon="11.791225062360072"><ele>1236.2</ele><time>2026-03-24T14:23:04Z</time></trkpt><trkpt lat="45.901451037552306" lon="11.791109029955647"><ele>1236.0</ele><time>2026-03-24T14:23:05Z</time></trkpt><trkpt lat="45.90141770785064" lon="11.791004646168393"><ele>1236.0</ele><time>2026-03-24T14:23:06Z</time></trkpt><trkpt lat="45.901385378295316" lon="11.790908570514022"><ele>1236.0</ele><time>2026-03-24T14:23:07Z</time></trkpt><trkpt lat="45.901345764832236" lon="11.790795964105893"><ele>1236.0</ele><time>2026-03-24T14:23:08Z</time></trkpt><trkpt lat="45.901291768183434" lon="11.790689420095383"><ele>1236.0</ele><time>2026-03-24T14:23:09Z</time></trkpt><trkpt lat="45.90123009713515" lon="11.790578402495088"><ele>1236.0</ele><time>2026-03-24T14:23:10Z</time></trkpt><trkpt lat="45.90117085555541" lon="11.79047485727846"><ele>1236.0</ele><time>2026-03-24T14:23:11Z</time></trkpt><trkpt lat="45.9011309687103" lon="11.790387828127749"><ele>1236.0</ele><time>2026-03-24T14:23:12Z</time></trkpt><trkpt lat="45.901056994245494" lon="11.790327364413082"><ele>1236.0</ele><time>2026-03-24T14:23:13Z</time></trkpt><trkpt lat="45.90099594883131" lon="11.790271604601047"><ele>1236.0</ele><time>2026-03-24T14:23:14Z</time></trkpt><trkpt lat="45.900908646793276" lon="11.790185067244517"><ele>1236.0</ele><time>2026-03-24T14:23:16Z</time></trkpt><trkpt lat="45.90085161329402" lon="11.790134126114559"><ele>1236.0</ele><time>2026-03-24T14:23:17Z</time></trkpt><trkpt lat="45.9008004499142" lon="11.790078019952041"><ele>1236.0</ele><time>2026-03-24T14:23:18Z</time></trkpt><trkpt lat="45.90072092178899" lon="11.78996277577297"><ele>1237.2</ele><time>2026-03-24T14:23:20Z</time></trkpt><trkpt lat="45.900665739291604" lon="11.789847674511678"><ele>1238.3999999999999</ele><time>2026-03-24T14:23:22Z</time></trkpt><trkpt lat="45.900605204294095" lon="11.789729868057385"><ele>1239.6</ele><time>2026-03-24T14:23:24Z</time></trkpt><trkpt lat="45.900547821666606" lon="11.78961882992516"><ele>1240.8</ele><time>2026-03-24T14:23:26Z</time></trkpt><trkpt lat="45.900478954693824" lon="11.789467829426373"><ele>1242.0</ele><time>2026-03-24T14:23:28Z</time></trkpt><trkpt lat="45.90042394837789" lon="11.789396957842172"><ele>1242.0</ele><time>2026-03-24T14:23:29Z</time></trkpt><trkpt lat="45.900362889743064" lon="11.789328100541764"><ele>1242.0</ele><time>2026-03-24T14:23:30Z</time></trkpt><trkpt lat="45.900296261449675" lon="11.789265699271153"><ele>1242.0</ele><time>2026-03-24T14:23:31Z</time></trkpt><trkpt lat="45.90022465300267" lon="11.789212890524512"><ele>1242.0</ele><time>2026-03-24T14:23:32Z</time></trkpt><trkpt lat="45.90016452937836" lon="11.789169739035236"><ele>1242.0</ele><time>2026-03-24T14:23:32.999Z</time></trkpt><trkpt lat="45.90011027918275" lon="11.789113472018416"><ele>1242.0</ele><time>2026-03-24T14:23:33.999Z</time></trkpt><trkpt lat="45.9000269446824" lon="11.788992717231993"><ele>1242.3333333333333</ele><time>2026-03-24T14:23:35.999Z</time></trkpt><trkpt lat="45.899987741354884" lon="11.788906190545122"><ele>1242.6666666666667</ele><time>2026-03-24T14:23:36.999Z</time></trkpt><trkpt lat="45.899960146435234" lon="11.788821224664932"><ele>1243.0</ele><time>2026-03-24T14:23:37.999Z</time></trkpt><trkpt lat="45.89995681580919" lon="11.78864785376911"><ele>1243.3333333333335</ele><time>2026-03-24T14:23:39.999Z</time></trkpt><trkpt lat="45.89999250315158" lon="11.78856931326354"><ele>1243.6666666666667</ele><time>2026-03-24T14:23:40.999Z</time></trkpt><trkpt lat="45.900030501670734" lon="11.788483488534627"><ele>1244.0</ele><time>2026-03-24T14:23:41.999Z</time></trkpt><trkpt lat="45.90008984861323" lon="11.788421221771115"><ele>1245.0</ele><time>2026-03-24T14:23:42.999Z</time></trkpt><trkpt lat="45.90008848527982" lon="11.788296876067784"><ele>1246.0</ele><time>2026-03-24T14:23:43.999Z</time></trkpt><trkpt lat="45.900089003430026" lon="11.788195775734897"><ele>1247.0</ele><time>2026-03-24T14:23:44.999Z</time></trkpt><trkpt lat="45.90008216460125" lon="11.788022341393233"><ele>1248.0</ele><time>2026-03-24T14:23:46.999Z</time></trkpt><trkpt lat="45.900069408348244" lon="11.787833278018587"><ele>1249.0</ele><time>2026-03-24T14:23:48.999Z</time></trkpt><trkpt lat="45.90006181580118" lon="11.787720747061298"><ele>1249.8</ele><time>2026-03-24T14:23:49.999Z</time></trkpt><trkpt lat="45.89996043332562" lon="11.787616043946013"><ele>1250.6000000000001</ele><time>2026-03-24T14:23:50.999Z</time></trkpt><trkpt lat="45.89994256635956" lon="11.78750387115691"><ele>1251.4</ele><time>2026-03-24T14:23:51.999Z</time></trkpt><trkpt lat="45.89992103950676" lon="11.787376202207607"><ele>1252.2</ele><time>2026-03-24T14:23:52.999Z</time></trkpt><trkpt lat="45.89990161861962" lon="11.787245279419656"><ele>1253.0</ele><time>2026-03-24T14:23:53.999Z</time></trkpt><trkpt lat="45.899884742360406" lon="11.787122165091459"><ele>1253.0</ele><time>2026-03-24T14:23:54.999Z</time></trkpt><trkpt lat="45.89987155504391" lon="11.787011024103832"><ele>1253.0</ele><time>2026-03-24T14:23:55.999Z</time></trkpt><trkpt lat="45.89984605224783" lon="11.786894474536913"><ele>1253.0</ele><time>2026-03-24T14:23:56.999Z</time></trkpt><trkpt lat="45.89981914104933" lon="11.78679397703441"><ele>1253.0</ele><time>2026-03-24T14:23:57.999Z</time></trkpt><trkpt lat="45.89978036588142" lon="11.786701452732716"><ele>1253.0</ele><time>2026-03-24T14:23:58.999Z</time></trkpt><trkpt lat="45.89973447309619" lon="11.786605943655903"><ele>1253.0</ele><time>2026-03-24T14:23:59.999Z</time></trkpt><trkpt lat="45.89967999900277" lon="11.786503656694087"><ele>1254.6</ele><time>2026-03-24T14:24:00.999Z</time></trkpt><trkpt lat="45.89961311628902" lon="11.786407466786432"><ele>1256.1999999999998</ele><time>2026-03-24T14:24:01.999Z</time></trkpt><trkpt lat="45.89954100648881" lon="11.786317203763936"><ele>1257.8</ele><time>2026-03-24T14:24:02.999Z</time></trkpt><trkpt lat="45.89946314496845" lon="11.786230781607191"><ele>1259.3999999999999</ele><time>2026-03-24T14:24:03.999Z</time></trkpt><trkpt lat="45.899384844580375" lon="11.786152655680588"><ele>1261.0</ele><time>2026-03-24T14:24:04.999Z</time></trkpt><trkpt lat="45.89930755920172" lon="11.78606788785352"><ele>1261.2</ele><time>2026-03-24T14:24:05.999Z</time></trkpt><trkpt lat="45.8992439733591" lon="11.78596237194444"><ele>1261.3999999999999</ele><time>2026-03-24T14:24:06.999Z</time></trkpt><trkpt lat="45.899156244623015" lon="11.785863865073528"><ele>1261.6</ele><time>2026-03-24T14:24:07.999Z</time></trkpt><trkpt lat="45.89907438572774" lon="11.7857614599082"><ele>1261.8</ele><time>2026-03-24T14:24:08.999Z</time></trkpt><trkpt lat="45.899002869390806" lon="11.785655969319535"><ele>1262.0</ele><time>2026-03-24T14:24:09.999Z</time></trkpt><trkpt lat="45.89892128810434" lon="11.785553887679617"><ele>1262.0</ele><time>2026-03-24T14:24:10.999Z</time></trkpt><trkpt lat="45.89884040444068" lon="11.785456409974003"><ele>1262.0</ele><time>2026-03-24T14:24:11.999Z</time></trkpt><trkpt lat="45.89875812756206" lon="11.78535721841473"><ele>1262.0</ele><time>2026-03-24T14:24:12.999Z</time></trkpt><trkpt lat="45.89868229831313" lon="11.785255780061915"><ele>1262.0</ele><time>2026-03-24T14:24:13.999Z</time></trkpt><trkpt lat="45.89861589702207" lon="11.785169326474593"><ele>1262.0</ele><time>2026-03-24T14:24:14.999Z</time></trkpt><trkpt lat="45.89855381834023" lon="11.785062564299357"><ele>1263.0</ele><time>2026-03-24T14:24:15.999Z</time></trkpt><trkpt lat="45.89848062917943" lon="11.784982151233644"><ele>1264.0</ele><time>2026-03-24T14:24:16.999Z</time></trkpt><trkpt lat="45.89839811331711" lon="11.784910574844133"><ele>1265.0</ele><time>2026-03-24T14:24:17.999Z</time></trkpt><trkpt lat="45.898307492240505" lon="11.78482321290097"><ele>1266.0</ele><time>2026-03-24T14:24:18.999Z</time></trkpt><trkpt lat="45.89822803750346" lon="11.784761394129703"><ele>1267.0</ele><time>2026-03-24T14:24:19.999Z</time></trkpt><trkpt lat="45.89813920019534" lon="11.78468407984077"><ele>1267.0</ele><time>2026-03-24T14:24:20.999Z</time></trkpt><trkpt lat="45.898050406713004" lon="11.7846101310523"><ele>1267.0</ele><time>2026-03-24T14:24:21.999Z</time></trkpt><trkpt lat="45.897966103547134" lon="11.784541325315821"><ele>1267.0</ele><time>2026-03-24T14:24:22.999Z</time></trkpt><trkpt lat="45.89787950718308" lon="11.784465398000515"><ele>1267.0</ele><time>2026-03-24T14:24:23.999Z</time></trkpt><trkpt lat="45.897791051425116" lon="11.784394228760675"><ele>1267.0</ele><time>2026-03-24T14:24:24.999Z</time></trkpt><trkpt lat="45.89770111841943" lon="11.784321562109668"><ele>1269.5</ele><time>2026-03-24T14:24:25.999Z</time></trkpt><trkpt lat="45.89760647540415" lon="11.784243021832317"><ele>1272.0</ele><time>2026-03-24T14:24:26.999Z</time></trkpt><trkpt lat="45.89750846560254" lon="11.784160136811025"><ele>1274.5</ele><time>2026-03-24T14:24:27.999Z</time></trkpt><trkpt lat="45.89740991654419" lon="11.78407410155393"><ele>1277.0</ele><time>2026-03-24T14:24:28.999Z</time></trkpt><trkpt lat="45.89731407588089" lon="11.78398784492284"><ele>1277.0</ele><time>2026-03-24T14:24:29.999Z</time></trkpt><trkpt lat="45.897212032808035" lon="11.783908482628974"><ele>1277.0</ele><time>2026-03-24T14:24:30.999Z</time></trkpt><trkpt lat="45.89710925181566" lon="11.783818257228761"><ele>1277.0</ele><time>2026-03-24T14:24:31.999Z</time></trkpt><trkpt lat="45.897020789549984" lon="11.783731599891746"><ele>1277.0</ele><time>2026-03-24T14:24:32.999Z</time></trkpt><trkpt lat="45.8969470023963" lon="11.783657303278122"><ele>1277.0</ele><time>2026-03-24T14:24:33.999Z</time></trkpt><trkpt lat="45.89687297079741" lon="11.783625093863451"><ele>1277.0</ele><time>2026-03-24T14:24:34.999Z</time></trkpt><trkpt lat="45.89677599810346" lon="11.783623055904517"><ele>1277.0</ele><time>2026-03-24T14:24:35.999Z</time></trkpt><trkpt lat="45.896672066346724" lon="11.783609443232669"><ele>1277.0</ele><time>2026-03-24T14:24:36.999Z</time></trkpt><trkpt lat="45.89656648328058" lon="11.783592790987987"><ele>1277.0</ele><time>2026-03-24T14:24:37.999Z</time></trkpt><trkpt lat="45.89646435587739" lon="11.783557613407352"><ele>1277.0</ele><time>2026-03-24T14:24:38.999Z</time></trkpt><trkpt lat="45.8963824659236" lon="11.783526026390913"><ele>1279.8</ele><time>2026-03-24T14:24:39.999Z</time></trkpt><trkpt lat="45.896301843317005" lon="11.783490477781143"><ele>1282.6</ele><time>2026-03-24T14:24:40.999Z</time></trkpt><trkpt lat="45.89621728603633" lon="11.783449339085019"><ele>1285.3999999999999</ele><time>2026-03-24T14:24:41.999Z</time></trkpt><trkpt lat="45.89612952174627" lon="11.7834123878962"><ele>1288.2</ele><time>2026-03-24T14:24:42.999Z</time></trkpt><trkpt lat="45.896035431181446" lon="11.783380186741411"><ele>1291.0</ele><time>2026-03-24T14:24:43.999Z</time></trkpt><trkpt lat="45.89594184212441" lon="11.783351687899886"><ele>1291.0</ele><time>2026-03-24T14:24:44.999Z</time></trkpt><trkpt lat="45.895849616003275" lon="11.783327162488467"><ele>1291.0</ele><time>2026-03-24T14:24:45.999Z</time></trkpt><trkpt lat="45.895764849600425" lon="11.783303006043996"><ele>1291.0</ele><time>2026-03-24T14:24:46.999Z</time></trkpt><trkpt lat="45.895688274666" lon="11.78328991006704"><ele>1291.0</ele><time>2026-03-24T14:24:47.999Z</time></trkpt><trkpt lat="45.89559184932521" lon="11.783284883726196"><ele>1291.0</ele><time>2026-03-24T14:24:48.999Z</time></trkpt><trkpt lat="45.89548177852708" lon="11.783286894856799"><ele>1291.0</ele><time>2026-03-24T14:24:49.999Z</time></trkpt><trkpt lat="45.89537442312962" lon="11.783331763761547"><ele>1291.0</ele><time>2026-03-24T14:24:50.999Z</time></trkpt><trkpt lat="45.89527065590763" lon="11.783390179589468"><ele>1291.0</ele><time>2026-03-24T14:24:51.999Z</time></trkpt><trkpt lat="45.895172802999355" lon="11.783453130952854"><ele>1291.0</ele><time>2026-03-24T14:24:52.999Z</time></trkpt><trkpt lat="45.895076475037335" lon="11.783494530221333"><ele>1291.0</ele><time>2026-03-24T14:24:53.999Z</time></trkpt><trkpt lat="45.89498195866234" lon="11.783518920876599"><ele>1290.1999999999998</ele><time>2026-03-24T14:24:54.999Z</time></trkpt><trkpt lat="45.894887195781386" lon="11.783541732549535"><ele>1289.3999999999999</ele><time>2026-03-24T14:24:55.999Z</time></trkpt><trkpt lat="45.8947896674748" lon="11.783569302118835"><ele>1288.6</ele><time>2026-03-24T14:24:57Z</time></trkpt><trkpt lat="45.89469218203089" lon="11.78360817202651"><ele>1287.8</ele><time>2026-03-24T14:24:58Z</time></trkpt><trkpt lat="45.894588408379896" lon="11.783641578194105"><ele>1287.0</ele><time>2026-03-24T14:24:59Z</time></trkpt><trkpt lat="45.89448774116383" lon="11.783670691951105"><ele>1287.0</ele><time>2026-03-24T14:25:00Z</time></trkpt><trkpt lat="45.89438791871449" lon="11.783685365129084"><ele>1287.0</ele><time>2026-03-24T14:25:01Z</time></trkpt><trkpt lat="45.894296908989105" lon="11.783689472687348"><ele>1287.0</ele><time>2026-03-24T14:25:02Z</time></trkpt><trkpt lat="45.89422472287136" lon="11.783707079159"><ele>1287.0</ele><time>2026-03-24T14:25:03Z</time></trkpt><trkpt lat="45.89416047459118" lon="11.783744527267114"><ele>1287.0</ele><time>2026-03-24T14:25:04Z</time></trkpt><trkpt lat="45.894102017437234" lon="11.783789455537757"><ele>1287.0</ele><time>2026-03-24T14:25:05Z</time></trkpt><trkpt lat="45.89403663139183" lon="11.783823508833477"><ele>1289.0</ele><time>2026-03-24T14:25:06Z</time></trkpt><trkpt lat="45.89393184475842" lon="11.783819698950156"><ele>1291.0</ele><time>2026-03-24T14:25:08Z</time></trkpt><trkpt lat="45.89388823398211" lon="11.783731282465181"><ele>1293.0</ele><time>2026-03-24T14:25:10Z</time></trkpt><trkpt lat="45.893930584068116" lon="11.783593838001863"><ele>1295.0</ele><time>2026-03-24T14:25:12Z</time></trkpt><trkpt lat="45.89400916199204" lon="11.783424343810513"><ele>1297.0</ele><time>2026-03-24T14:25:14Z</time></trkpt><trkpt lat="45.89408384311374" lon="11.783341625624551"><ele>1296.8333333333333</ele><time>2026-03-24T14:25:15Z</time></trkpt><trkpt lat="45.89414725602649" lon="11.783237022462977"><ele>1296.6666666666665</ele><time>2026-03-24T14:25:16Z</time></trkpt><trkpt lat="45.89422605853436" lon="11.783168023829955"><ele>1296.5</ele><time>2026-03-24T14:25:17Z</time></trkpt><trkpt lat="45.894300480931506" lon="11.783094982358246"><ele>1296.3333333333333</ele><time>2026-03-24T14:25:18Z</time></trkpt><trkpt lat="45.894367474278475" lon="11.783038330188019"><ele>1296.1666666666667</ele><time>2026-03-24T14:25:19Z</time></trkpt><trkpt lat="45.89440301231479" lon="11.782927886943488"><ele>1296.0</ele><time>2026-03-24T14:25:20Z</time></trkpt><trkpt lat="45.89443886314727" lon="11.78282426300706"><ele>1296.0</ele><time>2026-03-24T14:25:21Z</time></trkpt><trkpt lat="45.894492642931176" lon="11.782737974859746"><ele>1296.0</ele><time>2026-03-24T14:25:22Z</time></trkpt><trkpt lat="45.89454809459828" lon="11.782663592001995"><ele>1296.0</ele><time>2026-03-24T14:25:23Z</time></trkpt><trkpt lat="45.894609751704444" lon="11.782583366682276"><ele>1296.0</ele><time>2026-03-24T14:25:24Z</time></trkpt><trkpt lat="45.8946656042768" lon="11.782488336390413"><ele>1296.0</ele><time>2026-03-24T14:25:25Z</time></trkpt><trkpt lat="45.894717222241866" lon="11.782412081180956"><ele>1296.0</ele><time>2026-03-24T14:25:26Z</time></trkpt><trkpt lat="45.89476435429745" lon="11.782269864042682"><ele>1299.6</ele><time>2026-03-24T14:25:28Z</time></trkpt><trkpt lat="45.89470375982743" lon="11.782190917056075"><ele>1303.1999999999998</ele><time>2026-03-24T14:25:29Z</time></trkpt><trkpt lat="45.89464510237651" lon="11.781996234425883"><ele>1306.8000000000002</ele><time>2026-03-24T14:25:31Z</time></trkpt><trkpt lat="45.894603338290025" lon="11.781892867604165"><ele>1310.4</ele><time>2026-03-24T14:25:32Z</time></trkpt><trkpt lat="45.89456140669345" lon="11.78179198185588"><ele>1314.0</ele><time>2026-03-24T14:25:33Z</time></trkpt><trkpt lat="45.89452253965607" lon="11.781702679239528"><ele>1316.3333333333333</ele><time>2026-03-24T14:25:34Z</time></trkpt><trkpt lat="45.89447678582668" lon="11.781619420248948"><ele>1318.6666666666667</ele><time>2026-03-24T14:25:35Z</time></trkpt><trkpt lat="45.89440504442955" lon="11.781561982583723"><ele>1321.0</ele><time>2026-03-24T14:25:36Z</time></trkpt><trkpt lat="45.89433226154179" lon="11.781527675768709"><ele>1323.3333333333335</ele><time>2026-03-24T14:25:37Z</time></trkpt><trkpt lat="45.8942647381321" lon="11.78149377029002"><ele>1325.6666666666667</ele><time>2026-03-24T14:25:38Z</time></trkpt><trkpt lat="45.894197328213295" lon="11.781460594757563"><ele>1328.0</ele><time>2026-03-24T14:25:39Z</time></trkpt><trkpt lat="45.89412262545634" lon="11.781440750727015"><ele>1328.0</ele><time>2026-03-24T14:25:40Z</time></trkpt><trkpt lat="45.894080834446996" lon="11.781336125863541"><ele>1328.0</ele><time>2026-03-24T14:25:41Z</time></trkpt><trkpt lat="45.89402875700601" lon="11.781241104369949"><ele>1328.0</ele><time>2026-03-24T14:25:42Z</time></trkpt><trkpt lat="45.89396004314677" lon="11.781151916196249"><ele>1328.0</ele><time>2026-03-24T14:25:43Z</time></trkpt><trkpt lat="45.89388806563256" lon="11.781058545258869"><ele>1328.0</ele><time>2026-03-24T14:25:44Z</time></trkpt><trkpt lat="45.89381600114955" lon="11.780958017292734"><ele>1329.8333333333335</ele><time>2026-03-24T14:25:45Z</time></trkpt><trkpt lat="45.893751436022" lon="11.780852728071013"><ele>1331.6666666666667</ele><time>2026-03-24T14:25:46Z</time></trkpt><trkpt lat="45.893700606577184" lon="11.78074597280998"><ele>1333.5</ele><time>2026-03-24T14:25:47Z</time></trkpt><trkpt lat="45.893655368967565" lon="11.780634183553282"><ele>1335.3333333333333</ele><time>2026-03-24T14:25:48Z</time></trkpt><trkpt lat="45.8936412845897" lon="11.780522815091253"><ele>1337.1666666666665</ele><time>2026-03-24T14:25:49Z</time></trkpt><trkpt lat="45.89361704481546" lon="11.780417651900322"><ele>1339.0</ele><time>2026-03-24T14:25:50Z</time></trkpt><trkpt lat="45.8935715044252" lon="11.7803474793106"><ele>1339.0</ele><time>2026-03-24T14:25:51Z</time></trkpt><trkpt lat="45.89346750035332" lon="11.780304452040133"><ele>1339.0</ele><time>2026-03-24T14:25:53Z</time></trkpt><trkpt lat="45.89335458489651" lon="11.780211136688123"><ele>1339.0</ele><time>2026-03-24T14:25:55Z</time></trkpt><trkpt lat="45.89331323763409" lon="11.780122228812719"><ele>1339.0</ele><time>2026-03-24T14:25:56Z</time></trkpt><trkpt lat="45.89328044692129" lon="11.780012485224837"><ele>1339.0</ele><time>2026-03-24T14:25:57Z</time></trkpt><trkpt lat="45.893274743686014" lon="11.779877573512888"><ele>1339.0</ele><time>2026-03-24T14:25:58Z</time></trkpt><trkpt lat="45.893266356374745" lon="11.779720698005578"><ele>1339.0</ele><time>2026-03-24T14:25:59Z</time></trkpt><trkpt lat="45.893249607251" lon="11.779552793181495"><ele>1339.0</ele><time>2026-03-24T14:26:00Z</time></trkpt><trkpt lat="45.89320845331657" lon="11.779393053689947"><ele>1339.0</ele><time>2026-03-24T14:26:01Z</time></trkpt><trkpt lat="45.89319698391441" lon="11.779235636536697"><ele>1340.3333333333333</ele><time>2026-03-24T14:26:02Z</time></trkpt><trkpt lat="45.893186351604115" lon="11.77909335911978"><ele>1341.6666666666665</ele><time>2026-03-24T14:26:03Z</time></trkpt><trkpt lat="45.89318484076443" lon="11.778971708329289"><ele>1343.0</ele><time>2026-03-24T14:26:04Z</time></trkpt><trkpt lat="45.89319201063756" lon="11.778873241196152"><ele>1344.3333333333333</ele><time>2026-03-24T14:26:05Z</time></trkpt><trkpt lat="45.893264597160126" lon="11.778743582609176"><ele>1345.6666666666667</ele><time>2026-03-24T14:26:07Z</time></trkpt><trkpt lat="45.89333273594836" lon="11.77870664421766"><ele>1347.0</ele><time>2026-03-24T14:26:07.999Z</time></trkpt><trkpt lat="45.89341096696731" lon="11.77868021044569"><ele>1351.0</ele><time>2026-03-24T14:26:08.999Z</time></trkpt><trkpt lat="45.89348724055395" lon="11.778609757373122"><ele>1355.0</ele><time>2026-03-24T14:26:09.999Z</time></trkpt><trkpt lat="45.893578620321286" lon="11.778564239874164"><ele>1359.0</ele><time>2026-03-24T14:26:10.999Z</time></trkpt><trkpt lat="45.89366228829742" lon="11.778476100487014"><ele>1363.0</ele><time>2026-03-24T14:26:11.999Z</time></trkpt><trkpt lat="45.893746560782546" lon="11.778368029177889"><ele>1367.0</ele><time>2026-03-24T14:26:12.999Z</time></trkpt><trkpt lat="45.89381932333077" lon="11.778235328569634"><ele>1367.3999999999999</ele><time>2026-03-24T14:26:13.999Z</time></trkpt><trkpt lat="45.893864237409844" lon="11.778108274836162"><ele>1367.8</ele><time>2026-03-24T14:26:14.999Z</time></trkpt><trkpt lat="45.89387198917452" lon="11.777971167496561"><ele>1368.2</ele><time>2026-03-24T14:26:15.999Z</time></trkpt><trkpt lat="45.89387475452415" lon="11.77782879105049"><ele>1368.6</ele><time>2026-03-24T14:26:16.999Z</time></trkpt><trkpt lat="45.893865379110956" lon="11.777681296375807"><ele>1369.0</ele><time>2026-03-24T14:26:17.999Z</time></trkpt><trkpt lat="45.89384881407312" lon="11.77753525842333"><ele>1369.0</ele><time>2026-03-24T14:26:18.999Z</time></trkpt><trkpt lat="45.89382370152476" lon="11.77739861784201"><ele>1369.0</ele><time>2026-03-24T14:26:19.999Z</time></trkpt><trkpt lat="45.89377275229082" lon="11.7772788609504"><ele>1369.0</ele><time>2026-03-24T14:26:20.999Z</time></trkpt><trkpt lat="45.89374197229661" lon="11.77716293413591"><ele>1369.0</ele><time>2026-03-24T14:26:21.999Z</time></trkpt><trkpt lat="45.89368692412399" lon="11.77708194222911"><ele>1369.0</ele><time>2026-03-24T14:26:22.999Z</time></trkpt><trkpt lat="45.893616139792194" lon="11.777055229737813"><ele>1369.0</ele><time>2026-03-24T14:26:23.999Z</time></trkpt><trkpt lat="45.89355040472353" lon="11.777035878322737"><ele>1369.0</ele><time>2026-03-24T14:26:24.999Z</time></trkpt><trkpt lat="45.89347207407755" lon="11.77702470031118"><ele>1369.0</ele><time>2026-03-24T14:26:25.999Z</time></trkpt><trkpt lat="45.89338428374532" lon="11.77703868344444"><ele>1369.0</ele><time>2026-03-24T14:26:26.999Z</time></trkpt><trkpt lat="45.89329717927753" lon="11.777068129169965"><ele>1369.0</ele><time>2026-03-24T14:26:27.999Z</time></trkpt><trkpt lat="45.89320731396625" lon="11.777119242329363"><ele>1369.0</ele><time>2026-03-24T14:26:28.999Z</time></trkpt><trkpt lat="45.89311646118729" lon="11.777196117210712"><ele>1367.6666666666665</ele><time>2026-03-24T14:26:29.999Z</time></trkpt><trkpt lat="45.8930365045549" lon="11.77727974661566"><ele>1366.3333333333333</ele><time>2026-03-24T14:26:30.999Z</time></trkpt><trkpt lat="45.89297899763054" lon="11.77735688049625"><ele>1365.0</ele><time>2026-03-24T14:26:31.999Z</time></trkpt><trkpt lat="45.89291655086288" lon="11.777389008221837"><ele>1363.6666666666667</ele><time>2026-03-24T14:26:32.999Z</time></trkpt><trkpt lat="45.89285036538893" lon="11.777359115601563"><ele>1362.3333333333335</ele><time>2026-03-24T14:26:35.999Z</time></trkpt><trkpt lat="45.89291577912285" lon="11.777276147416963"><ele>1361.0</ele><time>2026-03-24T14:26:39.999Z</time></trkpt><trkpt lat="45.892992198224334" lon="11.777172189290075"><ele>1361.0</ele><time>2026-03-24T14:26:41.999Z</time></trkpt><trkpt lat="45.893100007132674" lon="11.777066720209886"><ele>1361.0</ele><time>2026-03-24T14:26:43.999Z</time></trkpt><trkpt lat="45.89316313729313" lon="11.776996906707355"><ele>1361.0</ele><time>2026-03-24T14:26:44.999Z</time></trkpt><trkpt lat="45.893238947258425" lon="11.77693330368398"><ele>1361.0</ele><time>2026-03-24T14:26:45.999Z</time></trkpt><trkpt lat="45.89332970148566" lon="11.776862547048728"><ele>1361.0</ele><time>2026-03-24T14:26:46.999Z</time></trkpt><trkpt lat="45.89342233368629" lon="11.77676993121174"><ele>1364.4</ele><time>2026-03-24T14:26:47.999Z</time></trkpt><trkpt lat="45.89351599285359" lon="11.776674189785307"><ele>1367.8</ele><time>2026-03-24T14:26:48.999Z</time></trkpt><trkpt lat="45.89361886775791" lon="11.776575337169678"><ele>1371.2</ele><time>2026-03-24T14:26:49.999Z</time></trkpt><trkpt lat="45.89370516938974" lon="11.776498517882818"><ele>1374.6000000000001</ele><time>2026-03-24T14:26:50.999Z</time></trkpt><trkpt lat="45.89376754934225" lon="11.776428676117737"><ele>1378.0</ele><time>2026-03-24T14:26:51.999Z</time></trkpt><trkpt lat="45.89382535971559" lon="11.776370343908605"><ele>1378.0</ele><time>2026-03-24T14:26:52.999Z</time></trkpt><trkpt lat="45.89388268213249" lon="11.776329042291167"><ele>1378.0</ele><time>2026-03-24T14:26:53.999Z</time></trkpt><trkpt lat="45.89394766750171" lon="11.776288777588471"><ele>1378.0</ele><time>2026-03-24T14:26:54.999Z</time></trkpt><trkpt lat="45.89402640160633" lon="11.776311261464592"><ele>1378.0</ele><time>2026-03-24T14:26:55.999Z</time></trkpt><trkpt lat="45.89411211590957" lon="11.776286941986902"><ele>1378.0</ele><time>2026-03-24T14:26:56.999Z</time></trkpt><trkpt lat="45.89420625372986" lon="11.77628743971945"><ele>1378.0</ele><time>2026-03-24T14:26:57.999Z</time></trkpt><trkpt lat="45.89430648701857" lon="11.776270269873223"><ele>1380.2</ele><time>2026-03-24T14:26:58.999Z</time></trkpt><trkpt lat="45.89440580673085" lon="11.776297524637803"><ele>1382.4</ele><time>2026-03-24T14:26:59.999Z</time></trkpt><trkpt lat="45.894506139097516" lon="11.776328397269108"><ele>1384.6000000000001</ele><time>2026-03-24T14:27:00.999Z</time></trkpt><trkpt lat="45.89459308188925" lon="11.776367452597883"><ele>1386.8000000000002</ele><time>2026-03-24T14:27:01.999Z</time></trkpt><trkpt lat="45.89467027456642" lon="11.776386395458692"><ele>1389.0</ele><time>2026-03-24T14:27:03Z</time></trkpt><trkpt lat="45.89475231568026" lon="11.776468418512453"><ele>1389.0</ele><time>2026-03-24T14:27:05Z</time></trkpt><trkpt lat="45.89480322536078" lon="11.77652185679337"><ele>1389.0</ele><time>2026-03-24T14:27:07Z</time></trkpt><trkpt lat="45.89487708633683" lon="11.77659995967165"><ele>1389.0</ele><time>2026-03-24T14:27:09Z</time></trkpt><trkpt lat="45.89494376458788" lon="11.776745097997653"><ele>1389.0</ele><time>2026-03-24T14:27:11Z</time></trkpt><trkpt lat="45.894986504390445" lon="11.776859080481556"><ele>1389.0</ele><time>2026-03-24T14:27:12Z</time></trkpt><trkpt lat="45.89502728943056" lon="11.77697057483589"><ele>1390.8000000000002</ele><time>2026-03-24T14:27:13Z</time></trkpt><trkpt lat="45.89502753860513" lon="11.777107849903771"><ele>1392.6000000000001</ele><time>2026-03-24T14:27:14Z</time></trkpt><trkpt lat="45.89500530965771" lon="11.777223596012849"><ele>1394.4</ele><time>2026-03-24T14:27:15Z</time></trkpt><trkpt lat="45.89496413599186" lon="11.777361985699336"><ele>1396.2</ele><time>2026-03-24T14:27:16Z</time></trkpt><trkpt lat="45.894919552602" lon="11.777496265913507"><ele>1398.0</ele><time>2026-03-24T14:27:17Z</time></trkpt><trkpt lat="45.894875242489924" lon="11.77764284032968"><ele>1400.5</ele><time>2026-03-24T14:27:18Z</time></trkpt><trkpt lat="45.89483475779669" lon="11.777797443875677"><ele>1403.0</ele><time>2026-03-24T14:27:19Z</time></trkpt><trkpt lat="45.89480535402707" lon="11.777961075976044"><ele>1405.5</ele><time>2026-03-24T14:27:20Z</time></trkpt><trkpt lat="45.89479023713985" lon="11.778149860114143"><ele>1408.0</ele><time>2026-03-24T14:27:21Z</time></trkpt><trkpt lat="45.89479392388931" lon="11.778366677465828"><ele>1406.5</ele><time>2026-03-24T14:27:22Z</time></trkpt><trkpt lat="45.89482595295607" lon="11.77856497474522"><ele>1405.0</ele><time>2026-03-24T14:27:23Z</time></trkpt><trkpt lat="45.89485394007536" lon="11.778735171029744"><ele>1403.5</ele><time>2026-03-24T14:27:24Z</time></trkpt><trkpt lat="45.894875003525314" lon="11.778890372388696"><ele>1402.0</ele><time>2026-03-24T14:27:25Z</time></trkpt><trkpt lat="45.89493372570313" lon="11.779028347582237"><ele>1402.0</ele><time>2026-03-24T14:27:26Z</time></trkpt><trkpt lat="45.89499154708978" lon="11.779167389985629"><ele>1402.0</ele><time>2026-03-24T14:27:27Z</time></trkpt><trkpt lat="45.89506128688841" lon="11.779300944349874"><ele>1402.0</ele><time>2026-03-24T14:27:28Z</time></trkpt><trkpt lat="45.8951371113555" lon="11.779432690700741"><ele>1402.0</ele><time>2026-03-24T14:27:29Z</time></trkpt><trkpt lat="45.895215764431875" lon="11.779560730736776"><ele>1402.1999999999998</ele><time>2026-03-24T14:27:30Z</time></trkpt><trkpt lat="45.89528483726512" lon="11.77970462126193"><ele>1402.4</ele><time>2026-03-24T14:27:31Z</time></trkpt><trkpt lat="45.89536632327935" lon="11.779783142901733"><ele>1402.6</ele><time>2026-03-24T14:27:32Z</time></trkpt><trkpt lat="45.89545729256945" lon="11.779847307110066"><ele>1402.8000000000002</ele><time>2026-03-24T14:27:33Z</time></trkpt><trkpt lat="45.89554262432132" lon="11.779887801250524"><ele>1403.0</ele><time>2026-03-24T14:27:34Z</time></trkpt><trkpt lat="45.89561503450768" lon="11.779904010753798"><ele>1403.0</ele><time>2026-03-24T14:27:35Z</time></trkpt><trkpt lat="45.89568375540929" lon="11.779912133058358"><ele>1403.0</ele><time>2026-03-24T14:27:36Z</time></trkpt><trkpt lat="45.8957559085731" lon="11.779930866325452"><ele>1403.0</ele><time>2026-03-24T14:27:37Z</time></trkpt><trkpt lat="45.89584685265702" lon="11.779929070777783"><ele>1403.0</ele><time>2026-03-24T14:27:38Z</time></trkpt><trkpt lat="45.89595344931217" lon="11.779918636124913"><ele>1403.0</ele><time>2026-03-24T14:27:39Z</time></trkpt><trkpt lat="45.89606177004422" lon="11.779889231165606"><ele>1404.5</ele><time>2026-03-24T14:27:40Z</time></trkpt><trkpt lat="45.89616747118259" lon="11.77984712044587"><ele>1406.0</ele><time>2026-03-24T14:27:41Z</time></trkpt><trkpt lat="45.89629378832204" lon="11.779815080049438"><ele>1407.5</ele><time>2026-03-24T14:27:42Z</time></trkpt><trkpt lat="45.89641091944904" lon="11.779811849994585"><ele>1409.0</ele><time>2026-03-24T14:27:43Z</time></trkpt><trkpt lat="45.896542070013574" lon="11.77983402758229"><ele>1409.0</ele><time>2026-03-24T14:27:44Z</time></trkpt><trkpt lat="45.89667632462798" lon="11.779891961731728"><ele>1409.0</ele><time>2026-03-24T14:27:45Z</time></trkpt><trkpt lat="45.896815016766006" lon="11.779990755505018"><ele>1409.0</ele><time>2026-03-24T14:27:46Z</time></trkpt><trkpt lat="45.89496413599186" lon="11.777361985699336"><ele>1408.8000000000002</ele><time>2026-03-24T14:27:16Z</time></trkpt><trkpt lat="45.894919552602" lon="11.777496265913507"><ele>1408.6000000000001</ele><time>2026-03-24T14:27:17Z</time></trkpt><trkpt lat="45.894875242489924" lon="11.77764284032968"><ele>1408.4</ele><time>2026-03-24T14:27:18Z</time></trkpt><trkpt lat="45.89483475779669" lon="11.777797443875677"><ele>1408.2</ele><time>2026-03-24T14:27:19Z</time></trkpt><trkpt lat="45.89480535402707" lon="11.777961075976044"><ele>1408.0</ele><time>2026-03-24T14:27:20Z</time></trkpt><trkpt lat="45.89479023713985" lon="11.778149860114143"><ele>1408.0</ele><time>2026-03-24T14:27:21Z</time></trkpt><trkpt lat="45.89479392388931" lon="11.778366677465828"><ele>1408.0</ele><time>2026-03-24T14:27:22Z</time></trkpt><trkpt lat="45.89482595295607" lon="11.77856497474522"><ele>1408.0</ele><time>2026-03-24T14:27:23Z</time></trkpt><trkpt lat="45.89485394007536" lon="11.778735171029744"><ele>1408.0</ele><time>2026-03-24T14:27:24Z</time></trkpt><trkpt lat="45.894875003525314" lon="11.778890372388696"><ele>1406.75</ele><time>2026-03-24T14:27:25Z</time></trkpt><trkpt lat="45.89493372570313" lon="11.779028347582237"><ele>1405.5</ele><time>2026-03-24T14:27:26Z</time></trkpt><trkpt lat="45.89499154708978" lon="11.779167389985629"><ele>1404.25</ele><time>2026-03-24T14:27:27Z</time></trkpt><trkpt lat="45.89506128688841" lon="11.779300944349874"><ele>1403.0</ele><time>2026-03-24T14:27:28Z</time></trkpt><trkpt lat="45.8951371113555" lon="11.779432690700741"><ele>1403.0</ele><time>2026-03-24T14:27:29Z</time></trkpt><trkpt lat="45.895215764431875" lon="11.779560730736776"><ele>1403.0</ele><time>2026-03-24T14:27:30Z</time></trkpt><trkpt lat="45.89528483726512" lon="11.77970462126193"><ele>1403.0</ele><time>2026-03-24T14:27:31Z</time></trkpt><trkpt lat="45.89536632327935" lon="11.779783142901733"><ele>1403.0</ele><time>2026-03-24T14:27:32Z</time></trkpt><trkpt lat="45.89545729256945" lon="11.779847307110066"><ele>1403.0</ele><time>2026-03-24T14:27:33Z</time></trkpt><trkpt lat="45.89554262432132" lon="11.779887801250524"><ele>1403.0</ele><time>2026-03-24T14:27:34Z</time></trkpt><trkpt lat="45.89561503450768" lon="11.779904010753798"><ele>1403.0</ele><time>2026-03-24T14:27:35Z</time></trkpt><trkpt lat="45.89568375540929" lon="11.779912133058358"><ele>1403.0</ele><time>2026-03-24T14:27:36Z</time></trkpt><trkpt lat="45.8957559085731" lon="11.779930866325452"><ele>1403.0</ele><time>2026-03-24T14:27:37Z</time></trkpt><trkpt lat="45.89584685265702" lon="11.779929070777783"><ele>1403.0</ele><time>2026-03-24T14:27:38Z</time></trkpt><trkpt lat="45.89595344931217" lon="11.779918636124913"><ele>1403.0</ele><time>2026-03-24T14:27:39Z</time></trkpt><trkpt lat="45.89606177004422" lon="11.779889231165606"><ele>1404.5</ele><time>2026-03-24T14:27:40Z</time></trkpt><trkpt lat="45.89616747118259" lon="11.77984712044587"><ele>1406.0</ele><time>2026-03-24T14:27:41Z</time></trkpt><trkpt lat="45.89629378832204" lon="11.779815080049438"><ele>1407.5</ele><time>2026-03-24T14:27:42Z</time></trkpt><trkpt lat="45.89641091944904" lon="11.779811849994585"><ele>1409.0</ele><time>2026-03-24T14:27:43Z</time></trkpt><trkpt lat="45.896542070013574" lon="11.77983402758229"><ele>1409.0</ele><time>2026-03-24T14:27:44Z</time></trkpt><trkpt lat="45.89667632462798" lon="11.779891961731728"><ele>1409.0</ele><time>2026-03-24T14:27:45Z</time></trkpt><trkpt lat="45.896815016766006" lon="11.779990755505018"><ele>1409.0</ele><time>2026-03-24T14:27:46Z</time></trkpt><trkpt lat="45.896969984841746" lon="11.780061818107006"><ele>1414.3333333333335</ele><time>2026-03-24T14:27:47Z</time></trkpt><trkpt lat="45.89711638626215" lon="11.780114007471655"><ele>1419.6666666666667</ele><time>2026-03-24T14:27:48Z</time></trkpt><trkpt lat="45.89727334682925" lon="11.780146499642486"><ele>1425.0</ele><time>2026-03-24T14:27:49Z</time></trkpt><trkpt lat="45.897437595725904" lon="11.780152491286609"><ele>1427.6666666666667</ele><time>2026-03-24T14:27:50Z</time></trkpt><trkpt lat="45.89759759061294" lon="11.780140368016651"><ele>1430.3333333333335</ele><time>2026-03-24T14:27:51Z</time></trkpt><trkpt lat="45.89775633566549" lon="11.780116256062444"><ele>1433.0</ele><time>2026-03-24T14:27:52Z</time></trkpt><trkpt lat="45.897913672971775" lon="11.780096807076466"><ele>1433.0</ele><time>2026-03-24T14:27:53Z</time></trkpt><trkpt lat="45.898077896744304" lon="11.780074202531749"><ele>1433.0</ele><time>2026-03-24T14:27:54Z</time></trkpt><trkpt lat="45.89824102951222" lon="11.78008496155404"><ele>1433.0</ele><time>2026-03-24T14:27:55Z</time></trkpt><trkpt lat="45.89837792297291" lon="11.780121560833337"><ele>1435.25</ele><time>2026-03-24T14:27:56Z</time></trkpt><trkpt lat="45.89852011907366" lon="11.780167735664817"><ele>1437.5</ele><time>2026-03-24T14:27:57Z</time></trkpt><trkpt lat="45.89864675195005" lon="11.780247653883304"><ele>1439.75</ele><time>2026-03-24T14:27:58Z</time></trkpt><trkpt lat="45.89877390529165" lon="11.78034752038128"><ele>1442.0</ele><time>2026-03-24T14:27:59Z</time></trkpt><trkpt lat="45.89889586930572" lon="11.780451474763979"><ele>1439.5</ele><time>2026-03-24T14:28:00Z</time></trkpt><trkpt lat="45.89902017952525" lon="11.780565076365113"><ele>1437.0</ele><time>2026-03-24T14:28:01Z</time></trkpt><trkpt lat="45.89915203149973" lon="11.780650532456804"><ele>1434.5</ele><time>2026-03-24T14:28:02Z</time></trkpt><trkpt lat="45.89928247963777" lon="11.780702010256304"><ele>1432.0</ele><time>2026-03-24T14:28:03Z</time></trkpt><trkpt lat="45.899420225332655" lon="11.780731045476683"><ele>1432.0</ele><time>2026-03-24T14:28:04Z</time></trkpt><trkpt lat="45.8995713349087" lon="11.78076155937639"><ele>1432.0</ele><time>2026-03-24T14:28:05Z</time></trkpt><trkpt lat="45.899730510495644" lon="11.780765201069233"><ele>1432.0</ele><time>2026-03-24T14:28:06Z</time></trkpt><trkpt lat="45.8998907631676" lon="11.780774602279195"><ele>1432.0</ele><time>2026-03-24T14:28:07Z</time></trkpt><trkpt lat="45.900066474977756" lon="11.780768404707722"><ele>1432.0</ele><time>2026-03-24T14:28:08Z</time></trkpt><trkpt lat="45.900258078174794" lon="11.780784096699874"><ele>1432.0</ele><time>2026-03-24T14:28:09Z</time></trkpt><trkpt lat="45.900443401137906" lon="11.78080346572331"><ele>1433.0</ele><time>2026-03-24T14:28:10Z</time></trkpt><trkpt lat="45.9006110010154" lon="11.780809211389238"><ele>1434.0</ele><time>2026-03-24T14:28:11Z</time></trkpt><trkpt lat="45.90075545960265" lon="11.780820147337192"><ele>1435.0</ele><time>2026-03-24T14:28:12Z</time></trkpt><trkpt lat="45.900880860826945" lon="11.780827824790757"><ele>1436.0</ele><time>2026-03-24T14:28:13Z</time></trkpt><trkpt lat="45.90100364451092" lon="11.780857793050757"><ele>1436.25</ele><time>2026-03-24T14:28:14Z</time></trkpt><trkpt lat="45.90113703716416" lon="11.780845649672544"><ele>1436.5</ele><time>2026-03-24T14:28:14.999Z</time></trkpt><trkpt lat="45.901250336162555" lon="11.780870851881188"><ele>1436.75</ele><time>2026-03-24T14:28:15.999Z</time></trkpt><trkpt lat="45.90135931411055" lon="11.78087910746882"><ele>1437.0</ele><time>2026-03-24T14:28:16.999Z</time></trkpt><trkpt lat="45.90147638798121" lon="11.780925225890343"><ele>1437.0</ele><time>2026-03-24T14:28:17.999Z</time></trkpt><trkpt lat="45.9016335876623" lon="11.780984353051211"><ele>1437.0</ele><time>2026-03-24T14:28:18.999Z</time></trkpt><trkpt lat="45.9017937160979" lon="11.7810624893805"><ele>1437.0</ele><time>2026-03-24T14:28:19.999Z</time></trkpt><trkpt lat="45.9019557334169" lon="11.781160733108988"><ele>1437.6666666666667</ele><time>2026-03-24T14:28:20.999Z</time></trkpt><trkpt lat="45.90209709861208" lon="11.781247298141302"><ele>1438.3333333333335</ele><time>2026-03-24T14:28:21.999Z</time></trkpt><trkpt lat="45.90225475579678" lon="11.78132880384791"><ele>1439.0</ele><time>2026-03-24T14:28:22.999Z</time></trkpt><trkpt lat="45.90240975647828" lon="11.781430398368107"><ele>1439.0</ele><time>2026-03-24T14:28:23.999Z</time></trkpt><trkpt lat="45.902546348665936" lon="11.78154227068941"><ele>1439.0</ele><time>2026-03-24T14:28:24.999Z</time></trkpt><trkpt lat="45.90266327251862" lon="11.781671197941924"><ele>1439.0</ele><time>2026-03-24T14:28:25.999Z</time></trkpt><trkpt lat="45.902779523152354" lon="11.781790528443976"><ele>1439.0</ele><time>2026-03-24T14:28:26.999Z</time></trkpt><trkpt lat="45.902865932623946" lon="11.781925187534096"><ele>1442.25</ele><time>2026-03-24T14:28:27.999Z</time></trkpt><trkpt lat="45.90294922032413" lon="11.782081733959235"><ele>1445.5</ele><time>2026-03-24T14:28:28.999Z</time></trkpt><trkpt lat="45.90303261604725" lon="11.78226732619218"><ele>1448.75</ele><time>2026-03-24T14:28:29.999Z</time></trkpt><trkpt lat="45.90311621283891" lon="11.782453247575164"><ele>1452.0</ele><time>2026-03-24T14:28:30.999Z</time></trkpt><trkpt lat="45.90319777263064" lon="11.782639150863703"><ele>1450.25</ele><time>2026-03-24T14:28:31.999Z</time></trkpt><trkpt lat="45.903271904307786" lon="11.782822345022208"><ele>1448.5</ele><time>2026-03-24T14:28:32.999Z</time></trkpt><trkpt lat="45.90330140814161" lon="11.782993183567301"><ele>1446.75</ele><time>2026-03-24T14:28:33.999Z</time></trkpt><trkpt lat="45.90331931542974" lon="11.783136416929574"><ele>1445.0</ele><time>2026-03-24T14:28:34.999Z</time></trkpt><trkpt lat="45.90333533066044" lon="11.783270502787413"><ele>1445.0</ele><time>2026-03-24T14:28:35.999Z</time></trkpt><trkpt lat="45.90335147021316" lon="11.783409922765356"><ele>1445.0</ele><time>2026-03-24T14:28:36.999Z</time></trkpt><trkpt lat="45.90337315210462" lon="11.783547706968243"><ele>1445.0</ele><time>2026-03-24T14:28:37.999Z</time></trkpt><trkpt lat="45.90342535659143" lon="11.783676766762712"><ele>1445.0</ele><time>2026-03-24T14:28:38.999Z</time></trkpt><trkpt lat="45.90346559697645" lon="11.783798779283554"><ele>1445.0</ele><time>2026-03-24T14:28:39.999Z</time></trkpt><trkpt lat="45.90354965664504" lon="11.78384237771282"><ele>1445.0</ele><time>2026-03-24T14:28:40.999Z</time></trkpt><trkpt lat="45.90366221896018" lon="11.78384998627889"><ele>1445.0</ele><time>2026-03-24T14:28:41.999Z</time></trkpt><trkpt lat="45.90376631154443" lon="11.783866630312218"><ele>1445.0</ele><time>2026-03-24T14:28:42.999Z</time></trkpt><trkpt lat="45.90385946438365" lon="11.783842884914904"><ele>1445.0</ele><time>2026-03-24T14:28:43.999Z</time></trkpt><trkpt lat="45.90394157178154" lon="11.783816543119688"><ele>1445.0</ele><time>2026-03-24T14:28:44.999Z</time></trkpt><trkpt lat="45.903994698900284" lon="11.78372964515349"><ele>1445.0</ele><time>2026-03-24T14:28:45.999Z</time></trkpt><trkpt lat="45.90402677970028" lon="11.78361883692546"><ele>1445.0</ele><time>2026-03-24T14:28:46.999Z</time></trkpt><trkpt lat="45.904042384937455" lon="11.783484682832551"><ele>1445.0</ele><time>2026-03-24T14:28:47.999Z</time></trkpt><trkpt lat="45.90405447830513" lon="11.783337367237856"><ele>1445.0</ele><time>2026-03-24T14:28:48.999Z</time></trkpt><trkpt lat="45.904077165131184" lon="11.783179305432359"><ele>1445.0</ele><time>2026-03-24T14:28:49.999Z</time></trkpt><trkpt lat="45.90413396747242" lon="11.783024878070565"><ele>1443.0</ele><time>2026-03-24T14:28:50.999Z</time></trkpt><trkpt lat="45.90421276357102" lon="11.782862879944187"><ele>1441.0</ele><time>2026-03-24T14:28:51.999Z</time></trkpt><trkpt lat="45.90430536089374" lon="11.782712173473106"><ele>1439.0</ele><time>2026-03-24T14:28:52.999Z</time></trkpt><trkpt lat="45.90439211147846" lon="11.782574342093536"><ele>1437.0</ele><time>2026-03-24T14:28:53.999Z</time></trkpt><trkpt lat="45.90448697538279" lon="11.782498621572747"><ele>1441.1999999999998</ele><time>2026-03-24T14:28:54.999Z</time></trkpt><trkpt lat="45.90458428093972" lon="11.78244353418838"><ele>1445.4</ele><time>2026-03-24T14:28:55.999Z</time></trkpt><trkpt lat="45.90469034256149" lon="11.782421812245053"><ele>1449.6</ele><time>2026-03-24T14:28:56.999Z</time></trkpt><trkpt lat="45.90479411098759" lon="11.782382052348455"><ele>1453.8000000000002</ele><time>2026-03-24T14:28:57.999Z</time></trkpt><trkpt lat="45.904911425849264" lon="11.782331232191272"><ele>1458.0</ele><time>2026-03-24T14:28:58.999Z</time></trkpt><trkpt lat="45.90501710606514" lon="11.782259565594462"><ele>1458.25</ele><time>2026-03-24T14:28:59.999Z</time></trkpt><trkpt lat="45.90512240983884" lon="11.782128397583099"><ele>1458.5</ele><time>2026-03-24T14:29:00.999Z</time></trkpt><trkpt lat="45.90522298870261" lon="11.781997927691103"><ele>1458.75</ele><time>2026-03-24T14:29:01.999Z</time></trkpt><trkpt lat="45.90533641274623" lon="11.781843983477492"><ele>1459.0</ele><time>2026-03-24T14:29:02.999Z</time></trkpt><trkpt lat="45.90547568856423" lon="11.781733616406472"><ele>1459.0</ele><time>2026-03-24T14:29:03.999Z</time></trkpt><trkpt lat="45.905597555011745" lon="11.781622311772788"><ele>1459.0</ele><time>2026-03-24T14:29:04.999Z</time></trkpt><trkpt lat="45.90571543416422" lon="11.781536302017873"><ele>1459.0</ele><time>2026-03-24T14:29:05.999Z</time></trkpt><trkpt lat="45.90583367783432" lon="11.781462573382058"><ele>1459.0</ele><time>2026-03-24T14:29:06.999Z</time></trkpt><trkpt lat="45.905965703964874" lon="11.78138426125035"><ele>1455.0</ele><time>2026-03-24T14:29:07.999Z</time></trkpt><trkpt lat="45.90611051428305" lon="11.78130391446363"><ele>1451.0</ele><time>2026-03-24T14:29:09Z</time></trkpt><trkpt lat="45.906264264021914" lon="11.78127856358978"><ele>1447.0</ele><time>2026-03-24T14:29:10Z</time></trkpt><trkpt lat="45.906412667347354" lon="11.781273478665266"><ele>1447.0</ele><time>2026-03-24T14:29:11Z</time></trkpt><trkpt lat="45.90656559108494" lon="11.781243636937626"><ele>1447.0</ele><time>2026-03-24T14:29:12Z</time></trkpt><trkpt lat="45.90672137329929" lon="11.781215202902722"><ele>1447.0</ele><time>2026-03-24T14:29:13Z</time></trkpt><trkpt lat="45.9068666015709" lon="11.781181090852678"><ele>1449.5</ele><time>2026-03-24T14:29:14Z</time></trkpt><trkpt lat="45.90700017492261" lon="11.781127728486574"><ele>1452.0</ele><time>2026-03-24T14:29:15Z</time></trkpt><trkpt lat="45.90711363224026" lon="11.781074195510808"><ele>1454.5</ele><time>2026-03-24T14:29:16Z</time></trkpt><trkpt lat="45.90723976767818" lon="11.781030932076554"><ele>1457.0</ele><time>2026-03-24T14:29:17Z</time></trkpt><trkpt lat="45.907367612290166" lon="11.780984486613471"><ele>1457.0</ele><time>2026-03-24T14:29:18Z</time></trkpt><trkpt lat="45.907493434799015" lon="11.780965628923987"><ele>1457.0</ele><time>2026-03-24T14:29:19Z</time></trkpt><trkpt lat="45.90761754376375" lon="11.780998909218361"><ele>1457.0</ele><time>2026-03-24T14:29:20Z</time></trkpt><trkpt lat="45.90774168081365" lon="11.78104278684957"><ele>1457.0</ele><time>2026-03-24T14:29:21Z</time></trkpt><trkpt lat="45.907873140835804" lon="11.781109310798868"><ele>1450.25</ele><time>2026-03-24T14:29:22Z</time></trkpt><trkpt lat="45.90801848825619" lon="11.78118539944048"><ele>1443.5</ele><time>2026-03-24T14:29:23Z</time></trkpt><trkpt lat="45.908150850241604" lon="11.781258802323496"><ele>1436.75</ele><time>2026-03-24T14:29:24Z</time></trkpt><trkpt lat="45.9082791518048" lon="11.781314741112475"><ele>1430.0</ele><time>2026-03-24T14:29:25Z</time></trkpt><trkpt lat="45.90840334647043" lon="11.78138946965587"><ele>1430.0</ele><time>2026-03-24T14:29:26Z</time></trkpt><trkpt lat="45.90851698032334" lon="11.781505459959835"><ele>1430.0</ele><time>2026-03-24T14:29:27Z</time></trkpt><trkpt lat="45.908600701375526" lon="11.781697650384261"><ele>1430.0</ele><time>2026-03-24T14:29:28Z</time></trkpt><trkpt lat="45.90869843795063" lon="11.781906334445315"><ele>1426.3333333333335</ele><time>2026-03-24T14:29:29Z</time></trkpt><trkpt lat="45.90879604041253" lon="11.78210194479673"><ele>1422.6666666666667</ele><time>2026-03-24T14:29:30Z</time></trkpt><trkpt lat="45.9089106197342" lon="11.782310337816854"><ele>1419.0</ele><time>2026-03-24T14:29:31Z</time></trkpt><trkpt lat="45.90902891106564" lon="11.78248719645428"><ele>1419.0</ele><time>2026-03-24T14:29:32Z</time></trkpt><trkpt lat="45.90912517627111" lon="11.782638529920812"><ele>1419.0</ele><time>2026-03-24T14:29:33Z</time></trkpt><trkpt lat="45.90924696112369" lon="11.782836169070007"><ele>1419.0</ele><time>2026-03-24T14:29:34Z</time></trkpt><trkpt lat="45.90937635506551" lon="11.783057850095506"><ele>1416.0</ele><time>2026-03-24T14:29:36Z</time></trkpt><trkpt lat="45.909434503249784" lon="11.783204626493056"><ele>1413.0</ele><time>2026-03-24T14:29:37Z</time></trkpt><trkpt lat="45.90948432778709" lon="11.783353309442013"><ele>1410.0</ele><time>2026-03-24T14:29:38Z</time></trkpt><trkpt lat="45.90953341243875" lon="11.783498365522952"><ele>1407.0</ele><time>2026-03-24T14:29:39Z</time></trkpt><trkpt lat="45.90958291143523" lon="11.783622291259702"><ele>1404.0</ele><time>2026-03-24T14:29:40Z</time></trkpt><trkpt lat="45.90962555682574" lon="11.78369351446022"><ele>1401.6</ele><time>2026-03-24T14:29:41Z</time></trkpt><trkpt lat="45.90968775390675" lon="11.783797455977803"><ele>1399.2</ele><time>2026-03-24T14:29:42Z</time></trkpt><trkpt lat="45.90977397666723" lon="11.783850181697808"><ele>1396.8</ele><time>2026-03-24T14:29:43Z</time></trkpt><trkpt lat="45.90987460401127" lon="11.783891569389592"><ele>1394.3999999999999</ele><time>2026-03-24T14:29:44Z</time></trkpt><trkpt lat="45.90998168716837" lon="11.783908929268593"><ele>1392.0</ele><time>2026-03-24T14:29:45Z</time></trkpt><trkpt lat="45.910098032625726" lon="11.783911401066192"><ele>1390.25</ele><time>2026-03-24T14:29:46Z</time></trkpt><trkpt lat="45.910215880500495" lon="11.78392816937669"><ele>1388.5</ele><time>2026-03-24T14:29:47Z</time></trkpt><trkpt lat="45.910323624006104" lon="11.78398361014703"><ele>1386.75</ele><time>2026-03-24T14:29:48Z</time></trkpt><trkpt lat="45.91040349564273" lon="11.784103408037668"><ele>1385.0</ele><time>2026-03-24T14:29:49Z</time></trkpt><trkpt lat="45.9104625277003" lon="11.784241387958522"><ele>1383.6666666666667</ele><time>2026-03-24T14:29:50Z</time></trkpt><trkpt lat="45.91054402538862" lon="11.784379102112686"><ele>1382.3333333333333</ele><time>2026-03-24T14:29:51Z</time></trkpt><trkpt lat="45.91064220880589" lon="11.78453838635312"><ele>1381.0</ele><time>2026-03-24T14:29:52Z</time></trkpt><trkpt lat="45.91077433249506" lon="11.784708491495136"><ele>1380.3333333333333</ele><time>2026-03-24T14:29:53Z</time></trkpt><trkpt lat="45.91090821399605" lon="11.784903517488067"><ele>1379.6666666666667</ele><time>2026-03-24T14:29:54Z</time></trkpt><trkpt lat="45.91105692402313" lon="11.785122462037917"><ele>1379.0</ele><time>2026-03-24T14:29:55Z</time></trkpt><trkpt lat="45.91121803107596" lon="11.785343142221988"><ele>1381.5</ele><time>2026-03-24T14:29:56Z</time></trkpt><trkpt lat="45.91140263768994" lon="11.785601608230925"><ele>1384.0</ele><time>2026-03-24T14:29:57Z</time></trkpt><trkpt lat="45.911594591135646" lon="11.785786262081395"><ele>1384.3333333333333</ele><time>2026-03-24T14:29:58Z</time></trkpt><trkpt lat="45.91177749087391" lon="11.785967545430548"><ele>1384.6666666666667</ele><time>2026-03-24T14:29:59Z</time></trkpt><trkpt lat="45.91195447509063" lon="11.786127756982568"><ele>1385.0</ele><time>2026-03-24T14:30:00Z</time></trkpt><trkpt lat="45.912106748237726" lon="11.786247304934024"><ele>1384.3333333333335</ele><time>2026-03-24T14:30:01Z</time></trkpt><trkpt lat="45.912267482919674" lon="11.78637976067299"><ele>1383.6666666666667</ele><time>2026-03-24T14:30:02Z</time></trkpt><trkpt lat="45.91243072407267" lon="11.786524179131646"><ele>1383.0</ele><time>2026-03-24T14:30:03Z</time></trkpt><trkpt lat="45.91259810320892" lon="11.786688434932369"><ele>1389.3333333333333</ele><time>2026-03-24T14:30:04Z</time></trkpt><trkpt lat="45.912769431214414" lon="11.786861411882834"><ele>1395.6666666666665</ele><time>2026-03-24T14:30:05Z</time></trkpt><trkpt lat="45.912932994106725" lon="11.787035605415648"><ele>1402.0</ele><time>2026-03-24T14:30:06Z</time></trkpt><trkpt lat="45.91306796693428" lon="11.78721950164511"><ele>1402.0</ele><time>2026-03-24T14:30:07Z</time></trkpt><trkpt lat="45.913193931426115" lon="11.787368047570496"><ele>1402.0</ele><time>2026-03-24T14:30:08Z</time></trkpt><trkpt lat="45.913319594836935" lon="11.787506682198499"><ele>1402.0</ele><time>2026-03-24T14:30:09Z</time></trkpt><trkpt lat="45.91345655527743" lon="11.787640995107113"><ele>1404.75</ele><time>2026-03-24T14:30:10Z</time></trkpt><trkpt lat="45.91359861295315" lon="11.787745586439652"><ele>1407.5</ele><time>2026-03-24T14:30:10.999Z</time></trkpt><trkpt lat="45.913724530826585" lon="11.787850157639475"><ele>1410.25</ele><time>2026-03-24T14:30:11.999Z</time></trkpt><trkpt lat="45.91383705373729" lon="11.787931091067588"><ele>1413.0</ele><time>2026-03-24T14:30:12.999Z</time></trkpt><trkpt lat="45.91393300102847" lon="11.788035594107063"><ele>1413.0</ele><time>2026-03-24T14:30:13.999Z</time></trkpt><trkpt lat="45.914029676159" lon="11.788104992070409"><ele>1413.0</ele><time>2026-03-24T14:30:14.999Z</time></trkpt><trkpt lat="45.914122972756076" lon="11.788205869013314"><ele>1413.0</ele><time>2026-03-24T14:30:15.999Z</time></trkpt><trkpt lat="45.91421700868613" lon="11.78832514209029"><ele>1413.0</ele><time>2026-03-24T14:30:16.999Z</time></trkpt><trkpt lat="45.914308126294095" lon="11.788465048859985"><ele>1411.25</ele><time>2026-03-24T14:30:17.999Z</time></trkpt><trkpt lat="45.914384136509526" lon="11.788639176088116"><ele>1409.5</ele><time>2026-03-24T14:30:18.999Z</time></trkpt><trkpt lat="45.914469932719896" lon="11.788796244415039"><ele>1407.75</ele><time>2026-03-24T14:30:19.999Z</time></trkpt><trkpt lat="45.914542755761154" lon="11.788956999262671"><ele>1406.0</ele><time>2026-03-24T14:30:20.999Z</time></trkpt><trkpt lat="45.91461136531045" lon="11.789101669355423"><ele>1406.0</ele><time>2026-03-24T14:30:21.999Z</time></trkpt><trkpt lat="45.91469301697882" lon="11.78922216016949"><ele>1406.0</ele><time>2026-03-24T14:30:22.999Z</time></trkpt><trkpt lat="45.914775837887795" lon="11.789342326749948"><ele>1406.0</ele><time>2026-03-24T14:30:23.999Z</time></trkpt><trkpt lat="45.914891576933044" lon="11.78944524859913"><ele>1406.0</ele><time>2026-03-24T14:30:24.999Z</time></trkpt><trkpt lat="45.915030189412555" lon="11.789537472344016"><ele>1408.75</ele><time>2026-03-24T14:30:25.999Z</time></trkpt><trkpt lat="45.9151671594019" lon="11.789511754346295"><ele>1411.5</ele><time>2026-03-24T14:30:26.999Z</time></trkpt><trkpt lat="45.915288938380414" lon="11.789516957345649"><ele>1414.25</ele><time>2026-03-24T14:30:27.999Z</time></trkpt><trkpt lat="45.9154091152189" lon="11.789550610742458"><ele>1417.0</ele><time>2026-03-24T14:30:28.999Z</time></trkpt><trkpt lat="45.915480334649416" lon="11.789558935656963"><ele>1417.0</ele><time>2026-03-24T14:30:29.999Z</time></trkpt><trkpt lat="45.915540061251825" lon="11.78966608558189"><ele>1417.0</ele><time>2026-03-24T14:30:30.999Z</time></trkpt><trkpt lat="45.915587125144604" lon="11.78981577648618"><ele>1417.0</ele><time>2026-03-24T14:30:31.999Z</time></trkpt><trkpt lat="45.91565227726235" lon="11.78994221121739"><ele>1417.0</ele><time>2026-03-24T14:30:32.999Z</time></trkpt><trkpt lat="45.91572722105089" lon="11.790051626340802"><ele>1417.0</ele><time>2026-03-24T14:30:33.999Z</time></trkpt><trkpt lat="45.91582425300362" lon="11.79011654684891"><ele>1421.1999999999998</ele><time>2026-03-24T14:30:34.999Z</time></trkpt><trkpt lat="45.91593269716706" lon="11.79018600543854"><ele>1425.4</ele><time>2026-03-24T14:30:35.999Z</time></trkpt><trkpt lat="45.916033153569806" lon="11.790233461459993"><ele>1429.6</ele><time>2026-03-24T14:30:36.999Z</time></trkpt><trkpt lat="45.916116896173385" lon="11.790218443720185"><ele>1433.8000000000002</ele><time>2026-03-24T14:30:37.999Z</time></trkpt><trkpt lat="45.916223639720364" lon="11.790216555814638"><ele>1438.0</ele><time>2026-03-24T14:30:38.999Z</time></trkpt><trkpt lat="45.9163278582141" lon="11.790220420055"><ele>1438.0</ele><time>2026-03-24T14:30:39.999Z</time></trkpt><trkpt lat="45.91644346924844" lon="11.790218835911936"><ele>1438.0</ele><time>2026-03-24T14:30:40.999Z</time></trkpt><trkpt lat="45.91657362214445" lon="11.7902511049315"><ele>1438.0</ele><time>2026-03-24T14:30:41.999Z</time></trkpt><trkpt lat="45.916712508250384" lon="11.790234628640707"><ele>1438.0</ele><time>2026-03-24T14:30:42.999Z</time></trkpt><trkpt lat="45.91686346317378" lon="11.790210560014701"><ele>1428.6666666666665</ele><time>2026-03-24T14:30:43.999Z</time></trkpt><trkpt lat="45.9170269591129" lon="11.79016184864826"><ele>1419.3333333333333</ele><time>2026-03-24T14:30:44.999Z</time></trkpt><trkpt lat="45.91716964635761" lon="11.790111131980428"><ele>1410.0</ele><time>2026-03-24T14:30:45.999Z</time></trkpt><trkpt lat="45.917328974106155" lon="11.790081776547389"><ele>1410.0</ele><time>2026-03-24T14:30:46.999Z</time></trkpt><trkpt lat="45.917484836247226" lon="11.790054592158047"><ele>1410.0</ele><time>2026-03-24T14:30:47.999Z</time></trkpt><trkpt lat="45.9176108603352" lon="11.790088826390619"><ele>1410.0</ele><time>2026-03-24T14:30:48.999Z</time></trkpt><trkpt lat="45.917735315428274" lon="11.79012416346666"><ele>1410.0</ele><time>2026-03-24T14:30:49.999Z</time></trkpt><trkpt lat="45.91786406691145" lon="11.790136102536028"><ele>1410.75</ele><time>2026-03-24T14:30:50.999Z</time></trkpt><trkpt lat="45.91800428828873" lon="11.790175731612592"><ele>1411.5</ele><time>2026-03-24T14:30:51.999Z</time></trkpt><trkpt lat="45.91814850872193" lon="11.790182525442049"><ele>1412.25</ele><time>2026-03-24T14:30:52.999Z</time></trkpt><trkpt lat="45.91828995393486" lon="11.790184548954125"><ele>1413.0</ele><time>2026-03-24T14:30:53.999Z</time></trkpt><trkpt lat="45.9184392777437" lon="11.790188046988241"><ele>1413.0</ele><time>2026-03-24T14:30:54.999Z</time></trkpt><trkpt lat="45.918594437014185" lon="11.790221615743574"><ele>1413.0</ele><time>2026-03-24T14:30:55.999Z</time></trkpt><trkpt lat="45.91876639942158" lon="11.79023259993144"><ele>1413.0</ele><time>2026-03-24T14:30:56.999Z</time></trkpt><trkpt lat="45.91894161716649" lon="11.790240275587278"><ele>1413.0</ele><time>2026-03-24T14:30:57.999Z</time></trkpt><trkpt lat="45.91911700984845" lon="11.79023957992117"><ele>1413.0</ele><time>2026-03-24T14:30:58.999Z</time></trkpt><trkpt lat="45.91926988198005" lon="11.790235572706715"><ele>1413.0</ele><time>2026-03-24T14:30:59.999Z</time></trkpt><trkpt lat="45.919421932772906" lon="11.790239304971552"><ele>1408.5</ele><time>2026-03-24T14:31:00.999Z</time></trkpt><trkpt lat="45.91956002410419" lon="11.790244908824407"><ele>1404.0</ele><time>2026-03-24T14:31:01.999Z</time></trkpt><trkpt lat="45.91968184358285" lon="11.790252154787089"><ele>1399.5</ele><time>2026-03-24T14:31:02.999Z</time></trkpt><trkpt lat="45.91978811110589" lon="11.79027228693139"><ele>1395.0</ele><time>2026-03-24T14:31:03.999Z</time></trkpt><trkpt lat="45.91988957645784" lon="11.790276780046879"><ele>1395.0</ele><time>2026-03-24T14:31:04.999Z</time></trkpt><trkpt lat="45.919992920081256" lon="11.79026720163176"><ele>1395.0</ele><time>2026-03-24T14:31:05.999Z</time></trkpt><trkpt lat="45.92009788897359" lon="11.790216335504681"><ele>1395.0</ele><time>2026-03-24T14:31:06.999Z</time></trkpt><trkpt lat="45.92021064766936" lon="11.790148500770734"><ele>1395.0</ele><time>2026-03-24T14:31:07.999Z</time></trkpt><trkpt lat="45.920316054875634" lon="11.790031228264487"><ele>1392.5</ele><time>2026-03-24T14:31:08.999Z</time></trkpt><trkpt lat="45.920466687890936" lon="11.78993899204188"><ele>1390.0</ele><time>2026-03-24T14:31:09.999Z</time></trkpt><trkpt lat="45.920603822917094" lon="11.789831940305856"><ele>1387.5</ele><time>2026-03-24T14:31:10.999Z</time></trkpt><trkpt lat="45.92071252730489" lon="11.789759800906717"><ele>1385.0</ele><time>2026-03-24T14:31:11.999Z</time></trkpt><trkpt lat="45.92082505211669" lon="11.789668362357173"><ele>1383.8</ele><time>2026-03-24T14:31:12.999Z</time></trkpt><trkpt lat="45.920923889880235" lon="11.789605505972492"><ele>1382.6</ele><time>2026-03-24T14:31:13.999Z</time></trkpt><trkpt lat="45.92102786383497" lon="11.789528813629046"><ele>1381.4</ele><time>2026-03-24T14:31:15Z</time></trkpt><trkpt lat="45.921105978108834" lon="11.789435066033944"><ele>1380.2</ele><time>2026-03-24T14:31:16Z</time></trkpt><trkpt lat="45.921189717818386" lon="11.789344836836209"><ele>1379.0</ele><time>2026-03-24T14:31:17Z</time></trkpt><trkpt lat="45.92125858261875" lon="11.789246680657184"><ele>1379.0</ele><time>2026-03-24T14:31:18Z</time></trkpt><trkpt lat="45.92132222873611" lon="11.789136606641716"><ele>1379.0</ele><time>2026-03-24T14:31:19Z</time></trkpt><trkpt lat="45.92140371896069" lon="11.789036368570423"><ele>1379.0</ele><time>2026-03-24T14:31:20Z</time></trkpt><trkpt lat="45.92150650213108" lon="11.788986217388395"><ele>1379.0</ele><time>2026-03-24T14:31:21Z</time></trkpt><trkpt lat="45.921609468992656" lon="11.788942063187767"><ele>1379.0</ele><time>2026-03-24T14:31:22Z</time></trkpt><trkpt lat="45.92172966089918" lon="11.788897160490535"><ele>1379.0</ele><time>2026-03-24T14:31:23Z</time></trkpt><trkpt lat="45.92187987069425" lon="11.788880434377393"><ele>1379.0</ele><time>2026-03-24T14:31:24Z</time></trkpt><trkpt lat="45.92200777850563" lon="11.788913376946164"><ele>1379.0</ele><time>2026-03-24T14:31:25Z</time></trkpt><trkpt lat="45.92213586474818" lon="11.788950699803339"><ele>1379.0</ele><time>2026-03-24T14:31:26Z</time></trkpt><trkpt lat="45.92225163027879" lon="11.788985375803927"><ele>1379.0</ele><time>2026-03-24T14:31:27Z</time></trkpt><trkpt lat="45.92235973228881" lon="11.788994436901872"><ele>1379.0</ele><time>2026-03-24T14:31:28Z</time></trkpt><trkpt lat="45.922460984334144" lon="11.789002923834287"><ele>1379.0</ele><time>2026-03-24T14:31:29Z</time></trkpt><trkpt lat="45.922548527413255" lon="11.788999263722166"><ele>1379.0</ele><time>2026-03-24T14:31:30Z</time></trkpt><trkpt lat="45.922634605295386" lon="11.788999005122157"><ele>1379.0</ele><time>2026-03-24T14:31:31Z</time></trkpt><trkpt lat="45.92272007673908" lon="11.78897119335703"><ele>1375.75</ele><time>2026-03-24T14:31:32Z</time></trkpt><trkpt lat="45.92282111683994" lon="11.788940466149496"><ele>1372.5</ele><time>2026-03-24T14:31:33Z</time></trkpt><trkpt lat="45.92293935636773" lon="11.788894568171754"><ele>1369.25</ele><time>2026-03-24T14:31:34Z</time></trkpt><trkpt lat="45.92304287487013" lon="11.78881702752848"><ele>1366.0</ele><time>2026-03-24T14:31:35Z</time></trkpt><trkpt lat="45.92315644452182" lon="11.788733764429267"><ele>1366.0</ele><time>2026-03-24T14:31:36Z</time></trkpt><trkpt lat="45.92329542293061" lon="11.788577853253793"><ele>1366.0</ele><time>2026-03-24T14:31:37Z</time></trkpt><trkpt lat="45.923434132548024" lon="11.788441036907251"><ele>1366.0</ele><time>2026-03-24T14:31:38Z</time></trkpt><trkpt lat="45.92357274679866" lon="11.788312040264769"><ele>1368.0</ele><time>2026-03-24T14:31:39Z</time></trkpt><trkpt lat="45.923714466689525" lon="11.788221527967442"><ele>1370.0</ele><time>2026-03-24T14:31:40Z</time></trkpt><trkpt lat="45.9238424389895" lon="11.788135889604936"><ele>1372.0</ele><time>2026-03-24T14:31:41Z</time></trkpt><trkpt lat="45.92396850243348" lon="11.788091354523225"><ele>1374.0</ele><time>2026-03-24T14:31:42Z</time></trkpt><trkpt lat="45.924087033532075" lon="11.788055570432515"><ele>1374.0</ele><time>2026-03-24T14:31:43Z</time></trkpt><trkpt lat="45.9242218853258" lon="11.788000214030683"><ele>1374.0</ele><time>2026-03-24T14:31:44Z</time></trkpt><trkpt lat="45.924345811114314" lon="11.787964814993597"><ele>1374.0</ele><time>2026-03-24T14:31:45Z</time></trkpt><trkpt lat="45.92448220236159" lon="11.787924906228822"><ele>1374.0</ele><time>2026-03-24T14:31:46Z</time></trkpt><trkpt lat="45.92461787766728" lon="11.787876595278915"><ele>1372.25</ele><time>2026-03-24T14:31:47Z</time></trkpt><trkpt lat="45.924741584383256" lon="11.787836090723843"><ele>1370.5</ele><time>2026-03-24T14:31:48Z</time></trkpt><trkpt lat="45.924843183221526" lon="11.787802801323174"><ele>1368.75</ele><time>2026-03-24T14:31:49Z</time></trkpt><trkpt lat="45.9249529677968" lon="11.787825819824253"><ele>1367.0</ele><time>2026-03-24T14:31:50Z</time></trkpt><trkpt lat="45.92508009118949" lon="11.787824060357645"><ele>1366.75</ele><time>2026-03-24T14:31:51Z</time></trkpt><trkpt lat="45.92521231298913" lon="11.787872774239883"><ele>1366.5</ele><time>2026-03-24T14:31:52Z</time></trkpt><trkpt lat="45.925345348303296" lon="11.787887575899513"><ele>1366.25</ele><time>2026-03-24T14:31:53Z</time></trkpt><trkpt lat="45.925481927792035" lon="11.787886475249081"><ele>1366.0</ele><time>2026-03-24T14:31:54Z</time></trkpt><trkpt lat="45.9256217206696" lon="11.78786580182677"><ele>1366.0</ele><time>2026-03-24T14:31:55Z</time></trkpt><trkpt lat="45.925762757429375" lon="11.787828939529694"><ele>1366.0</ele><time>2026-03-24T14:31:56Z</time></trkpt><trkpt lat="45.92591064661194" lon="11.787781075489379"><ele>1366.0</ele><time>2026-03-24T14:31:57Z</time></trkpt><trkpt lat="45.92605842115843" lon="11.787726570299203"><ele>1366.0</ele><time>2026-03-24T14:31:58Z</time></trkpt><trkpt lat="45.92620735490044" lon="11.787672033757385"><ele>1366.6666666666665</ele><time>2026-03-24T14:31:59Z</time></trkpt><trkpt lat="45.92635931010338" lon="11.787624963481209"><ele>1367.3333333333333</ele><time>2026-03-24T14:32:00Z</time></trkpt><trkpt lat="45.926512742282334" lon="11.787574653706276"><ele>1368.0</ele><time>2026-03-24T14:32:01Z</time></trkpt><trkpt lat="45.92665310774522" lon="11.787524290534295"><ele>1368.5</ele><time>2026-03-24T14:32:02Z</time></trkpt><trkpt lat="45.92678313506435" lon="11.78747448010988"><ele>1369.0</ele><time>2026-03-24T14:32:03Z</time></trkpt><trkpt lat="45.92690316227128" lon="11.787433429743606"><ele>1369.5</ele><time>2026-03-24T14:32:04Z</time></trkpt><trkpt lat="45.92701635096391" lon="11.78743251109238"><ele>1370.0</ele><time>2026-03-24T14:32:05Z</time></trkpt><trkpt lat="45.92712436899946" lon="11.787449858167676"><ele>1370.0</ele><time>2026-03-24T14:32:06Z</time></trkpt><trkpt lat="45.92724331611158" lon="11.787482904521708"><ele>1370.0</ele><time>2026-03-24T14:32:07Z</time></trkpt><trkpt lat="45.927367398353745" lon="11.787504525094034"><ele>1370.0</ele><time>2026-03-24T14:32:08Z</time></trkpt><trkpt lat="45.92748860071971" lon="11.787526646113694"><ele>1370.0</ele><time>2026-03-24T14:32:09Z</time></trkpt><trkpt lat="45.92760740228347" lon="11.78754496864638"><ele>1368.8</ele><time>2026-03-24T14:32:10Z</time></trkpt><trkpt lat="45.92771390678491" lon="11.787569794303142"><ele>1367.6</ele><time>2026-03-24T14:32:11Z</time></trkpt><trkpt lat="45.927809921725455" lon="11.787606672119557"><ele>1366.4</ele><time>2026-03-24T14:32:12Z</time></trkpt><trkpt lat="45.92789539093399" lon="11.78766783554891"><ele>1365.2</ele><time>2026-03-24T14:32:13Z</time></trkpt><trkpt lat="45.927964226821864" lon="11.787744272896278"><ele>1364.0</ele><time>2026-03-24T14:32:14Z</time></trkpt><trkpt lat="45.928026512199885" lon="11.787833618002626"><ele>1365.4</ele><time>2026-03-24T14:32:15Z</time></trkpt><trkpt lat="45.92811143583341" lon="11.787925776626908"><ele>1366.8000000000002</ele><time>2026-03-24T14:32:16Z</time></trkpt><trkpt lat="45.9281951010825" lon="11.7879617796844"><ele>1368.1999999999998</ele><time>2026-03-24T14:32:16.999Z</time></trkpt><trkpt lat="45.92827894073386" lon="11.787945876617153"><ele>1369.6</ele><time>2026-03-24T14:32:17.999Z</time></trkpt><trkpt lat="45.92835976121061" lon="11.787892039050396"><ele>1371.0</ele><time>2026-03-24T14:32:18.999Z</time></trkpt><trkpt lat="45.92844082050817" lon="11.787806496737206"><ele>1371.0</ele><time>2026-03-24T14:32:19.999Z</time></trkpt><trkpt lat="45.92854102930298" lon="11.787731123818434"><ele>1371.0</ele><time>2026-03-24T14:32:20.999Z</time></trkpt><trkpt lat="45.92863674358078" lon="11.787629248914257"><ele>1371.0</ele><time>2026-03-24T14:32:21.999Z</time></trkpt><trkpt lat="45.9287370194336" lon="11.787522707223468"><ele>1371.0</ele><time>2026-03-24T14:32:22.999Z</time></trkpt><trkpt lat="45.92883117564866" lon="11.78742658311263"><ele>1370.8</ele><time>2026-03-24T14:32:23.999Z</time></trkpt><trkpt lat="45.928922381720035" lon="11.787333280358542"><ele>1370.6</ele><time>2026-03-24T14:32:24.999Z</time></trkpt><trkpt lat="45.92899971027762" lon="11.787222685373273"><ele>1370.4</ele><time>2026-03-24T14:32:25.999Z</time></trkpt><trkpt lat="45.929092593236156" lon="11.787135342057526"><ele>1370.2</ele><time>2026-03-24T14:32:26.999Z</time></trkpt><trkpt lat="45.92918502903198" lon="11.787053458909995"><ele>1370.0</ele><time>2026-03-24T14:32:27.999Z</time></trkpt><trkpt lat="45.929285067073465" lon="11.786981553972643"><ele>1369.75</ele><time>2026-03-24T14:32:28.999Z</time></trkpt><trkpt lat="45.92939636817394" lon="11.78693060995076"><ele>1369.5</ele><time>2026-03-24T14:32:29.999Z</time></trkpt><trkpt lat="45.929518514918485" lon="11.786889293248908"><ele>1369.25</ele><time>2026-03-24T14:32:30.999Z</time></trkpt><trkpt lat="45.92965014904025" lon="11.78684135546115"><ele>1369.0</ele><time>2026-03-24T14:32:31.999Z</time></trkpt><trkpt lat="45.929793753832726" lon="11.786784142484503"><ele>1365.5</ele><time>2026-03-24T14:32:32.999Z</time></trkpt><trkpt lat="45.9299259942603" lon="11.786690113662681"><ele>1362.0</ele><time>2026-03-24T14:32:33.999Z</time></trkpt><trkpt lat="45.93003735932636" lon="11.786598385335182"><ele>1358.5</ele><time>2026-03-24T14:32:34.999Z</time></trkpt><trkpt lat="45.930157596916075" lon="11.786502534090198"><ele>1355.0</ele><time>2026-03-24T14:32:35.999Z</time></trkpt><trkpt lat="45.930277287372625" lon="11.78640812550929"><ele>1353.4</ele><time>2026-03-24T14:32:36.999Z</time></trkpt><trkpt lat="45.93038972730984" lon="11.786321111926348"><ele>1351.8</ele><time>2026-03-24T14:32:37.999Z</time></trkpt><trkpt lat="45.930481914539335" lon="11.786254802244096"><ele>1350.1999999999998</ele><time>2026-03-24T14:32:38.999Z</time></trkpt><trkpt lat="45.93055347562258" lon="11.786204717014334"><ele>1348.6</ele><time>2026-03-24T14:32:39.999Z</time></trkpt><trkpt lat="45.9306127683768" lon="11.786158639873916"><ele>1347.0</ele><time>2026-03-24T14:32:40.999Z</time></trkpt><trkpt lat="45.930696702954805" lon="11.786066193457495"><ele>1344.5</ele><time>2026-03-24T14:32:42.999Z</time></trkpt><trkpt lat="45.93072823603626" lon="11.785939976944878"><ele>1342.0</ele><time>2026-03-24T14:32:44.999Z</time></trkpt><trkpt lat="45.930648166905414" lon="11.785869751103135"><ele>1339.5</ele><time>2026-03-24T14:32:45.999Z</time></trkpt><trkpt lat="45.93056407628637" lon="11.785901869548157"><ele>1337.0</ele><time>2026-03-24T14:32:46.999Z</time></trkpt><trkpt lat="45.93048545664255" lon="11.785907951278638"><ele>1334.5</ele><time>2026-03-24T14:32:47.999Z</time></trkpt><trkpt lat="45.93042062262774" lon="11.785924481988792"><ele>1332.0</ele><time>2026-03-24T14:32:48.999Z</time></trkpt><trkpt lat="45.930314149099694" lon="11.785938854413443"><ele>1332.0</ele><time>2026-03-24T14:32:50.999Z</time></trkpt><trkpt lat="45.93027419667782" lon="11.785816667695304"><ele>1332.0</ele><time>2026-03-24T14:32:53.999Z</time></trkpt><trkpt lat="45.930367777673354" lon="11.785757901717899"><ele>1332.0</ele><time>2026-03-24T14:32:55.999Z</time></trkpt><trkpt lat="45.93047973385438" lon="11.785693504837365"><ele>1332.0</ele><time>2026-03-24T14:32:57.999Z</time></trkpt><trkpt lat="45.9305544544985" lon="11.785682784050104"><ele>1332.0</ele><time>2026-03-24T14:32:58.999Z</time></trkpt><trkpt lat="45.930636296311896" lon="11.785655054275528"><ele>1332.0</ele><time>2026-03-24T14:32:59.999Z</time></trkpt><trkpt lat="45.93072826543856" lon="11.785620948089312"><ele>1332.0</ele><time>2026-03-24T14:33:00.999Z</time></trkpt><trkpt lat="45.93081997011837" lon="11.785581519970878"><ele>1332.0</ele><time>2026-03-24T14:33:01.999Z</time></trkpt><trkpt lat="45.930916303361286" lon="11.78554108141019"><ele>1332.0</ele><time>2026-03-24T14:33:02.999Z</time></trkpt><trkpt lat="45.9310158916944" lon="11.785502602653134"><ele>1332.0</ele><time>2026-03-24T14:33:03.999Z</time></trkpt><trkpt lat="45.93110735001124" lon="11.785475389880334"><ele>1330.8333333333333</ele><time>2026-03-24T14:33:04.999Z</time></trkpt><trkpt lat="45.93119154112192" lon="11.78547625117598"><ele>1329.6666666666667</ele><time>2026-03-24T14:33:05.999Z</time></trkpt><trkpt lat="45.93127108956433" lon="11.7855260085134"><ele>1328.5</ele><time>2026-03-24T14:33:06.999Z</time></trkpt><trkpt lat="45.931340466923295" lon="11.785606018069203"><ele>1327.3333333333335</ele><time>2026-03-24T14:33:07.999Z</time></trkpt><trkpt lat="45.931407844622136" lon="11.785696331121247"><ele>1326.1666666666667</ele><time>2026-03-24T14:33:08.999Z</time></trkpt><trkpt lat="45.93147624127318" lon="11.785768747629945"><ele>1325.0</ele><time>2026-03-24T14:33:09.999Z</time></trkpt><trkpt lat="45.931546199736864" lon="11.785806550862498"><ele>1325.0</ele><time>2026-03-24T14:33:10.999Z</time></trkpt><trkpt lat="45.931624160605146" lon="11.785799554445294"><ele>1325.0</ele><time>2026-03-24T14:33:11.999Z</time></trkpt><trkpt lat="45.931702430726716" lon="11.785741628246805"><ele>1325.0</ele><time>2026-03-24T14:33:12.999Z</time></trkpt><trkpt lat="45.931763087183555" lon="11.785641974932783"><ele>1325.0</ele><time>2026-03-24T14:33:13.999Z</time></trkpt><trkpt lat="45.93182646907342" lon="11.785533013925777"><ele>1325.0</ele><time>2026-03-24T14:33:14.999Z</time></trkpt><trkpt lat="45.93188986831272" lon="11.785404537224215"><ele>1322.0</ele><time>2026-03-24T14:33:15.999Z</time></trkpt><trkpt lat="45.931957281181944" lon="11.7852872415819"><ele>1319.0</ele><time>2026-03-24T14:33:16.999Z</time></trkpt><trkpt lat="45.93204213113014" lon="11.785169448803302"><ele>1316.0</ele><time>2026-03-24T14:33:17.999Z</time></trkpt><trkpt lat="45.932140966980974" lon="11.785053573767703"><ele>1313.0</ele><time>2026-03-24T14:33:18.999Z</time></trkpt><trkpt lat="45.93225776851822" lon="11.784918946317683"><ele>1313.0</ele><time>2026-03-24T14:33:19.999Z</time></trkpt><trkpt lat="45.93238495507933" lon="11.784780782624107"><ele>1313.0</ele><time>2026-03-24T14:33:21Z</time></trkpt><trkpt lat="45.93251158966659" lon="11.784664494482897"><ele>1313.0</ele><time>2026-03-24T14:33:22Z</time></trkpt><trkpt lat="45.93263798321584" lon="11.78458975976965"><ele>1313.0</ele><time>2026-03-24T14:33:23Z</time></trkpt><trkpt lat="45.93276528366922" lon="11.7845129548978"><ele>1308.25</ele><time>2026-03-24T14:33:24Z</time></trkpt><trkpt lat="45.9328916772096" lon="11.784436739943278"><ele>1303.5</ele><time>2026-03-24T14:33:25Z</time></trkpt><trkpt lat="45.93299476400673" lon="11.78437457890209"><ele>1298.75</ele><time>2026-03-24T14:33:26Z</time></trkpt><trkpt lat="45.933105368629406" lon="11.784308177254514"><ele>1294.0</ele><time>2026-03-24T14:33:27Z</time></trkpt><trkpt lat="45.93320084622623" lon="11.784249528208868"><ele>1294.0</ele><time>2026-03-24T14:33:28Z</time></trkpt><trkpt lat="45.933341204944256" lon="11.784145439454946"><ele>1294.0</ele><time>2026-03-24T14:33:30Z</time></trkpt><trkpt lat="45.93342972476337" lon="11.784049971422496"><ele>1294.0</ele><time>2026-03-24T14:33:31Z</time></trkpt><trkpt lat="45.93352374483745" lon="11.783924117129246"><ele>1294.0</ele><time>2026-03-24T14:33:32Z</time></trkpt><trkpt lat="45.933631768827645" lon="11.783764964263076"><ele>1292.0</ele><time>2026-03-24T14:33:33Z</time></trkpt><trkpt lat="45.933729677793174" lon="11.783584775299063"><ele>1290.0</ele><time>2026-03-24T14:33:34Z</time></trkpt><trkpt lat="45.93384694716403" lon="11.783427341967656"><ele>1288.0</ele><time>2026-03-24T14:33:35Z</time></trkpt><trkpt lat="45.9339828671139" lon="11.78328956087546"><ele>1288.0</ele><time>2026-03-24T14:33:36Z</time></trkpt><trkpt lat="45.93414733134668" lon="11.783150382336993"><ele>1288.0</ele><time>2026-03-24T14:33:37Z</time></trkpt><trkpt lat="45.93431570960858" lon="11.782994150990714"><ele>1288.0</ele><time>2026-03-24T14:33:38Z</time></trkpt><trkpt lat="45.93446006220343" lon="11.782859614086"><ele>1289.0</ele><time>2026-03-24T14:33:39Z</time></trkpt><trkpt lat="45.93459652621492" lon="11.782738472552097"><ele>1290.0</ele><time>2026-03-24T14:33:40Z</time></trkpt><trkpt lat="45.9347296777356" lon="11.782631497755661"><ele>1291.0</ele><time>2026-03-24T14:33:41Z</time></trkpt><trkpt lat="45.93483875607479" lon="11.78250960543176"><ele>1291.0</ele><time>2026-03-24T14:33:42Z</time></trkpt><trkpt lat="45.93492249341582" lon="11.78236865280208"><ele>1291.0</ele><time>2026-03-24T14:33:43Z</time></trkpt><trkpt lat="45.934981909366655" lon="11.782227252664374"><ele>1291.0</ele><time>2026-03-24T14:33:44Z</time></trkpt><trkpt lat="45.935039500345766" lon="11.782078009012617"><ele>1291.0</ele><time>2026-03-24T14:33:45Z</time></trkpt><trkpt lat="45.93509341085321" lon="11.781933187322384"><ele>1289.4</ele><time>2026-03-24T14:33:46Z</time></trkpt><trkpt lat="45.93515029669461" lon="11.781784450294616"><ele>1287.8</ele><time>2026-03-24T14:33:47Z</time></trkpt><trkpt lat="45.93519964407848" lon="11.781654612236954"><ele>1286.2</ele><time>2026-03-24T14:33:48Z</time></trkpt><trkpt lat="45.93523239564077" lon="11.781558784627729"><ele>1284.6000000000001</ele><time>2026-03-24T14:33:49Z</time></trkpt><trkpt lat="45.935275536488405" lon="11.781405164208419"><ele>1283.0</ele><time>2026-03-24T14:33:51Z</time></trkpt><trkpt lat="45.93541412229345" lon="11.78136998217017"><ele>1283.0</ele><time>2026-03-24T14:33:53Z</time></trkpt><trkpt lat="45.935494090952695" lon="11.781418692548565"><ele>1283.0</ele><time>2026-03-24T14:33:54Z</time></trkpt><trkpt lat="45.93555229984281" lon="11.781515388419816"><ele>1283.0</ele><time>2026-03-24T14:33:55Z</time></trkpt><trkpt lat="45.935629655297994" lon="11.781586010632351"><ele>1283.0</ele><time>2026-03-24T14:33:56Z</time></trkpt><trkpt lat="45.935718613783976" lon="11.781656355053746"><ele>1283.0</ele><time>2026-03-24T14:33:57Z</time></trkpt><trkpt lat="45.93582106583201" lon="11.78172796184068"><ele>1281.5</ele><time>2026-03-24T14:33:58Z</time></trkpt><trkpt lat="45.935921022471426" lon="11.78179148897384"><ele>1280.0</ele><time>2026-03-24T14:33:59Z</time></trkpt><trkpt lat="45.936012214481266" lon="11.781829743415834"><ele>1278.5</ele><time>2026-03-24T14:34:00Z</time></trkpt><trkpt lat="45.936099899025905" lon="11.78184613602616"><ele>1277.0</ele><time>2026-03-24T14:34:01Z</time></trkpt><trkpt lat="45.9361734735359" lon="11.78186622154487"><ele>1275.5</ele><time>2026-03-24T14:34:02Z</time></trkpt><trkpt lat="45.936239261537615" lon="11.781879816112061"><ele>1274.0</ele><time>2026-03-24T14:34:03Z</time></trkpt><trkpt lat="45.936371958559725" lon="11.781834436735478"><ele>1273.8333333333335</ele><time>2026-03-24T14:34:05Z</time></trkpt><trkpt lat="45.93641850046623" lon="11.781722183309169"><ele>1273.6666666666667</ele><time>2026-03-24T14:34:06Z</time></trkpt><trkpt lat="45.936436954144334" lon="11.781613945578114"><ele>1273.5</ele><time>2026-03-24T14:34:07Z</time></trkpt><trkpt lat="45.93644923185405" lon="11.781512047843863"><ele>1273.3333333333333</ele><time>2026-03-24T14:34:08Z</time></trkpt><trkpt lat="45.93646324723698" lon="11.781384588597753"><ele>1273.1666666666665</ele><time>2026-03-24T14:34:09Z</time></trkpt><trkpt lat="45.936478020658775" lon="11.781250235551294"><ele>1273.0</ele><time>2026-03-24T14:34:10Z</time></trkpt><trkpt lat="45.93648635719943" lon="11.781109925115766"><ele>1273.0</ele><time>2026-03-24T14:34:11Z</time></trkpt><trkpt lat="45.93647533162802" lon="11.78098960563544"><ele>1273.0</ele><time>2026-03-24T14:34:12Z</time></trkpt><trkpt lat="45.93646237769062" lon="11.780889487193708"><ele>1273.0</ele><time>2026-03-24T14:34:13Z</time></trkpt><trkpt lat="45.93648791222255" lon="11.78076352337063"><ele>1273.0</ele><time>2026-03-24T14:34:15Z</time></trkpt><trkpt lat="45.936589769956285" lon="11.780822282699589"><ele>1273.0</ele><time>2026-03-24T14:34:16.999Z</time></trkpt><trkpt lat="45.9366201121089" lon="11.780927090336638"><ele>1273.0</ele><time>2026-03-24T14:34:17.999Z</time></trkpt><trkpt lat="45.93664028955408" lon="11.78104041227268"><ele>1273.0</ele><time>2026-03-24T14:34:18.999Z</time></trkpt><trkpt lat="45.93667129464506" lon="11.781163578791839"><ele>1273.0</ele><time>2026-03-24T14:34:19.999Z</time></trkpt><trkpt lat="45.93672321062799" lon="11.781288934186453"><ele>1273.0</ele><time>2026-03-24T14:34:20.999Z</time></trkpt><trkpt lat="45.936768832052515" lon="11.781423441102248"><ele>1273.0</ele><time>2026-03-24T14:34:21.999Z</time></trkpt><trkpt lat="45.93681383021135" lon="11.78154642965422"><ele>1273.0</ele><time>2026-03-24T14:34:22.999Z</time></trkpt><trkpt lat="45.9368622174471" lon="11.781665415773496"><ele>1270.3333333333333</ele><time>2026-03-24T14:34:23.999Z</time></trkpt><trkpt lat="45.936912667025425" lon="11.781760993043932"><ele>1267.6666666666665</ele><time>2026-03-24T14:34:24.999Z</time></trkpt><trkpt lat="45.9369697821845" lon="11.781825105228288"><ele>1265.0</ele><time>2026-03-24T14:34:25.999Z</time></trkpt><trkpt lat="45.93704214726631" lon="11.781842930243474"><ele>1262.3333333333333</ele><time>2026-03-24T14:34:26.999Z</time></trkpt><trkpt lat="45.93715200243258" lon="11.78172617937187"><ele>1259.6666666666667</ele><time>2026-03-24T14:34:28.999Z</time></trkpt><trkpt lat="45.93717833332197" lon="11.781627293655559"><ele>1257.0</ele><time>2026-03-24T14:34:29.999Z</time></trkpt><trkpt lat="45.93717906041056" lon="11.781511294508908"><ele>1257.0</ele><time>2026-03-24T14:34:30.999Z</time></trkpt><trkpt lat="45.93713950049981" lon="11.78139778962367"><ele>1257.0</ele><time>2026-03-24T14:34:31.999Z</time></trkpt><trkpt lat="45.9371191747179" lon="11.781297164486622"><ele>1257.0</ele><time>2026-03-24T14:34:32.999Z</time></trkpt><trkpt lat="45.937157832608456" lon="11.78114877759452"><ele>1257.0</ele><time>2026-03-24T14:34:34.999Z</time></trkpt><trkpt lat="45.93726434673877" lon="11.781103669311019"><ele>1257.0</ele><time>2026-03-24T14:34:36.999Z</time></trkpt><trkpt lat="45.93732616620048" lon="11.781121242598292"><ele>1257.0</ele><time>2026-03-24T14:34:37.999Z</time></trkpt><trkpt lat="45.93739896971239" lon="11.781141049687093"><ele>1257.0</ele><time>2026-03-24T14:34:38.999Z</time></trkpt><trkpt lat="45.93747942994762" lon="11.78118370177298"><ele>1257.0</ele><time>2026-03-24T14:34:39.999Z</time></trkpt><trkpt lat="45.93755009877668" lon="11.781266408557103"><ele>1257.0</ele><time>2026-03-24T14:34:40.999Z</time></trkpt><trkpt lat="45.93759888984949" lon="11.781394161423279"><ele>1257.0</ele><time>2026-03-24T14:34:41.999Z</time></trkpt><trkpt lat="45.937627102577366" lon="11.781537397902543"><ele>1257.0</ele><time>2026-03-24T14:34:42.999Z</time></trkpt><trkpt lat="45.93762084102048" lon="11.781684447667029"><ele>1257.0</ele><time>2026-03-24T14:34:43.999Z</time></trkpt><trkpt lat="45.93758754598029" lon="11.781806224609682"><ele>1257.0</ele><time>2026-03-24T14:34:44.999Z</time></trkpt><trkpt lat="45.937520007016396" lon="11.781896875961673"><ele>1257.0</ele><time>2026-03-24T14:34:45.999Z</time></trkpt><trkpt lat="45.93744799100374" lon="11.781991087001133"><ele>1257.0</ele><time>2026-03-24T14:34:46.999Z</time></trkpt><trkpt lat="45.937414445339435" lon="11.782094463625267"><ele>1257.0</ele><time>2026-03-24T14:34:47.999Z</time></trkpt><trkpt lat="45.937387791158216" lon="11.782204138305515"><ele>1257.0</ele><time>2026-03-24T14:34:48.999Z</time></trkpt><trkpt lat="45.93739136112063" lon="11.782352822629653"><ele>1257.0</ele><time>2026-03-24T14:34:49.999Z</time></trkpt><trkpt lat="45.93741593814033" lon="11.782503644467583"><ele>1257.0</ele><time>2026-03-24T14:34:50.999Z</time></trkpt><trkpt lat="45.93744625019443" lon="11.782656302302458"><ele>1257.0</ele><time>2026-03-24T14:34:51.999Z</time></trkpt><trkpt lat="45.93748255637826" lon="11.782798157444786"><ele>1257.0</ele><time>2026-03-24T14:34:52.999Z</time></trkpt><trkpt lat="45.93753060698781" lon="11.782925869315426"><ele>1257.0</ele><time>2026-03-24T14:34:53.999Z</time></trkpt><trkpt lat="45.937605458932815" lon="11.783019036426023"><ele>1249.4</ele><time>2026-03-24T14:34:54.999Z</time></trkpt><trkpt lat="45.937666767221494" lon="11.783113822333693"><ele>1241.8000000000002</ele><time>2026-03-24T14:34:55.999Z</time></trkpt><trkpt lat="45.93770867879594" lon="11.78321322452853"><ele>1234.2</ele><time>2026-03-24T14:34:56.999Z</time></trkpt><trkpt lat="45.93775400671426" lon="11.783342719420741"><ele>1226.6000000000001</ele><time>2026-03-24T14:34:57.999Z</time></trkpt><trkpt lat="45.93777892465918" lon="11.783516151378224"><ele>1219.0</ele><time>2026-03-24T14:34:58.999Z</time></trkpt><trkpt lat="45.937806374168034" lon="11.783722264999538"><ele>1219.0</ele><time>2026-03-24T14:34:59.999Z</time></trkpt><trkpt lat="45.93785115138708" lon="11.783973414275914"><ele>1219.0</ele><time>2026-03-24T14:35:00.999Z</time></trkpt><trkpt lat="45.937891733111755" lon="11.784205788432782"><ele>1219.0</ele><time>2026-03-24T14:35:01.999Z</time></trkpt><trkpt lat="45.93793153595233" lon="11.784425991104209"><ele>1219.75</ele><time>2026-03-24T14:35:02.999Z</time></trkpt><trkpt lat="45.93798699577823" lon="11.7846200840986"><ele>1220.5</ele><time>2026-03-24T14:35:03.999Z</time></trkpt><trkpt lat="45.93806786628494" lon="11.784799824760746"><ele>1221.25</ele><time>2026-03-24T14:35:04.999Z</time></trkpt><trkpt lat="45.938156116767296" lon="11.784950740134034"><ele>1222.0</ele><time>2026-03-24T14:35:05.999Z</time></trkpt><trkpt lat="45.93825490426525" lon="11.785062728864917"><ele>1223.0</ele><time>2026-03-24T14:35:06.999Z</time></trkpt><trkpt lat="45.93831471147788" lon="11.785180940109596"><ele>1224.0</ele><time>2026-03-24T14:35:07.999Z</time></trkpt><trkpt lat="45.93838613844811" lon="11.785296281887481"><ele>1225.0</ele><time>2026-03-24T14:35:08.999Z</time></trkpt><trkpt lat="45.938452010930085" lon="11.785459119222912"><ele>1226.0</ele><time>2026-03-24T14:35:09.999Z</time></trkpt><trkpt lat="45.93852060195157" lon="11.785630104265678"><ele>1221.5</ele><time>2026-03-24T14:35:10.999Z</time></trkpt><trkpt lat="45.93860163221093" lon="11.78581651545124"><ele>1217.0</ele><time>2026-03-24T14:35:11.999Z</time></trkpt><trkpt lat="45.93866914204875" lon="11.785991618440981"><ele>1212.5</ele><time>2026-03-24T14:35:12.999Z</time></trkpt><trkpt lat="45.938725855203515" lon="11.78616523328053"><ele>1208.0</ele><time>2026-03-24T14:35:13.999Z</time></trkpt><trkpt lat="45.93878736588017" lon="11.786325685089082"><ele>1208.0</ele><time>2026-03-24T14:35:14.999Z</time></trkpt><trkpt lat="45.93887708013965" lon="11.786472605557524"><ele>1208.0</ele><time>2026-03-24T14:35:15.999Z</time></trkpt><trkpt lat="45.93897228745313" lon="11.786616139870965"><ele>1208.0</ele><time>2026-03-24T14:35:16.999Z</time></trkpt><trkpt lat="45.93906466024185" lon="11.786787762791713"><ele>1208.0</ele><time>2026-03-24T14:35:17.999Z</time></trkpt><trkpt lat="45.93915717331984" lon="11.7869721659456"><ele>1205.0</ele><time>2026-03-24T14:35:18.999Z</time></trkpt><trkpt lat="45.939235114963935" lon="11.787145444926315"><ele>1202.0</ele><time>2026-03-24T14:35:19.998Z</time></trkpt><trkpt lat="45.93933078769655" lon="11.78729390679253"><ele>1199.0</ele><time>2026-03-24T14:35:20.998Z</time></trkpt><trkpt lat="45.9394419881822" lon="11.787420117951257"><ele>1196.0</ele><time>2026-03-24T14:35:21.998Z</time></trkpt><trkpt lat="45.93956412130719" lon="11.787514565316101"><ele>1196.0</ele><time>2026-03-24T14:35:22.998Z</time></trkpt><trkpt lat="45.93967835253851" lon="11.787597418511945"><ele>1196.0</ele><time>2026-03-24T14:35:23.998Z</time></trkpt><trkpt lat="45.939786086565206" lon="11.78770685416621"><ele>1196.0</ele><time>2026-03-24T14:35:24.998Z</time></trkpt><trkpt lat="45.93987686638049" lon="11.78784065080261"><ele>1196.0</ele><time>2026-03-24T14:35:25.998Z</time></trkpt><trkpt lat="45.93995967212733" lon="11.787984220554451"><ele>1193.0</ele><time>2026-03-24T14:35:27Z</time></trkpt><trkpt lat="45.94005184417976" lon="11.788108731444233"><ele>1190.0</ele><time>2026-03-24T14:35:28Z</time></trkpt><trkpt lat="45.94016228511535" lon="11.788193925347985"><ele>1187.0</ele><time>2026-03-24T14:35:29Z</time></trkpt><trkpt lat="45.94028612790757" lon="11.78828307528176"><ele>1184.0</ele><time>2026-03-24T14:35:30Z</time></trkpt><trkpt lat="45.94040911229124" lon="11.788372518910974"><ele>1184.0</ele><time>2026-03-24T14:35:31Z</time></trkpt><trkpt lat="45.940521811686345" lon="11.78847957530224"><ele>1184.0</ele><time>2026-03-24T14:35:32Z</time></trkpt><trkpt lat="45.94062968829719" lon="11.788617790618268"><ele>1184.0</ele><time>2026-03-24T14:35:33Z</time></trkpt><trkpt lat="45.94073801609305" lon="11.788775325722613"><ele>1184.0</ele><time>2026-03-24T14:35:34Z</time></trkpt><trkpt lat="45.94085108426721" lon="11.788933290339113"><ele>1182.75</ele><time>2026-03-24T14:35:35Z</time></trkpt><trkpt lat="45.940959295941795" lon="11.789086681638722"><ele>1181.5</ele><time>2026-03-24T14:35:36Z</time></trkpt><trkpt lat="45.94105922890062" lon="11.789236554546225"><ele>1180.25</ele><time>2026-03-24T14:35:37Z</time></trkpt><trkpt lat="45.94114761857276" lon="11.789376875702747"><ele>1179.0</ele><time>2026-03-24T14:35:38Z</time></trkpt><trkpt lat="45.94122481221362" lon="11.789513670725679"><ele>1179.0</ele><time>2026-03-24T14:35:39Z</time></trkpt><trkpt lat="45.941282489256125" lon="11.789657724068535"><ele>1179.0</ele><time>2026-03-24T14:35:40Z</time></trkpt><trkpt lat="45.94131880043919" lon="11.789821489616793"><ele>1179.0</ele><time>2026-03-24T14:35:41Z</time></trkpt><trkpt lat="45.94133921894775" lon="11.789985357163257"><ele>1179.0</ele><time>2026-03-24T14:35:42Z</time></trkpt><trkpt lat="45.94136697087546" lon="11.790134521130566"><ele>1183.75</ele><time>2026-03-24T14:35:43Z</time></trkpt><trkpt lat="45.941437574483054" lon="11.790243306324141"><ele>1188.5</ele><time>2026-03-24T14:35:44Z</time></trkpt><trkpt lat="45.94153109208372" lon="11.790332126153832"><ele>1193.25</ele><time>2026-03-24T14:35:45Z</time></trkpt><trkpt lat="45.94161827257203" lon="11.790463776242227"><ele>1198.0</ele><time>2026-03-24T14:35:46Z</time></trkpt><trkpt lat="45.94170071044117" lon="11.790615391231318"><ele>1195.25</ele><time>2026-03-24T14:35:47Z</time></trkpt><trkpt lat="45.94177804498858" lon="11.790779068377338"><ele>1192.5</ele><time>2026-03-24T14:35:48Z</time></trkpt><trkpt lat="45.94190393959144" lon="11.79087867831382"><ele>1189.75</ele><time>2026-03-24T14:35:49Z</time></trkpt><trkpt lat="45.94203072436463" lon="11.791004417226201"><ele>1187.0</ele><time>2026-03-24T14:35:50Z</time></trkpt><trkpt lat="45.94214189479566" lon="11.791099851953986"><ele>1187.0</ele><time>2026-03-24T14:35:51Z</time></trkpt><trkpt lat="45.942228235518556" lon="11.791195579683265"><ele>1187.0</ele><time>2026-03-24T14:35:52Z</time></trkpt><trkpt lat="45.94230002172137" lon="11.791297366278506"><ele>1187.0</ele><time>2026-03-24T14:35:53Z</time></trkpt><trkpt lat="45.9423711261746" lon="11.791412184251035"><ele>1187.0</ele><time>2026-03-24T14:35:54Z</time></trkpt><trkpt lat="45.9424522699301" lon="11.791531964433045"><ele>1187.0</ele><time>2026-03-24T14:35:55Z</time></trkpt><trkpt lat="45.94251234954072" lon="11.791689577078444"><ele>1180.0</ele><time>2026-03-24T14:35:56Z</time></trkpt><trkpt lat="45.94257485501464" lon="11.791853112852634"><ele>1173.0</ele><time>2026-03-24T14:35:57Z</time></trkpt><trkpt lat="45.942649324255925" lon="11.79200809566711"><ele>1166.0</ele><time>2026-03-24T14:35:58Z</time></trkpt><trkpt lat="45.94270293708919" lon="11.792194476324225"><ele>1159.0</ele><time>2026-03-24T14:35:59Z</time></trkpt><trkpt lat="45.94276993132905" lon="11.792361815628022"><ele>1159.0</ele><time>2026-03-24T14:36:00Z</time></trkpt><trkpt lat="45.94285209151375" lon="11.792513547909842"><ele>1159.0</ele><time>2026-03-24T14:36:01Z</time></trkpt><trkpt lat="45.94294626611432" lon="11.792651019422603"><ele>1159.0</ele><time>2026-03-24T14:36:02Z</time></trkpt><trkpt lat="45.94303729634956" lon="11.79278357550737"><ele>1159.0</ele><time>2026-03-24T14:36:03Z</time></trkpt><trkpt lat="45.94313440137922" lon="11.792884015220025"><ele>1158.75</ele><time>2026-03-24T14:36:04Z</time></trkpt><trkpt lat="45.94323862625103" lon="11.792967154036669"><ele>1158.5</ele><time>2026-03-24T14:36:05Z</time></trkpt><trkpt lat="45.94335399469576" lon="11.79305306331329"><ele>1158.25</ele><time>2026-03-24T14:36:06Z</time></trkpt><trkpt lat="45.943480153134885" lon="11.793106675502225"><ele>1158.0</ele><time>2026-03-24T14:36:07Z</time></trkpt><trkpt lat="45.94361816447249" lon="11.793154397336256"><ele>1158.0</ele><time>2026-03-24T14:36:08Z</time></trkpt><trkpt lat="45.943736826170195" lon="11.79319827957127"><ele>1158.0</ele><time>2026-03-24T14:36:09Z</time></trkpt><trkpt lat="45.94384864047991" lon="11.793247681062795"><ele>1158.0</ele><time>2026-03-24T14:36:10Z</time></trkpt><trkpt lat="45.94397813983267" lon="11.793309238185815"><ele>1158.0</ele><time>2026-03-24T14:36:11Z</time></trkpt><trkpt lat="45.944120449707086" lon="11.793374643161036"><ele>1157.25</ele><time>2026-03-24T14:36:12Z</time></trkpt><trkpt lat="45.94424154997082" lon="11.79343606181738"><ele>1156.5</ele><time>2026-03-24T14:36:13Z</time></trkpt><trkpt lat="45.94435794208259" lon="11.793525254848866"><ele>1155.75</ele><time>2026-03-24T14:36:14Z</time></trkpt><trkpt lat="45.944456610554845" lon="11.793640610580269"><ele>1155.0</ele><time>2026-03-24T14:36:15Z</time></trkpt><trkpt lat="45.94455084840243" lon="11.793789051707877"><ele>1155.0</ele><time>2026-03-24T14:36:16Z</time></trkpt><trkpt lat="45.94462585268999" lon="11.793886793035924"><ele>1155.0</ele><time>2026-03-24T14:36:16.999Z</time></trkpt><trkpt lat="45.944695116448806" lon="11.79398296426759"><ele>1155.0</ele><time>2026-03-24T14:36:17.999Z</time></trkpt><trkpt lat="45.94475193976947" lon="11.794086891684767"><ele>1155.0</ele><time>2026-03-24T14:36:18.999Z</time></trkpt><trkpt lat="45.94483292227161" lon="11.794148257904329"><ele>1155.0</ele><time>2026-03-24T14:36:19.999Z</time></trkpt><trkpt lat="45.94492610299634" lon="11.794164009679951"><ele>1155.25</ele><time>2026-03-24T14:36:20.999Z</time></trkpt><trkpt lat="45.94505301427901" lon="11.794235262188518"><ele>1155.5</ele><time>2026-03-24T14:36:21.999Z</time></trkpt><trkpt lat="45.94517104280508" lon="11.794285287478521"><ele>1155.75</ele><time>2026-03-24T14:36:22.999Z</time></trkpt><trkpt lat="45.94529351902811" lon="11.794351109398244"><ele>1156.0</ele><time>2026-03-24T14:36:23.999Z</time></trkpt><trkpt lat="45.945435098851654" lon="11.794417443150836"><ele>1156.0</ele><time>2026-03-24T14:36:24.999Z</time></trkpt><trkpt lat="45.945600845990725" lon="11.794442034477504"><ele>1156.0</ele><time>2026-03-24T14:36:25.999Z</time></trkpt><trkpt lat="45.945748297835024" lon="11.794450202309894"><ele>1156.0</ele><time>2026-03-24T14:36:26.999Z</time></trkpt><trkpt lat="45.94589355443003" lon="11.794451184246274"><ele>1152.25</ele><time>2026-03-24T14:36:27.999Z</time></trkpt><trkpt lat="45.94603135967354" lon="11.79446822544734"><ele>1148.5</ele><time>2026-03-24T14:36:28.999Z</time></trkpt><trkpt lat="45.946172832069145" lon="11.794514114917243"><ele>1144.75</ele><time>2026-03-24T14:36:29.999Z</time></trkpt><trkpt lat="45.94633347781766" lon="11.794571105402635"><ele>1141.0</ele><time>2026-03-24T14:36:30.999Z</time></trkpt><trkpt lat="45.94650045654834" lon="11.794625387625288"><ele>1141.0</ele><time>2026-03-24T14:36:31.999Z</time></trkpt><trkpt lat="45.946670734726595" lon="11.794626198679115"><ele>1141.0</ele><time>2026-03-24T14:36:32.999Z</time></trkpt><trkpt lat="45.94680843085261" lon="11.794685087703538"><ele>1141.0</ele><time>2026-03-24T14:36:33.999Z</time></trkpt><trkpt lat="45.946939752355725" lon="11.7947296965641"><ele>1141.0</ele><time>2026-03-24T14:36:34.999Z</time></trkpt><trkpt lat="45.94706214704185" lon="11.794775201673824"><ele>1138.0</ele><time>2026-03-24T14:36:35.999Z</time></trkpt><trkpt lat="45.94716984356215" lon="11.79479587161784"><ele>1135.0</ele><time>2026-03-24T14:36:36.999Z</time></trkpt><trkpt lat="45.947260612117816" lon="11.79484752020975"><ele>1132.0</ele><time>2026-03-24T14:36:37.999Z</time></trkpt><trkpt lat="45.94732410282396" lon="11.794940961503155"><ele>1129.0</ele><time>2026-03-24T14:36:38.999Z</time></trkpt><trkpt lat="45.94740453535149" lon="11.795028553280282"><ele>1126.0</ele><time>2026-03-24T14:36:39.999Z</time></trkpt><trkpt lat="45.94747813771313" lon="11.795113166319576"><ele>1126.25</ele><time>2026-03-24T14:36:40.999Z</time></trkpt><trkpt lat="45.94757547243592" lon="11.795169355384813"><ele>1126.5</ele><time>2026-03-24T14:36:41.999Z</time></trkpt><trkpt lat="45.947690675136904" lon="11.795202593925472"><ele>1126.75</ele><time>2026-03-24T14:36:42.999Z</time></trkpt><trkpt lat="45.94781448337014" lon="11.795222322941958"><ele>1127.0</ele><time>2026-03-24T14:36:43.999Z</time></trkpt><trkpt lat="45.94792919092324" lon="11.795236082535638"><ele>1127.0</ele><time>2026-03-24T14:36:44.999Z</time></trkpt><trkpt lat="45.94804212829069" lon="11.79525130898266"><ele>1127.0</ele><time>2026-03-24T14:36:45.999Z</time></trkpt><trkpt lat="45.94815079590857" lon="11.79530581918821"><ele>1127.0</ele><time>2026-03-24T14:36:46.999Z</time></trkpt><trkpt lat="45.94825468554353" lon="11.795352109328903"><ele>1127.0</ele><time>2026-03-24T14:36:47.999Z</time></trkpt><trkpt lat="45.94836754249823" lon="11.79542915980517"><ele>1120.5</ele><time>2026-03-24T14:36:48.999Z</time></trkpt><trkpt lat="45.94848336796269" lon="11.795521436985695"><ele>1114.0</ele><time>2026-03-24T14:36:49.999Z</time></trkpt><trkpt lat="45.94859777362094" lon="11.79564072492049"><ele>1107.5</ele><time>2026-03-24T14:36:50.999Z</time></trkpt><trkpt lat="45.94872381419524" lon="11.795737373634543"><ele>1101.0</ele><time>2026-03-24T14:36:51.999Z</time></trkpt><trkpt lat="45.948854164998316" lon="11.795811893242764"><ele>1101.0</ele><time>2026-03-24T14:36:52.999Z</time></trkpt><trkpt lat="45.94898197804324" lon="11.795866047486674"><ele>1101.0</ele><time>2026-03-24T14:36:53.999Z</time></trkpt><trkpt lat="45.94909416620744" lon="11.795932719136982"><ele>1101.0</ele><time>2026-03-24T14:36:54.999Z</time></trkpt><trkpt lat="45.94916465588844" lon="11.796055214076429"><ele>1101.0</ele><time>2026-03-24T14:36:55.999Z</time></trkpt><trkpt lat="45.949257965214095" lon="11.796116563660501"><ele>1099.8</ele><time>2026-03-24T14:36:56.999Z</time></trkpt><trkpt lat="45.949354907590276" lon="11.796159046580565"><ele>1098.6</ele><time>2026-03-24T14:36:57.999Z</time></trkpt><trkpt lat="45.949449101152666" lon="11.79614944243489"><ele>1097.4</ele><time>2026-03-24T14:36:58.999Z</time></trkpt><trkpt lat="45.949547072239625" lon="11.796173369899664"><ele>1096.2</ele><time>2026-03-24T14:36:59.999Z</time></trkpt><trkpt lat="45.949635672112024" lon="11.796266762214122"><ele>1095.0</ele><time>2026-03-24T14:37:00.999Z</time></trkpt><trkpt lat="45.949733115204104" lon="11.796334559035712"><ele>1095.0</ele><time>2026-03-24T14:37:01.999Z</time></trkpt><trkpt lat="45.94983244145606" lon="11.796404741963938"><ele>1095.0</ele><time>2026-03-24T14:37:02.999Z</time></trkpt><trkpt lat="45.949948843319696" lon="11.796435808912046"><ele>1095.0</ele><time>2026-03-24T14:37:03.999Z</time></trkpt><trkpt lat="45.95008199387309" lon="11.796467210731691"><ele>1095.0</ele><time>2026-03-24T14:37:04.999Z</time></trkpt><trkpt lat="45.9502162120996" lon="11.796491324453951"><ele>1095.0</ele><time>2026-03-24T14:37:05.999Z</time></trkpt><trkpt lat="45.95035304322358" lon="11.796481208170155"><ele>1095.0</ele><time>2026-03-24T14:37:06.999Z</time></trkpt><trkpt lat="45.95046834618248" lon="11.796483608184243"><ele>1095.0</ele><time>2026-03-24T14:37:07.999Z</time></trkpt><trkpt lat="45.950584872227935" lon="11.796551499189011"><ele>1095.0</ele><time>2026-03-24T14:37:08.999Z</time></trkpt><trkpt lat="45.95071659465607" lon="11.796561156896322"><ele>1095.0</ele><time>2026-03-24T14:37:09.999Z</time></trkpt><trkpt lat="45.95084473613827" lon="11.796546415839186"><ele>1095.0</ele><time>2026-03-24T14:37:10.999Z</time></trkpt><trkpt lat="45.95098132617704" lon="11.7965270478521"><ele>1095.0</ele><time>2026-03-24T14:37:11.999Z</time></trkpt><trkpt lat="45.95111818672336" lon="11.796512438031423"><ele>1095.0</ele><time>2026-03-24T14:37:12.999Z</time></trkpt><trkpt lat="45.95125306123411" lon="11.796535198363765"><ele>1093.25</ele><time>2026-03-24T14:37:13.999Z</time></trkpt><trkpt lat="45.951357022251855" lon="11.796599974510352"><ele>1091.5</ele><time>2026-03-24T14:37:14.999Z</time></trkpt><trkpt lat="45.95143742567378" lon="11.79669819548742"><ele>1089.75</ele><time>2026-03-24T14:37:15.999Z</time></trkpt><trkpt lat="45.95153363772677" lon="11.796840279750226"><ele>1088.0</ele><time>2026-03-24T14:37:16.998Z</time></trkpt><trkpt lat="45.95164646121846" lon="11.797016833912007"><ele>1092.75</ele><time>2026-03-24T14:37:17.998Z</time></trkpt><trkpt lat="45.951779379000726" lon="11.797104979818352"><ele>1097.5</ele><time>2026-03-24T14:37:18.998Z</time></trkpt><trkpt lat="45.95192022273459" lon="11.797143019447107"><ele>1102.25</ele><time>2026-03-24T14:37:19.998Z</time></trkpt><trkpt lat="45.95206278234837" lon="11.797146552946586"><ele>1107.0</ele><time>2026-03-24T14:37:20.998Z</time></trkpt><trkpt lat="45.9521964221708" lon="11.79727394031296"><ele>1107.0</ele><time>2026-03-24T14:37:21.998Z</time></trkpt><trkpt lat="45.952334078558614" lon="11.797362004058055"><ele>1107.0</ele><time>2026-03-24T14:37:22.998Z</time></trkpt><trkpt lat="45.95249516136232" lon="11.797419583247724"><ele>1107.0</ele><time>2026-03-24T14:37:23.998Z</time></trkpt><trkpt lat="45.95264587536313" lon="11.797465236959532"><ele>1105.25</ele><time>2026-03-24T14:37:24.998Z</time></trkpt><trkpt lat="45.95278076451796" lon="11.797510268166043"><ele>1103.5</ele><time>2026-03-24T14:37:25.998Z</time></trkpt><trkpt lat="45.95292242173045" lon="11.797548552854092"><ele>1101.75</ele><time>2026-03-24T14:37:26.998Z</time></trkpt><trkpt lat="45.95304159484902" lon="11.797571817725274"><ele>1100.0</ele><time>2026-03-24T14:37:27.998Z</time></trkpt><trkpt lat="45.95318010780049" lon="11.797518485538207"><ele>1100.0</ele><time>2026-03-24T14:37:28.998Z</time></trkpt><trkpt lat="45.95331566318045" lon="11.797452451722538"><ele>1100.0</ele><time>2026-03-24T14:37:29.998Z</time></trkpt><trkpt lat="45.95344517406749" lon="11.79739721286376"><ele>1100.0</ele><time>2026-03-24T14:37:30.998Z</time></trkpt><trkpt lat="45.95356215771683" lon="11.797388756890046"><ele>1100.0</ele><time>2026-03-24T14:37:31.998Z</time></trkpt><trkpt lat="45.95367074486496" lon="11.797411876648658"><ele>1099.75</ele><time>2026-03-24T14:37:33Z</time></trkpt><trkpt lat="45.953785522613074" lon="11.79745535571813"><ele>1099.5</ele><time>2026-03-24T14:37:34Z</time></trkpt><trkpt lat="45.953931365154126" lon="11.797507285088406"><ele>1099.25</ele><time>2026-03-24T14:37:35Z</time></trkpt><trkpt lat="45.95407675035429" lon="11.797557105406398"><ele>1099.0</ele><time>2026-03-24T14:37:36Z</time></trkpt><trkpt lat="45.95422845111609" lon="11.79758354166158"><ele>1096.6666666666665</ele><time>2026-03-24T14:37:37Z</time></trkpt><trkpt lat="45.95438670972803" lon="11.797665122723556"><ele>1094.3333333333333</ele><time>2026-03-24T14:37:38Z</time></trkpt><trkpt lat="45.954544493283095" lon="11.797733971379666"><ele>1092.0</ele><time>2026-03-24T14:37:39Z</time></trkpt><trkpt lat="45.954670734634355" lon="11.797810619668075"><ele>1101.2</ele><time>2026-03-24T14:37:40Z</time></trkpt><trkpt lat="45.95477812511223" lon="11.79787126830955"><ele>1110.4</ele><time>2026-03-24T14:37:41Z</time></trkpt><trkpt lat="45.95487952745342" lon="11.797917677567161"><ele>1119.6</ele><time>2026-03-24T14:37:42Z</time></trkpt><trkpt lat="45.95496558457705" lon="11.79791637344989"><ele>1128.8</ele><time>2026-03-24T14:37:43Z</time></trkpt><trkpt lat="45.95504122000179" lon="11.797921970941161"><ele>1138.0</ele><time>2026-03-24T14:37:44Z</time></trkpt><trkpt lat="45.95514219130644" lon="11.797904035853346"><ele>1138.75</ele><time>2026-03-24T14:37:45Z</time></trkpt><trkpt lat="45.955249813086816" lon="11.797834520711064"><ele>1139.5</ele><time>2026-03-24T14:37:46Z</time></trkpt><trkpt lat="45.95538391144045" lon="11.797725290745852"><ele>1140.25</ele><time>2026-03-24T14:37:47Z</time></trkpt><trkpt lat="45.95550135619905" lon="11.797657605232935"><ele>1141.0</ele><time>2026-03-24T14:37:48Z</time></trkpt><trkpt lat="45.95563581128909" lon="11.797644167289661"><ele>1132.0</ele><time>2026-03-24T14:37:49Z</time></trkpt><trkpt lat="45.9557702063016" lon="11.79759914258132"><ele>1123.0</ele><time>2026-03-24T14:37:50Z</time></trkpt><trkpt lat="45.95589468186648" lon="11.797548157436557"><ele>1114.0</ele><time>2026-03-24T14:37:51Z</time></trkpt><trkpt lat="45.95599375708818" lon="11.797505469185223"><ele>1105.0</ele><time>2026-03-24T14:37:52Z</time></trkpt><trkpt lat="45.956096379299936" lon="11.79747004751416"><ele>1105.0</ele><time>2026-03-24T14:37:53Z</time></trkpt><trkpt lat="45.956183837063726" lon="11.797465158975836"><ele>1105.0</ele><time>2026-03-24T14:37:54Z</time></trkpt><trkpt lat="45.95627988936618" lon="11.797505472153201"><ele>1105.0</ele><time>2026-03-24T14:37:55Z</time></trkpt><trkpt lat="45.956385809805035" lon="11.797531454653848"><ele>1105.0</ele><time>2026-03-24T14:37:56Z</time></trkpt><trkpt lat="45.956502810092694" lon="11.797578292732275"><ele>1105.0</ele><time>2026-03-24T14:37:57Z</time></trkpt><trkpt lat="45.956621223829586" lon="11.797573760562669"><ele>1107.0</ele><time>2026-03-24T14:37:58Z</time></trkpt><trkpt lat="45.95674638311465" lon="11.797553454731663"><ele>1109.0</ele><time>2026-03-24T14:37:59Z</time></trkpt><trkpt lat="45.95686339633877" lon="11.79752164976154"><ele>1111.0</ele><time>2026-03-24T14:38:00Z</time></trkpt><trkpt lat="45.956976878478976" lon="11.797441988641694"><ele>1113.0</ele><time>2026-03-24T14:38:01Z</time></trkpt><trkpt lat="45.957054478414335" lon="11.79742286527211"><ele>1113.0</ele><time>2026-03-24T14:38:02Z</time></trkpt><trkpt lat="45.957198963594834" lon="11.797491315820965"><ele>1113.0</ele><time>2026-03-24T14:38:04Z</time></trkpt><trkpt lat="45.957315287916195" lon="11.797530279960494"><ele>1113.0</ele><time>2026-03-24T14:38:05Z</time></trkpt><trkpt lat="45.957426834922934" lon="11.79753936101224"><ele>1113.0</ele><time>2026-03-24T14:38:06Z</time></trkpt><trkpt lat="45.95753268038478" lon="11.797528771084043"><ele>1116.25</ele><time>2026-03-24T14:38:07Z</time></trkpt><trkpt lat="45.95763181143824" lon="11.797475143669383"><ele>1119.5</ele><time>2026-03-24T14:38:08Z</time></trkpt><trkpt lat="45.957730385565846" lon="11.797412837109126"><ele>1122.75</ele><time>2026-03-24T14:38:09Z</time></trkpt><trkpt lat="45.95783319083355" lon="11.79729073436216"><ele>1126.0</ele><time>2026-03-24T14:38:10Z</time></trkpt><trkpt lat="45.957935778556525" lon="11.797208405889368"><ele>1126.0</ele><time>2026-03-24T14:38:11Z</time></trkpt><trkpt lat="45.95805254654914" lon="11.797195072774212"><ele>1126.0</ele><time>2026-03-24T14:38:12Z</time></trkpt><trkpt lat="45.95816857640641" lon="11.797189514383968"><ele>1126.0</ele><time>2026-03-24T14:38:13Z</time></trkpt><trkpt lat="45.958289326781426" lon="11.797179798784311"><ele>1126.0</ele><time>2026-03-24T14:38:14Z</time></trkpt><trkpt lat="45.95841256387022" lon="11.797167218201368"><ele>1129.0</ele><time>2026-03-24T14:38:15Z</time></trkpt><trkpt lat="45.95854964468099" lon="11.79711835393826"><ele>1132.0</ele><time>2026-03-24T14:38:15.999Z</time></trkpt><trkpt lat="45.958672683389324" lon="11.797072204467467"><ele>1135.0</ele><time>2026-03-24T14:38:16.999Z</time></trkpt><trkpt lat="45.95876254807238" lon="11.796997319613014"><ele>1138.0</ele><time>2026-03-24T14:38:17.999Z</time></trkpt><trkpt lat="45.95883973143793" lon="11.796912093658035"><ele>1133.8</ele><time>2026-03-24T14:38:18.999Z</time></trkpt><trkpt lat="45.958917227368595" lon="11.796829831879569"><ele>1129.6</ele><time>2026-03-24T14:38:19.999Z</time></trkpt><trkpt lat="45.95900382898141" lon="11.796773148679733"><ele>1125.4</ele><time>2026-03-24T14:38:20.999Z</time></trkpt><trkpt lat="45.95910289696033" lon="11.796740016237443"><ele>1121.2</ele><time>2026-03-24T14:38:21.999Z</time></trkpt><trkpt lat="45.95921661235494" lon="11.796695969182649"><ele>1117.0</ele><time>2026-03-24T14:38:22.999Z</time></trkpt><trkpt lat="45.959336787422586" lon="11.796633772572063"><ele>1117.0</ele><time>2026-03-24T14:38:23.999Z</time></trkpt><trkpt lat="45.959445983386566" lon="11.796567817764863"><ele>1117.0</ele><time>2026-03-24T14:38:24.999Z</time></trkpt><trkpt lat="45.95956496305583" lon="11.796493563578938"><ele>1117.0</ele><time>2026-03-24T14:38:25.999Z</time></trkpt><trkpt lat="45.95969169329387" lon="11.796414472138283"><ele>1117.0</ele><time>2026-03-24T14:38:26.999Z</time></trkpt><trkpt lat="45.959840743987805" lon="11.796299946507904"><ele>1117.0</ele><time>2026-03-24T14:38:27.999Z</time></trkpt><trkpt lat="45.959975037134555" lon="11.796233373995369"><ele>1117.0</ele><time>2026-03-24T14:38:28.999Z</time></trkpt><trkpt lat="45.960051297764885" lon="11.796087266668245"><ele>1117.0</ele><time>2026-03-24T14:38:29.999Z</time></trkpt><trkpt lat="45.96013989412842" lon="11.795927908919884"><ele>1117.0</ele><time>2026-03-24T14:38:30.999Z</time></trkpt><trkpt lat="45.96022876930816" lon="11.79578421455057"><ele>1114.0</ele><time>2026-03-24T14:38:31.999Z</time></trkpt><trkpt lat="45.96032192659553" lon="11.795633565867785"><ele>1111.0</ele><time>2026-03-24T14:38:32.999Z</time></trkpt><trkpt lat="45.96039177230005" lon="11.795458402294729"><ele>1108.0</ele><time>2026-03-24T14:38:33.999Z</time></trkpt><trkpt lat="45.96047526526429" lon="11.795326027955992"><ele>1105.0</ele><time>2026-03-24T14:38:34.999Z</time></trkpt><trkpt lat="45.960558861525854" lon="11.795204292008428"><ele>1101.8</ele><time>2026-03-24T14:38:35.999Z</time></trkpt><trkpt lat="45.960638507031426" lon="11.795083664983746"><ele>1098.6</ele><time>2026-03-24T14:38:36.999Z</time></trkpt><trkpt lat="45.960712562583645" lon="11.794960330865193"><ele>1095.4</ele><time>2026-03-24T14:38:37.999Z</time></trkpt><trkpt lat="45.96080688656848" lon="11.794916527576456"><ele>1092.2</ele><time>2026-03-24T14:38:38.999Z</time></trkpt><trkpt lat="45.96091037002312" lon="11.794867287452997"><ele>1089.0</ele><time>2026-03-24T14:38:39.999Z</time></trkpt><trkpt lat="45.96102921131627" lon="11.794822639697818"><ele>1087.0</ele><time>2026-03-24T14:38:40.999Z</time></trkpt><trkpt lat="45.96114251170929" lon="11.794777069235977"><ele>1085.0</ele><time>2026-03-24T14:38:41.999Z</time></trkpt><trkpt lat="45.961230935945146" lon="11.794720446650144"><ele>1083.0</ele><time>2026-03-24T14:38:42.999Z</time></trkpt><trkpt lat="45.961313092658024" lon="11.79471638967771"><ele>1081.0</ele><time>2026-03-24T14:38:43.999Z</time></trkpt><trkpt lat="45.96139043852915" lon="11.794747453031745"><ele>1079.0</ele><time>2026-03-24T14:38:44.999Z</time></trkpt><trkpt lat="45.96145640159161" lon="11.794797718855211"><ele>1079.0</ele><time>2026-03-24T14:38:45.999Z</time></trkpt><trkpt lat="45.96152128027307" lon="11.794879874079523"><ele>1079.0</ele><time>2026-03-24T14:38:46.999Z</time></trkpt><trkpt lat="45.96158914201972" lon="11.794965358962703"><ele>1079.0</ele><time>2026-03-24T14:38:47.999Z</time></trkpt><trkpt lat="45.96165059732779" lon="11.795073445668788"><ele>1079.0</ele><time>2026-03-24T14:38:48.999Z</time></trkpt><trkpt lat="45.96170005515558" lon="11.79517798833487"><ele>1079.0</ele><time>2026-03-24T14:38:49.999Z</time></trkpt><trkpt lat="45.96175399216207" lon="11.795283927758591"><ele>1076.0</ele><time>2026-03-24T14:38:50.999Z</time></trkpt><trkpt lat="45.96180990485598" lon="11.79538580190633"><ele>1073.0</ele><time>2026-03-24T14:38:51.999Z</time></trkpt><trkpt lat="45.9618601854108" lon="11.795489712978709"><ele>1070.0</ele><time>2026-03-24T14:38:52.999Z</time></trkpt><trkpt lat="45.96190078736631" lon="11.795596247583834"><ele>1067.0</ele><time>2026-03-24T14:38:53.999Z</time></trkpt><trkpt lat="45.96192881822723" lon="11.795709265567934"><ele>1064.0</ele><time>2026-03-24T14:38:54.999Z</time></trkpt><trkpt lat="45.96195232262782" lon="11.795825042593696"><ele>1061.0</ele><time>2026-03-24T14:38:55.999Z</time></trkpt><trkpt lat="45.961972378796276" lon="11.795943823004402"><ele>1061.0</ele><time>2026-03-24T14:38:56.999Z</time></trkpt><trkpt lat="45.96198863485883" lon="11.79605632057303"><ele>1061.0</ele><time>2026-03-24T14:38:57.999Z</time></trkpt><trkpt lat="45.96200546395659" lon="11.79616391630627"><ele>1061.0</ele><time>2026-03-24T14:38:58.999Z</time></trkpt><trkpt lat="45.96202280887083" lon="11.796271129473565"><ele>1061.0</ele><time>2026-03-24T14:38:59.999Z</time></trkpt><trkpt lat="45.96204024563748" lon="11.796375349040082"><ele>1061.0</ele><time>2026-03-24T14:39:00.999Z</time></trkpt><trkpt lat="45.96206021312852" lon="11.796481409863109"><ele>1061.0</ele><time>2026-03-24T14:39:01.999Z</time></trkpt><trkpt lat="45.96206903034567" lon="11.796609420317445"><ele>1061.0</ele><time>2026-03-24T14:39:02.999Z</time></trkpt><trkpt lat="45.96206565511999" lon="11.79674117387865"><ele>1061.0</ele><time>2026-03-24T14:39:03.999Z</time></trkpt><trkpt lat="45.96203565718675" lon="11.796873277072107"><ele>1061.0</ele><time>2026-03-24T14:39:04.999Z</time></trkpt><trkpt lat="45.961972207467255" lon="11.796990280566623"><ele>1061.0</ele><time>2026-03-24T14:39:05.999Z</time></trkpt><trkpt lat="45.96190600178369" lon="11.797118573536975"><ele>1061.0</ele><time>2026-03-24T14:39:06.999Z</time></trkpt><trkpt lat="45.96183313396495" lon="11.797265456966793"><ele>1063.0</ele><time>2026-03-24T14:39:07.999Z</time></trkpt><trkpt lat="45.961758640934704" lon="11.797415336862892"><ele>1065.0</ele><time>2026-03-24T14:39:08.999Z</time></trkpt><trkpt lat="45.96168490792463" lon="11.797579788281958"><ele>1067.0</ele><time>2026-03-24T14:39:09.999Z</time></trkpt><trkpt lat="45.96160315049351" lon="11.797758824030117"><ele>1069.0</ele><time>2026-03-24T14:39:10.999Z</time></trkpt><trkpt lat="45.961507578696576" lon="11.797934022239518"><ele>1069.0</ele><time>2026-03-24T14:39:11.999Z</time></trkpt><trkpt lat="45.96145730984725" lon="11.79815028625741"><ele>1069.0</ele><time>2026-03-24T14:39:12.999Z</time></trkpt><trkpt lat="45.96141917775347" lon="11.798367464522181"><ele>1069.0</ele><time>2026-03-24T14:39:13.999Z</time></trkpt><trkpt lat="45.96139096274379" lon="11.798565184693125"><ele>1065.25</ele><time>2026-03-24T14:39:14.998Z</time></trkpt><trkpt lat="45.96135702264316" lon="11.798749266277374"><ele>1061.5</ele><time>2026-03-24T14:39:15.998Z</time></trkpt><trkpt lat="45.96132043366329" lon="11.798920987402516"><ele>1057.75</ele><time>2026-03-24T14:39:16.998Z</time></trkpt><trkpt lat="45.961287256911596" lon="11.799091154217885"><ele>1054.0</ele><time>2026-03-24T14:39:17.998Z</time></trkpt><trkpt lat="45.96125115841093" lon="11.799254900822946"><ele>1052.0</ele><time>2026-03-24T14:39:18.998Z</time></trkpt><trkpt lat="45.96121992035836" lon="11.7994237621681"><ele>1050.0</ele><time>2026-03-24T14:39:19.998Z</time></trkpt><trkpt lat="45.961177209354524" lon="11.79959906791169"><ele>1048.0</ele><time>2026-03-24T14:39:20.998Z</time></trkpt><trkpt lat="45.96112044033323" lon="11.79976289898855"><ele>1046.0</ele><time>2026-03-24T14:39:21.998Z</time></trkpt><trkpt lat="45.96103032941389" lon="11.799912797367144"><ele>1046.0</ele><time>2026-03-24T14:39:22.998Z</time></trkpt><trkpt lat="45.96093297413348" lon="11.800072969262095"><ele>1046.0</ele><time>2026-03-24T14:39:23.998Z</time></trkpt><trkpt lat="45.96084458379243" lon="11.800262127454857"><ele>1046.0</ele><time>2026-03-24T14:39:24.998Z</time></trkpt><trkpt lat="45.96073925805596" lon="11.800445200249696"><ele>1050.3333333333335</ele><time>2026-03-24T14:39:25.998Z</time></trkpt><trkpt lat="45.96060342994835" lon="11.800619835369512"><ele>1054.6666666666667</ele><time>2026-03-24T14:39:26.998Z</time></trkpt><trkpt lat="45.96047475080925" lon="11.800780366882988"><ele>1059.0</ele><time>2026-03-24T14:39:27.998Z</time></trkpt><trkpt lat="45.960348410903634" lon="11.800919934456104"><ele>1059.0</ele><time>2026-03-24T14:39:28.998Z</time></trkpt><trkpt lat="45.960239846650595" lon="11.801061169545903"><ele>1059.0</ele><time>2026-03-24T14:39:29.998Z</time></trkpt><trkpt lat="45.9601286902309" lon="11.801172685854878"><ele>1059.0</ele><time>2026-03-24T14:39:30.998Z</time></trkpt><trkpt lat="45.96000720786818" lon="11.801258362028392"><ele>1059.0</ele><time>2026-03-24T14:39:31.998Z</time></trkpt><trkpt lat="45.95988034589307" lon="11.801350328788072"><ele>1059.0</ele><time>2026-03-24T14:39:32.998Z</time></trkpt><trkpt lat="45.959744293237705" lon="11.801447848322695"><ele>1059.0</ele><time>2026-03-24T14:39:33.998Z</time></trkpt><trkpt lat="45.95961427217908" lon="11.801543844667007"><ele>1059.0</ele><time>2026-03-24T14:39:34.998Z</time></trkpt><trkpt lat="45.95949637459518" lon="11.801631419934735"><ele>1059.0</ele><time>2026-03-24T14:39:35.998Z</time></trkpt><trkpt lat="45.95938698047299" lon="11.801709381228301"><ele>1059.0</ele><time>2026-03-24T14:39:36.998Z</time></trkpt><trkpt lat="45.95928237949807" lon="11.801763727959571"><ele>1059.0</ele><time>2026-03-24T14:39:37.998Z</time></trkpt><trkpt lat="45.959178000444126" lon="11.801788177532972"><ele>1059.0</ele><time>2026-03-24T14:39:39Z</time></trkpt><trkpt lat="45.95908674042649" lon="11.801850395738533"><ele>1059.0</ele><time>2026-03-24T14:39:40Z</time></trkpt><trkpt lat="45.959020789258396" lon="11.802026992270367"><ele>1061.8</ele><time>2026-03-24T14:39:42Z</time></trkpt><trkpt lat="45.958992510670996" lon="11.802175088603727"><ele>1064.6000000000001</ele><time>2026-03-24T14:39:43Z</time></trkpt><trkpt lat="45.9589760407228" lon="11.802313331559374"><ele>1067.4</ele><time>2026-03-24T14:39:44Z</time></trkpt><trkpt lat="45.95893781756705" lon="11.802454639313659"><ele>1070.2</ele><time>2026-03-24T14:39:45Z</time></trkpt><trkpt lat="45.95891272698545" lon="11.802578692079864"><ele>1073.0</ele><time>2026-03-24T14:39:46Z</time></trkpt><trkpt lat="45.95889817500805" lon="11.802687109653455"><ele>1074.0</ele><time>2026-03-24T14:39:47Z</time></trkpt><trkpt lat="45.95889239422589" lon="11.802784106149762"><ele>1075.0</ele><time>2026-03-24T14:39:48Z</time></trkpt><trkpt lat="45.958924349335135" lon="11.802871334797874"><ele>1076.0</ele><time>2026-03-24T14:39:49Z</time></trkpt><trkpt lat="45.95898012383984" lon="11.802922195163951"><ele>1077.0</ele><time>2026-03-24T14:39:50Z</time></trkpt><trkpt lat="45.959052499628726" lon="11.802887398588478"><ele>1078.0</ele><time>2026-03-24T14:39:51Z</time></trkpt><trkpt lat="45.95912988105952" lon="11.802844068360027"><ele>1079.0</ele><time>2026-03-24T14:39:52Z</time></trkpt><trkpt lat="45.95926770927757" lon="11.802802623948319"><ele>1079.0</ele><time>2026-03-24T14:39:53Z</time></trkpt><trkpt lat="45.95938652107811" lon="11.802743977964315"><ele>1079.0</ele><time>2026-03-24T14:39:54Z</time></trkpt><trkpt lat="45.95949763227592" lon="11.80268038626501"><ele>1079.0</ele><time>2026-03-24T14:39:55Z</time></trkpt><trkpt lat="45.95958646045673" lon="11.802645394577109"><ele>1079.0</ele><time>2026-03-24T14:39:56Z</time></trkpt><trkpt lat="45.95966961472889" lon="11.802642461254965"><ele>1079.0</ele><time>2026-03-24T14:39:57Z</time></trkpt><trkpt lat="45.95975794982284" lon="11.802663125711517"><ele>1079.0</ele><time>2026-03-24T14:39:58Z</time></trkpt><trkpt lat="45.95985898864012" lon="11.802712131476689"><ele>1079.0</ele><time>2026-03-24T14:39:59Z</time></trkpt><trkpt lat="45.95996798525398" lon="11.80277717151449"><ele>1079.0</ele><time>2026-03-24T14:40:00Z</time></trkpt><trkpt lat="45.96008976402716" lon="11.802850916874906"><ele>1079.0</ele><time>2026-03-24T14:40:01Z</time></trkpt><trkpt lat="45.960191668536346" lon="11.802913803159875"><ele>1072.6000000000001</ele><time>2026-03-24T14:40:02Z</time></trkpt><trkpt lat="45.96028915864202" lon="11.802974699632921"><ele>1066.2</ele><time>2026-03-24T14:40:03Z</time></trkpt><trkpt lat="45.96036731012949" lon="11.803034947783898"><ele>1059.8000000000002</ele><time>2026-03-24T14:40:04Z</time></trkpt><trkpt lat="45.960445470964686" lon="11.803093235117261"><ele>1053.4</ele><time>2026-03-24T14:40:05Z</time></trkpt><trkpt lat="45.96049996956829" lon="11.803201382830673"><ele>1047.0</ele><time>2026-03-24T14:40:06Z</time></trkpt><trkpt lat="45.9605238867598" lon="11.803337500224897"><ele>1047.0</ele><time>2026-03-24T14:40:07Z</time></trkpt><trkpt lat="45.960557172299545" lon="11.803488207363797"><ele>1047.0</ele><time>2026-03-24T14:40:08Z</time></trkpt><trkpt lat="45.96058549051791" lon="11.803634801655168"><ele>1047.0</ele><time>2026-03-24T14:40:09Z</time></trkpt><trkpt lat="45.960627026874675" lon="11.803744864401985"><ele>1047.0</ele><time>2026-03-24T14:40:10Z</time></trkpt><trkpt lat="45.96068095759157" lon="11.803831935352084"><ele>1047.0</ele><time>2026-03-24T14:40:11Z</time></trkpt><trkpt lat="45.96077231892382" lon="11.803871639041786"><ele>1049.2</ele><time>2026-03-24T14:40:12Z</time></trkpt><trkpt lat="45.96085152395991" lon="11.803845803247814"><ele>1051.4</ele><time>2026-03-24T14:40:13Z</time></trkpt><trkpt lat="45.96091545249572" lon="11.803762738146776"><ele>1053.6</ele><time>2026-03-24T14:40:14Z</time></trkpt><trkpt lat="45.96099456617279" lon="11.803745851164312"><ele>1055.8</ele><time>2026-03-24T14:40:15Z</time></trkpt><trkpt lat="45.96109077496495" lon="11.80367912715872"><ele>1058.0</ele><time>2026-03-24T14:40:16Z</time></trkpt><trkpt lat="45.961208696389185" lon="11.803647977837315"><ele>1058.0</ele><time>2026-03-24T14:40:17Z</time></trkpt><trkpt lat="45.961300343701524" lon="11.80360748661808"><ele>1058.0</ele><time>2026-03-24T14:40:18Z</time></trkpt><trkpt lat="45.96137179100378" lon="11.803565333460519"><ele>1058.0</ele><time>2026-03-24T14:40:19Z</time></trkpt><trkpt lat="45.961457760227994" lon="11.80354778968105"><ele>1058.0</ele><time>2026-03-24T14:40:20Z</time></trkpt><trkpt lat="45.96153990192619" lon="11.803608032193678"><ele>1058.0</ele><time>2026-03-24T14:40:20.999Z</time></trkpt><trkpt lat="45.96163552407842" lon="11.803648766584947"><ele>1054.8</ele><time>2026-03-24T14:40:21.999Z</time></trkpt><trkpt lat="45.96172110995474" lon="11.803745811347298"><ele>1051.6</ele><time>2026-03-24T14:40:22.999Z</time></trkpt><trkpt lat="45.96179008086987" lon="11.803856577570524"><ele>1048.4</ele><time>2026-03-24T14:40:23.999Z</time></trkpt><trkpt lat="45.96183508977378" lon="11.803987507500686"><ele>1045.2</ele><time>2026-03-24T14:40:24.999Z</time></trkpt><trkpt lat="45.9618884849784" lon="11.80406920179068"><ele>1042.0</ele><time>2026-03-24T14:40:25.999Z</time></trkpt><trkpt lat="45.96199090473726" lon="11.804110579351013"><ele>1042.0</ele><time>2026-03-24T14:40:26.999Z</time></trkpt><trkpt lat="45.96210622712233" lon="11.804064510472413"><ele>1042.0</ele><time>2026-03-24T14:40:27.999Z</time></trkpt><trkpt lat="45.96222060399412" lon="11.804022917573013"><ele>1042.0</ele><time>2026-03-24T14:40:28.999Z</time></trkpt><trkpt lat="45.962337123626035" lon="11.803999460648887"><ele>1042.0</ele><time>2026-03-24T14:40:29.999Z</time></trkpt><trkpt lat="45.962447928054196" lon="11.803965542900757"><ele>1041.4</ele><time>2026-03-24T14:40:30.999Z</time></trkpt><trkpt lat="45.96255057899678" lon="11.803952614169807"><ele>1040.8000000000002</ele><time>2026-03-24T14:40:31.999Z</time></trkpt><trkpt lat="45.96263373014925" lon="11.804003495727274"><ele>1040.2</ele><time>2026-03-24T14:40:32.999Z</time></trkpt><trkpt lat="45.96269980855214" lon="11.804107118009886"><ele>1039.6000000000001</ele><time>2026-03-24T14:40:33.999Z</time></trkpt><trkpt lat="45.962740364600464" lon="11.804256185790486"><ele>1039.0</ele><time>2026-03-24T14:40:34.999Z</time></trkpt><trkpt lat="45.962776580335344" lon="11.804412460232644"><ele>1039.0</ele><time>2026-03-24T14:40:35.999Z</time></trkpt><trkpt lat="45.962820086497445" lon="11.804575502089513"><ele>1039.0</ele><time>2026-03-24T14:40:36.999Z</time></trkpt><trkpt lat="45.96289542104777" lon="11.804744229325543"><ele>1039.0</ele><time>2026-03-24T14:40:37.999Z</time></trkpt><trkpt lat="45.96299861816032" lon="11.804902831666066"><ele>1039.0</ele><time>2026-03-24T14:40:38.999Z</time></trkpt><trkpt lat="45.9631144794756" lon="11.805053182905938"><ele>1039.6666666666665</ele><time>2026-03-24T14:40:39.999Z</time></trkpt><trkpt lat="45.96323801160573" lon="11.805211121576056"><ele>1040.3333333333333</ele><time>2026-03-24T14:40:40.999Z</time></trkpt><trkpt lat="45.96336054364899" lon="11.80536180475742"><ele>1041.0</ele><time>2026-03-24T14:40:41.999Z</time></trkpt><trkpt lat="45.9634791055438" lon="11.805495492616897"><ele>1041.0</ele><time>2026-03-24T14:40:42.999Z</time></trkpt><trkpt lat="45.96359654375393" lon="11.805626597875483"><ele>1041.0</ele><time>2026-03-24T14:40:43.999Z</time></trkpt><trkpt lat="45.96373903357189" lon="11.805658082067772"><ele>1041.0</ele><time>2026-03-24T14:40:44.999Z</time></trkpt><trkpt lat="45.963880384109736" lon="11.805685975227954"><ele>1041.0</ele><time>2026-03-24T14:40:45.999Z</time></trkpt><trkpt lat="45.96402308496884" lon="11.80570424356514"><ele>1041.0</ele><time>2026-03-24T14:40:46.999Z</time></trkpt><trkpt lat="45.96415417798111" lon="11.805735972176512"><ele>1041.0</ele><time>2026-03-24T14:40:47.999Z</time></trkpt><trkpt lat="45.964262361269405" lon="11.805809864538288"><ele>1041.0</ele><time>2026-03-24T14:40:48.999Z</time></trkpt><trkpt lat="45.964345644262686" lon="11.805916131599604"><ele>1041.0</ele><time>2026-03-24T14:40:49.999Z</time></trkpt><trkpt lat="45.96439820619278" lon="11.806048672495177"><ele>1038.5</ele><time>2026-03-24T14:40:50.999Z</time></trkpt><trkpt lat="45.96445822494921" lon="11.806189798789633"><ele>1036.0</ele><time>2026-03-24T14:40:51.999Z</time></trkpt><trkpt lat="45.96454352694985" lon="11.806298100928986"><ele>1033.5</ele><time>2026-03-24T14:40:52.999Z</time></trkpt><trkpt lat="45.964663628027736" lon="11.806355408549527"><ele>1031.0</ele><time>2026-03-24T14:40:53.999Z</time></trkpt><trkpt lat="45.96481713146237" lon="11.806388943880807"><ele>1031.0</ele><time>2026-03-24T14:40:54.999Z</time></trkpt><trkpt lat="45.96492014979447" lon="11.806489831058174"><ele>1031.0</ele><time>2026-03-24T14:40:55.999Z</time></trkpt><trkpt lat="45.964988140120305" lon="11.806622570019812"><ele>1031.0</ele><time>2026-03-24T14:40:56.999Z</time></trkpt><trkpt lat="45.96506530734171" lon="11.806747830430998"><ele>1031.0</ele><time>2026-03-24T14:40:57.999Z</time></trkpt><trkpt lat="45.96514801720514" lon="11.806869292520153"><ele>1033.75</ele><time>2026-03-24T14:40:58.999Z</time></trkpt><trkpt lat="45.96526118726436" lon="11.806946854976374"><ele>1036.5</ele><time>2026-03-24T14:40:59.999Z</time></trkpt><trkpt lat="45.9653919417765" lon="11.8069848846489"><ele>1039.25</ele><time>2026-03-24T14:41:00.999Z</time></trkpt><trkpt lat="45.96552985834766" lon="11.80696816741432"><ele>1042.0</ele><time>2026-03-24T14:41:01.999Z</time></trkpt><trkpt lat="45.96567316478926" lon="11.806920213410002"><ele>1042.0</ele><time>2026-03-24T14:41:02.999Z</time></trkpt><trkpt lat="45.96581611928171" lon="11.806861633627534"><ele>1042.0</ele><time>2026-03-24T14:41:03.999Z</time></trkpt><trkpt lat="45.96595174009587" lon="11.806775677626469"><ele>1042.0</ele><time>2026-03-24T14:41:04.999Z</time></trkpt><trkpt lat="45.966068819598746" lon="11.806673749732276"><ele>1042.0</ele><time>2026-03-24T14:41:05.999Z</time></trkpt><trkpt lat="45.96618014722428" lon="11.806582668561"><ele>1036.0</ele><time>2026-03-24T14:41:06.999Z</time></trkpt><trkpt lat="45.966303842438144" lon="11.80652886347892"><ele>1030.0</ele><time>2026-03-24T14:41:07.999Z</time></trkpt><trkpt lat="45.966424054432046" lon="11.80653938075826"><ele>1024.0</ele><time>2026-03-24T14:41:08.999Z</time></trkpt><trkpt lat="45.96654863709725" lon="11.806575632612894"><ele>1018.0</ele><time>2026-03-24T14:41:09.999Z</time></trkpt><trkpt lat="45.96668804920971" lon="11.806612773822303"><ele>1018.75</ele><time>2026-03-24T14:41:10.999Z</time></trkpt><trkpt lat="45.96683110230203" lon="11.806645979685317"><ele>1019.5</ele><time>2026-03-24T14:41:11.999Z</time></trkpt><trkpt lat="45.96697282033362" lon="11.80668760931176"><ele>1020.25</ele><time>2026-03-24T14:41:12.999Z</time></trkpt><trkpt lat="45.967104519909746" lon="11.806737521406774"><ele>1021.0</ele><time>2026-03-24T14:41:13.999Z</time></trkpt><trkpt lat="45.967220190964866" lon="11.806830029036952"><ele>1021.0</ele><time>2026-03-24T14:41:14.999Z</time></trkpt><trkpt lat="45.967323224042595" lon="11.806959062044507"><ele>1021.0</ele><time>2026-03-24T14:41:15.999Z</time></trkpt><trkpt lat="45.967424942258404" lon="11.807101926793463"><ele>1021.0</ele><time>2026-03-24T14:41:16.999Z</time></trkpt><trkpt lat="45.96753651954131" lon="11.807239890977552"><ele>1021.0</ele><time>2026-03-24T14:41:17.999Z</time></trkpt><trkpt lat="45.96765637797009" lon="11.807382284158713"><ele>1018.6666666666666</ele><time>2026-03-24T14:41:18.999Z</time></trkpt><trkpt lat="45.96778696377102" lon="11.807518791392644"><ele>1016.3333333333333</ele><time>2026-03-24T14:41:19.998Z</time></trkpt><trkpt lat="45.9679364679965" lon="11.807633599733517"><ele>1014.0</ele><time>2026-03-24T14:41:20.998Z</time></trkpt><trkpt lat="45.96809316934215" lon="11.807712846775852"><ele>1014.5</ele><time>2026-03-24T14:41:21.998Z</time></trkpt><trkpt lat="45.96824053010696" lon="11.80775548771711"><ele>1015.0</ele><time>2026-03-24T14:41:22.998Z</time></trkpt><trkpt lat="45.968370582632765" lon="11.80773565297051"><ele>1015.5</ele><time>2026-03-24T14:41:23.998Z</time></trkpt><trkpt lat="45.968482877095695" lon="11.80766245568603"><ele>1016.0</ele><time>2026-03-24T14:41:24.998Z</time></trkpt><trkpt lat="45.968573803415175" lon="11.807564654726097"><ele>1016.0</ele><time>2026-03-24T14:41:25.998Z</time></trkpt><trkpt lat="45.96867962272789" lon="11.807472943061928"><ele>1016.0</ele><time>2026-03-24T14:41:26.998Z</time></trkpt><trkpt lat="45.96881057556244" lon="11.807419926622032"><ele>1016.0</ele><time>2026-03-24T14:41:27.998Z</time></trkpt><trkpt lat="45.96894943999141" lon="11.807378393949577"><ele>1016.0</ele><time>2026-03-24T14:41:28.998Z</time></trkpt><trkpt lat="45.96907781164351" lon="11.807345925643924"><ele>1016.0</ele><time>2026-03-24T14:41:29.998Z</time></trkpt><trkpt lat="45.96918486433124" lon="11.807357835670727"><ele>1016.0</ele><time>2026-03-24T14:41:30.998Z</time></trkpt><trkpt lat="45.96927709898124" lon="11.807419457918877"><ele>1016.0</ele><time>2026-03-24T14:41:31.998Z</time></trkpt><trkpt lat="45.96936574006376" lon="11.807518660911013"><ele>1016.0</ele><time>2026-03-24T14:41:32.998Z</time></trkpt><trkpt lat="45.96949055440063" lon="11.807562545846581"><ele>1018.0</ele><time>2026-03-24T14:41:33.998Z</time></trkpt><trkpt lat="45.96963298446084" lon="11.807599936832652"><ele>1020.0</ele><time>2026-03-24T14:41:34.998Z</time></trkpt><trkpt lat="45.969763250745416" lon="11.807618193679408"><ele>1022.0</ele><time>2026-03-24T14:41:35.998Z</time></trkpt><trkpt lat="45.96986934661912" lon="11.80767923977875"><ele>1024.0</ele><time>2026-03-24T14:41:36.998Z</time></trkpt><trkpt lat="45.96996594004622" lon="11.80777805303206"><ele>1019.75</ele><time>2026-03-24T14:41:37.998Z</time></trkpt><trkpt lat="45.97004122908771" lon="11.80792081137631"><ele>1015.5</ele><time>2026-03-24T14:41:38.998Z</time></trkpt><trkpt lat="45.97011836427671" lon="11.808073003224171"><ele>1011.25</ele><time>2026-03-24T14:41:39.998Z</time></trkpt><trkpt lat="45.97020253025285" lon="11.80820775520154"><ele>1007.0</ele><time>2026-03-24T14:41:40.998Z</time></trkpt><trkpt lat="45.97029959653594" lon="11.808321319342275"><ele>1007.0</ele><time>2026-03-24T14:41:41.998Z</time></trkpt><trkpt lat="45.97042852360996" lon="11.808352499214113"><ele>1007.0</ele><time>2026-03-24T14:41:42.998Z</time></trkpt><trkpt lat="45.97056159786515" lon="11.808404254850261"><ele>1007.0</ele><time>2026-03-24T14:41:43.998Z</time></trkpt><trkpt lat="45.97071391057788" lon="11.808443622307575"><ele>1007.0</ele><time>2026-03-24T14:41:45Z</time></trkpt><trkpt lat="45.97088023029175" lon="11.808490520443511"><ele>1012.0</ele><time>2026-03-24T14:41:46Z</time></trkpt><trkpt lat="45.971053164928605" lon="11.808528191442603"><ele>1017.0</ele><time>2026-03-24T14:41:47Z</time></trkpt><trkpt lat="45.97120541672014" lon="11.80857607582543"><ele>1022.0</ele><time>2026-03-24T14:41:48Z</time></trkpt><trkpt lat="45.97133918163156" lon="11.808610663080442"><ele>1022.0</ele><time>2026-03-24T14:41:49Z</time></trkpt><trkpt lat="45.97147166637009" lon="11.808602946276952"><ele>1022.0</ele><time>2026-03-24T14:41:50Z</time></trkpt><trkpt lat="45.97160073523097" lon="11.808549091210299"><ele>1022.0</ele><time>2026-03-24T14:41:51Z</time></trkpt><trkpt lat="45.97173307470686" lon="11.80848680710048"><ele>1022.0</ele><time>2026-03-24T14:41:52Z</time></trkpt><trkpt lat="45.97188086637074" lon="11.808447969985483"><ele>1013.3333333333334</ele><time>2026-03-24T14:41:53Z</time></trkpt><trkpt lat="45.972042955015326" lon="11.808445085091288"><ele>1004.6666666666667</ele><time>2026-03-24T14:41:54Z</time></trkpt><trkpt lat="45.97221639189744" lon="11.80844220074942"><ele>996.0</ele><time>2026-03-24T14:41:55Z</time></trkpt><trkpt lat="45.97238095726991" lon="11.808451833533976"><ele>993.75</ele><time>2026-03-24T14:41:56Z</time></trkpt><trkpt lat="45.972533701171386" lon="11.808484763568153"><ele>991.5</ele><time>2026-03-24T14:41:57Z</time></trkpt><trkpt lat="45.97267182380834" lon="11.80853960840487"><ele>989.25</ele><time>2026-03-24T14:41:58Z</time></trkpt><trkpt lat="45.97279646049026" lon="11.808605632406703"><ele>987.0</ele><time>2026-03-24T14:41:59Z</time></trkpt><trkpt lat="45.972915750709305" lon="11.808671635248825"><ele>993.2</ele><time>2026-03-24T14:42:00Z</time></trkpt><trkpt lat="45.97303194578516" lon="11.808734626735763"><ele>999.4000000000001</ele><time>2026-03-24T14:42:01Z</time></trkpt><trkpt lat="45.97313198204602" lon="11.808788877115587"><ele>1005.5999999999999</ele><time>2026-03-24T14:42:02Z</time></trkpt><trkpt lat="45.97323386027399" lon="11.808797078265"><ele>1011.8</ele><time>2026-03-24T14:42:03Z</time></trkpt><trkpt lat="45.97333031143031" lon="11.808713111543714"><ele>1018.0</ele><time>2026-03-24T14:42:04Z</time></trkpt><trkpt lat="45.97343449330045" lon="11.808650157405843"><ele>1020.25</ele><time>2026-03-24T14:42:05Z</time></trkpt><trkpt lat="45.973545864706615" lon="11.808577440894167"><ele>1022.5</ele><time>2026-03-24T14:42:06Z</time></trkpt><trkpt lat="45.97367907913471" lon="11.80848658266658"><ele>1024.75</ele><time>2026-03-24T14:42:07Z</time></trkpt><trkpt lat="45.97381515155486" lon="11.80841176720972"><ele>1027.0</ele><time>2026-03-24T14:42:08Z</time></trkpt><trkpt lat="45.973946414040526" lon="11.80837594004593"><ele>1016.0</ele><time>2026-03-24T14:42:09Z</time></trkpt><trkpt lat="45.97409652275792" lon="11.808357346126968"><ele>1005.0</ele><time>2026-03-24T14:42:10Z</time></trkpt><trkpt lat="45.97423617458908" lon="11.808421224400938"><ele>994.0</ele><time>2026-03-24T14:42:11Z</time></trkpt><trkpt lat="45.97438574153682" lon="11.808466586848006"><ele>1001.75</ele><time>2026-03-24T14:42:12Z</time></trkpt><trkpt lat="45.97453345889753" lon="11.80851182833721"><ele>1009.5</ele><time>2026-03-24T14:42:13Z</time></trkpt><trkpt lat="45.97466657468594" lon="11.808551954091184"><ele>1017.25</ele><time>2026-03-24T14:42:14Z</time></trkpt><trkpt lat="45.97478769742401" lon="11.808553819602906"><ele>1025.0</ele><time>2026-03-24T14:42:15Z</time></trkpt><trkpt lat="45.974882563914356" lon="11.808503434764988"><ele>1024.0</ele><time>2026-03-24T14:42:16Z</time></trkpt><trkpt lat="45.9749465370447" lon="11.808420675676452"><ele>1023.0</ele><time>2026-03-24T14:42:17Z</time></trkpt><trkpt lat="45.975003707754794" lon="11.808181124171234"><ele>1022.0</ele><time>2026-03-24T14:42:19Z</time></trkpt><trkpt lat="45.97506149814202" lon="11.807997832071491"><ele>1021.0</ele><time>2026-03-24T14:42:20Z</time></trkpt><trkpt lat="45.97512391737303" lon="11.807804080616746"><ele>1014.5</ele><time>2026-03-24T14:42:21Z</time></trkpt><trkpt lat="45.975177163303705" lon="11.807640511367396"><ele>1008.0</ele><time>2026-03-24T14:42:22Z</time></trkpt><trkpt lat="45.97523501401804" lon="11.807489651922777"><ele>1001.5</ele><time>2026-03-24T14:42:23Z</time></trkpt><trkpt lat="45.97530910469853" lon="11.807334791082333"><ele>995.0</ele><time>2026-03-24T14:42:24Z</time></trkpt><trkpt lat="45.97542336277932" lon="11.8072459406093"><ele>995.0</ele><time>2026-03-24T14:42:25Z</time></trkpt><trkpt lat="45.9755295981701" lon="11.80716065614218"><ele>995.0</ele><time>2026-03-24T14:42:26Z</time></trkpt><trkpt lat="45.97563203804062" lon="11.80706802910678"><ele>995.0</ele><time>2026-03-24T14:42:26.999Z</time></trkpt><trkpt lat="45.975723834230074" lon="11.806957940179009"><ele>995.0</ele><time>2026-03-24T14:42:27.999Z</time></trkpt><trkpt lat="45.97579909609974" lon="11.806848045400073"><ele>987.0</ele><time>2026-03-24T14:42:28.999Z</time></trkpt><trkpt lat="45.975896174601644" lon="11.806753764215568"><ele>979.0</ele><time>2026-03-24T14:42:29.999Z</time></trkpt><trkpt lat="45.97601303228771" lon="11.806694262445497"><ele>971.0</ele><time>2026-03-24T14:42:30.999Z</time></trkpt><trkpt lat="45.97614287104237" lon="11.806680507472075"><ele>963.0</ele><time>2026-03-24T14:42:31.999Z</time></trkpt><trkpt lat="45.9762816126558" lon="11.806654756964562"><ele>963.0</ele><time>2026-03-24T14:42:32.999Z</time></trkpt><trkpt lat="45.97642830202" lon="11.806644275835984"><ele>963.0</ele><time>2026-03-24T14:42:33.999Z</time></trkpt><trkpt lat="45.97657982152405" lon="11.806665631087183"><ele>963.0</ele><time>2026-03-24T14:42:34.999Z</time></trkpt><trkpt lat="45.97674053761315" lon="11.806709893271295"><ele>959.25</ele><time>2026-03-24T14:42:35.999Z</time></trkpt><trkpt lat="45.97688411692832" lon="11.806741698528295"><ele>955.5</ele><time>2026-03-24T14:42:36.999Z</time></trkpt><trkpt lat="45.9770274943407" lon="11.806770339046206"><ele>951.75</ele><time>2026-03-24T14:42:37.999Z</time></trkpt><trkpt lat="45.97715664025223" lon="11.806802266687612"><ele>948.0</ele><time>2026-03-24T14:42:38.999Z</time></trkpt><trkpt lat="45.97729159819401" lon="11.806809743163095"><ele>948.0</ele><time>2026-03-24T14:42:39.999Z</time></trkpt><trkpt lat="45.97742687343577" lon="11.806786057406415"><ele>948.0</ele><time>2026-03-24T14:42:40.999Z</time></trkpt><trkpt lat="45.97754659265813" lon="11.80672379416306"><ele>948.0</ele><time>2026-03-24T14:42:41.999Z</time></trkpt><trkpt lat="45.97765068730029" lon="11.806604666651122"><ele>948.0</ele><time>2026-03-24T14:42:42.999Z</time></trkpt><trkpt lat="45.9777177634585" lon="11.806456144410008"><ele>950.75</ele><time>2026-03-24T14:42:43.999Z</time></trkpt><trkpt lat="45.9777999164157" lon="11.806298110722652"><ele>953.5</ele><time>2026-03-24T14:42:44.999Z</time></trkpt><trkpt lat="45.977893208445046" lon="11.806145368576798"><ele>956.25</ele><time>2026-03-24T14:42:45.999Z</time></trkpt><trkpt lat="45.97801262447415" lon="11.806033463831017"><ele>959.0</ele><time>2026-03-24T14:42:46.999Z</time></trkpt><trkpt lat="45.97813452200166" lon="11.80596736220848"><ele>955.0</ele><time>2026-03-24T14:42:47.999Z</time></trkpt><trkpt lat="45.978259594698464" lon="11.805916222862018"><ele>951.0</ele><time>2026-03-24T14:42:48.999Z</time></trkpt><trkpt lat="45.978393711649574" lon="11.805916050818391"><ele>947.0</ele><time>2026-03-24T14:42:49.999Z</time></trkpt><trkpt lat="45.978522650346726" lon="11.805950100841029"><ele>943.0</ele><time>2026-03-24T14:42:50.999Z</time></trkpt><trkpt lat="45.97865129063749" lon="11.806014097855343"><ele>943.0</ele><time>2026-03-24T14:42:51.999Z</time></trkpt><trkpt lat="45.97874521424859" lon="11.806144604338044"><ele>943.0</ele><time>2026-03-24T14:42:52.999Z</time></trkpt><trkpt lat="45.97884233378129" lon="11.80627073831274"><ele>943.0</ele><time>2026-03-24T14:42:53.999Z</time></trkpt><trkpt lat="45.97895298653288" lon="11.806406168685717"><ele>943.0</ele><time>2026-03-24T14:42:54.999Z</time></trkpt><trkpt lat="45.97907700435427" lon="11.806528189277019"><ele>941.5</ele><time>2026-03-24T14:42:55.999Z</time></trkpt><trkpt lat="45.979211575935786" lon="11.806631520328404"><ele>940.0</ele><time>2026-03-24T14:42:56.999Z</time></trkpt><trkpt lat="45.97935405461489" lon="11.806722691114535"><ele>938.5</ele><time>2026-03-24T14:42:57.999Z</time></trkpt><trkpt lat="45.97947739391641" lon="11.806792419414924"><ele>937.0</ele><time>2026-03-24T14:42:58.999Z</time></trkpt><trkpt lat="45.9795769036079" lon="11.806852105575224"><ele>937.0</ele><time>2026-03-24T14:42:59.999Z</time></trkpt><trkpt lat="45.97967804099466" lon="11.806933560249439"><ele>937.0</ele><time>2026-03-24T14:43:00.999Z</time></trkpt><trkpt lat="45.97977224820205" lon="11.807068227117817"><ele>937.0</ele><time>2026-03-24T14:43:01.999Z</time></trkpt><trkpt lat="45.979856088177876" lon="11.807213760434474"><ele>937.0</ele><time>2026-03-24T14:43:02.999Z</time></trkpt><trkpt lat="45.97994828101328" lon="11.80733207807589"><ele>931.25</ele><time>2026-03-24T14:43:03.999Z</time></trkpt><trkpt lat="45.98005707402669" lon="11.807425897388871"><ele>925.5</ele><time>2026-03-24T14:43:04.999Z</time></trkpt><trkpt lat="45.98019051319397" lon="11.807451815610728"><ele>919.75</ele><time>2026-03-24T14:43:05.999Z</time></trkpt><trkpt lat="45.98031936984265" lon="11.807475396276866"><ele>914.0</ele><time>2026-03-24T14:43:06.999Z</time></trkpt><trkpt lat="45.98043623714972" lon="11.807520176623756"><ele>914.0</ele><time>2026-03-24T14:43:07.999Z</time></trkpt><trkpt lat="45.980527060716824" lon="11.807587703631418"><ele>914.0000000000001</ele><time>2026-03-24T14:43:08.999Z</time></trkpt><trkpt lat="45.98061297985533" lon="11.807674999313837"><ele>914.0000000000001</ele><time>2026-03-24T14:43:09.999Z</time></trkpt><trkpt lat="45.98068396416606" lon="11.807819788555943"><ele>914.0</ele><time>2026-03-24T14:43:10.999Z</time></trkpt><trkpt lat="45.98072676393008" lon="11.80795643681438"><ele>914.0</ele><time>2026-03-24T14:43:11.999Z</time></trkpt><trkpt lat="45.980800339708765" lon="11.808058088905536"><ele>913.75</ele><time>2026-03-24T14:43:12.999Z</time></trkpt><trkpt lat="45.980910896210496" lon="11.808122211175334"><ele>913.5</ele><time>2026-03-24T14:43:13.999Z</time></trkpt><trkpt lat="45.98102795282547" lon="11.808170189465706"><ele>913.25</ele><time>2026-03-24T14:43:14.999Z</time></trkpt><trkpt lat="45.981158394807395" lon="11.80820088605765"><ele>913.0</ele><time>2026-03-24T14:43:15.999Z</time></trkpt><trkpt lat="45.98130758737986" lon="11.808250066551475"><ele>913.0</ele><time>2026-03-24T14:43:16.999Z</time></trkpt><trkpt lat="45.98144360305935" lon="11.808247036986655"><ele>913.0</ele><time>2026-03-24T14:43:17.999Z</time></trkpt><trkpt lat="45.98155906217026" lon="11.80826986914596"><ele>913.0</ele><time>2026-03-24T14:43:18.999Z</time></trkpt><trkpt lat="45.981658360495906" lon="11.808328553035377"><ele>913.0</ele><time>2026-03-24T14:43:19.999Z</time></trkpt><trkpt lat="45.981745900639844" lon="11.808436077613601"><ele>911.0</ele><time>2026-03-24T14:43:20.999Z</time></trkpt><trkpt lat="45.98184835746668" lon="11.808579412135224"><ele>909.0</ele><time>2026-03-24T14:43:21.999Z</time></trkpt><trkpt lat="45.98196411029053" lon="11.80871835342054"><ele>907.0</ele><time>2026-03-24T14:43:22.999Z</time></trkpt><trkpt lat="45.982081806856705" lon="11.808888010126234"><ele>907.0</ele><time>2026-03-24T14:43:23.999Z</time></trkpt><trkpt lat="45.982211557861454" lon="11.80907030278252"><ele>907.0</ele><time>2026-03-24T14:43:24.999Z</time></trkpt><trkpt lat="45.98233426059117" lon="11.809258325344485"><ele>907.0</ele><time>2026-03-24T14:43:25.999Z</time></trkpt><trkpt lat="45.98245669385762" lon="11.809435527956246"><ele>903.6666666666666</ele><time>2026-03-24T14:43:26.999Z</time></trkpt><trkpt lat="45.982576504699885" lon="11.80959075284803"><ele>900.3333333333333</ele><time>2026-03-24T14:43:27.998Z</time></trkpt><trkpt lat="45.98270287025387" lon="11.80971227256158"><ele>897.0</ele><time>2026-03-24T14:43:28.998Z</time></trkpt><trkpt lat="45.98284312398771" lon="11.809806243588797"><ele>897.0</ele><time>2026-03-24T14:43:29.998Z</time></trkpt><trkpt lat="45.9829572581554" lon="11.809891119189668"><ele>897.0</ele><time>2026-03-24T14:43:30.998Z</time></trkpt><trkpt lat="45.98305979828738" lon="11.81003381138266"><ele>897.0</ele><time>2026-03-24T14:43:31.998Z</time></trkpt><trkpt lat="45.98315512030443" lon="11.810205895869185"><ele>897.0</ele><time>2026-03-24T14:43:32.998Z</time></trkpt><trkpt lat="45.98324143046994" lon="11.810387568375246"><ele>898.5</ele><time>2026-03-24T14:43:33.998Z</time></trkpt><trkpt lat="45.9833044881879" lon="11.81056618166626"><ele>900.0</ele><time>2026-03-24T14:43:34.998Z</time></trkpt><trkpt lat="45.98333880317024" lon="11.81073692896136"><ele>901.5</ele><time>2026-03-24T14:43:35.998Z</time></trkpt><trkpt lat="45.98336131105425" lon="11.810907046777626"><ele>903.0</ele><time>2026-03-24T14:43:36.998Z</time></trkpt><trkpt lat="45.983354133884816" lon="11.81105016051166"><ele>899.8333333333334</ele><time>2026-03-24T14:43:37.998Z</time></trkpt><trkpt lat="45.98335341274244" lon="11.811167767322946"><ele>896.6666666666667</ele><time>2026-03-24T14:43:38.998Z</time></trkpt><trkpt lat="45.98337575428101" lon="11.811262510280494"><ele>893.5</ele><time>2026-03-24T14:43:39.998Z</time></trkpt><trkpt lat="45.98343672578247" lon="11.811337205557088"><ele>890.3333333333334</ele><time>2026-03-24T14:43:40.998Z</time></trkpt><trkpt lat="45.983509723862134" lon="11.811347551253318"><ele>887.1666666666667</ele><time>2026-03-24T14:43:41.998Z</time></trkpt><trkpt lat="45.98359124172798" lon="11.811324107288488"><ele>884.0</ele><time>2026-03-24T14:43:42.998Z</time></trkpt><trkpt lat="45.98364365861371" lon="11.81123331289068"><ele>884.0</ele><time>2026-03-24T14:43:43.998Z</time></trkpt><trkpt lat="45.9836070907289" lon="11.81109989128889"><ele>884.0000000000001</ele><time>2026-03-24T14:43:44.998Z</time></trkpt><trkpt lat="45.9835698231758" lon="11.810990577373865"><ele>884.0000000000001</ele><time>2026-03-24T14:43:45.998Z</time></trkpt><trkpt lat="45.983526427375494" lon="11.810840848585507"><ele>884.0</ele><time>2026-03-24T14:43:46.998Z</time></trkpt><trkpt lat="45.98349953040788" lon="11.810658676508217"><ele>884.0</ele><time>2026-03-24T14:43:47.998Z</time></trkpt><trkpt lat="45.98349306618449" lon="11.810442691601288"><ele>883.6666666666667</ele><time>2026-03-24T14:43:48.998Z</time></trkpt><trkpt lat="45.983471314968945" lon="11.81021721766138"><ele>883.3333333333333</ele><time>2026-03-24T14:43:49.998Z</time></trkpt><trkpt lat="45.98343284664649" lon="11.809994292628268"><ele>883.0</ele><time>2026-03-24T14:43:51Z</time></trkpt><trkpt lat="45.98337858951593" lon="11.809791678298167"><ele>883.0</ele><time>2026-03-24T14:43:52Z</time></trkpt><trkpt lat="45.98335405939941" lon="11.809595164192144"><ele>883.0</ele><time>2026-03-24T14:43:53Z</time></trkpt><trkpt lat="45.98336032164555" lon="11.809410357338633"><ele>883.0</ele><time>2026-03-24T14:43:54Z</time></trkpt><trkpt lat="45.98335212199021" lon="11.809243512065933"><ele>883.0</ele><time>2026-03-24T14:43:55Z</time></trkpt><trkpt lat="45.983293899857856" lon="11.809112305497498"><ele>885.25</ele><time>2026-03-24T14:43:56Z</time></trkpt><trkpt lat="45.9832009689554" lon="11.808967979230227"><ele>887.5</ele><time>2026-03-24T14:43:57Z</time></trkpt><trkpt lat="45.9830851547453" lon="11.808835970299029"><ele>889.75</ele><time>2026-03-24T14:43:58Z</time></trkpt><trkpt lat="45.982987862201114" lon="11.808666635488544"><ele>892.0</ele><time>2026-03-24T14:43:59Z</time></trkpt><trkpt lat="45.98287850113624" lon="11.808509128010067"><ele>889.0</ele><time>2026-03-24T14:44:00Z</time></trkpt><trkpt lat="45.982810242605325" lon="11.808282614164654"><ele>886.0</ele><time>2026-03-24T14:44:01Z</time></trkpt><trkpt lat="45.982709951187196" lon="11.808061689348328"><ele>883.0</ele><time>2026-03-24T14:44:02Z</time></trkpt><trkpt lat="45.98259611461038" lon="11.807852047655516"><ele>883.3333333333333</ele><time>2026-03-24T14:44:03Z</time></trkpt><trkpt lat="45.982477852891364" lon="11.807665429887267"><ele>883.6666666666667</ele><time>2026-03-24T14:44:04Z</time></trkpt><trkpt lat="45.982373929743844" lon="11.807484892907882"><ele>884.0</ele><time>2026-03-24T14:44:05Z</time></trkpt><trkpt lat="45.98228735963882" lon="11.807296151444994"><ele>884.0</ele><time>2026-03-24T14:44:06Z</time></trkpt><trkpt lat="45.98219881032071" lon="11.807138635688577"><ele>884.0</ele><time>2026-03-24T14:44:07Z</time></trkpt><trkpt lat="45.982108364061574" lon="11.807012183139674"><ele>884.0</ele><time>2026-03-24T14:44:08Z</time></trkpt><trkpt lat="45.982037680638946" lon="11.80688684061001"><ele>884.0</ele><time>2026-03-24T14:44:09Z</time></trkpt><trkpt lat="45.98198050915041" lon="11.806746097164135"><ele>880.25</ele><time>2026-03-24T14:44:10Z</time></trkpt><trkpt lat="45.98196484657855" lon="11.806570170280217"><ele>876.5</ele><time>2026-03-24T14:44:11Z</time></trkpt><trkpt lat="45.98194382118201" lon="11.806396102551057"><ele>872.75</ele><time>2026-03-24T14:44:12Z</time></trkpt><trkpt lat="45.981890703939385" lon="11.806222036420177"><ele>869.0</ele><time>2026-03-24T14:44:13Z</time></trkpt><trkpt lat="45.98180983116901" lon="11.806062770351815"><ele>868.5</ele><time>2026-03-24T14:44:14Z</time></trkpt><trkpt lat="45.981714474152035" lon="11.80592596606334"><ele>868.0</ele><time>2026-03-24T14:44:15Z</time></trkpt><trkpt lat="45.981610715988815" lon="11.805787830720243"><ele>867.5</ele><time>2026-03-24T14:44:16Z</time></trkpt><trkpt lat="45.98151355980606" lon="11.805652627615807"><ele>867.0</ele><time>2026-03-24T14:44:17Z</time></trkpt><trkpt lat="45.98141967764212" lon="11.805528712578226"><ele>867.0</ele><time>2026-03-24T14:44:18Z</time></trkpt><trkpt lat="45.981339753940524" lon="11.805416340481006"><ele>867.0</ele><time>2026-03-24T14:44:19Z</time></trkpt><trkpt lat="45.981262811833226" lon="11.805355471005958"><ele>867.0</ele><time>2026-03-24T14:44:20Z</time></trkpt><trkpt lat="45.981192624718" lon="11.805302366499957"><ele>867.0</ele><time>2026-03-24T14:44:21Z</time></trkpt><trkpt lat="45.98113466838946" lon="11.805223044370273"><ele>867.0</ele><time>2026-03-24T14:44:22Z</time></trkpt><trkpt lat="45.98108105978171" lon="11.805168173054618"><ele>867.0</ele><time>2026-03-24T14:44:23Z</time></trkpt><trkpt lat="45.98107396358081" lon="11.805068555086375"><ele>867.0</ele><time>2026-03-24T14:44:24Z</time></trkpt><trkpt lat="45.98109990731194" lon="11.804938862404297"><ele>867.0</ele><time>2026-03-24T14:44:25Z</time></trkpt><trkpt lat="45.9812100056298" lon="11.804917060843504"><ele>867.0</ele><time>2026-03-24T14:44:26Z</time></trkpt><trkpt lat="45.9812843540633" lon="11.804942192243923"><ele>867.0</ele><time>2026-03-24T14:44:27Z</time></trkpt><trkpt lat="45.981305339664814" lon="11.805051738274951"><ele>867.0</ele><time>2026-03-24T14:44:27.999Z</time></trkpt><trkpt lat="45.981365800819084" lon="11.80511935694182"><ele>867.0</ele><time>2026-03-24T14:44:28.999Z</time></trkpt><trkpt lat="45.981447742103626" lon="11.805217706160716"><ele>867.0</ele><time>2026-03-24T14:44:29.999Z</time></trkpt><trkpt lat="45.9815766360137" lon="11.80529202910875"><ele>867.0</ele><time>2026-03-24T14:44:30.999Z</time></trkpt><trkpt lat="45.98173166172097" lon="11.805354422918215"><ele>867.0</ele><time>2026-03-24T14:44:31.999Z</time></trkpt><trkpt lat="45.98189838628086" lon="11.805418029080782"><ele>862.3333333333333</ele><time>2026-03-24T14:44:32.999Z</time></trkpt><trkpt lat="45.98206972504744" lon="11.805508534478465"><ele>857.6666666666666</ele><time>2026-03-24T14:44:33.999Z</time></trkpt><trkpt lat="45.982230609632985" lon="11.805609036991378"><ele>853.0</ele><time>2026-03-24T14:44:34.999Z</time></trkpt><trkpt lat="45.9823667731571" lon="11.805696060602612"><ele>853.0</ele><time>2026-03-24T14:44:35.999Z</time></trkpt><trkpt lat="45.98250648391017" lon="11.80577955851886"><ele>853.0</ele><time>2026-03-24T14:44:36.999Z</time></trkpt><trkpt lat="45.982648737131555" lon="11.805842526530974"><ele>853.0</ele><time>2026-03-24T14:44:37.999Z</time></trkpt><trkpt lat="45.98277780409047" lon="11.805875234746441"><ele>853.0</ele><time>2026-03-24T14:44:38.999Z</time></trkpt><trkpt lat="45.982895281332624" lon="11.805888717084033"><ele>853.5</ele><time>2026-03-24T14:44:39.999Z</time></trkpt><trkpt lat="45.9830160627858" lon="11.805932046425292"><ele>854.0</ele><time>2026-03-24T14:44:40.999Z</time></trkpt><trkpt lat="45.98313621398725" lon="11.805996758996333"><ele>854.5</ele><time>2026-03-24T14:44:41.999Z</time></trkpt><trkpt lat="45.9832702807063" lon="11.806095835405669"><ele>855.0</ele><time>2026-03-24T14:44:42.999Z</time></trkpt><trkpt lat="45.983412162889984" lon="11.806214374962915"><ele>847.3333333333333</ele><time>2026-03-24T14:44:43.999Z</time></trkpt><trkpt lat="45.98355966086924" lon="11.806373812697009"><ele>839.6666666666666</ele><time>2026-03-24T14:44:44.999Z</time></trkpt><trkpt lat="45.983700882910426" lon="11.806555503871481"><ele>832.0</ele><time>2026-03-24T14:44:45.999Z</time></trkpt><trkpt lat="45.9838368096876" lon="11.80671546265981"><ele>828.0</ele><time>2026-03-24T14:44:46.999Z</time></trkpt><trkpt lat="45.98397574855198" lon="11.806842240618751"><ele>824.0</ele><time>2026-03-24T14:44:47.999Z</time></trkpt><trkpt lat="45.98411554395293" lon="11.806965757004575"><ele>820.0</ele><time>2026-03-24T14:44:48.999Z</time></trkpt><trkpt lat="45.98423826903228" lon="11.807105596020234"><ele>820.0</ele><time>2026-03-24T14:44:49.999Z</time></trkpt><trkpt lat="45.9843504317452" lon="11.80724030074014"><ele>820.0</ele><time>2026-03-24T14:44:50.999Z</time></trkpt><trkpt lat="45.98447195596487" lon="11.807330397173144"><ele>820.0</ele><time>2026-03-24T14:44:51.999Z</time></trkpt><trkpt lat="45.98461721101864" lon="11.807388575968478"><ele>820.0</ele><time>2026-03-24T14:44:52.999Z</time></trkpt><trkpt lat="45.98475762777533" lon="11.807473829936157"><ele>820.0</ele><time>2026-03-24T14:44:53.999Z</time></trkpt><trkpt lat="45.984893958119386" lon="11.807588383711273"><ele>820.0</ele><time>2026-03-24T14:44:54.999Z</time></trkpt><trkpt lat="45.985032700581584" lon="11.807709308044766"><ele>820.0</ele><time>2026-03-24T14:44:55.999Z</time></trkpt><trkpt lat="45.98515989749705" lon="11.807835198213484"><ele>816.6666666666666</ele><time>2026-03-24T14:44:56.999Z</time></trkpt><trkpt lat="45.98527750687101" lon="11.807978000023965"><ele>813.3333333333333</ele><time>2026-03-24T14:44:57.999Z</time></trkpt><trkpt lat="45.98538562205805" lon="11.808137827721957"><ele>810.0</ele><time>2026-03-24T14:44:58.999Z</time></trkpt><trkpt lat="45.98548579673138" lon="11.808316892032696"><ele>810.0</ele><time>2026-03-24T14:44:59.999Z</time></trkpt><trkpt lat="45.98558140839573" lon="11.808488316648718"><ele>810.0</ele><time>2026-03-24T14:45:00.999Z</time></trkpt><trkpt lat="45.98567559386705" lon="11.808655892776319"><ele>810.0</ele><time>2026-03-24T14:45:01.999Z</time></trkpt><trkpt lat="45.98575479525534" lon="11.808834675512843"><ele>812.0</ele><time>2026-03-24T14:45:02.999Z</time></trkpt><trkpt lat="45.98580771844561" lon="11.809023993832954"><ele>814.0</ele><time>2026-03-24T14:45:03.999Z</time></trkpt><trkpt lat="45.98583836128177" lon="11.809221910592084"><ele>816.0</ele><time>2026-03-24T14:45:04.999Z</time></trkpt><trkpt lat="45.98586958678427" lon="11.80939836946171"><ele>818.0</ele><time>2026-03-24T14:45:05.999Z</time></trkpt><trkpt lat="45.98592550083475" lon="11.809566201330206"><ele>812.5</ele><time>2026-03-24T14:45:06.999Z</time></trkpt><trkpt lat="45.98600757180455" lon="11.809706728030088"><ele>807.0</ele><time>2026-03-24T14:45:07.999Z</time></trkpt><trkpt lat="45.98610491383926" lon="11.809836925386914"><ele>801.5</ele><time>2026-03-24T14:45:08.999Z</time></trkpt><trkpt lat="45.9862289915519" lon="11.809987783166758"><ele>796.0</ele><time>2026-03-24T14:45:09.999Z</time></trkpt><trkpt lat="45.986341056274625" lon="11.810151077421532"><ele>800.0</ele><time>2026-03-24T14:45:10.999Z</time></trkpt><trkpt lat="45.98643352907164" lon="11.810340249644847"><ele>804.0</ele><time>2026-03-24T14:45:11.999Z</time></trkpt><trkpt lat="45.986527501102714" lon="11.810541752888954"><ele>808.0</ele><time>2026-03-24T14:45:12.999Z</time></trkpt><trkpt lat="45.986618068414685" lon="11.810736494927326"><ele>803.75</ele><time>2026-03-24T14:45:13.999Z</time></trkpt><trkpt lat="45.98672135822944" lon="11.810899400205894"><ele>799.5</ele><time>2026-03-24T14:45:14.999Z</time></trkpt><trkpt lat="45.98684102895559" lon="11.811023778170936"><ele>795.25</ele><time>2026-03-24T14:45:15.999Z</time></trkpt><trkpt lat="45.98696310833446" lon="11.811130542104909"><ele>791.0</ele><time>2026-03-24T14:45:16.999Z</time></trkpt><trkpt lat="45.98706534314036" lon="11.811269838597184"><ele>791.0</ele><time>2026-03-24T14:45:17.999Z</time></trkpt><trkpt lat="45.987174082839736" lon="11.811415575862267"><ele>791.0</ele><time>2026-03-24T14:45:18.999Z</time></trkpt><trkpt lat="45.98728873011296" lon="11.811583282087062"><ele>791.0</ele><time>2026-03-24T14:45:19.999Z</time></trkpt><trkpt lat="45.987381787884495" lon="11.811769719174539"><ele>795.0</ele><time>2026-03-24T14:45:20.999Z</time></trkpt><trkpt lat="45.9874694225631" lon="11.81195039151265"><ele>799.0</ele><time>2026-03-24T14:45:21.999Z</time></trkpt><trkpt lat="45.987556508662884" lon="11.812128885784988"><ele>803.0</ele><time>2026-03-24T14:45:22.999Z</time></trkpt><trkpt lat="45.987649012755135" lon="11.812299332707651"><ele>797.5</ele><time>2026-03-24T14:45:23.999Z</time></trkpt><trkpt lat="45.98774870475254" lon="11.812450376910652"><ele>792.0</ele><time>2026-03-24T14:45:24.999Z</time></trkpt><trkpt lat="45.987840108251326" lon="11.812600655140189"><ele>786.5</ele><time>2026-03-24T14:45:25.999Z</time></trkpt><trkpt lat="45.98790478717873" lon="11.812748179215994"><ele>781.0</ele><time>2026-03-24T14:45:26.999Z</time></trkpt><trkpt lat="45.98795323375524" lon="11.81290984722327"><ele>781.0</ele><time>2026-03-24T14:45:27.999Z</time></trkpt><trkpt lat="45.988003814481246" lon="11.813084586140935"><ele>781.0</ele><time>2026-03-24T14:45:28.999Z</time></trkpt><trkpt lat="45.988076273305296" lon="11.813254028842334"><ele>781.0</ele><time>2026-03-24T14:45:29.998Z</time></trkpt><trkpt lat="45.988131284411715" lon="11.813414453236252"><ele>781.0</ele><time>2026-03-24T14:45:30.998Z</time></trkpt><trkpt lat="45.988201642750106" lon="11.813558921352833"><ele>783.0</ele><time>2026-03-24T14:45:31.998Z</time></trkpt><trkpt lat="45.98827231021451" lon="11.813707848615604"><ele>785.0</ele><time>2026-03-24T14:45:32.998Z</time></trkpt><trkpt lat="45.98839438695056" lon="11.81380323400893"><ele>787.0</ele><time>2026-03-24T14:45:33.998Z</time></trkpt><trkpt lat="45.98852272683074" lon="11.81386228607596"><ele>789.0</ele><time>2026-03-24T14:45:34.998Z</time></trkpt><trkpt lat="45.98863931615515" lon="11.813930435803476"><ele>784.6666666666667</ele><time>2026-03-24T14:45:35.998Z</time></trkpt><trkpt lat="45.98875522315876" lon="11.814054442723027"><ele>780.3333333333334</ele><time>2026-03-24T14:45:36.998Z</time></trkpt><trkpt lat="45.98884938641802" lon="11.814215101581302"><ele>776.0</ele><time>2026-03-24T14:45:37.998Z</time></trkpt><trkpt lat="45.98895243816939" lon="11.81440895586391"><ele>776.0</ele><time>2026-03-24T14:45:38.998Z</time></trkpt><trkpt lat="45.98907447206442" lon="11.814587462565147"><ele>776.0</ele><time>2026-03-24T14:45:39.998Z</time></trkpt><trkpt lat="45.98917169300345" lon="11.814785796080644"><ele>776.0</ele><time>2026-03-24T14:45:40.998Z</time></trkpt><trkpt lat="45.989289219267484" lon="11.814947773371777"><ele>772.3333333333334</ele><time>2026-03-24T14:45:41.998Z</time></trkpt><trkpt lat="45.989435635851905" lon="11.815043991727848"><ele>768.6666666666667</ele><time>2026-03-24T14:45:42.998Z</time></trkpt><trkpt lat="45.989568953033455" lon="11.815141366412016"><ele>765.0</ele><time>2026-03-24T14:45:43.998Z</time></trkpt><trkpt lat="45.98970380728975" lon="11.815234221930355"><ele>765.0</ele><time>2026-03-24T14:45:44.998Z</time></trkpt><trkpt lat="45.98981506744139" lon="11.815336250010517"><ele>765.0</ele><time>2026-03-24T14:45:45.998Z</time></trkpt><trkpt lat="45.98990578804591" lon="11.815442362732316"><ele>765.0</ele><time>2026-03-24T14:45:46.998Z</time></trkpt><trkpt lat="45.989985443754016" lon="11.815499825937918"><ele>765.0</ele><time>2026-03-24T14:45:47.998Z</time></trkpt><trkpt lat="45.990077368583805" lon="11.815543786578978"><ele>765.0</ele><time>2026-03-24T14:45:48.998Z</time></trkpt><trkpt lat="45.990149946769115" lon="11.815501341420573"><ele>761.0</ele><time>2026-03-24T14:45:49.998Z</time></trkpt><trkpt lat="45.99020901863152" lon="11.815434092573962"><ele>757.0</ele><time>2026-03-24T14:45:50.998Z</time></trkpt><trkpt lat="45.99021132362626" lon="11.815305265878333"><ele>753.0</ele><time>2026-03-24T14:45:51.998Z</time></trkpt><trkpt lat="45.99022293055867" lon="11.815133063792082"><ele>749.0</ele><time>2026-03-24T14:45:52.998Z</time></trkpt><trkpt lat="45.99020459426341" lon="11.81495985720494"><ele>745.0</ele><time>2026-03-24T14:45:53.998Z</time></trkpt><trkpt lat="45.99017576397875" lon="11.814771451976164"><ele>743.75</ele><time>2026-03-24T14:45:54.998Z</time></trkpt><trkpt lat="45.990141109819014" lon="11.814593240653359"><ele>742.5</ele><time>2026-03-24T14:45:55.998Z</time></trkpt><trkpt lat="45.990132797627346" lon="11.814428383987044"><ele>741.25</ele><time>2026-03-24T14:45:57Z</time></trkpt><trkpt lat="45.990147588580925" lon="11.814249143241899"><ele>740.0</ele><time>2026-03-24T14:45:58Z</time></trkpt><trkpt lat="45.99019133005231" lon="11.814100776642844"><ele>739.0</ele><time>2026-03-24T14:45:59Z</time></trkpt><trkpt lat="45.990229608383366" lon="11.813971999819154"><ele>738.0</ele><time>2026-03-24T14:46:00Z</time></trkpt><trkpt lat="45.990256627542706" lon="11.813841699105385"><ele>737.0</ele><time>2026-03-24T14:46:01Z</time></trkpt><trkpt lat="45.990223637336875" lon="11.813659960711641"><ele>736.0</ele><time>2026-03-24T14:46:02Z</time></trkpt><trkpt lat="45.99019484223869" lon="11.813459002768795"><ele>733.6666666666667</ele><time>2026-03-24T14:46:03Z</time></trkpt><trkpt lat="45.990164987259234" lon="11.813231508428764"><ele>731.3333333333334</ele><time>2026-03-24T14:46:04Z</time></trkpt><trkpt lat="45.99013527531815" lon="11.812987338844946"><ele>729.0</ele><time>2026-03-24T14:46:05Z</time></trkpt><trkpt lat="45.99011148313978" lon="11.812733329456137"><ele>731.6666666666666</ele><time>2026-03-24T14:46:06Z</time></trkpt><trkpt lat="45.99007598174032" lon="11.812489684863406"><ele>734.3333333333333</ele><time>2026-03-24T14:46:07Z</time></trkpt><trkpt lat="45.990032734359445" lon="11.812257874722368"><ele>737.0</ele><time>2026-03-24T14:46:08Z</time></trkpt><trkpt lat="45.98997765339017" lon="11.812032232992502"><ele>733.5</ele><time>2026-03-24T14:46:09Z</time></trkpt><trkpt lat="45.989919461174324" lon="11.811815676111424"><ele>730.0</ele><time>2026-03-24T14:46:10Z</time></trkpt><trkpt lat="45.989865008724" lon="11.811619600244352"><ele>726.5</ele><time>2026-03-24T14:46:11Z</time></trkpt><trkpt lat="45.98980987537044" lon="11.811438222463043"><ele>723.0</ele><time>2026-03-24T14:46:12Z</time></trkpt><trkpt lat="45.989744684810965" lon="11.811293278179747"><ele>723.0</ele><time>2026-03-24T14:46:13Z</time></trkpt><trkpt lat="45.98967096940391" lon="11.811177439247714"><ele>723.0</ele><time>2026-03-24T14:46:14Z</time></trkpt><trkpt lat="45.98959215188783" lon="11.81109746396542"><ele>723.0</ele><time>2026-03-24T14:46:15Z</time></trkpt><trkpt lat="45.989522745862445" lon="11.811010375887157"><ele>723.0</ele><time>2026-03-24T14:46:16Z</time></trkpt><trkpt lat="45.98946107288195" lon="11.810927700964415"><ele>723.0</ele><time>2026-03-24T14:46:17Z</time></trkpt><trkpt lat="45.989441401510916" lon="11.810824146296953"><ele>721.4</ele><time>2026-03-24T14:46:18Z</time></trkpt><trkpt lat="45.989461749200615" lon="11.810730816526556"><ele>719.8</ele><time>2026-03-24T14:46:19Z</time></trkpt><trkpt lat="45.98959196965306" lon="11.810690095974415"><ele>718.2</ele><time>2026-03-24T14:46:21Z</time></trkpt><trkpt lat="45.98965952242034" lon="11.810761090859861"><ele>716.6</ele><time>2026-03-24T14:46:22Z</time></trkpt><trkpt lat="45.98971293588536" lon="11.810867366987008"><ele>715.0</ele><time>2026-03-24T14:46:23Z</time></trkpt><trkpt lat="45.98978576467315" lon="11.810969779078706"><ele>717.0</ele><time>2026-03-24T14:46:24Z</time></trkpt><trkpt lat="45.98988827491112" lon="11.811054822370867"><ele>719.0</ele><time>2026-03-24T14:46:25Z</time></trkpt><trkpt lat="45.99000101652784" lon="11.81112008829016"><ele>721.0</ele><time>2026-03-24T14:46:26Z</time></trkpt><trkpt lat="45.99010357981399" lon="11.811193140377199"><ele>723.0</ele><time>2026-03-24T14:46:27Z</time></trkpt><trkpt lat="45.99017756931027" lon="11.811319297252506"><ele>721.4</ele><time>2026-03-24T14:46:28Z</time></trkpt><trkpt lat="45.99022093932328" lon="11.811474229967574"><ele>719.8</ele><time>2026-03-24T14:46:29Z</time></trkpt><trkpt lat="45.99025642153413" lon="11.811616771773792"><ele>718.2</ele><time>2026-03-24T14:46:30Z</time></trkpt><trkpt lat="45.99031397340069" lon="11.811743410668408"><ele>716.6</ele><time>2026-03-24T14:46:31Z</time></trkpt><trkpt lat="45.990401737321314" lon="11.811847552299108"><ele>715.0</ele><time>2026-03-24T14:46:32Z</time></trkpt><trkpt lat="45.99052255347332" lon="11.811916847057656"><ele>715.0</ele><time>2026-03-24T14:46:33Z</time></trkpt><trkpt lat="45.99067293738273" lon="11.811945495821018"><ele>715.0</ele><time>2026-03-24T14:46:34Z</time></trkpt><trkpt lat="45.990854403954124" lon="11.811977304586385"><ele>715.0</ele><time>2026-03-24T14:46:34.999Z</time></trkpt><trkpt lat="45.99101690708028" lon="11.81201702182697"><ele>711.0</ele><time>2026-03-24T14:46:35.999Z</time></trkpt><trkpt lat="45.99115005786978" lon="11.812100644384955"><ele>707.0</ele><time>2026-03-24T14:46:36.999Z</time></trkpt><trkpt lat="45.99127491907242" lon="11.812201711099116"><ele>703.0</ele><time>2026-03-24T14:46:37.999Z</time></trkpt><trkpt lat="45.99135921069796" lon="11.81236980508812"><ele>699.0</ele><time>2026-03-24T14:46:38.999Z</time></trkpt><trkpt lat="45.99146716974606" lon="11.8125015039749"><ele>699.0</ele><time>2026-03-24T14:46:39.999Z</time></trkpt><trkpt lat="45.99157093732031" lon="11.81264020934405"><ele>699.0</ele><time>2026-03-24T14:46:40.999Z</time></trkpt><trkpt lat="45.99170047917534" lon="11.812734348266916"><ele>699.0</ele><time>2026-03-24T14:46:41.999Z</time></trkpt><trkpt lat="45.99183825649992" lon="11.812809559919405"><ele>699.0</ele><time>2026-03-24T14:46:42.999Z</time></trkpt><trkpt lat="45.99197389615969" lon="11.812858426812902"><ele>695.75</ele><time>2026-03-24T14:46:43.999Z</time></trkpt><trkpt lat="45.992087188330274" lon="11.81295913982056"><ele>692.5</ele><time>2026-03-24T14:46:44.999Z</time></trkpt><trkpt lat="45.992166090695235" lon="11.813128799680076"><ele>689.25</ele><time>2026-03-24T14:46:45.999Z</time></trkpt><trkpt lat="45.99227570856085" lon="11.81328665832897"><ele>686.0</ele><time>2026-03-24T14:46:46.999Z</time></trkpt><trkpt lat="45.99237781127768" lon="11.813470108210712"><ele>688.0</ele><time>2026-03-24T14:46:47.999Z</time></trkpt><trkpt lat="45.99250162444098" lon="11.813647963868199"><ele>690.0</ele><time>2026-03-24T14:46:48.999Z</time></trkpt><trkpt lat="45.99262781443623" lon="11.813808753645793"><ele>692.0</ele><time>2026-03-24T14:46:49.999Z</time></trkpt><trkpt lat="45.99274128481136" lon="11.813984212212738"><ele>685.75</ele><time>2026-03-24T14:46:50.999Z</time></trkpt><trkpt lat="45.992854495305295" lon="11.8141415960908"><ele>679.5</ele><time>2026-03-24T14:46:51.999Z</time></trkpt><trkpt lat="45.992946257179874" lon="11.81427043191713"><ele>673.25</ele><time>2026-03-24T14:46:52.999Z</time></trkpt><trkpt lat="45.99302761027549" lon="11.814365093088567"><ele>667.0</ele><time>2026-03-24T14:46:53.999Z</time></trkpt><trkpt lat="45.99305309141139" lon="11.81454129380418"><ele>667.0</ele><time>2026-03-24T14:46:54.999Z</time></trkpt><trkpt lat="45.99307685335837" lon="11.814717029978523"><ele>667.0</ele><time>2026-03-24T14:46:55.999Z</time></trkpt><trkpt lat="45.99313874481574" lon="11.814890073145031"><ele>667.0</ele><time>2026-03-24T14:46:56.999Z</time></trkpt><trkpt lat="45.99320461960205" lon="11.81504009132559"><ele>667.0</ele><time>2026-03-24T14:46:57.999Z</time></trkpt><trkpt lat="45.993236550046724" lon="11.815198122217527"><ele>666.0</ele><time>2026-03-24T14:46:58.999Z</time></trkpt><trkpt lat="45.993227603086716" lon="11.815367555490372"><ele>665.0</ele><time>2026-03-24T14:46:59.999Z</time></trkpt><trkpt lat="45.993209302463015" lon="11.815553560696728"><ele>664.0</ele><time>2026-03-24T14:47:00.999Z</time></trkpt><trkpt lat="45.99315686288231" lon="11.815734480988262"><ele>663.0</ele><time>2026-03-24T14:47:01.999Z</time></trkpt><trkpt lat="45.993079449824755" lon="11.815925889700285"><ele>657.0</ele><time>2026-03-24T14:47:02.999Z</time></trkpt><trkpt lat="45.992976906329964" lon="11.8161163814502"><ele>651.0</ele><time>2026-03-24T14:47:03.999Z</time></trkpt><trkpt lat="45.9928643115521" lon="11.816318081845312"><ele>645.0</ele><time>2026-03-24T14:47:04.999Z</time></trkpt><trkpt lat="45.99275609010214" lon="11.816508218376944"><ele>645.0</ele><time>2026-03-24T14:47:05.999Z</time></trkpt><trkpt lat="45.99265412763766" lon="11.816687641000128"><ele>645.0</ele><time>2026-03-24T14:47:06.999Z</time></trkpt><trkpt lat="45.992572871512365" lon="11.816845898727843"><ele>645.0</ele><time>2026-03-24T14:47:07.999Z</time></trkpt><trkpt lat="45.992489391841445" lon="11.816905362239384"><ele>645.0</ele><time>2026-03-24T14:47:08.999Z</time></trkpt><trkpt lat="45.99242246655354" lon="11.816967302795458"><ele>646.0</ele><time>2026-03-24T14:47:09.999Z</time></trkpt><trkpt lat="45.99233614071403" lon="11.816892650758298"><ele>647.0</ele><time>2026-03-24T14:47:10.999Z</time></trkpt><trkpt lat="45.99224846009513" lon="11.816907966373925"><ele>648.0</ele><time>2026-03-24T14:47:11.999Z</time></trkpt><trkpt lat="45.992154884228825" lon="11.816991885034163"><ele>649.0</ele><time>2026-03-24T14:47:12.999Z</time></trkpt><trkpt lat="45.992137646170086" lon="11.817125421611227"><ele>650.0</ele><time>2026-03-24T14:47:13.999Z</time></trkpt><trkpt lat="45.99213803410733" lon="11.81727452771816"><ele>650.0</ele><time>2026-03-24T14:47:14.999Z</time></trkpt><trkpt lat="45.992141918638886" lon="11.817428863110626"><ele>650.0</ele><time>2026-03-24T14:47:15.999Z</time></trkpt><trkpt lat="45.992146486314326" lon="11.817584228687057"><ele>650.0</ele><time>2026-03-24T14:47:16.999Z</time></trkpt><trkpt lat="45.99208075951027" lon="11.817716817543088"><ele>650.0</ele><time>2026-03-24T14:47:17.999Z</time></trkpt><trkpt lat="45.992025971809376" lon="11.817847314411946"><ele>650.0</ele><time>2026-03-24T14:47:18.999Z</time></trkpt><trkpt lat="45.991998673445096" lon="11.81797786517856"><ele>650.0</ele><time>2026-03-24T14:47:19.999Z</time></trkpt><trkpt lat="45.9919874020657" lon="11.818089704457512"><ele>650.0</ele><time>2026-03-24T14:47:20.999Z</time></trkpt><trkpt lat="45.992010699012816" lon="11.818189162177916"><ele>650.0</ele><time>2026-03-24T14:47:21.999Z</time></trkpt><trkpt lat="45.99207748197466" lon="11.818317501676466"><ele>650.0</ele><time>2026-03-24T14:47:22.999Z</time></trkpt><trkpt lat="45.99212808808685" lon="11.818421929133098"><ele>650.0</ele><time>2026-03-24T14:47:23.999Z</time></trkpt><trkpt lat="45.99219451058435" lon="11.818518985595395"><ele>650.0</ele><time>2026-03-24T14:47:24.999Z</time></trkpt><trkpt lat="45.99231693274097" lon="11.8185197860553"><ele>651.6666666666666</ele><time>2026-03-24T14:47:25.999Z</time></trkpt><trkpt lat="45.9924273637347" lon="11.818581311847158"><ele>653.3333333333334</ele><time>2026-03-24T14:47:26.999Z</time></trkpt><trkpt lat="45.99265571930795" lon="11.81856349563919"><ele>655.0</ele><time>2026-03-24T14:47:27.999Z</time></trkpt><trkpt lat="45.9928010168972" lon="11.818493115437464"><ele>650.25</ele><time>2026-03-24T14:47:28.999Z</time></trkpt><trkpt lat="45.99294870312657" lon="11.818388792926"><ele>645.5</ele><time>2026-03-24T14:47:29.999Z</time></trkpt><trkpt lat="45.99307714144084" lon="11.818327794995477"><ele>640.75</ele><time>2026-03-24T14:47:30.999Z</time></trkpt><trkpt lat="45.99318840683809" lon="11.818314651581815"><ele>636.0</ele><time>2026-03-24T14:47:31.999Z</time></trkpt><trkpt lat="45.993327000659875" lon="11.818310617507898"><ele>630.5</ele><time>2026-03-24T14:47:32.999Z</time></trkpt><trkpt lat="45.99349282264187" lon="11.818358260466873"><ele>625.0</ele><time>2026-03-24T14:47:33.999Z</time></trkpt><trkpt lat="45.993560530513435" lon="11.818307649285817"><ele>619.5</ele><time>2026-03-24T14:47:34.999Z</time></trkpt><trkpt lat="45.993664913576715" lon="11.818338238057363"><ele>614.0</ele><time>2026-03-24T14:47:35.999Z</time></trkpt><trkpt lat="45.9937582645243" lon="11.818414560571961"><ele>616.5</ele><time>2026-03-24T14:47:36.999Z</time></trkpt><trkpt lat="45.99385381049366" lon="11.818523679769621"><ele>619.0</ele><time>2026-03-24T14:47:37.999Z</time></trkpt><trkpt lat="45.99395452190674" lon="11.818696694082387"><ele>621.5</ele><time>2026-03-24T14:47:38.999Z</time></trkpt><trkpt lat="45.99403644429136" lon="11.818847112866298"><ele>624.0</ele><time>2026-03-24T14:47:39.999Z</time></trkpt><trkpt lat="45.99408521081645" lon="11.819026258435084"><ele>624.0</ele><time>2026-03-24T14:47:40.999Z</time></trkpt><trkpt lat="45.994102565428555" lon="11.81922088434427"><ele>624.0</ele><time>2026-03-24T14:47:41.998Z</time></trkpt><trkpt lat="45.99410595018712" lon="11.819415398744647"><ele>624.0</ele><time>2026-03-24T14:47:42.998Z</time></trkpt><trkpt lat="45.994105083674356" lon="11.819636807670513"><ele>624.0</ele><time>2026-03-24T14:47:43.998Z</time></trkpt><trkpt lat="45.9941214685358" lon="11.819859309208756"><ele>624.0</ele><time>2026-03-24T14:47:44.998Z</time></trkpt><trkpt lat="45.9941411652274" lon="11.82012122219724"><ele>624.0</ele><time>2026-03-24T14:47:45.998Z</time></trkpt><trkpt lat="45.99415894223684" lon="11.820406539687301"><ele>624.0</ele><time>2026-03-24T14:47:46.998Z</time></trkpt><trkpt lat="45.99416124330388" lon="11.820704358815085"><ele>622.3333333333334</ele><time>2026-03-24T14:47:47.998Z</time></trkpt><trkpt lat="45.99416100315242" lon="11.82099465096192"><ele>620.6666666666667</ele><time>2026-03-24T14:47:48.998Z</time></trkpt><trkpt lat="45.99416675325732" lon="11.821257259478834"><ele>619.0</ele><time>2026-03-24T14:47:49.998Z</time></trkpt><trkpt lat="45.99416480112433" lon="11.82152156014186"><ele>619.0</ele><time>2026-03-24T14:47:50.998Z</time></trkpt><trkpt lat="45.99416586322455" lon="11.82177867989418"><ele>619.0</ele><time>2026-03-24T14:47:51.998Z</time></trkpt><trkpt lat="45.99418071207141" lon="11.822026521124483"><ele>619.0</ele><time>2026-03-24T14:47:52.998Z</time></trkpt><trkpt lat="45.99419821464554" lon="11.822261168843276"><ele>613.75</ele><time>2026-03-24T14:47:53.998Z</time></trkpt><trkpt lat="45.99422058333818" lon="11.822474953038936"><ele>608.5</ele><time>2026-03-24T14:47:54.998Z</time></trkpt><trkpt lat="45.99423576236692" lon="11.822657571313181"><ele>603.25</ele><time>2026-03-24T14:47:55.998Z</time></trkpt><trkpt lat="45.994179067798136" lon="11.822838428366994"><ele>598.0</ele><time>2026-03-24T14:47:56.998Z</time></trkpt><trkpt lat="45.994116795836234" lon="11.823054423353927"><ele>598.0</ele><time>2026-03-24T14:47:57.998Z</time></trkpt><trkpt lat="45.99404457955995" lon="11.823263379012314"><ele>598.0</ele><time>2026-03-24T14:47:58.998Z</time></trkpt><trkpt lat="45.99395376658752" lon="11.823422534258764"><ele>598.0</ele><time>2026-03-24T14:47:59.998Z</time></trkpt><trkpt lat="45.99386367148031" lon="11.823546322418514"><ele>598.0</ele><time>2026-03-24T14:48:00.998Z</time></trkpt><trkpt lat="45.99379150444963" lon="11.823666960222463"><ele>593.75</ele><time>2026-03-24T14:48:01.998Z</time></trkpt><trkpt lat="45.99375764918599" lon="11.82381189737594"><ele>589.5</ele><time>2026-03-24T14:48:03Z</time></trkpt><trkpt lat="45.99373976210996" lon="11.823978884283648"><ele>585.25</ele><time>2026-03-24T14:48:04Z</time></trkpt><trkpt lat="45.9937376352045" lon="11.824180209992889"><ele>581.0</ele><time>2026-03-24T14:48:05Z</time></trkpt><trkpt lat="45.9936829422187" lon="11.824371117483937"><ele>574.6666666666666</ele><time>2026-03-24T14:48:06Z</time></trkpt><trkpt lat="45.99360232820278" lon="11.824579029660592"><ele>568.3333333333334</ele><time>2026-03-24T14:48:07Z</time></trkpt><trkpt lat="45.9935365717758" lon="11.824767629148974"><ele>562.0</ele><time>2026-03-24T14:48:08Z</time></trkpt><trkpt lat="45.99348794423556" lon="11.824984000328286"><ele>556.25</ele><time>2026-03-24T14:48:09Z</time></trkpt><trkpt lat="45.99343864444145" lon="11.825199077441528"><ele>550.5</ele><time>2026-03-24T14:48:10Z</time></trkpt><trkpt lat="45.99341055154099" lon="11.825402350257994"><ele>544.75</ele><time>2026-03-24T14:48:11Z</time></trkpt><trkpt lat="45.99341303295672" lon="11.825606043958672"><ele>539.0</ele><time>2026-03-24T14:48:12Z</time></trkpt><trkpt lat="45.99340999989429" lon="11.825815878189898"><ele>533.5</ele><time>2026-03-24T14:48:13Z</time></trkpt><trkpt lat="45.993365235728795" lon="11.826004679107958"><ele>528.0</ele><time>2026-03-24T14:48:14Z</time></trkpt><trkpt lat="45.993297201072835" lon="11.82617716922502"><ele>522.5</ele><time>2026-03-24T14:48:15Z</time></trkpt><trkpt lat="45.9932405634297" lon="11.82635204653098"><ele>517.0</ele><time>2026-03-24T14:48:16Z</time></trkpt><trkpt lat="45.993186367798" lon="11.826537480229941"><ele>522.5</ele><time>2026-03-24T14:48:17Z</time></trkpt><trkpt lat="45.993158792313075" lon="11.826714094561652"><ele>528.0</ele><time>2026-03-24T14:48:18Z</time></trkpt><trkpt lat="45.9930791949931" lon="11.826895495964273"><ele>533.5</ele><time>2026-03-24T14:48:19Z</time></trkpt><trkpt lat="45.99298250338207" lon="11.827097555820615"><ele>539.0</ele><time>2026-03-24T14:48:20Z</time></trkpt><trkpt lat="45.99286979616121" lon="11.82732277251965"><ele>539.0</ele><time>2026-03-24T14:48:21Z</time></trkpt><trkpt lat="45.99277687150997" lon="11.827539763735553"><ele>539.0</ele><time>2026-03-24T14:48:22Z</time></trkpt><trkpt lat="45.992716392818735" lon="11.827753867917728"><ele>539.0</ele><time>2026-03-24T14:48:23Z</time></trkpt><trkpt lat="45.99263129579551" lon="11.82795866159166"><ele>541.5</ele><time>2026-03-24T14:48:24Z</time></trkpt><trkpt lat="45.99256855328999" lon="11.828155423164283"><ele>544.0</ele><time>2026-03-24T14:48:25Z</time></trkpt><trkpt lat="45.9924959203691" lon="11.828300720799213"><ele>546.5</ele><time>2026-03-24T14:48:26Z</time></trkpt><trkpt lat="45.99242824941045" lon="11.828425742063255"><ele>549.0</ele><time>2026-03-24T14:48:27Z</time></trkpt><trkpt lat="45.9923834690125" lon="11.828555560882904"><ele>549.0</ele><time>2026-03-24T14:48:28Z</time></trkpt><trkpt lat="45.99237261621502" lon="11.828705795234074"><ele>549.0</ele><time>2026-03-24T14:48:29Z</time></trkpt><trkpt lat="45.99237878284778" lon="11.828864997034556"><ele>549.0</ele><time>2026-03-24T14:48:30Z</time></trkpt><trkpt lat="45.992359156140076" lon="11.829031794004893"><ele>549.0</ele><time>2026-03-24T14:48:31Z</time></trkpt><trkpt lat="45.992315473013534" lon="11.829206554605852"><ele>544.5</ele><time>2026-03-24T14:48:32Z</time></trkpt><trkpt lat="45.992262762622964" lon="11.829382319025699"><ele>540.0</ele><time>2026-03-24T14:48:33Z</time></trkpt><trkpt lat="45.99223531493433" lon="11.829558089726577"><ele>535.5</ele><time>2026-03-24T14:48:34Z</time></trkpt><trkpt lat="45.99223469035569" lon="11.829737784089339"><ele>531.0</ele><time>2026-03-24T14:48:35Z</time></trkpt><trkpt lat="45.99221539226832" lon="11.829901162484903"><ele>531.0</ele><time>2026-03-24T14:48:36Z</time></trkpt><trkpt lat="45.992189725171706" lon="11.830068620611542"><ele>531.0</ele><time>2026-03-24T14:48:37Z</time></trkpt><trkpt lat="45.992145285851365" lon="11.830250878437774"><ele>531.0</ele><time>2026-03-24T14:48:38Z</time></trkpt><trkpt lat="45.992073837366604" lon="11.830443128289417"><ele>531.0</ele><time>2026-03-24T14:48:39Z</time></trkpt><trkpt lat="45.99200125188459" lon="11.830628433388016"><ele>525.75</ele><time>2026-03-24T14:48:40Z</time></trkpt><trkpt lat="45.991949830060676" lon="11.830817015751377"><ele>520.5</ele><time>2026-03-24T14:48:41Z</time></trkpt><trkpt lat="45.99188318648888" lon="11.830984349372793"><ele>515.25</ele><time>2026-03-24T14:48:42Z</time></trkpt><trkpt lat="45.99181976127938" lon="11.8311246816327"><ele>510.0</ele><time>2026-03-24T14:48:43Z</time></trkpt><trkpt lat="45.991741482703844" lon="11.831236339054392"><ele>512.8</ele><time>2026-03-24T14:48:44Z</time></trkpt><trkpt lat="45.991646492814155" lon="11.831321980674641"><ele>515.6</ele><time>2026-03-24T14:48:44.999Z</time></trkpt><trkpt lat="45.99154677814123" lon="11.831381989781173"><ele>518.4</ele><time>2026-03-24T14:48:45.999Z</time></trkpt><trkpt lat="45.99146334084209" lon="11.831432801117357"><ele>521.2</ele><time>2026-03-24T14:48:46.999Z</time></trkpt><trkpt lat="45.99139994143791" lon="11.831476724544514"><ele>524.0</ele><time>2026-03-24T14:48:47.999Z</time></trkpt><trkpt lat="45.99137172819475" lon="11.831634282619348"><ele>524.0</ele><time>2026-03-24T14:48:49.999Z</time></trkpt><trkpt lat="45.991397854587426" lon="11.83174423312169"><ele>524.0</ele><time>2026-03-24T14:48:50.999Z</time></trkpt><trkpt lat="45.991485060778665" lon="11.831779599460688"><ele>524.0</ele><time>2026-03-24T14:48:51.999Z</time></trkpt><trkpt lat="45.99155476483346" lon="11.831740954926053"><ele>524.0</ele><time>2026-03-24T14:48:52.999Z</time></trkpt><trkpt lat="45.99162320417205" lon="11.831649693399973"><ele>524.0</ele><time>2026-03-24T14:48:53.999Z</time></trkpt><trkpt lat="45.991690529241204" lon="11.831529613323658"><ele>524.0</ele><time>2026-03-24T14:48:54.999Z</time></trkpt><trkpt lat="45.99178372943664" lon="11.831408010529511"><ele>520.5</ele><time>2026-03-24T14:48:55.999Z</time></trkpt><trkpt lat="45.99189828968731" lon="11.831288989178102"><ele>517.0</ele><time>2026-03-24T14:48:56.999Z</time></trkpt><trkpt lat="45.99199478757881" lon="11.831165220216596"><ele>513.5</ele><time>2026-03-24T14:48:57.999Z</time></trkpt><trkpt lat="45.99206699119196" lon="11.831039015038028"><ele>510.0</ele><time>2026-03-24T14:48:58.999Z</time></trkpt><trkpt lat="45.99215581395335" lon="11.830940956666335"><ele>510.0</ele><time>2026-03-24T14:48:59.999Z</time></trkpt><trkpt lat="45.992197433396456" lon="11.83078804426274"><ele>510.0</ele><time>2026-03-24T14:49:00.999Z</time></trkpt><trkpt lat="45.9922735479192" lon="11.830683718828114"><ele>510.0</ele><time>2026-03-24T14:49:01.999Z</time></trkpt><trkpt lat="45.992341619751755" lon="11.830567152666601"><ele>510.0</ele><time>2026-03-24T14:49:02.999Z</time></trkpt><trkpt lat="45.99238567598578" lon="11.830429940122825"><ele>510.0</ele><time>2026-03-24T14:49:03.999Z</time></trkpt><trkpt lat="45.992443031232966" lon="11.830282587692857"><ele>515.25</ele><time>2026-03-24T14:49:04.999Z</time></trkpt><trkpt lat="45.99249169189204" lon="11.83010761505719"><ele>520.5</ele><time>2026-03-24T14:49:05.999Z</time></trkpt><trkpt lat="45.99257654114949" lon="11.829940789036696"><ele>525.75</ele><time>2026-03-24T14:49:06.999Z</time></trkpt><trkpt lat="45.99264689784075" lon="11.829757192601736"><ele>531.0</ele><time>2026-03-24T14:49:07.999Z</time></trkpt><trkpt lat="45.99271163660669" lon="11.829568414026522"><ele>521.75</ele><time>2026-03-24T14:49:08.999Z</time></trkpt><trkpt lat="45.99277688943529" lon="11.829403928082739"><ele>512.5</ele><time>2026-03-24T14:49:09.999Z</time></trkpt><trkpt lat="45.99285099698981" lon="11.829250286533947"><ele>503.25</ele><time>2026-03-24T14:49:10.999Z</time></trkpt><trkpt lat="45.99290989400858" lon="11.829080729258969"><ele>494.0</ele><time>2026-03-24T14:49:11.999Z</time></trkpt><trkpt lat="45.99295495679692" lon="11.828938309470523"><ele>494.0</ele><time>2026-03-24T14:49:12.999Z</time></trkpt><trkpt lat="45.99301763241771" lon="11.828811770759856"><ele>494.0</ele><time>2026-03-24T14:49:13.999Z</time></trkpt><trkpt lat="45.99306786348676" lon="11.828730653638269"><ele>494.0</ele><time>2026-03-24T14:49:14.999Z</time></trkpt><trkpt lat="45.99316597687722" lon="11.828638270165031"><ele>494.0</ele><time>2026-03-24T14:49:15.999Z</time></trkpt><trkpt lat="45.993253466005434" lon="11.828539718843192"><ele>494.0</ele><time>2026-03-24T14:49:16.999Z</time></trkpt><trkpt lat="45.99332557621747" lon="11.828409011508528"><ele>487.75</ele><time>2026-03-24T14:49:17.999Z</time></trkpt><trkpt lat="45.99340908007252" lon="11.828291571189666"><ele>481.5</ele><time>2026-03-24T14:49:18.999Z</time></trkpt><trkpt lat="45.993479589864435" lon="11.828145469866302"><ele>475.25</ele><time>2026-03-24T14:49:19.999Z</time></trkpt><trkpt lat="45.99356805351214" lon="11.82800598820364"><ele>469.0</ele><time>2026-03-24T14:49:20.999Z</time></trkpt><trkpt lat="45.993670557996914" lon="11.827869833386092"><ele>469.0</ele><time>2026-03-24T14:49:21.999Z</time></trkpt><trkpt lat="45.993765648097344" lon="11.827729074190307"><ele>469.0</ele><time>2026-03-24T14:49:22.999Z</time></trkpt><trkpt lat="45.99385723695678" lon="11.827607752292007"><ele>469.0</ele><time>2026-03-24T14:49:23.999Z</time></trkpt><trkpt lat="45.993953482231156" lon="11.827495313314122"><ele>469.0</ele><time>2026-03-24T14:49:24.999Z</time></trkpt><trkpt lat="45.9940282386062" lon="11.82736762847357"><ele>467.75</ele><time>2026-03-24T14:49:25.999Z</time></trkpt><trkpt lat="45.994091530379855" lon="11.8272219098412"><ele>466.5</ele><time>2026-03-24T14:49:26.999Z</time></trkpt><trkpt lat="45.99415163352467" lon="11.827025640430014"><ele>465.25</ele><time>2026-03-24T14:49:27.999Z</time></trkpt><trkpt lat="45.99424318644258" lon="11.826872218673017"><ele>464.0</ele><time>2026-03-24T14:49:28.999Z</time></trkpt><trkpt lat="45.9943480921269" lon="11.826712072815804"><ele>464.0</ele><time>2026-03-24T14:49:29.999Z</time></trkpt><trkpt lat="45.99445252218993" lon="11.826524146184166"><ele>464.0</ele><time>2026-03-24T14:49:30.999Z</time></trkpt><trkpt lat="45.99454309660148" lon="11.826357587795506"><ele>464.0</ele><time>2026-03-24T14:49:31.999Z</time></trkpt><trkpt lat="45.99463032758373" lon="11.826218715290045"><ele>464.0</ele><time>2026-03-24T14:49:32.999Z</time></trkpt><trkpt lat="45.994699594128235" lon="11.826089550062758"><ele>468.2</ele><time>2026-03-24T14:49:33.999Z</time></trkpt><trkpt lat="45.994780034133875" lon="11.825960697645176"><ele>472.4</ele><time>2026-03-24T14:49:34.999Z</time></trkpt><trkpt lat="45.99484921114925" lon="11.825851916355576"><ele>476.6</ele><time>2026-03-24T14:49:35.999Z</time></trkpt><trkpt lat="45.994907562753426" lon="11.825727657723176"><ele>480.8</ele><time>2026-03-24T14:49:36.999Z</time></trkpt><trkpt lat="45.99496857636671" lon="11.825579793221705"><ele>485.0</ele><time>2026-03-24T14:49:37.999Z</time></trkpt><trkpt lat="45.995007667894015" lon="11.82534296806959"><ele>473.25</ele><time>2026-03-24T14:49:38.999Z</time></trkpt><trkpt lat="45.995041064144864" lon="11.825176468633543"><ele>461.5</ele><time>2026-03-24T14:49:39.999Z</time></trkpt><trkpt lat="45.9950786878145" lon="11.825029899605344"><ele>449.75</ele><time>2026-03-24T14:49:40.999Z</time></trkpt><trkpt lat="45.99513120309068" lon="11.824876617095834"><ele>438.0</ele><time>2026-03-24T14:49:41.999Z</time></trkpt><trkpt lat="45.9952073205846" lon="11.824715915714156"><ele>438.0</ele><time>2026-03-24T14:49:42.999Z</time></trkpt><trkpt lat="45.99531208956758" lon="11.824523784155692"><ele>438.0</ele><time>2026-03-24T14:49:43.999Z</time></trkpt><trkpt lat="45.99541729227873" lon="11.824371804396549"><ele>438.0</ele><time>2026-03-24T14:49:44.999Z</time></trkpt><trkpt lat="45.99551739358792" lon="11.824189255871364"><ele>442.5</ele><time>2026-03-24T14:49:45.999Z</time></trkpt><trkpt lat="45.9956091864666" lon="11.824034731027979"><ele>447.0</ele><time>2026-03-24T14:49:46.999Z</time></trkpt><trkpt lat="45.99566972092338" lon="11.82387799873951"><ele>451.5</ele><time>2026-03-24T14:49:47.999Z</time></trkpt><trkpt lat="45.99572027229393" lon="11.823652626373779"><ele>456.0</ele><time>2026-03-24T14:49:48.999Z</time></trkpt><trkpt lat="45.99579914814798" lon="11.823436101154842"><ele>445.66666666666663</ele><time>2026-03-24T14:49:49.999Z</time></trkpt><trkpt lat="45.99588443687702" lon="11.823210021679905"><ele>435.3333333333333</ele><time>2026-03-24T14:49:50.999Z</time></trkpt><trkpt lat="45.995977529530954" lon="11.822989816924984"><ele>425.0</ele><time>2026-03-24T14:49:51.999Z</time></trkpt><trkpt lat="45.996064632833836" lon="11.82279524571965"><ele>430.66666666666663</ele><time>2026-03-24T14:49:52.998Z</time></trkpt><trkpt lat="45.99616716055622" lon="11.822591584716015"><ele>436.33333333333337</ele><time>2026-03-24T14:49:53.998Z</time></trkpt><trkpt lat="45.99625391978247" lon="11.822419246185895"><ele>442.0</ele><time>2026-03-24T14:49:54.998Z</time></trkpt><trkpt lat="45.99634743122981" lon="11.822269563671679"><ele>442.0</ele><time>2026-03-24T14:49:55.998Z</time></trkpt><trkpt lat="45.99639397184029" lon="11.822104988428844"><ele>442.0</ele><time>2026-03-24T14:49:56.998Z</time></trkpt><trkpt lat="45.9964957647963" lon="11.822015651184145"><ele>442.0</ele><time>2026-03-24T14:49:57.998Z</time></trkpt><trkpt lat="45.9965773148057" lon="11.821944581364743"><ele>442.0</ele><time>2026-03-24T14:49:58.998Z</time></trkpt><trkpt lat="45.996661282505364" lon="11.82183428219791"><ele>436.25</ele><time>2026-03-24T14:49:59.998Z</time></trkpt><trkpt lat="45.996755343196725" lon="11.821676827436864"><ele>430.5</ele><time>2026-03-24T14:50:00.998Z</time></trkpt><trkpt lat="45.996869208585174" lon="11.821542296396704"><ele>424.75</ele><time>2026-03-24T14:50:01.998Z</time></trkpt><trkpt lat="45.99693939137001" lon="11.821369177447046"><ele>419.0</ele><time>2026-03-24T14:50:02.998Z</time></trkpt><trkpt lat="45.99699207067066" lon="11.821226016947554"><ele>419.0</ele><time>2026-03-24T14:50:03.998Z</time></trkpt><trkpt lat="45.997036064437445" lon="11.821053764341775"><ele>419.0</ele><time>2026-03-24T14:50:04.998Z</time></trkpt><trkpt lat="45.99704725929441" lon="11.820854837063074"><ele>419.0</ele><time>2026-03-24T14:50:05.998Z</time></trkpt><trkpt lat="45.99706699402005" lon="11.82070977637365"><ele>419.0</ele><time>2026-03-24T14:50:06.998Z</time></trkpt><trkpt lat="45.997081620627355" lon="11.820572009185868"><ele>421.16666666666663</ele><time>2026-03-24T14:50:07.998Z</time></trkpt><trkpt lat="45.997106977337275" lon="11.820456638830114"><ele>423.3333333333333</ele><time>2026-03-24T14:50:09Z</time></trkpt><trkpt lat="45.99711964166963" lon="11.82036395942211"><ele>425.5</ele><time>2026-03-24T14:50:10Z</time></trkpt><trkpt lat="45.99718304976334" lon="11.820292846756235"><ele>427.66666666666663</ele><time>2026-03-24T14:50:12Z</time></trkpt><trkpt lat="45.99727874334253" lon="11.820412127757036"><ele>429.8333333333333</ele><time>2026-03-24T14:50:14Z</time></trkpt><trkpt lat="45.997312060947976" lon="11.82050881301421"><ele>432.0</ele><time>2026-03-24T14:50:15Z</time></trkpt><trkpt lat="45.99719264875731" lon="11.820663799832897"><ele>432.0</ele><time>2026-03-24T14:50:16Z</time></trkpt><trkpt lat="45.99719050178348" lon="11.820877607331177"><ele>432.0</ele><time>2026-03-24T14:50:17Z</time></trkpt><trkpt lat="45.99721127520624" lon="11.821091442381764"><ele>432.0</ele><time>2026-03-24T14:50:18Z</time></trkpt><trkpt lat="45.997212731595944" lon="11.82126986758205"><ele>432.0</ele><time>2026-03-24T14:50:19Z</time></trkpt><trkpt lat="45.99717876887109" lon="11.821446748664483"><ele>428.75</ele><time>2026-03-24T14:50:20Z</time></trkpt><trkpt lat="45.997108596419366" lon="11.821596247755743"><ele>425.5</ele><time>2026-03-24T14:50:21Z</time></trkpt><trkpt lat="45.997031625047214" lon="11.821748845640554"><ele>422.25</ele><time>2026-03-24T14:50:22Z</time></trkpt><trkpt lat="45.996969460777976" lon="11.821908315361977"><ele>419.0</ele><time>2026-03-24T14:50:23Z</time></trkpt><trkpt lat="45.996904623946676" lon="11.822065194513655"><ele>413.0</ele><time>2026-03-24T14:50:24Z</time></trkpt><trkpt lat="45.99684088548274" lon="11.822248047955837"><ele>407.0</ele><time>2026-03-24T14:50:25Z</time></trkpt><trkpt lat="45.99677962118608" lon="11.822454010602252"><ele>401.0</ele><time>2026-03-24T14:50:26Z</time></trkpt><trkpt lat="45.996734691575654" lon="11.822669529349831"><ele>409.0</ele><time>2026-03-24T14:50:27Z</time></trkpt><trkpt lat="45.996688187568786" lon="11.822907733590213"><ele>417.0</ele><time>2026-03-24T14:50:28Z</time></trkpt><trkpt lat="45.99662973071029" lon="11.82313535018631"><ele>425.0</ele><time>2026-03-24T14:50:29Z</time></trkpt><trkpt lat="45.996567036068896" lon="11.823313597405042"><ele>419.5</ele><time>2026-03-24T14:50:30Z</time></trkpt><trkpt lat="45.99653884100278" lon="11.823517166500176"><ele>414.0</ele><time>2026-03-24T14:50:31Z</time></trkpt><trkpt lat="45.99652703685277" lon="11.823722831046709"><ele>408.5</ele><time>2026-03-24T14:50:32Z</time></trkpt><trkpt lat="45.99647613662018" lon="11.823899640279041"><ele>403.0</ele><time>2026-03-24T14:50:33Z</time></trkpt><trkpt lat="45.99639929817619" lon="11.824080548344424"><ele>403.0</ele><time>2026-03-24T14:50:34Z</time></trkpt><trkpt lat="45.99633848758056" lon="11.824291704393843"><ele>403.0</ele><time>2026-03-24T14:50:35Z</time></trkpt><trkpt lat="45.99625343424991" lon="11.824503418887344"><ele>403.0</ele><time>2026-03-24T14:50:36Z</time></trkpt><trkpt lat="45.99617081450384" lon="11.824733254523489"><ele>395.33333333333337</ele><time>2026-03-24T14:50:37Z</time></trkpt><trkpt lat="45.99610691795035" lon="11.824951087967747"><ele>387.6666666666667</ele><time>2026-03-24T14:50:38Z</time></trkpt><trkpt lat="45.99604084202348" lon="11.825184155840867"><ele>380.0</ele><time>2026-03-24T14:50:39Z</time></trkpt><trkpt lat="45.99599086279652" lon="11.82540289274918"><ele>374.6666666666667</ele><time>2026-03-24T14:50:40Z</time></trkpt><trkpt lat="45.995961270775176" lon="11.82564094389463"><ele>369.3333333333333</ele><time>2026-03-24T14:50:41Z</time></trkpt><trkpt lat="45.99593544286148" lon="11.825904149122174"><ele>364.0</ele><time>2026-03-24T14:50:42Z</time></trkpt><trkpt lat="45.995912180478655" lon="11.826179999193425"><ele>359.0</ele><time>2026-03-24T14:50:43Z</time></trkpt><trkpt lat="45.9958875022943" lon="11.826429941810567"><ele>354.0</ele><time>2026-03-24T14:50:44Z</time></trkpt><trkpt lat="45.995812584179795" lon="11.826656875386675"><ele>349.0</ele><time>2026-03-24T14:50:45Z</time></trkpt><trkpt lat="45.99576437736216" lon="11.826870288108074"><ele>357.0</ele><time>2026-03-24T14:50:46Z</time></trkpt><trkpt lat="45.995730286993066" lon="11.827086609704478"><ele>365.0</ele><time>2026-03-24T14:50:47Z</time></trkpt><trkpt lat="45.99568727537005" lon="11.827277578353744"><ele>373.0</ele><time>2026-03-24T14:50:48Z</time></trkpt><trkpt lat="45.995623701827284" lon="11.827456302346535"><ele>381.0</ele><time>2026-03-24T14:50:49Z</time></trkpt><trkpt lat="45.995549164535255" lon="11.827639089290868"><ele>373.6666666666667</ele><time>2026-03-24T14:50:50Z</time></trkpt><trkpt lat="45.99546649385197" lon="11.82784548663798"><ele>366.33333333333337</ele><time>2026-03-24T14:50:51Z</time></trkpt><trkpt lat="45.99538663225808" lon="11.82805196516046"><ele>359.0</ele><time>2026-03-24T14:50:52Z</time></trkpt><trkpt lat="45.99531541310088" lon="11.82829152844252"><ele>354.33333333333337</ele><time>2026-03-24T14:50:53Z</time></trkpt><trkpt lat="45.99526029477811" lon="11.82854456746757"><ele>349.6666666666667</ele><time>2026-03-24T14:50:54Z</time></trkpt><trkpt lat="45.99517297883448" lon="11.82884544111914"><ele>345.0</ele><time>2026-03-24T14:50:54.999Z</time></trkpt><trkpt lat="45.995108378647046" lon="11.829125641228355"><ele>341.0</ele><time>2026-03-24T14:50:55.999Z</time></trkpt><trkpt lat="45.99505075721194" lon="11.829362555023383"><ele>337.0</ele><time>2026-03-24T14:50:56.999Z</time></trkpt><trkpt lat="45.99499838883788" lon="11.829629991926836"><ele>333.0</ele><time>2026-03-24T14:50:57.999Z</time></trkpt><trkpt lat="45.994940566621295" lon="11.829873703234243"><ele>336.25</ele><time>2026-03-24T14:50:58.999Z</time></trkpt><trkpt lat="45.9949047409397" lon="11.830063708322596"><ele>339.5</ele><time>2026-03-24T14:50:59.999Z</time></trkpt><trkpt lat="45.99490669866368" lon="11.830272036524965"><ele>342.75</ele><time>2026-03-24T14:51:00.999Z</time></trkpt><trkpt lat="45.99486920418393" lon="11.830465899102661"><ele>346.0</ele><time>2026-03-24T14:51:01.999Z</time></trkpt><trkpt lat="45.994807636776336" lon="11.830630198331452"><ele>346.0</ele><time>2026-03-24T14:51:02.999Z</time></trkpt><trkpt lat="45.9947304967026" lon="11.830795137199184"><ele>346.0</ele><time>2026-03-24T14:51:03.999Z</time></trkpt><trkpt lat="45.9946591254316" lon="11.830965426628287"><ele>346.0</ele><time>2026-03-24T14:51:04.999Z</time></trkpt><trkpt lat="45.99459001822852" lon="11.83115099488665"><ele>346.0</ele><time>2026-03-24T14:51:05.999Z</time></trkpt><trkpt lat="45.994533849228254" lon="11.83132953970289"><ele>342.0</ele><time>2026-03-24T14:51:06.999Z</time></trkpt><trkpt lat="45.99452430765292" lon="11.831536795454417"><ele>338.0</ele><time>2026-03-24T14:51:07.999Z</time></trkpt><trkpt lat="45.994511397079634" lon="11.831762599084978"><ele>334.0</ele><time>2026-03-24T14:51:08.999Z</time></trkpt><trkpt lat="45.99451661222223" lon="11.831993451927996"><ele>333.0</ele><time>2026-03-24T14:51:09.999Z</time></trkpt><trkpt lat="45.99450736311492" lon="11.832222980733102"><ele>332.0</ele><time>2026-03-24T14:51:10.999Z</time></trkpt><trkpt lat="45.99443491337855" lon="11.832482359884098"><ele>331.0</ele><time>2026-03-24T14:51:11.999Z</time></trkpt><trkpt lat="45.99437328084827" lon="11.832766330134454"><ele>331.0</ele><time>2026-03-24T14:51:12.999Z</time></trkpt><trkpt lat="45.99431733849464" lon="11.832995697729336"><ele>331.0</ele><time>2026-03-24T14:51:13.999Z</time></trkpt><trkpt lat="45.99424618683813" lon="11.833241235075615"><ele>331.0</ele><time>2026-03-24T14:51:14.999Z</time></trkpt><trkpt lat="45.99420994972115" lon="11.833459232532897"><ele>330.75</ele><time>2026-03-24T14:51:15.999Z</time></trkpt><trkpt lat="45.99417388211583" lon="11.833647488193456"><ele>330.5</ele><time>2026-03-24T14:51:16.999Z</time></trkpt><trkpt lat="45.99414754478312" lon="11.833817120088057"><ele>330.25</ele><time>2026-03-24T14:51:17.999Z</time></trkpt><trkpt lat="45.994112384639294" lon="11.833984163630534"><ele>330.0</ele><time>2026-03-24T14:51:18.999Z</time></trkpt><trkpt lat="45.99411414122391" lon="11.834142120008048"><ele>331.4</ele><time>2026-03-24T14:51:19.999Z</time></trkpt><trkpt lat="45.994124463942434" lon="11.834290932288953"><ele>332.8</ele><time>2026-03-24T14:51:20.999Z</time></trkpt><trkpt lat="45.99412730211996" lon="11.834431090060543"><ele>334.20000000000005</ele><time>2026-03-24T14:51:21.999Z</time></trkpt><trkpt lat="45.99412717940305" lon="11.834548671927315"><ele>335.6</ele><time>2026-03-24T14:51:22.999Z</time></trkpt><trkpt lat="45.99413589205137" lon="11.834688845199118"><ele>337.0</ele><time>2026-03-24T14:51:23.999Z</time></trkpt><trkpt lat="45.99413025474882" lon="11.834819532252963"><ele>337.0</ele><time>2026-03-24T14:51:24.999Z</time></trkpt><trkpt lat="45.99413019443088" lon="11.834940152979334"><ele>337.0</ele><time>2026-03-24T14:51:25.999Z</time></trkpt><trkpt lat="45.9941191663444" lon="11.83505307367529"><ele>337.0</ele><time>2026-03-24T14:51:26.999Z</time></trkpt><trkpt lat="45.99410734118015" lon="11.835157056970145"><ele>337.0</ele><time>2026-03-24T14:51:27.999Z</time></trkpt><trkpt lat="45.994098733375" lon="11.83526107340593"><ele>337.0</ele><time>2026-03-24T14:51:28.999Z</time></trkpt><trkpt lat="45.99408430029158" lon="11.835377426468195"><ele>337.0</ele><time>2026-03-24T14:51:29.999Z</time></trkpt><trkpt lat="45.99409325684844" lon="11.835489080773927"><ele>336.8333333333333</ele><time>2026-03-24T14:51:30.999Z</time></trkpt><trkpt lat="45.99413507512846" lon="11.835566885582404"><ele>336.66666666666663</ele><time>2026-03-24T14:51:31.999Z</time></trkpt><trkpt lat="45.99421534614957" lon="11.835698765454914"><ele>336.5</ele><time>2026-03-24T14:51:33.999Z</time></trkpt><trkpt lat="45.99430065114921" lon="11.835671077858292"><ele>336.3333333333333</ele><time>2026-03-24T14:51:35.999Z</time></trkpt><trkpt lat="45.99437092112167" lon="11.83569038606361"><ele>336.1666666666667</ele><time>2026-03-24T14:51:36.999Z</time></trkpt><trkpt lat="45.99445230295095" lon="11.835704530192114"><ele>336.0</ele><time>2026-03-24T14:51:37.999Z</time></trkpt><trkpt lat="45.99455165783853" lon="11.835734271415976"><ele>335.75</ele><time>2026-03-24T14:51:38.999Z</time></trkpt><trkpt lat="45.994663390022815" lon="11.835769207683185"><ele>335.5</ele><time>2026-03-24T14:51:39.999Z</time></trkpt><trkpt lat="45.99477304445664" lon="11.835776920034409"><ele>335.25</ele><time>2026-03-24T14:51:40.999Z</time></trkpt><trkpt lat="45.99489180486259" lon="11.835798123479234"><ele>335.0</ele><time>2026-03-24T14:51:41.999Z</time></trkpt><trkpt lat="45.995018114039475" lon="11.83579826609451"><ele>335.0</ele><time>2026-03-24T14:51:42.999Z</time></trkpt><trkpt lat="45.99514556181975" lon="11.835815134470497"><ele>335.0</ele><time>2026-03-24T14:51:43.999Z</time></trkpt><trkpt lat="45.995259834569644" lon="11.83585821014892"><ele>335.0</ele><time>2026-03-24T14:51:44.999Z</time></trkpt><trkpt lat="45.99536858148648" lon="11.835879933431118"><ele>335.0</ele><time>2026-03-24T14:51:45.999Z</time></trkpt><trkpt lat="45.99545628326571" lon="11.83589745272838"><ele>335.0</ele><time>2026-03-24T14:51:46.999Z</time></trkpt><trkpt lat="45.99554656304569" lon="11.835915486921134"><ele>335.0</ele><time>2026-03-24T14:51:47.999Z</time></trkpt><trkpt lat="45.99563203817223" lon="11.835924972968048"><ele>335.0</ele><time>2026-03-24T14:51:48.999Z</time></trkpt><trkpt lat="45.99570830039132" lon="11.835897915089133"><ele>335.0</ele><time>2026-03-24T14:51:49.999Z</time></trkpt><trkpt lat="45.99577403807503" lon="11.835888747488935"><ele>335.0</ele><time>2026-03-24T14:51:50.999Z</time></trkpt><trkpt lat="45.995878161943835" lon="11.835885878667808"><ele>335.0</ele><time>2026-03-24T14:51:52.999Z</time></trkpt><trkpt lat="45.99597511633891" lon="11.83591685767135"><ele>335.0</ele><time>2026-03-24T14:51:54.999Z</time></trkpt><trkpt lat="45.99601359126047" lon="11.836112722546165"><ele>334.0</ele><time>2026-03-24T14:51:56.999Z</time></trkpt><trkpt lat="45.9960112985259" lon="11.836205439603903"><ele>333.0</ele><time>2026-03-24T14:51:57.999Z</time></trkpt><trkpt lat="45.996061002868366" lon="11.836321370462802"><ele>332.0</ele><time>2026-03-24T14:51:58.999Z</time></trkpt><trkpt lat="45.99612517662123" lon="11.83644255999711"><ele>331.0</ele><time>2026-03-24T14:51:59.999Z</time></trkpt><trkpt lat="45.996162590185165" lon="11.836567334330791"><ele>330.0</ele><time>2026-03-24T14:52:00.999Z</time></trkpt><trkpt lat="45.9961922550002" lon="11.836715852673434"><ele>330.0</ele><time>2026-03-24T14:52:01.999Z</time></trkpt><trkpt lat="45.99623907441346" lon="11.83686664858222"><ele>330.0</ele><time>2026-03-24T14:52:02.998Z</time></trkpt><trkpt lat="45.996292263543154" lon="11.837019261334946"><ele>330.0</ele><time>2026-03-24T14:52:03.998Z</time></trkpt><trkpt lat="45.99635911550583" lon="11.837167933451953"><ele>330.0</ele><time>2026-03-24T14:52:04.998Z</time></trkpt><trkpt lat="45.996444908422454" lon="11.837297938829682"><ele>330.0</ele><time>2026-03-24T14:52:05.998Z</time></trkpt><trkpt lat="45.996542462574254" lon="11.837401491729024"><ele>330.0</ele><time>2026-03-24T14:52:06.998Z</time></trkpt><trkpt lat="45.99665572305002" lon="11.837497926726837"><ele>330.0</ele><time>2026-03-24T14:52:07.998Z</time></trkpt><trkpt lat="45.996761238464565" lon="11.837599030749578"><ele>330.0</ele><time>2026-03-24T14:52:08.998Z</time></trkpt><trkpt lat="45.99687063669893" lon="11.837705445168773"><ele>329.3333333333333</ele><time>2026-03-24T14:52:09.998Z</time></trkpt><trkpt lat="45.99700986270188" lon="11.837770287753644"><ele>328.66666666666663</ele><time>2026-03-24T14:52:10.998Z</time></trkpt><trkpt lat="45.997167656224605" lon="11.837807497183974"><ele>328.0</ele><time>2026-03-24T14:52:11.998Z</time></trkpt><trkpt lat="45.99732279614858" lon="11.837861749095552"><ele>328.0</ele><time>2026-03-24T14:52:12.998Z</time></trkpt><trkpt lat="45.9974791786368" lon="11.837940031593963"><ele>328.0</ele><time>2026-03-24T14:52:13.998Z</time></trkpt><trkpt lat="45.99763167665591" lon="11.838047089669903"><ele>328.0</ele><time>2026-03-24T14:52:15Z</time></trkpt><trkpt lat="45.99778191819646" lon="11.838151439248138"><ele>327.3333333333333</ele><time>2026-03-24T14:52:16Z</time></trkpt><trkpt lat="45.99792374676562" lon="11.838268271770076"><ele>326.6666666666667</ele><time>2026-03-24T14:52:17Z</time></trkpt><trkpt lat="45.998068468447876" lon="11.8384000901079"><ele>326.0</ele><time>2026-03-24T14:52:18Z</time></trkpt><trkpt lat="45.99819989653153" lon="11.838520924805415"><ele>325.75</ele><time>2026-03-24T14:52:19Z</time></trkpt><trkpt lat="45.998316666385286" lon="11.838639265473171"><ele>325.5</ele><time>2026-03-24T14:52:20Z</time></trkpt><trkpt lat="45.99841810099402" lon="11.838751641515186"><ele>325.25</ele><time>2026-03-24T14:52:21Z</time></trkpt><trkpt lat="45.99851399349204" lon="11.838857647489219"><ele>325.0</ele><time>2026-03-24T14:52:22Z</time></trkpt><trkpt lat="45.998610589793316" lon="11.83894613318151"><ele>324.5</ele><time>2026-03-24T14:52:23Z</time></trkpt><trkpt lat="45.99870510742225" lon="11.839024108544981"><ele>324.0</ele><time>2026-03-24T14:52:24Z</time></trkpt><trkpt lat="45.99879168823261" lon="11.83912251635176"><ele>323.5</ele><time>2026-03-24T14:52:25Z</time></trkpt><trkpt lat="45.99891143594283" lon="11.839185139317568"><ele>323.0</ele><time>2026-03-24T14:52:26Z</time></trkpt><trkpt lat="45.99902864828841" lon="11.83925793163094"><ele>323.0</ele><time>2026-03-24T14:52:27Z</time></trkpt><trkpt lat="45.99916611740734" lon="11.839296304992049"><ele>323.0</ele><time>2026-03-24T14:52:28Z</time></trkpt><trkpt lat="45.999297363951946" lon="11.83930793977855"><ele>323.0</ele><time>2026-03-24T14:52:29Z</time></trkpt><trkpt lat="45.99944877093587" lon="11.839295074739043"><ele>323.0</ele><time>2026-03-24T14:52:30Z</time></trkpt><trkpt lat="45.99960160770511" lon="11.839258640026623"><ele>323.25</ele><time>2026-03-24T14:52:31Z</time></trkpt><trkpt lat="45.999770911466776" lon="11.839240111353162"><ele>323.5</ele><time>2026-03-24T14:52:32Z</time></trkpt><trkpt lat="45.999923728013265" lon="11.839251921611812"><ele>323.75</ele><time>2026-03-24T14:52:33Z</time></trkpt><trkpt lat="46.00002903819241" lon="11.839260243642563"><ele>324.0</ele><time>2026-03-24T14:52:34Z</time></trkpt><trkpt lat="46.00015712178583" lon="11.839278033878589"><ele>324.0</ele><time>2026-03-24T14:52:35Z</time></trkpt><trkpt lat="46.00029781243101" lon="11.839353878438677"><ele>324.0</ele><time>2026-03-24T14:52:36Z</time></trkpt><trkpt lat="46.0004209630316" lon="11.839439678501577"><ele>324.0</ele><time>2026-03-24T14:52:37Z</time></trkpt><trkpt lat="46.00055941206262" lon="11.839522391611348"><ele>324.0</ele><time>2026-03-24T14:52:38Z</time></trkpt><trkpt lat="46.000697569484444" lon="11.839610552227294"><ele>323.3333333333333</ele><time>2026-03-24T14:52:39Z</time></trkpt><trkpt lat="46.00084918317241" lon="11.839721423213723"><ele>322.66666666666663</ele><time>2026-03-24T14:52:40Z</time></trkpt><trkpt lat="46.00100630793774" lon="11.839849004896452"><ele>322.0</ele><time>2026-03-24T14:52:41Z</time></trkpt><trkpt lat="46.00116667587097" lon="11.839994849352886"><ele>322.0</ele><time>2026-03-24T14:52:42Z</time></trkpt><trkpt lat="46.001324998714516" lon="11.84012293610945"><ele>322.0</ele><time>2026-03-24T14:52:43Z</time></trkpt><trkpt lat="46.0014868665942" lon="11.840281154578761"><ele>322.0</ele><time>2026-03-24T14:52:44Z</time></trkpt><trkpt lat="46.001608766264724" lon="11.840324551929731"><ele>321.25</ele><time>2026-03-24T14:52:45Z</time></trkpt><trkpt lat="46.00173090064079" lon="11.840409134994268"><ele>320.5</ele><time>2026-03-24T14:52:46Z</time></trkpt><trkpt lat="46.00184481640606" lon="11.840517516757481"><ele>319.75</ele><time>2026-03-24T14:52:47Z</time></trkpt><trkpt lat="46.00196923188506" lon="11.840619303555481"><ele>319.0</ele><time>2026-03-24T14:52:48Z</time></trkpt><trkpt lat="46.00209688215083" lon="11.840721200222225"><ele>319.0</ele><time>2026-03-24T14:52:49Z</time></trkpt><trkpt lat="46.00222293160328" lon="11.840822616699011"><ele>319.0</ele><time>2026-03-24T14:52:50Z</time></trkpt><trkpt lat="46.0023482186784" lon="11.840918062555392"><ele>319.0</ele><time>2026-03-24T14:52:51Z</time></trkpt><trkpt lat="46.002459643599906" lon="11.84100574408212"><ele>319.0</ele><time>2026-03-24T14:52:52Z</time></trkpt><trkpt lat="46.00256155012896" lon="11.841092382715894"><ele>319.4</ele><time>2026-03-24T14:52:53Z</time></trkpt><trkpt lat="46.00265571744036" lon="11.84117085991395"><ele>319.79999999999995</ele><time>2026-03-24T14:52:54Z</time></trkpt><trkpt lat="46.002750170308985" lon="11.841249474337694"><ele>320.20000000000005</ele><time>2026-03-24T14:52:55Z</time></trkpt><trkpt lat="46.00282965960623" lon="11.84131101161406"><ele>320.6</ele><time>2026-03-24T14:52:56Z</time></trkpt><trkpt lat="46.0028919304337" lon="11.841360349453192"><ele>321.0</ele><time>2026-03-24T14:52:57Z</time></trkpt><trkpt lat="46.00297929863224" lon="11.841449333311266"><ele>321.0</ele><time>2026-03-24T14:52:59Z</time></trkpt><trkpt lat="46.003041388529724" lon="11.841504305914732"><ele>321.0</ele><time>2026-03-24T14:53:01Z</time></trkpt><trkpt lat="46.003122870742864" lon="11.841537713875416"><ele>321.0</ele><time>2026-03-24T14:53:07.999Z</time></trkpt><trkpt lat="46.00316887775453" lon="11.84144327761431"><ele>321.0</ele><time>2026-03-24T14:53:08.999Z</time></trkpt><trkpt lat="46.00320640833989" lon="11.84133165390809"><ele>321.0</ele><time>2026-03-24T14:53:09.999Z</time></trkpt><trkpt lat="46.00325084855087" lon="11.841196411995988"><ele>321.0</ele><time>2026-03-24T14:53:10.999Z</time></trkpt><trkpt lat="46.00329104691028" lon="11.841061205155983"><ele>320.5</ele><time>2026-03-24T14:53:11.999Z</time></trkpt><trkpt lat="46.00332584965954" lon="11.840912788473343"><ele>320.0</ele><time>2026-03-24T14:53:12.999Z</time></trkpt><trkpt lat="46.00337660866943" lon="11.84074525020772"><ele>319.5</ele><time>2026-03-24T14:53:13.999Z</time></trkpt><trkpt lat="46.00342806255723" lon="11.840565371924876"><ele>319.0</ele><time>2026-03-24T14:53:14.999Z</time></trkpt><trkpt lat="46.00349001401014" lon="11.840377846305596"><ele>319.75</ele><time>2026-03-24T14:53:15.999Z</time></trkpt><trkpt lat="46.00354941278745" lon="11.840197676272345"><ele>320.5</ele><time>2026-03-24T14:53:16.999Z</time></trkpt><trkpt lat="46.00359298951944" lon="11.840032298856341"><ele>321.25</ele><time>2026-03-24T14:53:17.999Z</time></trkpt><trkpt lat="46.003633409377166" lon="11.839879661367457"><ele>322.0</ele><time>2026-03-24T14:53:18.999Z</time></trkpt><trkpt lat="46.00366645350132" lon="11.839737766529627"><ele>322.0</ele><time>2026-03-24T14:53:19.999Z</time></trkpt><trkpt lat="46.003700808140096" lon="11.839617356184055"><ele>322.0</ele><time>2026-03-24T14:53:20.999Z</time></trkpt><trkpt lat="46.00371534637798" lon="11.839487083407699"><ele>322.0</ele><time>2026-03-24T14:53:21.999Z</time></trkpt><trkpt lat="46.00375131469625" lon="11.839357559206903"><ele>322.0</ele><time>2026-03-24T14:53:22.999Z</time></trkpt><trkpt lat="46.00380458784389" lon="11.83923732165807"><ele>322.0</ele><time>2026-03-24T14:53:23.999Z</time></trkpt><trkpt lat="46.00383350881904" lon="11.83909712006877"><ele>321.25</ele><time>2026-03-24T14:53:24.999Z</time></trkpt><trkpt lat="46.003913036298215" lon="11.838963264484084"><ele>320.5</ele><time>2026-03-24T14:53:25.999Z</time></trkpt><trkpt lat="46.00396809476596" lon="11.838807857035578"><ele>319.75</ele><time>2026-03-24T14:53:26.999Z</time></trkpt><trkpt lat="46.004027510605745" lon="11.83863173034483"><ele>319.0</ele><time>2026-03-24T14:53:27.999Z</time></trkpt><trkpt lat="46.004086572427795" lon="11.83843608891583"><ele>318.3333333333333</ele><time>2026-03-24T14:53:28.999Z</time></trkpt><trkpt lat="46.004146565707615" lon="11.838239080914937"><ele>317.6666666666667</ele><time>2026-03-24T14:53:29.999Z</time></trkpt><trkpt lat="46.004206415675704" lon="11.838031559980852"><ele>317.0</ele><time>2026-03-24T14:53:30.999Z</time></trkpt><trkpt lat="46.004273632395375" lon="11.837814323412276"><ele>318.0</ele><time>2026-03-24T14:53:31.999Z</time></trkpt><trkpt lat="46.00433308536468" lon="11.837595401431546"><ele>319.0</ele><time>2026-03-24T14:53:32.999Z</time></trkpt><trkpt lat="46.00440274046888" lon="11.837404344303547"><ele>320.0</ele><time>2026-03-24T14:53:33.999Z</time></trkpt><trkpt lat="46.004475475565656" lon="11.837234359395351"><ele>320.0</ele><time>2026-03-24T14:53:34.999Z</time></trkpt><trkpt lat="46.00455288358828" lon="11.837071237664727"><ele>320.0</ele><time>2026-03-24T14:53:35.999Z</time></trkpt><trkpt lat="46.00464377361723" lon="11.836910375725443"><ele>320.0</ele><time>2026-03-24T14:53:36.999Z</time></trkpt><trkpt lat="46.004748645751604" lon="11.83674973652056"><ele>320.0</ele><time>2026-03-24T14:53:37.999Z</time></trkpt><trkpt lat="46.004850505433254" lon="11.83660459642633"><ele>320.25</ele><time>2026-03-24T14:53:38.999Z</time></trkpt><trkpt lat="46.004946197374196" lon="11.836483126817425"><ele>320.5</ele><time>2026-03-24T14:53:39.999Z</time></trkpt><trkpt lat="46.005026840759164" lon="11.83636610232924"><ele>320.75</ele><time>2026-03-24T14:53:40.999Z</time></trkpt><trkpt lat="46.0051174686039" lon="11.836260257687606"><ele>321.0</ele><time>2026-03-24T14:53:41.999Z</time></trkpt><trkpt lat="46.00520450755318" lon="11.836159747586889"><ele>321.0</ele><time>2026-03-24T14:53:42.999Z</time></trkpt><trkpt lat="46.005291612601916" lon="11.836050858747013"><ele>321.0</ele><time>2026-03-24T14:53:43.999Z</time></trkpt><trkpt lat="46.00538149240943" lon="11.835934563129898"><ele>321.0</ele><time>2026-03-24T14:53:44.999Z</time></trkpt><trkpt lat="46.005468864034995" lon="11.835819504776794"><ele>321.0</ele><time>2026-03-24T14:53:45.999Z</time></trkpt><trkpt lat="46.005551397020746" lon="11.835711278486057"><ele>322.0</ele><time>2026-03-24T14:53:46.999Z</time></trkpt><trkpt lat="46.005636887096834" lon="11.835607697006793"><ele>323.0</ele><time>2026-03-24T14:53:47.999Z</time></trkpt><trkpt lat="46.005717124791374" lon="11.835500355776713"><ele>324.0</ele><time>2026-03-24T14:53:48.999Z</time></trkpt><trkpt lat="46.005802649746045" lon="11.835376976275537"><ele>325.0</ele><time>2026-03-24T14:53:49.999Z</time></trkpt><trkpt lat="46.00587957495146" lon="11.835233256525242"><ele>321.66666666666663</ele><time>2026-03-24T14:53:50.999Z</time></trkpt><trkpt lat="46.00597252064593" lon="11.835077383996849"><ele>318.3333333333333</ele><time>2026-03-24T14:53:51.999Z</time></trkpt><trkpt lat="46.00606386510383" lon="11.83489765228397"><ele>315.0</ele><time>2026-03-24T14:53:52.999Z</time></trkpt><trkpt lat="46.00616831234389" lon="11.834720180138394"><ele>315.0</ele><time>2026-03-24T14:53:53.999Z</time></trkpt><trkpt lat="46.006284808511914" lon="11.834552040248646"><ele>315.0</ele><time>2026-03-24T14:53:54.999Z</time></trkpt><trkpt lat="46.006415750097574" lon="11.834384497330065"><ele>315.0</ele><time>2026-03-24T14:53:55.999Z</time></trkpt><trkpt lat="46.006543330984506" lon="11.834231704217197"><ele>316.75</ele><time>2026-03-24T14:53:56.999Z</time></trkpt><trkpt lat="46.00667448596753" lon="11.834119317547588"><ele>318.5</ele><time>2026-03-24T14:53:57.999Z</time></trkpt><trkpt lat="46.00678825218649" lon="11.833986948914406"><ele>320.25</ele><time>2026-03-24T14:53:58.999Z</time></trkpt><trkpt lat="46.0068944841174" lon="11.833875862535777"><ele>322.0</ele><time>2026-03-24T14:53:59.999Z</time></trkpt><trkpt lat="46.00699720716273" lon="11.833772190553685"><ele>322.0</ele><time>2026-03-24T14:54:00.999Z</time></trkpt><trkpt lat="46.00708977277936" lon="11.833675624133509"><ele>322.0</ele><time>2026-03-24T14:54:01.999Z</time></trkpt><trkpt lat="46.00717814405765" lon="11.83357097136382"><ele>322.0</ele><time>2026-03-24T14:54:02.999Z</time></trkpt><trkpt lat="46.00727282959929" lon="11.833470963921805"><ele>322.0</ele><time>2026-03-24T14:54:03.999Z</time></trkpt><trkpt lat="46.00736484443765" lon="11.833381529326754"><ele>320.5</ele><time>2026-03-24T14:54:04.999Z</time></trkpt><trkpt lat="46.0074500302368" lon="11.833270950629165"><ele>319.0</ele><time>2026-03-24T14:54:05.999Z</time></trkpt><trkpt lat="46.00753636859098" lon="11.833155203063479"><ele>317.5</ele><time>2026-03-24T14:54:06.999Z</time></trkpt><trkpt lat="46.00761640244626" lon="11.83301691501035"><ele>316.0</ele><time>2026-03-24T14:54:07.999Z</time></trkpt><trkpt lat="46.007671032652176" lon="11.83288986171994"><ele>316.0</ele><time>2026-03-24T14:54:08.999Z</time></trkpt><trkpt lat="46.007738852510386" lon="11.832753147926505"><ele>316.0</ele><time>2026-03-24T14:54:09.999Z</time></trkpt><trkpt lat="46.00780203251507" lon="11.832623596774134"><ele>316.0</ele><time>2026-03-24T14:54:10.999Z</time></trkpt><trkpt lat="46.00785866722536" lon="11.832511817397673"><ele>316.0</ele><time>2026-03-24T14:54:11.999Z</time></trkpt><trkpt lat="46.00791578947155" lon="11.83240976977499"><ele>316.0</ele><time>2026-03-24T14:54:12.999Z</time></trkpt><trkpt lat="46.00795033101216" lon="11.832313019030611"><ele>315.3333333333333</ele><time>2026-03-24T14:54:13.998Z</time></trkpt><trkpt lat="46.00799830042256" lon="11.83221234369004"><ele>314.66666666666663</ele><time>2026-03-24T14:54:14.998Z</time></trkpt><trkpt lat="46.008055315076426" lon="11.832130770501859"><ele>314.0</ele><time>2026-03-24T14:54:15.998Z</time></trkpt><trkpt lat="46.00810193762189" lon="11.832045487526623"><ele>313.3333333333333</ele><time>2026-03-24T14:54:16.998Z</time></trkpt><trkpt lat="46.00816360626506" lon="11.831976716024112"><ele>312.6666666666667</ele><time>2026-03-24T14:54:17.998Z</time></trkpt><trkpt lat="46.008223277010366" lon="11.831942269066904"><ele>312.0</ele><time>2026-03-24T14:54:18.998Z</time></trkpt><trkpt lat="46.0083076784081" lon="11.831858980249795"><ele>312.1666666666667</ele><time>2026-03-24T14:54:21Z</time></trkpt><trkpt lat="46.00838504831298" lon="11.83192732052648"><ele>312.3333333333333</ele><time>2026-03-24T14:54:23Z</time></trkpt><trkpt lat="46.008428734200145" lon="11.832076143371765"><ele>312.5</ele><time>2026-03-24T14:54:24Z</time></trkpt><trkpt lat="46.00846043000336" lon="11.832170006337957"><ele>312.66666666666663</ele><time>2026-03-24T14:54:25Z</time></trkpt><trkpt lat="46.00850992147428" lon="11.832247133233874"><ele>312.8333333333333</ele><time>2026-03-24T14:54:26Z</time></trkpt><trkpt lat="46.008566929108724" lon="11.83229212623652"><ele>313.0</ele><time>2026-03-24T14:54:27Z</time></trkpt><trkpt lat="46.00861839523403" lon="11.832347577506555"><ele>313.0</ele><time>2026-03-24T14:54:28Z</time></trkpt><trkpt lat="46.00874003154525" lon="11.832271145797607"><ele>313.0</ele><time>2026-03-24T14:54:30Z</time></trkpt><trkpt lat="46.00878366124031" lon="11.832178876066301"><ele>313.0</ele><time>2026-03-24T14:54:31Z</time></trkpt><trkpt lat="46.008846050699326" lon="11.832092958706165"><ele>313.0</ele><time>2026-03-24T14:54:32Z</time></trkpt><trkpt lat="46.00891590277769" lon="11.831988456709142"><ele>313.0</ele><time>2026-03-24T14:54:33Z</time></trkpt><trkpt lat="46.00898540953604" lon="11.831891001962184"><ele>312.8333333333333</ele><time>2026-03-24T14:54:34Z</time></trkpt><trkpt lat="46.009046440841225" lon="11.831801365923448"><ele>312.66666666666663</ele><time>2026-03-24T14:54:35Z</time></trkpt><trkpt lat="46.009093944450576" lon="11.831740667277586"><ele>312.5</ele><time>2026-03-24T14:54:36Z</time></trkpt><trkpt lat="46.00915234660541" lon="11.831677227999617"><ele>312.3333333333333</ele><time>2026-03-24T14:54:37Z</time></trkpt><trkpt lat="46.009230256506186" lon="11.831649675487233"><ele>312.1666666666667</ele><time>2026-03-24T14:54:38Z</time></trkpt><trkpt lat="46.00931753054392" lon="11.83159211116695"><ele>312.0</ele><time>2026-03-24T14:54:39Z</time></trkpt><trkpt lat="46.00938849775443" lon="11.831522868156364"><ele>312.0</ele><time>2026-03-24T14:54:40Z</time></trkpt><trkpt lat="46.00943566461583" lon="11.831460751147103"><ele>312.0</ele><time>2026-03-24T14:54:41Z</time></trkpt><trkpt lat="46.0095232014893" lon="11.831364790283082"><ele>312.0</ele><time>2026-03-24T14:54:43Z</time></trkpt><trkpt lat="46.00957182022703" lon="11.831295361462079"><ele>312.0</ele><time>2026-03-24T14:54:45Z</time></trkpt><trkpt lat="46.0094969116172" lon="11.831157378972625"><ele>312.0</ele><time>2026-03-24T14:54:47Z</time></trkpt><trkpt lat="46.00944492725201" lon="11.831021925905873"><ele>311.8333333333333</ele><time>2026-03-24T14:54:49Z</time></trkpt><trkpt lat="46.00942517526365" lon="11.830890248003012"><ele>311.6666666666667</ele><time>2026-03-24T14:54:51Z</time></trkpt><trkpt lat="46.00937399567847" lon="11.830823008532947"><ele>311.5</ele><time>2026-03-24T14:54:55Z</time></trkpt><trkpt lat="46.0094564345228" lon="11.830686204594247"><ele>311.33333333333337</ele><time>2026-03-24T14:54:57Z</time></trkpt><trkpt lat="46.00949905890414" lon="11.830599925094294"><ele>311.1666666666667</ele><time>2026-03-24T14:54:58Z</time></trkpt><trkpt lat="46.00954198502506" lon="11.83051303503659"><ele>311.0</ele><time>2026-03-24T14:54:59Z</time></trkpt><trkpt lat="46.00959071731444" lon="11.830415656230524"><ele>311.0</ele><time>2026-03-24T14:55:00Z</time></trkpt><trkpt lat="46.009649203216895" lon="11.830299168761382"><ele>311.0</ele><time>2026-03-24T14:55:01Z</time></trkpt><trkpt lat="46.00969321660838" lon="11.830159644878384"><ele>311.0</ele><time>2026-03-24T14:55:01.999Z</time></trkpt><trkpt lat="46.00973562887432" lon="11.830010411268782"><ele>311.0</ele><time>2026-03-24T14:55:02.999Z</time></trkpt><trkpt lat="46.00977999533447" lon="11.829843369685648"><ele>311.0</ele><time>2026-03-24T14:55:03.999Z</time></trkpt><trkpt lat="46.00980053631498" lon="11.829648574400899"><ele>310.6666666666667</ele><time>2026-03-24T14:55:04.999Z</time></trkpt><trkpt lat="46.00981817573379" lon="11.829436203485589"><ele>310.3333333333333</ele><time>2026-03-24T14:55:05.999Z</time></trkpt><trkpt lat="46.009825288472946" lon="11.829200506956036"><ele>310.0</ele><time>2026-03-24T14:55:06.999Z</time></trkpt><trkpt lat="46.00982994441153" lon="11.829000570058742"><ele>309.25</ele><time>2026-03-24T14:55:07.999Z</time></trkpt><trkpt lat="46.00983712094843" lon="11.828818272404266"><ele>308.5</ele><time>2026-03-24T14:55:08.999Z</time></trkpt><trkpt lat="46.009836554034194" lon="11.828627213805282"><ele>307.75</ele><time>2026-03-24T14:55:09.999Z</time></trkpt><trkpt lat="46.00983838877657" lon="11.828430733172757"><ele>307.0</ele><time>2026-03-24T14:55:10.999Z</time></trkpt><trkpt lat="46.009836819792895" lon="11.828228008185567"><ele>307.0</ele><time>2026-03-24T14:55:11.999Z</time></trkpt><trkpt lat="46.00984108616996" lon="11.827997229629457"><ele>307.0</ele><time>2026-03-24T14:55:12.999Z</time></trkpt><trkpt lat="46.00986855259712" lon="11.827767019423334"><ele>307.0</ele><time>2026-03-24T14:55:13.999Z</time></trkpt><trkpt lat="46.00991093289335" lon="11.827527963697776"><ele>307.0</ele><time>2026-03-24T14:55:14.999Z</time></trkpt><trkpt lat="46.00996846352886" lon="11.827271005728452"><ele>307.0</ele><time>2026-03-24T14:55:15.999Z</time></trkpt><trkpt lat="46.01003258842248" lon="11.82700729369155"><ele>307.0</ele><time>2026-03-24T14:55:16.999Z</time></trkpt><trkpt lat="46.01009951860802" lon="11.826735458267832"><ele>307.0</ele><time>2026-03-24T14:55:17.999Z</time></trkpt><trkpt lat="46.010170216815425" lon="11.826461471924507"><ele>307.0</ele><time>2026-03-24T14:55:18.999Z</time></trkpt><trkpt lat="46.01024299512875" lon="11.82617749797266"><ele>307.0</ele><time>2026-03-24T14:55:19.999Z</time></trkpt><trkpt lat="46.01031568222241" lon="11.825892043867718"><ele>307.0</ele><time>2026-03-24T14:55:20.999Z</time></trkpt><trkpt lat="46.01038045704164" lon="11.825593552776441"><ele>307.0</ele><time>2026-03-24T14:55:21.999Z</time></trkpt><trkpt lat="46.01043431363618" lon="11.825289235505348"><ele>307.0</ele><time>2026-03-24T14:55:22.999Z</time></trkpt><trkpt lat="46.01048849675536" lon="11.824981157919396"><ele>306.3333333333333</ele><time>2026-03-24T14:55:23.999Z</time></trkpt><trkpt lat="46.01053149211994" lon="11.82469539564612"><ele>305.6666666666667</ele><time>2026-03-24T14:55:24.999Z</time></trkpt><trkpt lat="46.01057495147462" lon="11.824426911554012"><ele>305.0</ele><time>2026-03-24T14:55:25.999Z</time></trkpt><trkpt lat="46.010619899386256" lon="11.824180867540086"><ele>305.0</ele><time>2026-03-24T14:55:26.999Z</time></trkpt><trkpt lat="46.010661133443264" lon="11.8239459606392"><ele>305.0</ele><time>2026-03-24T14:55:27.999Z</time></trkpt><trkpt lat="46.01069460441862" lon="11.8237256963796"><ele>305.0</ele><time>2026-03-24T14:55:28.999Z</time></trkpt><trkpt lat="46.010725782673845" lon="11.823526160539398"><ele>304.0</ele><time>2026-03-24T14:55:29.999Z</time></trkpt><trkpt lat="46.010757795943185" lon="11.823342663483881"><ele>303.0</ele><time>2026-03-24T14:55:30.999Z</time></trkpt><trkpt lat="46.01079022838652" lon="11.82317906730964"><ele>302.0</ele><time>2026-03-24T14:55:31.999Z</time></trkpt><trkpt lat="46.01080851179725" lon="11.82302540903976"><ele>301.0</ele><time>2026-03-24T14:55:32.999Z</time></trkpt><trkpt lat="46.01083729831443" lon="11.82287394183261"><ele>305.0</ele><time>2026-03-24T14:55:33.999Z</time></trkpt><trkpt lat="46.01086277961937" lon="11.822716778001991"><ele>309.0</ele><time>2026-03-24T14:55:34.999Z</time></trkpt><trkpt lat="46.01086663599451" lon="11.822546980688088"><ele>313.0</ele><time>2026-03-24T14:55:35.999Z</time></trkpt><trkpt lat="46.010876388946336" lon="11.822369991662448"><ele>317.0</ele><time>2026-03-24T14:55:36.999Z</time></trkpt><trkpt lat="46.01088309959456" lon="11.822178640850211"><ele>317.0</ele><time>2026-03-24T14:55:37.999Z</time></trkpt><trkpt lat="46.010876492864654" lon="11.821984427111554"><ele>317.0</ele><time>2026-03-24T14:55:38.999Z</time></trkpt><trkpt lat="46.01086460401683" lon="11.821783456565345"><ele>317.0</ele><time>2026-03-24T14:55:39.999Z</time></trkpt><trkpt lat="46.01085872354454" lon="11.821572468027107"><ele>317.0</ele><time>2026-03-24T14:55:40.999Z</time></trkpt><trkpt lat="46.01085818529144" lon="11.821354387898726"><ele>316.33333333333337</ele><time>2026-03-24T14:55:41.999Z</time></trkpt><trkpt lat="46.01086445887387" lon="11.821117103483871"><ele>315.6666666666667</ele><time>2026-03-24T14:55:42.999Z</time></trkpt><trkpt lat="46.01088154659786" lon="11.820864963807754"><ele>315.0</ele><time>2026-03-24T14:55:43.999Z</time></trkpt><trkpt lat="46.01090766659676" lon="11.820605209481474"><ele>315.0</ele><time>2026-03-24T14:55:44.999Z</time></trkpt><trkpt lat="46.01093925356336" lon="11.820341665172624"><ele>315.0</ele><time>2026-03-24T14:55:45.999Z</time></trkpt><trkpt lat="46.01098551131637" lon="11.820076268557386"><ele>315.0</ele><time>2026-03-24T14:55:46.999Z</time></trkpt><trkpt lat="46.01104081697676" lon="11.819810949362205"><ele>314.6666666666667</ele><time>2026-03-24T14:55:47.999Z</time></trkpt><trkpt lat="46.011105237357405" lon="11.81955495620692"><ele>314.33333333333337</ele><time>2026-03-24T14:55:48.999Z</time></trkpt><trkpt lat="46.01117165443394" lon="11.819331250402133"><ele>314.0</ele><time>2026-03-24T14:55:49.999Z</time></trkpt><trkpt lat="46.01124017656306" lon="11.819121547148315"><ele>314.0</ele><time>2026-03-24T14:55:50.999Z</time></trkpt><trkpt lat="46.01131960612273" lon="11.81891332683985"><ele>314.0</ele><time>2026-03-24T14:55:51.999Z</time></trkpt><trkpt lat="46.01140921076685" lon="11.818689790153915"><ele>314.0</ele><time>2026-03-24T14:55:52.999Z</time></trkpt><trkpt lat="46.011520792519136" lon="11.818467612765408"><ele>315.0</ele><time>2026-03-24T14:55:53.999Z</time></trkpt><trkpt lat="46.01162805617864" lon="11.818225778081942"><ele>316.0</ele><time>2026-03-24T14:55:54.999Z</time></trkpt><trkpt lat="46.011735079313226" lon="11.81797868857183"><ele>317.0</ele><time>2026-03-24T14:55:55.999Z</time></trkpt><trkpt lat="46.01184627082415" lon="11.817700226213368"><ele>319.5</ele><time>2026-03-24T14:55:56.999Z</time></trkpt><trkpt lat="46.011970358183405" lon="11.817417298549842"><ele>322.0</ele><time>2026-03-24T14:55:57.999Z</time></trkpt><trkpt lat="46.01208736464892" lon="11.817129042486544"><ele>322.0</ele><time>2026-03-24T14:55:58.999Z</time></trkpt><trkpt lat="46.01219721514799" lon="11.816846389204661"><ele>322.0</ele><time>2026-03-24T14:55:59.999Z</time></trkpt><trkpt lat="46.012290737987506" lon="11.81659313979972"><ele>322.0</ele><time>2026-03-24T14:56:00.999Z</time></trkpt><trkpt lat="46.012379785848374" lon="11.816352567822362"><ele>321.66666666666663</ele><time>2026-03-24T14:56:01.999Z</time></trkpt><trkpt lat="46.0124676884295" lon="11.816119574078654"><ele>321.3333333333333</ele><time>2026-03-24T14:56:02.999Z</time></trkpt><trkpt lat="46.01254787514093" lon="11.815868340098552"><ele>321.0</ele><time>2026-03-24T14:56:03.999Z</time></trkpt><trkpt lat="46.012630878912525" lon="11.815600379277177"><ele>321.0</ele><time>2026-03-24T14:56:04.999Z</time></trkpt><trkpt lat="46.01272440545177" lon="11.81532531635342"><ele>321.0</ele><time>2026-03-24T14:56:05.999Z</time></trkpt><trkpt lat="46.01280322115127" lon="11.815029492907042"><ele>321.0</ele><time>2026-03-24T14:56:06.999Z</time></trkpt><trkpt lat="46.01289538037934" lon="11.814720443111275"><ele>320.0</ele><time>2026-03-24T14:56:07.999Z</time></trkpt><trkpt lat="46.01299231930609" lon="11.81442714514097"><ele>319.0</ele><time>2026-03-24T14:56:08.999Z</time></trkpt><trkpt lat="46.01307995995534" lon="11.814165623566057"><ele>318.0</ele><time>2026-03-24T14:56:09.998Z</time></trkpt><trkpt lat="46.01315404441008" lon="11.813912669960391"><ele>317.6666666666667</ele><time>2026-03-24T14:56:10.998Z</time></trkpt><trkpt lat="46.013224434473194" lon="11.813677571633662"><ele>317.33333333333337</ele><time>2026-03-24T14:56:11.998Z</time></trkpt><trkpt lat="46.013295078631494" lon="11.813458311757172"><ele>317.0</ele><time>2026-03-24T14:56:12.998Z</time></trkpt><trkpt lat="46.01335481962557" lon="11.813233298201173"><ele>318.0</ele><time>2026-03-24T14:56:13.998Z</time></trkpt><trkpt lat="46.01342172627568" lon="11.813012085522063"><ele>319.0</ele><time>2026-03-24T14:56:14.998Z</time></trkpt><trkpt lat="46.013496020200506" lon="11.812783002028793"><ele>320.0</ele><time>2026-03-24T14:56:15.998Z</time></trkpt><trkpt lat="46.013564438615155" lon="11.812551465286178"><ele>320.0</ele><time>2026-03-24T14:56:16.998Z</time></trkpt><trkpt lat="46.01363758797377" lon="11.81231580053002"><ele>320.0</ele><time>2026-03-24T14:56:17.998Z</time></trkpt><trkpt lat="46.01371005105105" lon="11.812073284646969"><ele>320.0</ele><time>2026-03-24T14:56:18.998Z</time></trkpt><trkpt lat="46.01378122223427" lon="11.811832809108168"><ele>318.33333333333337</ele><time>2026-03-24T14:56:19.998Z</time></trkpt><trkpt lat="46.01386055957934" lon="11.811598184625135"><ele>316.6666666666667</ele><time>2026-03-24T14:56:20.998Z</time></trkpt><trkpt lat="46.01393434249618" lon="11.811361367055126"><ele>315.0</ele><time>2026-03-24T14:56:21.998Z</time></trkpt><trkpt lat="46.014006488729954" lon="11.811131448147426"><ele>314.3333333333333</ele><time>2026-03-24T14:56:22.998Z</time></trkpt><trkpt lat="46.014073348455035" lon="11.810915123740795"><ele>313.66666666666663</ele><time>2026-03-24T14:56:23.998Z</time></trkpt><trkpt lat="46.01413853225466" lon="11.810716550693764"><ele>313.0</ele><time>2026-03-24T14:56:24.998Z</time></trkpt><trkpt lat="46.01419329399231" lon="11.810532050540214"><ele>315.25</ele><time>2026-03-24T14:56:25.998Z</time></trkpt><trkpt lat="46.01424273158642" lon="11.810361339901409"><ele>317.5</ele><time>2026-03-24T14:56:27Z</time></trkpt><trkpt lat="46.01429077915585" lon="11.810200030601415"><ele>319.75</ele><time>2026-03-24T14:56:28Z</time></trkpt><trkpt lat="46.01433732699822" lon="11.810048684494685"><ele>322.0</ele><time>2026-03-24T14:56:29Z</time></trkpt><trkpt lat="46.01437766669794" lon="11.809908791542705"><ele>322.0</ele><time>2026-03-24T14:56:30Z</time></trkpt><trkpt lat="46.01442195354703" lon="11.809760214042472"><ele>322.0</ele><time>2026-03-24T14:56:31Z</time></trkpt><trkpt lat="46.01445253530012" lon="11.809599658787032"><ele>322.0</ele><time>2026-03-24T14:56:32Z</time></trkpt><trkpt lat="46.01449199711518" lon="11.809438310912226"><ele>322.0</ele><time>2026-03-24T14:56:33Z</time></trkpt><trkpt lat="46.01455538417437" lon="11.80928305642007"><ele>321.75</ele><time>2026-03-24T14:56:34Z</time></trkpt><trkpt lat="46.01460783618192" lon="11.80911785399948"><ele>321.5</ele><time>2026-03-24T14:56:35Z</time></trkpt><trkpt lat="46.01466207627975" lon="11.808948696115234"><ele>321.25</ele><time>2026-03-24T14:56:36Z</time></trkpt><trkpt lat="46.014713901655895" lon="11.80877422970396"><ele>321.0</ele><time>2026-03-24T14:56:37Z</time></trkpt><trkpt lat="46.01476379822965" lon="11.808596328966809"><ele>320.75</ele><time>2026-03-24T14:56:38Z</time></trkpt><trkpt lat="46.01482048710267" lon="11.808414543989576"><ele>320.5</ele><time>2026-03-24T14:56:39Z</time></trkpt><trkpt lat="46.014878056291586" lon="11.808231798790128"><ele>320.25</ele><time>2026-03-24T14:56:40Z</time></trkpt><trkpt lat="46.01491955917355" lon="11.808045488860774"><ele>320.0</ele><time>2026-03-24T14:56:41Z</time></trkpt><trkpt lat="46.01497646627987" lon="11.80784892102719"><ele>320.6666666666667</ele><time>2026-03-24T14:56:42Z</time></trkpt><trkpt lat="46.01503375023904" lon="11.80765550611569"><ele>321.3333333333333</ele><time>2026-03-24T14:56:43Z</time></trkpt><trkpt lat="46.015096284167" lon="11.807457843919066"><ele>322.0</ele><time>2026-03-24T14:56:44Z</time></trkpt><trkpt lat="46.015161518631075" lon="11.807247168403359"><ele>322.0</ele><time>2026-03-24T14:56:45Z</time></trkpt><trkpt lat="46.0152313516388" lon="11.807019788122492"><ele>322.0</ele><time>2026-03-24T14:56:46Z</time></trkpt><trkpt lat="46.01530635996833" lon="11.806782807400799"><ele>322.0</ele><time>2026-03-24T14:56:47Z</time></trkpt><trkpt lat="46.01538615063501" lon="11.806533572021815"><ele>321.66666666666663</ele><time>2026-03-24T14:56:48Z</time></trkpt><trkpt lat="46.01547644499898" lon="11.80625533738023"><ele>321.3333333333333</ele><time>2026-03-24T14:56:49Z</time></trkpt><trkpt lat="46.01557061863979" lon="11.805969518329045"><ele>321.0</ele><time>2026-03-24T14:56:50Z</time></trkpt><trkpt lat="46.01567309934519" lon="11.805663272631739"><ele>320.5</ele><time>2026-03-24T14:56:51Z</time></trkpt><trkpt lat="46.01577886648822" lon="11.805356331937435"><ele>320.0</ele><time>2026-03-24T14:56:52Z</time></trkpt><trkpt lat="46.01589273370783" lon="11.805038198534405"><ele>320.0</ele><time>2026-03-24T14:56:53Z</time></trkpt><trkpt lat="46.01597564543817" lon="11.804710915102083"><ele>320.0</ele><time>2026-03-24T14:56:54Z</time></trkpt><trkpt lat="46.01603794939154" lon="11.80446045899235"><ele>320.0</ele><time>2026-03-24T14:56:55Z</time></trkpt><trkpt lat="46.016112299789306" lon="11.804207667552053"><ele>319.6666666666667</ele><time>2026-03-24T14:56:56Z</time></trkpt><trkpt lat="46.01617612506413" lon="11.803960643631667"><ele>319.3333333333333</ele><time>2026-03-24T14:56:57Z</time></trkpt><trkpt lat="46.016235049555256" lon="11.803726051758648"><ele>319.0</ele><time>2026-03-24T14:56:58Z</time></trkpt><trkpt lat="46.016329761223474" lon="11.803495622824531"><ele>319.0</ele><time>2026-03-24T14:56:59Z</time></trkpt><trkpt lat="46.01639062995167" lon="11.803304491479008"><ele>319.0</ele><time>2026-03-24T14:57:00Z</time></trkpt><trkpt lat="46.016438417441876" lon="11.803116384424484"><ele>319.0</ele><time>2026-03-24T14:57:01Z</time></trkpt><trkpt lat="46.016485016110124" lon="11.802942145924149"><ele>319.0</ele><time>2026-03-24T14:57:02Z</time></trkpt><trkpt lat="46.01653518611614" lon="11.802777531751202"><ele>318.75</ele><time>2026-03-24T14:57:03Z</time></trkpt><trkpt lat="46.01658846772112" lon="11.802617846275513"><ele>318.5</ele><time>2026-03-24T14:57:04Z</time></trkpt><trkpt lat="46.0166457840464" lon="11.802445055213509"><ele>318.25</ele><time>2026-03-24T14:57:05Z</time></trkpt><trkpt lat="46.016710357983044" lon="11.802269417578534"><ele>318.0</ele><time>2026-03-24T14:57:06Z</time></trkpt><trkpt lat="46.0167604463169" lon="11.802078902254152"><ele>318.0</ele><time>2026-03-24T14:57:07Z</time></trkpt><trkpt lat="46.016811517381136" lon="11.80190828162209"><ele>318.0</ele><time>2026-03-24T14:57:08Z</time></trkpt><trkpt lat="46.01685511420461" lon="11.801774412889914"><ele>318.0</ele><time>2026-03-24T14:57:08.999Z</time></trkpt><trkpt lat="46.01688057081614" lon="11.801632654448422"><ele>318.0</ele><time>2026-03-24T14:57:09.999Z</time></trkpt><trkpt lat="46.01687513085414" lon="11.801496013432502"><ele>318.0</ele><time>2026-03-24T14:57:10.999Z</time></trkpt><trkpt lat="46.01685583092648" lon="11.801346649350418"><ele>318.8</ele><time>2026-03-24T14:57:11.999Z</time></trkpt><trkpt lat="46.016842108316744" lon="11.8012112487226"><ele>319.6</ele><time>2026-03-24T14:57:12.999Z</time></trkpt><trkpt lat="46.01680498578381" lon="11.801099180880419"><ele>320.40000000000003</ele><time>2026-03-24T14:57:13.999Z</time></trkpt><trkpt lat="46.01677270600973" lon="11.800968205946615"><ele>321.20000000000005</ele><time>2026-03-24T14:57:14.999Z</time></trkpt><trkpt lat="46.01674279283877" lon="11.800811336055743"><ele>322.0</ele><time>2026-03-24T14:57:15.999Z</time></trkpt><trkpt lat="46.0167029579585" lon="11.800589073664112"><ele>322.0</ele><time>2026-03-24T14:57:16.999Z</time></trkpt><trkpt lat="46.016675604056616" lon="11.80041335040522"><ele>322.0</ele><time>2026-03-24T14:57:17.999Z</time></trkpt><trkpt lat="46.01666130474068" lon="11.800212087687871"><ele>322.0</ele><time>2026-03-24T14:57:18.999Z</time></trkpt><trkpt lat="46.01666366899465" lon="11.7999999292399"><ele>322.0</ele><time>2026-03-24T14:57:19.999Z</time></trkpt><trkpt lat="46.016677060709114" lon="11.799790137004006"><ele>322.0</ele><time>2026-03-24T14:57:20.999Z</time></trkpt><trkpt lat="46.01670379975747" lon="11.799571468333632"><ele>322.0</ele><time>2026-03-24T14:57:21.999Z</time></trkpt><trkpt lat="46.01673349835039" lon="11.799341246985714"><ele>322.0</ele><time>2026-03-24T14:57:22.999Z</time></trkpt><trkpt lat="46.01676770063911" lon="11.799098281489078"><ele>322.0</ele><time>2026-03-24T14:57:23.999Z</time></trkpt><trkpt lat="46.01685725552074" lon="11.798822736166818"><ele>322.0</ele><time>2026-03-24T14:57:24.999Z</time></trkpt><trkpt lat="46.016917149881465" lon="11.798554277632086"><ele>322.0</ele><time>2026-03-24T14:57:25.999Z</time></trkpt><trkpt lat="46.01698134473765" lon="11.798257183096016"><ele>322.0</ele><time>2026-03-24T14:57:26.999Z</time></trkpt><trkpt lat="46.01705820553826" lon="11.797980849362403"><ele>322.0</ele><time>2026-03-24T14:57:27.999Z</time></trkpt><trkpt lat="46.017137235122824" lon="11.797680175208841"><ele>322.0</ele><time>2026-03-24T14:57:28.999Z</time></trkpt><trkpt lat="46.01721788198771" lon="11.797371172924503"><ele>323.0</ele><time>2026-03-24T14:57:29.999Z</time></trkpt><trkpt lat="46.0173062797141" lon="11.797081334644094"><ele>324.0</ele><time>2026-03-24T14:57:30.999Z</time></trkpt><trkpt lat="46.01740246074778" lon="11.796817209579096"><ele>325.0</ele><time>2026-03-24T14:57:31.999Z</time></trkpt><trkpt lat="46.01748941611638" lon="11.796569475859798"><ele>325.0</ele><time>2026-03-24T14:57:32.999Z</time></trkpt><trkpt lat="46.01757715075677" lon="11.79630923799699"><ele>325.0</ele><time>2026-03-24T14:57:33.999Z</time></trkpt><trkpt lat="46.01766229204916" lon="11.796038124267204"><ele>325.0</ele><time>2026-03-24T14:57:34.999Z</time></trkpt><trkpt lat="46.017735496011234" lon="11.795770185081452"><ele>325.0</ele><time>2026-03-24T14:57:35.999Z</time></trkpt><trkpt lat="46.017815626253444" lon="11.795526939067004"><ele>325.0</ele><time>2026-03-24T14:57:36.999Z</time></trkpt><trkpt lat="46.01789748146812" lon="11.795300504967946"><ele>325.0</ele><time>2026-03-24T14:57:37.999Z</time></trkpt><trkpt lat="46.01798206207857" lon="11.795123276838073"><ele>325.0</ele><time>2026-03-24T14:57:38.999Z</time></trkpt><trkpt lat="46.01807588111502" lon="11.794954421227848"><ele>325.0</ele><time>2026-03-24T14:57:39.999Z</time></trkpt><trkpt lat="46.018190488695176" lon="11.794797176697406"><ele>325.0</ele><time>2026-03-24T14:57:40.999Z</time></trkpt><trkpt lat="46.01832715518267" lon="11.794660869770667"><ele>325.0</ele><time>2026-03-24T14:57:41.999Z</time></trkpt><trkpt lat="46.01846867922853" lon="11.794522294392658"><ele>325.0</ele><time>2026-03-24T14:57:42.999Z</time></trkpt><trkpt lat="46.01861112356147" lon="11.794373346173035"><ele>325.0</ele><time>2026-03-24T14:57:43.999Z</time></trkpt><trkpt lat="46.01876260684928" lon="11.794239296911877"><ele>320.66666666666663</ele><time>2026-03-24T14:57:44.999Z</time></trkpt><trkpt lat="46.01890138722088" lon="11.794111279561394"><ele>316.3333333333333</ele><time>2026-03-24T14:57:45.999Z</time></trkpt><trkpt lat="46.01900875235189" lon="11.793982436701352"><ele>312.0</ele><time>2026-03-24T14:57:46.999Z</time></trkpt><trkpt lat="46.01910870819348" lon="11.793806151846418"><ele>313.6666666666667</ele><time>2026-03-24T14:57:47.999Z</time></trkpt><trkpt lat="46.0191891800754" lon="11.793625628819838"><ele>315.33333333333337</ele><time>2026-03-24T14:57:48.999Z</time></trkpt><trkpt lat="46.0192572501465" lon="11.793418956960966"><ele>317.0</ele><time>2026-03-24T14:57:49.999Z</time></trkpt><trkpt lat="46.01930497545521" lon="11.793199774774505"><ele>317.0</ele><time>2026-03-24T14:57:50.999Z</time></trkpt><trkpt lat="46.01933949044309" lon="11.79295885478705"><ele>317.0</ele><time>2026-03-24T14:57:51.999Z</time></trkpt><trkpt lat="46.01936593655117" lon="11.792697743081083"><ele>317.0</ele><time>2026-03-24T14:57:52.999Z</time></trkpt><trkpt lat="46.01940509386772" lon="11.792430397431895"><ele>316.33333333333337</ele><time>2026-03-24T14:57:53.999Z</time></trkpt><trkpt lat="46.01944887542136" lon="11.792153525009567"><ele>315.6666666666667</ele><time>2026-03-24T14:57:54.999Z</time></trkpt><trkpt lat="46.019486070564454" lon="11.791857588496196"><ele>315.0</ele><time>2026-03-24T14:57:55.999Z</time></trkpt><trkpt lat="46.019539948974675" lon="11.791541854900895"><ele>314.0</ele><time>2026-03-24T14:57:56.999Z</time></trkpt><trkpt lat="46.01958672755002" lon="11.791209849040582"><ele>313.0</ele><time>2026-03-24T14:57:57.999Z</time></trkpt><trkpt lat="46.019648639992965" lon="11.790868367495637"><ele>313.0</ele><time>2026-03-24T14:57:58.999Z</time></trkpt><trkpt lat="46.0197053339509" lon="11.790512463066666"><ele>313.0</ele><time>2026-03-24T14:57:59.999Z</time></trkpt><trkpt lat="46.019763774352334" lon="11.79014963552611"><ele>313.0</ele><time>2026-03-24T14:58:00.999Z</time></trkpt><trkpt lat="46.01982111396478" lon="11.78978246532834"><ele>313.0</ele><time>2026-03-24T14:58:01.999Z</time></trkpt><trkpt lat="46.01988657229263" lon="11.789410347884997"><ele>313.0</ele><time>2026-03-24T14:58:02.999Z</time></trkpt><trkpt lat="46.019953023909466" lon="11.789031398417748"><ele>313.0</ele><time>2026-03-24T14:58:03.999Z</time></trkpt><trkpt lat="46.02002390027465" lon="11.788656071557362"><ele>316.0</ele><time>2026-03-24T14:58:04.999Z</time></trkpt><trkpt lat="46.020068961042156" lon="11.788272525246267"><ele>319.0</ele><time>2026-03-24T14:58:05.999Z</time></trkpt><trkpt lat="46.020130991371104" lon="11.787903987063544"><ele>318.5</ele><time>2026-03-24T14:58:06.999Z</time></trkpt><trkpt lat="46.02018555639778" lon="11.787565551310976"><ele>318.0</ele><time>2026-03-24T14:58:07.999Z</time></trkpt><trkpt lat="46.020238006321186" lon="11.787247751879045"><ele>318.0</ele><time>2026-03-24T14:58:08.999Z</time></trkpt><trkpt lat="46.020296416285554" lon="11.786943093809795"><ele>318.0</ele><time>2026-03-24T14:58:09.999Z</time></trkpt><trkpt lat="46.020341834280714" lon="11.786649358534264"><ele>318.0</ele><time>2026-03-24T14:58:10.999Z</time></trkpt><trkpt lat="46.020385042408975" lon="11.786356574383138"><ele>318.0</ele><time>2026-03-24T14:58:11.999Z</time></trkpt><trkpt lat="46.02042938745679" lon="11.78605473738631"><ele>318.0</ele><time>2026-03-24T14:58:12.999Z</time></trkpt><trkpt lat="46.0204778893256" lon="11.785737633952245"><ele>318.0</ele><time>2026-03-24T14:58:13.999Z</time></trkpt><trkpt lat="46.020532877988835" lon="11.785430718417958"><ele>318.3333333333333</ele><time>2026-03-24T14:58:14.999Z</time></trkpt><trkpt lat="46.02057372130849" lon="11.78514587912117"><ele>318.66666666666663</ele><time>2026-03-24T14:58:15.999Z</time></trkpt><trkpt lat="46.02061783827933" lon="11.784880535176407"><ele>319.0</ele><time>2026-03-24T14:58:16.999Z</time></trkpt><trkpt lat="46.0206492459653" lon="11.784630201348884"><ele>319.0</ele><time>2026-03-24T14:58:17.999Z</time></trkpt><trkpt lat="46.020700676681884" lon="11.784384474085611"><ele>319.0</ele><time>2026-03-24T14:58:18.999Z</time></trkpt><trkpt lat="46.020742600049715" lon="11.784105348768254"><ele>319.0</ele><time>2026-03-24T14:58:19.999Z</time></trkpt><trkpt lat="46.02078433581054" lon="11.783815881302818"><ele>319.0</ele><time>2026-03-24T14:58:20.998Z</time></trkpt><trkpt lat="46.020829304485964" lon="11.78351912322226"><ele>319.0</ele><time>2026-03-24T14:58:21.998Z</time></trkpt><trkpt lat="46.02087826543389" lon="11.783220644485258"><ele>319.0</ele><time>2026-03-24T14:58:22.998Z</time></trkpt><trkpt lat="46.020921720381615" lon="11.782916528106693"><ele>319.0</ele><time>2026-03-24T14:58:23.998Z</time></trkpt><trkpt lat="46.020967019516135" lon="11.782614310286132"><ele>319.0</ele><time>2026-03-24T14:58:24.998Z</time></trkpt><trkpt lat="46.021014364463404" lon="11.782320217370359"><ele>319.0</ele><time>2026-03-24T14:58:25.998Z</time></trkpt><trkpt lat="46.021054254333684" lon="11.782052313675692"><ele>319.0</ele><time>2026-03-24T14:58:26.998Z</time></trkpt><trkpt lat="46.02110022323187" lon="11.781784352731895"><ele>319.0</ele><time>2026-03-24T14:58:27.998Z</time></trkpt><trkpt lat="46.02113656690612" lon="11.781507436300803"><ele>319.0</ele><time>2026-03-24T14:58:28.998Z</time></trkpt><trkpt lat="46.02117941969496" lon="11.7812523046714"><ele>319.0</ele><time>2026-03-24T14:58:29.998Z</time></trkpt><trkpt lat="46.021220309608104" lon="11.781023773705307"><ele>319.0</ele><time>2026-03-24T14:58:30.998Z</time></trkpt><trkpt lat="46.021253068437176" lon="11.780855155526439"><ele>319.0</ele><time>2026-03-24T14:58:31.998Z</time></trkpt><trkpt lat="46.0212827146767" lon="11.780744863346381"><ele>319.0</ele><time>2026-03-24T14:58:33Z</time></trkpt><trkpt lat="46.021231656576006" lon="11.780573903082818"><ele>319.16666666666663</ele><time>2026-03-24T14:58:35Z</time></trkpt><trkpt lat="46.021171690334874" lon="11.780500112177503"><ele>319.3333333333333</ele><time>2026-03-24T14:58:36Z</time></trkpt><trkpt lat="46.02109917454199" lon="11.780446677668776"><ele>319.5</ele><time>2026-03-24T14:58:37Z</time></trkpt><trkpt lat="46.021050424086646" lon="11.780387781463482"><ele>319.6666666666667</ele><time>2026-03-24T14:58:38Z</time></trkpt><trkpt lat="46.02101122916933" lon="11.780273420544106"><ele>319.83333333333337</ele><time>2026-03-24T14:58:40Z</time></trkpt><trkpt lat="46.02101859864355" lon="11.7801294895033"><ele>320.0</ele><time>2026-03-24T14:58:42Z</time></trkpt><trkpt lat="46.02109127444403" lon="11.779987114237395"><ele>321.0</ele><time>2026-03-24T14:58:43Z</time></trkpt><trkpt lat="46.021152393104146" lon="11.779850260489896"><ele>322.0</ele><time>2026-03-24T14:58:44Z</time></trkpt><trkpt lat="46.021217781126296" lon="11.779681648469186"><ele>323.0</ele><time>2026-03-24T14:58:45Z</time></trkpt><trkpt lat="46.02128740586536" lon="11.779494177531328"><ele>324.0</ele><time>2026-03-24T14:58:46Z</time></trkpt><trkpt lat="46.02137135755627" lon="11.779286201627034"><ele>324.0</ele><time>2026-03-24T14:58:47Z</time></trkpt><trkpt lat="46.02145984523762" lon="11.779063773621573"><ele>324.0</ele><time>2026-03-24T14:58:48Z</time></trkpt><trkpt lat="46.021553476537" lon="11.778833576961825"><ele>324.0</ele><time>2026-03-24T14:58:49Z</time></trkpt><trkpt lat="46.02164727631434" lon="11.778594226806208"><ele>326.0</ele><time>2026-03-24T14:58:50Z</time></trkpt><trkpt lat="46.021729291989175" lon="11.778339497625723"><ele>328.0</ele><time>2026-03-24T14:58:51Z</time></trkpt><trkpt lat="46.02178712312866" lon="11.778049310069067"><ele>330.0</ele><time>2026-03-24T14:58:52Z</time></trkpt><trkpt lat="46.02183109127608" lon="11.77774141802888"><ele>330.5</ele><time>2026-03-24T14:58:53Z</time></trkpt><trkpt lat="46.02187381060436" lon="11.777425087872418"><ele>331.0</ele><time>2026-03-24T14:58:54Z</time></trkpt><trkpt lat="46.021920820754154" lon="11.777094870167579"><ele>331.3333333333333</ele><time>2026-03-24T14:58:55Z</time></trkpt><trkpt lat="46.0219724247577" lon="11.776781592223042"><ele>331.6666666666667</ele><time>2026-03-24T14:58:56Z</time></trkpt><trkpt lat="46.0220196103668" lon="11.776503169122908"><ele>332.0</ele><time>2026-03-24T14:58:57Z</time></trkpt><trkpt lat="46.02206182613238" lon="11.776254095904712"><ele>332.0</ele><time>2026-03-24T14:58:58Z</time></trkpt><trkpt lat="46.022109385039975" lon="11.776025342313094"><ele>332.0</ele><time>2026-03-24T14:58:59Z</time></trkpt><trkpt lat="46.022168259040875" lon="11.775802772474906"><ele>332.0</ele><time>2026-03-24T14:59:00Z</time></trkpt><trkpt lat="46.02223918831474" lon="11.775572732813968"><ele>331.6666666666667</ele><time>2026-03-24T14:59:01Z</time></trkpt><trkpt lat="46.02231617279052" lon="11.775335430166114"><ele>331.3333333333333</ele><time>2026-03-24T14:59:02Z</time></trkpt><trkpt lat="46.0223840629643" lon="11.775080234550911"><ele>331.0</ele><time>2026-03-24T14:59:03.026Z</time></trkpt><trkpt lat="46.02244906667758" lon="11.77483102795913"><ele>340.66666666666663</ele><time>2026-03-24T14:59:04.019Z</time></trkpt><trkpt lat="46.0225148915894" lon="11.77458086723403"><ele>350.3333333333333</ele><time>2026-03-24T14:59:05.015Z</time></trkpt><trkpt lat="46.022586274287534" lon="11.774316589169578"><ele>360.0</ele><time>2026-03-24T14:59:06.017Z</time></trkpt><trkpt lat="46.022660709221114" lon="11.774036124917387"><ele>385.0</ele><time>2026-03-24T14:59:07.015Z</time></trkpt><trkpt lat="46.022730259044614" lon="11.773772336992486"><ele>410.0</ele><time>2026-03-24T14:59:08.018Z</time></trkpt><trkpt lat="46.02583707314545" lon="11.765419738378156"><ele>410.0</ele><time>2026-03-24T14:59:54.999Z</time></trkpt><trkpt lat="46.02596388036404" lon="11.765364517006033"><ele>410.0</ele><time>2026-03-24T14:59:55.999Z</time></trkpt><trkpt lat="46.02610005481559" lon="11.76531019205376"><ele>410.0</ele><time>2026-03-24T14:59:56.999Z</time></trkpt><trkpt lat="46.02621885836105" lon="11.765333093299043"><ele>410.0</ele><time>2026-03-24T14:59:57.999Z</time></trkpt><trkpt lat="46.026346113758" lon="11.76531191929639"><ele>410.0</ele><time>2026-03-24T14:59:58.999Z</time></trkpt><trkpt lat="46.026466597648245" lon="11.765261895191966"><ele>410.0</ele><time>2026-03-24T14:59:59.999Z</time></trkpt><trkpt lat="46.02662415401926" lon="11.765220474574686"><ele>410.0</ele><time>2026-03-24T15:00:00.999Z</time></trkpt><trkpt lat="46.026750965567246" lon="11.76517942539064"><ele>410.0</ele><time>2026-03-24T15:00:01.999Z</time></trkpt><trkpt lat="46.02680510715332" lon="11.765053620382146"><ele>404.6</ele><time>2026-03-24T15:00:02.999Z</time></trkpt><trkpt lat="46.02688059669317" lon="11.764973691311335"><ele>399.2</ele><time>2026-03-24T15:00:03.999Z</time></trkpt><trkpt lat="46.02698423904977" lon="11.764915149244386"><ele>393.79999999999995</ele><time>2026-03-24T15:00:04.999Z</time></trkpt><trkpt lat="46.0270986123754" lon="11.764947702398954"><ele>388.4</ele><time>2026-03-24T15:00:05.999Z</time></trkpt><trkpt lat="46.02718933458138" lon="11.764984519331728"><ele>383.0</ele><time>2026-03-24T15:00:06.999Z</time></trkpt><trkpt lat="46.02730880102655" lon="11.765003455893876"><ele>383.0</ele><time>2026-03-24T15:00:07.999Z</time></trkpt><trkpt lat="46.02742851306321" lon="11.765029979970356"><ele>383.0</ele><time>2026-03-24T15:00:08.999Z</time></trkpt><trkpt lat="46.02753917814054" lon="11.76505494222131"><ele>383.0</ele><time>2026-03-24T15:00:09.999Z</time></trkpt><trkpt lat="46.02761229697692" lon="11.765033788273842"><ele>383.0</ele><time>2026-03-24T15:00:10.999Z</time></trkpt><trkpt lat="46.02770999866475" lon="11.764992400938684"><ele>383.0</ele><time>2026-03-24T15:00:11.999Z</time></trkpt><trkpt lat="46.02781415156725" lon="11.764980944554441"><ele>391.5</ele><time>2026-03-24T15:00:12.999Z</time></trkpt><trkpt lat="46.027920502540454" lon="11.764919838578994"><ele>400.0</ele><time>2026-03-24T15:00:13.999Z</time></trkpt><trkpt lat="46.02803338564614" lon="11.764874763037088"><ele>408.5</ele><time>2026-03-24T15:00:14.999Z</time></trkpt><trkpt lat="46.02814243549823" lon="11.764742175140404"><ele>417.0</ele><time>2026-03-24T15:00:15.999Z</time></trkpt><trkpt lat="46.028226937381305" lon="11.764633931088753"><ele>426.5</ele><time>2026-03-24T15:00:16.999Z</time></trkpt><trkpt lat="46.028338821044" lon="11.764522948188887"><ele>436.0</ele><time>2026-03-24T15:00:17.999Z</time></trkpt><trkpt lat="46.028454921994346" lon="11.764415631186498"><ele>445.5</ele><time>2026-03-24T15:00:18.999Z</time></trkpt><trkpt lat="46.02856047358806" lon="11.764303809261003"><ele>455.0</ele><time>2026-03-24T15:00:19.999Z</time></trkpt><trkpt lat="46.02864618049175" lon="11.764185094448116"><ele>437.4</ele><time>2026-03-24T15:00:20.999Z</time></trkpt><trkpt lat="46.028747336433575" lon="11.764118434381203"><ele>419.8</ele><time>2026-03-24T15:00:21.999Z</time></trkpt><trkpt lat="46.02882072858379" lon="11.764011542943006"><ele>402.20000000000005</ele><time>2026-03-24T15:00:22.999Z</time></trkpt><trkpt lat="46.02890576834761" lon="11.763935127290456"><ele>384.6</ele><time>2026-03-24T15:00:23.999Z</time></trkpt><trkpt lat="46.02899874998399" lon="11.763879488617754"><ele>367.0</ele><time>2026-03-24T15:00:24.999Z</time></trkpt><trkpt lat="46.029108233058366" lon="11.763859593008275"><ele>371.3333333333333</ele><time>2026-03-24T15:00:25.999Z</time></trkpt><trkpt lat="46.029222353849356" lon="11.763861321061471"><ele>375.66666666666663</ele><time>2026-03-24T15:00:26.999Z</time></trkpt><trkpt lat="46.02931813931726" lon="11.763860751686614"><ele>380.0</ele><time>2026-03-24T15:00:27.999Z</time></trkpt><trkpt lat="46.02939983196511" lon="11.76384322154583"><ele>384.3333333333333</ele><time>2026-03-24T15:00:28.999Z</time></trkpt><trkpt lat="46.029479765430665" lon="11.763825015479902"><ele>388.6666666666667</ele><time>2026-03-24T15:00:29.999Z</time></trkpt><trkpt lat="46.02954514501858" lon="11.763823784261916"><ele>393.0</ele><time>2026-03-24T15:00:30.998Z</time></trkpt><trkpt lat="46.02965783591647" lon="11.763783594632574"><ele>393.0</ele><time>2026-03-24T15:00:32.998Z</time></trkpt><trkpt lat="46.029708020464845" lon="11.763716521804865"><ele>393.0</ele><time>2026-03-24T15:00:33.998Z</time></trkpt><trkpt lat="46.02971746960403" lon="11.763608111442586"><ele>393.0</ele><time>2026-03-24T15:00:34.998Z</time></trkpt><trkpt lat="46.029688624535886" lon="11.763489702330366"><ele>393.0</ele><time>2026-03-24T15:00:35.998Z</time></trkpt><trkpt lat="46.02967038989495" lon="11.763383605203627"><ele>393.0</ele><time>2026-03-24T15:00:36.998Z</time></trkpt><trkpt lat="46.029658704377674" lon="11.763272217213519"><ele>393.0</ele><time>2026-03-24T15:00:37.998Z</time></trkpt><trkpt lat="46.029648965228446" lon="11.763166450168153"><ele>389.8333333333333</ele><time>2026-03-24T15:00:39Z</time></trkpt><trkpt lat="46.029627394192495" lon="11.763067618569327"><ele>386.6666666666667</ele><time>2026-03-24T15:00:40Z</time></trkpt><trkpt lat="46.02965015794361" lon="11.762901177283535"><ele>383.5</ele><time>2026-03-24T15:00:42Z</time></trkpt><trkpt lat="46.02969120851884" lon="11.762829285347772"><ele>380.33333333333337</ele><time>2026-03-24T15:00:43Z</time></trkpt><trkpt lat="46.029746925773075" lon="11.762768084662335"><ele>377.1666666666667</ele><time>2026-03-24T15:00:44Z</time></trkpt><trkpt lat="46.029810974451934" lon="11.76273535283758"><ele>374.0</ele><time>2026-03-24T15:00:45Z</time></trkpt><trkpt lat="46.029897522814544" lon="11.762715280051475"><ele>379.5</ele><time>2026-03-24T15:00:46Z</time></trkpt><trkpt lat="46.03000370823181" lon="11.762689661616754"><ele>385.0</ele><time>2026-03-24T15:00:47Z</time></trkpt><trkpt lat="46.03011552114882" lon="11.762669582122992"><ele>390.5</ele><time>2026-03-24T15:00:48Z</time></trkpt><trkpt lat="46.03024049874816" lon="11.762640360032245"><ele>396.0</ele><time>2026-03-24T15:00:49Z</time></trkpt><trkpt lat="46.0303755735075" lon="11.762596236561468"><ele>396.0</ele><time>2026-03-24T15:00:50Z</time></trkpt><trkpt lat="46.0305067927429" lon="11.762558756848755"><ele>396.0</ele><time>2026-03-24T15:00:51Z</time></trkpt><trkpt lat="46.030640999055336" lon="11.762512375137618"><ele>396.0</ele><time>2026-03-24T15:00:52Z</time></trkpt><trkpt lat="46.03074617004522" lon="11.762479162331063"><ele>396.0</ele><time>2026-03-24T15:00:53Z</time></trkpt><trkpt lat="46.03085480833965" lon="11.762442319241671"><ele>393.25</ele><time>2026-03-24T15:00:54Z</time></trkpt><trkpt lat="46.0309701195127" lon="11.762394892076781"><ele>390.5</ele><time>2026-03-24T15:00:55Z</time></trkpt><trkpt lat="46.031092597194466" lon="11.762356843762516"><ele>387.75</ele><time>2026-03-24T15:00:56Z</time></trkpt><trkpt lat="46.03122503116466" lon="11.762312456613047"><ele>385.0</ele><time>2026-03-24T15:00:57Z</time></trkpt><trkpt lat="46.031374775260105" lon="11.762259026916535"><ele>385.0</ele><time>2026-03-24T15:00:58Z</time></trkpt><trkpt lat="46.031498933138415" lon="11.762208500459664"><ele>385.0</ele><time>2026-03-24T15:00:59Z</time></trkpt><trkpt lat="46.03161562054576" lon="11.76214588604915"><ele>385.0</ele><time>2026-03-24T15:01:00Z</time></trkpt><trkpt lat="46.03171218892152" lon="11.762077760761988"><ele>385.0</ele><time>2026-03-24T15:01:01Z</time></trkpt><trkpt lat="46.0318085368148" lon="11.762018697150346"><ele>386.6666666666667</ele><time>2026-03-24T15:01:02Z</time></trkpt><trkpt lat="46.03189431104993" lon="11.761983490853558"><ele>388.33333333333337</ele><time>2026-03-24T15:01:03Z</time></trkpt><trkpt lat="46.03197369524554" lon="11.761960947949714"><ele>390.0</ele><time>2026-03-24T15:01:04Z</time></trkpt><trkpt lat="46.03203957913962" lon="11.76197407029421"><ele>391.66666666666663</ele><time>2026-03-24T15:01:05Z</time></trkpt><trkpt lat="46.032135577872246" lon="11.761954670706839"><ele>393.3333333333333</ele><time>2026-03-24T15:01:06Z</time></trkpt><trkpt lat="46.0322236523693" lon="11.761904158063773"><ele>395.0</ele><time>2026-03-24T15:01:07Z</time></trkpt><trkpt lat="46.03230869066549" lon="11.761824688329758"><ele>395.0</ele><time>2026-03-24T15:01:08Z</time></trkpt><trkpt lat="46.03241694583275" lon="11.761758835961725"><ele>395.0</ele><time>2026-03-24T15:01:09Z</time></trkpt><trkpt lat="46.03254547800525" lon="11.761705870407834"><ele>395.0</ele><time>2026-03-24T15:01:10Z</time></trkpt><trkpt lat="46.03269777497146" lon="11.761674294311522"><ele>395.0</ele><time>2026-03-24T15:01:11Z</time></trkpt><trkpt lat="46.032868038655025" lon="11.76164772617325"><ele>394.66666666666663</ele><time>2026-03-24T15:01:12Z</time></trkpt><trkpt lat="46.03303742345945" lon="11.76159828430076"><ele>394.33333333333337</ele><time>2026-03-24T15:01:13Z</time></trkpt><trkpt lat="46.03321511538138" lon="11.761530073396198"><ele>394.0</ele><time>2026-03-24T15:01:14Z</time></trkpt><trkpt lat="46.033400611485966" lon="11.761442394470546"><ele>393.6666666666667</ele><time>2026-03-24T15:01:15Z</time></trkpt><trkpt lat="46.033578769181375" lon="11.7613388179063"><ele>393.33333333333337</ele><time>2026-03-24T15:01:16Z</time></trkpt><trkpt lat="46.03373225456458" lon="11.761253009763072"><ele>393.0</ele><time>2026-03-24T15:01:17Z</time></trkpt><trkpt lat="46.03385693506923" lon="11.76119403398179"><ele>393.0</ele><time>2026-03-24T15:01:18Z</time></trkpt><trkpt lat="46.03398432775609" lon="11.761135321598267"><ele>393.0</ele><time>2026-03-24T15:01:19Z</time></trkpt><trkpt lat="46.03410224092416" lon="11.761073992397362"><ele>393.0</ele><time>2026-03-24T15:01:20Z</time></trkpt><trkpt lat="46.034213134921366" lon="11.761025730645175"><ele>393.0</ele><time>2026-03-24T15:01:21Z</time></trkpt><trkpt lat="46.03435364583854" lon="11.76097730285861"><ele>405.5</ele><time>2026-03-24T15:01:22Z</time></trkpt><trkpt lat="46.034479577884014" lon="11.760969143040782"><ele>418.0</ele><time>2026-03-24T15:01:23Z</time></trkpt><trkpt lat="46.03459594849703" lon="11.760980017314617"><ele>430.5</ele><time>2026-03-24T15:01:24Z</time></trkpt><trkpt lat="46.0347188067969" lon="11.760998302209643"><ele>443.0</ele><time>2026-03-24T15:01:25Z</time></trkpt><trkpt lat="46.034838948656024" lon="11.761029019772744"><ele>432.25</ele><time>2026-03-24T15:01:25.999Z</time></trkpt><trkpt lat="46.0349495283753" lon="11.761061442808819"><ele>421.5</ele><time>2026-03-24T15:01:26.999Z</time></trkpt><trkpt lat="46.03505777168195" lon="11.761092972231994"><ele>410.75</ele><time>2026-03-24T15:01:27.999Z</time></trkpt><trkpt lat="46.03517001023456" lon="11.761125453272756"><ele>400.0</ele><time>2026-03-24T15:01:28.999Z</time></trkpt><trkpt lat="46.03528626003615" lon="11.761140007078582"><ele>400.0</ele><time>2026-03-24T15:01:29.999Z</time></trkpt><trkpt lat="46.035375248198996" lon="11.76118455519287"><ele>400.0</ele><time>2026-03-24T15:01:30.999Z</time></trkpt><trkpt lat="46.03548943692514" lon="11.761217437929389"><ele>400.0</ele><time>2026-03-24T15:01:31.999Z</time></trkpt><trkpt lat="46.03559495762505" lon="11.761247824498161"><ele>400.0</ele><time>2026-03-24T15:01:32.999Z</time></trkpt><trkpt lat="46.035704565120355" lon="11.761280106787313"><ele>400.0</ele><time>2026-03-24T15:01:33.999Z</time></trkpt><trkpt lat="46.035984445932876" lon="11.761392685424216"><ele>398.75</ele><time>2026-03-24T15:01:34.999Z</time></trkpt><trkpt lat="46.03611111666244" lon="11.76147293903702"><ele>397.5</ele><time>2026-03-24T15:01:35.999Z</time></trkpt><trkpt lat="46.036252840344446" lon="11.761474946146773"><ele>396.25</ele><time>2026-03-24T15:01:36.999Z</time></trkpt><trkpt lat="46.036358174282704" lon="11.76146558344208"><ele>395.0</ele><time>2026-03-24T15:01:37.999Z</time></trkpt><trkpt lat="46.03647345062834" lon="11.7615251511773"><ele>395.0</ele><time>2026-03-24T15:01:38.999Z</time></trkpt><trkpt lat="46.03658192973317" lon="11.761613263099981"><ele>395.0</ele><time>2026-03-24T15:01:39.999Z</time></trkpt><trkpt lat="46.03670733306291" lon="11.761702900270398"><ele>395.0</ele><time>2026-03-24T15:01:40.999Z</time></trkpt><trkpt lat="46.03681127166198" lon="11.761812787092294"><ele>395.0</ele><time>2026-03-24T15:01:41.999Z</time></trkpt><trkpt lat="46.03691814619548" lon="11.761936309524543"><ele>393.5</ele><time>2026-03-24T15:01:42.999Z</time></trkpt><trkpt lat="46.03701166054992" lon="11.762080052921291"><ele>392.0</ele><time>2026-03-24T15:01:43.999Z</time></trkpt><trkpt lat="46.03710077390193" lon="11.762230138335628"><ele>390.5</ele><time>2026-03-24T15:01:44.999Z</time></trkpt><trkpt lat="46.037184354030025" lon="11.762356548306636"><ele>389.0</ele><time>2026-03-24T15:01:45.999Z</time></trkpt><trkpt lat="46.037264990854204" lon="11.76245570516046"><ele>389.0</ele><time>2026-03-24T15:01:46.999Z</time></trkpt><trkpt lat="46.03734791949694" lon="11.76253694352379"><ele>389.0</ele><time>2026-03-24T15:01:47.999Z</time></trkpt><trkpt lat="46.03742946553427" lon="11.762601983418865"><ele>389.0</ele><time>2026-03-24T15:01:48.999Z</time></trkpt><trkpt lat="46.037516976308744" lon="11.76266205606032"><ele>389.0</ele><time>2026-03-24T15:01:49.999Z</time></trkpt><trkpt lat="46.037611925020066" lon="11.762732503253062"><ele>389.0</ele><time>2026-03-24T15:01:50.999Z</time></trkpt><trkpt lat="46.03771554149823" lon="11.762837393896328"><ele>388.5</ele><time>2026-03-24T15:01:51.999Z</time></trkpt><trkpt lat="46.037817821874235" lon="11.762971585229433"><ele>388.0</ele><time>2026-03-24T15:01:52.999Z</time></trkpt><trkpt lat="46.03790098792358" lon="11.76311308643075"><ele>387.5</ele><time>2026-03-24T15:01:53.999Z</time></trkpt><trkpt lat="46.037969567179" lon="11.763238443342273"><ele>387.0</ele><time>2026-03-24T15:01:54.999Z</time></trkpt><trkpt lat="46.038036695928724" lon="11.763362934194902"><ele>387.0</ele><time>2026-03-24T15:01:55.999Z</time></trkpt><trkpt lat="46.03810520274335" lon="11.763476478589306"><ele>387.0</ele><time>2026-03-24T15:01:56.999Z</time></trkpt><trkpt lat="46.0381729140939" lon="11.76359204837539"><ele>387.0</ele><time>2026-03-24T15:01:57.999Z</time></trkpt><trkpt lat="46.03825167707789" lon="11.763706416311459"><ele>387.0</ele><time>2026-03-24T15:01:58.999Z</time></trkpt><trkpt lat="46.038341681499965" lon="11.763808656425844"><ele>387.0</ele><time>2026-03-24T15:01:59.999Z</time></trkpt><trkpt lat="46.0384466770486" lon="11.763875840348181"><ele>388.5</ele><time>2026-03-24T15:02:00.999Z</time></trkpt><trkpt lat="46.038567041132794" lon="11.763905644330833"><ele>390.0</ele><time>2026-03-24T15:02:01.999Z</time></trkpt><trkpt lat="46.03868563298938" lon="11.763915296952996"><ele>391.5</ele><time>2026-03-24T15:02:02.999Z</time></trkpt><trkpt lat="46.038797538998104" lon="11.76390357058638"><ele>393.0</ele><time>2026-03-24T15:02:03.999Z</time></trkpt><trkpt lat="46.038900906558744" lon="11.763882038398876"><ele>393.0</ele><time>2026-03-24T15:02:04.999Z</time></trkpt><trkpt lat="46.03900608339808" lon="11.763860129159731"><ele>393.0</ele><time>2026-03-24T15:02:05.999Z</time></trkpt><trkpt lat="46.039115955579774" lon="11.763836808288632"><ele>393.0</ele><time>2026-03-24T15:02:07.022Z</time></trkpt><trkpt lat="46.03922844830757" lon="11.763811628487879"><ele>393.0</ele><time>2026-03-24T15:02:08.013Z</time></trkpt><trkpt lat="46.039359726133036" lon="11.763776004607932"><ele>400.0</ele><time>2026-03-24T15:02:09.018Z</time></trkpt><trkpt lat="46.03950206537032" lon="11.763758513788467"><ele>407.0</ele><time>2026-03-24T15:02:10.022Z</time></trkpt><trkpt lat="46.03973241636635" lon="11.763685607979514"><ele>414.0</ele><time>2026-03-24T15:02:11.014Z</time></trkpt><trkpt lat="46.0399188413272" lon="11.76360421352008"><ele>427.5</ele><time>2026-03-24T15:02:12.016Z</time></trkpt><trkpt lat="46.04005039896156" lon="11.763523850282548"><ele>441.0</ele><time>2026-03-24T15:02:13.014Z</time></trkpt><trkpt lat="46.04018284093356" lon="11.763475061993473"><ele>454.5</ele><time>2026-03-24T15:02:13.999Z</time></trkpt><trkpt lat="46.04031573230224" lon="11.763520897481126"><ele>468.0</ele><time>2026-03-24T15:02:14.999Z</time></trkpt><trkpt lat="46.04045722753914" lon="11.763513271230877"><ele>468.0</ele><time>2026-03-24T15:02:15.999Z</time></trkpt><trkpt lat="46.04059341041353" lon="11.763512923779446"><ele>468.0</ele><time>2026-03-24T15:02:16.999Z</time></trkpt><trkpt lat="46.04072701249617" lon="11.763502581114173"><ele>468.0</ele><time>2026-03-24T15:02:17.999Z</time></trkpt><trkpt lat="46.04086004555275" lon="11.76347572394754"><ele>468.0</ele><time>2026-03-24T15:02:18.999Z</time></trkpt><trkpt lat="46.04098800834339" lon="11.763434450091983"><ele>469.5</ele><time>2026-03-24T15:02:19.999Z</time></trkpt><trkpt lat="46.04113221800787" lon="11.763375309998558"><ele>471.0</ele><time>2026-03-24T15:02:20.999Z</time></trkpt><trkpt lat="46.041261946444884" lon="11.763339527913788"><ele>472.5</ele><time>2026-03-24T15:02:22.019Z</time></trkpt><trkpt lat="46.04140005097616" lon="11.763280216957796"><ele>474.0</ele><time>2026-03-24T15:02:23.024Z</time></trkpt><trkpt lat="46.041532137311684" lon="11.76321231684649"><ele>475.5</ele><time>2026-03-24T15:02:24.019Z</time></trkpt><trkpt lat="46.0416950264458" lon="11.763167260428729"><ele>477.0</ele><time>2026-03-24T15:02:25.018Z</time></trkpt><trkpt lat="46.042996974665186" lon="11.762422669858967"><ele>416.0</ele><time>2026-03-24T15:02:28.128Z</time></trkpt><trkpt lat="46.04342511180499" lon="11.762216773292065"><ele>416.0</ele><time>2026-03-24T15:02:29.132Z</time></trkpt><trkpt lat="46.04407085575726" lon="11.76199723967515"><ele>415.66666666666663</ele><time>2026-03-24T15:02:37.999Z</time></trkpt><trkpt lat="46.044243961751036" lon="11.761926801081911"><ele>415.33333333333337</ele><time>2026-03-24T15:02:38.999Z</time></trkpt><trkpt lat="46.04439670344723" lon="11.761773360674717"><ele>415.0</ele><time>2026-03-24T15:02:39.998Z</time></trkpt><trkpt lat="46.04455464068087" lon="11.761660140854705"><ele>415.0</ele><time>2026-03-24T15:02:40.998Z</time></trkpt><trkpt lat="46.04469094141454" lon="11.761591505251005"><ele>415.0</ele><time>2026-03-24T15:02:41.998Z</time></trkpt><trkpt lat="46.04480179083603" lon="11.761533409675218"><ele>415.0</ele><time>2026-03-24T15:02:42.998Z</time></trkpt><trkpt lat="46.04489489930063" lon="11.761495320612784"><ele>415.0</ele><time>2026-03-24T15:02:43.998Z</time></trkpt><trkpt lat="46.04500075730286" lon="11.761470876794053"><ele>412.75</ele><time>2026-03-24T15:02:45Z</time></trkpt><trkpt lat="46.0450931419619" lon="11.761449856090431"><ele>410.5</ele><time>2026-03-24T15:02:46Z</time></trkpt><trkpt lat="46.04522827007385" lon="11.761436242334662"><ele>408.25</ele><time>2026-03-24T15:02:47Z</time></trkpt><trkpt lat="46.04537802768335" lon="11.761436108687338"><ele>406.0</ele><time>2026-03-24T15:02:48Z</time></trkpt><trkpt lat="46.04554358494385" lon="11.761438161148044"><ele>406.0</ele><time>2026-03-24T15:02:49Z</time></trkpt><trkpt lat="46.04571227180119" lon="11.761462863797576"><ele>406.0</ele><time>2026-03-24T15:02:50Z</time></trkpt><trkpt lat="46.0458850101482" lon="11.761476539843393"><ele>406.0</ele><time>2026-03-24T15:02:51Z</time></trkpt><trkpt lat="46.0460704008082" lon="11.761492746410932"><ele>403.33333333333337</ele><time>2026-03-24T15:02:52Z</time></trkpt><trkpt lat="46.04625593320734" lon="11.761540163104442"><ele>400.66666666666663</ele><time>2026-03-24T15:02:53Z</time></trkpt><trkpt lat="46.04645439653262" lon="11.761554507234921"><ele>398.0</ele><time>2026-03-24T15:02:54Z</time></trkpt><trkpt lat="46.046624471637436" lon="11.76156136746206"><ele>402.25</ele><time>2026-03-24T15:02:55Z</time></trkpt><trkpt lat="46.04677862383021" lon="11.761559605251193"><ele>406.5</ele><time>2026-03-24T15:02:56Z</time></trkpt><trkpt lat="46.046907107948876" lon="11.7615870058894"><ele>410.75</ele><time>2026-03-24T15:02:57Z</time></trkpt><trkpt lat="46.04705990560854" lon="11.761594427577194"><ele>415.0</ele><time>2026-03-24T15:02:58Z</time></trkpt><trkpt lat="46.04719667425556" lon="11.761565401839611"><ele>415.0</ele><time>2026-03-24T15:02:59Z</time></trkpt><trkpt lat="46.04731698142026" lon="11.761790347504876"><ele>415.0</ele><time>2026-03-24T15:03:00Z</time></trkpt><trkpt lat="46.04745467940676" lon="11.761906843673119"><ele>415.0</ele><time>2026-03-24T15:03:01Z</time></trkpt><trkpt lat="46.047597293860676" lon="11.762002659238021"><ele>408.75</ele><time>2026-03-24T15:03:02Z</time></trkpt><trkpt lat="46.04772432340401" lon="11.762102527494752"><ele>402.5</ele><time>2026-03-24T15:03:03Z</time></trkpt><trkpt lat="46.04783541441494" lon="11.76220132893348"><ele>396.25</ele><time>2026-03-24T15:03:04Z</time></trkpt><trkpt lat="46.04794065158148" lon="11.762293338757388"><ele>390.0</ele><time>2026-03-24T15:03:05Z</time></trkpt><trkpt lat="46.048028874604434" lon="11.762407141125882"><ele>390.0</ele><time>2026-03-24T15:03:06Z</time></trkpt><trkpt lat="46.04812751331937" lon="11.762504297622407"><ele>390.0</ele><time>2026-03-24T15:03:07Z</time></trkpt><trkpt lat="46.048236568643425" lon="11.762593715160861"><ele>390.0</ele><time>2026-03-24T15:03:08Z</time></trkpt><trkpt lat="46.04835178495653" lon="11.762648661182752"><ele>390.0</ele><time>2026-03-24T15:03:09Z</time></trkpt><trkpt lat="46.04847514316298" lon="11.762702745680647"><ele>389.66666666666663</ele><time>2026-03-24T15:03:10Z</time></trkpt><trkpt lat="46.04860763290159" lon="11.762710120502073"><ele>389.3333333333333</ele><time>2026-03-24T15:03:11Z</time></trkpt><trkpt lat="46.048767275944776" lon="11.762665281207413"><ele>389.0</ele><time>2026-03-24T15:03:12Z</time></trkpt><trkpt lat="46.04894952827184" lon="11.762625668302555"><ele>401.0</ele><time>2026-03-24T15:03:13Z</time></trkpt><trkpt lat="46.04916669521135" lon="11.762592959451696"><ele>413.0</ele><time>2026-03-24T15:03:14Z</time></trkpt><trkpt lat="46.04938848348658" lon="11.76259620111337"><ele>425.0</ele><time>2026-03-24T15:03:15Z</time></trkpt><trkpt lat="46.04960604302018" lon="11.762587126686206"><ele>425.0</ele><time>2026-03-24T15:03:16Z</time></trkpt><trkpt lat="46.04980014616838" lon="11.76257199299296"><ele>425.0</ele><time>2026-03-24T15:03:17Z</time></trkpt><trkpt lat="46.04997496583916" lon="11.762568148597584"><ele>425.0</ele><time>2026-03-24T15:03:18Z</time></trkpt><trkpt lat="46.05012245143942" lon="11.762621606421735"><ele>417.0</ele><time>2026-03-24T15:03:19Z</time></trkpt><trkpt lat="46.05025204364937" lon="11.76274375616051"><ele>409.0</ele><time>2026-03-24T15:03:20Z</time></trkpt><trkpt lat="46.05036399468472" lon="11.762832886119929"><ele>401.0</ele><time>2026-03-24T15:03:21Z</time></trkpt><trkpt lat="46.05045277759067" lon="11.762904159910214"><ele>393.0</ele><time>2026-03-24T15:03:22Z</time></trkpt><trkpt lat="46.05053999203952" lon="11.762974174604153"><ele>393.0</ele><time>2026-03-24T15:03:23Z</time></trkpt><trkpt lat="46.050616271567925" lon="11.763033626467926"><ele>393.0</ele><time>2026-03-24T15:03:24Z</time></trkpt><trkpt lat="46.05068567117113" lon="11.763081227139295"><ele>393.0</ele><time>2026-03-24T15:03:25Z</time></trkpt><trkpt lat="46.05074555567991" lon="11.763119452706837"><ele>393.0</ele><time>2026-03-24T15:03:26Z</time></trkpt><trkpt lat="46.050836614455385" lon="11.763172391496628"><ele>393.0</ele><time>2026-03-24T15:03:28Z</time></trkpt><trkpt lat="46.05089888358392" lon="11.763188294545843"><ele>393.0</ele><time>2026-03-24T15:03:31Z</time></trkpt><trkpt lat="46.05095519038202" lon="11.76323503766526"><ele>393.79999999999995</ele><time>2026-03-24T15:07:05Z</time></trkpt><trkpt lat="46.05101977085246" lon="11.763271648444185"><ele>394.6</ele><time>2026-03-24T15:07:06Z</time></trkpt><trkpt lat="46.05109609511981" lon="11.763306488585524"><ele>395.4</ele><time>2026-03-24T15:07:07Z</time></trkpt><trkpt lat="46.051188229591816" lon="11.76336323252779"><ele>396.20000000000005</ele><time>2026-03-24T15:07:08Z</time></trkpt><trkpt lat="46.051256085445296" lon="11.76346636544411"><ele>397.0</ele><time>2026-03-24T15:07:09Z</time></trkpt><trkpt lat="46.051324651750534" lon="11.763579797708918"><ele>397.0</ele><time>2026-03-24T15:07:10Z</time></trkpt><trkpt lat="46.051397807457214" lon="11.763701402638231"><ele>397.0</ele><time>2026-03-24T15:07:11Z</time></trkpt><trkpt lat="46.05148113854905" lon="11.7638142712085"><ele>397.0</ele><time>2026-03-24T15:07:12Z</time></trkpt><trkpt lat="46.051572786392924" lon="11.763892654440623"><ele>397.0</ele><time>2026-03-24T15:07:13Z</time></trkpt><trkpt lat="46.051660691325715" lon="11.763935464181964"><ele>397.0</ele><time>2026-03-24T15:07:14Z</time></trkpt><trkpt lat="46.05176701955449" lon="11.763935601840371"><ele>399.40000000000003</ele><time>2026-03-24T15:07:15Z</time></trkpt><trkpt lat="46.05185211473351" lon="11.763859188083408"><ele>401.8</ele><time>2026-03-24T15:07:16Z</time></trkpt><trkpt lat="46.051927059954714" lon="11.76377700864083"><ele>404.2</ele><time>2026-03-24T15:07:17Z</time></trkpt><trkpt lat="46.052015800414416" lon="11.763678925373371"><ele>406.6</ele><time>2026-03-24T15:07:18Z</time></trkpt><trkpt lat="46.052112640749705" lon="11.76358078891603"><ele>409.0</ele><time>2026-03-24T15:07:19Z</time></trkpt><trkpt lat="46.05220798935684" lon="11.763530474107181"><ele>414.75</ele><time>2026-03-24T15:07:20Z</time></trkpt><trkpt lat="46.05231652742913" lon="11.76349558375185"><ele>420.5</ele><time>2026-03-24T15:07:21Z</time></trkpt><trkpt lat="46.05243502277915" lon="11.763492159331113"><ele>426.25</ele><time>2026-03-24T15:07:22Z</time></trkpt><trkpt lat="46.052558780648816" lon="11.763486110841107"><ele>432.0</ele><time>2026-03-24T15:07:23Z</time></trkpt><trkpt lat="46.05269034818576" lon="11.763483057005946"><ele>432.75</ele><time>2026-03-24T15:07:24Z</time></trkpt><trkpt lat="46.0528212365152" lon="11.763507219971752"><ele>433.5</ele><time>2026-03-24T15:07:25Z</time></trkpt><trkpt lat="46.052939882705296" lon="11.76350913596927"><ele>434.25</ele><time>2026-03-24T15:07:26Z</time></trkpt><trkpt lat="46.05304511839729" lon="11.763506477440998"><ele>435.0</ele><time>2026-03-24T15:07:27Z</time></trkpt><trkpt lat="46.05314330220855" lon="11.763501858087844"><ele>435.0</ele><time>2026-03-24T15:07:28Z</time></trkpt><trkpt lat="46.053226728203995" lon="11.763484195187464"><ele>435.0</ele><time>2026-03-24T15:07:29Z</time></trkpt><trkpt lat="46.05331213107201" lon="11.763449927129697"><ele>435.0</ele><time>2026-03-24T15:07:30Z</time></trkpt><trkpt lat="46.05340361494131" lon="11.76338403269068"><ele>435.0</ele><time>2026-03-24T15:07:31Z</time></trkpt><trkpt lat="46.053538989071875" lon="11.763295739934874"><ele>435.0</ele><time>2026-03-24T15:07:32Z</time></trkpt><trkpt lat="46.0536501611929" lon="11.763202792349517"><ele>429.0</ele><time>2026-03-24T15:07:33Z</time></trkpt><trkpt lat="46.05374690780804" lon="11.763090403210178"><ele>423.0</ele><time>2026-03-24T15:07:34Z</time></trkpt><trkpt lat="46.053846244521516" lon="11.763037394973335"><ele>417.0</ele><time>2026-03-24T15:07:35Z</time></trkpt><trkpt lat="46.05396278237369" lon="11.763001727047365"><ele>411.0</ele><time>2026-03-24T15:07:36Z</time></trkpt><trkpt lat="46.05407490139236" lon="11.762966492338078"><ele>409.0</ele><time>2026-03-24T15:07:37Z</time></trkpt><trkpt lat="46.054163810783564" lon="11.7629050484119"><ele>407.0</ele><time>2026-03-24T15:07:38Z</time></trkpt><trkpt lat="46.0542521328783" lon="11.762796827012153"><ele>405.0</ele><time>2026-03-24T15:07:39Z</time></trkpt><trkpt lat="46.054313485817794" lon="11.762684014683035"><ele>403.0</ele><time>2026-03-24T15:07:40Z</time></trkpt><trkpt lat="46.05438945574622" lon="11.762564140635448"><ele>401.0</ele><time>2026-03-24T15:07:41Z</time></trkpt><trkpt lat="46.054464938357015" lon="11.762462603563252"><ele>405.99999999999994</ele><time>2026-03-24T15:07:42Z</time></trkpt><trkpt lat="46.05452684754722" lon="11.762432608902827"><ele>411.0</ele><time>2026-03-24T15:07:43Z</time></trkpt><trkpt lat="46.05461937369004" lon="11.762434494704062"><ele>416.0</ele><time>2026-03-24T15:07:44Z</time></trkpt><trkpt lat="46.054721646634675" lon="11.762445518215767"><ele>421.0</ele><time>2026-03-24T15:07:45Z</time></trkpt><trkpt lat="46.054800459710755" lon="11.76248351476855"><ele>425.99999999999994</ele><time>2026-03-24T15:07:46Z</time></trkpt><trkpt lat="46.054868072653285" lon="11.76256032535646"><ele>431.0</ele><time>2026-03-24T15:07:47Z</time></trkpt><trkpt lat="46.05492041108667" lon="11.762660061063034"><ele>423.5</ele><time>2026-03-24T15:07:48Z</time></trkpt><trkpt lat="46.054980530743784" lon="11.762780836515743"><ele>416.0</ele><time>2026-03-24T15:07:49Z</time></trkpt><trkpt lat="46.05507559505369" lon="11.762867846382264"><ele>408.5</ele><time>2026-03-24T15:07:50Z</time></trkpt><trkpt lat="46.05518945546926" lon="11.762927194236878"><ele>401.0</ele><time>2026-03-24T15:07:51Z</time></trkpt><trkpt lat="46.05530294540945" lon="11.762992791731387"><ele>401.0</ele><time>2026-03-24T15:07:52Z</time></trkpt><trkpt lat="46.05542647274147" lon="11.763052873514859"><ele>401.0</ele><time>2026-03-24T15:07:53Z</time></trkpt><trkpt lat="46.0555488682812" lon="11.76310162865406"><ele>401.0</ele><time>2026-03-24T15:07:54Z</time></trkpt><trkpt lat="46.055687808324315" lon="11.763146166247981"><ele>401.0</ele><time>2026-03-24T15:07:55Z</time></trkpt><trkpt lat="46.05579741948483" lon="11.763189035777144"><ele>403.0</ele><time>2026-03-24T15:07:56Z</time></trkpt><trkpt lat="46.055895943635385" lon="11.763188012405923"><ele>405.0</ele><time>2026-03-24T15:07:57Z</time></trkpt><trkpt lat="46.05600672986384" lon="11.763164538618115"><ele>407.0</ele><time>2026-03-24T15:07:58Z</time></trkpt><trkpt lat="46.056112238006286" lon="11.763102338402897"><ele>409.0</ele><time>2026-03-24T15:07:59Z</time></trkpt><trkpt lat="46.0562226860494" lon="11.763013175566256"><ele>409.0</ele><time>2026-03-24T15:07:59.999Z</time></trkpt><trkpt lat="46.05635265107229" lon="11.76291563934783"><ele>409.0</ele><time>2026-03-24T15:08:00.999Z</time></trkpt><trkpt lat="46.056506002311565" lon="11.762811092772948"><ele>409.0</ele><time>2026-03-24T15:08:01.999Z</time></trkpt><trkpt lat="46.05664659497979" lon="11.762749597701882"><ele>407.0</ele><time>2026-03-24T15:08:02.999Z</time></trkpt><trkpt lat="46.05679425119127" lon="11.762726303450158"><ele>405.0</ele><time>2026-03-24T15:08:03.999Z</time></trkpt><trkpt lat="46.05694412409453" lon="11.762725243078796"><ele>403.0</ele><time>2026-03-24T15:08:04.999Z</time></trkpt><trkpt lat="46.05710782822553" lon="11.762762361420421"><ele>403.0</ele><time>2026-03-24T15:08:05.999Z</time></trkpt><trkpt lat="46.057280024322495" lon="11.762837808239981"><ele>403.0</ele><time>2026-03-24T15:08:06.999Z</time></trkpt><trkpt lat="46.05745527954309" lon="11.76291804444259"><ele>403.0</ele><time>2026-03-24T15:08:07.999Z</time></trkpt><trkpt lat="46.05761839392794" lon="11.762991134289301"><ele>404.75</ele><time>2026-03-24T15:08:08.999Z</time></trkpt><trkpt lat="46.057762358012475" lon="11.763058887599453"><ele>406.5</ele><time>2026-03-24T15:08:09.999Z</time></trkpt><trkpt lat="46.05789393836419" lon="11.763146522249349"><ele>408.25</ele><time>2026-03-24T15:08:10.999Z</time></trkpt><trkpt lat="46.05801853206358" lon="11.763247713312603"><ele>410.0</ele><time>2026-03-24T15:08:11.999Z</time></trkpt><trkpt lat="46.058135476827154" lon="11.763375776400245"><ele>410.0</ele><time>2026-03-24T15:08:12.999Z</time></trkpt><trkpt lat="46.058247728722364" lon="11.763515302045452"><ele>410.0</ele><time>2026-03-24T15:08:13.999Z</time></trkpt><trkpt lat="46.05838452937024" lon="11.76360794342624"><ele>410.0</ele><time>2026-03-24T15:08:14.999Z</time></trkpt><trkpt lat="46.058550621340764" lon="11.763677032882748"><ele>408.75</ele><time>2026-03-24T15:08:15.999Z</time></trkpt><trkpt lat="46.05869701900716" lon="11.763721750515122"><ele>407.5</ele><time>2026-03-24T15:08:16.999Z</time></trkpt><trkpt lat="46.05883697162295" lon="11.763748978097869"><ele>406.25</ele><time>2026-03-24T15:08:17.999Z</time></trkpt><trkpt lat="46.058953518471704" lon="11.76374307962729"><ele>405.0</ele><time>2026-03-24T15:08:18.999Z</time></trkpt><trkpt lat="46.05903710993573" lon="11.76368899470704"><ele>405.0</ele><time>2026-03-24T15:08:19.999Z</time></trkpt><trkpt lat="46.059114126321205" lon="11.763598466139044"><ele>405.0</ele><time>2026-03-24T15:08:20.999Z</time></trkpt><trkpt lat="46.059191343540036" lon="11.763461821533184"><ele>405.0</ele><time>2026-03-24T15:08:21.999Z</time></trkpt><trkpt lat="46.05925888456779" lon="11.76332287069341"><ele>405.0</ele><time>2026-03-24T15:08:22.999Z</time></trkpt><trkpt lat="46.05935060751715" lon="11.763169746181182"><ele>411.25</ele><time>2026-03-24T15:08:23.999Z</time></trkpt><trkpt lat="46.05945825505835" lon="11.763037721664425"><ele>417.5</ele><time>2026-03-24T15:08:24.999Z</time></trkpt><trkpt lat="46.059566924371275" lon="11.762925988572059"><ele>423.75</ele><time>2026-03-24T15:08:25.999Z</time></trkpt><trkpt lat="46.05968863111658" lon="11.762852524829583"><ele>430.0</ele><time>2026-03-24T15:08:26.999Z</time></trkpt><trkpt lat="46.05980075447519" lon="11.762789296927522"><ele>430.0</ele><time>2026-03-24T15:08:27.999Z</time></trkpt><trkpt lat="46.05990823267986" lon="11.762711993900265"><ele>430.0</ele><time>2026-03-24T15:08:28.999Z</time></trkpt><trkpt lat="46.0600070857187" lon="11.762661852464463"><ele>430.0</ele><time>2026-03-24T15:08:29.999Z</time></trkpt><trkpt lat="46.0600975291243" lon="11.762601058841515"><ele>430.0</ele><time>2026-03-24T15:08:30.999Z</time></trkpt><trkpt lat="46.06019724391829" lon="11.76256474647138"><ele>430.0</ele><time>2026-03-24T15:08:31.999Z</time></trkpt><trkpt lat="46.06028300318989" lon="11.762533688754571"><ele>431.83333333333337</ele><time>2026-03-24T15:08:32.999Z</time></trkpt><trkpt lat="46.06035335293941" lon="11.76252136899919"><ele>433.6666666666667</ele><time>2026-03-24T15:08:33.999Z</time></trkpt><trkpt lat="46.06044154687739" lon="11.762622071971975"><ele>435.5</ele><time>2026-03-24T15:08:35.999Z</time></trkpt><trkpt lat="46.06048108754042" lon="11.762708303707171"><ele>437.33333333333337</ele><time>2026-03-24T15:08:36.999Z</time></trkpt><trkpt lat="46.060520312209164" lon="11.762802246934505"><ele>439.1666666666667</ele><time>2026-03-24T15:08:37.999Z</time></trkpt><trkpt lat="46.060551861557265" lon="11.762929809857772"><ele>441.0</ele><time>2026-03-24T15:08:38.999Z</time></trkpt><trkpt lat="46.060593611091186" lon="11.763066609978054"><ele>440.6</ele><time>2026-03-24T15:08:39.999Z</time></trkpt><trkpt lat="46.060644244453435" lon="11.76321710777607"><ele>440.20000000000005</ele><time>2026-03-24T15:08:40.999Z</time></trkpt><trkpt lat="46.06069089545649" lon="11.763357258328643"><ele>439.79999999999995</ele><time>2026-03-24T15:08:41.999Z</time></trkpt><trkpt lat="46.0607083888063" lon="11.763473942955203"><ele>439.4</ele><time>2026-03-24T15:08:42.999Z</time></trkpt><trkpt lat="46.06076825443414" lon="11.763559281489064"><ele>439.0</ele><time>2026-03-24T15:08:43.999Z</time></trkpt><trkpt lat="46.06083685720514" lon="11.763591689820025"><ele>439.00000000000006</ele><time>2026-03-24T15:08:44.999Z</time></trkpt><trkpt lat="46.06090124258826" lon="11.763584236790823"><ele>439.0</ele><time>2026-03-24T15:08:45.999Z</time></trkpt><trkpt lat="46.06097051479023" lon="11.763551999415142"><ele>439.0</ele><time>2026-03-24T15:08:46.999Z</time></trkpt><trkpt lat="46.061059174470884" lon="11.763529450846569"><ele>439.0</ele><time>2026-03-24T15:08:47.999Z</time></trkpt><trkpt lat="46.06114218847184" lon="11.763470900286075"><ele>439.00000000000006</ele><time>2026-03-24T15:08:48.999Z</time></trkpt><trkpt lat="46.06123408593789" lon="11.763423912607726"><ele>439.0</ele><time>2026-03-24T15:08:49.999Z</time></trkpt><trkpt lat="46.06134020047741" lon="11.763413565766315"><ele>440.5</ele><time>2026-03-24T15:08:50.999Z</time></trkpt><trkpt lat="46.06145487081586" lon="11.763424773703196"><ele>442.0</ele><time>2026-03-24T15:08:51.999Z</time></trkpt><trkpt lat="46.06158169147587" lon="11.763485573453911"><ele>443.5</ele><time>2026-03-24T15:08:52.999Z</time></trkpt><trkpt lat="46.06170954897438" lon="11.763578234231131"><ele>445.0</ele><time>2026-03-24T15:08:53.999Z</time></trkpt><trkpt lat="46.06183244018042" lon="11.76372311917969"><ele>445.0</ele><time>2026-03-24T15:08:54.999Z</time></trkpt><trkpt lat="46.061961573174564" lon="11.763858651340232"><ele>445.0</ele><time>2026-03-24T15:08:55.999Z</time></trkpt><trkpt lat="46.06211910040115" lon="11.763956271405315"><ele>445.0</ele><time>2026-03-24T15:08:56.999Z</time></trkpt><trkpt lat="46.062298662915815" lon="11.764008158715132"><ele>441.6666666666667</ele><time>2026-03-24T15:08:57.999Z</time></trkpt><trkpt lat="46.06248603528236" lon="11.764014494686467"><ele>438.33333333333337</ele><time>2026-03-24T15:08:58.999Z</time></trkpt><trkpt lat="46.062680880563484" lon="11.763977599957636"><ele>435.0</ele><time>2026-03-24T15:08:59.999Z</time></trkpt><trkpt lat="46.06288309302434" lon="11.763986695994703"><ele>435.0</ele><time>2026-03-24T15:09:00.999Z</time></trkpt><trkpt lat="46.0630856828711" lon="11.764020432332387"><ele>435.0</ele><time>2026-03-24T15:09:01.999Z</time></trkpt><trkpt lat="46.06329995201044" lon="11.76407392407615"><ele>435.0</ele><time>2026-03-24T15:09:03Z</time></trkpt><trkpt lat="46.063515395644636" lon="11.764119267767942"><ele>436.66666666666663</ele><time>2026-03-24T15:09:04Z</time></trkpt><trkpt lat="46.06373164466175" lon="11.764168359860982"><ele>438.3333333333333</ele><time>2026-03-24T15:09:05Z</time></trkpt><trkpt lat="46.063935110705394" lon="11.764214430358216"><ele>440.0</ele><time>2026-03-24T15:09:06Z</time></trkpt><trkpt lat="46.06411764276616" lon="11.764285794507876"><ele>451.3333333333333</ele><time>2026-03-24T15:09:07Z</time></trkpt><trkpt lat="46.06429432843185" lon="11.764365051214664"><ele>462.66666666666663</ele><time>2026-03-24T15:09:08Z</time></trkpt><trkpt lat="46.06446427149516" lon="11.764445864003177"><ele>474.0</ele><time>2026-03-24T15:09:09Z</time></trkpt><trkpt lat="46.064622279327224" lon="11.764536337417791"><ele>474.0</ele><time>2026-03-24T15:09:10Z</time></trkpt><trkpt lat="46.06478415634652" lon="11.764623381758073"><ele>474.0</ele><time>2026-03-24T15:09:11.023Z</time></trkpt><trkpt lat="46.06494327699586" lon="11.764705750627714"><ele>474.0</ele><time>2026-03-24T15:09:12.023Z</time></trkpt><trkpt lat="46.06510169165042" lon="11.764797399936892"><ele>483.33333333333337</ele><time>2026-03-24T15:09:13.023Z</time></trkpt><trkpt lat="46.0652580156213" lon="11.76488193501231"><ele>492.6666666666667</ele><time>2026-03-24T15:09:14.02Z</time></trkpt><trkpt lat="46.065421854785065" lon="11.764896278347758"><ele>502.0</ele><time>2026-03-24T15:09:15.017Z</time></trkpt><trkpt lat="46.06682259697981" lon="11.764662260602377"><ele>502.0</ele><time>2026-03-24T15:09:18.126Z</time></trkpt><trkpt lat="46.067250238004824" lon="11.764463121305164"><ele>502.0</ele><time>2026-03-24T15:09:19.126Z</time></trkpt><trkpt lat="46.067657314326695" lon="11.764189661537959"><ele>485.5</ele><time>2026-03-24T15:09:20.126Z</time></trkpt><trkpt lat="46.06803926082965" lon="11.763852227551814"><ele>469.0</ele><time>2026-03-24T15:09:21.123Z</time></trkpt><trkpt lat="46.068419474960955" lon="11.76350316768651"><ele>462.0</ele><time>2026-03-24T15:09:22.126Z</time></trkpt><trkpt lat="46.0686524" lon="11.7632953"><ele>455.0</ele><time>2026-03-24T15:09:23.126Z</time></trkpt><trkpt lat="46.06985530820309" lon="11.762321032594668"><ele>456.66666666666663</ele><time>2026-03-24T15:09:40Z</time></trkpt><trkpt lat="46.069992987366135" lon="11.76222747706031"><ele>458.33333333333337</ele><time>2026-03-24T15:09:41Z</time></trkpt><trkpt lat="46.07020090508003" lon="11.762108936139015"><ele>460.0</ele><time>2026-03-24T15:09:43Z</time></trkpt><trkpt lat="46.07038440325247" lon="11.762045080782713"><ele>460.0</ele><time>2026-03-24T15:09:44Z</time></trkpt><trkpt lat="46.07055478816976" lon="11.761957794468772"><ele>460.0</ele><time>2026-03-24T15:09:45Z</time></trkpt><trkpt lat="46.07071536347705" lon="11.761882517445507"><ele>460.0</ele><time>2026-03-24T15:09:46Z</time></trkpt><trkpt lat="46.070855466902565" lon="11.761834137843303"><ele>464.0</ele><time>2026-03-24T15:09:47Z</time></trkpt><trkpt lat="46.070998759640915" lon="11.76184989561437"><ele>468.0</ele><time>2026-03-24T15:09:48Z</time></trkpt><trkpt lat="46.07114333888293" lon="11.76192110372915"><ele>472.0</ele><time>2026-03-24T15:09:49Z</time></trkpt><trkpt lat="46.07127730715276" lon="11.762033720409804"><ele>472.0</ele><time>2026-03-24T15:09:50Z</time></trkpt><trkpt lat="46.07141554802805" lon="11.762125084620163"><ele>472.0</ele><time>2026-03-24T15:09:51Z</time></trkpt><trkpt lat="46.07156316328113" lon="11.762171572865686"><ele>472.0</ele><time>2026-03-24T15:09:52Z</time></trkpt><trkpt lat="46.07171381230827" lon="11.762185307464382"><ele>468.6666666666667</ele><time>2026-03-24T15:09:52.999Z</time></trkpt><trkpt lat="46.07187038041923" lon="11.762232175214343"><ele>465.33333333333337</ele><time>2026-03-24T15:09:53.999Z</time></trkpt><trkpt lat="46.07201560471993" lon="11.762349003862418"><ele>462.0</ele><time>2026-03-24T15:09:54.999Z</time></trkpt><trkpt lat="46.07217998671701" lon="11.762445040254178"><ele>462.0</ele><time>2026-03-24T15:09:55.999Z</time></trkpt><trkpt lat="46.072350054408425" lon="11.762563786332565"><ele>462.0</ele><time>2026-03-24T15:09:56.999Z</time></trkpt><trkpt lat="46.07252855575046" lon="11.762695545715875"><ele>462.0</ele><time>2026-03-24T15:09:57.999Z</time></trkpt><trkpt lat="46.072708655350546" lon="11.762832142206848"><ele>472.66666666666663</ele><time>2026-03-24T15:09:58.999Z</time></trkpt><trkpt lat="46.07287033388566" lon="11.762964409637942"><ele>483.3333333333333</ele><time>2026-03-24T15:09:59.999Z</time></trkpt><trkpt lat="46.072999788220784" lon="11.763099522465412"><ele>494.0</ele><time>2026-03-24T15:10:00.999Z</time></trkpt><trkpt lat="46.073093289968085" lon="11.76323806131423"><ele>494.0</ele><time>2026-03-24T15:10:01.999Z</time></trkpt><trkpt lat="46.0731808437282" lon="11.763369756633363"><ele>494.0</ele><time>2026-03-24T15:10:02.999Z</time></trkpt><trkpt lat="46.07327769409725" lon="11.763453725360137"><ele>494.0</ele><time>2026-03-24T15:10:03.999Z</time></trkpt><trkpt lat="46.0733949364271" lon="11.763492897417619"><ele>494.0</ele><time>2026-03-24T15:10:04.999Z</time></trkpt><trkpt lat="46.07352764660323" lon="11.763497070998968"><ele>485.66666666666663</ele><time>2026-03-24T15:10:05.999Z</time></trkpt><trkpt lat="46.07369810617753" lon="11.763459415807915"><ele>477.33333333333337</ele><time>2026-03-24T15:10:06.999Z</time></trkpt><trkpt lat="46.073860340109384" lon="11.763471234230124"><ele>469.0</ele><time>2026-03-24T15:10:07.999Z</time></trkpt><trkpt lat="46.074034525202755" lon="11.763464306330208"><ele>464.75</ele><time>2026-03-24T15:10:08.999Z</time></trkpt><trkpt lat="46.07418895892973" lon="11.76343327864462"><ele>460.5</ele><time>2026-03-24T15:10:09.999Z</time></trkpt><trkpt lat="46.07433258415567" lon="11.763409803076305"><ele>456.25</ele><time>2026-03-24T15:10:10.999Z</time></trkpt><trkpt lat="46.07445872749651" lon="11.763442124046348"><ele>452.0</ele><time>2026-03-24T15:10:11.999Z</time></trkpt><trkpt lat="46.074567879636746" lon="11.763525666242721"><ele>470.3333333333333</ele><time>2026-03-24T15:10:12.999Z</time></trkpt><trkpt lat="46.07468925670611" lon="11.763651695250001"><ele>488.66666666666663</ele><time>2026-03-24T15:10:13.999Z</time></trkpt><trkpt lat="46.074789452693445" lon="11.763802379265918"><ele>507.0</ele><time>2026-03-24T15:10:14.999Z</time></trkpt><trkpt lat="46.07489139065473" lon="11.764000607534486"><ele>510.66666666666663</ele><time>2026-03-24T15:10:15.999Z</time></trkpt><trkpt lat="46.07498512045554" lon="11.764190508307232"><ele>514.3333333333333</ele><time>2026-03-24T15:10:16.999Z</time></trkpt><trkpt lat="46.075090593737684" lon="11.764355500732782"><ele>518.0</ele><time>2026-03-24T15:10:17.999Z</time></trkpt><trkpt lat="46.07522436799483" lon="11.764501097841354"><ele>518.0</ele><time>2026-03-24T15:10:18.999Z</time></trkpt><trkpt lat="46.07538200346353" lon="11.764631541493337"><ele>518.0</ele><time>2026-03-24T15:10:19.999Z</time></trkpt><trkpt lat="46.07556236685699" lon="11.764764412898504"><ele>518.0</ele><time>2026-03-24T15:10:20.999Z</time></trkpt><trkpt lat="46.07576317313271" lon="11.764904898730414"><ele>512.5</ele><time>2026-03-24T15:10:21.999Z</time></trkpt><trkpt lat="46.07597269608245" lon="11.765048277932618"><ele>507.0</ele><time>2026-03-24T15:10:22.999Z</time></trkpt><trkpt lat="46.076180395176756" lon="11.765215607509214"><ele>507.0</ele><time>2026-03-24T15:10:23.999Z</time></trkpt><trkpt lat="46.07640327834091" lon="11.765365344134244"><ele>507.0</ele><time>2026-03-24T15:10:24.999Z</time></trkpt><trkpt lat="46.076602511016056" lon="11.765489820152585"><ele>493.0</ele><time>2026-03-24T15:10:25.999Z</time></trkpt><trkpt lat="46.076791737238786" lon="11.765620977159319"><ele>479.0</ele><time>2026-03-24T15:10:26.999Z</time></trkpt><trkpt lat="46.076975541379305" lon="11.765745544457566"><ele>465.0</ele><time>2026-03-24T15:10:27.999Z</time></trkpt><trkpt lat="46.077159846868604" lon="11.765843521710078"><ele>465.0</ele><time>2026-03-24T15:10:28.999Z</time></trkpt><trkpt lat="46.077340130627555" lon="11.765913133274777"><ele>465.0</ele><time>2026-03-24T15:10:29.999Z</time></trkpt><trkpt lat="46.07751717966654" lon="11.765989667963709"><ele>465.0</ele><time>2026-03-24T15:10:30.999Z</time></trkpt><trkpt lat="46.07769348409439" lon="11.76608633617429"><ele>481.0</ele><time>2026-03-24T15:10:31.999Z</time></trkpt><trkpt lat="46.07786608781895" lon="11.766197429355577"><ele>497.0</ele><time>2026-03-24T15:10:32.999Z</time></trkpt><trkpt lat="46.078037374742784" lon="11.76629342783607"><ele>513.0</ele><time>2026-03-24T15:10:33.999Z</time></trkpt><trkpt lat="46.0782066786582" lon="11.76638838513341"><ele>516.6666666666666</ele><time>2026-03-24T15:10:35.02Z</time></trkpt><trkpt lat="46.07837164609967" lon="11.766439239834916"><ele>520.3333333333333</ele><time>2026-03-24T15:10:36.015Z</time></trkpt><trkpt lat="46.078541818826714" lon="11.766460723990475"><ele>524.0</ele><time>2026-03-24T15:10:37.014Z</time></trkpt><trkpt lat="46.078716336575845" lon="11.766459265175294"><ele>524.0</ele><time>2026-03-24T15:10:38.014Z</time></trkpt><trkpt lat="46.07888238355156" lon="11.76643656080593"><ele>524.0</ele><time>2026-03-24T15:10:39.016Z</time></trkpt><trkpt lat="46.07905373549782" lon="11.766387798390403"><ele>524.0</ele><time>2026-03-24T15:10:40.012Z</time></trkpt><trkpt lat="46.08119448835196" lon="11.765558200251421"><ele>629.0</ele><time>2026-03-24T15:10:44.124Z</time></trkpt><trkpt lat="46.08171610899491" lon="11.765359460327486"><ele>581.0</ele><time>2026-03-24T15:10:45.124Z</time></trkpt><trkpt lat="46.08223790181551" lon="11.765157899732722"><ele>567.0</ele><time>2026-03-24T15:10:46.125Z</time></trkpt><trkpt lat="46.08275944733657" lon="11.764960699326611"><ele>518.0</ele><time>2026-03-24T15:10:47.124Z</time></trkpt><trkpt lat="46.08328188267799" lon="11.76476515042332"><ele>518.0</ele><time>2026-03-24T15:10:48.124Z</time></trkpt><trkpt lat="46.0836958" lon="11.7645534"><ele>518.0</ele><time>2026-03-24T15:10:49.124Z</time></trkpt><trkpt lat="46.08448462099403" lon="11.76440259442829"><ele>510.66666666666663</ele><time>2026-03-24T15:11:12.998Z</time></trkpt><trkpt lat="46.08459179433119" lon="11.764345343893279"><ele>503.33333333333337</ele><time>2026-03-24T15:11:13.998Z</time></trkpt><trkpt lat="46.08480405447976" lon="11.764205182997488"><ele>496.0</ele><time>2026-03-24T15:11:14.998Z</time></trkpt><trkpt lat="46.08494163902134" lon="11.764288683589774"><ele>496.0</ele><time>2026-03-24T15:11:15.998Z</time></trkpt><trkpt lat="46.085081803902256" lon="11.764378095758993"><ele>496.0</ele><time>2026-03-24T15:11:16.998Z</time></trkpt><trkpt lat="46.085225843759616" lon="11.764375981467278"><ele>496.0</ele><time>2026-03-24T15:11:17.998Z</time></trkpt><trkpt lat="46.08536191217659" lon="11.764314117285176"><ele>496.0</ele><time>2026-03-24T15:11:19Z</time></trkpt><trkpt lat="46.08551213520038" lon="11.764253676141756"><ele>496.0</ele><time>2026-03-24T15:11:20Z</time></trkpt><trkpt lat="46.085680522125585" lon="11.764210362592266"><ele>496.0</ele><time>2026-03-24T15:11:21Z</time></trkpt><trkpt lat="46.08586773821969" lon="11.76416277033963"><ele>496.0</ele><time>2026-03-24T15:11:22.018Z</time></trkpt><trkpt lat="46.08607107665383" lon="11.764112017147"><ele>520.0</ele><time>2026-03-24T15:11:23.025Z</time></trkpt><trkpt lat="46.08628922876171" lon="11.764057566372722"><ele>544.0</ele><time>2026-03-24T15:11:24.019Z</time></trkpt><trkpt lat="46.08652225114104" lon="11.763999180996596"><ele>546.5</ele><time>2026-03-24T15:11:25.016Z</time></trkpt><trkpt lat="46.08677416697594" lon="11.763934935150012"><ele>549.0</ele><time>2026-03-24T15:11:26.017Z</time></trkpt><trkpt lat="46.08703144661614" lon="11.763869323552145"><ele>610.0</ele><time>2026-03-24T15:11:27.021Z</time></trkpt><trkpt lat="46.093937605662354" lon="11.761874193336592"><ele>617.6666666666667</ele><time>2026-03-24T15:12:02Z</time></trkpt><trkpt lat="46.094114157207486" lon="11.76190391289408"><ele>625.3333333333334</ele><time>2026-03-24T15:12:03Z</time></trkpt><trkpt lat="46.09429957197604" lon="11.76193480694901"><ele>633.0</ele><time>2026-03-24T15:12:04.018Z</time></trkpt><trkpt lat="46.10322714321884" lon="11.772308908413883"><ele>618.3333333333334</ele><time>2026-03-24T15:13:01.999Z</time></trkpt><trkpt lat="46.103346295459296" lon="11.772423362594923"><ele>603.6666666666667</ele><time>2026-03-24T15:13:02.999Z</time></trkpt><trkpt lat="46.10351778529157" lon="11.772492741532927"><ele>589.0</ele><time>2026-03-24T15:13:03.999Z</time></trkpt><trkpt lat="46.103675852624015" lon="11.772559062285769"><ele>589.0</ele><time>2026-03-24T15:13:04.999Z</time></trkpt><trkpt lat="46.1038231264514" lon="11.772595450815846"><ele>589.0</ele><time>2026-03-24T15:13:05.999Z</time></trkpt><trkpt lat="46.10396659266014" lon="11.77264427854392"><ele>589.0</ele><time>2026-03-24T15:13:06.999Z</time></trkpt><trkpt lat="46.10409678595806" lon="11.772643054917951"><ele>589.0</ele><time>2026-03-24T15:13:07.999Z</time></trkpt><trkpt lat="46.10424122777405" lon="11.772614847879645"><ele>592.75</ele><time>2026-03-24T15:13:08.999Z</time></trkpt><trkpt lat="46.10438628518966" lon="11.772609728563312"><ele>596.5</ele><time>2026-03-24T15:13:09.999Z</time></trkpt><trkpt lat="46.10452999302991" lon="11.772616425307636"><ele>600.25</ele><time>2026-03-24T15:13:10.999Z</time></trkpt><trkpt lat="46.10464666466933" lon="11.772703968369116"><ele>604.0</ele><time>2026-03-24T15:13:11.999Z</time></trkpt><trkpt lat="46.10474478302998" lon="11.77278549153788"><ele>610.6666666666667</ele><time>2026-03-24T15:13:12.999Z</time></trkpt><trkpt lat="46.10487477857455" lon="11.772911191166159"><ele>617.3333333333334</ele><time>2026-03-24T15:13:13.999Z</time></trkpt><trkpt lat="46.104990676954046" lon="11.773035531294274"><ele>624.0</ele><time>2026-03-24T15:13:14.999Z</time></trkpt><trkpt lat="46.10512759544726" lon="11.773151167344809"><ele>624.0</ele><time>2026-03-24T15:13:15.998Z</time></trkpt><trkpt lat="46.1052535317639" lon="11.773260231833412"><ele>624.0</ele><time>2026-03-24T15:13:16.998Z</time></trkpt><trkpt lat="46.105394098516406" lon="11.77337096491254"><ele>624.0</ele><time>2026-03-24T15:13:17.998Z</time></trkpt><trkpt lat="46.10552251483342" lon="11.773422098444955"><ele>624.0</ele><time>2026-03-24T15:13:18.998Z</time></trkpt><trkpt lat="46.10574148381707" lon="11.773283079062079"><ele>614.75</ele><time>2026-03-24T15:13:19.998Z</time></trkpt><trkpt lat="46.105936479609774" lon="11.773313103446592"><ele>605.5</ele><time>2026-03-24T15:13:20.998Z</time></trkpt><trkpt lat="46.106063390496885" lon="11.773364381248694"><ele>596.25</ele><time>2026-03-24T15:13:21.998Z</time></trkpt><trkpt lat="46.10613406557353" lon="11.77342393510484"><ele>587.0</ele><time>2026-03-24T15:13:22.998Z</time></trkpt><trkpt lat="46.10624263928166" lon="11.773546169792985"><ele>587.0</ele><time>2026-03-24T15:13:23.998Z</time></trkpt><trkpt lat="46.10636407230337" lon="11.773676434477272"><ele>587.0</ele><time>2026-03-24T15:13:25Z</time></trkpt><trkpt lat="46.10647958032175" lon="11.77382808327237"><ele>587.0</ele><time>2026-03-24T15:13:26Z</time></trkpt><trkpt lat="46.106616379482915" lon="11.773957726188463"><ele>584.75</ele><time>2026-03-24T15:13:27Z</time></trkpt><trkpt lat="46.10674899342272" lon="11.774056934759116"><ele>582.5</ele><time>2026-03-24T15:13:28Z</time></trkpt><trkpt lat="46.10686432858288" lon="11.774148931346677"><ele>580.25</ele><time>2026-03-24T15:13:29Z</time></trkpt><trkpt lat="46.1069680488899" lon="11.774262999150874"><ele>578.0</ele><time>2026-03-24T15:13:30Z</time></trkpt><trkpt lat="46.10703280663211" lon="11.774430200517468"><ele>585.0</ele><time>2026-03-24T15:13:31Z</time></trkpt><trkpt lat="46.10710676389253" lon="11.774613171625015"><ele>592.0</ele><time>2026-03-24T15:13:32Z</time></trkpt><trkpt lat="46.107188574933744" lon="11.774807167003416"><ele>599.0</ele><time>2026-03-24T15:13:33Z</time></trkpt><trkpt lat="46.107262182221355" lon="11.775007183958559"><ele>591.3333333333333</ele><time>2026-03-24T15:13:34Z</time></trkpt><trkpt lat="46.10734510454379" lon="11.775218672042843"><ele>583.6666666666666</ele><time>2026-03-24T15:13:35Z</time></trkpt><trkpt lat="46.10741507312119" lon="11.775439505990182"><ele>576.0</ele><time>2026-03-24T15:13:36Z</time></trkpt><trkpt lat="46.10745148205776" lon="11.775687026147256"><ele>576.0</ele><time>2026-03-24T15:13:37Z</time></trkpt><trkpt lat="46.1075161980419" lon="11.775925977456275"><ele>576.0</ele><time>2026-03-24T15:13:38Z</time></trkpt><trkpt lat="46.107560839502305" lon="11.776171348052525"><ele>576.0</ele><time>2026-03-24T15:13:39Z</time></trkpt><trkpt lat="46.107613731186454" lon="11.776410048017103"><ele>585.6666666666666</ele><time>2026-03-24T15:13:40Z</time></trkpt><trkpt lat="46.10767910726315" lon="11.77663378050563"><ele>595.3333333333333</ele><time>2026-03-24T15:13:41Z</time></trkpt><trkpt lat="46.107763239336236" lon="11.77683408470303"><ele>605.0</ele><time>2026-03-24T15:13:42Z</time></trkpt><trkpt lat="46.10785671118556" lon="11.777019327146126"><ele>613.6666666666666</ele><time>2026-03-24T15:13:43Z</time></trkpt><trkpt lat="46.107971297891424" lon="11.777182342621217"><ele>622.3333333333334</ele><time>2026-03-24T15:13:44Z</time></trkpt><trkpt lat="46.108058808805666" lon="11.777356622944255"><ele>631.0</ele><time>2026-03-24T15:13:45Z</time></trkpt><trkpt lat="46.10815919796016" lon="11.77752656126262"><ele>629.6666666666667</ele><time>2026-03-24T15:13:46Z</time></trkpt><trkpt lat="46.10825505229556" lon="11.777692335790997"><ele>628.3333333333334</ele><time>2026-03-24T15:13:47Z</time></trkpt><trkpt lat="46.108390644144635" lon="11.777828520977014"><ele>627.0</ele><time>2026-03-24T15:13:48Z</time></trkpt><trkpt lat="46.1085130886084" lon="11.77795582043299"><ele>627.0</ele><time>2026-03-24T15:13:49Z</time></trkpt><trkpt lat="46.108648505953624" lon="11.778072551582786"><ele>627.0</ele><time>2026-03-24T15:13:50Z</time></trkpt><trkpt lat="46.10878026343454" lon="11.778157640345603"><ele>627.0</ele><time>2026-03-24T15:13:51Z</time></trkpt><trkpt lat="46.108912535175214" lon="11.778218813700056"><ele>627.0</ele><time>2026-03-24T15:13:52Z</time></trkpt><trkpt lat="46.109079447615706" lon="11.77826418151712"><ele>618.3333333333334</ele><time>2026-03-24T15:13:53Z</time></trkpt><trkpt lat="46.109263720883256" lon="11.7782272744751"><ele>609.6666666666667</ele><time>2026-03-24T15:13:54Z</time></trkpt><trkpt lat="46.10943805195172" lon="11.778202738438068"><ele>601.0</ele><time>2026-03-24T15:13:55Z</time></trkpt><trkpt lat="46.10962532321717" lon="11.778173041026475"><ele>601.0</ele><time>2026-03-24T15:13:56Z</time></trkpt><trkpt lat="46.10981387881984" lon="11.778138854073276"><ele>601.0</ele><time>2026-03-24T15:13:57Z</time></trkpt><trkpt lat="46.11002028252169" lon="11.778112825782602"><ele>601.0</ele><time>2026-03-24T15:13:58Z</time></trkpt><trkpt lat="46.1102434196294" lon="11.7781004219773"><ele>594.5</ele><time>2026-03-24T15:13:59Z</time></trkpt><trkpt lat="46.11048210946561" lon="11.778074736718734"><ele>588.0</ele><time>2026-03-24T15:14:00Z</time></trkpt><trkpt lat="46.11070074166226" lon="11.778057517820827"><ele>587.0</ele><time>2026-03-24T15:14:01Z</time></trkpt><trkpt lat="46.11090999754851" lon="11.77806282492802"><ele>586.0</ele><time>2026-03-24T15:14:02Z</time></trkpt><trkpt lat="46.11112876707514" lon="11.778078035227825"><ele>585.0</ele><time>2026-03-24T15:14:03Z</time></trkpt><trkpt lat="46.11133040505052" lon="11.778110923510742"><ele>585.0</ele><time>2026-03-24T15:14:04Z</time></trkpt><trkpt lat="46.11151684208206" lon="11.778135682267985"><ele>585.0</ele><time>2026-03-24T15:14:05Z</time></trkpt><trkpt lat="46.111693178016154" lon="11.778155255340263"><ele>585.0</ele><time>2026-03-24T15:14:06Z</time></trkpt><trkpt lat="46.111856525860496" lon="11.778152258550996"><ele>586.3333333333334</ele><time>2026-03-24T15:14:07Z</time></trkpt><trkpt lat="46.11200146921639" lon="11.778110486591922"><ele>587.6666666666667</ele><time>2026-03-24T15:14:08Z</time></trkpt><trkpt lat="46.112143467698246" lon="11.77801555801231"><ele>589.0</ele><time>2026-03-24T15:14:09Z</time></trkpt><trkpt lat="46.11229660888873" lon="11.777886042551259"><ele>586.0</ele><time>2026-03-24T15:14:10Z</time></trkpt><trkpt lat="46.11245776697362" lon="11.77772472126341"><ele>583.0</ele><time>2026-03-24T15:14:11Z</time></trkpt><trkpt lat="46.11263808874581" lon="11.777575927507081"><ele>580.0</ele><time>2026-03-24T15:14:12Z</time></trkpt><trkpt lat="46.112844089073775" lon="11.777482180713305"><ele>580.0</ele><time>2026-03-24T15:14:13Z</time></trkpt><trkpt lat="46.11305265257824" lon="11.777377835148773"><ele>580.0</ele><time>2026-03-24T15:14:14Z</time></trkpt><trkpt lat="46.11325644473675" lon="11.777277366754108"><ele>580.0</ele><time>2026-03-24T15:14:15.016Z</time></trkpt><trkpt lat="46.1134514747508" lon="11.777179312924249"><ele>591.0</ele><time>2026-03-24T15:14:16.018Z</time></trkpt><trkpt lat="46.11364674191476" lon="11.777082217054174"><ele>602.0</ele><time>2026-03-24T15:14:17.018Z</time></trkpt><trkpt lat="46.11384119963953" lon="11.776995028094955"><ele>613.0</ele><time>2026-03-24T15:14:18.025Z</time></trkpt><trkpt lat="46.114023979583855" lon="11.776932035087098"><ele>633.5</ele><time>2026-03-24T15:14:19.022Z</time></trkpt><trkpt lat="46.11419808515272" lon="11.776882743306425"><ele>654.0</ele><time>2026-03-24T15:14:20.018Z</time></trkpt><trkpt lat="46.114537383700885" lon="11.776786871761713"><ele>627.6666666666666</ele><time>2026-03-24T15:14:22Z</time></trkpt><trkpt lat="46.11473303050314" lon="11.776731501592714"><ele>601.3333333333333</ele><time>2026-03-24T15:14:23Z</time></trkpt><trkpt lat="46.11494935467695" lon="11.776696813926106"><ele>575.0</ele><time>2026-03-24T15:14:23.999Z</time></trkpt><trkpt lat="46.11520453553425" lon="11.776570812212718"><ele>575.0</ele><time>2026-03-24T15:14:24.999Z</time></trkpt><trkpt lat="46.11544111633849" lon="11.776496437630922"><ele>575.0</ele><time>2026-03-24T15:14:25.999Z</time></trkpt><trkpt lat="46.115657287489505" lon="11.77642091753408"><ele>581.3333333333333</ele><time>2026-03-24T15:14:26.999Z</time></trkpt><trkpt lat="46.115856755050814" lon="11.776335952822706"><ele>587.6666666666666</ele><time>2026-03-24T15:14:27.999Z</time></trkpt><trkpt lat="46.116042189273884" lon="11.7762608730599"><ele>594.0</ele><time>2026-03-24T15:14:28.999Z</time></trkpt><trkpt lat="46.116220124385265" lon="11.776184381097618"><ele>594.0</ele><time>2026-03-24T15:14:29.999Z</time></trkpt><trkpt lat="46.11638158655871" lon="11.776103202237962"><ele>594.0</ele><time>2026-03-24T15:14:30.999Z</time></trkpt><trkpt lat="46.11654106968368" lon="11.776009707389976"><ele>594.0</ele><time>2026-03-24T15:14:31.999Z</time></trkpt><trkpt lat="46.11669951655937" lon="11.775904071833926"><ele>586.6666666666666</ele><time>2026-03-24T15:14:32.999Z</time></trkpt><trkpt lat="46.11685453112957" lon="11.775789033282944"><ele>579.3333333333333</ele><time>2026-03-24T15:14:33.999Z</time></trkpt><trkpt lat="46.11700687907169" lon="11.775733180087363"><ele>572.0</ele><time>2026-03-24T15:14:34.999Z</time></trkpt><trkpt lat="46.117162216380315" lon="11.775707163857293"><ele>572.0</ele><time>2026-03-24T15:14:35.999Z</time></trkpt><trkpt lat="46.11732068871496" lon="11.77573843043022"><ele>572.0</ele><time>2026-03-24T15:14:36.999Z</time></trkpt><trkpt lat="46.11749792822438" lon="11.775808226435032"><ele>572.0</ele><time>2026-03-24T15:14:37.999Z</time></trkpt><trkpt lat="46.11767796494116" lon="11.775877882800303"><ele>573.6666666666666</ele><time>2026-03-24T15:14:38.999Z</time></trkpt><trkpt lat="46.11786149435031" lon="11.775988126682972"><ele>575.3333333333334</ele><time>2026-03-24T15:14:39.999Z</time></trkpt><trkpt lat="46.118047719673676" lon="11.776084983225774"><ele>577.0</ele><time>2026-03-24T15:14:40.999Z</time></trkpt><trkpt lat="46.118232674256596" lon="11.77617245378651"><ele>591.3333333333334</ele><time>2026-03-24T15:14:41.999Z</time></trkpt><trkpt lat="46.118414304010756" lon="11.776262479555369"><ele>605.6666666666666</ele><time>2026-03-24T15:14:42.999Z</time></trkpt><trkpt lat="46.118577585154945" lon="11.776372309047801"><ele>620.0</ele><time>2026-03-24T15:14:43.999Z</time></trkpt><trkpt lat="46.11876870231984" lon="11.776421614557238"><ele>620.0</ele><time>2026-03-24T15:14:45.019Z</time></trkpt><trkpt lat="46.118941676991845" lon="11.776508456658238"><ele>620.0</ele><time>2026-03-24T15:14:46.022Z</time></trkpt><trkpt lat="46.11911527739635" lon="11.776576751607225"><ele>620.0</ele><time>2026-03-24T15:14:47.021Z</time></trkpt><trkpt lat="46.11927814914459" lon="11.776635585075999"><ele>638.0</ele><time>2026-03-24T15:14:48.015Z</time></trkpt><trkpt lat="46.11942343004001" lon="11.776681495806969"><ele>656.0</ele><time>2026-03-24T15:14:49.021Z</time></trkpt><trkpt lat="46.11958186269841" lon="11.776671482533104"><ele>674.0</ele><time>2026-03-24T15:14:50.019Z</time></trkpt><trkpt lat="46.11974448551146" lon="11.776681941828846"><ele>698.5</ele><time>2026-03-24T15:14:51.019Z</time></trkpt><trkpt lat="46.1199128606933" lon="11.776721786934838"><ele>723.0</ele><time>2026-03-24T15:14:52.016Z</time></trkpt><trkpt lat="46.12241721716348" lon="11.773537779237863"><ele>723.0</ele><time>2026-03-24T15:15:09.999Z</time></trkpt><trkpt lat="46.12256367433295" lon="11.773438163341668"><ele>723.0</ele><time>2026-03-24T15:15:10.999Z</time></trkpt><trkpt lat="46.122729625585016" lon="11.77322783283163"><ele>723.0</ele><time>2026-03-24T15:15:11.999Z</time></trkpt><trkpt lat="46.122885488108714" lon="11.773074278575228"><ele>723.0</ele><time>2026-03-24T15:15:12.999Z</time></trkpt><trkpt lat="46.12302889363531" lon="11.772890652203102"><ele>723.0</ele><time>2026-03-24T15:15:13.999Z</time></trkpt><trkpt lat="46.1231489745175" lon="11.77266277157682"><ele>723.0</ele><time>2026-03-24T15:15:14.999Z</time></trkpt><trkpt lat="46.12327957574826" lon="11.772471228403559"><ele>723.0</ele><time>2026-03-24T15:15:15.999Z</time></trkpt><trkpt lat="46.12339203008758" lon="11.77229821136241"><ele>723.0</ele><time>2026-03-24T15:15:16.999Z</time></trkpt><trkpt lat="46.123493226256414" lon="11.772136066859334"><ele>723.0</ele><time>2026-03-24T15:15:17.999Z</time></trkpt><trkpt lat="46.12360520966211" lon="11.771999409657225"><ele>723.0</ele><time>2026-03-24T15:15:18.999Z</time></trkpt><trkpt lat="46.123744203297626" lon="11.771916236752247"><ele>723.0</ele><time>2026-03-24T15:15:19.999Z</time></trkpt><trkpt lat="46.123887399473716" lon="11.771845748459352"><ele>723.0</ele><time>2026-03-24T15:15:20.999Z</time></trkpt><trkpt lat="46.124043816022336" lon="11.771798143806194"><ele>723.0</ele><time>2026-03-24T15:15:21.999Z</time></trkpt><trkpt lat="46.12421256074215" lon="11.771724048038669"><ele>723.0</ele><time>2026-03-24T15:15:22.999Z</time></trkpt><trkpt lat="46.12438954744247" lon="11.771659766660278"><ele>723.0</ele><time>2026-03-24T15:15:23.999Z</time></trkpt><trkpt lat="46.124576143943045" lon="11.771612936749836"><ele>723.0</ele><time>2026-03-24T15:15:24.999Z</time></trkpt><trkpt lat="46.12475699206234" lon="11.77154797896322"><ele>723.0</ele><time>2026-03-24T15:15:25.999Z</time></trkpt><trkpt lat="46.12494707187519" lon="11.771449475317292"><ele>723.0</ele><time>2026-03-24T15:15:26.999Z</time></trkpt><trkpt lat="46.12513215338511" lon="11.771311240661936"><ele>723.0</ele><time>2026-03-24T15:15:27.999Z</time></trkpt><trkpt lat="46.12532577418468" lon="11.771135246399329"><ele>723.0</ele><time>2026-03-24T15:15:28.999Z</time></trkpt><trkpt lat="46.12546742929499" lon="11.770949022985741"><ele>723.0</ele><time>2026-03-24T15:15:29.999Z</time></trkpt><trkpt lat="46.12559118611999" lon="11.770743916787145"><ele>723.0</ele><time>2026-03-24T15:15:31Z</time></trkpt><trkpt lat="46.125725949687784" lon="11.770520749842216"><ele>723.0</ele><time>2026-03-24T15:15:32Z</time></trkpt><trkpt lat="46.12588350310903" lon="11.770308948086033"><ele>723.0</ele><time>2026-03-24T15:15:33Z</time></trkpt><trkpt lat="46.12601790363383" lon="11.770112022177052"><ele>723.0</ele><time>2026-03-24T15:15:34Z</time></trkpt><trkpt lat="46.126144845920905" lon="11.76994268781342"><ele>723.0</ele><time>2026-03-24T15:15:35Z</time></trkpt><trkpt lat="46.126263138505436" lon="11.769800202450284"><ele>723.0</ele><time>2026-03-24T15:15:36Z</time></trkpt><trkpt lat="46.126401016608405" lon="11.769717887147475"><ele>723.0</ele><time>2026-03-24T15:15:37Z</time></trkpt><trkpt lat="46.12655489243437" lon="11.769661187618846"><ele>723.0</ele><time>2026-03-24T15:15:38Z</time></trkpt><trkpt lat="46.126707946180936" lon="11.769677944635205"><ele>723.0</ele><time>2026-03-24T15:15:39Z</time></trkpt><trkpt lat="46.12686760738506" lon="11.769685820683089"><ele>723.0</ele><time>2026-03-24T15:15:40Z</time></trkpt><trkpt lat="46.12702626442439" lon="11.769696505719603"><ele>723.0</ele><time>2026-03-24T15:15:41Z</time></trkpt><trkpt lat="46.12717952184173" lon="11.769707224377589"><ele>723.0</ele><time>2026-03-24T15:15:42.014Z</time></trkpt><trkpt lat="46.12732384786912" lon="11.769717318393573"><ele>723.0</ele><time>2026-03-24T15:15:43.018Z</time></trkpt><trkpt lat="46.12742118939783" lon="11.769724126361568"><ele>723.0</ele><time>2026-03-24T15:15:44.019Z</time></trkpt><trkpt lat="46.12752107474288" lon="11.769731112240041"><ele>723.0</ele><time>2026-03-24T15:15:45.015Z</time></trkpt><trkpt lat="46.129429433537766" lon="11.769130490731232"><ele>723.0</ele><time>2026-03-24T15:15:56Z</time></trkpt><trkpt lat="46.12958791334942" lon="11.769171484192762"><ele>723.0</ele><time>2026-03-24T15:15:57Z</time></trkpt><trkpt lat="46.12978848099657" lon="11.769247117372903"><ele>723.0</ele><time>2026-03-24T15:15:58Z</time></trkpt><trkpt lat="46.12996336273473" lon="11.769296900646545"><ele>723.0</ele><time>2026-03-24T15:15:59Z</time></trkpt><trkpt lat="46.13015436345509" lon="11.769387670571907"><ele>723.0</ele><time>2026-03-24T15:16:00Z</time></trkpt><trkpt lat="46.13034576821719" lon="11.769464236381184"><ele>723.0</ele><time>2026-03-24T15:16:01Z</time></trkpt><trkpt lat="46.13053558981405" lon="11.769547407757534"><ele>723.0</ele><time>2026-03-24T15:16:02Z</time></trkpt><trkpt lat="46.13070972650908" lon="11.769446729687687"><ele>723.0</ele><time>2026-03-24T15:16:03Z</time></trkpt><trkpt lat="46.130873447568916" lon="11.769474396727642"><ele>723.0</ele><time>2026-03-24T15:16:04Z</time></trkpt><trkpt lat="46.13106315784031" lon="11.769417766891522"><ele>723.0</ele><time>2026-03-24T15:16:05Z</time></trkpt><trkpt lat="46.13122268681776" lon="11.769104104187583"><ele>723.0</ele><time>2026-03-24T15:16:06Z</time></trkpt><trkpt lat="46.13145108674227" lon="11.769070835949767"><ele>675.0</ele><time>2026-03-24T15:16:07Z</time></trkpt><trkpt lat="46.13164619114375" lon="11.768901352990994"><ele>627.0</ele><time>2026-03-24T15:16:08Z</time></trkpt><trkpt lat="46.13183329043535" lon="11.7688051484633"><ele>579.0</ele><time>2026-03-24T15:16:09Z</time></trkpt><trkpt lat="46.13200896937902" lon="11.768723778020028"><ele>579.0</ele><time>2026-03-24T15:16:10Z</time></trkpt><trkpt lat="46.13216940067781" lon="11.768658455929112"><ele>579.0</ele><time>2026-03-24T15:16:11Z</time></trkpt><trkpt lat="46.132310223307115" lon="11.768653814624782"><ele>579.0</ele><time>2026-03-24T15:16:12Z</time></trkpt><trkpt lat="46.13245682619891" lon="11.768696119492976"><ele>581.6666666666666</ele><time>2026-03-24T15:16:13Z</time></trkpt><trkpt lat="46.13259670635225" lon="11.768787631773506"><ele>584.3333333333333</ele><time>2026-03-24T15:16:14Z</time></trkpt><trkpt lat="46.13273114569405" lon="11.768931578227107"><ele>587.0</ele><time>2026-03-24T15:16:15Z</time></trkpt><trkpt lat="46.13286379469324" lon="11.769101236063957"><ele>587.0</ele><time>2026-03-24T15:16:16Z</time></trkpt><trkpt lat="46.132995639184124" lon="11.769277487033778"><ele>587.0</ele><time>2026-03-24T15:16:17Z</time></trkpt><trkpt lat="46.13312425598124" lon="11.76943071944566"><ele>587.0</ele><time>2026-03-24T15:16:18Z</time></trkpt><trkpt lat="46.13324462901653" lon="11.769569479110102"><ele>588.5</ele><time>2026-03-24T15:16:19Z</time></trkpt><trkpt lat="46.13336404396369" lon="11.76969159763677"><ele>590.0</ele><time>2026-03-24T15:16:20Z</time></trkpt><trkpt lat="46.133487060026525" lon="11.769794366036482"><ele>591.5</ele><time>2026-03-24T15:16:21Z</time></trkpt><trkpt lat="46.133631786561196" lon="11.769857784295949"><ele>593.0</ele><time>2026-03-24T15:16:22Z</time></trkpt><trkpt lat="46.1337876910038" lon="11.769881507231924"><ele>593.0</ele><time>2026-03-24T15:16:23Z</time></trkpt><trkpt lat="46.1339498761197" lon="11.769873136922381"><ele>593.0</ele><time>2026-03-24T15:16:24Z</time></trkpt><trkpt lat="46.13414686456176" lon="11.769898108853427"><ele>593.0</ele><time>2026-03-24T15:16:25Z</time></trkpt><trkpt lat="46.134339389408055" lon="11.769912197055122"><ele>593.3333333333333</ele><time>2026-03-24T15:16:26Z</time></trkpt><trkpt lat="46.134523743028076" lon="11.769873474049435"><ele>593.6666666666666</ele><time>2026-03-24T15:16:27Z</time></trkpt><trkpt lat="46.13468751449563" lon="11.769808637888845"><ele>594.0</ele><time>2026-03-24T15:16:27.999Z</time></trkpt><trkpt lat="46.13484366097396" lon="11.769694603742767"><ele>596.3333333333334</ele><time>2026-03-24T15:16:28.999Z</time></trkpt><trkpt lat="46.13502192092536" lon="11.76964141975765"><ele>598.6666666666667</ele><time>2026-03-24T15:16:29.999Z</time></trkpt><trkpt lat="46.135225925813906" lon="11.769592896171904"><ele>601.0</ele><time>2026-03-24T15:16:30.999Z</time></trkpt><trkpt lat="46.13544390628892" lon="11.769542114293909"><ele>601.0</ele><time>2026-03-24T15:16:31.999Z</time></trkpt><trkpt lat="46.13564927238943" lon="11.769494271131936"><ele>601.0</ele><time>2026-03-24T15:16:32.999Z</time></trkpt><trkpt lat="46.13583933933392" lon="11.769450153062087"><ele>601.0</ele><time>2026-03-24T15:16:33.999Z</time></trkpt><trkpt lat="46.13601204544712" lon="11.7694111366755"><ele>602.0</ele><time>2026-03-24T15:16:34.999Z</time></trkpt><trkpt lat="46.13617640875745" lon="11.769376207747003"><ele>603.0</ele><time>2026-03-24T15:16:35.999Z</time></trkpt><trkpt lat="46.136324442312834" lon="11.769361187485996"><ele>604.0</ele><time>2026-03-24T15:16:36.999Z</time></trkpt><trkpt lat="46.136470740954884" lon="11.769381217431715"><ele>602.3333333333334</ele><time>2026-03-24T15:16:37.999Z</time></trkpt><trkpt lat="46.136615592802535" lon="11.769431449399164"><ele>600.6666666666666</ele><time>2026-03-24T15:16:38.999Z</time></trkpt><trkpt lat="46.1367745049344" lon="11.76953426040911"><ele>599.0</ele><time>2026-03-24T15:16:39.999Z</time></trkpt><trkpt lat="46.13693268587483" lon="11.76967089272917"><ele>599.0</ele><time>2026-03-24T15:16:40.999Z</time></trkpt><trkpt lat="46.13710228694096" lon="11.769817832595624"><ele>599.0</ele><time>2026-03-24T15:16:41.999Z</time></trkpt><trkpt lat="46.13729478850614" lon="11.769960393640039"><ele>599.0</ele><time>2026-03-24T15:16:42.999Z</time></trkpt><trkpt lat="46.13746223645593" lon="11.77013071167161"><ele>595.6666666666666</ele><time>2026-03-24T15:16:43.999Z</time></trkpt><trkpt lat="46.13761812457927" lon="11.770266756597684"><ele>592.3333333333334</ele><time>2026-03-24T15:16:44.999Z</time></trkpt><trkpt lat="46.13776951472951" lon="11.770376237944943"><ele>589.0</ele><time>2026-03-24T15:16:45.999Z</time></trkpt><trkpt lat="46.13789670822022" lon="11.770497771111119"><ele>589.0</ele><time>2026-03-24T15:16:46.999Z</time></trkpt><trkpt lat="46.138007125112225" lon="11.770644367481415"><ele>589.0</ele><time>2026-03-24T15:16:47.999Z</time></trkpt><trkpt lat="46.138079760022286" lon="11.770853229306228"><ele>589.0</ele><time>2026-03-24T15:16:48.999Z</time></trkpt><trkpt lat="46.13816929832745" lon="11.771046886569106"><ele>595.0</ele><time>2026-03-24T15:16:49.999Z</time></trkpt><trkpt lat="46.138258655567256" lon="11.771254012712571"><ele>601.0</ele><time>2026-03-24T15:16:50.999Z</time></trkpt><trkpt lat="46.138353120843234" lon="11.771482439263012"><ele>607.0</ele><time>2026-03-24T15:16:51.999Z</time></trkpt><trkpt lat="46.138446772404194" lon="11.771718228071867"><ele>601.0</ele><time>2026-03-24T15:16:52.999Z</time></trkpt><trkpt lat="46.138545070214455" lon="11.771957848976239"><ele>595.0</ele><time>2026-03-24T15:16:53.999Z</time></trkpt><trkpt lat="46.13864904686896" lon="11.772183200192659"><ele>589.0</ele><time>2026-03-24T15:16:54.999Z</time></trkpt><trkpt lat="46.138764877500996" lon="11.772380693578798"><ele>589.0</ele><time>2026-03-24T15:16:55.999Z</time></trkpt><trkpt lat="46.13888261622761" lon="11.772555550950344"><ele>589.0</ele><time>2026-03-24T15:16:56.999Z</time></trkpt><trkpt lat="46.13900254163791" lon="11.77270683148865"><ele>589.0</ele><time>2026-03-24T15:16:57.999Z</time></trkpt><trkpt lat="46.13911452168312" lon="11.772842621100214"><ele>587.5</ele><time>2026-03-24T15:16:58.999Z</time></trkpt><trkpt lat="46.13922509534796" lon="11.772947442496685"><ele>586.0</ele><time>2026-03-24T15:16:59.999Z</time></trkpt><trkpt lat="46.13932438616145" lon="11.773050544995195"><ele>584.5</ele><time>2026-03-24T15:17:00.999Z</time></trkpt><trkpt lat="46.13941153048838" lon="11.773148433895441"><ele>583.0</ele><time>2026-03-24T15:17:01.999Z</time></trkpt><trkpt lat="46.13946764930982" lon="11.773253898688727"><ele>583.0</ele><time>2026-03-24T15:17:02.999Z</time></trkpt><trkpt lat="46.139503749903895" lon="11.773356745954336"><ele>583.0</ele><time>2026-03-24T15:17:03.999Z</time></trkpt><trkpt lat="46.139511020859665" lon="11.773497133916642"><ele>583.0</ele><time>2026-03-24T15:17:04.999Z</time></trkpt><trkpt lat="46.13953341864231" lon="11.7736460445236"><ele>583.0</ele><time>2026-03-24T15:17:05.999Z</time></trkpt><trkpt lat="46.13957900713969" lon="11.773788630028731"><ele>583.0</ele><time>2026-03-24T15:17:06.999Z</time></trkpt><trkpt lat="46.139658522798676" lon="11.7738957943602"><ele>583.0</ele><time>2026-03-24T15:17:07.999Z</time></trkpt><trkpt lat="46.13974874981562" lon="11.77398215308706"><ele>583.0</ele><time>2026-03-24T15:17:08.999Z</time></trkpt><trkpt lat="46.139839718418756" lon="11.774086651351082"><ele>583.0</ele><time>2026-03-24T15:17:09.999Z</time></trkpt><trkpt lat="46.13990882708772" lon="11.774230261059948"><ele>583.0</ele><time>2026-03-24T15:17:10.999Z</time></trkpt><trkpt lat="46.139965985438586" lon="11.77443715104064"><ele>584.3333333333334</ele><time>2026-03-24T15:17:11.999Z</time></trkpt><trkpt lat="46.14002297309997" lon="11.774672500659886"><ele>585.6666666666666</ele><time>2026-03-24T15:17:12.999Z</time></trkpt><trkpt lat="46.14007506523213" lon="11.774908129005961"><ele>587.0</ele><time>2026-03-24T15:17:13.999Z</time></trkpt><trkpt lat="46.140148140839244" lon="11.775166310879156"><ele>588.0</ele><time>2026-03-24T15:17:14.999Z</time></trkpt><trkpt lat="46.14022444372172" lon="11.775412838914175"><ele>589.0</ele><time>2026-03-24T15:17:15.999Z</time></trkpt><trkpt lat="46.14030569087229" lon="11.775706846896096"><ele>590.0</ele><time>2026-03-24T15:17:16.999Z</time></trkpt><trkpt lat="46.14038527214637" lon="11.776007233275598"><ele>591.5</ele><time>2026-03-24T15:17:17.999Z</time></trkpt><trkpt lat="46.140474409186005" lon="11.776315036590212"><ele>593.0</ele><time>2026-03-24T15:17:18.999Z</time></trkpt><trkpt lat="46.14055814917141" lon="11.776635128556126"><ele>593.0</ele><time>2026-03-24T15:17:19.999Z</time></trkpt><trkpt lat="46.14064499248826" lon="11.776963107864706"><ele>593.0</ele><time>2026-03-24T15:17:20.999Z</time></trkpt><trkpt lat="46.14073267971416" lon="11.77730020722856"><ele>592.0</ele><time>2026-03-24T15:17:21.999Z</time></trkpt><trkpt lat="46.14082858661386" lon="11.777650772824005"><ele>591.0</ele><time>2026-03-24T15:17:22.999Z</time></trkpt><trkpt lat="46.1409079533067" lon="11.777978737385608"><ele>591.0</ele><time>2026-03-24T15:17:23.999Z</time></trkpt><trkpt lat="46.140970560450505" lon="11.778280528454044"><ele>591.0</ele><time>2026-03-24T15:17:24.999Z</time></trkpt><trkpt lat="46.141031038733416" lon="11.778587986938678"><ele>591.0</ele><time>2026-03-24T15:17:25.999Z</time></trkpt><trkpt lat="46.141088092303036" lon="11.778908501303102"><ele>591.5</ele><time>2026-03-24T15:17:26.999Z</time></trkpt><trkpt lat="46.141137117820826" lon="11.779231060318827"><ele>592.0</ele><time>2026-03-24T15:17:27.999Z</time></trkpt><trkpt lat="46.14118547144489" lon="11.779556061685364"><ele>592.0</ele><time>2026-03-24T15:17:28.999Z</time></trkpt><trkpt lat="46.14122914770387" lon="11.77988044703649"><ele>592.0</ele><time>2026-03-24T15:17:29.999Z</time></trkpt><trkpt lat="46.14126283199567" lon="11.780208894960383"><ele>594.5</ele><time>2026-03-24T15:17:30.998Z</time></trkpt><trkpt lat="46.14128782297936" lon="11.780537871247642"><ele>597.0</ele><time>2026-03-24T15:17:31.998Z</time></trkpt><trkpt lat="46.141308861564774" lon="11.780865431808587"><ele>596.5</ele><time>2026-03-24T15:17:32.998Z</time></trkpt><trkpt lat="46.1413209815391" lon="11.781189672130319"><ele>596.0</ele><time>2026-03-24T15:17:33.998Z</time></trkpt><trkpt lat="46.141339807387205" lon="11.781515370703156"><ele>596.0</ele><time>2026-03-24T15:17:34.998Z</time></trkpt><trkpt lat="46.141368665087036" lon="11.78183215784023"><ele>596.0</ele><time>2026-03-24T15:17:35.998Z</time></trkpt><trkpt lat="46.14138860339196" lon="11.782153119912977"><ele>596.0</ele><time>2026-03-24T15:17:37Z</time></trkpt><trkpt lat="46.14141022703281" lon="11.7824737068623"><ele>598.0</ele><time>2026-03-24T15:17:38Z</time></trkpt><trkpt lat="46.14144951423888" lon="11.78278641905884"><ele>600.0</ele><time>2026-03-24T15:17:39Z</time></trkpt><trkpt lat="46.14148959670362" lon="11.783110462748098"><ele>602.0</ele><time>2026-03-24T15:17:40Z</time></trkpt><trkpt lat="46.141537177619085" lon="11.783436723344758"><ele>599.5</ele><time>2026-03-24T15:17:41Z</time></trkpt><trkpt lat="46.14159800367748" lon="11.783762525747296"><ele>597.0</ele><time>2026-03-24T15:17:42Z</time></trkpt><trkpt lat="46.141657989039025" lon="11.784093949470574"><ele>599.0</ele><time>2026-03-24T15:17:43Z</time></trkpt><trkpt lat="46.141725473589865" lon="11.784424024290113"><ele>601.0</ele><time>2026-03-24T15:17:44Z</time></trkpt><trkpt lat="46.14180023636878" lon="11.784755380118531"><ele>601.0</ele><time>2026-03-24T15:17:45Z</time></trkpt><trkpt lat="46.14187637316211" lon="11.785091791800394"><ele>601.0</ele><time>2026-03-24T15:17:46Z</time></trkpt><trkpt lat="46.141957197436476" lon="11.785426374598483"><ele>602.5</ele><time>2026-03-24T15:17:47Z</time></trkpt><trkpt lat="46.14204530356879" lon="11.78575958282317"><ele>604.0</ele><time>2026-03-24T15:17:48Z</time></trkpt><trkpt lat="46.142141698131375" lon="11.78608079874454"><ele>607.5</ele><time>2026-03-24T15:17:49Z</time></trkpt><trkpt lat="46.14223984895837" lon="11.78639309188161"><ele>611.0</ele><time>2026-03-24T15:17:50Z</time></trkpt><trkpt lat="46.14233231600057" lon="11.786699357278039"><ele>606.5</ele><time>2026-03-24T15:17:51Z</time></trkpt><trkpt lat="46.14242594690063" lon="11.787001030665106"><ele>602.0</ele><time>2026-03-24T15:17:52Z</time></trkpt><trkpt lat="46.14251596671642" lon="11.787299177210514"><ele>602.0</ele><time>2026-03-24T15:17:53Z</time></trkpt><trkpt lat="46.14260874794014" lon="11.787592893364884"><ele>602.0</ele><time>2026-03-24T15:17:54Z</time></trkpt><trkpt lat="46.14269998024554" lon="11.787878570151538"><ele>602.0</ele><time>2026-03-24T15:17:55Z</time></trkpt><trkpt lat="46.14279075794084" lon="11.78815876886639"><ele>603.6666666666666</ele><time>2026-03-24T15:17:56Z</time></trkpt><trkpt lat="46.142879618316435" lon="11.788439284527405"><ele>605.3333333333334</ele><time>2026-03-24T15:17:57Z</time></trkpt><trkpt lat="46.14298014420213" lon="11.78870849132866"><ele>607.0</ele><time>2026-03-24T15:17:58Z</time></trkpt><trkpt lat="46.143082562093646" lon="11.788965311885052"><ele>606.6666666666667</ele><time>2026-03-24T15:17:59Z</time></trkpt><trkpt lat="46.14319420731645" lon="11.789207617161468"><ele>606.3333333333334</ele><time>2026-03-24T15:18:00Z</time></trkpt><trkpt lat="46.14330829571732" lon="11.789437724507023"><ele>606.0</ele><time>2026-03-24T15:18:01Z</time></trkpt><trkpt lat="46.14342458200763" lon="11.789653535895255"><ele>606.0</ele><time>2026-03-24T15:18:02Z</time></trkpt><trkpt lat="46.14352218161396" lon="11.789868601420196"><ele>606.0</ele><time>2026-03-24T15:18:03Z</time></trkpt><trkpt lat="46.14362697325508" lon="11.790066810293844"><ele>606.0</ele><time>2026-03-24T15:18:04Z</time></trkpt><trkpt lat="46.14373150090366" lon="11.790266796375086"><ele>605.6666666666666</ele><time>2026-03-24T15:18:05Z</time></trkpt><trkpt lat="46.14383407161398" lon="11.79047028804252"><ele>605.3333333333333</ele><time>2026-03-24T15:18:06Z</time></trkpt><trkpt lat="46.14394435502703" lon="11.790676021002238"><ele>605.0</ele><time>2026-03-24T15:18:07Z</time></trkpt><trkpt lat="46.14405711038608" lon="11.79087610781853"><ele>605.0</ele><time>2026-03-24T15:18:08Z</time></trkpt><trkpt lat="46.14414977467857" lon="11.791082625569159"><ele>605.0</ele><time>2026-03-24T15:18:09Z</time></trkpt><trkpt lat="46.144240508042174" lon="11.79128661707196"><ele>605.0</ele><time>2026-03-24T15:18:10Z</time></trkpt><trkpt lat="46.1443344122138" lon="11.791482587590558"><ele>605.0</ele><time>2026-03-24T15:18:11Z</time></trkpt><trkpt lat="46.14443126249458" lon="11.791679959180268"><ele>605.0</ele><time>2026-03-24T15:18:12Z</time></trkpt><trkpt lat="46.144536850158794" lon="11.79187876426813"><ele>605.0</ele><time>2026-03-24T15:18:13Z</time></trkpt><trkpt lat="46.144640371610315" lon="11.79208333724566"><ele>605.3333333333333</ele><time>2026-03-24T15:18:14Z</time></trkpt><trkpt lat="46.14474768073384" lon="11.792286166606738"><ele>605.6666666666666</ele><time>2026-03-24T15:18:15Z</time></trkpt><trkpt lat="46.14484488051005" lon="11.792490018711069"><ele>606.0</ele><time>2026-03-24T15:18:16Z</time></trkpt><trkpt lat="46.14493767875416" lon="11.792684648594241"><ele>606.0</ele><time>2026-03-24T15:18:17Z</time></trkpt><trkpt lat="46.145031184913385" lon="11.792863674800742"><ele>606.0</ele><time>2026-03-24T15:18:18Z</time></trkpt><trkpt lat="46.145122786291616" lon="11.79304666893275"><ele>606.0</ele><time>2026-03-24T15:18:19Z</time></trkpt><trkpt lat="46.145212832804916" lon="11.793224383268411"><ele>606.0</ele><time>2026-03-24T15:18:20Z</time></trkpt><trkpt lat="46.14530409482112" lon="11.793408760218485"><ele>606.0</ele><time>2026-03-24T15:18:21Z</time></trkpt><trkpt lat="46.14539228397688" lon="11.793597846361575"><ele>606.0</ele><time>2026-03-24T15:18:22Z</time></trkpt><trkpt lat="46.14548580071835" lon="11.79378650453782"><ele>606.6666666666666</ele><time>2026-03-24T15:18:23Z</time></trkpt><trkpt lat="46.145584964370876" lon="11.793977849942927"><ele>607.3333333333333</ele><time>2026-03-24T15:18:24Z</time></trkpt><trkpt lat="46.14568514935192" lon="11.794174674513686"><ele>608.0</ele><time>2026-03-24T15:18:25Z</time></trkpt><trkpt lat="46.14578992925869" lon="11.794372084262102"><ele>608.6666666666666</ele><time>2026-03-24T15:18:26Z</time></trkpt><trkpt lat="46.14589988641133" lon="11.79454902098289"><ele>609.3333333333334</ele><time>2026-03-24T15:18:27Z</time></trkpt><trkpt lat="46.14600804498064" lon="11.794710171186317"><ele>610.0</ele><time>2026-03-24T15:18:27.999Z</time></trkpt><trkpt lat="46.14612125123737" lon="11.794867890316663"><ele>610.0</ele><time>2026-03-24T15:18:28.999Z</time></trkpt><trkpt lat="46.146235943202115" lon="11.795020574604656"><ele>610.0</ele><time>2026-03-24T15:18:29.999Z</time></trkpt><trkpt lat="46.1463541759391" lon="11.79516529056674"><ele>610.0</ele><time>2026-03-24T15:18:30.999Z</time></trkpt><trkpt lat="46.14647079516526" lon="11.79530468830859"><ele>610.0</ele><time>2026-03-24T15:18:31.999Z</time></trkpt><trkpt lat="46.14658150403854" lon="11.795453460533741"><ele>610.0</ele><time>2026-03-24T15:18:32.999Z</time></trkpt><trkpt lat="46.14668015646772" lon="11.795587293833723"><ele>610.0</ele><time>2026-03-24T15:18:33.999Z</time></trkpt><trkpt lat="46.14676949977997" lon="11.795712624040524"><ele>610.0</ele><time>2026-03-24T15:18:34.999Z</time></trkpt><trkpt lat="46.14685115586802" lon="11.795828355549538"><ele>610.0</ele><time>2026-03-24T15:18:35.999Z</time></trkpt><trkpt lat="46.14692351803963" lon="11.79593848425747"><ele>610.0</ele><time>2026-03-24T15:18:36.999Z</time></trkpt><trkpt lat="46.146983229044565" lon="11.79605130568918"><ele>610.0</ele><time>2026-03-24T15:18:37.999Z</time></trkpt><trkpt lat="46.147034803177" lon="11.796150522432367"><ele>610.0</ele><time>2026-03-24T15:18:38.999Z</time></trkpt><trkpt lat="46.147078065497055" lon="11.796248402456976"><ele>610.0</ele><time>2026-03-24T15:18:39.999Z</time></trkpt><trkpt lat="46.1471141532892" lon="11.79634488474077"><ele>610.0</ele><time>2026-03-24T15:18:40.999Z</time></trkpt><trkpt lat="46.147148089499034" lon="11.796428761129912"><ele>610.5714285714286</ele><time>2026-03-24T15:18:41.999Z</time></trkpt><trkpt lat="46.14717929640584" lon="11.796513459735023"><ele>611.1428571428571</ele><time>2026-03-24T15:18:42.999Z</time></trkpt><trkpt lat="46.14718982553403" lon="11.796612859636063"><ele>611.7142857142857</ele><time>2026-03-24T15:18:43.999Z</time></trkpt><trkpt lat="46.14718948623478" lon="11.79670566576715"><ele>612.2857142857142</ele><time>2026-03-24T15:18:44.999Z</time></trkpt><trkpt lat="46.1471865838461" lon="11.796798163783095"><ele>612.8571428571429</ele><time>2026-03-24T15:18:45.999Z</time></trkpt><trkpt lat="46.147185217562985" lon="11.796899777207079"><ele>613.4285714285713</ele><time>2026-03-24T15:18:46.999Z</time></trkpt><trkpt lat="46.147221844542905" lon="11.796996893602774"><ele>614.0</ele><time>2026-03-24T15:18:47.999Z</time></trkpt><trkpt lat="46.14726841286626" lon="11.797090044600935"><ele>614.2</ele><time>2026-03-24T15:18:48.999Z</time></trkpt><trkpt lat="46.147307819616024" lon="11.797180092939794"><ele>614.4</ele><time>2026-03-24T15:18:49.999Z</time></trkpt><trkpt lat="46.14735602913476" lon="11.797287232037167"><ele>614.6</ele><time>2026-03-24T15:18:50.999Z</time></trkpt><trkpt lat="46.147395255214995" lon="11.797422666298576"><ele>614.8</ele><time>2026-03-24T15:18:51.999Z</time></trkpt><trkpt lat="46.14741803598344" lon="11.797586288879351"><ele>615.0</ele><time>2026-03-24T15:18:52.999Z</time></trkpt><trkpt lat="46.1474404834109" lon="11.7977679871874"><ele>615.5</ele><time>2026-03-24T15:18:53.999Z</time></trkpt><trkpt lat="46.1474624258853" lon="11.79795283043581"><ele>616.0</ele><time>2026-03-24T15:18:54.999Z</time></trkpt><trkpt lat="46.147484247848695" lon="11.79814819124438"><ele>616.5</ele><time>2026-03-24T15:18:55.999Z</time></trkpt><trkpt lat="46.14750422354687" lon="11.798363829571095"><ele>617.0</ele><time>2026-03-24T15:18:56.999Z</time></trkpt><trkpt lat="46.147521849484804" lon="11.798594846594945"><ele>617.0</ele><time>2026-03-24T15:18:57.999Z</time></trkpt><trkpt lat="46.14753467396745" lon="11.79883739810173"><ele>617.0</ele><time>2026-03-24T15:18:58.999Z</time></trkpt><trkpt lat="46.14754540033007" lon="11.79909201013828"><ele>617.0</ele><time>2026-03-24T15:18:59.999Z</time></trkpt><trkpt lat="46.14755427069625" lon="11.799331651907691"><ele>617.0</ele><time>2026-03-24T15:19:00.999Z</time></trkpt><trkpt lat="46.14757340309031" lon="11.799577680918766"><ele>617.0</ele><time>2026-03-24T15:19:01.999Z</time></trkpt><trkpt lat="46.147598507860614" lon="11.799835737269209"><ele>617.0</ele><time>2026-03-24T15:19:02.999Z</time></trkpt><trkpt lat="46.147645102084" lon="11.800128835191948"><ele>617.3333333333333</ele><time>2026-03-24T15:19:03.999Z</time></trkpt><trkpt lat="46.14769085393324" lon="11.800437653533303"><ele>617.6666666666666</ele><time>2026-03-24T15:19:04.999Z</time></trkpt><trkpt lat="46.14774396669126" lon="11.80074213098938"><ele>618.0</ele><time>2026-03-24T15:19:05.999Z</time></trkpt><trkpt lat="46.147795920129404" lon="11.801122445543495"><ele>619.0</ele><time>2026-03-24T15:19:06.999Z</time></trkpt><trkpt lat="46.14786138188289" lon="11.80149198878429"><ele>620.0</ele><time>2026-03-24T15:19:07.999Z</time></trkpt><trkpt lat="46.14792781350108" lon="11.801861620243578"><ele>620.5</ele><time>2026-03-24T15:19:08.999Z</time></trkpt><trkpt lat="46.147999058158774" lon="11.80224679060324"><ele>621.0</ele><time>2026-03-24T15:19:09.999Z</time></trkpt><trkpt lat="46.148078959685634" lon="11.802630851952049"><ele>621.5</ele><time>2026-03-24T15:19:10.999Z</time></trkpt><trkpt lat="46.14816897380405" lon="11.803015266496027"><ele>622.0</ele><time>2026-03-24T15:19:11.999Z</time></trkpt><trkpt lat="46.14828848857601" lon="11.803399478973908"><ele>622.5</ele><time>2026-03-24T15:19:12.999Z</time></trkpt><trkpt lat="46.14838215648801" lon="11.803792761764791"><ele>623.0</ele><time>2026-03-24T15:19:13.999Z</time></trkpt><trkpt lat="46.148498024309625" lon="11.804185282187877"><ele>623.5</ele><time>2026-03-24T15:19:14.999Z</time></trkpt><trkpt lat="46.148593357437306" lon="11.804543364844184"><ele>624.0</ele><time>2026-03-24T15:19:15.999Z</time></trkpt><trkpt lat="46.148688019307514" lon="11.804879021198042"><ele>625.0</ele><time>2026-03-24T15:19:16.999Z</time></trkpt><trkpt lat="46.148785374774974" lon="11.805180447574926"><ele>626.0</ele><time>2026-03-24T15:19:17.999Z</time></trkpt><trkpt lat="46.14886373932913" lon="11.805474853219959"><ele>627.0</ele><time>2026-03-24T15:19:18.999Z</time></trkpt><trkpt lat="46.14895263252424" lon="11.80575163650042"><ele>627.0</ele><time>2026-03-24T15:19:19.999Z</time></trkpt><trkpt lat="46.149040073015925" lon="11.806028695444788"><ele>627.0</ele><time>2026-03-24T15:19:20.999Z</time></trkpt><trkpt lat="46.149114030249656" lon="11.806290613818092"><ele>627.0</ele><time>2026-03-24T15:19:21.999Z</time></trkpt><trkpt lat="46.1491983959474" lon="11.806528073666895"><ele>627.0</ele><time>2026-03-24T15:19:22.999Z</time></trkpt><trkpt lat="46.14928299016855" lon="11.806747247736746"><ele>627.0</ele><time>2026-03-24T15:19:23.999Z</time></trkpt><trkpt lat="46.149362729873474" lon="11.806944216047919"><ele>627.0</ele><time>2026-03-24T15:19:24.999Z</time></trkpt><trkpt lat="46.14943265737864" lon="11.807109766667027"><ele>626.8000000000001</ele><time>2026-03-24T15:19:25.999Z</time></trkpt><trkpt lat="46.14949272275831" lon="11.807249319658286"><ele>626.6</ele><time>2026-03-24T15:19:26.999Z</time></trkpt><trkpt lat="46.149553924303284" lon="11.807369727726247"><ele>626.4000000000001</ele><time>2026-03-24T15:19:27.999Z</time></trkpt><trkpt lat="46.149608127120736" lon="11.807488238311658"><ele>626.2</ele><time>2026-03-24T15:19:28.998Z</time></trkpt><trkpt lat="46.149642257945125" lon="11.807623180523878"><ele>626.0</ele><time>2026-03-24T15:19:29.998Z</time></trkpt><trkpt lat="46.1496956297347" lon="11.807754408629748"><ele>627.0</ele><time>2026-03-24T15:19:30.998Z</time></trkpt><trkpt lat="46.14976372342268" lon="11.807882940967717"><ele>628.0</ele><time>2026-03-24T15:19:31.998Z</time></trkpt><trkpt lat="46.14983265244777" lon="11.808024282019966"><ele>629.0</ele><time>2026-03-24T15:19:32.998Z</time></trkpt><trkpt lat="46.149862576687255" lon="11.808219269263521"><ele>630.0</ele><time>2026-03-24T15:19:33.998Z</time></trkpt><trkpt lat="46.1499256610812" lon="11.808406323659224"><ele>629.6666666666666</ele><time>2026-03-24T15:19:34.998Z</time></trkpt><trkpt lat="46.15000439925042" lon="11.808620345524146"><ele>629.3333333333333</ele><time>2026-03-24T15:19:35.998Z</time></trkpt><trkpt lat="46.150098365588605" lon="11.808849767370777"><ele>629.0</ele><time>2026-03-24T15:19:36.998Z</time></trkpt><trkpt lat="46.15019570933825" lon="11.80909517744511"><ele>629.0</ele><time>2026-03-24T15:19:37.998Z</time></trkpt><trkpt lat="46.15030739844711" lon="11.809352822933596"><ele>629.0</ele><time>2026-03-24T15:19:38.998Z</time></trkpt><trkpt lat="46.15042354515393" lon="11.809612597385053"><ele>629.0</ele><time>2026-03-24T15:19:39.998Z</time></trkpt><trkpt lat="46.15056012698234" lon="11.8098724749362"><ele>629.0</ele><time>2026-03-24T15:19:40.998Z</time></trkpt><trkpt lat="46.15071163418777" lon="11.810137856609094"><ele>629.0</ele><time>2026-03-24T15:19:41.998Z</time></trkpt><trkpt lat="46.15087148674684" lon="11.810380439063524"><ele>630.5</ele><time>2026-03-24T15:19:43Z</time></trkpt><trkpt lat="46.15104635184162" lon="11.810621706751778"><ele>632.0</ele><time>2026-03-24T15:19:44Z</time></trkpt><trkpt lat="46.15122578047572" lon="11.810857357671223"><ele>633.0</ele><time>2026-03-24T15:19:45Z</time></trkpt><trkpt lat="46.151410742549864" lon="11.811092313532733"><ele>634.0</ele><time>2026-03-24T15:19:46Z</time></trkpt><trkpt lat="46.15159569193721" lon="11.81131587417956"><ele>634.3333333333334</ele><time>2026-03-24T15:19:47Z</time></trkpt><trkpt lat="46.15177768516244" lon="11.81150613751426"><ele>634.6666666666666</ele><time>2026-03-24T15:19:48Z</time></trkpt><trkpt lat="46.15195514281702" lon="11.811680633664242"><ele>635.0</ele><time>2026-03-24T15:19:49Z</time></trkpt><trkpt lat="46.152137605513474" lon="11.8118488747086"><ele>635.0</ele><time>2026-03-24T15:19:50Z</time></trkpt><trkpt lat="46.15232839918587" lon="11.812000616144239"><ele>635.0</ele><time>2026-03-24T15:19:51Z</time></trkpt><trkpt lat="46.15252731188792" lon="11.812143755369709"><ele>635.0</ele><time>2026-03-24T15:19:52Z</time></trkpt><trkpt lat="46.152734743823935" lon="11.812304481190854"><ele>635.0</ele><time>2026-03-24T15:19:53Z</time></trkpt><trkpt lat="46.15294052429085" lon="11.81247261128139"><ele>635.0</ele><time>2026-03-24T15:19:54Z</time></trkpt><trkpt lat="46.15315102099209" lon="11.812649029305224"><ele>637.0</ele><time>2026-03-24T15:19:55Z</time></trkpt><trkpt lat="46.15336749523173" lon="11.812822221246087"><ele>639.0</ele><time>2026-03-24T15:19:56Z</time></trkpt><trkpt lat="46.153591962304226" lon="11.812995216907524"><ele>639.0</ele><time>2026-03-24T15:19:57Z</time></trkpt><trkpt lat="46.15382094975278" lon="11.813152506812573"><ele>639.0</ele><time>2026-03-24T15:19:58Z</time></trkpt><trkpt lat="46.15403981040911" lon="11.813285253797364"><ele>639.6666666666666</ele><time>2026-03-24T15:19:59Z</time></trkpt><trkpt lat="46.15424141026577" lon="11.813395325376273"><ele>640.3333333333333</ele><time>2026-03-24T15:20:00Z</time></trkpt><trkpt lat="46.154440680055245" lon="11.813483527858434"><ele>641.0</ele><time>2026-03-24T15:20:01Z</time></trkpt><trkpt lat="46.15464108678638" lon="11.81357423763031"><ele>641.6666666666666</ele><time>2026-03-24T15:20:02Z</time></trkpt><trkpt lat="46.15483667794267" lon="11.81365865679272"><ele>642.3333333333334</ele><time>2026-03-24T15:20:03Z</time></trkpt><trkpt lat="46.15501391929397" lon="11.813739322980085"><ele>643.0</ele><time>2026-03-24T15:20:04Z</time></trkpt><trkpt lat="46.15517825551629" lon="11.813813617226728"><ele>643.0</ele><time>2026-03-24T15:20:05Z</time></trkpt><trkpt lat="46.15531485169442" lon="11.81388628938387"><ele>643.0</ele><time>2026-03-24T15:20:06Z</time></trkpt><trkpt lat="46.15542977515551" lon="11.813962148684293"><ele>643.0</ele><time>2026-03-24T15:20:07Z</time></trkpt><trkpt lat="46.15553407698831" lon="11.814035644032879"><ele>643.0</ele><time>2026-03-24T15:20:08Z</time></trkpt><trkpt lat="46.1556246755641" lon="11.814107407745965"><ele>643.8</ele><time>2026-03-24T15:20:09Z</time></trkpt><trkpt lat="46.155705873894405" lon="11.814170525751125"><ele>644.5999999999999</ele><time>2026-03-24T15:20:10Z</time></trkpt><trkpt lat="46.1557895379962" lon="11.8142351535364"><ele>645.4000000000001</ele><time>2026-03-24T15:20:11Z</time></trkpt><trkpt lat="46.155879106103825" lon="11.814307912472247"><ele>646.2</ele><time>2026-03-24T15:20:12Z</time></trkpt><trkpt lat="46.15597750621672" lon="11.814382524834151"><ele>647.0</ele><time>2026-03-24T15:20:13Z</time></trkpt><trkpt lat="46.156076870284174" lon="11.814473087216943"><ele>647.0</ele><time>2026-03-24T15:20:14Z</time></trkpt><trkpt lat="46.15615907044942" lon="11.814586891012015"><ele>647.0</ele><time>2026-03-24T15:20:15Z</time></trkpt><trkpt lat="46.156242170504946" lon="11.81470432311065"><ele>647.0</ele><time>2026-03-24T15:20:16Z</time></trkpt><trkpt lat="46.1563151614194" lon="11.814831490323034"><ele>647.0</ele><time>2026-03-24T15:20:17Z</time></trkpt><trkpt lat="46.156378527100394" lon="11.814974520931496"><ele>647.0</ele><time>2026-03-24T15:20:18Z</time></trkpt><trkpt lat="46.15644142305922" lon="11.815117160760137"><ele>647.0</ele><time>2026-03-24T15:20:19Z</time></trkpt><trkpt lat="46.15650659008703" lon="11.81526633465066"><ele>647.0</ele><time>2026-03-24T15:20:20Z</time></trkpt><trkpt lat="46.156569050497296" lon="11.815418414638854"><ele>647.0</ele><time>2026-03-24T15:20:21Z</time></trkpt><trkpt lat="46.15662687891714" lon="11.815550628249007"><ele>648.5</ele><time>2026-03-24T15:20:22Z</time></trkpt><trkpt lat="46.15668624945466" lon="11.815694468517774"><ele>650.0</ele><time>2026-03-24T15:20:23Z</time></trkpt><trkpt lat="46.156749069351356" lon="11.815836246685935"><ele>651.5</ele><time>2026-03-24T15:20:24Z</time></trkpt><trkpt lat="46.156809405375824" lon="11.815975889252819"><ele>653.0</ele><time>2026-03-24T15:20:25Z</time></trkpt><trkpt lat="46.156869467974495" lon="11.816112241445092"><ele>654.75</ele><time>2026-03-24T15:20:26Z</time></trkpt><trkpt lat="46.156929287705154" lon="11.81626255886674"><ele>656.5</ele><time>2026-03-24T15:20:27Z</time></trkpt><trkpt lat="46.156993524513084" lon="11.816422512125481"><ele>658.25</ele><time>2026-03-24T15:20:28Z</time></trkpt><trkpt lat="46.157063371369475" lon="11.816587683091473"><ele>660.0</ele><time>2026-03-24T15:20:28.999Z</time></trkpt><trkpt lat="46.15713865952007" lon="11.816756349053618"><ele>660.0</ele><time>2026-03-24T15:20:29.999Z</time></trkpt><trkpt lat="46.15721622495737" lon="11.816928912154538"><ele>660.0</ele><time>2026-03-24T15:20:30.999Z</time></trkpt><trkpt lat="46.15729911224153" lon="11.817105084741389"><ele>660.0</ele><time>2026-03-24T15:20:31.999Z</time></trkpt><trkpt lat="46.15739141254541" lon="11.817281604098266"><ele>660.0</ele><time>2026-03-24T15:20:32.999Z</time></trkpt><trkpt lat="46.157498236006035" lon="11.817450562886258"><ele>660.0</ele><time>2026-03-24T15:20:33.999Z</time></trkpt><trkpt lat="46.15762280751182" lon="11.817609507806932"><ele>660.0</ele><time>2026-03-24T15:20:34.999Z</time></trkpt><trkpt lat="46.157765031552785" lon="11.817767354419226"><ele>660.0</ele><time>2026-03-24T15:20:35.999Z</time></trkpt><trkpt lat="46.15792382286222" lon="11.817915732905494"><ele>660.0</ele><time>2026-03-24T15:20:36.999Z</time></trkpt><trkpt lat="46.158094190048566" lon="11.81806108853129"><ele>660.0</ele><time>2026-03-24T15:20:37.999Z</time></trkpt><trkpt lat="46.158263591844445" lon="11.818201473889589"><ele>660.0</ele><time>2026-03-24T15:20:38.999Z</time></trkpt><trkpt lat="46.15842107478536" lon="11.8183483711616"><ele>659.3333333333334</ele><time>2026-03-24T15:20:39.999Z</time></trkpt><trkpt lat="46.15858173100156" lon="11.81849149605256"><ele>658.6666666666667</ele><time>2026-03-24T15:20:40.999Z</time></trkpt><trkpt lat="46.15874288032564" lon="11.81863506026718"><ele>658.0</ele><time>2026-03-24T15:20:41.999Z</time></trkpt><trkpt lat="46.15889216820458" lon="11.818768057460222"><ele>658.0</ele><time>2026-03-24T15:20:42.999Z</time></trkpt><trkpt lat="46.15902234275347" lon="11.8188840269568"><ele>658.0</ele><time>2026-03-24T15:20:43.999Z</time></trkpt><trkpt lat="46.1590943441261" lon="11.81895739391189"><ele>658.0</ele><time>2026-03-24T15:20:45.999Z</time></trkpt><trkpt lat="46.15920929518755" lon="11.819075799623281"><ele>658.0</ele><time>2026-03-24T15:20:46.999Z</time></trkpt><trkpt lat="46.159324575137006" lon="11.81917436273532"><ele>658.25</ele><time>2026-03-24T15:20:47.999Z</time></trkpt><trkpt lat="46.159444537555" lon="11.819276711631277"><ele>658.5</ele><time>2026-03-24T15:20:48.999Z</time></trkpt><trkpt lat="46.15956257704063" lon="11.819379353825795"><ele>658.75</ele><time>2026-03-24T15:20:49.999Z</time></trkpt><trkpt lat="46.15968033999616" lon="11.81948696039755"><ele>659.0</ele><time>2026-03-24T15:20:50.999Z</time></trkpt><trkpt lat="46.15980103246529" lon="11.81959226788"><ele>661.25</ele><time>2026-03-24T15:20:51.999Z</time></trkpt><trkpt lat="46.159920509797104" lon="11.819700958938245"><ele>663.5</ele><time>2026-03-24T15:20:52.999Z</time></trkpt><trkpt lat="46.160042255879205" lon="11.819808013259589"><ele>665.75</ele><time>2026-03-24T15:20:53.999Z</time></trkpt><trkpt lat="46.16016252771276" lon="11.81990979646864"><ele>668.0</ele><time>2026-03-24T15:20:54.999Z</time></trkpt><trkpt lat="46.1602829182879" lon="11.820002539252178"><ele>668.0</ele><time>2026-03-24T15:20:55.999Z</time></trkpt><trkpt lat="46.160393539295406" lon="11.82010444524559"><ele>668.0</ele><time>2026-03-24T15:20:56.999Z</time></trkpt><trkpt lat="46.160494663414696" lon="11.82019084878648"><ele>668.0</ele><time>2026-03-24T15:20:57.999Z</time></trkpt><trkpt lat="46.16058614573888" lon="11.820269749140712"><ele>668.0</ele><time>2026-03-24T15:20:58.999Z</time></trkpt><trkpt lat="46.160671424691245" lon="11.820347885002121"><ele>667.8333333333333</ele><time>2026-03-24T15:20:59.999Z</time></trkpt><trkpt lat="46.16075824309712" lon="11.820420626433107"><ele>667.6666666666666</ele><time>2026-03-24T15:21:00.999Z</time></trkpt><trkpt lat="46.16084231593366" lon="11.820489702940684"><ele>667.5</ele><time>2026-03-24T15:21:01.999Z</time></trkpt><trkpt lat="46.160898133848654" lon="11.82053284998777"><ele>667.3333333333334</ele><time>2026-03-24T15:21:02.999Z</time></trkpt><trkpt lat="46.16094568987201" lon="11.820593385364374"><ele>667.1666666666667</ele><time>2026-03-24T15:21:05.999Z</time></trkpt><trkpt lat="46.1610110825971" lon="11.820668052036718"><ele>667.0</ele><time>2026-03-24T15:21:10.999Z</time></trkpt><trkpt lat="46.16106597580598" lon="11.820619589639092"><ele>667.0</ele><time>2026-03-24T15:25:44.999Z</time></trkpt><trkpt lat="46.16114085441491" lon="11.820623274494116"><ele>667.0</ele><time>2026-03-24T15:25:46.998Z</time></trkpt><trkpt lat="46.16122654394863" lon="11.820628267653332"><ele>667.0</ele><time>2026-03-24T15:25:47.998Z</time></trkpt><trkpt lat="46.161332742059294" lon="11.82066532592027"><ele>667.0</ele><time>2026-03-24T15:25:48.998Z</time></trkpt><trkpt lat="46.16143034627205" lon="11.820686074945172"><ele>667.0</ele><time>2026-03-24T15:25:49.998Z</time></trkpt><trkpt lat="46.16153931777469" lon="11.820707185428262"><ele>669.75</ele><time>2026-03-24T15:25:50.998Z</time></trkpt><trkpt lat="46.16165910100948" lon="11.820737618207056"><ele>672.5</ele><time>2026-03-24T15:25:51.998Z</time></trkpt><trkpt lat="46.1617758625069" lon="11.820764272445217"><ele>675.25</ele><time>2026-03-24T15:25:52.998Z</time></trkpt><trkpt lat="46.16189284405313" lon="11.820786722168123"><ele>678.0</ele><time>2026-03-24T15:25:53.998Z</time></trkpt><trkpt lat="46.162014753138905" lon="11.820809405045722"><ele>678.0</ele><time>2026-03-24T15:25:54.998Z</time></trkpt><trkpt lat="46.16215657005658" lon="11.820834140405132"><ele>678.0</ele><time>2026-03-24T15:25:55.998Z</time></trkpt><trkpt lat="46.16229688912125" lon="11.820854839415636"><ele>678.0</ele><time>2026-03-24T15:25:56.998Z</time></trkpt><trkpt lat="46.16245795096967" lon="11.820884888207692"><ele>678.0</ele><time>2026-03-24T15:25:57.998Z</time></trkpt><trkpt lat="46.16261799827802" lon="11.82090752185182"><ele>679.3333333333334</ele><time>2026-03-24T15:25:58.998Z</time></trkpt><trkpt lat="46.162793440018746" lon="11.820934314324862"><ele>680.6666666666667</ele><time>2026-03-24T15:25:59.998Z</time></trkpt><trkpt lat="46.162978587427745" lon="11.820972782316108"><ele>682.0</ele><time>2026-03-24T15:26:01Z</time></trkpt><trkpt lat="46.163173388925216" lon="11.821009341380794"><ele>681.3333333333334</ele><time>2026-03-24T15:26:02Z</time></trkpt><trkpt lat="46.163355458398" lon="11.82104640149078"><ele>680.6666666666666</ele><time>2026-03-24T15:26:03Z</time></trkpt><trkpt lat="46.163553252667924" lon="11.821069892747856"><ele>680.0</ele><time>2026-03-24T15:26:04Z</time></trkpt><trkpt lat="46.16374522285297" lon="11.821094178412483"><ele>680.0</ele><time>2026-03-24T15:26:05Z</time></trkpt><trkpt lat="46.163954054361454" lon="11.821119851273128"><ele>680.0</ele><time>2026-03-24T15:26:06Z</time></trkpt><trkpt lat="46.164159148664766" lon="11.821142158853611"><ele>680.0</ele><time>2026-03-24T15:26:07Z</time></trkpt><trkpt lat="46.164365337070265" lon="11.821168762744998"><ele>679.6666666666666</ele><time>2026-03-24T15:26:08Z</time></trkpt><trkpt lat="46.16457042489032" lon="11.821199622820346"><ele>679.3333333333334</ele><time>2026-03-24T15:26:09Z</time></trkpt><trkpt lat="46.16476945730405" lon="11.821226094504087"><ele>679.0</ele><time>2026-03-24T15:26:10Z</time></trkpt><trkpt lat="46.164956714682496" lon="11.82124523848856"><ele>679.0</ele><time>2026-03-24T15:26:11Z</time></trkpt><trkpt lat="46.1651388506806" lon="11.821271515845092"><ele>679.0</ele><time>2026-03-24T15:26:12Z</time></trkpt><trkpt lat="46.1653106937805" lon="11.821297944107721"><ele>679.0</ele><time>2026-03-24T15:26:13Z</time></trkpt><trkpt lat="46.16548682040366" lon="11.821320797108747"><ele>679.0</ele><time>2026-03-24T15:26:14Z</time></trkpt><trkpt lat="46.165653492853615" lon="11.821340645641417"><ele>679.0</ele><time>2026-03-24T15:26:15Z</time></trkpt><trkpt lat="46.16581620184941" lon="11.821366630782412"><ele>679.0</ele><time>2026-03-24T15:26:16Z</time></trkpt><trkpt lat="46.16597944328854" lon="11.821388625889467"><ele>681.0</ele><time>2026-03-24T15:26:17Z</time></trkpt><trkpt lat="46.16614045592557" lon="11.821405527958907"><ele>683.0</ele><time>2026-03-24T15:26:18Z</time></trkpt><trkpt lat="46.16629475160812" lon="11.82142541343129"><ele>685.0</ele><time>2026-03-24T15:26:19Z</time></trkpt><trkpt lat="46.16645289507475" lon="11.821445136017758"><ele>685.5</ele><time>2026-03-24T15:26:20Z</time></trkpt><trkpt lat="46.166601331194265" lon="11.82146084613804"><ele>686.0</ele><time>2026-03-24T15:26:21Z</time></trkpt><trkpt lat="46.16675062762211" lon="11.82147713136573"><ele>686.5</ele><time>2026-03-24T15:26:22Z</time></trkpt><trkpt lat="46.16688814780642" lon="11.82149526101799"><ele>687.0</ele><time>2026-03-24T15:26:23Z</time></trkpt><trkpt lat="46.16701680247981" lon="11.82150735750588"><ele>687.0</ele><time>2026-03-24T15:26:24Z</time></trkpt><trkpt lat="46.16713473735521" lon="11.821517081654518"><ele>687.0</ele><time>2026-03-24T15:26:25Z</time></trkpt><trkpt lat="46.16724839263352" lon="11.821536181543566"><ele>687.0</ele><time>2026-03-24T15:26:26Z</time></trkpt><trkpt lat="46.16737160257651" lon="11.821556412832447"><ele>687.0</ele><time>2026-03-24T15:26:27Z</time></trkpt><trkpt lat="46.16749055607931" lon="11.821571597275955"><ele>687.75</ele><time>2026-03-24T15:26:28Z</time></trkpt><trkpt lat="46.16760814315164" lon="11.821586227920308"><ele>688.5</ele><time>2026-03-24T15:26:29Z</time></trkpt><trkpt lat="46.167726476553476" lon="11.821596724882987"><ele>689.25</ele><time>2026-03-24T15:26:30Z</time></trkpt><trkpt lat="46.16784796312006" lon="11.821608543783903"><ele>690.0</ele><time>2026-03-24T15:26:31Z</time></trkpt><trkpt lat="46.16797353553561" lon="11.8216245176254"><ele>690.0</ele><time>2026-03-24T15:26:32Z</time></trkpt><trkpt lat="46.16809955104378" lon="11.821640583003223"><ele>690.0</ele><time>2026-03-24T15:26:33Z</time></trkpt><trkpt lat="46.16822366927986" lon="11.821658610136042"><ele>690.0</ele><time>2026-03-24T15:26:34Z</time></trkpt><trkpt lat="46.16835084424664" lon="11.82167523733393"><ele>690.0</ele><time>2026-03-24T15:26:35Z</time></trkpt><trkpt lat="46.16848150577102" lon="11.821702054058669"><ele>689.25</ele><time>2026-03-24T15:26:36Z</time></trkpt><trkpt lat="46.1686143658311" lon="11.821728345453623"><ele>688.5</ele><time>2026-03-24T15:26:37Z</time></trkpt><trkpt lat="46.16874757811304" lon="11.821759891306058"><ele>687.75</ele><time>2026-03-24T15:26:38Z</time></trkpt><trkpt lat="46.16888008864652" lon="11.821802559322405"><ele>687.0</ele><time>2026-03-24T15:26:39Z</time></trkpt><trkpt lat="46.16900859806571" lon="11.821844094718779"><ele>687.5</ele><time>2026-03-24T15:26:40Z</time></trkpt><trkpt lat="46.169137022073826" lon="11.821885109404581"><ele>688.0</ele><time>2026-03-24T15:26:41Z</time></trkpt><trkpt lat="46.16926599835297" lon="11.821923862214842"><ele>688.5</ele><time>2026-03-24T15:26:42Z</time></trkpt><trkpt lat="46.169393106401124" lon="11.821965335511083"><ele>689.0</ele><time>2026-03-24T15:26:43Z</time></trkpt><trkpt lat="46.16952256652113" lon="11.82200566680513"><ele>689.0</ele><time>2026-03-24T15:26:44Z</time></trkpt><trkpt lat="46.169652316280214" lon="11.822048901181892"><ele>689.0</ele><time>2026-03-24T15:26:45Z</time></trkpt><trkpt lat="46.16977952368258" lon="11.822098283714062"><ele>689.0</ele><time>2026-03-24T15:26:45.999Z</time></trkpt><trkpt lat="46.1699018052585" lon="11.822159337125694"><ele>689.0</ele><time>2026-03-24T15:26:46.999Z</time></trkpt><trkpt lat="46.17001965849975" lon="11.82223967236339"><ele>689.6</ele><time>2026-03-24T15:26:47.999Z</time></trkpt><trkpt lat="46.17012935463529" lon="11.82233425978045"><ele>690.2</ele><time>2026-03-24T15:26:48.999Z</time></trkpt><trkpt lat="46.17023388389157" lon="11.822445021942363"><ele>690.8000000000001</ele><time>2026-03-24T15:26:49.999Z</time></trkpt><trkpt lat="46.17031360330735" lon="11.822542659014763"><ele>691.4000000000001</ele><time>2026-03-24T15:26:50.999Z</time></trkpt><trkpt lat="46.17037635469397" lon="11.822616907940784"><ele>692.0</ele><time>2026-03-24T15:26:51.999Z</time></trkpt><trkpt lat="46.17042421913397" lon="11.822686047841408"><ele>692.0</ele><time>2026-03-24T15:26:52.999Z</time></trkpt><trkpt lat="46.17050307116182" lon="11.822808229743163"><ele>692.0</ele><time>2026-03-24T15:26:54.999Z</time></trkpt><trkpt lat="46.17053590614938" lon="11.82297402380878"><ele>692.0</ele><time>2026-03-24T15:26:56.999Z</time></trkpt><trkpt lat="46.17051116518241" lon="11.82315459585507"><ele>692.0</ele><time>2026-03-24T15:26:58.999Z</time></trkpt><trkpt lat="46.170511395445416" lon="11.82324912402752"><ele>692.0</ele><time>2026-03-24T15:26:59.999Z</time></trkpt><trkpt lat="46.170538566850404" lon="11.823342127385823"><ele>692.0</ele><time>2026-03-24T15:27:00.999Z</time></trkpt><trkpt lat="46.17059428673974" lon="11.823405361287687"><ele>692.0</ele><time>2026-03-24T15:27:01.999Z</time></trkpt><trkpt lat="46.170667155103835" lon="11.82341318623575"><ele>692.0</ele><time>2026-03-24T15:27:02.999Z</time></trkpt><trkpt lat="46.17072659316284" lon="11.823380422763407"><ele>692.0</ele><time>2026-03-24T15:27:03.999Z</time></trkpt><trkpt lat="46.170807548116386" lon="11.823302608084974"><ele>692.0</ele><time>2026-03-24T15:27:05.999Z</time></trkpt><trkpt lat="46.17094231120372" lon="11.823367440478314"><ele>692.0</ele><time>2026-03-24T15:27:07.999Z</time></trkpt><trkpt lat="46.17100945716626" lon="11.823464466021964"><ele>692.4000000000001</ele><time>2026-03-24T15:27:09.999Z</time></trkpt><trkpt lat="46.17107653554346" lon="11.823565781266053"><ele>692.8000000000001</ele><time>2026-03-24T15:27:11.999Z</time></trkpt><trkpt lat="46.1711464190996" lon="11.823663462593553"><ele>693.2</ele><time>2026-03-24T15:27:13.999Z</time></trkpt><trkpt lat="46.17123353430702" lon="11.82379112659666"><ele>693.6</ele><time>2026-03-24T15:27:15.999Z</time></trkpt><trkpt lat="46.17127504726695" lon="11.82388023276724"><ele>694.0</ele><time>2026-03-24T15:27:16.999Z</time></trkpt><trkpt lat="46.17131903929468" lon="11.823979019690475"><ele>694.0</ele><time>2026-03-24T15:27:17.999Z</time></trkpt><trkpt lat="46.17137534434994" lon="11.824084079015178"><ele>694.0</ele><time>2026-03-24T15:27:18.999Z</time></trkpt><trkpt lat="46.17140784836349" lon="11.824207295730995"><ele>694.0</ele><time>2026-03-24T15:27:19.999Z</time></trkpt><trkpt lat="46.171434228249794" lon="11.824341599886392"><ele>694.0</ele><time>2026-03-24T15:27:20.999Z</time></trkpt><trkpt lat="46.17146461888583" lon="11.824479317610244"><ele>694.0</ele><time>2026-03-24T15:27:21.999Z</time></trkpt><trkpt lat="46.17149061988612" lon="11.824624381643709"><ele>694.4000000000001</ele><time>2026-03-24T15:27:22.999Z</time></trkpt><trkpt lat="46.171517962434855" lon="11.82477514061826"><ele>694.8</ele><time>2026-03-24T15:27:23.999Z</time></trkpt><trkpt lat="46.17155417096186" lon="11.824920321150755"><ele>695.2</ele><time>2026-03-24T15:27:24.999Z</time></trkpt><trkpt lat="46.17158616570122" lon="11.825063357945748"><ele>695.5999999999999</ele><time>2026-03-24T15:27:25.999Z</time></trkpt><trkpt lat="46.17160228097659" lon="11.82521099407476"><ele>696.0</ele><time>2026-03-24T15:27:26.999Z</time></trkpt><trkpt lat="46.171633105468906" lon="11.825352599532252"><ele>696.5999999999999</ele><time>2026-03-24T15:27:27.999Z</time></trkpt><trkpt lat="46.171667439794454" lon="11.825491995642082"><ele>697.2</ele><time>2026-03-24T15:27:28.999Z</time></trkpt><trkpt lat="46.17171363848016" lon="11.825626941222712"><ele>697.8</ele><time>2026-03-24T15:27:29.999Z</time></trkpt><trkpt lat="46.17176843157918" lon="11.825753333643807"><ele>698.4000000000001</ele><time>2026-03-24T15:27:30.999Z</time></trkpt><trkpt lat="46.171835263827255" lon="11.825884631154393"><ele>699.0</ele><time>2026-03-24T15:27:31.999Z</time></trkpt><trkpt lat="46.17191213066752" lon="11.826006995733369"><ele>699.0</ele><time>2026-03-24T15:27:32.999Z</time></trkpt><trkpt lat="46.17199916663891" lon="11.826112535951426"><ele>699.0</ele><time>2026-03-24T15:27:33.999Z</time></trkpt><trkpt lat="46.17209407505655" lon="11.82620042672065"><ele>699.0</ele><time>2026-03-24T15:27:34.999Z</time></trkpt><trkpt lat="46.17219331748491" lon="11.826268151535691"><ele>699.0</ele><time>2026-03-24T15:27:35.999Z</time></trkpt><trkpt lat="46.17229204483471" lon="11.826309536779444"><ele>699.0</ele><time>2026-03-24T15:27:36.999Z</time></trkpt><trkpt lat="46.172371941121305" lon="11.82636589455557"><ele>699.8000000000001</ele><time>2026-03-24T15:27:37.999Z</time></trkpt><trkpt lat="46.172451217936434" lon="11.826417629003755"><ele>700.6</ele><time>2026-03-24T15:27:38.999Z</time></trkpt><trkpt lat="46.17254482215196" lon="11.826471211393462"><ele>701.4</ele><time>2026-03-24T15:27:39.999Z</time></trkpt><trkpt lat="46.17264078170899" lon="11.826531981196275"><ele>702.2</ele><time>2026-03-24T15:27:40.999Z</time></trkpt><trkpt lat="46.172746991135995" lon="11.82659280198572"><ele>703.0</ele><time>2026-03-24T15:27:41.999Z</time></trkpt><trkpt lat="46.172853216132005" lon="11.82666994722933"><ele>703.0</ele><time>2026-03-24T15:27:42.999Z</time></trkpt><trkpt lat="46.172954429873876" lon="11.826723337277123"><ele>703.0</ele><time>2026-03-24T15:27:43.999Z</time></trkpt><trkpt lat="46.1730485313657" lon="11.826782155906749"><ele>703.0</ele><time>2026-03-24T15:27:44.999Z</time></trkpt><trkpt lat="46.17313676673412" lon="11.826831310878605"><ele>703.0</ele><time>2026-03-24T15:27:45.999Z</time></trkpt><trkpt lat="46.173227024660626" lon="11.826884219412268"><ele>703.0</ele><time>2026-03-24T15:27:46.999Z</time></trkpt><trkpt lat="46.17332233437964" lon="11.826942308502344"><ele>703.2</ele><time>2026-03-24T15:27:47.999Z</time></trkpt><trkpt lat="46.173412216909306" lon="11.82699687657322"><ele>703.4</ele><time>2026-03-24T15:27:48.999Z</time></trkpt><trkpt lat="46.17350306287093" lon="11.827065749666529"><ele>703.6</ele><time>2026-03-24T15:27:49.998Z</time></trkpt><trkpt lat="46.173590348175786" lon="11.827114514230995"><ele>703.8000000000001</ele><time>2026-03-24T15:27:50.998Z</time></trkpt><trkpt lat="46.17368457741271" lon="11.827170102473298"><ele>704.0</ele><time>2026-03-24T15:27:51.998Z</time></trkpt><trkpt lat="46.17377367875437" lon="11.827221547955705"><ele>704.0</ele><time>2026-03-24T15:27:52.998Z</time></trkpt><trkpt lat="46.17386719232329" lon="11.827271180699857"><ele>704.0</ele><time>2026-03-24T15:27:53.998Z</time></trkpt><trkpt lat="46.17395899860922" lon="11.827331534149529"><ele>704.0</ele><time>2026-03-24T15:27:54.998Z</time></trkpt><trkpt lat="46.1740446936083" lon="11.827389744145757"><ele>704.0</ele><time>2026-03-24T15:27:55.998Z</time></trkpt><trkpt lat="46.174141364683265" lon="11.82744475550898"><ele>704.0</ele><time>2026-03-24T15:27:56.998Z</time></trkpt><trkpt lat="46.17423788922051" lon="11.827493536068777"><ele>704.75</ele><time>2026-03-24T15:27:57.998Z</time></trkpt><trkpt lat="46.17433974434383" lon="11.827550298704129"><ele>705.5</ele><time>2026-03-24T15:27:58.998Z</time></trkpt><trkpt lat="46.17444395141784" lon="11.82760679488095"><ele>706.25</ele><time>2026-03-24T15:27:59.998Z</time></trkpt><trkpt lat="46.1745538599179" lon="11.827678722029507"><ele>707.0</ele><time>2026-03-24T15:28:00.998Z</time></trkpt><trkpt lat="46.174655087782384" lon="11.827737133185991"><ele>707.0</ele><time>2026-03-24T15:28:01.998Z</time></trkpt><trkpt lat="46.17475869945409" lon="11.827790318900561"><ele>707.0</ele><time>2026-03-24T15:28:02.998Z</time></trkpt><trkpt lat="46.17485446554378" lon="11.827843154349974"><ele>707.0</ele><time>2026-03-24T15:28:03.998Z</time></trkpt><trkpt lat="46.17494779556407" lon="11.827898555317699"><ele>707.0</ele><time>2026-03-24T15:28:04.998Z</time></trkpt><trkpt lat="46.17503740096455" lon="11.82795395259355"><ele>707.0</ele><time>2026-03-24T15:28:05.998Z</time></trkpt><trkpt lat="46.1751220306149" lon="11.828002526919636"><ele>707.8</ele><time>2026-03-24T15:28:07Z</time></trkpt><trkpt lat="46.17519612425138" lon="11.828036006823774"><ele>708.6</ele><time>2026-03-24T15:28:08Z</time></trkpt><trkpt lat="46.17526703290743" lon="11.828074608952626"><ele>709.4</ele><time>2026-03-24T15:28:09Z</time></trkpt><trkpt lat="46.17537609535524" lon="11.828129684635938"><ele>710.1999999999999</ele><time>2026-03-24T15:28:11Z</time></trkpt><trkpt lat="46.17547480616437" lon="11.828159321511038"><ele>711.0</ele><time>2026-03-24T15:28:13Z</time></trkpt><trkpt lat="46.17556358322755" lon="11.828215626388255"><ele>711.0</ele><time>2026-03-24T15:28:15Z</time></trkpt><trkpt lat="46.17561481740733" lon="11.828349235664527"><ele>711.0</ele><time>2026-03-24T15:28:17Z</time></trkpt><trkpt lat="46.17561809571435" lon="11.828446174465068"><ele>711.0</ele><time>2026-03-24T15:28:18Z</time></trkpt><trkpt lat="46.175631980330536" lon="11.82854371935513"><ele>711.0</ele><time>2026-03-24T15:28:19Z</time></trkpt><trkpt lat="46.17565496211315" lon="11.828720282106278"><ele>711.0</ele><time>2026-03-24T15:28:21Z</time></trkpt><trkpt lat="46.17568326888241" lon="11.828814468918623"><ele>711.0</ele><time>2026-03-24T15:28:22Z</time></trkpt><trkpt lat="46.17568742455855" lon="11.828919283434645"><ele>711.1666666666666</ele><time>2026-03-24T15:28:23Z</time></trkpt><trkpt lat="46.175708227277774" lon="11.8290271785694"><ele>711.3333333333334</ele><time>2026-03-24T15:28:24Z</time></trkpt><trkpt lat="46.17571330967628" lon="11.829144024971676"><ele>711.5</ele><time>2026-03-24T15:28:25Z</time></trkpt><trkpt lat="46.17572804922782" lon="11.829245623550726"><ele>711.6666666666667</ele><time>2026-03-24T15:28:26Z</time></trkpt><trkpt lat="46.1757299067372" lon="11.829343053414284"><ele>711.8333333333334</ele><time>2026-03-24T15:28:29Z</time></trkpt><trkpt lat="46.17573607832171" lon="11.829471648389312"><ele>712.0</ele><time>2026-03-24T15:28:32Z</time></trkpt><trkpt lat="46.17572313949822" lon="11.829665558673861"><ele>712.5</ele><time>2026-03-24T15:28:34Z</time></trkpt><trkpt lat="46.1757131580087" lon="11.829784128309951"><ele>713.0</ele><time>2026-03-24T15:28:35Z</time></trkpt><trkpt lat="46.17570316796376" lon="11.82990462390743"><ele>713.5</ele><time>2026-03-24T15:28:36Z</time></trkpt><trkpt lat="46.17569238668295" lon="11.830032538878426"><ele>714.0</ele><time>2026-03-24T15:28:37Z</time></trkpt><trkpt lat="46.175680724803264" lon="11.830170901173691"><ele>714.5</ele><time>2026-03-24T15:28:38Z</time></trkpt><trkpt lat="46.17566860629109" lon="11.830299336805526"><ele>715.0</ele><time>2026-03-24T15:28:39Z</time></trkpt><trkpt lat="46.175666923630146" lon="11.830412665525092"><ele>714.5</ele><time>2026-03-24T15:28:40Z</time></trkpt><trkpt lat="46.17569849824154" lon="11.830522193104127"><ele>714.0</ele><time>2026-03-24T15:28:41Z</time></trkpt><trkpt lat="46.17583935920897" lon="11.83055558666492"><ele>713.5</ele><time>2026-03-24T15:28:43Z</time></trkpt><trkpt lat="46.17599462118234" lon="11.83054692685074"><ele>713.0</ele><time>2026-03-24T15:28:44.999Z</time></trkpt><trkpt lat="46.17608886985629" lon="11.830562970280408"><ele>713.0</ele><time>2026-03-24T15:28:45.999Z</time></trkpt><trkpt lat="46.17620067092196" lon="11.830562742599993"><ele>713.0</ele><time>2026-03-24T15:28:46.999Z</time></trkpt><trkpt lat="46.17631325714119" lon="11.830567953689721"><ele>713.0</ele><time>2026-03-24T15:28:47.999Z</time></trkpt><trkpt lat="46.176421231592194" lon="11.83057747878419"><ele>713.0</ele><time>2026-03-24T15:28:48.999Z</time></trkpt><trkpt lat="46.17652810538682" lon="11.83057386451835"><ele>713.0</ele><time>2026-03-24T15:28:49.999Z</time></trkpt><trkpt lat="46.176615993884845" lon="11.830582380250224"><ele>713.4</ele><time>2026-03-24T15:28:50.999Z</time></trkpt><trkpt lat="46.176697013940796" lon="11.830588582029918"><ele>713.8</ele><time>2026-03-24T15:28:51.999Z</time></trkpt><trkpt lat="46.176776257827925" lon="11.830589987218794"><ele>714.2</ele><time>2026-03-24T15:28:52.999Z</time></trkpt><trkpt lat="46.17683931279069" lon="11.830595708162539"><ele>714.6</ele><time>2026-03-24T15:28:53.999Z</time></trkpt><trkpt lat="46.17696252440123" lon="11.830606905099115"><ele>715.0</ele><time>2026-03-24T15:28:55.999Z</time></trkpt><trkpt lat="46.17707735577606" lon="11.830608564772126"><ele>715.0</ele><time>2026-03-24T15:28:57.999Z</time></trkpt><trkpt lat="46.17718591224974" lon="11.830622200803107"><ele>715.0</ele><time>2026-03-24T15:28:59.999Z</time></trkpt><trkpt lat="46.17726606387556" lon="11.83066767242778"><ele>715.0</ele><time>2026-03-24T15:29:02.999Z</time></trkpt><trkpt lat="46.17732160113593" lon="11.830719963875307"><ele>715.0</ele><time>2026-03-24T15:29:04.999Z</time></trkpt><trkpt lat="46.17744790293664" lon="11.830615230430867"><ele>715.0</ele><time>2026-03-24T15:29:06.999Z</time></trkpt><trkpt lat="46.17757379139377" lon="11.830637968857106"><ele>715.4285714285714</ele><time>2026-03-24T15:29:08.999Z</time></trkpt><trkpt lat="46.17764471787019" lon="11.830644795053198"><ele>715.8571428571428</ele><time>2026-03-24T15:29:09.999Z</time></trkpt><trkpt lat="46.17771545684309" lon="11.830651184595048"><ele>716.2857142857142</ele><time>2026-03-24T15:29:10.999Z</time></trkpt><trkpt lat="46.177786529097204" lon="11.830652549822176"><ele>716.7142857142858</ele><time>2026-03-24T15:29:11.999Z</time></trkpt><trkpt lat="46.17785756566843" lon="11.830664840268993"><ele>717.1428571428571</ele><time>2026-03-24T15:29:12.999Z</time></trkpt><trkpt lat="46.17792554206193" lon="11.83068157975179"><ele>717.5714285714286</ele><time>2026-03-24T15:29:13.999Z</time></trkpt><trkpt lat="46.1779970950314" lon="11.830705365822642"><ele>718.0</ele><time>2026-03-24T15:29:14.999Z</time></trkpt><trkpt lat="46.178065700670736" lon="11.830719153460297"><ele>718.0</ele><time>2026-03-24T15:29:15.999Z</time></trkpt><trkpt lat="46.1781384705143" lon="11.830717491313136"><ele>718.0</ele><time>2026-03-24T15:29:16.999Z</time></trkpt><trkpt lat="46.17821620225998" lon="11.83072837900339"><ele>718.0</ele><time>2026-03-24T15:29:17.999Z</time></trkpt><trkpt lat="46.1782855691602" lon="11.83072656969486"><ele>718.0</ele><time>2026-03-24T15:29:18.999Z</time></trkpt><trkpt lat="46.17836766126942" lon="11.830721150547417"><ele>718.0</ele><time>2026-03-24T15:29:19.999Z</time></trkpt><trkpt lat="46.17845350498079" lon="11.830738831060163"><ele>718.0</ele><time>2026-03-24T15:29:20.999Z</time></trkpt><trkpt lat="46.17852857976008" lon="11.830755054789151"><ele>718.5</ele><time>2026-03-24T15:29:21.999Z</time></trkpt><trkpt lat="46.17860915300785" lon="11.83075958009595"><ele>719.0</ele><time>2026-03-24T15:29:22.999Z</time></trkpt><trkpt lat="46.17867917071013" lon="11.830766171993034"><ele>719.5</ele><time>2026-03-24T15:29:23.999Z</time></trkpt><trkpt lat="46.17874255134546" lon="11.83077615722187"><ele>720.0</ele><time>2026-03-24T15:29:24.999Z</time></trkpt><trkpt lat="46.17883369307809" lon="11.830790537343738"><ele>720.5</ele><time>2026-03-24T15:29:26.999Z</time></trkpt><trkpt lat="46.17891261308482" lon="11.830791272384836"><ele>721.0</ele><time>2026-03-24T15:29:28.999Z</time></trkpt><trkpt lat="46.17894311426889" lon="11.830907352732817"><ele>720.6666666666667</ele><time>2026-03-24T15:29:29.999Z</time></trkpt><trkpt lat="46.179038249595166" lon="11.830936472967062"><ele>720.3333333333334</ele><time>2026-03-24T15:29:31.999Z</time></trkpt><trkpt lat="46.1791133119269" lon="11.830949456381882"><ele>720.0</ele><time>2026-03-24T15:29:32.999Z</time></trkpt><trkpt lat="46.179190493783075" lon="11.830957223213133"><ele>719.6666666666666</ele><time>2026-03-24T15:29:33.999Z</time></trkpt><trkpt lat="46.179258759264734" lon="11.830963324528062"><ele>719.3333333333333</ele><time>2026-03-24T15:29:34.999Z</time></trkpt><trkpt lat="46.1793380598736" lon="11.830969551813563"><ele>719.0</ele><time>2026-03-24T15:29:36.999Z</time></trkpt><trkpt lat="46.1794102736888" lon="11.830957455483082"><ele>719.0</ele><time>2026-03-24T15:36:05.999Z</time></trkpt><trkpt lat="46.17935021767536" lon="11.830929648425482"><ele>719.0</ele><time>2026-03-24T15:38:28.999Z</time></trkpt><trkpt lat="46.17927664637174" lon="11.8309326458669"><ele>719.0</ele><time>2026-03-24T15:38:34.999Z</time></trkpt></trkseg><trkseg><trkpt lat="46.17938758282147" lon="11.830973399194521"><ele>719.0</ele><time>2026-03-24T16:30:50.999Z</time></trkpt><trkpt lat="46.17944506223616" lon="11.830920174869531"><ele>719.0</ele><time>2026-03-24T16:31:35Z</time></trkpt><trkpt lat="46.17936710553985" lon="11.830857532881566"><ele>719.0</ele><time>2026-03-24T16:31:38Z</time></trkpt><trkpt lat="46.179292163454264" lon="11.83085499604271"><ele>719.0</ele><time>2026-03-24T16:31:40Z</time></trkpt><trkpt lat="46.179197687002876" lon="11.83083866825089"><ele>719.0</ele><time>2026-03-24T16:31:42Z</time></trkpt><trkpt lat="46.179090865179795" lon="11.830807009307701"><ele>719.0</ele><time>2026-03-24T16:31:44Z</time></trkpt><trkpt lat="46.178987543977755" lon="11.830783895826906"><ele>719.4000000000001</ele><time>2026-03-24T16:31:46Z</time></trkpt><trkpt lat="46.17889114244109" lon="11.830787062016121"><ele>719.8</ele><time>2026-03-24T16:31:48Z</time></trkpt><trkpt lat="46.17882506069842" lon="11.830752876932435"><ele>720.2</ele><time>2026-03-24T16:31:50Z</time></trkpt><trkpt lat="46.17871533550454" lon="11.830752650462967"><ele>720.5999999999999</ele><time>2026-03-24T16:31:52Z</time></trkpt><trkpt lat="46.178589685453765" lon="11.830716228101661"><ele>721.0</ele><time>2026-03-24T16:31:54Z</time></trkpt><trkpt lat="46.17852460967167" lon="11.830731084103931"><ele>721.0</ele><time>2026-03-24T16:31:55Z</time></trkpt><trkpt lat="46.17845280959262" lon="11.83070901839316"><ele>721.0</ele><time>2026-03-24T16:31:56Z</time></trkpt><trkpt lat="46.178383647705246" lon="11.830701235996075"><ele>721.0</ele><time>2026-03-24T16:31:57Z</time></trkpt><trkpt lat="46.17831791339082" lon="11.830693629734695"><ele>721.0</ele><time>2026-03-24T16:31:58Z</time></trkpt><trkpt lat="46.178239477945404" lon="11.830687606341012"><ele>721.0</ele><time>2026-03-24T16:31:59Z</time></trkpt><trkpt lat="46.17817181955918" lon="11.830679999318185"><ele>721.0</ele><time>2026-03-24T16:32:00Z</time></trkpt><trkpt lat="46.1781093920353" lon="11.830665971253664"><ele>721.0</ele><time>2026-03-24T16:32:01Z</time></trkpt><trkpt lat="46.17802050883064" lon="11.830660891078738"><ele>720.5</ele><time>2026-03-24T16:32:03Z</time></trkpt><trkpt lat="46.17794524564599" lon="11.830654505341167"><ele>720.0</ele><time>2026-03-24T16:32:05Z</time></trkpt><trkpt lat="46.177860627857896" lon="11.83063679075866"><ele>719.5</ele><time>2026-03-24T16:32:07Z</time></trkpt><trkpt lat="46.17779726151275" lon="11.830622457684136"><ele>719.0</ele><time>2026-03-24T16:32:08Z</time></trkpt><trkpt lat="46.17769408760182" lon="11.830615086717536"><ele>718.5</ele><time>2026-03-24T16:32:10Z</time></trkpt><trkpt lat="46.17760468423024" lon="11.830611965546781"><ele>718.0</ele><time>2026-03-24T16:32:12Z</time></trkpt><trkpt lat="46.17752648648136" lon="11.830588931894733"><ele>718.0</ele><time>2026-03-24T16:32:13.999Z</time></trkpt><trkpt lat="46.177442317448914" lon="11.830604059271003"><ele>718.0</ele><time>2026-03-24T16:32:15.999Z</time></trkpt><trkpt lat="46.1773727525045" lon="11.830582168401737"><ele>718.0</ele><time>2026-03-24T16:32:17.999Z</time></trkpt><trkpt lat="46.17729781547401" lon="11.830619105373481"><ele>718.0</ele><time>2026-03-24T16:32:20.999Z</time></trkpt><trkpt lat="46.17719478218974" lon="11.830591628379286"><ele>718.0</ele><time>2026-03-24T16:32:22.999Z</time></trkpt><trkpt lat="46.1771209852405" lon="11.830564215600269"><ele>718.0</ele><time>2026-03-24T16:32:23.999Z</time></trkpt><trkpt lat="46.177036016678514" lon="11.830581091372217"><ele>717.4</ele><time>2026-03-24T16:32:24.999Z</time></trkpt><trkpt lat="46.17695145960196" lon="11.830571642811211"><ele>716.8</ele><time>2026-03-24T16:32:25.999Z</time></trkpt><trkpt lat="46.17685122634175" lon="11.830562945130987"><ele>716.2</ele><time>2026-03-24T16:32:26.999Z</time></trkpt><trkpt lat="46.176747680685025" lon="11.830541128529196"><ele>715.6</ele><time>2026-03-24T16:32:27.999Z</time></trkpt><trkpt lat="46.17662891511799" lon="11.830550716715624"><ele>715.0</ele><time>2026-03-24T16:32:28.999Z</time></trkpt><trkpt lat="46.176518832534796" lon="11.830535172364945"><ele>714.6</ele><time>2026-03-24T16:32:29.999Z</time></trkpt><trkpt lat="46.176394349360145" lon="11.830537709125489"><ele>714.2</ele><time>2026-03-24T16:32:30.999Z</time></trkpt><trkpt lat="46.17628450666291" lon="11.830518855827854"><ele>713.8</ele><time>2026-03-24T16:32:31.999Z</time></trkpt><trkpt lat="46.176189160714074" lon="11.83050404831809"><ele>713.4</ele><time>2026-03-24T16:32:32.999Z</time></trkpt><trkpt lat="46.17610023132073" lon="11.830504669907315"><ele>713.0</ele><time>2026-03-24T16:32:33.999Z</time></trkpt><trkpt lat="46.17601909236123" lon="11.83050360775914"><ele>713.0</ele><time>2026-03-24T16:32:34.999Z</time></trkpt><trkpt lat="46.175930502507015" lon="11.83050719788853"><ele>713.0</ele><time>2026-03-24T16:32:35.999Z</time></trkpt><trkpt lat="46.175850294785896" lon="11.830508632654567"><ele>713.0</ele><time>2026-03-24T16:32:36.999Z</time></trkpt><trkpt lat="46.17578004309443" lon="11.830494451553974"><ele>713.0</ele><time>2026-03-24T16:32:37.999Z</time></trkpt><trkpt lat="46.17571621404967" lon="11.830467809770376"><ele>713.0</ele><time>2026-03-24T16:32:38.999Z</time></trkpt><trkpt lat="46.17567839062257" lon="11.830316583424853"><ele>713.0</ele><time>2026-03-24T16:32:40.999Z</time></trkpt><trkpt lat="46.175696625028706" lon="11.83022134168564"><ele>713.4</ele><time>2026-03-24T16:32:41.999Z</time></trkpt><trkpt lat="46.17571102639721" lon="11.830111908444547"><ele>713.8</ele><time>2026-03-24T16:32:42.999Z</time></trkpt><trkpt lat="46.17572428611497" lon="11.829987243969258"><ele>714.2</ele><time>2026-03-24T16:32:43.999Z</time></trkpt><trkpt lat="46.17574136034139" lon="11.82982521073967"><ele>714.6</ele><time>2026-03-24T16:32:44.999Z</time></trkpt><trkpt lat="46.17575237864543" lon="11.829667352356466"><ele>715.0</ele><time>2026-03-24T16:32:45.999Z</time></trkpt><trkpt lat="46.17576045983921" lon="11.829499540623745"><ele>715.0</ele><time>2026-03-24T16:32:46.999Z</time></trkpt><trkpt lat="46.17574537904093" lon="11.829320871127589"><ele>715.0</ele><time>2026-03-24T16:32:47.999Z</time></trkpt><trkpt lat="46.17573606218775" lon="11.829144318708586"><ele>715.0</ele><time>2026-03-24T16:32:48.999Z</time></trkpt><trkpt lat="46.17572488615716" lon="11.828992115722869"><ele>715.0</ele><time>2026-03-24T16:32:49.999Z</time></trkpt><trkpt lat="46.1757019268069" lon="11.828870229798683"><ele>715.0</ele><time>2026-03-24T16:32:50.999Z</time></trkpt><trkpt lat="46.17569021463781" lon="11.828765859927165"><ele>714.3333333333334</ele><time>2026-03-24T16:32:51.999Z</time></trkpt><trkpt lat="46.17567889141472" lon="11.828670539121523"><ele>713.6666666666667</ele><time>2026-03-24T16:32:52.999Z</time></trkpt><trkpt lat="46.17565183523005" lon="11.828494017978972"><ele>713.0</ele><time>2026-03-24T16:32:54.999Z</time></trkpt><trkpt lat="46.175643238468616" lon="11.828398253994283"><ele>712.3333333333334</ele><time>2026-03-24T16:32:55.999Z</time></trkpt><trkpt lat="46.17562384637299" lon="11.828301743491487"><ele>711.6666666666666</ele><time>2026-03-24T16:32:56.999Z</time></trkpt><trkpt lat="46.17559443951833" lon="11.828208578516271"><ele>711.0</ele><time>2026-03-24T16:32:57.999Z</time></trkpt><trkpt lat="46.17554449258509" lon="11.828129559640011"><ele>711.0</ele><time>2026-03-24T16:32:58.999Z</time></trkpt><trkpt lat="46.17555311648546" lon="11.828028047945725"><ele>711.0</ele><time>2026-03-24T16:32:59.999Z</time></trkpt><trkpt lat="46.17538110664061" lon="11.828066566035156"><ele>711.0</ele><time>2026-03-24T16:33:01.999Z</time></trkpt><trkpt lat="46.17531176881631" lon="11.828028816569386"><ele>711.0</ele><time>2026-03-24T16:33:02.999Z</time></trkpt><trkpt lat="46.17522133818012" lon="11.828015084699052"><ele>711.0</ele><time>2026-03-24T16:33:03.999Z</time></trkpt><trkpt lat="46.17512749179072" lon="11.827958798276894"><ele>711.0</ele><time>2026-03-24T16:33:04.999Z</time></trkpt><trkpt lat="46.17503650281509" lon="11.827909602367232"><ele>711.0</ele><time>2026-03-24T16:33:05.999Z</time></trkpt><trkpt lat="46.17494393222841" lon="11.827840097036354"><ele>711.0</ele><time>2026-03-24T16:33:06.999Z</time></trkpt><trkpt lat="46.17484948986506" lon="11.827784361561653"><ele>711.0</ele><time>2026-03-24T16:33:07.999Z</time></trkpt><trkpt lat="46.1747381619942" lon="11.827718948317777"><ele>711.0</ele><time>2026-03-24T16:33:08.999Z</time></trkpt><trkpt lat="46.17463182345994" lon="11.827656895381745"><ele>710.8</ele><time>2026-03-24T16:33:09.999Z</time></trkpt><trkpt lat="46.174518803029514" lon="11.827613415452513"><ele>710.5999999999999</ele><time>2026-03-24T16:33:10.999Z</time></trkpt><trkpt lat="46.17441535881222" lon="11.827551953789204"><ele>710.4</ele><time>2026-03-24T16:33:11.999Z</time></trkpt><trkpt lat="46.17432695397516" lon="11.827487832102062"><ele>710.2</ele><time>2026-03-24T16:33:12.999Z</time></trkpt><trkpt lat="46.174244109695564" lon="11.827442884935595"><ele>710.0</ele><time>2026-03-24T16:33:13.999Z</time></trkpt><trkpt lat="46.1741745895084" lon="11.827400591352964"><ele>710.0</ele><time>2026-03-24T16:33:14.999Z</time></trkpt><trkpt lat="46.174105401940636" lon="11.827353415278697"><ele>710.0</ele><time>2026-03-24T16:33:15.999Z</time></trkpt><trkpt lat="46.174030106048676" lon="11.827319840786046"><ele>710.0</ele><time>2026-03-24T16:33:16.999Z</time></trkpt><trkpt lat="46.17394775552864" lon="11.827269167109199"><ele>710.0</ele><time>2026-03-24T16:33:17.999Z</time></trkpt><trkpt lat="46.17385920891403" lon="11.827212488131657"><ele>710.0</ele><time>2026-03-24T16:33:18.999Z</time></trkpt><trkpt lat="46.17377642741207" lon="11.82714099262495"><ele>710.0</ele><time>2026-03-24T16:33:19.999Z</time></trkpt><trkpt lat="46.17367434848811" lon="11.82709728145446"><ele>708.8</ele><time>2026-03-24T16:33:20.999Z</time></trkpt><trkpt lat="46.17357411554994" lon="11.8270415143461"><ele>707.6</ele><time>2026-03-24T16:33:21.998Z</time></trkpt><trkpt lat="46.173471230289174" lon="11.826981355202294"><ele>706.4000000000001</ele><time>2026-03-24T16:33:22.998Z</time></trkpt><trkpt lat="46.17336683650473" lon="11.826916247998394"><ele>705.2</ele><time>2026-03-24T16:33:23.998Z</time></trkpt><trkpt lat="46.17325983570081" lon="11.826850187445242"><ele>704.0</ele><time>2026-03-24T16:33:24.998Z</time></trkpt><trkpt lat="46.173149379651164" lon="11.826787240903819"><ele>703.75</ele><time>2026-03-24T16:33:25.998Z</time></trkpt><trkpt lat="46.17303351412231" lon="11.826722319162418"><ele>703.5</ele><time>2026-03-24T16:33:26.998Z</time></trkpt><trkpt lat="46.17291432945792" lon="11.826652385404055"><ele>703.25</ele><time>2026-03-24T16:33:27.998Z</time></trkpt><trkpt lat="46.17279296144205" lon="11.82657915200964"><ele>703.0</ele><time>2026-03-24T16:33:28.998Z</time></trkpt><trkpt lat="46.172670955963895" lon="11.826487966582606"><ele>703.0</ele><time>2026-03-24T16:33:29.998Z</time></trkpt><trkpt lat="46.17254170482404" lon="11.82642778450732"><ele>703.0</ele><time>2026-03-24T16:33:30.998Z</time></trkpt><trkpt lat="46.17242921081766" lon="11.826364506872673"><ele>703.0</ele><time>2026-03-24T16:33:31.998Z</time></trkpt><trkpt lat="46.17233448241383" lon="11.826282156675468"><ele>703.0</ele><time>2026-03-24T16:33:32.998Z</time></trkpt><trkpt lat="46.17222586433762" lon="11.826231636208938"><ele>702.75</ele><time>2026-03-24T16:33:33.998Z</time></trkpt><trkpt lat="46.17212350968188" lon="11.826154229371049"><ele>702.5</ele><time>2026-03-24T16:33:34.998Z</time></trkpt><trkpt lat="46.1720230954483" lon="11.826061000049098"><ele>702.25</ele><time>2026-03-24T16:33:35.998Z</time></trkpt><trkpt lat="46.171931141767736" lon="11.825954222850044"><ele>702.0</ele><time>2026-03-24T16:33:36.998Z</time></trkpt><trkpt lat="46.17184448766961" lon="11.825833893829444"><ele>702.0</ele><time>2026-03-24T16:33:37.998Z</time></trkpt><trkpt lat="46.17178338860227" lon="11.825699344002414"><ele>702.0</ele><time>2026-03-24T16:33:38.998Z</time></trkpt><trkpt lat="46.17171081279638" lon="11.825517260832457"><ele>702.0</ele><time>2026-03-24T16:33:39.998Z</time></trkpt><trkpt lat="46.1716946959921" lon="11.825317510623929"><ele>702.0</ele><time>2026-03-24T16:33:41Z</time></trkpt><trkpt lat="46.17164923693208" lon="11.825150495753919"><ele>702.0</ele><time>2026-03-24T16:33:42Z</time></trkpt><trkpt lat="46.171604134506964" lon="11.824985146867471"><ele>702.0</ele><time>2026-03-24T16:33:43Z</time></trkpt><trkpt lat="46.1715724709923" lon="11.824822917448778"><ele>702.0</ele><time>2026-03-24T16:33:44Z</time></trkpt><trkpt lat="46.17154835597769" lon="11.824672968190816"><ele>702.0</ele><time>2026-03-24T16:33:45Z</time></trkpt><trkpt lat="46.17152313481474" lon="11.824533312785121"><ele>702.0</ele><time>2026-03-24T16:33:46Z</time></trkpt><trkpt lat="46.1714974686528" lon="11.824399115145633"><ele>700.6666666666666</ele><time>2026-03-24T16:33:47Z</time></trkpt><trkpt lat="46.17147523830485" lon="11.824291634225462"><ele>699.3333333333334</ele><time>2026-03-24T16:33:48Z</time></trkpt><trkpt lat="46.17143572897007" lon="11.824135936489887"><ele>698.0</ele><time>2026-03-24T16:33:50Z</time></trkpt><trkpt lat="46.171408280969445" lon="11.824052602529092"><ele>696.6666666666667</ele><time>2026-03-24T16:33:51Z</time></trkpt><trkpt lat="46.17137089580203" lon="11.823951218972939"><ele>695.3333333333334</ele><time>2026-03-24T16:33:52Z</time></trkpt><trkpt lat="46.171327165029844" lon="11.82384402578062"><ele>694.0</ele><time>2026-03-24T16:33:53Z</time></trkpt><trkpt lat="46.17126686095852" lon="11.823737366920444"><ele>694.0</ele><time>2026-03-24T16:33:54Z</time></trkpt><trkpt lat="46.171201921096845" lon="11.823628222787512"><ele>694.0</ele><time>2026-03-24T16:33:55Z</time></trkpt><trkpt lat="46.17112494995586" lon="11.823526892411278"><ele>694.0</ele><time>2026-03-24T16:33:56Z</time></trkpt><trkpt lat="46.17104813887091" lon="11.82342840450718"><ele>694.0</ele><time>2026-03-24T16:33:57Z</time></trkpt><trkpt lat="46.17096935612035" lon="11.823332333170237"><ele>694.0</ele><time>2026-03-24T16:33:58Z</time></trkpt><trkpt lat="46.17090182394843" lon="11.823245210924057"><ele>694.4000000000001</ele><time>2026-03-24T16:33:59Z</time></trkpt><trkpt lat="46.17083951222458" lon="11.823160257894205"><ele>694.8</ele><time>2026-03-24T16:34:00Z</time></trkpt><trkpt lat="46.17077307975856" lon="11.823069813530966"><ele>695.2</ele><time>2026-03-24T16:34:01Z</time></trkpt><trkpt lat="46.170686270893555" lon="11.823011012299585"><ele>695.5999999999999</ele><time>2026-03-24T16:34:02Z</time></trkpt><trkpt lat="46.170611207032" lon="11.822912454166135"><ele>696.0</ele><time>2026-03-24T16:34:03Z</time></trkpt><trkpt lat="46.170547211145575" lon="11.822784640341286"><ele>696.0</ele><time>2026-03-24T16:34:04Z</time></trkpt><trkpt lat="46.17046803862313" lon="11.822675597722577"><ele>696.0</ele><time>2026-03-24T16:34:05Z</time></trkpt><trkpt lat="46.17038644333298" lon="11.822567196683172"><ele>696.0</ele><time>2026-03-24T16:34:06Z</time></trkpt><trkpt lat="46.17029176426902" lon="11.822467035199933"><ele>696.0</ele><time>2026-03-24T16:34:07Z</time></trkpt><trkpt lat="46.170194852727484" lon="11.822362817590589"><ele>696.0</ele><time>2026-03-24T16:34:08Z</time></trkpt><trkpt lat="46.17010419737887" lon="11.822245383700414"><ele>696.0</ele><time>2026-03-24T16:34:09Z</time></trkpt><trkpt lat="46.17000346208915" lon="11.822158849637427"><ele>696.0</ele><time>2026-03-24T16:34:10Z</time></trkpt><trkpt lat="46.169902811575525" lon="11.822097240046693"><ele>696.0</ele><time>2026-03-24T16:34:11Z</time></trkpt><trkpt lat="46.169810190771024" lon="11.82205082040977"><ele>696.0</ele><time>2026-03-24T16:34:12Z</time></trkpt><trkpt lat="46.16970919065076" lon="11.822016005420585"><ele>694.5999999999999</ele><time>2026-03-24T16:34:13Z</time></trkpt><trkpt lat="46.16959990907759" lon="11.822007655020208"><ele>693.2</ele><time>2026-03-24T16:34:14Z</time></trkpt><trkpt lat="46.16949265703999" lon="11.821963753558066"><ele>691.8</ele><time>2026-03-24T16:34:15Z</time></trkpt><trkpt lat="46.169388044464846" lon="11.82192864162181"><ele>690.4000000000001</ele><time>2026-03-24T16:34:16Z</time></trkpt><trkpt lat="46.169295350649634" lon="11.821898115308898"><ele>689.0</ele><time>2026-03-24T16:34:17Z</time></trkpt><trkpt lat="46.16921352027118" lon="11.82187056752552"><ele>689.0</ele><time>2026-03-24T16:34:18Z</time></trkpt><trkpt lat="46.16914084796421" lon="11.821849050380639"><ele>689.0</ele><time>2026-03-24T16:34:19Z</time></trkpt><trkpt lat="46.169071538650975" lon="11.82183037195973"><ele>689.0</ele><time>2026-03-24T16:34:20Z</time></trkpt><trkpt lat="46.16896460612923" lon="11.821754876459448"><ele>689.0</ele><time>2026-03-24T16:34:22Z</time></trkpt><trkpt lat="46.16890056769183" lon="11.821648478636062"><ele>689.0</ele><time>2026-03-24T16:34:24Z</time></trkpt><trkpt lat="46.168832920757154" lon="11.821583001330884"><ele>689.0</ele><time>2026-03-24T16:34:26Z</time></trkpt><trkpt lat="46.168767028723785" lon="11.82160950800613"><ele>688.6</ele><time>2026-03-24T16:34:29Z</time></trkpt><trkpt lat="46.16878001480592" lon="11.821517704622035"><ele>688.2</ele><time>2026-03-24T16:35:04.999Z</time></trkpt><trkpt lat="46.16879284870222" lon="11.821321730065835"><ele>687.8000000000001</ele><time>2026-03-24T16:38:16Z</time></trkpt><trkpt lat="46.16876798407832" lon="11.821450232763446"><ele>687.4000000000001</ele><time>2026-03-24T16:38:29Z</time></trkpt><trkpt lat="46.168743556663536" lon="11.821648998828161"><ele>687.0</ele><time>2026-03-24T16:40:19.736Z</time></trkpt><trkpt lat="46.16872210022121" lon="11.82150495161282"><ele>687.0</ele><time>2026-03-24T16:40:58.997Z</time></trkpt><trkpt lat="46.16873486064624" lon="11.821383685927872"><ele>687.0</ele><time>2026-03-24T16:41:05Z</time></trkpt><trkpt lat="46.16870618601017" lon="11.821485899000823"><ele>687.0</ele><time>2026-03-24T16:41:15Z</time></trkpt><trkpt lat="46.168690981936685" lon="11.821579395128506"><ele>687.0</ele><time>2026-03-24T16:41:24Z</time></trkpt><trkpt lat="46.16869722965571" lon="11.821418222522132"><ele>687.0</ele><time>2026-03-24T16:41:38Z</time></trkpt><trkpt lat="46.168753415136" lon="11.821461516080436"><ele>687.0</ele><time>2026-03-24T16:43:26Z</time></trkpt><trkpt lat="46.16879370396865" lon="11.821551275357793"><ele>687.0</ele><time>2026-03-24T16:43:30Z</time></trkpt><trkpt lat="46.16878416516133" lon="11.821643197148607"><ele>687.0</ele><time>2026-03-24T16:43:35Z</time></trkpt><trkpt lat="46.168751700761284" lon="11.821723257398325"><ele>687.0</ele><time>2026-03-24T16:44:46.999Z</time></trkpt><trkpt lat="46.16874689075859" lon="11.821628171964507"><ele>687.0</ele><time>2026-03-24T16:48:09.999Z</time></trkpt><trkpt lat="46.16867842460826" lon="11.821590624118128"><ele>687.0</ele><time>2026-03-24T16:48:11.999Z</time></trkpt><trkpt lat="46.16858985150438" lon="11.821578830409516"><ele>687.0</ele><time>2026-03-24T16:48:14.999Z</time></trkpt><trkpt lat="46.16852916034488" lon="11.821655691025532"><ele>687.0</ele><time>2026-03-24T16:48:17.999Z</time></trkpt><trkpt lat="46.16846259609189" lon="11.82166727705391"><ele>687.0</ele><time>2026-03-24T16:48:19.999Z</time></trkpt><trkpt lat="46.168348171992946" lon="11.821625530869008"><ele>687.0</ele><time>2026-03-24T16:48:21.999Z</time></trkpt><trkpt lat="46.168278770118235" lon="11.82163412475959"><ele>687.0</ele><time>2026-03-24T16:48:22.999Z</time></trkpt><trkpt lat="46.168198890829686" lon="11.821622387777177"><ele>687.0</ele><time>2026-03-24T16:48:23.999Z</time></trkpt><trkpt lat="46.16810777755155" lon="11.821609483243739"><ele>687.0</ele><time>2026-03-24T16:48:24.999Z</time></trkpt><trkpt lat="46.168015174557794" lon="11.821596896332615"><ele>687.6</ele><time>2026-03-24T16:48:25.999Z</time></trkpt><trkpt lat="46.16791381191467" lon="11.821586628596824"><ele>688.2</ele><time>2026-03-24T16:48:26.999Z</time></trkpt><trkpt lat="46.16779991541362" lon="11.82157257029034"><ele>688.8</ele><time>2026-03-24T16:48:27.999Z</time></trkpt><trkpt lat="46.16768481202405" lon="11.821556913465226"><ele>689.4</ele><time>2026-03-24T16:48:28.999Z</time></trkpt><trkpt lat="46.16756797673581" lon="11.821545814934645"><ele>690.0</ele><time>2026-03-24T16:48:29.999Z</time></trkpt><trkpt lat="46.16745127693262" lon="11.821526001207442"><ele>689.25</ele><time>2026-03-24T16:48:30.999Z</time></trkpt><trkpt lat="46.16732962321807" lon="11.821509780837493"><ele>688.5</ele><time>2026-03-24T16:48:31.999Z</time></trkpt><trkpt lat="46.16719512466683" lon="11.821492027424288"><ele>687.75</ele><time>2026-03-24T16:48:32.999Z</time></trkpt><trkpt lat="46.16704880940022" lon="11.821477833158463"><ele>687.0</ele><time>2026-03-24T16:48:33.999Z</time></trkpt><trkpt lat="46.16689660145128" lon="11.821443502233643"><ele>687.0</ele><time>2026-03-24T16:48:34.999Z</time></trkpt><trkpt lat="46.166733905064376" lon="11.82142453221452"><ele>687.0</ele><time>2026-03-24T16:48:35.999Z</time></trkpt><trkpt lat="46.166564925375965" lon="11.821403947361112"><ele>687.0</ele><time>2026-03-24T16:48:36.999Z</time></trkpt><trkpt lat="46.16638773038735" lon="11.821384080857232"><ele>686.3333333333334</ele><time>2026-03-24T16:48:37.999Z</time></trkpt><trkpt lat="46.16620264355192" lon="11.82137055371904"><ele>685.6666666666667</ele><time>2026-03-24T16:48:38.999Z</time></trkpt><trkpt lat="46.166014676948336" lon="11.821352195096276"><ele>685.0</ele><time>2026-03-24T16:48:39.999Z</time></trkpt><trkpt lat="46.16582375953152" lon="11.821332849267067"><ele>683.0</ele><time>2026-03-24T16:48:40.999Z</time></trkpt><trkpt lat="46.165631151204686" lon="11.821287227580875"><ele>681.0</ele><time>2026-03-24T16:48:41.999Z</time></trkpt><trkpt lat="46.16543739475687" lon="11.821263865355906"><ele>679.0</ele><time>2026-03-24T16:48:42.999Z</time></trkpt><trkpt lat="46.16524330752362" lon="11.821240818361606"><ele>679.0</ele><time>2026-03-24T16:48:43.999Z</time></trkpt><trkpt lat="46.16504803249925" lon="11.821217106391103"><ele>679.0</ele><time>2026-03-24T16:48:44.999Z</time></trkpt><trkpt lat="46.16485389045519" lon="11.821197144335006"><ele>679.0</ele><time>2026-03-24T16:48:45.999Z</time></trkpt><trkpt lat="46.16465566763077" lon="11.821183282696174"><ele>680.3333333333334</ele><time>2026-03-24T16:48:46.999Z</time></trkpt><trkpt lat="46.16445699642929" lon="11.821161376196052"><ele>681.6666666666666</ele><time>2026-03-24T16:48:47.999Z</time></trkpt><trkpt lat="46.16425965497159" lon="11.821134633502233"><ele>683.0</ele><time>2026-03-24T16:48:48.999Z</time></trkpt><trkpt lat="46.16406903452752" lon="11.82110876733852"><ele>682.0</ele><time>2026-03-24T16:48:49.999Z</time></trkpt><trkpt lat="46.163878829150086" lon="11.821088285280172"><ele>681.0</ele><time>2026-03-24T16:48:50.999Z</time></trkpt><trkpt lat="46.16369169648097" lon="11.821065680950813"><ele>680.0</ele><time>2026-03-24T16:48:51.999Z</time></trkpt><trkpt lat="46.16350875500564" lon="11.821042298180307"><ele>680.0</ele><time>2026-03-24T16:48:52.999Z</time></trkpt><trkpt lat="46.163326428218454" lon="11.821012460490861"><ele>680.0</ele><time>2026-03-24T16:48:53.999Z</time></trkpt><trkpt lat="46.16313951515813" lon="11.8209811788772"><ele>680.0</ele><time>2026-03-24T16:48:54.999Z</time></trkpt><trkpt lat="46.16294994105308" lon="11.820943140990542"><ele>680.6666666666666</ele><time>2026-03-24T16:48:55.999Z</time></trkpt><trkpt lat="46.16275183322805" lon="11.820909692603209"><ele>681.3333333333334</ele><time>2026-03-24T16:48:56.999Z</time></trkpt><trkpt lat="46.16255467095119" lon="11.82085008598214"><ele>682.0</ele><time>2026-03-24T16:48:57.999Z</time></trkpt><trkpt lat="46.16236788869412" lon="11.820814951698834"><ele>680.6666666666667</ele><time>2026-03-24T16:48:58.998Z</time></trkpt><trkpt lat="46.162193414935295" lon="11.8207821308159"><ele>679.3333333333334</ele><time>2026-03-24T16:48:59.998Z</time></trkpt><trkpt lat="46.162029724355385" lon="11.820751338424925"><ele>678.0</ele><time>2026-03-24T16:49:00.998Z</time></trkpt><trkpt lat="46.16188081084403" lon="11.820723325789716"><ele>678.0</ele><time>2026-03-24T16:49:01.998Z</time></trkpt><trkpt lat="46.1617149334131" lon="11.820692121973545"><ele>678.0</ele><time>2026-03-24T16:49:02.998Z</time></trkpt><trkpt lat="46.16156610270896" lon="11.820664809793572"><ele>678.0</ele><time>2026-03-24T16:49:03.998Z</time></trkpt><trkpt lat="46.16142762460175" lon="11.820639490715376"><ele>674.3333333333334</ele><time>2026-03-24T16:49:04.998Z</time></trkpt><trkpt lat="46.161276538804216" lon="11.820609713866824"><ele>670.6666666666667</ele><time>2026-03-24T16:49:05.998Z</time></trkpt><trkpt lat="46.161119399007454" lon="11.820576724434025"><ele>667.0</ele><time>2026-03-24T16:49:06.998Z</time></trkpt><trkpt lat="46.16096184517282" lon="11.82050223425164"><ele>667.0</ele><time>2026-03-24T16:49:07.998Z</time></trkpt><trkpt lat="46.16080160989281" lon="11.820405374874037"><ele>667.0</ele><time>2026-03-24T16:49:08.998Z</time></trkpt><trkpt lat="46.160639668987585" lon="11.820280013008073"><ele>667.0</ele><time>2026-03-24T16:49:09.998Z</time></trkpt><trkpt lat="46.160477208013674" lon="11.82013822888118"><ele>667.3333333333334</ele><time>2026-03-24T16:49:10.998Z</time></trkpt><trkpt lat="46.160312784057815" lon="11.81997941901892"><ele>667.6666666666666</ele><time>2026-03-24T16:49:11.998Z</time></trkpt><trkpt lat="46.16014161433229" lon="11.819823414803146"><ele>668.0</ele><time>2026-03-24T16:49:12.998Z</time></trkpt><trkpt lat="46.15996642263736" lon="11.81966596315283"><ele>666.6666666666666</ele><time>2026-03-24T16:49:13.998Z</time></trkpt><trkpt lat="46.15980272769131" lon="11.819513665333556"><ele>665.3333333333334</ele><time>2026-03-24T16:49:14.998Z</time></trkpt><trkpt lat="46.159647767765094" lon="11.819367940511878"><ele>664.0</ele><time>2026-03-24T16:49:15.998Z</time></trkpt><trkpt lat="46.159493893532705" lon="11.819232981089971"><ele>664.0</ele><time>2026-03-24T16:49:16.998Z</time></trkpt><trkpt lat="46.15933812990171" lon="11.819111092441148"><ele>664.0</ele><time>2026-03-24T16:49:17.998Z</time></trkpt><trkpt lat="46.15918402241195" lon="11.818991558976762"><ele>664.0</ele><time>2026-03-24T16:49:18.998Z</time></trkpt><trkpt lat="46.159033462024915" lon="11.818865630145321"><ele>664.0</ele><time>2026-03-24T16:49:19.998Z</time></trkpt><trkpt lat="46.15889011289734" lon="11.818731280219927"><ele>664.0</ele><time>2026-03-24T16:49:20.998Z</time></trkpt><trkpt lat="46.15874578239806" lon="11.818596074802882"><ele>664.0</ele><time>2026-03-24T16:49:21.998Z</time></trkpt><trkpt lat="46.15859551208025" lon="11.818464084102542"><ele>664.0</ele><time>2026-03-24T16:49:22.998Z</time></trkpt><trkpt lat="46.158439524919224" lon="11.818328583484751"><ele>664.0</ele><time>2026-03-24T16:49:23.998Z</time></trkpt><trkpt lat="46.158280948619826" lon="11.818186479662954"><ele>664.0</ele><time>2026-03-24T16:49:24.999Z</time></trkpt><trkpt lat="46.158117373626304" lon="11.818040706687992"><ele>662.6666666666667</ele><time>2026-03-24T16:49:25.999Z</time></trkpt><trkpt lat="46.157951879237075" lon="11.817894337928905"><ele>661.3333333333334</ele><time>2026-03-24T16:49:26.999Z</time></trkpt><trkpt lat="46.15779596371013" lon="11.817754883482994"><ele>660.0</ele><time>2026-03-24T16:49:27.999Z</time></trkpt><trkpt lat="46.15764998644043" lon="11.817605861594538"><ele>660.0</ele><time>2026-03-24T16:49:28.999Z</time></trkpt><trkpt lat="46.157527544542006" lon="11.817423332054362"><ele>660.0</ele><time>2026-03-24T16:49:29.999Z</time></trkpt><trkpt lat="46.157411313207604" lon="11.81723635099672"><ele>660.0</ele><time>2026-03-24T16:49:30.999Z</time></trkpt><trkpt lat="46.15730855203501" lon="11.817024913947806"><ele>660.0</ele><time>2026-03-24T16:49:31.999Z</time></trkpt><trkpt lat="46.15720834559671" lon="11.81679328547376"><ele>660.0</ele><time>2026-03-24T16:49:32.999Z</time></trkpt><trkpt lat="46.157096848452426" lon="11.816564958746243"><ele>660.0</ele><time>2026-03-24T16:49:33.999Z</time></trkpt><trkpt lat="46.156998761675226" lon="11.816332872440187"><ele>660.0</ele><time>2026-03-24T16:49:34.999Z</time></trkpt><trkpt lat="46.15690003600719" lon="11.816099482436558"><ele>660.0</ele><time>2026-03-24T16:49:35.999Z</time></trkpt><trkpt lat="46.15680713357514" lon="11.815880441469476"><ele>660.0</ele><time>2026-03-24T16:49:37Z</time></trkpt><trkpt lat="46.156719516615865" lon="11.815670492462603"><ele>657.6666666666666</ele><time>2026-03-24T16:49:38Z</time></trkpt><trkpt lat="46.1566334932653" lon="11.815479758353264"><ele>655.3333333333333</ele><time>2026-03-24T16:49:39Z</time></trkpt><trkpt lat="46.156552911456636" lon="11.815298106192671"><ele>653.0</ele><time>2026-03-24T16:49:40Z</time></trkpt><trkpt lat="46.156473096001484" lon="11.81512379640863"><ele>651.5</ele><time>2026-03-24T16:49:41Z</time></trkpt><trkpt lat="46.156401265128224" lon="11.814957620293198"><ele>650.0</ele><time>2026-03-24T16:49:42Z</time></trkpt><trkpt lat="46.156334544378666" lon="11.814802719276605"><ele>648.5</ele><time>2026-03-24T16:49:43Z</time></trkpt><trkpt lat="46.15626524948659" lon="11.81466216700724"><ele>647.0</ele><time>2026-03-24T16:49:44Z</time></trkpt><trkpt lat="46.15619474435722" lon="11.814540645338548"><ele>647.0</ele><time>2026-03-24T16:49:45Z</time></trkpt><trkpt lat="46.15612685265805" lon="11.814444410728319"><ele>647.0</ele><time>2026-03-24T16:49:46Z</time></trkpt><trkpt lat="46.156064696294" lon="11.814347844553682"><ele>647.0</ele><time>2026-03-24T16:49:47Z</time></trkpt><trkpt lat="46.15602412568909" lon="11.814235303406356"><ele>647.0</ele><time>2026-03-24T16:49:47.999Z</time></trkpt><trkpt lat="46.15599702415618" lon="11.814133734174064"><ele>647.0</ele><time>2026-03-24T16:49:48.999Z</time></trkpt><trkpt lat="46.15594710092017" lon="11.814057945327637"><ele>647.0</ele><time>2026-03-24T16:49:49.999Z</time></trkpt><trkpt lat="46.15589617302727" lon="11.81400269406406"><ele>647.0</ele><time>2026-03-24T16:49:50.999Z</time></trkpt><trkpt lat="46.155825466636045" lon="11.814006263839337"><ele>647.0</ele><time>2026-03-24T16:49:51.999Z</time></trkpt><trkpt lat="46.1557473188688" lon="11.814087217567032"><ele>647.0</ele><time>2026-03-24T16:49:52.999Z</time></trkpt><trkpt lat="46.1556665487101" lon="11.81408890693626"><ele>647.0</ele><time>2026-03-24T16:49:53.999Z</time></trkpt><trkpt lat="46.15558659282775" lon="11.814043447958676"><ele>647.0</ele><time>2026-03-24T16:49:54.999Z</time></trkpt><trkpt lat="46.15550491523181" lon="11.81398000318756"><ele>647.0</ele><time>2026-03-24T16:49:55.999Z</time></trkpt><trkpt lat="46.15541475023488" lon="11.813912151114987"><ele>646.0</ele><time>2026-03-24T16:49:56.999Z</time></trkpt><trkpt lat="46.15531534809473" lon="11.813851852595368"><ele>645.0</ele><time>2026-03-24T16:49:57.999Z</time></trkpt><trkpt lat="46.15521126163698" lon="11.813790621333778"><ele>644.0</ele><time>2026-03-24T16:49:58.999Z</time></trkpt><trkpt lat="46.15510147413003" lon="11.813722331928949"><ele>643.0</ele><time>2026-03-24T16:49:59.999Z</time></trkpt><trkpt lat="46.154981759332045" lon="11.813663265161795"><ele>643.25</ele><time>2026-03-24T16:50:00.999Z</time></trkpt><trkpt lat="46.15485628433824" lon="11.813608965519192"><ele>643.5</ele><time>2026-03-24T16:50:01.999Z</time></trkpt><trkpt lat="46.15472673511123" lon="11.81355522120239"><ele>643.75</ele><time>2026-03-24T16:50:02.999Z</time></trkpt><trkpt lat="46.154593367011245" lon="11.813503533566871"><ele>644.0</ele><time>2026-03-24T16:50:03.999Z</time></trkpt><trkpt lat="46.15446268610111" lon="11.813437426673406"><ele>643.25</ele><time>2026-03-24T16:50:04.999Z</time></trkpt><trkpt lat="46.1543292916247" lon="11.813372512707316"><ele>642.5</ele><time>2026-03-24T16:50:05.999Z</time></trkpt><trkpt lat="46.15419559826335" lon="11.813307962105512"><ele>641.75</ele><time>2026-03-24T16:50:06.999Z</time></trkpt><trkpt lat="46.15406460863366" lon="11.813239625911983"><ele>641.0</ele><time>2026-03-24T16:50:07.999Z</time></trkpt><trkpt lat="46.15393807288353" lon="11.81316279479154"><ele>640.5</ele><time>2026-03-24T16:50:08.999Z</time></trkpt><trkpt lat="46.153812086530365" lon="11.813087563398652"><ele>640.0</ele><time>2026-03-24T16:50:09.999Z</time></trkpt><trkpt lat="46.15369091787839" lon="11.813004139599897"><ele>639.5</ele><time>2026-03-24T16:50:10.999Z</time></trkpt><trkpt lat="46.153571383780005" lon="11.812919621066166"><ele>639.0</ele><time>2026-03-24T16:50:11.999Z</time></trkpt><trkpt lat="46.15344846829478" lon="11.812829602387332"><ele>639.0</ele><time>2026-03-24T16:50:12.999Z</time></trkpt><trkpt lat="46.153325299073416" lon="11.812736167155162"><ele>639.0</ele><time>2026-03-24T16:50:13.999Z</time></trkpt><trkpt lat="46.15319948135236" lon="11.812641031784516"><ele>639.0</ele><time>2026-03-24T16:50:14.999Z</time></trkpt><trkpt lat="46.153074717765804" lon="11.812541459146923"><ele>639.0</ele><time>2026-03-24T16:50:15.999Z</time></trkpt><trkpt lat="46.15293892570729" lon="11.812436928254781"><ele>637.6666666666666</ele><time>2026-03-24T16:50:16.999Z</time></trkpt><trkpt lat="46.15279260720167" lon="11.812325156683452"><ele>636.3333333333333</ele><time>2026-03-24T16:50:17.999Z</time></trkpt><trkpt lat="46.15264094904402" lon="11.812206731126958"><ele>635.0</ele><time>2026-03-24T16:50:18.999Z</time></trkpt><trkpt lat="46.152484848324654" lon="11.81207992453144"><ele>635.0</ele><time>2026-03-24T16:50:19.999Z</time></trkpt><trkpt lat="46.15232559846219" lon="11.8119514917951"><ele>635.0</ele><time>2026-03-24T16:50:20.999Z</time></trkpt><trkpt lat="46.1521739261587" lon="11.811809572734846"><ele>635.0</ele><time>2026-03-24T16:50:21.999Z</time></trkpt><trkpt lat="46.152014877010764" lon="11.811673243905629"><ele>635.0</ele><time>2026-03-24T16:50:22.999Z</time></trkpt><trkpt lat="46.15185672558427" lon="11.811533083046923"><ele>635.0</ele><time>2026-03-24T16:50:23.999Z</time></trkpt><trkpt lat="46.15170471353155" lon="11.81137760860675"><ele>635.0</ele><time>2026-03-24T16:50:24.999Z</time></trkpt><trkpt lat="46.15155222633165" lon="11.811211092165287"><ele>634.6666666666666</ele><time>2026-03-24T16:50:25.999Z</time></trkpt><trkpt lat="46.151402282494274" lon="11.811038884603207"><ele>634.3333333333334</ele><time>2026-03-24T16:50:26.999Z</time></trkpt><trkpt lat="46.15125728836897" lon="11.810861808761203"><ele>634.0</ele><time>2026-03-24T16:50:27.999Z</time></trkpt><trkpt lat="46.15111863556054" lon="11.81067635142118"><ele>633.3333333333334</ele><time>2026-03-24T16:50:28.999Z</time></trkpt><trkpt lat="46.150983647765244" lon="11.810480020688054"><ele>632.6666666666666</ele><time>2026-03-24T16:50:29.999Z</time></trkpt><trkpt lat="46.15085586552082" lon="11.810283085843738"><ele>632.0</ele><time>2026-03-24T16:50:30.999Z</time></trkpt><trkpt lat="46.15073347076739" lon="11.810084125414603"><ele>631.0</ele><time>2026-03-24T16:50:31.999Z</time></trkpt><trkpt lat="46.15061964348715" lon="11.80988678700061"><ele>630.0</ele><time>2026-03-24T16:50:32.999Z</time></trkpt><trkpt lat="46.15050668532289" lon="11.809699760295983"><ele>629.0</ele><time>2026-03-24T16:50:33.999Z</time></trkpt><trkpt lat="46.15041302134741" lon="11.809518002577319"><ele>629.0</ele><time>2026-03-24T16:50:34.999Z</time></trkpt><trkpt lat="46.15032910319962" lon="11.80934010771557"><ele>629.0</ele><time>2026-03-24T16:50:35.999Z</time></trkpt><trkpt lat="46.15025048716451" lon="11.809162358575817"><ele>629.0</ele><time>2026-03-24T16:50:36.999Z</time></trkpt><trkpt lat="46.150180446138194" lon="11.808989356539806"><ele>629.0</ele><time>2026-03-24T16:50:37.999Z</time></trkpt><trkpt lat="46.1501148557239" lon="11.808823343325502"><ele>629.0</ele><time>2026-03-24T16:50:38.999Z</time></trkpt><trkpt lat="46.1500617309728" lon="11.808678282071593"><ele>629.0</ele><time>2026-03-24T16:50:39.999Z</time></trkpt><trkpt lat="46.1500091275744" lon="11.808538657107544"><ele>629.0</ele><time>2026-03-24T16:50:40.999Z</time></trkpt><trkpt lat="46.149962042233376" lon="11.80840667069512"><ele>629.0</ele><time>2026-03-24T16:50:41.999Z</time></trkpt><trkpt lat="46.14992186919076" lon="11.80828289128575"><ele>629.0</ele><time>2026-03-24T16:50:42.999Z</time></trkpt><trkpt lat="46.14989798496285" lon="11.808166860675462"><ele>629.1666666666666</ele><time>2026-03-24T16:50:43.999Z</time></trkpt><trkpt lat="46.149887683806185" lon="11.808064207590341"><ele>629.3333333333333</ele><time>2026-03-24T16:50:44.999Z</time></trkpt><trkpt lat="46.14989504001239" lon="11.807962368675089"><ele>629.5</ele><time>2026-03-24T16:50:45.999Z</time></trkpt><trkpt lat="46.14991774315043" lon="11.807862464801717"><ele>629.6666666666666</ele><time>2026-03-24T16:50:46.999Z</time></trkpt><trkpt lat="46.14994036131141" lon="11.807750944058512"><ele>629.8333333333334</ele><time>2026-03-24T16:50:47.999Z</time></trkpt><trkpt lat="46.14993897802408" lon="11.807636363516979"><ele>630.0</ele><time>2026-03-24T16:50:48.999Z</time></trkpt><trkpt lat="46.14992126175676" lon="11.807530988302968"><ele>629.3333333333334</ele><time>2026-03-24T16:50:49.999Z</time></trkpt><trkpt lat="46.149872485208164" lon="11.807424055517137"><ele>628.6666666666666</ele><time>2026-03-24T16:50:50.999Z</time></trkpt><trkpt lat="46.14979299024276" lon="11.807365337880725"><ele>628.0</ele><time>2026-03-24T16:50:51.999Z</time></trkpt><trkpt lat="46.149709520604496" lon="11.807333026677878"><ele>627.3333333333333</ele><time>2026-03-24T16:50:52.999Z</time></trkpt><trkpt lat="46.1496201723741" lon="11.80730332526361"><ele>626.6666666666666</ele><time>2026-03-24T16:50:53.999Z</time></trkpt><trkpt lat="46.1495458016655" lon="11.80725073387811"><ele>626.0</ele><time>2026-03-24T16:50:54.999Z</time></trkpt><trkpt lat="46.149494882000674" lon="11.807183315986506"><ele>626.0</ele><time>2026-03-24T16:50:55.999Z</time></trkpt><trkpt lat="46.149449607329394" lon="11.807095368595718"><ele>626.0</ele><time>2026-03-24T16:50:56.999Z</time></trkpt><trkpt lat="46.149402643891314" lon="11.806978927747926"><ele>626.0</ele><time>2026-03-24T16:50:57.999Z</time></trkpt><trkpt lat="46.14937137683341" lon="11.806844175800823"><ele>626.0</ele><time>2026-03-24T16:50:58.999Z</time></trkpt><trkpt lat="46.1493205577541" lon="11.806704612008842"><ele>626.0</ele><time>2026-03-24T16:50:59.999Z</time></trkpt><trkpt lat="46.14914541290874" lon="11.806251995739153"><ele>626.25</ele><time>2026-03-24T16:51:02.999Z</time></trkpt><trkpt lat="46.1490901504471" lon="11.806081101652207"><ele>626.5</ele><time>2026-03-24T16:51:03.999Z</time></trkpt><trkpt lat="46.14903132476508" lon="11.805899682233669"><ele>626.75</ele><time>2026-03-24T16:51:04.999Z</time></trkpt><trkpt lat="46.14897844101649" lon="11.805696952405501"><ele>627.0</ele><time>2026-03-24T16:51:05.999Z</time></trkpt><trkpt lat="46.14891879865404" lon="11.805489052925731"><ele>627.0</ele><time>2026-03-24T16:51:06.999Z</time></trkpt><trkpt lat="46.148858554014694" lon="11.805267738735537"><ele>627.0</ele><time>2026-03-24T16:51:07.999Z</time></trkpt><trkpt lat="46.148790241286115" lon="11.805037390162665"><ele>627.0</ele><time>2026-03-24T16:51:08.999Z</time></trkpt><trkpt lat="46.14871804089464" lon="11.804806611300245"><ele>626.0</ele><time>2026-03-24T16:51:09.998Z</time></trkpt><trkpt lat="46.1486494793954" lon="11.804572467841401"><ele>625.0</ele><time>2026-03-24T16:51:10.998Z</time></trkpt><trkpt lat="46.14857895682449" lon="11.80433849865206"><ele>624.0</ele><time>2026-03-24T16:51:11.998Z</time></trkpt><trkpt lat="46.14850635509626" lon="11.804099652999943"><ele>623.6666666666666</ele><time>2026-03-24T16:51:12.998Z</time></trkpt><trkpt lat="46.148433706373616" lon="11.803858575423227"><ele>623.3333333333333</ele><time>2026-03-24T16:51:13.998Z</time></trkpt><trkpt lat="46.14836138577803" lon="11.803611911083236"><ele>623.0</ele><time>2026-03-24T16:51:14.998Z</time></trkpt><trkpt lat="46.148287763407744" lon="11.803356984784843"><ele>623.0</ele><time>2026-03-24T16:51:15.998Z</time></trkpt><trkpt lat="46.148215206963286" lon="11.803100503420803"><ele>623.0</ele><time>2026-03-24T16:51:16.998Z</time></trkpt><trkpt lat="46.14814886574441" lon="11.802836993620986"><ele>623.0</ele><time>2026-03-24T16:51:17.998Z</time></trkpt><trkpt lat="46.148088638660255" lon="11.802569651243303"><ele>622.3333333333333</ele><time>2026-03-24T16:51:18.998Z</time></trkpt><trkpt lat="46.14803776534167" lon="11.802300427724685"><ele>621.6666666666666</ele><time>2026-03-24T16:51:19.998Z</time></trkpt><trkpt lat="46.147992023000576" lon="11.802034479758202"><ele>621.0</ele><time>2026-03-24T16:51:20.998Z</time></trkpt><trkpt lat="46.147944266159044" lon="11.801760768825709"><ele>620.6666666666666</ele><time>2026-03-24T16:51:21.998Z</time></trkpt><trkpt lat="46.14789981371065" lon="11.801488540312654"><ele>620.3333333333333</ele><time>2026-03-24T16:51:22.998Z</time></trkpt><trkpt lat="46.14785154640631" lon="11.801217110086618"><ele>620.0</ele><time>2026-03-24T16:51:23.998Z</time></trkpt><trkpt lat="46.147801790460235" lon="11.800956362488604"><ele>619.3333333333333</ele><time>2026-03-24T16:51:24.998Z</time></trkpt><trkpt lat="46.14775414560432" lon="11.800699842424471"><ele>618.6666666666666</ele><time>2026-03-24T16:51:25.998Z</time></trkpt><trkpt lat="46.14771063576991" lon="11.800449919552664"><ele>618.0</ele><time>2026-03-24T16:51:26.998Z</time></trkpt><trkpt lat="46.147671999597506" lon="11.800212693230213"><ele>617.6666666666666</ele><time>2026-03-24T16:51:27.998Z</time></trkpt><trkpt lat="46.14763597955915" lon="11.799981784330154"><ele>617.3333333333333</ele><time>2026-03-24T16:51:28.998Z</time></trkpt><trkpt lat="46.14761030071728" lon="11.799745956716924"><ele>617.0</ele><time>2026-03-24T16:51:29.998Z</time></trkpt><trkpt lat="46.14759450106697" lon="11.799509714544827"><ele>617.0</ele><time>2026-03-24T16:51:31Z</time></trkpt><trkpt lat="46.14758628291297" lon="11.79927463038321"><ele>617.0</ele><time>2026-03-24T16:51:32Z</time></trkpt><trkpt lat="46.14758134461546" lon="11.799039591298083"><ele>617.0</ele><time>2026-03-24T16:51:33Z</time></trkpt><trkpt lat="46.14757233990828" lon="11.79879396000058"><ele>617.0</ele><time>2026-03-24T16:51:34Z</time></trkpt><trkpt lat="46.147560932259445" lon="11.798549398657478"><ele>617.0</ele><time>2026-03-24T16:51:35Z</time></trkpt><trkpt lat="46.147547687648846" lon="11.798320018739219"><ele>617.0</ele><time>2026-03-24T16:51:36Z</time></trkpt><trkpt lat="46.14752766290935" lon="11.798109346062104"><ele>617.0</ele><time>2026-03-24T16:51:37Z</time></trkpt><trkpt lat="46.14750575047348" lon="11.797922984509665"><ele>617.0</ele><time>2026-03-24T16:51:38Z</time></trkpt><trkpt lat="46.147485176573284" lon="11.797762454220589"><ele>617.0</ele><time>2026-03-24T16:51:39Z</time></trkpt><trkpt lat="46.14746669670059" lon="11.797623231836964"><ele>617.0</ele><time>2026-03-24T16:51:40Z</time></trkpt><trkpt lat="46.14745241532963" lon="11.797506885719267"><ele>617.0</ele><time>2026-03-24T16:51:41Z</time></trkpt><trkpt lat="46.14744475742735" lon="11.797379345727329"><ele>616.6666666666666</ele><time>2026-03-24T16:51:42Z</time></trkpt><trkpt lat="46.147467186220666" lon="11.797241988975728"><ele>616.3333333333333</ele><time>2026-03-24T16:51:43Z</time></trkpt><trkpt lat="46.1474941873435" lon="11.797104846055069"><ele>616.0</ele><time>2026-03-24T16:51:44Z</time></trkpt><trkpt lat="46.14751431204019" lon="11.796974458510139"><ele>615.6666666666666</ele><time>2026-03-24T16:51:45Z</time></trkpt><trkpt lat="46.14750622972529" lon="11.796859572765852"><ele>615.3333333333334</ele><time>2026-03-24T16:51:46Z</time></trkpt><trkpt lat="46.147476906998456" lon="11.796768962325073"><ele>615.0</ele><time>2026-03-24T16:51:47Z</time></trkpt><trkpt lat="46.14737125306855" lon="11.796663357192298"><ele>614.8</ele><time>2026-03-24T16:51:49Z</time></trkpt><trkpt lat="46.14730115808079" lon="11.796616297378595"><ele>614.6</ele><time>2026-03-24T16:51:50Z</time></trkpt><trkpt lat="46.1472406061195" lon="11.796537392405002"><ele>614.4</ele><time>2026-03-24T16:51:51Z</time></trkpt><trkpt lat="46.14718162091675" lon="11.796435682656796"><ele>614.2</ele><time>2026-03-24T16:51:52Z</time></trkpt><trkpt lat="46.14712690702318" lon="11.796314424150776"><ele>614.0</ele><time>2026-03-24T16:51:53Z</time></trkpt><trkpt lat="46.147074783019306" lon="11.79618876861323"><ele>614.0</ele><time>2026-03-24T16:51:54Z</time></trkpt><trkpt lat="46.14701255604604" lon="11.796060171830932"><ele>614.0</ele><time>2026-03-24T16:51:55Z</time></trkpt><trkpt lat="46.14694334959185" lon="11.795929287418556"><ele>614.0</ele><time>2026-03-24T16:51:56Z</time></trkpt><trkpt lat="46.146863278624835" lon="11.795791768851108"><ele>614.0</ele><time>2026-03-24T16:51:57Z</time></trkpt><trkpt lat="46.146770127157396" lon="11.795638379140433"><ele>613.0</ele><time>2026-03-24T16:51:58Z</time></trkpt><trkpt lat="46.14665768505319" lon="11.795493636853678"><ele>612.0</ele><time>2026-03-24T16:51:59Z</time></trkpt><trkpt lat="46.146536903296074" lon="11.795333171616955"><ele>611.0</ele><time>2026-03-24T16:52:00Z</time></trkpt><trkpt lat="46.1464021569199" lon="11.795164736905532"><ele>610.6666666666666</ele><time>2026-03-24T16:52:01Z</time></trkpt><trkpt lat="46.146254929038264" lon="11.794978796532332"><ele>610.3333333333334</ele><time>2026-03-24T16:52:02Z</time></trkpt><trkpt lat="46.14610279323891" lon="11.794776069373336"><ele>610.0</ele><time>2026-03-24T16:52:03Z</time></trkpt><trkpt lat="46.145979118653166" lon="11.794578987210784"><ele>610.0</ele><time>2026-03-24T16:52:04Z</time></trkpt><trkpt lat="46.14583681727575" lon="11.794343066689732"><ele>610.0</ele><time>2026-03-24T16:52:05Z</time></trkpt><trkpt lat="46.145681307766615" lon="11.794058758560348"><ele>609.0</ele><time>2026-03-24T16:52:06Z</time></trkpt><trkpt lat="46.14552194828314" lon="11.793742601125919"><ele>608.0</ele><time>2026-03-24T16:52:07Z</time></trkpt><trkpt lat="46.1453433894873" lon="11.793418908063275"><ele>607.0</ele><time>2026-03-24T16:52:08Z</time></trkpt><trkpt lat="46.14517390730637" lon="11.793058833641888"><ele>606.0</ele><time>2026-03-24T16:52:09Z</time></trkpt><trkpt lat="46.144985417604154" lon="11.792693613736906"><ele>607.0</ele><time>2026-03-24T16:52:10Z</time></trkpt><trkpt lat="46.1447993864286" lon="11.79232141405207"><ele>608.0</ele><time>2026-03-24T16:52:11Z</time></trkpt><trkpt lat="46.14463769185444" lon="11.79197401726544"><ele>606.5</ele><time>2026-03-24T16:52:12Z</time></trkpt><trkpt lat="46.144484501702124" lon="11.791636977178069"><ele>605.0</ele><time>2026-03-24T16:52:13Z</time></trkpt><trkpt lat="46.14433399403378" lon="11.79131445780122"><ele>605.0</ele><time>2026-03-24T16:52:14Z</time></trkpt><trkpt lat="46.14416814589863" lon="11.791022505036187"><ele>605.0</ele><time>2026-03-24T16:52:15Z</time></trkpt><trkpt lat="46.14402213170676" lon="11.790745342830647"><ele>605.0</ele><time>2026-03-24T16:52:16Z</time></trkpt><trkpt lat="46.14388462980927" lon="11.790481525175286"><ele>605.0</ele><time>2026-03-24T16:52:17Z</time></trkpt><trkpt lat="46.143757806843034" lon="11.79020016986385"><ele>605.5</ele><time>2026-03-24T16:52:18Z</time></trkpt><trkpt lat="46.14362200876408" lon="11.789925467378366"><ele>606.0</ele><time>2026-03-24T16:52:18.999Z</time></trkpt><trkpt lat="46.1434770489051" lon="11.789671215029758"><ele>606.0</ele><time>2026-03-24T16:52:19.999Z</time></trkpt><trkpt lat="46.143347320934936" lon="11.789407374518152"><ele>606.0</ele><time>2026-03-24T16:52:20.999Z</time></trkpt><trkpt lat="46.14321930730328" lon="11.789138250934343"><ele>608.0</ele><time>2026-03-24T16:52:21.999Z</time></trkpt><trkpt lat="46.143104393613505" lon="11.788845778570753"><ele>610.0</ele><time>2026-03-24T16:52:22.999Z</time></trkpt><trkpt lat="46.14297205194635" lon="11.788569765604263"><ele>608.5</ele><time>2026-03-24T16:52:23.999Z</time></trkpt><trkpt lat="46.14286374576044" lon="11.788278620908187"><ele>607.0</ele><time>2026-03-24T16:52:24.999Z</time></trkpt><trkpt lat="46.14276159718797" lon="11.78797976904585"><ele>607.0</ele><time>2026-03-24T16:52:25.999Z</time></trkpt><trkpt lat="46.142665995809544" lon="11.787677800182363"><ele>607.0</ele><time>2026-03-24T16:52:26.999Z</time></trkpt><trkpt lat="46.14257242704564" lon="11.787372859646927"><ele>604.5</ele><time>2026-03-24T16:52:27.999Z</time></trkpt><trkpt lat="46.142483205467016" lon="11.787062816308127"><ele>602.0</ele><time>2026-03-24T16:52:28.999Z</time></trkpt><trkpt lat="46.142391414918244" lon="11.786763524444332"><ele>606.5</ele><time>2026-03-24T16:52:29.999Z</time></trkpt><trkpt lat="46.1422952816587" lon="11.786462390853346"><ele>611.0</ele><time>2026-03-24T16:52:30.999Z</time></trkpt><trkpt lat="46.14219869413237" lon="11.786161705681854"><ele>607.5</ele><time>2026-03-24T16:52:31.999Z</time></trkpt><trkpt lat="46.142101609400484" lon="11.785862535292761"><ele>604.0</ele><time>2026-03-24T16:52:32.999Z</time></trkpt><trkpt lat="46.14201079093897" lon="11.785557681285962"><ele>604.0</ele><time>2026-03-24T16:52:33.999Z</time></trkpt><trkpt lat="46.14194618852386" lon="11.785240518810067"><ele>604.0</ele><time>2026-03-24T16:52:34.999Z</time></trkpt><trkpt lat="46.14186993605495" lon="11.784931524790528"><ele>602.5</ele><time>2026-03-24T16:52:35.999Z</time></trkpt><trkpt lat="46.14180395164976" lon="11.784618448857623"><ele>601.0</ele><time>2026-03-24T16:52:36.999Z</time></trkpt><trkpt lat="46.14172664616795" lon="11.78430939069086"><ele>599.0</ele><time>2026-03-24T16:52:37.999Z</time></trkpt><trkpt lat="46.141665017356665" lon="11.783988640264075"><ele>597.0</ele><time>2026-03-24T16:52:38.999Z</time></trkpt><trkpt lat="46.14160504742375" lon="11.783667406899886"><ele>599.5</ele><time>2026-03-24T16:52:39.999Z</time></trkpt><trkpt lat="46.141544993600846" lon="11.783347848368702"><ele>602.0</ele><time>2026-03-24T16:52:40.999Z</time></trkpt><trkpt lat="46.14150987348573" lon="11.783017853685747"><ele>602.0</ele><time>2026-03-24T16:52:41.999Z</time></trkpt><trkpt lat="46.14146955767933" lon="11.782692317968925"><ele>602.0</ele><time>2026-03-24T16:52:42.999Z</time></trkpt><trkpt lat="46.14141773970253" lon="11.782368477365273"><ele>600.5</ele><time>2026-03-24T16:52:43.999Z</time></trkpt><trkpt lat="46.141394787632635" lon="11.782035163204366"><ele>599.0</ele><time>2026-03-24T16:52:44.999Z</time></trkpt><trkpt lat="46.141378423727915" lon="11.781707723801226"><ele>597.5</ele><time>2026-03-24T16:52:45.999Z</time></trkpt><trkpt lat="46.141362453363676" lon="11.781373920342709"><ele>596.0</ele><time>2026-03-24T16:52:46.999Z</time></trkpt><trkpt lat="46.141345476126936" lon="11.78105188357203"><ele>596.3333333333333</ele><time>2026-03-24T16:52:47.999Z</time></trkpt><trkpt lat="46.14132499957583" lon="11.780727093348974"><ele>596.6666666666666</ele><time>2026-03-24T16:52:48.999Z</time></trkpt><trkpt lat="46.141303219424394" lon="11.780406293213513"><ele>597.0</ele><time>2026-03-24T16:52:49.999Z</time></trkpt><trkpt lat="46.14127785923688" lon="11.780088170612059"><ele>594.5</ele><time>2026-03-24T16:52:50.999Z</time></trkpt><trkpt lat="46.141246328197674" lon="11.779762801319356"><ele>592.0</ele><time>2026-03-24T16:52:51.999Z</time></trkpt><trkpt lat="46.14121045230929" lon="11.779444029630778"><ele>591.6666666666667</ele><time>2026-03-24T16:52:52.999Z</time></trkpt><trkpt lat="46.14116320916312" lon="11.779127126941614"><ele>591.3333333333334</ele><time>2026-03-24T16:52:53.999Z</time></trkpt><trkpt lat="46.14110942698697" lon="11.778817995950558"><ele>591.0</ele><time>2026-03-24T16:52:54.999Z</time></trkpt><trkpt lat="46.141047199337805" lon="11.778510894664139"><ele>591.0</ele><time>2026-03-24T16:52:55.999Z</time></trkpt><trkpt lat="46.140979906140934" lon="11.77820416527035"><ele>591.0</ele><time>2026-03-24T16:52:56.999Z</time></trkpt><trkpt lat="46.14090845433313" lon="11.777903281001517"><ele>591.0</ele><time>2026-03-24T16:52:57.999Z</time></trkpt><trkpt lat="46.14083299838419" lon="11.7776015053521"><ele>590.6666666666666</ele><time>2026-03-24T16:52:58.999Z</time></trkpt><trkpt lat="46.140751846685546" lon="11.77730000401679"><ele>590.3333333333333</ele><time>2026-03-24T16:52:59.999Z</time></trkpt><trkpt lat="46.140669344212256" lon="11.777000092766686"><ele>590.0</ele><time>2026-03-24T16:53:00.999Z</time></trkpt><trkpt lat="46.14058786770659" lon="11.776697632400333"><ele>590.0</ele><time>2026-03-24T16:53:01.999Z</time></trkpt><trkpt lat="46.14050617999527" lon="11.776392976259524"><ele>590.0</ele><time>2026-03-24T16:53:02.999Z</time></trkpt><trkpt lat="46.14042983906246" lon="11.776103640953957"><ele>590.0</ele><time>2026-03-24T16:53:03.999Z</time></trkpt><trkpt lat="46.140362685170885" lon="11.775836565361551"><ele>590.0</ele><time>2026-03-24T16:53:04.999Z</time></trkpt><trkpt lat="46.140297473304535" lon="11.775589025787854"><ele>590.0</ele><time>2026-03-24T16:53:05.999Z</time></trkpt><trkpt lat="46.14023472382398" lon="11.775357128897877"><ele>590.0</ele><time>2026-03-24T16:53:06.999Z</time></trkpt><trkpt lat="46.14017388110571" lon="11.775137604107623"><ele>589.25</ele><time>2026-03-24T16:53:07.999Z</time></trkpt><trkpt lat="46.14011896742888" lon="11.774944331089857"><ele>588.5</ele><time>2026-03-24T16:53:08.999Z</time></trkpt><trkpt lat="46.14006669577608" lon="11.774743151894025"><ele>587.75</ele><time>2026-03-24T16:53:09.999Z</time></trkpt><trkpt lat="46.140015882491014" lon="11.774581816246325"><ele>587.0</ele><time>2026-03-24T16:53:10.999Z</time></trkpt><trkpt lat="46.13997097588602" lon="11.774425700568795"><ele>586.4</ele><time>2026-03-24T16:53:11.999Z</time></trkpt><trkpt lat="46.13995440073101" lon="11.774268103238871"><ele>585.8000000000001</ele><time>2026-03-24T16:53:12.999Z</time></trkpt><trkpt lat="46.13991960715886" lon="11.774139890470954"><ele>585.2</ele><time>2026-03-24T16:53:13.999Z</time></trkpt><trkpt lat="46.139903731135306" lon="11.774019999413945"><ele>584.6</ele><time>2026-03-24T16:53:14.999Z</time></trkpt><trkpt lat="46.139917599502375" lon="11.773900550179535"><ele>584.0</ele><time>2026-03-24T16:53:15.999Z</time></trkpt><trkpt lat="46.13993720921911" lon="11.77377564705328"><ele>584.0</ele><time>2026-03-24T16:53:16.999Z</time></trkpt><trkpt lat="46.13994541351703" lon="11.773655336848854"><ele>584.0</ele><time>2026-03-24T16:53:17.999Z</time></trkpt><trkpt lat="46.13993112078473" lon="11.773528310113248"><ele>584.0</ele><time>2026-03-24T16:53:18.999Z</time></trkpt><trkpt lat="46.1398765951056" lon="11.773422931908808"><ele>584.0</ele><time>2026-03-24T16:53:19.999Z</time></trkpt><trkpt lat="46.13979076573585" lon="11.773337080592933"><ele>584.0</ele><time>2026-03-24T16:53:20.999Z</time></trkpt><trkpt lat="46.139686548668465" lon="11.773278059263967"><ele>583.75</ele><time>2026-03-24T16:53:21.999Z</time></trkpt><trkpt lat="46.13957197960961" lon="11.773196988491911"><ele>583.5</ele><time>2026-03-24T16:53:22.999Z</time></trkpt><trkpt lat="46.13944846815516" lon="11.773103009934475"><ele>583.25</ele><time>2026-03-24T16:53:23.999Z</time></trkpt><trkpt lat="46.13932194557059" lon="11.773005376267276"><ele>583.0</ele><time>2026-03-24T16:53:24.999Z</time></trkpt><trkpt lat="46.139181618198734" lon="11.772850286643129"><ele>585.0</ele><time>2026-03-24T16:53:25.999Z</time></trkpt><trkpt lat="46.139037818969506" lon="11.772683229175152"><ele>587.0</ele><time>2026-03-24T16:53:26.999Z</time></trkpt><trkpt lat="46.13889611765977" lon="11.772493556933197"><ele>589.0</ele><time>2026-03-24T16:53:27.999Z</time></trkpt><trkpt lat="46.138758325014926" lon="11.772303024187744"><ele>589.0</ele><time>2026-03-24T16:53:28.999Z</time></trkpt><trkpt lat="46.138644900761825" lon="11.772112549758356"><ele>589.0</ele><time>2026-03-24T16:53:29.999Z</time></trkpt><trkpt lat="46.138559153267614" lon="11.771901080927213"><ele>589.0</ele><time>2026-03-24T16:53:30.998Z</time></trkpt><trkpt lat="46.13847349155505" lon="11.771706926067647"><ele>595.0</ele><time>2026-03-24T16:53:31.998Z</time></trkpt><trkpt lat="46.138390697806074" lon="11.77150239568839"><ele>601.0</ele><time>2026-03-24T16:53:32.998Z</time></trkpt><trkpt lat="46.138302744207486" lon="11.771305020675431"><ele>607.0</ele><time>2026-03-24T16:53:33.998Z</time></trkpt><trkpt lat="46.13821468453728" lon="11.771107318563363"><ele>601.0</ele><time>2026-03-24T16:53:34.998Z</time></trkpt><trkpt lat="46.13812876266434" lon="11.770907048703528"><ele>595.0</ele><time>2026-03-24T16:53:35.998Z</time></trkpt><trkpt lat="46.138052646347155" lon="11.770693783234995"><ele>589.0</ele><time>2026-03-24T16:53:37Z</time></trkpt><trkpt lat="46.13795825454419" lon="11.770527941967723"><ele>589.0</ele><time>2026-03-24T16:53:38Z</time></trkpt><trkpt lat="46.13783241859924" lon="11.770392324587904"><ele>589.0</ele><time>2026-03-24T16:53:39Z</time></trkpt><trkpt lat="46.13769166362194" lon="11.770275032050968"><ele>589.0</ele><time>2026-03-24T16:53:40Z</time></trkpt><trkpt lat="46.1375474646215" lon="11.770148942135968"><ele>590.3333333333334</ele><time>2026-03-24T16:53:41Z</time></trkpt><trkpt lat="46.13739258480783" lon="11.7700141144454"><ele>591.6666666666666</ele><time>2026-03-24T16:53:42Z</time></trkpt><trkpt lat="46.13722998590772" lon="11.769872718745297"><ele>593.0</ele><time>2026-03-24T16:53:43Z</time></trkpt><trkpt lat="46.13706085719163" lon="11.76972593558109"><ele>595.0</ele><time>2026-03-24T16:53:44Z</time></trkpt><trkpt lat="46.136890086453775" lon="11.76957824339286"><ele>597.0</ele><time>2026-03-24T16:53:45Z</time></trkpt><trkpt lat="46.13671942406433" lon="11.769441123165354"><ele>599.0</ele><time>2026-03-24T16:53:46Z</time></trkpt><trkpt lat="46.136557350695085" lon="11.769357860364574"><ele>600.25</ele><time>2026-03-24T16:53:47Z</time></trkpt><trkpt lat="46.13646453234679" lon="11.769344731730634"><ele>601.5</ele><time>2026-03-24T16:53:48Z</time></trkpt><trkpt lat="46.136347535841544" lon="11.769322415883803"><ele>602.75</ele><time>2026-03-24T16:53:49Z</time></trkpt><trkpt lat="46.136201938017635" lon="11.769324389693457"><ele>604.0</ele><time>2026-03-24T16:53:50Z</time></trkpt><trkpt lat="46.136032556677364" lon="11.769367865446297"><ele>604.0</ele><time>2026-03-24T16:53:51Z</time></trkpt><trkpt lat="46.135859815987786" lon="11.769397061742906"><ele>604.0</ele><time>2026-03-24T16:53:52Z</time></trkpt><trkpt lat="46.135677822962016" lon="11.769451472564395"><ele>604.0</ele><time>2026-03-24T16:53:53Z</time></trkpt><trkpt lat="46.13549825654469" lon="11.76949920505949"><ele>603.0</ele><time>2026-03-24T16:53:54Z</time></trkpt><trkpt lat="46.135316296332014" lon="11.769547579363307"><ele>602.0</ele><time>2026-03-24T16:53:55Z</time></trkpt><trkpt lat="46.135116774694325" lon="11.769581184125224"><ele>601.0</ele><time>2026-03-24T16:53:56Z</time></trkpt><trkpt lat="46.13493997361409" lon="11.769624185573164"><ele>598.6666666666667</ele><time>2026-03-24T16:53:57Z</time></trkpt><trkpt lat="46.13478047701614" lon="11.769672830767611"><ele>596.3333333333334</ele><time>2026-03-24T16:53:58Z</time></trkpt><trkpt lat="46.13462915583424" lon="11.769755191781222"><ele>594.0</ele><time>2026-03-24T16:53:59Z</time></trkpt><trkpt lat="46.13449348983542" lon="11.769827205243487"><ele>594.0</ele><time>2026-03-24T16:54:00Z</time></trkpt><trkpt lat="46.1343559848407" lon="11.76986298327918"><ele>594.0</ele><time>2026-03-24T16:54:01Z</time></trkpt><trkpt lat="46.13422053334119" lon="11.769857276453385"><ele>594.0</ele><time>2026-03-24T16:54:02Z</time></trkpt><trkpt lat="46.134084723994874" lon="11.769842505143746"><ele>594.0</ele><time>2026-03-24T16:54:03Z</time></trkpt><trkpt lat="46.133944214958255" lon="11.769848571982202"><ele>593.75</ele><time>2026-03-24T16:54:04Z</time></trkpt><trkpt lat="46.13379314283381" lon="11.769811187864692"><ele>593.5</ele><time>2026-03-24T16:54:05Z</time></trkpt><trkpt lat="46.133654148673024" lon="11.769790462460955"><ele>593.25</ele><time>2026-03-24T16:54:06Z</time></trkpt><trkpt lat="46.13352240349699" lon="11.769768434078678"><ele>593.0</ele><time>2026-03-24T16:54:07Z</time></trkpt><trkpt lat="46.133402285982484" lon="11.769688109595744"><ele>593.0</ele><time>2026-03-24T16:54:08Z</time></trkpt><trkpt lat="46.133303507909105" lon="11.769586587638205"><ele>593.0</ele><time>2026-03-24T16:54:09Z</time></trkpt><trkpt lat="46.13322029914032" lon="11.76948372448513"><ele>593.0</ele><time>2026-03-24T16:54:10Z</time></trkpt><trkpt lat="46.133114075921846" lon="11.769355931399447"><ele>593.0</ele><time>2026-03-24T16:54:11Z</time></trkpt><trkpt lat="46.13299180366474" lon="11.769208362957666"><ele>591.5</ele><time>2026-03-24T16:54:12Z</time></trkpt><trkpt lat="46.13288168090646" lon="11.76907640170642"><ele>590.0</ele><time>2026-03-24T16:54:13Z</time></trkpt><trkpt lat="46.13275571237589" lon="11.76892737618578"><ele>588.5</ele><time>2026-03-24T16:54:14Z</time></trkpt><trkpt lat="46.13264384598362" lon="11.768802037258848"><ele>587.0</ele><time>2026-03-24T16:54:15Z</time></trkpt><trkpt lat="46.132522828681005" lon="11.76869240171164"><ele>587.0</ele><time>2026-03-24T16:54:16Z</time></trkpt><trkpt lat="46.132396571317884" lon="11.768614575652336"><ele>587.0</ele><time>2026-03-24T16:54:17Z</time></trkpt><trkpt lat="46.13225295164338" lon="11.768588894464058"><ele>587.0</ele><time>2026-03-24T16:54:18Z</time></trkpt><trkpt lat="46.13209148994221" lon="11.768609530330286"><ele>587.0</ele><time>2026-03-24T16:54:19Z</time></trkpt><trkpt lat="46.13192347581137" lon="11.768666250288636"><ele>584.3333333333333</ele><time>2026-03-24T16:54:20Z</time></trkpt><trkpt lat="46.13175034006522" lon="11.768750661945495"><ele>581.6666666666666</ele><time>2026-03-24T16:54:21Z</time></trkpt><trkpt lat="46.13156649764333" lon="11.768862517490742"><ele>579.0</ele><time>2026-03-24T16:54:22Z</time></trkpt><trkpt lat="46.13136571222535" lon="11.76897566519034"><ele>579.0</ele><time>2026-03-24T16:54:23Z</time></trkpt><trkpt lat="46.131155368187045" lon="11.769092310984174"><ele>579.0</ele><time>2026-03-24T16:54:24Z</time></trkpt><trkpt lat="46.13095349036116" lon="11.769216657364739"><ele>579.0</ele><time>2026-03-24T16:54:25Z</time></trkpt><trkpt lat="46.130767652315654" lon="11.769328976369835"><ele>579.0</ele><time>2026-03-24T16:54:26Z</time></trkpt><trkpt lat="46.13061154198493" lon="11.769400509035423"><ele>579.0</ele><time>2026-03-24T16:54:27Z</time></trkpt><trkpt lat="46.130449042427045" lon="11.769404837184455"><ele>579.0</ele><time>2026-03-24T16:54:28Z</time></trkpt><trkpt lat="46.130276604265326" lon="11.76938583241286"><ele>579.0</ele><time>2026-03-24T16:54:28.999Z</time></trkpt><trkpt lat="46.13012393545886" lon="11.769306381550193"><ele>579.0</ele><time>2026-03-24T16:54:29.999Z</time></trkpt><trkpt lat="46.12995228929132" lon="11.769234608109553"><ele>579.0</ele><time>2026-03-24T16:54:30.999Z</time></trkpt><trkpt lat="46.12976647317433" lon="11.769156084607838"><ele>579.0</ele><time>2026-03-24T16:54:31.999Z</time></trkpt><trkpt lat="46.12957191634995" lon="11.769087750939308"><ele>579.0</ele><time>2026-03-24T16:54:32.999Z</time></trkpt><trkpt lat="46.1294156940077" lon="11.769018104961617"><ele>579.0</ele><time>2026-03-24T16:54:33.999Z</time></trkpt><trkpt lat="46.12925667546919" lon="11.768957743181106"><ele>579.0</ele><time>2026-03-24T16:54:34.999Z</time></trkpt><trkpt lat="46.12909774874632" lon="11.768936214862304"><ele>579.0</ele><time>2026-03-24T16:54:35.999Z</time></trkpt><trkpt lat="46.12893896650291" lon="11.768993074648293"><ele>579.0</ele><time>2026-03-24T16:54:36.999Z</time></trkpt><trkpt lat="46.12878872957416" lon="11.769097671509506"><ele>579.0</ele><time>2026-03-24T16:54:37.999Z</time></trkpt><trkpt lat="46.12864682998538" lon="11.769243701712629"><ele>579.0</ele><time>2026-03-24T16:54:38.999Z</time></trkpt><trkpt lat="46.12849962683723" lon="11.76937281934793"><ele>579.0</ele><time>2026-03-24T16:54:39.999Z</time></trkpt><trkpt lat="46.12836233563003" lon="11.769527172750024"><ele>579.0</ele><time>2026-03-24T16:54:40.999Z</time></trkpt><trkpt lat="46.12820351516704" lon="11.769631591880565"><ele>579.0</ele><time>2026-03-24T16:54:42.022Z</time></trkpt><trkpt lat="46.12804053123307" lon="11.769686082225078"><ele>579.0</ele><time>2026-03-24T16:54:43.024Z</time></trkpt><trkpt lat="46.12788849687436" lon="11.769712139841637"><ele>579.0</ele><time>2026-03-24T16:54:44.023Z</time></trkpt><trkpt lat="46.12776411339707" lon="11.769698819679215"><ele>579.0</ele><time>2026-03-24T16:54:45.023Z</time></trkpt><trkpt lat="46.127624826834435" lon="11.769690441745526"><ele>579.0</ele><time>2026-03-24T16:54:46.022Z</time></trkpt><trkpt lat="46.12748052075635" lon="11.769680349112376"><ele>579.0</ele><time>2026-03-24T16:54:47.023Z</time></trkpt><trkpt lat="46.12599675082241" lon="11.770260371278757"><ele>579.0</ele><time>2026-03-24T16:54:55.999Z</time></trkpt><trkpt lat="46.125868959849214" lon="11.770429011801717"><ele>579.0</ele><time>2026-03-24T16:54:56.999Z</time></trkpt><trkpt lat="46.12569094122785" lon="11.770572276458036"><ele>579.0</ele><time>2026-03-24T16:54:57.999Z</time></trkpt><trkpt lat="46.12555997741012" lon="11.770782972604259"><ele>579.0</ele><time>2026-03-24T16:54:58.999Z</time></trkpt><trkpt lat="46.12539976322093" lon="11.770981593669797"><ele>579.0</ele><time>2026-03-24T16:54:59.999Z</time></trkpt><trkpt lat="46.12524228825969" lon="11.771168805986115"><ele>579.0</ele><time>2026-03-24T16:55:00.999Z</time></trkpt><trkpt lat="46.125058813791284" lon="11.771310419226698"><ele>579.0</ele><time>2026-03-24T16:55:01.999Z</time></trkpt><trkpt lat="46.1248731933557" lon="11.771445362644462"><ele>579.0</ele><time>2026-03-24T16:55:02.999Z</time></trkpt><trkpt lat="46.12468950400628" lon="11.771559448951582"><ele>579.0</ele><time>2026-03-24T16:55:03.999Z</time></trkpt><trkpt lat="46.12449156040752" lon="11.771613038820368"><ele>579.0</ele><time>2026-03-24T16:55:04.999Z</time></trkpt><trkpt lat="46.124295087630465" lon="11.771655570847146"><ele>579.0</ele><time>2026-03-24T16:55:05.999Z</time></trkpt><trkpt lat="46.12414556472423" lon="11.77170727732575"><ele>579.0</ele><time>2026-03-24T16:55:06.999Z</time></trkpt><trkpt lat="46.12397484788958" lon="11.771793851906361"><ele>579.0</ele><time>2026-03-24T16:55:07.999Z</time></trkpt><trkpt lat="46.123800648002344" lon="11.771885406191823"><ele>579.0</ele><time>2026-03-24T16:55:08.999Z</time></trkpt><trkpt lat="46.12362463910612" lon="11.771982105320742"><ele>579.0</ele><time>2026-03-24T16:55:09.999Z</time></trkpt><trkpt lat="46.123465004202686" lon="11.772117920988478"><ele>579.0</ele><time>2026-03-24T16:55:10.999Z</time></trkpt><trkpt lat="46.123339582573855" lon="11.772295993544606"><ele>579.0</ele><time>2026-03-24T16:55:11.999Z</time></trkpt><trkpt lat="46.123210078050164" lon="11.772498024559832"><ele>579.0</ele><time>2026-03-24T16:55:12.999Z</time></trkpt><trkpt lat="46.123074616641375" lon="11.772706880678804"><ele>579.0</ele><time>2026-03-24T16:55:13.999Z</time></trkpt><trkpt lat="46.12293540126599" lon="11.772921180403282"><ele>579.0</ele><time>2026-03-24T16:55:14.999Z</time></trkpt><trkpt lat="46.12280583267315" lon="11.773110672504409"><ele>579.0</ele><time>2026-03-24T16:55:15.999Z</time></trkpt><trkpt lat="46.12266138727712" lon="11.773257629742838"><ele>579.0</ele><time>2026-03-24T16:55:16.999Z</time></trkpt><trkpt lat="46.12251379732408" lon="11.773395607537735"><ele>579.0</ele><time>2026-03-24T16:55:17.999Z</time></trkpt><trkpt lat="46.12238150930064" lon="11.773510383721923"><ele>579.0</ele><time>2026-03-24T16:55:18.999Z</time></trkpt><trkpt lat="46.12225094301203" lon="11.77359556082901"><ele>579.0</ele><time>2026-03-24T16:55:19.999Z</time></trkpt><trkpt lat="46.12211934268649" lon="11.773631071611643"><ele>579.0</ele><time>2026-03-24T16:55:20.999Z</time></trkpt><trkpt lat="46.121964455376705" lon="11.77363812952077"><ele>579.0</ele><time>2026-03-24T16:55:21.999Z</time></trkpt><trkpt lat="46.12181264329008" lon="11.773655179055755"><ele>579.0</ele><time>2026-03-24T16:55:22.999Z</time></trkpt><trkpt lat="46.12164775217835" lon="11.773705741268543"><ele>579.0</ele><time>2026-03-24T16:55:23.999Z</time></trkpt><trkpt lat="46.12146987873948" lon="11.773812969465585"><ele>579.0</ele><time>2026-03-24T16:55:24.999Z</time></trkpt><trkpt lat="46.1213072331856" lon="11.773935730057064"><ele>579.0</ele><time>2026-03-24T16:55:25.999Z</time></trkpt><trkpt lat="46.12113265757503" lon="11.774073520451648"><ele>579.0</ele><time>2026-03-24T16:55:26.999Z</time></trkpt><trkpt lat="46.12095587929755" lon="11.774225281317793"><ele>579.0</ele><time>2026-03-24T16:55:27.999Z</time></trkpt><trkpt lat="46.12078727125224" lon="11.774426746969457"><ele>579.0</ele><time>2026-03-24T16:55:28.999Z</time></trkpt><trkpt lat="46.12062829951867" lon="11.774611523882589"><ele>613.0</ele><time>2026-03-24T16:55:29.999Z</time></trkpt><trkpt lat="46.12047590989803" lon="11.774834895655118"><ele>647.0</ele><time>2026-03-24T16:55:30.999Z</time></trkpt><trkpt lat="46.12031869004028" lon="11.775043518422613"><ele>681.0</ele><time>2026-03-24T16:55:31.999Z</time></trkpt><trkpt lat="46.12014441012996" lon="11.775228206756816"><ele>681.0</ele><time>2026-03-24T16:55:33.024Z</time></trkpt><trkpt lat="46.11996728055524" lon="11.775386931053688"><ele>681.0</ele><time>2026-03-24T16:55:34.022Z</time></trkpt><trkpt lat="46.11979036028883" lon="11.775544843588651"><ele>681.0</ele><time>2026-03-24T16:55:35.022Z</time></trkpt><trkpt lat="46.11960287344695" lon="11.775708234296483"><ele>678.6666666666666</ele><time>2026-03-24T16:55:36.023Z</time></trkpt><trkpt lat="46.11942011510852" lon="11.775867504148765"><ele>676.3333333333333</ele><time>2026-03-24T16:55:37.022Z</time></trkpt><trkpt lat="46.11924408606185" lon="11.776020909322495"><ele>674.0</ele><time>2026-03-24T16:55:38.022Z</time></trkpt><trkpt lat="46.11907848624933" lon="11.77615712746694"><ele>656.0</ele><time>2026-03-24T16:55:39.023Z</time></trkpt><trkpt lat="46.118934828540496" lon="11.776251418822426"><ele>638.0</ele><time>2026-03-24T16:55:40.025Z</time></trkpt><trkpt lat="46.11881592954407" lon="11.776292633905443"><ele>620.0</ele><time>2026-03-24T16:55:41.025Z</time></trkpt><trkpt lat="46.117580356119305" lon="11.776657272141218"><ele>613.5</ele><time>2026-03-24T16:55:46.998Z</time></trkpt><trkpt lat="46.11738641535081" lon="11.776728949272814"><ele>607.0</ele><time>2026-03-24T16:55:47.998Z</time></trkpt><trkpt lat="46.11752207199279" lon="11.775793453653293"><ele>595.3333333333334</ele><time>2026-03-24T16:55:48.998Z</time></trkpt><trkpt lat="46.117375122377766" lon="11.77567403949031"><ele>583.6666666666666</ele><time>2026-03-24T16:55:49.998Z</time></trkpt><trkpt lat="46.117215390721796" lon="11.775627371273282"><ele>572.0</ele><time>2026-03-24T16:55:50.998Z</time></trkpt><trkpt lat="46.11704696558199" lon="11.775617045876754"><ele>572.0</ele><time>2026-03-24T16:55:51.998Z</time></trkpt><trkpt lat="46.11687857370378" lon="11.775624121364194"><ele>572.0</ele><time>2026-03-24T16:55:53Z</time></trkpt><trkpt lat="46.1167179745947" lon="11.77570590832601"><ele>572.0</ele><time>2026-03-24T16:55:54Z</time></trkpt><trkpt lat="46.11656159689465" lon="11.775834473708155"><ele>568.6666666666666</ele><time>2026-03-24T16:55:55Z</time></trkpt><trkpt lat="46.11639487397414" lon="11.775952942869596"><ele>565.3333333333334</ele><time>2026-03-24T16:55:56Z</time></trkpt><trkpt lat="46.11619523357628" lon="11.77614279125375"><ele>562.0</ele><time>2026-03-24T16:55:57Z</time></trkpt><trkpt lat="46.11598108845802" lon="11.776213975871624"><ele>566.3333333333334</ele><time>2026-03-24T16:55:58Z</time></trkpt><trkpt lat="46.11579617802593" lon="11.776317964871499"><ele>570.6666666666666</ele><time>2026-03-24T16:55:59Z</time></trkpt><trkpt lat="46.115570056662364" lon="11.77640953306208"><ele>575.0</ele><time>2026-03-24T16:56:00Z</time></trkpt><trkpt lat="46.115336092155644" lon="11.77649899579917"><ele>575.0</ele><time>2026-03-24T16:56:01Z</time></trkpt><trkpt lat="46.115102827893494" lon="11.776576454067916"><ele>575.0</ele><time>2026-03-24T16:56:02Z</time></trkpt><trkpt lat="46.1148534776267" lon="11.776648091116323"><ele>573.5</ele><time>2026-03-24T16:56:03Z</time></trkpt><trkpt lat="46.11461152749723" lon="11.776717146105721"><ele>572.0</ele><time>2026-03-24T16:56:04Z</time></trkpt><trkpt lat="46.114385240990366" lon="11.776781085184425"><ele>572.0</ele><time>2026-03-24T16:56:05Z</time></trkpt><trkpt lat="46.11417281671463" lon="11.776841107328822"><ele>572.0</ele><time>2026-03-24T16:56:06Z</time></trkpt><trkpt lat="46.113967550906715" lon="11.776901098272589"><ele>572.0</ele><time>2026-03-24T16:56:07Z</time></trkpt><trkpt lat="46.11376581495514" lon="11.776977034667748"><ele>574.6666666666666</ele><time>2026-03-24T16:56:08Z</time></trkpt><trkpt lat="46.113572047310875" lon="11.777067355890969"><ele>577.3333333333334</ele><time>2026-03-24T16:56:09Z</time></trkpt><trkpt lat="46.11337642948016" lon="11.777166663146478"><ele>580.0</ele><time>2026-03-24T16:56:10Z</time></trkpt><trkpt lat="46.11317718799902" lon="11.77726577605998"><ele>580.0</ele><time>2026-03-24T16:56:11.018Z</time></trkpt><trkpt lat="46.11298388864451" lon="11.777385742065995"><ele>580.0</ele><time>2026-03-24T16:56:12.024Z</time></trkpt><trkpt lat="46.112772611025505" lon="11.777482075671484"><ele>580.0</ele><time>2026-03-24T16:56:13.02Z</time></trkpt><trkpt lat="46.11256719127114" lon="11.777565995813397"><ele>583.0</ele><time>2026-03-24T16:56:14.018Z</time></trkpt><trkpt lat="46.11243153293139" lon="11.777685485621125"><ele>586.0</ele><time>2026-03-24T16:56:15Z</time></trkpt><trkpt lat="46.11227393748347" lon="11.777831256471059"><ele>589.0</ele><time>2026-03-24T16:56:16Z</time></trkpt><trkpt lat="46.11211041340404" lon="11.777956957422708"><ele>589.0</ele><time>2026-03-24T16:56:17Z</time></trkpt><trkpt lat="46.11194397591585" lon="11.778052743891783"><ele>589.0</ele><time>2026-03-24T16:56:18Z</time></trkpt><trkpt lat="46.111808177535195" lon="11.77808739289563"><ele>589.0</ele><time>2026-03-24T16:56:19Z</time></trkpt><trkpt lat="46.11162392683139" lon="11.778091519983768"><ele>587.6666666666667</ele><time>2026-03-24T16:56:20Z</time></trkpt><trkpt lat="46.111406926100294" lon="11.778067379487632"><ele>586.3333333333334</ele><time>2026-03-24T16:56:21Z</time></trkpt><trkpt lat="46.11119477783389" lon="11.77804297991866"><ele>585.0</ele><time>2026-03-24T16:56:22Z</time></trkpt><trkpt lat="46.110974666726804" lon="11.778020371217531"><ele>585.0</ele><time>2026-03-24T16:56:23Z</time></trkpt><trkpt lat="46.11074407209215" lon="11.778008688120964"><ele>585.0</ele><time>2026-03-24T16:56:24Z</time></trkpt><trkpt lat="46.11051876270424" lon="11.77802275773936"><ele>586.5</ele><time>2026-03-24T16:56:25Z</time></trkpt><trkpt lat="46.1102932378129" lon="11.77804709059787"><ele>588.0</ele><time>2026-03-24T16:56:26Z</time></trkpt><trkpt lat="46.110062910518046" lon="11.778071735111736"><ele>592.3333333333334</ele><time>2026-03-24T16:56:27Z</time></trkpt><trkpt lat="46.10983578950429" lon="11.778095816967015"><ele>596.6666666666667</ele><time>2026-03-24T16:56:28Z</time></trkpt><trkpt lat="46.10962018231404" lon="11.778118677906845"><ele>601.0</ele><time>2026-03-24T16:56:29Z</time></trkpt><trkpt lat="46.10942539993754" lon="11.77813954696946"><ele>601.0</ele><time>2026-03-24T16:56:30Z</time></trkpt><trkpt lat="46.10924019068532" lon="11.778160826139043"><ele>601.0</ele><time>2026-03-24T16:56:31Z</time></trkpt><trkpt lat="46.10907690363661" lon="11.77817722244289"><ele>601.0</ele><time>2026-03-24T16:56:32Z</time></trkpt><trkpt lat="46.1089333700377" lon="11.778173153340983"><ele>609.6666666666667</ele><time>2026-03-24T16:56:33Z</time></trkpt><trkpt lat="46.10879772936274" lon="11.778125250474073"><ele>618.3333333333334</ele><time>2026-03-24T16:56:34Z</time></trkpt><trkpt lat="46.108644235653756" lon="11.778017522759368"><ele>627.0</ele><time>2026-03-24T16:56:35Z</time></trkpt><trkpt lat="46.108503294932525" lon="11.777874196775306"><ele>627.0</ele><time>2026-03-24T16:56:36Z</time></trkpt><trkpt lat="46.1083527781296" lon="11.777717790612096"><ele>627.0</ele><time>2026-03-24T16:56:37Z</time></trkpt><trkpt lat="46.108223271316525" lon="11.77754775949559"><ele>627.0</ele><time>2026-03-24T16:56:38Z</time></trkpt><trkpt lat="46.108110319982146" lon="11.777341127334386"><ele>628.3333333333334</ele><time>2026-03-24T16:56:39Z</time></trkpt><trkpt lat="46.10798771845659" lon="11.777117315648903"><ele>629.6666666666667</ele><time>2026-03-24T16:56:40Z</time></trkpt><trkpt lat="46.10787078968134" lon="11.776903747302947"><ele>631.0</ele><time>2026-03-24T16:56:41Z</time></trkpt><trkpt lat="46.1077609103444" lon="11.776698470570512"><ele>622.3333333333334</ele><time>2026-03-24T16:56:42Z</time></trkpt><trkpt lat="46.107674475055795" lon="11.77650385986637"><ele>613.6666666666666</ele><time>2026-03-24T16:56:43Z</time></trkpt><trkpt lat="46.10762056402878" lon="11.776309610110353"><ele>605.0</ele><time>2026-03-24T16:56:44Z</time></trkpt><trkpt lat="46.10757466935688" lon="11.776099819708781"><ele>595.3333333333333</ele><time>2026-03-24T16:56:45Z</time></trkpt><trkpt lat="46.10752799800166" lon="11.775882292167514"><ele>585.6666666666666</ele><time>2026-03-24T16:56:46Z</time></trkpt><trkpt lat="46.10748586069301" lon="11.775685430447563"><ele>576.0</ele><time>2026-03-24T16:56:47Z</time></trkpt><trkpt lat="46.10744312095995" lon="11.775477445375204"><ele>583.6666666666666</ele><time>2026-03-24T16:56:47.999Z</time></trkpt><trkpt lat="46.10739309268619" lon="11.77526060933077"><ele>591.3333333333333</ele><time>2026-03-24T16:56:48.999Z</time></trkpt><trkpt lat="46.107320226031746" lon="11.775049970673157"><ele>599.0</ele><time>2026-03-24T16:56:49.999Z</time></trkpt><trkpt lat="46.10724310407241" lon="11.774853715748833"><ele>599.0</ele><time>2026-03-24T16:56:50.999Z</time></trkpt><trkpt lat="46.107171486220466" lon="11.774678109681572"><ele>599.0</ele><time>2026-03-24T16:56:51.999Z</time></trkpt><trkpt lat="46.10710381695363" lon="11.774510357546848"><ele>599.0</ele><time>2026-03-24T16:56:52.999Z</time></trkpt><trkpt lat="46.107039875045324" lon="11.77435521704892"><ele>599.0</ele><time>2026-03-24T16:56:53.999Z</time></trkpt><trkpt lat="46.10697185919371" lon="11.774218403775011"><ele>596.0</ele><time>2026-03-24T16:56:54.999Z</time></trkpt><trkpt lat="46.10688320198513" lon="11.774104899203893"><ele>593.0</ele><time>2026-03-24T16:56:55.999Z</time></trkpt><trkpt lat="46.10675122523709" lon="11.77399196112667"><ele>590.0</ele><time>2026-03-24T16:56:56.999Z</time></trkpt><trkpt lat="46.10659349106637" lon="11.773888333648735"><ele>587.0</ele><time>2026-03-24T16:56:57.999Z</time></trkpt><trkpt lat="46.10645128566554" lon="11.773764955486575"><ele>587.0</ele><time>2026-03-24T16:56:58.999Z</time></trkpt><trkpt lat="46.10630899367622" lon="11.773596080550043"><ele>587.0</ele><time>2026-03-24T16:56:59.999Z</time></trkpt><trkpt lat="46.10617780416951" lon="11.773453178727923"><ele>587.0</ele><time>2026-03-24T16:57:00.999Z</time></trkpt><trkpt lat="46.10605244289338" lon="11.77333875941195"><ele>581.75</ele><time>2026-03-24T16:57:01.999Z</time></trkpt><trkpt lat="46.10592096783841" lon="11.773271066788217"><ele>576.5</ele><time>2026-03-24T16:57:02.999Z</time></trkpt><trkpt lat="46.10577706574473" lon="11.773249089440254"><ele>571.25</ele><time>2026-03-24T16:57:03.999Z</time></trkpt><trkpt lat="46.10562028451882" lon="11.773259973595241"><ele>566.0</ele><time>2026-03-24T16:57:04.999Z</time></trkpt><trkpt lat="46.10545284057317" lon="11.773255976834719"><ele>580.5</ele><time>2026-03-24T16:57:05.999Z</time></trkpt><trkpt lat="46.10528795075227" lon="11.773212153281213"><ele>595.0</ele><time>2026-03-24T16:57:06.999Z</time></trkpt><trkpt lat="46.10515128529223" lon="11.773124315558702"><ele>609.5</ele><time>2026-03-24T16:57:07.999Z</time></trkpt><trkpt lat="46.10503746566314" lon="11.773027334418984"><ele>624.0</ele><time>2026-03-24T16:57:08.999Z</time></trkpt><trkpt lat="46.10493025383548" lon="11.772916263701449"><ele>619.0</ele><time>2026-03-24T16:57:09.999Z</time></trkpt><trkpt lat="46.104814560042364" lon="11.772797863701813"><ele>614.0</ele><time>2026-03-24T16:57:10.999Z</time></trkpt><trkpt lat="46.10468474999449" lon="11.77267741587298"><ele>609.0</ele><time>2026-03-24T16:57:11.999Z</time></trkpt><trkpt lat="46.10454615069122" lon="11.772597404902413"><ele>604.0</ele><time>2026-03-24T16:57:12.999Z</time></trkpt><trkpt lat="46.104385821239845" lon="11.772559181258083"><ele>604.0</ele><time>2026-03-24T16:57:13.999Z</time></trkpt><trkpt lat="46.10419485447469" lon="11.772537942818294"><ele>604.0</ele><time>2026-03-24T16:57:14.999Z</time></trkpt><trkpt lat="46.10401127794857" lon="11.77255559082629"><ele>604.0</ele><time>2026-03-24T16:57:15.999Z</time></trkpt><trkpt lat="46.10384082819816" lon="11.772577850972018"><ele>599.0</ele><time>2026-03-24T16:57:16.999Z</time></trkpt><trkpt lat="46.10366094270208" lon="11.772548891871617"><ele>594.0</ele><time>2026-03-24T16:57:17.999Z</time></trkpt><trkpt lat="46.103460922428866" lon="11.772487146506958"><ele>589.0</ele><time>2026-03-24T16:57:18.999Z</time></trkpt><trkpt lat="46.1032614680694" lon="11.772390047445686"><ele>603.6666666666667</ele><time>2026-03-24T16:57:19.999Z</time></trkpt><trkpt lat="46.10307703376466" lon="11.772261211642432"><ele>618.3333333333334</ele><time>2026-03-24T16:57:20.999Z</time></trkpt><trkpt lat="46.10288949540204" lon="11.772088112588081"><ele>633.0</ele><time>2026-03-24T16:57:21.999Z</time></trkpt><trkpt lat="46.10270460787869" lon="11.771903874065076"><ele>634.0</ele><time>2026-03-24T16:57:22.999Z</time></trkpt><trkpt lat="46.102531670714285" lon="11.771722117087194"><ele>635.0</ele><time>2026-03-24T16:57:23.999Z</time></trkpt><trkpt lat="46.10236990788906" lon="11.771537937681686"><ele>636.0</ele><time>2026-03-24T16:57:24.999Z</time></trkpt><trkpt lat="46.1022215833482" lon="11.771362029263038"><ele>636.0</ele><time>2026-03-24T16:57:25.999Z</time></trkpt><trkpt lat="46.10207566941885" lon="11.771187152061364"><ele>636.0</ele><time>2026-03-24T16:57:26.999Z</time></trkpt><trkpt lat="46.10191599582389" lon="11.770992922577415"><ele>636.0</ele><time>2026-03-24T16:57:28.025Z</time></trkpt><trkpt lat="46.10176114083435" lon="11.770804187139047"><ele>628.3333333333334</ele><time>2026-03-24T16:57:29.024Z</time></trkpt><trkpt lat="46.10160587725448" lon="11.770616201040431"><ele>620.6666666666667</ele><time>2026-03-24T16:57:30.022Z</time></trkpt><trkpt lat="46.10144489770633" lon="11.770423494148785"><ele>613.0</ele><time>2026-03-24T16:57:31.022Z</time></trkpt><trkpt lat="46.10128557473703" lon="11.770234528257905"><ele>613.0</ele><time>2026-03-24T16:57:32.021Z</time></trkpt><trkpt lat="46.099815555232006" lon="11.768496372415495"><ele>613.0</ele><time>2026-03-24T16:57:35.549Z</time></trkpt><trkpt lat="46.099399013505106" lon="11.768003417999806"><ele>613.0</ele><time>2026-03-24T16:57:36.548Z</time></trkpt><trkpt lat="46.09898740594029" lon="11.76750631452856"><ele>613.0</ele><time>2026-03-24T16:57:37.544Z</time></trkpt><trkpt lat="46.098571638354954" lon="11.767005865881778"><ele>613.0</ele><time>2026-03-24T16:57:38.549Z</time></trkpt><trkpt lat="46.09815850748326" lon="11.766508682872184"><ele>572.5</ele><time>2026-03-24T16:57:39.547Z</time></trkpt><trkpt lat="46.0980328" lon="11.7663574"><ele>532.0</ele><time>2026-03-24T16:57:40.547Z</time></trkpt><trkpt lat="46.09335104007841" lon="11.761531876411066"><ele>515.0</ele><time>2026-03-24T16:58:16.998Z</time></trkpt><trkpt lat="46.09293272856711" lon="11.761780011497125"><ele>515.0</ele><time>2026-03-24T16:58:17.998Z</time></trkpt><trkpt lat="46.09289768513156" lon="11.761529294230868"><ele>515.0</ele><time>2026-03-24T16:58:18.998Z</time></trkpt><trkpt lat="46.09270746111947" lon="11.761585355402627"><ele>515.0</ele><time>2026-03-24T16:58:19.998Z</time></trkpt><trkpt lat="46.09252009194642" lon="11.761652035810876"><ele>506.0</ele><time>2026-03-24T16:58:20.998Z</time></trkpt><trkpt lat="46.09233169555563" lon="11.761716685517369"><ele>497.0</ele><time>2026-03-24T16:58:21.998Z</time></trkpt><trkpt lat="46.092132953071115" lon="11.761812863550976"><ele>488.0</ele><time>2026-03-24T16:58:23Z</time></trkpt><trkpt lat="46.091917290585855" lon="11.761900852829866"><ele>497.0</ele><time>2026-03-24T16:58:24Z</time></trkpt><trkpt lat="46.09169790069698" lon="11.761987262747061"><ele>506.0</ele><time>2026-03-24T16:58:25.016Z</time></trkpt><trkpt lat="46.09148428890687" lon="11.762070004817938"><ele>515.0</ele><time>2026-03-24T16:58:26.022Z</time></trkpt><trkpt lat="46.0912800708155" lon="11.762158403835455"><ele>515.0</ele><time>2026-03-24T16:58:27.014Z</time></trkpt><trkpt lat="46.09107125089887" lon="11.762279121020397"><ele>515.0</ele><time>2026-03-24T16:58:28.016Z</time></trkpt><trkpt lat="46.09084679386204" lon="11.762398086765668"><ele>493.0</ele><time>2026-03-24T16:58:29.024Z</time></trkpt><trkpt lat="46.083947466729285" lon="11.764002777647006"><ele>493.0</ele><time>2026-03-24T16:59:07Z</time></trkpt><trkpt lat="46.083652379334815" lon="11.764185465365722"><ele>493.0</ele><time>2026-03-24T16:59:09Z</time></trkpt><trkpt lat="46.08372595245351" lon="11.764412534667278"><ele>498.0</ele><time>2026-03-24T16:59:10Z</time></trkpt><trkpt lat="46.08363596247225" lon="11.764455035452611"><ele>502.99999999999994</ele><time>2026-03-24T16:59:11Z</time></trkpt><trkpt lat="46.08357670780706" lon="11.76454664113697"><ele>507.99999999999994</ele><time>2026-03-24T16:59:12Z</time></trkpt><trkpt lat="46.08352111908393" lon="11.764625327772572"><ele>513.0</ele><time>2026-03-24T16:59:13Z</time></trkpt><trkpt lat="46.0834557224063" lon="11.764674271257228"><ele>518.0</ele><time>2026-03-24T16:59:14.02Z</time></trkpt><trkpt lat="46.0758352932018" lon="11.764756646018256"><ele>518.0</ele><time>2026-03-24T16:59:51.999Z</time></trkpt><trkpt lat="46.07565199587431" lon="11.764797884790648"><ele>518.0</ele><time>2026-03-24T16:59:52.999Z</time></trkpt><trkpt lat="46.07545489177556" lon="11.764662608779282"><ele>518.0</ele><time>2026-03-24T16:59:53.999Z</time></trkpt><trkpt lat="46.0753246893848" lon="11.7645269381338"><ele>518.0</ele><time>2026-03-24T16:59:54.999Z</time></trkpt><trkpt lat="46.075167158069746" lon="11.764392549012546"><ele>518.0</ele><time>2026-03-24T16:59:55.999Z</time></trkpt><trkpt lat="46.075054481079896" lon="11.764238559778754"><ele>518.0</ele><time>2026-03-24T16:59:56.999Z</time></trkpt><trkpt lat="46.074964516410255" lon="11.7640528829978"><ele>514.3333333333333</ele><time>2026-03-24T16:59:57.999Z</time></trkpt><trkpt lat="46.07487766676715" lon="11.76388418176102"><ele>510.66666666666663</ele><time>2026-03-24T16:59:58.999Z</time></trkpt><trkpt lat="46.07477141483094" lon="11.763742526146494"><ele>507.0</ele><time>2026-03-24T16:59:59.999Z</time></trkpt><trkpt lat="46.074660475934216" lon="11.763577024216069"><ele>497.5</ele><time>2026-03-24T17:00:00.999Z</time></trkpt><trkpt lat="46.07453152942759" lon="11.76343421965823"><ele>488.0</ele><time>2026-03-24T17:00:01.999Z</time></trkpt><trkpt lat="46.07439599038722" lon="11.76335672617775"><ele>478.5</ele><time>2026-03-24T17:00:02.999Z</time></trkpt><trkpt lat="46.074257261278476" lon="11.763362949743124"><ele>469.0</ele><time>2026-03-24T17:00:03.999Z</time></trkpt><trkpt lat="46.07408787210735" lon="11.763401193384157"><ele>469.0</ele><time>2026-03-24T17:00:04.999Z</time></trkpt><trkpt lat="46.07391003212569" lon="11.763415130386786"><ele>469.0</ele><time>2026-03-24T17:00:05.999Z</time></trkpt><trkpt lat="46.07374797604719" lon="11.763420721756678"><ele>469.0</ele><time>2026-03-24T17:00:06.999Z</time></trkpt><trkpt lat="46.073587088942" lon="11.763463834039413"><ele>469.0</ele><time>2026-03-24T17:00:07.999Z</time></trkpt><trkpt lat="46.07345285413846" lon="11.76345248755338"><ele>469.0</ele><time>2026-03-24T17:00:08.999Z</time></trkpt><trkpt lat="46.07332374884684" lon="11.76343896605699"><ele>469.0</ele><time>2026-03-24T17:00:09.999Z</time></trkpt><trkpt lat="46.07319947533256" lon="11.763350044464742"><ele>469.0</ele><time>2026-03-24T17:00:10.999Z</time></trkpt><trkpt lat="46.0731070845601" lon="11.763190450609436"><ele>477.33333333333337</ele><time>2026-03-24T17:00:11.999Z</time></trkpt><trkpt lat="46.072993000414144" lon="11.763055591456455"><ele>485.66666666666663</ele><time>2026-03-24T17:00:12.999Z</time></trkpt><trkpt lat="46.072857614180975" lon="11.762929738076556"><ele>494.0</ele><time>2026-03-24T17:00:13.999Z</time></trkpt><trkpt lat="46.07268991206582" lon="11.762782199174465"><ele>483.3333333333333</ele><time>2026-03-24T17:00:14.998Z</time></trkpt><trkpt lat="46.0725158935879" lon="11.762649009145974"><ele>472.66666666666663</ele><time>2026-03-24T17:00:15.998Z</time></trkpt><trkpt lat="46.07234165421956" lon="11.762513776563155"><ele>462.0</ele><time>2026-03-24T17:00:16.998Z</time></trkpt><trkpt lat="46.072194826616624" lon="11.76243713396383"><ele>462.0</ele><time>2026-03-24T17:00:17.998Z</time></trkpt><trkpt lat="46.07204901105527" lon="11.762338851047605"><ele>462.0</ele><time>2026-03-24T17:00:18.998Z</time></trkpt><trkpt lat="46.07191172492467" lon="11.762254313622126"><ele>462.0</ele><time>2026-03-24T17:00:19.998Z</time></trkpt><trkpt lat="46.07178503319839" lon="11.762167127330946"><ele>462.0</ele><time>2026-03-24T17:00:20.998Z</time></trkpt><trkpt lat="46.0716363338291" lon="11.762142967449055"><ele>462.0</ele><time>2026-03-24T17:00:21.998Z</time></trkpt><trkpt lat="46.0714761636955" lon="11.762107606554965"><ele>462.0</ele><time>2026-03-24T17:00:22.998Z</time></trkpt><trkpt lat="46.07132690330074" lon="11.76204954473405"><ele>464.5</ele><time>2026-03-24T17:00:23.998Z</time></trkpt><trkpt lat="46.07119940120147" lon="11.76195875418975"><ele>467.0</ele><time>2026-03-24T17:00:24.998Z</time></trkpt><trkpt lat="46.07107836235704" lon="11.761865078004107"><ele>469.5</ele><time>2026-03-24T17:00:25.998Z</time></trkpt><trkpt lat="46.07095238614886" lon="11.761812238903945"><ele>472.0</ele><time>2026-03-24T17:00:26.998Z</time></trkpt><trkpt lat="46.070805186852944" lon="11.761807196381815"><ele>468.0</ele><time>2026-03-24T17:00:27.998Z</time></trkpt><trkpt lat="46.070640124949136" lon="11.76187843487964"><ele>464.0</ele><time>2026-03-24T17:00:29Z</time></trkpt><trkpt lat="46.07046877823511" lon="11.761950762331406"><ele>460.0</ele><time>2026-03-24T17:00:30Z</time></trkpt><trkpt lat="46.07029278772126" lon="11.762075556725023"><ele>460.0</ele><time>2026-03-24T17:00:31Z</time></trkpt><trkpt lat="46.0700981474302" lon="11.762126504243893"><ele>460.0</ele><time>2026-03-24T17:00:32Z</time></trkpt><trkpt lat="46.069909293147596" lon="11.76217971435675"><ele>460.0</ele><time>2026-03-24T17:00:33Z</time></trkpt><trkpt lat="46.06973693086349" lon="11.762238544988163"><ele>451.6666666666667</ele><time>2026-03-24T17:00:34Z</time></trkpt><trkpt lat="46.06958179578674" lon="11.762319895916855"><ele>443.33333333333337</ele><time>2026-03-24T17:00:35Z</time></trkpt><trkpt lat="46.069433881180935" lon="11.762448459677092"><ele>435.0</ele><time>2026-03-24T17:00:36Z</time></trkpt><trkpt lat="46.069297600381844" lon="11.762600699468926"><ele>441.66666666666663</ele><time>2026-03-24T17:00:37Z</time></trkpt><trkpt lat="46.06915438086037" lon="11.76276189686352"><ele>448.3333333333333</ele><time>2026-03-24T17:00:38Z</time></trkpt><trkpt lat="46.06897235368761" lon="11.762931697128368"><ele>455.0</ele><time>2026-03-24T17:00:39Z</time></trkpt><trkpt lat="46.06877285869157" lon="11.763110568893513"><ele>455.0</ele><time>2026-03-24T17:00:40Z</time></trkpt><trkpt lat="46.068574410784294" lon="11.76330716839037"><ele>455.0</ele><time>2026-03-24T17:00:41Z</time></trkpt><trkpt lat="46.0683784511464" lon="11.763469632877898"><ele>462.0</ele><time>2026-03-24T17:00:42Z</time></trkpt><trkpt lat="46.068194443492395" lon="11.76366691910731"><ele>469.0</ele><time>2026-03-24T17:00:43Z</time></trkpt><trkpt lat="46.0679822599964" lon="11.763854623824614"><ele>469.0</ele><time>2026-03-24T17:00:44.013Z</time></trkpt><trkpt lat="46.067770594108715" lon="11.764043667653267"><ele>469.0</ele><time>2026-03-24T17:00:45.018Z</time></trkpt><trkpt lat="46.06756307559325" lon="11.764230717418865"><ele>485.5</ele><time>2026-03-24T17:00:46.014Z</time></trkpt><trkpt lat="46.06734479188517" lon="11.764381273202545"><ele>502.0</ele><time>2026-03-24T17:00:47.02Z</time></trkpt><trkpt lat="46.065805144315654" lon="11.764823377097281"><ele>509.0</ele><time>2026-03-24T17:00:50.541Z</time></trkpt><trkpt lat="46.06535592040671" lon="11.76476104590157"><ele>474.0</ele><time>2026-03-24T17:00:51.545Z</time></trkpt><trkpt lat="46.06491703521187" lon="11.764620113558186"><ele>474.0</ele><time>2026-03-24T17:00:52.545Z</time></trkpt><trkpt lat="46.06449115262105" lon="11.764412567454766"><ele>459.5</ele><time>2026-03-24T17:00:53.545Z</time></trkpt><trkpt lat="46.0642767" lon="11.764308"><ele>445.0</ele><time>2026-03-24T17:00:54.54Z</time></trkpt><trkpt lat="46.06274632275669" lon="11.763967657472717"><ele>445.0</ele><time>2026-03-24T17:01:13Z</time></trkpt><trkpt lat="46.062635542048035" lon="11.763931993471274"><ele>445.0</ele><time>2026-03-24T17:01:14Z</time></trkpt><trkpt lat="46.06251702448393" lon="11.76396194024464"><ele>445.0</ele><time>2026-03-24T17:01:15Z</time></trkpt><trkpt lat="46.06238854601054" lon="11.76394411310272"><ele>445.0</ele><time>2026-03-24T17:01:15.999Z</time></trkpt><trkpt lat="46.06227569074642" lon="11.763932950562086"><ele>445.0</ele><time>2026-03-24T17:01:16.999Z</time></trkpt><trkpt lat="46.0621757996724" lon="11.76390893176446"><ele>445.0</ele><time>2026-03-24T17:01:17.999Z</time></trkpt><trkpt lat="46.06208743762219" lon="11.763868634519904"><ele>445.0</ele><time>2026-03-24T17:01:18.999Z</time></trkpt><trkpt lat="46.062000166856194" lon="11.763810036139825"><ele>445.0</ele><time>2026-03-24T17:01:19.999Z</time></trkpt><trkpt lat="46.06189899863549" lon="11.763732838239358"><ele>445.0</ele><time>2026-03-24T17:01:20.999Z</time></trkpt><trkpt lat="46.061821261030296" lon="11.763648844959876"><ele>445.0</ele><time>2026-03-24T17:01:22.999Z</time></trkpt><trkpt lat="46.06173407387436" lon="11.763551355748382"><ele>445.0</ele><time>2026-03-24T17:01:24.999Z</time></trkpt><trkpt lat="46.061664449393085" lon="11.763476577697455"><ele>445.0</ele><time>2026-03-24T17:01:25.999Z</time></trkpt><trkpt lat="46.061586179571044" lon="11.763417568271285"><ele>445.0</ele><time>2026-03-24T17:01:26.999Z</time></trkpt><trkpt lat="46.06149099226945" lon="11.763361670684068"><ele>445.0</ele><time>2026-03-24T17:01:27.999Z</time></trkpt><trkpt lat="46.061387425573564" lon="11.763333393118774"><ele>439.83333333333337</ele><time>2026-03-24T17:01:28.999Z</time></trkpt><trkpt lat="46.06128822066511" lon="11.763327691566673"><ele>434.6666666666667</ele><time>2026-03-24T17:01:29.999Z</time></trkpt><trkpt lat="46.061186628025" lon="11.763346499942823"><ele>429.5</ele><time>2026-03-24T17:01:30.999Z</time></trkpt><trkpt lat="46.06110515374988" lon="11.763380490758548"><ele>424.33333333333337</ele><time>2026-03-24T17:01:31.999Z</time></trkpt><trkpt lat="46.0610321912759" lon="11.763418572669705"><ele>419.1666666666667</ele><time>2026-03-24T17:01:32.999Z</time></trkpt><trkpt lat="46.06097351285704" lon="11.763462474274792"><ele>414.0</ele><time>2026-03-24T17:01:33.999Z</time></trkpt><trkpt lat="46.060908997373545" lon="11.763490277759697"><ele>414.0</ele><time>2026-03-24T17:01:34.999Z</time></trkpt><trkpt lat="46.060802313423544" lon="11.76348943976386"><ele>414.0</ele><time>2026-03-24T17:01:36.999Z</time></trkpt><trkpt lat="46.060734137562385" lon="11.763403438757923"><ele>414.0</ele><time>2026-03-24T17:01:39.999Z</time></trkpt><trkpt lat="46.06069360422843" lon="11.763311225718123"><ele>414.0</ele><time>2026-03-24T17:01:40.999Z</time></trkpt><trkpt lat="46.060662448092295" lon="11.763188891549937"><ele>414.0</ele><time>2026-03-24T17:01:41.999Z</time></trkpt><trkpt lat="46.06062623309171" lon="11.763059067734886"><ele>414.0</ele><time>2026-03-24T17:01:42.999Z</time></trkpt><trkpt lat="46.06059111907196" lon="11.7629326817328"><ele>414.0</ele><time>2026-03-24T17:01:43.999Z</time></trkpt><trkpt lat="46.06056029597958" lon="11.762820023320156"><ele>414.0</ele><time>2026-03-24T17:01:44.999Z</time></trkpt><trkpt lat="46.06053328582276" lon="11.762721301238598"><ele>414.0</ele><time>2026-03-24T17:01:45.999Z</time></trkpt><trkpt lat="46.06050773391026" lon="11.762635054870637"><ele>414.0</ele><time>2026-03-24T17:01:46.999Z</time></trkpt><trkpt lat="46.06047027778047" lon="11.762553312606835"><ele>414.0</ele><time>2026-03-24T17:01:47.999Z</time></trkpt><trkpt lat="46.0604048438656" lon="11.762483607318131"><ele>420.75</ele><time>2026-03-24T17:01:48.999Z</time></trkpt><trkpt lat="46.06028709128428" lon="11.762486919013234"><ele>427.5</ele><time>2026-03-24T17:01:49.999Z</time></trkpt><trkpt lat="46.060164751647065" lon="11.762520726069576"><ele>434.25</ele><time>2026-03-24T17:01:50.999Z</time></trkpt><trkpt lat="46.06003471187701" lon="11.762573083247363"><ele>441.0</ele><time>2026-03-24T17:01:51.999Z</time></trkpt><trkpt lat="46.05990907191524" lon="11.762642073435885"><ele>438.25</ele><time>2026-03-24T17:01:52.999Z</time></trkpt><trkpt lat="46.059796094133404" lon="11.762708420722433"><ele>435.5</ele><time>2026-03-24T17:01:53.999Z</time></trkpt><trkpt lat="46.05968319509057" lon="11.762773929439089"><ele>432.75</ele><time>2026-03-24T17:01:54.999Z</time></trkpt><trkpt lat="46.059585113425605" lon="11.762857353029593"><ele>430.0</ele><time>2026-03-24T17:01:55.999Z</time></trkpt><trkpt lat="46.05948882062598" lon="11.762918489351701"><ele>430.0</ele><time>2026-03-24T17:01:56.999Z</time></trkpt><trkpt lat="46.05940968270036" lon="11.763007575575699"><ele>430.0</ele><time>2026-03-24T17:01:57.999Z</time></trkpt><trkpt lat="46.05934826770232" lon="11.763119303247624"><ele>430.0</ele><time>2026-03-24T17:01:58.999Z</time></trkpt><trkpt lat="46.059274148178574" lon="11.763212408423575"><ele>430.0</ele><time>2026-03-24T17:01:59.999Z</time></trkpt><trkpt lat="46.05920928819505" lon="11.763331875321931"><ele>430.0</ele><time>2026-03-24T17:02:00.999Z</time></trkpt><trkpt lat="46.05913665577543" lon="11.763473294090055"><ele>425.0</ele><time>2026-03-24T17:02:01.999Z</time></trkpt><trkpt lat="46.05909207704158" lon="11.763574382636861"><ele>420.0</ele><time>2026-03-24T17:02:02.999Z</time></trkpt><trkpt lat="46.05900903466031" lon="11.763640960538869"><ele>415.0</ele><time>2026-03-24T17:02:03.999Z</time></trkpt><trkpt lat="46.0589173323663" lon="11.76370004637115"><ele>410.0</ele><time>2026-03-24T17:02:04.999Z</time></trkpt><trkpt lat="46.05880917030297" lon="11.76372708333665"><ele>405.0</ele><time>2026-03-24T17:02:05.999Z</time></trkpt><trkpt lat="46.05870770133654" lon="11.763672587907672"><ele>405.0</ele><time>2026-03-24T17:02:06.999Z</time></trkpt><trkpt lat="46.05860211249701" lon="11.76363973592725"><ele>405.0</ele><time>2026-03-24T17:02:07.999Z</time></trkpt><trkpt lat="46.05848781809719" lon="11.763599402210193"><ele>405.0</ele><time>2026-03-24T17:02:08.999Z</time></trkpt><trkpt lat="46.05837486796092" lon="11.763551783118997"><ele>405.0</ele><time>2026-03-24T17:02:09.999Z</time></trkpt><trkpt lat="46.05826785387572" lon="11.763474470266106"><ele>406.0</ele><time>2026-03-24T17:02:10.998Z</time></trkpt><trkpt lat="46.058171813561664" lon="11.763385862313422"><ele>407.0</ele><time>2026-03-24T17:02:11.998Z</time></trkpt><trkpt lat="46.05810664993934" lon="11.7633021966415"><ele>408.0</ele><time>2026-03-24T17:02:12.998Z</time></trkpt><trkpt lat="46.05801876024629" lon="11.763212251645538"><ele>409.0</ele><time>2026-03-24T17:02:13.998Z</time></trkpt><trkpt lat="46.05792427897304" lon="11.763128391079373"><ele>410.0</ele><time>2026-03-24T17:02:14.998Z</time></trkpt><trkpt lat="46.05782957515557" lon="11.763053272413801"><ele>410.0</ele><time>2026-03-24T17:02:15.998Z</time></trkpt><trkpt lat="46.05772665926723" lon="11.7629841107836"><ele>410.0</ele><time>2026-03-24T17:02:16.998Z</time></trkpt><trkpt lat="46.05762479525334" lon="11.7629153786093"><ele>410.0</ele><time>2026-03-24T17:02:17.998Z</time></trkpt><trkpt lat="46.05751621743543" lon="11.762874171129813"><ele>410.0</ele><time>2026-03-24T17:02:18.998Z</time></trkpt><trkpt lat="46.05740948186804" lon="11.762832463238903"><ele>410.0</ele><time>2026-03-24T17:02:19.998Z</time></trkpt><trkpt lat="46.05730156967915" lon="11.762794069767017"><ele>408.25</ele><time>2026-03-24T17:02:20.998Z</time></trkpt><trkpt lat="46.057193901050674" lon="11.762752252096993"><ele>406.5</ele><time>2026-03-24T17:02:21.998Z</time></trkpt><trkpt lat="46.05707881642313" lon="11.762710638620224"><ele>404.75</ele><time>2026-03-24T17:02:22.998Z</time></trkpt><trkpt lat="46.05696410732613" lon="11.762666436627573"><ele>403.0</ele><time>2026-03-24T17:02:23.998Z</time></trkpt><trkpt lat="46.056834503392494" lon="11.762657950189379"><ele>404.5</ele><time>2026-03-24T17:02:24.998Z</time></trkpt><trkpt lat="46.0567012565573" lon="11.762674031530501"><ele>406.0</ele><time>2026-03-24T17:02:25.998Z</time></trkpt><trkpt lat="46.05656783461204" lon="11.762711720660876"><ele>407.5</ele><time>2026-03-24T17:02:26.998Z</time></trkpt><trkpt lat="46.05643251030674" lon="11.762782817458902"><ele>409.0</ele><time>2026-03-24T17:02:27.998Z</time></trkpt><trkpt lat="46.05630589625692" lon="11.762889560814342"><ele>409.0</ele><time>2026-03-24T17:02:28.998Z</time></trkpt><trkpt lat="46.05619056653626" lon="11.762969515856861"><ele>409.0</ele><time>2026-03-24T17:02:29.998Z</time></trkpt><trkpt lat="46.056079458803964" lon="11.76304213701882"><ele>409.0</ele><time>2026-03-24T17:02:30.998Z</time></trkpt><trkpt lat="46.05597820230176" lon="11.76309142793654"><ele>409.0</ele><time>2026-03-24T17:02:31.998Z</time></trkpt><trkpt lat="46.055890145198234" lon="11.763126216372429"><ele>409.0</ele><time>2026-03-24T17:02:32.998Z</time></trkpt><trkpt lat="46.05580529795913" lon="11.763138880958891"><ele>407.4</ele><time>2026-03-24T17:02:33.998Z</time></trkpt><trkpt lat="46.05570929373493" lon="11.763092160764927"><ele>405.79999999999995</ele><time>2026-03-24T17:02:35Z</time></trkpt><trkpt lat="46.05560439305464" lon="11.763064525151572"><ele>404.20000000000005</ele><time>2026-03-24T17:02:36Z</time></trkpt><trkpt lat="46.05551674204194" lon="11.76301811097736"><ele>402.6</ele><time>2026-03-24T17:02:37Z</time></trkpt><trkpt lat="46.055443865833425" lon="11.76297791714053"><ele>401.0</ele><time>2026-03-24T17:02:38Z</time></trkpt><trkpt lat="46.05536614493492" lon="11.762942509908042"><ele>401.0</ele><time>2026-03-24T17:02:39Z</time></trkpt><trkpt lat="46.055267073326526" lon="11.762896197419069"><ele>401.0</ele><time>2026-03-24T17:02:40Z</time></trkpt><trkpt lat="46.055165763337385" lon="11.76284866322073"><ele>401.0</ele><time>2026-03-24T17:02:41Z</time></trkpt><trkpt lat="46.055071693988495" lon="11.76277789512877"><ele>401.0</ele><time>2026-03-24T17:02:42Z</time></trkpt><trkpt lat="46.054986189793055" lon="11.762690736234852"><ele>401.0</ele><time>2026-03-24T17:02:43Z</time></trkpt><trkpt lat="46.05491500942676" lon="11.76257910211963"><ele>407.0</ele><time>2026-03-24T17:02:44Z</time></trkpt><trkpt lat="46.05484881155774" lon="11.762476140595192"><ele>413.0</ele><time>2026-03-24T17:02:45Z</time></trkpt><trkpt lat="46.054771771546974" lon="11.762412069184215"><ele>419.0</ele><time>2026-03-24T17:02:46Z</time></trkpt><trkpt lat="46.054684190667935" lon="11.762407325198602"><ele>425.0</ele><time>2026-03-24T17:02:47Z</time></trkpt><trkpt lat="46.05458211831991" lon="11.762424213767753"><ele>431.0</ele><time>2026-03-24T17:02:48Z</time></trkpt><trkpt lat="46.0544800011835" lon="11.762472031783762"><ele>431.0</ele><time>2026-03-24T17:02:49Z</time></trkpt><trkpt lat="46.054381321977" lon="11.762549188081357"><ele>431.0</ele><time>2026-03-24T17:02:50Z</time></trkpt><trkpt lat="46.054287131974185" lon="11.76265805583073"><ele>431.0</ele><time>2026-03-24T17:02:51Z</time></trkpt><trkpt lat="46.054206659752495" lon="11.76278865371006"><ele>431.0</ele><time>2026-03-24T17:02:52Z</time></trkpt><trkpt lat="46.054125117740355" lon="11.762891112870996"><ele>426.0</ele><time>2026-03-24T17:02:53Z</time></trkpt><trkpt lat="46.054002858944884" lon="11.762974513857271"><ele>421.0</ele><time>2026-03-24T17:02:54Z</time></trkpt><trkpt lat="46.05385693730086" lon="11.762989447993773"><ele>416.0</ele><time>2026-03-24T17:02:55Z</time></trkpt><trkpt lat="46.053718167118376" lon="11.76306783128184"><ele>411.0</ele><time>2026-03-24T17:02:56Z</time></trkpt><trkpt lat="46.053581384181015" lon="11.763148005918035"><ele>411.0</ele><time>2026-03-24T17:02:57Z</time></trkpt><trkpt lat="46.05343902475563" lon="11.763259026964418"><ele>411.0</ele><time>2026-03-24T17:02:58Z</time></trkpt><trkpt lat="46.05335703190841" lon="11.763361821962365"><ele>411.0</ele><time>2026-03-24T17:02:59Z</time></trkpt><trkpt lat="46.053247960740364" lon="11.763421765221832"><ele>411.0</ele><time>2026-03-24T17:03:00Z</time></trkpt><trkpt lat="46.053156627208566" lon="11.763481769798556"><ele>417.0</ele><time>2026-03-24T17:03:01Z</time></trkpt><trkpt lat="46.05304388769722" lon="11.763455003445085"><ele>423.0</ele><time>2026-03-24T17:03:02Z</time></trkpt><trkpt lat="46.052911427051306" lon="11.763428301818767"><ele>429.0</ele><time>2026-03-24T17:03:03Z</time></trkpt><trkpt lat="46.0527956746724" lon="11.763433302931261"><ele>435.0</ele><time>2026-03-24T17:03:04Z</time></trkpt><trkpt lat="46.05266814084596" lon="11.763443993211457"><ele>435.0</ele><time>2026-03-24T17:03:05Z</time></trkpt><trkpt lat="46.05255968210418" lon="11.763404289793083"><ele>435.0</ele><time>2026-03-24T17:03:06Z</time></trkpt><trkpt lat="46.05245925432747" lon="11.763385205168166"><ele>435.0</ele><time>2026-03-24T17:03:07Z</time></trkpt><trkpt lat="46.052371908377125" lon="11.763361867972737"><ele>435.0</ele><time>2026-03-24T17:03:08Z</time></trkpt><trkpt lat="46.05227961662063" lon="11.76336175109156"><ele>435.0</ele><time>2026-03-24T17:03:09Z</time></trkpt><trkpt lat="46.05217245814394" lon="11.76342537255406"><ele>434.25</ele><time>2026-03-24T17:03:10Z</time></trkpt><trkpt lat="46.05206992628775" lon="11.763494961580587"><ele>433.5</ele><time>2026-03-24T17:03:11Z</time></trkpt><trkpt lat="46.051977220445146" lon="11.76358434947894"><ele>432.75</ele><time>2026-03-24T17:03:12Z</time></trkpt><trkpt lat="46.05188090348373" lon="11.76366373336533"><ele>432.0</ele><time>2026-03-24T17:03:13Z</time></trkpt><trkpt lat="46.0517650384061" lon="11.763783002412037"><ele>426.25</ele><time>2026-03-24T17:03:14Z</time></trkpt><trkpt lat="46.05164037769632" lon="11.763805876310132"><ele>420.5</ele><time>2026-03-24T17:03:15Z</time></trkpt><trkpt lat="46.05153167731637" lon="11.763723870792697"><ele>414.75</ele><time>2026-03-24T17:03:16Z</time></trkpt><trkpt lat="46.051425961794024" lon="11.763686463118065"><ele>409.0</ele><time>2026-03-24T17:03:17Z</time></trkpt><trkpt lat="46.05135867434912" lon="11.763566646603278"><ele>411.25</ele><time>2026-03-24T17:03:18Z</time></trkpt><trkpt lat="46.05127857138588" lon="11.763431113846735"><ele>413.5</ele><time>2026-03-24T17:03:18.999Z</time></trkpt><trkpt lat="46.0511889572578" lon="11.763332701500893"><ele>415.75</ele><time>2026-03-24T17:03:19.999Z</time></trkpt><trkpt lat="46.05109583917343" lon="11.763264861629304"><ele>418.0</ele><time>2026-03-24T17:03:20.999Z</time></trkpt><trkpt lat="46.05098821004427" lon="11.763202361822481"><ele>418.0</ele><time>2026-03-24T17:03:21.999Z</time></trkpt><trkpt lat="46.05088273720643" lon="11.763145723738129"><ele>418.0</ele><time>2026-03-24T17:03:22.999Z</time></trkpt><trkpt lat="46.05076088107225" lon="11.763085515182118"><ele>418.0</ele><time>2026-03-24T17:03:23.999Z</time></trkpt><trkpt lat="46.050667180907205" lon="11.763004879295089"><ele>418.0</ele><time>2026-03-24T17:03:24.999Z</time></trkpt><trkpt lat="46.050559256988926" lon="11.762919373521184"><ele>421.5</ele><time>2026-03-24T17:03:25.999Z</time></trkpt><trkpt lat="46.05045375907018" lon="11.762831583021809"><ele>425.0</ele><time>2026-03-24T17:03:26.999Z</time></trkpt><trkpt lat="46.05034789085691" lon="11.762740472623832"><ele>428.5</ele><time>2026-03-24T17:03:27.999Z</time></trkpt><trkpt lat="46.05023486478077" lon="11.762660205506458"><ele>432.0</ele><time>2026-03-24T17:03:28.999Z</time></trkpt><trkpt lat="46.050109116528155" lon="11.762591751992607"><ele>432.0</ele><time>2026-03-24T17:03:29.999Z</time></trkpt><trkpt lat="46.04998103628932" lon="11.762540591943182"><ele>432.0</ele><time>2026-03-24T17:03:30.999Z</time></trkpt><trkpt lat="46.04984421516353" lon="11.762523835685975"><ele>432.0</ele><time>2026-03-24T17:03:31.999Z</time></trkpt><trkpt lat="46.04970011489301" lon="11.762540014012131"><ele>432.0</ele><time>2026-03-24T17:03:32.999Z</time></trkpt><trkpt lat="46.04953650054838" lon="11.762527513528658"><ele>429.66666666666663</ele><time>2026-03-24T17:03:33.999Z</time></trkpt><trkpt lat="46.049353909770545" lon="11.762536704799146"><ele>427.3333333333333</ele><time>2026-03-24T17:03:34.999Z</time></trkpt><trkpt lat="46.049170584179876" lon="11.762543960233314"><ele>425.0</ele><time>2026-03-24T17:03:35.999Z</time></trkpt><trkpt lat="46.04899522740587" lon="11.762556661555452"><ele>418.66666666666663</ele><time>2026-03-24T17:03:36.999Z</time></trkpt><trkpt lat="46.04882795590521" lon="11.762583016688358"><ele>412.33333333333337</ele><time>2026-03-24T17:03:37.999Z</time></trkpt><trkpt lat="46.04865920784072" lon="11.76261596748988"><ele>406.0</ele><time>2026-03-24T17:03:38.999Z</time></trkpt><trkpt lat="46.04850530241683" lon="11.762635162430064"><ele>406.0</ele><time>2026-03-24T17:03:39.999Z</time></trkpt><trkpt lat="46.0483531293213" lon="11.762617074550612"><ele>406.0</ele><time>2026-03-24T17:03:40.999Z</time></trkpt><trkpt lat="46.04824180488595" lon="11.762545217334997"><ele>406.0</ele><time>2026-03-24T17:03:41.999Z</time></trkpt><trkpt lat="46.048123070290735" lon="11.762443590847823"><ele>406.0</ele><time>2026-03-24T17:03:42.999Z</time></trkpt><trkpt lat="46.04800005957696" lon="11.762319913081885"><ele>400.6666666666667</ele><time>2026-03-24T17:03:43.999Z</time></trkpt><trkpt lat="46.047869353145494" lon="11.762187129563625"><ele>395.33333333333337</ele><time>2026-03-24T17:03:44.999Z</time></trkpt><trkpt lat="46.04773522625708" lon="11.7620691850559"><ele>390.0</ele><time>2026-03-24T17:03:45.999Z</time></trkpt><trkpt lat="46.04758900605122" lon="11.761976242422229"><ele>398.33333333333337</ele><time>2026-03-24T17:03:46.999Z</time></trkpt><trkpt lat="46.047449971961235" lon="11.761847583289084"><ele>406.6666666666667</ele><time>2026-03-24T17:03:47.999Z</time></trkpt><trkpt lat="46.04730929137034" lon="11.761744761526987"><ele>415.0</ele><time>2026-03-24T17:03:48.999Z</time></trkpt><trkpt lat="46.0471858906698" lon="11.761653181036715"><ele>415.0</ele><time>2026-03-24T17:03:49.999Z</time></trkpt><trkpt lat="46.04705640906512" lon="11.761554900544137"><ele>415.0</ele><time>2026-03-24T17:03:50.999Z</time></trkpt><trkpt lat="46.04689356103019" lon="11.761492360268077"><ele>415.0</ele><time>2026-03-24T17:03:51.999Z</time></trkpt><trkpt lat="46.046723962026924" lon="11.761467506350273"><ele>409.33333333333337</ele><time>2026-03-24T17:03:52.999Z</time></trkpt><trkpt lat="46.04654538523341" lon="11.761459650451554"><ele>403.66666666666663</ele><time>2026-03-24T17:03:53.999Z</time></trkpt><trkpt lat="46.046372442706165" lon="11.761450420021925"><ele>398.0</ele><time>2026-03-24T17:03:54.999Z</time></trkpt><trkpt lat="46.04620710603854" lon="11.76143784377312"><ele>398.0</ele><time>2026-03-24T17:03:55.999Z</time></trkpt><trkpt lat="46.04604944716942" lon="11.76142493525414"><ele>398.0</ele><time>2026-03-24T17:03:56.999Z</time></trkpt><trkpt lat="46.04590066576543" lon="11.761412321813191"><ele>398.0</ele><time>2026-03-24T17:03:57.999Z</time></trkpt><trkpt lat="46.045758284565764" lon="11.761399091700556"><ele>400.0</ele><time>2026-03-24T17:03:58.999Z</time></trkpt><trkpt lat="46.0456232340155" lon="11.761386241853161"><ele>402.0</ele><time>2026-03-24T17:03:59.999Z</time></trkpt><trkpt lat="46.04549489533228" lon="11.761373436749562"><ele>404.0</ele><time>2026-03-24T17:04:00.999Z</time></trkpt><trkpt lat="46.045376369450324" lon="11.761364873311026"><ele>406.0</ele><time>2026-03-24T17:04:01.999Z</time></trkpt><trkpt lat="46.04526092873607" lon="11.76136450706753"><ele>406.0</ele><time>2026-03-24T17:04:02.999Z</time></trkpt><trkpt lat="46.045124189084746" lon="11.761341363622206"><ele>406.0</ele><time>2026-03-24T17:04:03.999Z</time></trkpt><trkpt lat="46.04500551328274" lon="11.761345887596413"><ele>406.0</ele><time>2026-03-24T17:04:04.999Z</time></trkpt><trkpt lat="46.044875942785154" lon="11.761406300530393"><ele>406.0</ele><time>2026-03-24T17:04:05.999Z</time></trkpt><trkpt lat="46.04473936501506" lon="11.76146964063977"><ele>409.0</ele><time>2026-03-24T17:04:06.999Z</time></trkpt><trkpt lat="46.04459775777672" lon="11.761533085524869"><ele>412.0</ele><time>2026-03-24T17:04:07.999Z</time></trkpt><trkpt lat="46.04444802244557" lon="11.761594880114355"><ele>415.0</ele><time>2026-03-24T17:04:08.999Z</time></trkpt><trkpt lat="46.04428430701612" lon="11.761666424795274"><ele>415.33333333333337</ele><time>2026-03-24T17:04:09.999Z</time></trkpt><trkpt lat="46.04412220063489" lon="11.761738028026372"><ele>415.66666666666663</ele><time>2026-03-24T17:04:10.999Z</time></trkpt><trkpt lat="46.04395652597692" lon="11.761813605682423"><ele>416.0</ele><time>2026-03-24T17:04:11.999Z</time></trkpt><trkpt lat="46.043788923169316" lon="11.761909618266687"><ele>416.0</ele><time>2026-03-24T17:04:12.999Z</time></trkpt><trkpt lat="46.04360911128972" lon="11.762060634705943"><ele>416.0</ele><time>2026-03-24T17:04:13.998Z</time></trkpt><trkpt lat="46.04341229673209" lon="11.762214902496352"><ele>416.0</ele><time>2026-03-24T17:04:14.998Z</time></trkpt><trkpt lat="46.04321886172734" lon="11.762293933711607"><ele>433.66666666666663</ele><time>2026-03-24T17:04:15.998Z</time></trkpt><trkpt lat="46.04302488471387" lon="11.762384674585414"><ele>451.33333333333337</ele><time>2026-03-24T17:04:17.017Z</time></trkpt><trkpt lat="46.042831954769206" lon="11.762476804431865"><ele>469.0</ele><time>2026-03-24T17:04:18.02Z</time></trkpt><trkpt lat="46.042642106825454" lon="11.762569085083971"><ele>477.5</ele><time>2026-03-24T17:04:19.021Z</time></trkpt><trkpt lat="46.04245068704799" lon="11.762659530519496"><ele>486.0</ele><time>2026-03-24T17:04:20.016Z</time></trkpt><trkpt lat="46.04060545282698" lon="11.763937437812817"><ele>468.0</ele><time>2026-03-24T17:04:31.122Z</time></trkpt><trkpt lat="46.040033586366135" lon="11.763423085223662"><ele>462.33333333333337</ele><time>2026-03-24T17:04:35.998Z</time></trkpt><trkpt lat="46.03986721064009" lon="11.763457026510391"><ele>456.6666666666667</ele><time>2026-03-24T17:04:36.998Z</time></trkpt><trkpt lat="46.03964848845684" lon="11.76355836418788"><ele>451.0</ele><time>2026-03-24T17:04:37.998Z</time></trkpt><trkpt lat="46.03948725114615" lon="11.763587496450754"><ele>438.6666666666667</ele><time>2026-03-24T17:04:38.998Z</time></trkpt><trkpt lat="46.03930774658163" lon="11.76362918845899"><ele>426.33333333333337</ele><time>2026-03-24T17:04:39.998Z</time></trkpt><trkpt lat="46.039127162847024" lon="11.763670211112418"><ele>414.0</ele><time>2026-03-24T17:04:41.015Z</time></trkpt><trkpt lat="46.0385199403819" lon="11.763741849001276"><ele>408.75</ele><time>2026-03-24T17:04:45.998Z</time></trkpt><trkpt lat="46.03839868541893" lon="11.763732224327438"><ele>403.5</ele><time>2026-03-24T17:04:47Z</time></trkpt><trkpt lat="46.03830892310516" lon="11.763658252082083"><ele>398.25</ele><time>2026-03-24T17:04:48Z</time></trkpt><trkpt lat="46.03820481094347" lon="11.763550199614867"><ele>393.0</ele><time>2026-03-24T17:04:49Z</time></trkpt><trkpt lat="46.03812989445766" lon="11.76345172101193"><ele>391.0</ele><time>2026-03-24T17:04:50Z</time></trkpt><trkpt lat="46.03805031885463" lon="11.763191641785887"><ele>389.0</ele><time>2026-03-24T17:04:51Z</time></trkpt><trkpt lat="46.03793195027848" lon="11.763104681819879"><ele>387.0</ele><time>2026-03-24T17:04:52Z</time></trkpt><trkpt lat="46.037860921791605" lon="11.762920228776867"><ele>387.0</ele><time>2026-03-24T17:04:53Z</time></trkpt><trkpt lat="46.037762675984474" lon="11.762735843710468"><ele>387.0</ele><time>2026-03-24T17:04:54Z</time></trkpt><trkpt lat="46.03759801790068" lon="11.762580643493"><ele>387.0</ele><time>2026-03-24T17:04:55Z</time></trkpt><trkpt lat="46.037446191071034" lon="11.762448372364"><ele>387.5</ele><time>2026-03-24T17:04:56Z</time></trkpt><trkpt lat="46.03729356371404" lon="11.762329928015115"><ele>388.0</ele><time>2026-03-24T17:04:57Z</time></trkpt><trkpt lat="46.037179203317564" lon="11.762298030492364"><ele>388.5</ele><time>2026-03-24T17:04:58Z</time></trkpt><trkpt lat="46.03712760505952" lon="11.762218714024879"><ele>389.0</ele><time>2026-03-24T17:04:59Z</time></trkpt><trkpt lat="46.03706128475501" lon="11.762109464238312"><ele>389.0</ele><time>2026-03-24T17:05:00Z</time></trkpt><trkpt lat="46.03699915678202" lon="11.762009184865436"><ele>389.0</ele><time>2026-03-24T17:05:01Z</time></trkpt><trkpt lat="46.03687927964314" lon="11.761837183175455"><ele>389.0</ele><time>2026-03-24T17:05:02Z</time></trkpt><trkpt lat="46.03676368247784" lon="11.76168164143554"><ele>389.0</ele><time>2026-03-24T17:05:03Z</time></trkpt><trkpt lat="46.03658057097824" lon="11.761528935258593"><ele>391.0</ele><time>2026-03-24T17:05:04Z</time></trkpt><trkpt lat="46.036407440653484" lon="11.761462894928888"><ele>393.0</ele><time>2026-03-24T17:05:05Z</time></trkpt><trkpt lat="46.036220954300425" lon="11.761390002487644"><ele>395.0</ele><time>2026-03-24T17:05:06Z</time></trkpt><trkpt lat="46.03602069224879" lon="11.761315453676074"><ele>395.0</ele><time>2026-03-24T17:05:07Z</time></trkpt><trkpt lat="46.03582133470565" lon="11.761287157933383"><ele>395.0</ele><time>2026-03-24T17:05:08Z</time></trkpt><trkpt lat="46.03561723744314" lon="11.76122331920756"><ele>395.0</ele><time>2026-03-24T17:05:09Z</time></trkpt><trkpt lat="46.035418842590836" lon="11.761151094926513"><ele>396.66666666666663</ele><time>2026-03-24T17:05:10Z</time></trkpt><trkpt lat="46.03521873735353" lon="11.761073335522228"><ele>398.33333333333337</ele><time>2026-03-24T17:05:11.014Z</time></trkpt><trkpt lat="46.03502233277489" lon="11.760993499477626"><ele>400.0</ele><time>2026-03-24T17:05:12.02Z</time></trkpt><trkpt lat="46.0348240836743" lon="11.760902109520481"><ele>411.6666666666667</ele><time>2026-03-24T17:05:13.018Z</time></trkpt><trkpt lat="46.03462859411547" lon="11.760822775076115"><ele>423.33333333333337</ele><time>2026-03-24T17:05:14.021Z</time></trkpt><trkpt lat="46.03443479132414" lon="11.760823779074839"><ele>435.0</ele><time>2026-03-24T17:05:15.018Z</time></trkpt><trkpt lat="46.03387735614489" lon="11.76065406100752"><ele>393.0</ele><time>2026-03-24T17:05:20Z</time></trkpt><trkpt lat="46.03367316709939" lon="11.761267208814683"><ele>393.0</ele><time>2026-03-24T17:05:21Z</time></trkpt><trkpt lat="46.03348319655118" lon="11.761338541034334"><ele>393.0</ele><time>2026-03-24T17:05:22Z</time></trkpt><trkpt lat="46.03332333856014" lon="11.761417385595541"><ele>393.0</ele><time>2026-03-24T17:05:23Z</time></trkpt><trkpt lat="46.03317019027306" lon="11.761487642563644"><ele>393.25</ele><time>2026-03-24T17:05:24Z</time></trkpt><trkpt lat="46.0330264044195" lon="11.761543961016708"><ele>393.5</ele><time>2026-03-24T17:05:25Z</time></trkpt><trkpt lat="46.032885056072125" lon="11.76157706606458"><ele>393.75</ele><time>2026-03-24T17:05:26Z</time></trkpt><trkpt lat="46.03274710297187" lon="11.76160512267507"><ele>394.0</ele><time>2026-03-24T17:05:27Z</time></trkpt><trkpt lat="46.032619785984345" lon="11.761633572454445"><ele>394.0</ele><time>2026-03-24T17:05:28Z</time></trkpt><trkpt lat="46.03251151682239" lon="11.761658060352962"><ele>394.0</ele><time>2026-03-24T17:05:28.999Z</time></trkpt><trkpt lat="46.0324124380316" lon="11.761692140834876"><ele>394.0</ele><time>2026-03-24T17:05:29.999Z</time></trkpt><trkpt lat="46.03231933760255" lon="11.761685130253998"><ele>394.0</ele><time>2026-03-24T17:05:30.999Z</time></trkpt><trkpt lat="46.03223390930642" lon="11.761660672849208"><ele>394.0</ele><time>2026-03-24T17:05:31.999Z</time></trkpt><trkpt lat="46.03215876094079" lon="11.761583598638133"><ele>394.1666666666667</ele><time>2026-03-24T17:05:32.999Z</time></trkpt><trkpt lat="46.032072862937" lon="11.761542681701785"><ele>394.33333333333337</ele><time>2026-03-24T17:05:33.999Z</time></trkpt><trkpt lat="46.03200167874088" lon="11.761554525301657"><ele>394.5</ele><time>2026-03-24T17:05:34.999Z</time></trkpt><trkpt lat="46.03193526730983" lon="11.761615147301777"><ele>394.66666666666663</ele><time>2026-03-24T17:05:35.999Z</time></trkpt><trkpt lat="46.03188815204711" lon="11.76172338672277"><ele>394.8333333333333</ele><time>2026-03-24T17:05:36.999Z</time></trkpt><trkpt lat="46.031851154034136" lon="11.76185058640377"><ele>395.0</ele><time>2026-03-24T17:05:37.999Z</time></trkpt><trkpt lat="46.03179838561421" lon="11.761970236698005"><ele>392.5</ele><time>2026-03-24T17:05:38.999Z</time></trkpt><trkpt lat="46.03171179610213" lon="11.762026779686012"><ele>390.0</ele><time>2026-03-24T17:05:39.999Z</time></trkpt><trkpt lat="46.031598718746" lon="11.76210209658766"><ele>387.5</ele><time>2026-03-24T17:05:40.999Z</time></trkpt><trkpt lat="46.031476846476174" lon="11.76218599084529"><ele>385.0</ele><time>2026-03-24T17:05:41.999Z</time></trkpt><trkpt lat="46.03135352644957" lon="11.76225128614089"><ele>385.0</ele><time>2026-03-24T17:05:42.999Z</time></trkpt><trkpt lat="46.03121274915959" lon="11.76228471951387"><ele>385.0</ele><time>2026-03-24T17:05:43.999Z</time></trkpt><trkpt lat="46.03107489715474" lon="11.762341236549217"><ele>385.0</ele><time>2026-03-24T17:05:44.999Z</time></trkpt><trkpt lat="46.03093767150461" lon="11.762362890128623"><ele>385.0</ele><time>2026-03-24T17:05:45.999Z</time></trkpt><trkpt lat="46.0308225201189" lon="11.762396847740815"><ele>387.75</ele><time>2026-03-24T17:05:46.999Z</time></trkpt><trkpt lat="46.03071253167414" lon="11.762431417909749"><ele>390.5</ele><time>2026-03-24T17:05:47.999Z</time></trkpt><trkpt lat="46.030601402084045" lon="11.762471255303016"><ele>393.25</ele><time>2026-03-24T17:05:48.999Z</time></trkpt><trkpt lat="46.03048301448455" lon="11.76251538627334"><ele>396.0</ele><time>2026-03-24T17:05:49.999Z</time></trkpt><trkpt lat="46.03036185566626" lon="11.762556863401592"><ele>396.0</ele><time>2026-03-24T17:05:50.999Z</time></trkpt><trkpt lat="46.03024969362368" lon="11.762590981120903"><ele>396.0</ele><time>2026-03-24T17:05:51.999Z</time></trkpt><trkpt lat="46.03014756122355" lon="11.76262979060131"><ele>396.0</ele><time>2026-03-24T17:05:52.999Z</time></trkpt><trkpt lat="46.03005369660557" lon="11.762649260176866"><ele>396.0</ele><time>2026-03-24T17:05:53.999Z</time></trkpt><trkpt lat="46.02996410308669" lon="11.762683477934203"><ele>396.0</ele><time>2026-03-24T17:05:54.999Z</time></trkpt><trkpt lat="46.0298878604047" lon="11.762693476177095"><ele>392.3333333333333</ele><time>2026-03-24T17:05:55.999Z</time></trkpt><trkpt lat="46.029814469125455" lon="11.762712461520152"><ele>388.6666666666667</ele><time>2026-03-24T17:05:56.999Z</time></trkpt><trkpt lat="46.029747262235226" lon="11.762747624242401"><ele>385.0</ele><time>2026-03-24T17:05:57.999Z</time></trkpt><trkpt lat="46.02968523203249" lon="11.76279406644816"><ele>381.33333333333337</ele><time>2026-03-24T17:05:58.999Z</time></trkpt><trkpt lat="46.02963612759875" lon="11.76285731364376"><ele>377.6666666666667</ele><time>2026-03-24T17:05:59.999Z</time></trkpt><trkpt lat="46.02959557209885" lon="11.762993865197924"><ele>374.0</ele><time>2026-03-24T17:06:00.999Z</time></trkpt><trkpt lat="46.02957177572294" lon="11.763093386572445"><ele>374.0</ele><time>2026-03-24T17:06:01.999Z</time></trkpt><trkpt lat="46.02961756082016" lon="11.763231489073936"><ele>374.0</ele><time>2026-03-24T17:06:02.999Z</time></trkpt><trkpt lat="46.02964634031316" lon="11.76333887318383"><ele>374.0</ele><time>2026-03-24T17:06:03.999Z</time></trkpt><trkpt lat="46.02966598645958" lon="11.763503613679035"><ele>374.0</ele><time>2026-03-24T17:06:05.999Z</time></trkpt><trkpt lat="46.02965813485183" lon="11.763654058997064"><ele>374.0</ele><time>2026-03-24T17:06:07.999Z</time></trkpt><trkpt lat="46.02961017080986" lon="11.763802961205368"><ele>372.6</ele><time>2026-03-24T17:06:09.999Z</time></trkpt><trkpt lat="46.02951837032346" lon="11.763786199274463"><ele>371.2</ele><time>2026-03-24T17:06:10.999Z</time></trkpt><trkpt lat="46.029421402432234" lon="11.763789909594498"><ele>369.8</ele><time>2026-03-24T17:06:11.999Z</time></trkpt><trkpt lat="46.02930590141851" lon="11.763802251683622"><ele>368.40000000000003</ele><time>2026-03-24T17:06:12.999Z</time></trkpt><trkpt lat="46.02918250525642" lon="11.763844955314562"><ele>367.0</ele><time>2026-03-24T17:06:13.999Z</time></trkpt><trkpt lat="46.02906169891196" lon="11.76384550605206"><ele>367.0</ele><time>2026-03-24T17:06:14.999Z</time></trkpt><trkpt lat="46.02892871100788" lon="11.763899200001159"><ele>367.0</ele><time>2026-03-24T17:06:15.999Z</time></trkpt><trkpt lat="46.02881463704146" lon="11.763977782283344"><ele>367.0</ele><time>2026-03-24T17:06:16.999Z</time></trkpt><trkpt lat="46.02870775328081" lon="11.764070776109515"><ele>367.0</ele><time>2026-03-24T17:06:17.999Z</time></trkpt><trkpt lat="46.028605485026986" lon="11.764174344770186"><ele>367.0</ele><time>2026-03-24T17:06:18.999Z</time></trkpt><trkpt lat="46.02849880884015" lon="11.76430176815894"><ele>367.0</ele><time>2026-03-24T17:06:19.999Z</time></trkpt><trkpt lat="46.02838354662093" lon="11.764409655414628"><ele>367.0</ele><time>2026-03-24T17:06:20.999Z</time></trkpt><trkpt lat="46.028253048305466" lon="11.76453393502727"><ele>367.0</ele><time>2026-03-24T17:06:21.999Z</time></trkpt><trkpt lat="46.02814535386394" lon="11.76466027401779"><ele>377.0</ele><time>2026-03-24T17:06:22.999Z</time></trkpt><trkpt lat="46.02803939446458" lon="11.76473105923163"><ele>387.0</ele><time>2026-03-24T17:06:23.998Z</time></trkpt><trkpt lat="46.02794885653535" lon="11.764813016795646"><ele>397.0</ele><time>2026-03-24T17:06:24.998Z</time></trkpt><trkpt lat="46.02784928753014" lon="11.764900406921036"><ele>407.0</ele><time>2026-03-24T17:06:25.998Z</time></trkpt><trkpt lat="46.02774575623154" lon="11.764949633509897"><ele>417.0</ele><time>2026-03-24T17:06:26.998Z</time></trkpt><trkpt lat="46.02760713633096" lon="11.764983572809838"><ele>405.6666666666667</ele><time>2026-03-24T17:06:27.998Z</time></trkpt><trkpt lat="46.02744866152474" lon="11.764971916133197"><ele>394.33333333333337</ele><time>2026-03-24T17:06:28.998Z</time></trkpt><trkpt lat="46.027290052992676" lon="11.764956967515364"><ele>383.0</ele><time>2026-03-24T17:06:29.998Z</time></trkpt><trkpt lat="46.0271438506432" lon="11.764924771451527"><ele>383.0</ele><time>2026-03-24T17:06:30.998Z</time></trkpt><trkpt lat="46.027021497470294" lon="11.764899618201822"><ele>383.0</ele><time>2026-03-24T17:06:31.998Z</time></trkpt><trkpt lat="46.026893030615796" lon="11.764894306222867"><ele>383.0</ele><time>2026-03-24T17:06:32.998Z</time></trkpt><trkpt lat="46.0267568860436" lon="11.764981745425045"><ele>383.0</ele><time>2026-03-24T17:06:33.998Z</time></trkpt><trkpt lat="46.02661108739862" lon="11.765081192314671"><ele>381.5</ele><time>2026-03-24T17:06:34.998Z</time></trkpt><trkpt lat="46.02649054713216" lon="11.765192455241879"><ele>380.0</ele><time>2026-03-24T17:06:35.998Z</time></trkpt><trkpt lat="46.02636265501742" lon="11.7652413261335"><ele>378.5</ele><time>2026-03-24T17:06:36.998Z</time></trkpt><trkpt lat="46.02624225702464" lon="11.765277071540238"><ele>377.0</ele><time>2026-03-24T17:06:37.998Z</time></trkpt><trkpt lat="46.02608777603113" lon="11.765329465423378"><ele>380.33333333333337</ele><time>2026-03-24T17:06:38.998Z</time></trkpt><trkpt lat="46.025914420477335" lon="11.765418588417523"><ele>383.6666666666667</ele><time>2026-03-24T17:06:39.998Z</time></trkpt><trkpt lat="46.02574276532367" lon="11.765447486963335"><ele>387.0</ele><time>2026-03-24T17:06:40.998Z</time></trkpt><trkpt lat="46.025604365788965" lon="11.765497146649388"><ele>387.0</ele><time>2026-03-24T17:06:41.998Z</time></trkpt><trkpt lat="46.02548850373076" lon="11.765558558550012"><ele>387.0</ele><time>2026-03-24T17:06:42.998Z</time></trkpt><trkpt lat="46.02536198762827" lon="11.765638646696994"><ele>387.0</ele><time>2026-03-24T17:06:43.998Z</time></trkpt><trkpt lat="46.02523797655185" lon="11.765749156562562"><ele>387.0</ele><time>2026-03-24T17:06:44.998Z</time></trkpt><trkpt lat="46.025130850903956" lon="11.765919498433359"><ele>393.33333333333337</ele><time>2026-03-24T17:06:45.998Z</time></trkpt><trkpt lat="46.0250280431525" lon="11.7660984613131"><ele>399.6666666666667</ele><time>2026-03-24T17:06:46.998Z</time></trkpt><trkpt lat="46.02493529948434" lon="11.766291850251525"><ele>406.0</ele><time>2026-03-24T17:06:48.02Z</time></trkpt><trkpt lat="46.02485229802113" lon="11.766470144463018"><ele>406.0</ele><time>2026-03-24T17:06:49.018Z</time></trkpt><trkpt lat="46.02478220631538" lon="11.76661893700307"><ele>406.0</ele><time>2026-03-24T17:06:50.018Z</time></trkpt><trkpt lat="46.02473670784192" lon="11.76671552276663"><ele>406.0</ele><time>2026-03-24T17:06:51.018Z</time></trkpt><trkpt lat="46.02468986497261" lon="11.766814962096896"><ele>406.0</ele><time>2026-03-24T17:06:52.019Z</time></trkpt><trkpt lat="46.021843305831794" lon="11.7772021796664"><ele>368.5</ele><time>2026-03-24T17:07:25.997Z</time></trkpt><trkpt lat="46.02177849815012" lon="11.777538339921284"><ele>331.0</ele><time>2026-03-24T17:07:26.997Z</time></trkpt><trkpt lat="46.02176392859684" lon="11.777862045455434"><ele>330.75</ele><time>2026-03-24T17:07:27.997Z</time></trkpt><trkpt lat="46.02174478688581" lon="11.778044639273103"><ele>330.5</ele><time>2026-03-24T17:07:28.997Z</time></trkpt><trkpt lat="46.02169985395358" lon="11.778222183146568"><ele>330.25</ele><time>2026-03-24T17:07:29.997Z</time></trkpt><trkpt lat="46.02168376749483" lon="11.77839591912372"><ele>330.0</ele><time>2026-03-24T17:07:30.997Z</time></trkpt><trkpt lat="46.021591544354685" lon="11.778622367261226"><ele>328.0</ele><time>2026-03-24T17:07:32Z</time></trkpt><trkpt lat="46.02149890224506" lon="11.778841259920535"><ele>326.0</ele><time>2026-03-24T17:07:33Z</time></trkpt><trkpt lat="46.02138758604304" lon="11.779054678831152"><ele>324.0</ele><time>2026-03-24T17:07:34Z</time></trkpt><trkpt lat="46.02128466590282" lon="11.779315805267982"><ele>324.0</ele><time>2026-03-24T17:07:35Z</time></trkpt><trkpt lat="46.0211894604115" lon="11.779605205467902"><ele>324.0</ele><time>2026-03-24T17:07:36Z</time></trkpt><trkpt lat="46.02106055288002" lon="11.779897514673833"><ele>324.0</ele><time>2026-03-24T17:07:37Z</time></trkpt><trkpt lat="46.02092030659559" lon="11.780155035027576"><ele>324.0</ele><time>2026-03-24T17:07:38Z</time></trkpt><trkpt lat="46.02080140573122" lon="11.780483772702414"><ele>322.0</ele><time>2026-03-24T17:07:39Z</time></trkpt><trkpt lat="46.02067292722647" lon="11.780810790633849"><ele>320.0</ele><time>2026-03-24T17:07:40Z</time></trkpt><trkpt lat="46.020520324487116" lon="11.781132559114761"><ele>320.0</ele><time>2026-03-24T17:07:41Z</time></trkpt><trkpt lat="46.0203885397094" lon="11.781455384539216"><ele>320.0</ele><time>2026-03-24T17:07:42Z</time></trkpt><trkpt lat="46.020236247902396" lon="11.781781614378906"><ele>319.5</ele><time>2026-03-24T17:07:43Z</time></trkpt><trkpt lat="46.02009298539362" lon="11.782113444367937"><ele>319.0</ele><time>2026-03-24T17:07:44Z</time></trkpt><trkpt lat="46.019930183342176" lon="11.782446641190662"><ele>318.5</ele><time>2026-03-24T17:07:45Z</time></trkpt><trkpt lat="46.01976752957279" lon="11.782773454822294"><ele>318.0</ele><time>2026-03-24T17:07:46Z</time></trkpt><trkpt lat="46.01960202444263" lon="11.783091620920853"><ele>318.0</ele><time>2026-03-24T17:07:47Z</time></trkpt><trkpt lat="46.01943009600105" lon="11.783412550612965"><ele>318.0</ele><time>2026-03-24T17:07:48Z</time></trkpt><trkpt lat="46.019268468623174" lon="11.783737165976405"><ele>316.5</ele><time>2026-03-24T17:07:49Z</time></trkpt><trkpt lat="46.01909142658621" lon="11.784057327733631"><ele>315.0</ele><time>2026-03-24T17:07:50Z</time></trkpt><trkpt lat="46.01893086275738" lon="11.784373243637603"><ele>314.0</ele><time>2026-03-24T17:07:51Z</time></trkpt><trkpt lat="46.01877623966518" lon="11.784677470771525"><ele>313.0</ele><time>2026-03-24T17:07:52Z</time></trkpt><trkpt lat="46.018612394091036" lon="11.784999843505604"><ele>313.0</ele><time>2026-03-24T17:07:53Z</time></trkpt><trkpt lat="46.01844994194531" lon="11.785319711793472"><ele>313.0</ele><time>2026-03-24T17:07:54Z</time></trkpt><trkpt lat="46.01828870239909" lon="11.785637862965217"><ele>313.0</ele><time>2026-03-24T17:07:55Z</time></trkpt><trkpt lat="46.01812683369938" lon="11.78595725584136"><ele>313.0</ele><time>2026-03-24T17:07:56Z</time></trkpt><trkpt lat="46.017980092129996" lon="11.786280754670615"><ele>312.5</ele><time>2026-03-24T17:07:57Z</time></trkpt><trkpt lat="46.017822114661094" lon="11.786582232700791"><ele>312.0</ele><time>2026-03-24T17:07:58Z</time></trkpt><trkpt lat="46.01767062617591" lon="11.78687392246371"><ele>312.0</ele><time>2026-03-24T17:07:59Z</time></trkpt><trkpt lat="46.0175197181983" lon="11.78715150691539"><ele>312.0</ele><time>2026-03-24T17:08:00Z</time></trkpt><trkpt lat="46.01738279894547" lon="11.78745752155178"><ele>311.0</ele><time>2026-03-24T17:08:01Z</time></trkpt><trkpt lat="46.017223020127666" lon="11.787730882256376"><ele>310.0</ele><time>2026-03-24T17:08:02Z</time></trkpt><trkpt lat="46.01708240375444" lon="11.788005100674551"><ele>310.0</ele><time>2026-03-24T17:08:03Z</time></trkpt><trkpt lat="46.01696228002999" lon="11.788283187730931"><ele>310.0</ele><time>2026-03-24T17:08:04Z</time></trkpt><trkpt lat="46.01681439535368" lon="11.788563971404223"><ele>310.5</ele><time>2026-03-24T17:08:05Z</time></trkpt><trkpt lat="46.01667296697332" lon="11.788839982027083"><ele>311.0</ele><time>2026-03-24T17:08:06Z</time></trkpt><trkpt lat="46.01653064272895" lon="11.789119678429758"><ele>310.0</ele><time>2026-03-24T17:08:07Z</time></trkpt><trkpt lat="46.01638679838941" lon="11.789401472290656"><ele>309.0</ele><time>2026-03-24T17:08:08Z</time></trkpt><trkpt lat="46.01625491578573" lon="11.789668065540239"><ele>309.0</ele><time>2026-03-24T17:08:09Z</time></trkpt><trkpt lat="46.016126958443756" lon="11.789919816206163"><ele>309.0</ele><time>2026-03-24T17:08:09.999Z</time></trkpt><trkpt lat="46.015999289713086" lon="11.790165390358917"><ele>309.0</ele><time>2026-03-24T17:08:10.999Z</time></trkpt><trkpt lat="46.015875022550546" lon="11.790384823366658"><ele>309.0</ele><time>2026-03-24T17:08:11.999Z</time></trkpt><trkpt lat="46.015768478231294" lon="11.79062785110961"><ele>309.0</ele><time>2026-03-24T17:08:12.999Z</time></trkpt><trkpt lat="46.01565322308346" lon="11.790830974287779"><ele>309.0</ele><time>2026-03-24T17:08:13.999Z</time></trkpt><trkpt lat="46.01552284153298" lon="11.791000757765973"><ele>308.3333333333333</ele><time>2026-03-24T17:08:14.999Z</time></trkpt><trkpt lat="46.01538643597082" lon="11.791168472715613"><ele>307.66666666666663</ele><time>2026-03-24T17:08:15.999Z</time></trkpt><trkpt lat="46.01523504333297" lon="11.791318554271813"><ele>307.0</ele><time>2026-03-24T17:08:16.999Z</time></trkpt><trkpt lat="46.015071194130336" lon="11.79145171146873"><ele>307.0</ele><time>2026-03-24T17:08:17.999Z</time></trkpt><trkpt lat="46.01487005951785" lon="11.79157432259239"><ele>307.0</ele><time>2026-03-24T17:08:18.999Z</time></trkpt><trkpt lat="46.01466813425729" lon="11.791687379401981"><ele>307.0</ele><time>2026-03-24T17:08:19.999Z</time></trkpt><trkpt lat="46.01446111994374" lon="11.791827826583873"><ele>307.0</ele><time>2026-03-24T17:08:20.999Z</time></trkpt><trkpt lat="46.01424455785065" lon="11.791938227277496"><ele>307.0</ele><time>2026-03-24T17:08:21.999Z</time></trkpt><trkpt lat="46.01402494400952" lon="11.792068025299917"><ele>306.0</ele><time>2026-03-24T17:08:22.999Z</time></trkpt><trkpt lat="46.01380487723165" lon="11.792197987448242"><ele>305.0</ele><time>2026-03-24T17:08:23.999Z</time></trkpt><trkpt lat="46.01357653003211" lon="11.792326411225712"><ele>305.0</ele><time>2026-03-24T17:08:24.999Z</time></trkpt><trkpt lat="46.013362796329076" lon="11.792444895175452"><ele>305.0</ele><time>2026-03-24T17:08:25.999Z</time></trkpt><trkpt lat="46.01316729841899" lon="11.79254672343032"><ele>305.0</ele><time>2026-03-24T17:08:26.999Z</time></trkpt><trkpt lat="46.012984232555546" lon="11.792652985955375"><ele>305.0</ele><time>2026-03-24T17:08:27.999Z</time></trkpt><trkpt lat="46.01280997412064" lon="11.792766709386377"><ele>305.0</ele><time>2026-03-24T17:08:28.999Z</time></trkpt><trkpt lat="46.01265552278911" lon="11.792886164397805"><ele>305.0</ele><time>2026-03-24T17:08:29.999Z</time></trkpt><trkpt lat="46.012520688934046" lon="11.793020371748115"><ele>305.25</ele><time>2026-03-24T17:08:30.999Z</time></trkpt><trkpt lat="46.01241009234803" lon="11.793151126105558"><ele>305.5</ele><time>2026-03-24T17:08:31.999Z</time></trkpt><trkpt lat="46.01232973520597" lon="11.793271314107944"><ele>305.75</ele><time>2026-03-24T17:08:32.999Z</time></trkpt><trkpt lat="46.01225284636042" lon="11.793378299631128"><ele>306.0</ele><time>2026-03-24T17:08:33.999Z</time></trkpt><trkpt lat="46.012181140537855" lon="11.793459275080336"><ele>306.0</ele><time>2026-03-24T17:08:34.999Z</time></trkpt><trkpt lat="46.012095659737106" lon="11.793500444624728"><ele>306.0</ele><time>2026-03-24T17:08:35.999Z</time></trkpt><trkpt lat="46.01200812484784" lon="11.793546732670594"><ele>306.0</ele><time>2026-03-24T17:08:36.999Z</time></trkpt><trkpt lat="46.011918398345934" lon="11.793635393823783"><ele>306.0</ele><time>2026-03-24T17:08:37.999Z</time></trkpt><trkpt lat="46.01184186055915" lon="11.79376601972985"><ele>306.0</ele><time>2026-03-24T17:08:38.999Z</time></trkpt><trkpt lat="46.01177669446469" lon="11.793906680821479"><ele>305.75</ele><time>2026-03-24T17:08:39.999Z</time></trkpt><trkpt lat="46.01170395737985" lon="11.794053773944222"><ele>305.5</ele><time>2026-03-24T17:08:40.999Z</time></trkpt><trkpt lat="46.01162082090495" lon="11.794195661623291"><ele>305.25</ele><time>2026-03-24T17:08:41.999Z</time></trkpt><trkpt lat="46.01153677163005" lon="11.794332749675284"><ele>305.0</ele><time>2026-03-24T17:08:42.999Z</time></trkpt><trkpt lat="46.01142162985171" lon="11.794434171859432"><ele>304.6666666666667</ele><time>2026-03-24T17:08:43.999Z</time></trkpt><trkpt lat="46.01130740503107" lon="11.794564259276596"><ele>304.3333333333333</ele><time>2026-03-24T17:08:44.999Z</time></trkpt><trkpt lat="46.0111731249439" lon="11.794731955946157"><ele>304.0</ele><time>2026-03-24T17:08:45.999Z</time></trkpt><trkpt lat="46.011020307078745" lon="11.794928838356824"><ele>304.0</ele><time>2026-03-24T17:08:46.999Z</time></trkpt><trkpt lat="46.0108590550133" lon="11.795143917518137"><ele>304.0</ele><time>2026-03-24T17:08:47.999Z</time></trkpt><trkpt lat="46.01069179772306" lon="11.795378818391384"><ele>304.0</ele><time>2026-03-24T17:08:48.999Z</time></trkpt><trkpt lat="46.01051051409941" lon="11.795619893296546"><ele>304.0</ele><time>2026-03-24T17:08:49.999Z</time></trkpt><trkpt lat="46.01032485582331" lon="11.795868609459532"><ele>302.0</ele><time>2026-03-24T17:08:50.999Z</time></trkpt><trkpt lat="46.010135460446854" lon="11.796126850284127"><ele>300.0</ele><time>2026-03-24T17:08:51.999Z</time></trkpt><trkpt lat="46.00994585612543" lon="11.796386659761877"><ele>300.0</ele><time>2026-03-24T17:08:52.999Z</time></trkpt><trkpt lat="46.00975232276284" lon="11.796648016396777"><ele>300.0</ele><time>2026-03-24T17:08:53.999Z</time></trkpt><trkpt lat="46.009543506536204" lon="11.796919796036597"><ele>299.5</ele><time>2026-03-24T17:08:54.999Z</time></trkpt><trkpt lat="46.009349855929656" lon="11.797184556452054"><ele>299.0</ele><time>2026-03-24T17:08:55.999Z</time></trkpt><trkpt lat="46.009161257209406" lon="11.797439854231191"><ele>298.5</ele><time>2026-03-24T17:08:56.999Z</time></trkpt><trkpt lat="46.00897129634605" lon="11.797688058854723"><ele>298.0</ele><time>2026-03-24T17:08:57.999Z</time></trkpt><trkpt lat="46.008780356357555" lon="11.797931463295626"><ele>298.0</ele><time>2026-03-24T17:08:58.999Z</time></trkpt><trkpt lat="46.00859715117008" lon="11.798187457525948"><ele>298.0</ele><time>2026-03-24T17:08:59.999Z</time></trkpt><trkpt lat="46.008412421732764" lon="11.798444065402306"><ele>298.0</ele><time>2026-03-24T17:09:00.999Z</time></trkpt><trkpt lat="46.008226922002734" lon="11.798698788452876"><ele>298.0</ele><time>2026-03-24T17:09:01.999Z</time></trkpt><trkpt lat="46.00803800753963" lon="11.798949986144759"><ele>298.0</ele><time>2026-03-24T17:09:02.999Z</time></trkpt><trkpt lat="46.007847960670965" lon="11.799202090838932"><ele>298.0</ele><time>2026-03-24T17:09:03.998Z</time></trkpt><trkpt lat="46.00765629747104" lon="11.799452105928102"><ele>296.0</ele><time>2026-03-24T17:09:04.998Z</time></trkpt><trkpt lat="46.007467569233484" lon="11.799704754841464"><ele>294.0</ele><time>2026-03-24T17:09:05.998Z</time></trkpt><trkpt lat="46.00728072746903" lon="11.79995771847024"><ele>294.5</ele><time>2026-03-24T17:09:06.998Z</time></trkpt><trkpt lat="46.00709838160848" lon="11.80021403106187"><ele>295.0</ele><time>2026-03-24T17:09:07.998Z</time></trkpt><trkpt lat="46.00691207872691" lon="11.800461345018514"><ele>295.0</ele><time>2026-03-24T17:09:08.998Z</time></trkpt><trkpt lat="46.00671969956667" lon="11.80071413194218"><ele>295.0</ele><time>2026-03-24T17:09:09.998Z</time></trkpt><trkpt lat="46.0065229020304" lon="11.80096229212467"><ele>295.0</ele><time>2026-03-24T17:09:10.998Z</time></trkpt><trkpt lat="46.00633757159747" lon="11.801216985702823"><ele>295.0</ele><time>2026-03-24T17:09:11.998Z</time></trkpt><trkpt lat="46.006149224932486" lon="11.801468005678478"><ele>295.0</ele><time>2026-03-24T17:09:12.998Z</time></trkpt><trkpt lat="46.005962196278254" lon="11.801719084867873"><ele>295.0</ele><time>2026-03-24T17:09:13.998Z</time></trkpt><trkpt lat="46.0057739532922" lon="11.801973365294463"><ele>294.5</ele><time>2026-03-24T17:09:14.998Z</time></trkpt><trkpt lat="46.005586980452804" lon="11.802226678553568"><ele>294.0</ele><time>2026-03-24T17:09:15.998Z</time></trkpt><trkpt lat="46.005398373797696" lon="11.802479799822601"><ele>293.5</ele><time>2026-03-24T17:09:16.998Z</time></trkpt><trkpt lat="46.00520841866271" lon="11.80273181032963"><ele>293.0</ele><time>2026-03-24T17:09:17.998Z</time></trkpt><trkpt lat="46.005019300047046" lon="11.802984587719884"><ele>293.0</ele><time>2026-03-24T17:09:18.998Z</time></trkpt><trkpt lat="46.004832348167504" lon="11.803237033361409"><ele>293.0</ele><time>2026-03-24T17:09:19.998Z</time></trkpt><trkpt lat="46.004644392518216" lon="11.803488010401509"><ele>293.5</ele><time>2026-03-24T17:09:20.998Z</time></trkpt><trkpt lat="46.004455887928756" lon="11.80373983632159"><ele>294.0</ele><time>2026-03-24T17:09:21.998Z</time></trkpt><trkpt lat="46.00426903204138" lon="11.803994040237917"><ele>293.5</ele><time>2026-03-24T17:09:22.998Z</time></trkpt><trkpt lat="46.00407851996024" lon="11.804245560487555"><ele>293.0</ele><time>2026-03-24T17:09:23.998Z</time></trkpt><trkpt lat="46.003889834039256" lon="11.804495061470273"><ele>293.0</ele><time>2026-03-24T17:09:24.998Z</time></trkpt><trkpt lat="46.003698492867905" lon="11.804749304048286"><ele>293.0</ele><time>2026-03-24T17:09:25.998Z</time></trkpt><trkpt lat="46.00351144891658" lon="11.805004151312614"><ele>294.0</ele><time>2026-03-24T17:09:26.998Z</time></trkpt><trkpt lat="46.00331451265233" lon="11.80524904367093"><ele>295.0</ele><time>2026-03-24T17:09:27.998Z</time></trkpt><trkpt lat="46.00312863985181" lon="11.805497975285531"><ele>295.0</ele><time>2026-03-24T17:09:28.998Z</time></trkpt><trkpt lat="46.00293027879149" lon="11.805731666389368"><ele>295.0</ele><time>2026-03-24T17:09:29.998Z</time></trkpt><trkpt lat="46.00271349080588" lon="11.805925166540945"><ele>295.5</ele><time>2026-03-24T17:09:30.998Z</time></trkpt><trkpt lat="46.00250584560989" lon="11.806147398280473"><ele>296.0</ele><time>2026-03-24T17:09:31.998Z</time></trkpt><trkpt lat="46.00228974333727" lon="11.806345205968876"><ele>295.0</ele><time>2026-03-24T17:09:32.998Z</time></trkpt><trkpt lat="46.00207166309023" lon="11.806538125342918"><ele>294.0</ele><time>2026-03-24T17:09:33.998Z</time></trkpt><trkpt lat="46.001867108557605" lon="11.806722504929954"><ele>293.6666666666667</ele><time>2026-03-24T17:09:34.998Z</time></trkpt><trkpt lat="46.001678288152334" lon="11.80690333329841"><ele>293.33333333333337</ele><time>2026-03-24T17:09:35.998Z</time></trkpt><trkpt lat="46.001503043633484" lon="11.807069164845755"><ele>293.0</ele><time>2026-03-24T17:09:36.998Z</time></trkpt><trkpt lat="46.001326855891215" lon="11.807242098918358"><ele>293.0</ele><time>2026-03-24T17:09:38Z</time></trkpt><trkpt lat="46.001178753396225" lon="11.807391055466512"><ele>293.0</ele><time>2026-03-24T17:09:39Z</time></trkpt><trkpt lat="46.00101714041286" lon="11.80754196845724"><ele>293.0</ele><time>2026-03-24T17:09:40Z</time></trkpt><trkpt lat="46.000875676872376" lon="11.807675495212042"><ele>299.25</ele><time>2026-03-24T17:09:41Z</time></trkpt><trkpt lat="46.00074313601607" lon="11.807809152596755"><ele>305.5</ele><time>2026-03-24T17:09:42Z</time></trkpt><trkpt lat="46.00062584676594" lon="11.807937854028102"><ele>311.75</ele><time>2026-03-24T17:09:43Z</time></trkpt><trkpt lat="46.00052809431444" lon="11.808081747940417"><ele>318.0</ele><time>2026-03-24T17:09:44Z</time></trkpt><trkpt lat="46.00046373463561" lon="11.808254410645421"><ele>318.0</ele><time>2026-03-24T17:09:45Z</time></trkpt><trkpt lat="46.00042845438227" lon="11.808457318700134"><ele>318.0</ele><time>2026-03-24T17:09:46Z</time></trkpt><trkpt lat="46.000420516789774" lon="11.808669459751938"><ele>318.0</ele><time>2026-03-24T17:09:47Z</time></trkpt><trkpt lat="46.00045073742632" lon="11.808882341893787"><ele>318.0</ele><time>2026-03-24T17:09:48Z</time></trkpt><trkpt lat="46.00051435414619" lon="11.809092380309307"><ele>318.6666666666667</ele><time>2026-03-24T17:09:49Z</time></trkpt><trkpt lat="46.00060295359988" lon="11.809283863419733"><ele>319.33333333333337</ele><time>2026-03-24T17:09:50Z</time></trkpt><trkpt lat="46.000709870910725" lon="11.809462563532932"><ele>320.0</ele><time>2026-03-24T17:09:51Z</time></trkpt><trkpt lat="46.00083684438837" lon="11.809643771743206"><ele>312.0</ele><time>2026-03-24T17:09:52Z</time></trkpt><trkpt lat="46.00097064008862" lon="11.809859134522648"><ele>304.0</ele><time>2026-03-24T17:09:53Z</time></trkpt><trkpt lat="46.00110656425863" lon="11.81009197433978"><ele>296.0</ele><time>2026-03-24T17:09:54Z</time></trkpt><trkpt lat="46.0012515256516" lon="11.810327502482155"><ele>296.0</ele><time>2026-03-24T17:09:55Z</time></trkpt><trkpt lat="46.00137620454421" lon="11.810548623337773"><ele>296.0</ele><time>2026-03-24T17:09:56Z</time></trkpt><trkpt lat="46.00148365137795" lon="11.810746750323165"><ele>296.0</ele><time>2026-03-24T17:09:57Z</time></trkpt><trkpt lat="46.00157669838854" lon="11.810934172907574"><ele>297.0</ele><time>2026-03-24T17:09:58Z</time></trkpt><trkpt lat="46.00165591391542" lon="11.811119909988621"><ele>298.0</ele><time>2026-03-24T17:09:59Z</time></trkpt><trkpt lat="46.00172432330186" lon="11.81131420189676"><ele>299.0</ele><time>2026-03-24T17:10:00Z</time></trkpt><trkpt lat="46.00178033878028" lon="11.811530965248206"><ele>297.33333333333337</ele><time>2026-03-24T17:10:01Z</time></trkpt><trkpt lat="46.00182453202607" lon="11.811769022033332"><ele>295.6666666666667</ele><time>2026-03-24T17:10:02Z</time></trkpt><trkpt lat="46.0018572364992" lon="11.812017272257235"><ele>294.0</ele><time>2026-03-24T17:10:03Z</time></trkpt><trkpt lat="46.0018984757999" lon="11.81226893626757"><ele>294.0</ele><time>2026-03-24T17:10:04Z</time></trkpt><trkpt lat="46.00189260641517" lon="11.812558557593432"><ele>294.0</ele><time>2026-03-24T17:10:05Z</time></trkpt><trkpt lat="46.0019064720868" lon="11.812866863889244"><ele>294.0</ele><time>2026-03-24T17:10:06Z</time></trkpt><trkpt lat="46.001918135451355" lon="11.813191985750503"><ele>296.0</ele><time>2026-03-24T17:10:07Z</time></trkpt><trkpt lat="46.001925578295676" lon="11.813519955581336"><ele>298.0</ele><time>2026-03-24T17:10:08Z</time></trkpt><trkpt lat="46.0019357013817" lon="11.813860702535717"><ele>298.0</ele><time>2026-03-24T17:10:09Z</time></trkpt><trkpt lat="46.001937508742735" lon="11.814215665326834"><ele>298.0</ele><time>2026-03-24T17:10:10Z</time></trkpt><trkpt lat="46.001945357221025" lon="11.81457298034976"><ele>298.5</ele><time>2026-03-24T17:10:11Z</time></trkpt><trkpt lat="46.00195139647642" lon="11.814930710384791"><ele>299.0</ele><time>2026-03-24T17:10:12Z</time></trkpt><trkpt lat="46.00195178962103" lon="11.815297176314447"><ele>299.5</ele><time>2026-03-24T17:10:13Z</time></trkpt><trkpt lat="46.00195714438726" lon="11.815668513834304"><ele>300.0</ele><time>2026-03-24T17:10:14Z</time></trkpt><trkpt lat="46.00196386545838" lon="11.816045201246464"><ele>301.5</ele><time>2026-03-24T17:10:15Z</time></trkpt><trkpt lat="46.00196872796312" lon="11.816421347979686"><ele>303.0</ele><time>2026-03-24T17:10:16Z</time></trkpt><trkpt lat="46.001970898463625" lon="11.816794457976414"><ele>303.0</ele><time>2026-03-24T17:10:17Z</time></trkpt><trkpt lat="46.00197426979993" lon="11.817164474588326"><ele>303.0</ele><time>2026-03-24T17:10:18Z</time></trkpt><trkpt lat="46.001981328629206" lon="11.817533391066268"><ele>303.0</ele><time>2026-03-24T17:10:19Z</time></trkpt><trkpt lat="46.001987537497286" lon="11.817902626495195"><ele>303.0</ele><time>2026-03-24T17:10:19.999Z</time></trkpt><trkpt lat="46.00199508571505" lon="11.818270192136115"><ele>304.0</ele><time>2026-03-24T17:10:20.999Z</time></trkpt><trkpt lat="46.00200023272181" lon="11.818648749652592"><ele>305.0</ele><time>2026-03-24T17:10:21.999Z</time></trkpt><trkpt lat="46.002004514328924" lon="11.81903858039233"><ele>305.0</ele><time>2026-03-24T17:10:22.999Z</time></trkpt><trkpt lat="46.00201252316737" lon="11.819417796759458"><ele>305.0</ele><time>2026-03-24T17:10:23.999Z</time></trkpt><trkpt lat="46.002016626373745" lon="11.819795784746825"><ele>305.5</ele><time>2026-03-24T17:10:24.999Z</time></trkpt><trkpt lat="46.002020195582496" lon="11.820173515994567"><ele>306.0</ele><time>2026-03-24T17:10:25.999Z</time></trkpt><trkpt lat="46.00202610929494" lon="11.82055042030356"><ele>306.0</ele><time>2026-03-24T17:10:26.999Z</time></trkpt><trkpt lat="46.002028874569675" lon="11.820930152322276"><ele>306.0</ele><time>2026-03-24T17:10:27.999Z</time></trkpt><trkpt lat="46.00203749163407" lon="11.821300963796347"><ele>307.0</ele><time>2026-03-24T17:10:28.999Z</time></trkpt><trkpt lat="46.00204519269492" lon="11.821674061101099"><ele>308.0</ele><time>2026-03-24T17:10:29.999Z</time></trkpt><trkpt lat="46.002051579262684" lon="11.822047344522879"><ele>308.5</ele><time>2026-03-24T17:10:30.999Z</time></trkpt><trkpt lat="46.00205384037056" lon="11.822422799310994"><ele>309.0</ele><time>2026-03-24T17:10:31.999Z</time></trkpt><trkpt lat="46.00205899830803" lon="11.822798912625382"><ele>308.0</ele><time>2026-03-24T17:10:32.999Z</time></trkpt><trkpt lat="46.00207149874756" lon="11.823172326070841"><ele>307.0</ele><time>2026-03-24T17:10:33.999Z</time></trkpt><trkpt lat="46.002078459619085" lon="11.823547083469515"><ele>309.0</ele><time>2026-03-24T17:10:34.999Z</time></trkpt><trkpt lat="46.00207050503057" lon="11.823921082779908"><ele>311.0</ele><time>2026-03-24T17:10:35.999Z</time></trkpt><trkpt lat="46.002076033330965" lon="11.824289846216674"><ele>312.0</ele><time>2026-03-24T17:10:36.999Z</time></trkpt><trkpt lat="46.002081109398496" lon="11.824628443801833"><ele>313.0</ele><time>2026-03-24T17:10:37.999Z</time></trkpt><trkpt lat="46.0020859199461" lon="11.824949329958372"><ele>313.3333333333333</ele><time>2026-03-24T17:10:38.999Z</time></trkpt><trkpt lat="46.002106431325835" lon="11.82524630988855"><ele>313.6666666666667</ele><time>2026-03-24T17:10:39.999Z</time></trkpt><trkpt lat="46.002110754079524" lon="11.825529060610492"><ele>314.0</ele><time>2026-03-24T17:10:40.999Z</time></trkpt><trkpt lat="46.002098824673205" lon="11.825810183683625"><ele>314.6666666666667</ele><time>2026-03-24T17:10:41.999Z</time></trkpt><trkpt lat="46.00210284186052" lon="11.826078207852438"><ele>315.3333333333333</ele><time>2026-03-24T17:10:42.999Z</time></trkpt><trkpt lat="46.00210669315516" lon="11.826335163948727"><ele>316.0</ele><time>2026-03-24T17:10:43.999Z</time></trkpt><trkpt lat="46.00211061074083" lon="11.826596542808165"><ele>315.66666666666663</ele><time>2026-03-24T17:10:44.999Z</time></trkpt><trkpt lat="46.002114670020525" lon="11.826867375493759"><ele>315.3333333333333</ele><time>2026-03-24T17:10:45.999Z</time></trkpt><trkpt lat="46.002134409430596" lon="11.827141273974803"><ele>315.0</ele><time>2026-03-24T17:10:46.999Z</time></trkpt><trkpt lat="46.002138534916284" lon="11.827419741019648"><ele>314.6666666666667</ele><time>2026-03-24T17:10:47.999Z</time></trkpt><trkpt lat="46.002141269703735" lon="11.827694692061588"><ele>314.33333333333337</ele><time>2026-03-24T17:10:48.999Z</time></trkpt><trkpt lat="46.002141243378595" lon="11.827966348856483"><ele>314.0</ele><time>2026-03-24T17:10:49.999Z</time></trkpt><trkpt lat="46.002150487033" lon="11.828248795733785"><ele>314.0</ele><time>2026-03-24T17:10:50.999Z</time></trkpt><trkpt lat="46.002157298863054" lon="11.828532886383199"><ele>314.0</ele><time>2026-03-24T17:10:51.999Z</time></trkpt><trkpt lat="46.002146137419025" lon="11.828826621409526"><ele>314.0</ele><time>2026-03-24T17:10:52.999Z</time></trkpt><trkpt lat="46.00215121873007" lon="11.82914447566717"><ele>315.0</ele><time>2026-03-24T17:10:53.999Z</time></trkpt><trkpt lat="46.002156466624555" lon="11.82947275049574"><ele>316.0</ele><time>2026-03-24T17:10:54.999Z</time></trkpt><trkpt lat="46.002161999794396" lon="11.829819559217961"><ele>317.0</ele><time>2026-03-24T17:10:55.999Z</time></trkpt><trkpt lat="46.002168065698946" lon="11.83021650831968"><ele>318.0</ele><time>2026-03-24T17:10:56.999Z</time></trkpt><trkpt lat="46.002173841745304" lon="11.830594489723419"><ele>318.0</ele><time>2026-03-24T17:10:57.999Z</time></trkpt><trkpt lat="46.00219534522771" lon="11.830940611293471"><ele>318.0</ele><time>2026-03-24T17:10:58.999Z</time></trkpt><trkpt lat="46.00219752937856" lon="11.831257312374968"><ele>318.0</ele><time>2026-03-24T17:10:59.999Z</time></trkpt><trkpt lat="46.00220170074387" lon="11.831563988438166"><ele>318.0</ele><time>2026-03-24T17:11:00.999Z</time></trkpt><trkpt lat="46.00220420984506" lon="11.831863353424065"><ele>318.0</ele><time>2026-03-24T17:11:01.999Z</time></trkpt><trkpt lat="46.00220958363756" lon="11.832173020265472"><ele>318.0</ele><time>2026-03-24T17:11:02.999Z</time></trkpt><trkpt lat="46.00220275642591" lon="11.832522736352471"><ele>318.0</ele><time>2026-03-24T17:11:03.999Z</time></trkpt><trkpt lat="46.00220842028238" lon="11.832891038656623"><ele>318.0</ele><time>2026-03-24T17:11:04.999Z</time></trkpt><trkpt lat="46.00221385153001" lon="11.83326773867538"><ele>318.0</ele><time>2026-03-24T17:11:05.999Z</time></trkpt><trkpt lat="46.00223048288871" lon="11.833630473921636"><ele>318.0</ele><time>2026-03-24T17:11:06.999Z</time></trkpt><trkpt lat="46.00223114643792" lon="11.833960842839172"><ele>318.0</ele><time>2026-03-24T17:11:07.999Z</time></trkpt><trkpt lat="46.00223539490075" lon="11.834269380906735"><ele>318.0</ele><time>2026-03-24T17:11:08.999Z</time></trkpt><trkpt lat="46.002234142166344" lon="11.834552770618219"><ele>318.0</ele><time>2026-03-24T17:11:09.999Z</time></trkpt><trkpt lat="46.002234905773676" lon="11.834822463937636"><ele>318.0</ele><time>2026-03-24T17:11:10.999Z</time></trkpt><trkpt lat="46.00223523319658" lon="11.835075099270002"><ele>318.0</ele><time>2026-03-24T17:11:11.999Z</time></trkpt><trkpt lat="46.002228310636475" lon="11.835307503563413"><ele>318.25</ele><time>2026-03-24T17:11:12.999Z</time></trkpt><trkpt lat="46.002219992075496" lon="11.83551704681535"><ele>318.5</ele><time>2026-03-24T17:11:13.999Z</time></trkpt><trkpt lat="46.002207494652176" lon="11.835719773018168"><ele>318.75</ele><time>2026-03-24T17:11:14.998Z</time></trkpt><trkpt lat="46.002192988538056" lon="11.835909892366058"><ele>319.0</ele><time>2026-03-24T17:11:15.998Z</time></trkpt><trkpt lat="46.002179237210704" lon="11.83607998486858"><ele>319.0</ele><time>2026-03-24T17:11:16.998Z</time></trkpt><trkpt lat="46.00214864417623" lon="11.836256762911365"><ele>319.0</ele><time>2026-03-24T17:11:17.998Z</time></trkpt><trkpt lat="46.00210593731992" lon="11.83643778290731"><ele>319.0</ele><time>2026-03-24T17:11:18.998Z</time></trkpt><trkpt lat="46.002070108350054" lon="11.836635607539092"><ele>319.0</ele><time>2026-03-24T17:11:19.998Z</time></trkpt><trkpt lat="46.00206955091875" lon="11.836850090673469"><ele>319.3333333333333</ele><time>2026-03-24T17:11:20.998Z</time></trkpt><trkpt lat="46.00201900143162" lon="11.83708151908471"><ele>319.6666666666667</ele><time>2026-03-24T17:11:21.998Z</time></trkpt><trkpt lat="46.00197067989178" lon="11.837317111389948"><ele>320.0</ele><time>2026-03-24T17:11:22.998Z</time></trkpt><trkpt lat="46.001907785815554" lon="11.837571735212963"><ele>320.33333333333337</ele><time>2026-03-24T17:11:23.998Z</time></trkpt><trkpt lat="46.00184176793734" lon="11.837844512519789"><ele>320.6666666666667</ele><time>2026-03-24T17:11:24.998Z</time></trkpt><trkpt lat="46.0017691013984" lon="11.83812820002987"><ele>321.0</ele><time>2026-03-24T17:11:25.998Z</time></trkpt><trkpt lat="46.00168415592711" lon="11.838414054432372"><ele>321.3333333333333</ele><time>2026-03-24T17:11:26.998Z</time></trkpt><trkpt lat="46.00160249655854" lon="11.838709577795234"><ele>321.66666666666663</ele><time>2026-03-24T17:11:27.998Z</time></trkpt><trkpt lat="46.00152447816621" lon="11.839012035531185"><ele>322.0</ele><time>2026-03-24T17:11:28.998Z</time></trkpt><trkpt lat="46.00143783837878" lon="11.83931252902969"><ele>322.0</ele><time>2026-03-24T17:11:29.998Z</time></trkpt><trkpt lat="46.00136773054171" lon="11.839635915085932"><ele>322.0</ele><time>2026-03-24T17:11:30.998Z</time></trkpt><trkpt lat="46.00127946088778" lon="11.839967576947643"><ele>321.5</ele><time>2026-03-24T17:11:31.998Z</time></trkpt><trkpt lat="46.00120664344375" lon="11.840311531444659"><ele>321.0</ele><time>2026-03-24T17:11:32.998Z</time></trkpt><trkpt lat="46.001135122214656" lon="11.840663718295263"><ele>321.5</ele><time>2026-03-24T17:11:33.998Z</time></trkpt><trkpt lat="46.001070198203394" lon="11.84102538904334"><ele>322.0</ele><time>2026-03-24T17:11:34.998Z</time></trkpt><trkpt lat="46.00101641804014" lon="11.841402637687322"><ele>322.0</ele><time>2026-03-24T17:11:35.998Z</time></trkpt><trkpt lat="46.000968268049995" lon="11.841781204169836"><ele>322.0</ele><time>2026-03-24T17:11:36.998Z</time></trkpt><trkpt lat="46.00093742857994" lon="11.84215890370003"><ele>321.5</ele><time>2026-03-24T17:11:37.998Z</time></trkpt><trkpt lat="46.00091355747034" lon="11.842519590693513"><ele>321.0</ele><time>2026-03-24T17:11:38.998Z</time></trkpt><trkpt lat="46.00090261766775" lon="11.84286424811536"><ele>321.0</ele><time>2026-03-24T17:11:39.998Z</time></trkpt><trkpt lat="46.00088193088145" lon="11.843205412495305"><ele>321.0</ele><time>2026-03-24T17:11:40.998Z</time></trkpt><trkpt lat="46.00088770976876" lon="11.843562050922333"><ele>321.0</ele><time>2026-03-24T17:11:41.998Z</time></trkpt><trkpt lat="46.00090068516465" lon="11.843915826215136"><ele>321.0</ele><time>2026-03-24T17:11:42.998Z</time></trkpt><trkpt lat="46.00092110469676" lon="11.844278043569695"><ele>322.0</ele><time>2026-03-24T17:11:44Z</time></trkpt><trkpt lat="46.00096526554332" lon="11.844632451909117"><ele>323.0</ele><time>2026-03-24T17:11:45Z</time></trkpt><trkpt lat="46.000985639152965" lon="11.844988459754621"><ele>322.0</ele><time>2026-03-24T17:11:46Z</time></trkpt><trkpt lat="46.00103237948812" lon="11.845351106040658"><ele>321.0</ele><time>2026-03-24T17:11:47Z</time></trkpt><trkpt lat="46.001101833601304" lon="11.845709640268213"><ele>319.0</ele><time>2026-03-24T17:11:48Z</time></trkpt><trkpt lat="46.00116212543489" lon="11.84607004003444"><ele>317.0</ele><time>2026-03-24T17:11:49Z</time></trkpt><trkpt lat="46.00123275690359" lon="11.846429036515023"><ele>317.0</ele><time>2026-03-24T17:11:50Z</time></trkpt><trkpt lat="46.0013078750414" lon="11.84678723775698"><ele>317.0</ele><time>2026-03-24T17:11:51Z</time></trkpt><trkpt lat="46.001390418751086" lon="11.847134350114898"><ele>318.0</ele><time>2026-03-24T17:11:52Z</time></trkpt><trkpt lat="46.001476603141555" lon="11.847481787798175"><ele>319.0</ele><time>2026-03-24T17:11:53Z</time></trkpt><trkpt lat="46.00156320350093" lon="11.847830921247631"><ele>319.0</ele><time>2026-03-24T17:11:54Z</time></trkpt><trkpt lat="46.001649231577524" lon="11.848179022302586"><ele>319.0</ele><time>2026-03-24T17:11:55Z</time></trkpt><trkpt lat="46.001733296766844" lon="11.848531321721294"><ele>315.5</ele><time>2026-03-24T17:11:56Z</time></trkpt><trkpt lat="46.00181903921232" lon="11.848877552091164"><ele>312.0</ele><time>2026-03-24T17:11:57Z</time></trkpt><trkpt lat="46.0019031954686" lon="11.849230454923037"><ele>312.0</ele><time>2026-03-24T17:11:58Z</time></trkpt><trkpt lat="46.00198483379812" lon="11.849581507459297"><ele>312.0</ele><time>2026-03-24T17:11:59Z</time></trkpt><trkpt lat="46.00206620475817" lon="11.849933734949227"><ele>312.0</ele><time>2026-03-24T17:12:00Z</time></trkpt><trkpt lat="46.00214820474193" lon="11.850282780140954"><ele>312.0</ele><time>2026-03-24T17:12:01Z</time></trkpt><trkpt lat="46.002232103364356" lon="11.850634248640128"><ele>310.5</ele><time>2026-03-24T17:12:02Z</time></trkpt><trkpt lat="46.00231712300147" lon="11.850981151497963"><ele>309.0</ele><time>2026-03-24T17:12:03Z</time></trkpt><trkpt lat="46.00240022141399" lon="11.851335937121641"><ele>309.0</ele><time>2026-03-24T17:12:04Z</time></trkpt><trkpt lat="46.002488079234816" lon="11.851681102419256"><ele>309.0</ele><time>2026-03-24T17:12:05Z</time></trkpt><trkpt lat="46.00257206697562" lon="11.852031040309322"><ele>308.0</ele><time>2026-03-24T17:12:06Z</time></trkpt><trkpt lat="46.00265462865894" lon="11.852381033382452"><ele>307.0</ele><time>2026-03-24T17:12:07Z</time></trkpt><trkpt lat="46.00274325293597" lon="11.852734939085588"><ele>306.0</ele><time>2026-03-24T17:12:08Z</time></trkpt><trkpt lat="46.002829822940626" lon="11.853076042029327"><ele>305.0</ele><time>2026-03-24T17:12:09Z</time></trkpt><trkpt lat="46.002908623564636" lon="11.85342593343172"><ele>305.0</ele><time>2026-03-24T17:12:10Z</time></trkpt><trkpt lat="46.00299012936004" lon="11.853778828595129"><ele>305.0</ele><time>2026-03-24T17:12:11Z</time></trkpt><trkpt lat="46.00307546423492" lon="11.854126159905734"><ele>304.5</ele><time>2026-03-24T17:12:12Z</time></trkpt><trkpt lat="46.00315826438291" lon="11.854474791249299"><ele>304.0</ele><time>2026-03-24T17:12:13Z</time></trkpt><trkpt lat="46.003237255429205" lon="11.854824855266266"><ele>304.0</ele><time>2026-03-24T17:12:14Z</time></trkpt><trkpt lat="46.003319057785106" lon="11.855177759201256"><ele>304.0</ele><time>2026-03-24T17:12:15Z</time></trkpt><trkpt lat="46.003402913545905" lon="11.855530018957788"><ele>304.0</ele><time>2026-03-24T17:12:16Z</time></trkpt><trkpt lat="46.0034857408147" lon="11.855885341718242"><ele>304.0</ele><time>2026-03-24T17:12:17Z</time></trkpt><trkpt lat="46.003572235208196" lon="11.856232960203661"><ele>304.0</ele><time>2026-03-24T17:12:18Z</time></trkpt><trkpt lat="46.00365680588034" lon="11.856581064192294"><ele>304.0</ele><time>2026-03-24T17:12:19Z</time></trkpt><trkpt lat="46.003737908915475" lon="11.856930462980095"><ele>304.0</ele><time>2026-03-24T17:12:20Z</time></trkpt><trkpt lat="46.0038214489418" lon="11.857278869606224"><ele>304.0</ele><time>2026-03-24T17:12:21Z</time></trkpt><trkpt lat="46.003903116953154" lon="11.857628060787842"><ele>305.0</ele><time>2026-03-24T17:12:22Z</time></trkpt><trkpt lat="46.00398156395003" lon="11.857980368706192"><ele>306.0</ele><time>2026-03-24T17:12:23Z</time></trkpt><trkpt lat="46.00405896631384" lon="11.85833052723828"><ele>307.0</ele><time>2026-03-24T17:12:24Z</time></trkpt><trkpt lat="46.00413594880028" lon="11.858682750722462"><ele>308.0</ele><time>2026-03-24T17:12:25Z</time></trkpt><trkpt lat="46.00421269493671" lon="11.859040143682648"><ele>306.0</ele><time>2026-03-24T17:12:25.999Z</time></trkpt><trkpt lat="46.00429300370294" lon="11.859385113809996"><ele>304.0</ele><time>2026-03-24T17:12:26.999Z</time></trkpt><trkpt lat="46.00437415647361" lon="11.859733476380336"><ele>304.0</ele><time>2026-03-24T17:12:27.999Z</time></trkpt><trkpt lat="46.00444421956847" lon="11.860094563209334"><ele>304.0</ele><time>2026-03-24T17:12:28.999Z</time></trkpt><trkpt lat="46.00451695290959" lon="11.860450756703646"><ele>303.5</ele><time>2026-03-24T17:12:29.999Z</time></trkpt><trkpt lat="46.004591074346116" lon="11.860804081760804"><ele>303.0</ele><time>2026-03-24T17:12:30.999Z</time></trkpt><trkpt lat="46.00466504142813" lon="11.86115749740512"><ele>302.5</ele><time>2026-03-24T17:12:31.999Z</time></trkpt><trkpt lat="46.00474351630873" lon="11.861502103140817"><ele>302.0</ele><time>2026-03-24T17:12:32.999Z</time></trkpt><trkpt lat="46.0048188513248" lon="11.861856819742178"><ele>303.5</ele><time>2026-03-24T17:12:33.999Z</time></trkpt><trkpt lat="46.00488413407543" lon="11.862222287042172"><ele>305.0</ele><time>2026-03-24T17:12:34.999Z</time></trkpt><trkpt lat="46.00496276233512" lon="11.862576112897509"><ele>304.0</ele><time>2026-03-24T17:12:35.999Z</time></trkpt><trkpt lat="46.005039225665804" lon="11.862927025955795"><ele>303.0</ele><time>2026-03-24T17:12:36.999Z</time></trkpt><trkpt lat="46.00510254864091" lon="11.863283349663352"><ele>303.0</ele><time>2026-03-24T17:12:37.999Z</time></trkpt><trkpt lat="46.00518970306371" lon="11.86363458523344"><ele>303.0</ele><time>2026-03-24T17:12:38.999Z</time></trkpt><trkpt lat="46.00526014209606" lon="11.86399452975622"><ele>301.5</ele><time>2026-03-24T17:12:39.999Z</time></trkpt><trkpt lat="46.00533404351214" lon="11.864350764192718"><ele>300.0</ele><time>2026-03-24T17:12:40.999Z</time></trkpt><trkpt lat="46.00541047807026" lon="11.864704164431844"><ele>300.0</ele><time>2026-03-24T17:12:41.999Z</time></trkpt><trkpt lat="46.00548560737921" lon="11.86506065451661"><ele>300.0</ele><time>2026-03-24T17:12:42.999Z</time></trkpt><trkpt lat="46.00555855408567" lon="11.865413189900224"><ele>300.0</ele><time>2026-03-24T17:12:43.999Z</time></trkpt><trkpt lat="46.005630765489315" lon="11.865768912699236"><ele>300.0</ele><time>2026-03-24T17:12:44.999Z</time></trkpt><trkpt lat="46.00570366017755" lon="11.866123260772694"><ele>298.5</ele><time>2026-03-24T17:12:45.999Z</time></trkpt><trkpt lat="46.005770645170756" lon="11.866484637675022"><ele>297.0</ele><time>2026-03-24T17:12:46.999Z</time></trkpt><trkpt lat="46.00585212503296" lon="11.866838031058174"><ele>295.5</ele><time>2026-03-24T17:12:47.999Z</time></trkpt><trkpt lat="46.00592959168573" lon="11.867190237142752"><ele>294.0</ele><time>2026-03-24T17:12:48.999Z</time></trkpt><trkpt lat="46.00600588650408" lon="11.867541334945825"><ele>294.0</ele><time>2026-03-24T17:12:49.999Z</time></trkpt><trkpt lat="46.006078827751296" lon="11.867895996945894"><ele>294.0</ele><time>2026-03-24T17:12:50.999Z</time></trkpt><trkpt lat="46.00615876725534" lon="11.86824348214202"><ele>294.0</ele><time>2026-03-24T17:12:51.999Z</time></trkpt><trkpt lat="46.00623398416557" lon="11.868599994715106"><ele>294.0</ele><time>2026-03-24T17:12:52.999Z</time></trkpt><trkpt lat="46.0063133809924" lon="11.868953543823162"><ele>293.5</ele><time>2026-03-24T17:12:53.999Z</time></trkpt><trkpt lat="46.006393316695366" lon="11.869308477013918"><ele>293.0</ele><time>2026-03-24T17:12:54.999Z</time></trkpt><trkpt lat="46.00647576462166" lon="11.86965949810214"><ele>293.0</ele><time>2026-03-24T17:12:55.999Z</time></trkpt><trkpt lat="46.00656271814872" lon="11.870007429350062"><ele>293.0</ele><time>2026-03-24T17:12:56.999Z</time></trkpt><trkpt lat="46.00665229211658" lon="11.87035770996086"><ele>291.0</ele><time>2026-03-24T17:12:57.999Z</time></trkpt><trkpt lat="46.00673815865988" lon="11.870707332798705"><ele>289.0</ele><time>2026-03-24T17:12:58.999Z</time></trkpt><trkpt lat="46.00682731394155" lon="11.87105227820971"><ele>288.5</ele><time>2026-03-24T17:12:59.999Z</time></trkpt><trkpt lat="46.00691326073159" lon="11.87140108159003"><ele>288.0</ele><time>2026-03-24T17:13:00.999Z</time></trkpt><trkpt lat="46.006996170025644" lon="11.871752323663937"><ele>287.0</ele><time>2026-03-24T17:13:01.999Z</time></trkpt><trkpt lat="46.00707577370502" lon="11.872102357842568"><ele>286.0</ele><time>2026-03-24T17:13:02.999Z</time></trkpt><trkpt lat="46.007149057930555" lon="11.872457790686408"><ele>285.0</ele><time>2026-03-24T17:13:03.999Z</time></trkpt><trkpt lat="46.00721199666347" lon="11.872819677660745"><ele>284.0</ele><time>2026-03-24T17:13:04.999Z</time></trkpt><trkpt lat="46.00724389915736" lon="11.873185386349439"><ele>283.5</ele><time>2026-03-24T17:13:05.999Z</time></trkpt><trkpt lat="46.00727442868531" lon="11.873551771582314"><ele>283.0</ele><time>2026-03-24T17:13:06.999Z</time></trkpt><trkpt lat="46.00728803858242" lon="11.873916601164085"><ele>284.5</ele><time>2026-03-24T17:13:07.999Z</time></trkpt><trkpt lat="46.00729116252305" lon="11.874284897319331"><ele>286.0</ele><time>2026-03-24T17:13:08.999Z</time></trkpt><trkpt lat="46.00728846522583" lon="11.87465890007687"><ele>286.0</ele><time>2026-03-24T17:13:09.999Z</time></trkpt><trkpt lat="46.00729137011976" lon="11.875028281662265"><ele>286.0</ele><time>2026-03-24T17:13:10.999Z</time></trkpt><trkpt lat="46.00727467662761" lon="11.875403223847421"><ele>286.0</ele><time>2026-03-24T17:13:11.999Z</time></trkpt><trkpt lat="46.00726001233141" lon="11.87577553458085"><ele>286.0</ele><time>2026-03-24T17:13:12.999Z</time></trkpt><trkpt lat="46.007261746744824" lon="11.876150097198057"><ele>285.0</ele><time>2026-03-24T17:13:13.999Z</time></trkpt><trkpt lat="46.00728246595246" lon="11.876514052606462"><ele>284.0</ele><time>2026-03-24T17:13:14.999Z</time></trkpt><trkpt lat="46.00731118040807" lon="11.876878353514822"><ele>282.0</ele><time>2026-03-24T17:13:15.999Z</time></trkpt><trkpt lat="46.007360620988045" lon="11.877243514162071"><ele>280.0</ele><time>2026-03-24T17:13:16.999Z</time></trkpt><trkpt lat="46.00742158438468" lon="11.877605029407924"><ele>279.5</ele><time>2026-03-24T17:13:17.999Z</time></trkpt><trkpt lat="46.007497443315394" lon="11.877960796156634"><ele>279.0</ele><time>2026-03-24T17:13:18.999Z</time></trkpt><trkpt lat="46.00758812883406" lon="11.878314404885723"><ele>278.0</ele><time>2026-03-24T17:13:19.998Z</time></trkpt><trkpt lat="46.00769583147276" lon="11.878647521831859"><ele>277.0</ele><time>2026-03-24T17:13:20.998Z</time></trkpt><trkpt lat="46.00780245034144" lon="11.878982287061705"><ele>276.5</ele><time>2026-03-24T17:13:21.998Z</time></trkpt><trkpt lat="46.0078889803074" lon="11.879326115730265"><ele>276.0</ele><time>2026-03-24T17:13:22.998Z</time></trkpt><trkpt lat="46.00800487372937" lon="11.879655993754586"><ele>276.0</ele><time>2026-03-24T17:13:23.998Z</time></trkpt><trkpt lat="46.00810729897656" lon="11.879994444277843"><ele>276.0</ele><time>2026-03-24T17:13:24.998Z</time></trkpt><trkpt lat="46.00821048877334" lon="11.880336531840234"><ele>275.0</ele><time>2026-03-24T17:13:25.998Z</time></trkpt><trkpt lat="46.00831726214128" lon="11.880676064914702"><ele>274.0</ele><time>2026-03-24T17:13:26.998Z</time></trkpt><trkpt lat="46.00840781889448" lon="11.881021219180974"><ele>273.0</ele><time>2026-03-24T17:13:27.998Z</time></trkpt><trkpt lat="46.0085057163294" lon="11.881339137208338"><ele>272.0</ele><time>2026-03-24T17:13:28.998Z</time></trkpt><trkpt lat="46.00860035667612" lon="11.881647024269448"><ele>273.5</ele><time>2026-03-24T17:13:29.998Z</time></trkpt><trkpt lat="46.00869833782792" lon="11.881969010814151"><ele>275.0</ele><time>2026-03-24T17:13:30.998Z</time></trkpt><trkpt lat="46.00879849092527" lon="11.882298451732765"><ele>274.0</ele><time>2026-03-24T17:13:31.998Z</time></trkpt><trkpt lat="46.0089031762342" lon="11.882644855429971"><ele>273.0</ele><time>2026-03-24T17:13:32.998Z</time></trkpt><trkpt lat="46.00900487748516" lon="11.882997154174582"><ele>273.0</ele><time>2026-03-24T17:13:33.998Z</time></trkpt><trkpt lat="46.00911597660668" lon="11.883347003585504"><ele>273.0</ele><time>2026-03-24T17:13:34.998Z</time></trkpt><trkpt lat="46.00920867866303" lon="11.88370453045948"><ele>273.0</ele><time>2026-03-24T17:13:35.998Z</time></trkpt><trkpt lat="46.00930072325605" lon="11.884055363371935"><ele>273.0</ele><time>2026-03-24T17:13:36.998Z</time></trkpt><trkpt lat="46.00938533672166" lon="11.884399514549104"><ele>273.0</ele><time>2026-03-24T17:13:37.998Z</time></trkpt><trkpt lat="46.00947215945245" lon="11.884742407248236"><ele>273.0</ele><time>2026-03-24T17:13:38.998Z</time></trkpt><trkpt lat="46.00954123670131" lon="11.885094199136788"><ele>272.5</ele><time>2026-03-24T17:13:39.998Z</time></trkpt><trkpt lat="46.009625245099144" lon="11.885442113065816"><ele>272.0</ele><time>2026-03-24T17:13:40.998Z</time></trkpt><trkpt lat="46.00970985909751" lon="11.885791439849768"><ele>272.5</ele><time>2026-03-24T17:13:41.998Z</time></trkpt><trkpt lat="46.00979421556991" lon="11.886139477811316"><ele>273.0</ele><time>2026-03-24T17:13:42.998Z</time></trkpt><trkpt lat="46.00989249848589" lon="11.886494140846992"><ele>273.0</ele><time>2026-03-24T17:13:43.998Z</time></trkpt><trkpt lat="46.009978014499175" lon="11.886833722604095"><ele>273.0</ele><time>2026-03-24T17:13:44.998Z</time></trkpt><trkpt lat="46.01006617927889" lon="11.887177692762197"><ele>273.0</ele><time>2026-03-24T17:13:45.998Z</time></trkpt><trkpt lat="46.010151917584736" lon="11.887521776209114"><ele>273.0</ele><time>2026-03-24T17:13:46.998Z</time></trkpt><trkpt lat="46.010235083950306" lon="11.887870242142224"><ele>273.0</ele><time>2026-03-24T17:13:47.998Z</time></trkpt><trkpt lat="46.010321499454456" lon="11.888218130647072"><ele>273.0</ele><time>2026-03-24T17:13:48.998Z</time></trkpt><trkpt lat="46.010405737045566" lon="11.88856754444662"><ele>275.5</ele><time>2026-03-24T17:13:50Z</time></trkpt><trkpt lat="46.010488087252824" lon="11.888915167245889"><ele>278.0</ele><time>2026-03-24T17:13:51Z</time></trkpt><trkpt lat="46.010572457733616" lon="11.88926492567404"><ele>285.0</ele><time>2026-03-24T17:13:52Z</time></trkpt><trkpt lat="46.01065815899962" lon="11.88961190201732"><ele>292.0</ele><time>2026-03-24T17:13:53Z</time></trkpt><trkpt lat="46.01074183404049" lon="11.889959323042966"><ele>284.0</ele><time>2026-03-24T17:13:54Z</time></trkpt><trkpt lat="46.01082270666364" lon="11.890310290824742"><ele>276.0</ele><time>2026-03-24T17:13:55Z</time></trkpt><trkpt lat="46.01090722969116" lon="11.890652574062914"><ele>281.0</ele><time>2026-03-24T17:13:56Z</time></trkpt><trkpt lat="46.010989924182226" lon="11.891003002288942"><ele>286.0</ele><time>2026-03-24T17:13:57Z</time></trkpt><trkpt lat="46.0110753287698" lon="11.891353830316708"><ele>286.0</ele><time>2026-03-24T17:13:58Z</time></trkpt><trkpt lat="46.01116017084203" lon="11.891698672158086"><ele>286.0</ele><time>2026-03-24T17:13:59Z</time></trkpt><trkpt lat="46.01124228373113" lon="11.892051043247713"><ele>291.0</ele><time>2026-03-24T17:14:00Z</time></trkpt><trkpt lat="46.0113308920485" lon="11.892395161102483"><ele>296.0</ele><time>2026-03-24T17:14:01Z</time></trkpt><trkpt lat="46.01141483522595" lon="11.892741303443737"><ele>297.0</ele><time>2026-03-24T17:14:02Z</time></trkpt><trkpt lat="46.011497470579634" lon="11.893087196518191"><ele>298.0</ele><time>2026-03-24T17:14:03Z</time></trkpt><trkpt lat="46.0115805810034" lon="11.893423813563452"><ele>285.5</ele><time>2026-03-24T17:14:04Z</time></trkpt><trkpt lat="46.01166068661985" lon="11.893777948414268"><ele>273.0</ele><time>2026-03-24T17:14:05Z</time></trkpt><trkpt lat="46.01172268568164" lon="11.894135840257025"><ele>272.5</ele><time>2026-03-24T17:14:06Z</time></trkpt><trkpt lat="46.01177986245067" lon="11.894491019701487"><ele>272.0</ele><time>2026-03-24T17:14:07Z</time></trkpt><trkpt lat="46.01182557151453" lon="11.894841035634272"><ele>272.0</ele><time>2026-03-24T17:14:08Z</time></trkpt><trkpt lat="46.0118377330035" lon="11.895197831047016"><ele>272.0</ele><time>2026-03-24T17:14:09Z</time></trkpt><trkpt lat="46.011831167164665" lon="11.895575293413513"><ele>271.5</ele><time>2026-03-24T17:14:10Z</time></trkpt><trkpt lat="46.01181222168879" lon="11.895945307853072"><ele>271.0</ele><time>2026-03-24T17:14:11Z</time></trkpt><trkpt lat="46.01177364301237" lon="11.896304520760028"><ele>271.0</ele><time>2026-03-24T17:14:12Z</time></trkpt><trkpt lat="46.011718157349385" lon="11.896666634588579"><ele>271.0</ele><time>2026-03-24T17:14:13Z</time></trkpt><trkpt lat="46.01165552652931" lon="11.897024640135962"><ele>277.5</ele><time>2026-03-24T17:14:14Z</time></trkpt><trkpt lat="46.01156143555151" lon="11.897346548564332"><ele>284.0</ele><time>2026-03-24T17:14:15Z</time></trkpt><trkpt lat="46.01145562972655" lon="11.897638037391172"><ele>284.0</ele><time>2026-03-24T17:14:16Z</time></trkpt><trkpt lat="46.01133793725854" lon="11.897903772772592"><ele>284.0</ele><time>2026-03-24T17:14:17Z</time></trkpt><trkpt lat="46.01122146012525" lon="11.898180765376006"><ele>284.0</ele><time>2026-03-24T17:14:18Z</time></trkpt><trkpt lat="46.01108514128215" lon="11.898418241677424"><ele>282.5</ele><time>2026-03-24T17:14:19Z</time></trkpt><trkpt lat="46.01094234196029" lon="11.898665782779315"><ele>281.0</ele><time>2026-03-24T17:14:20Z</time></trkpt><trkpt lat="46.01076324183055" lon="11.898876055456954"><ele>284.0</ele><time>2026-03-24T17:14:21Z</time></trkpt><trkpt lat="46.010595751200185" lon="11.899088189562356"><ele>287.0</ele><time>2026-03-24T17:14:22Z</time></trkpt><trkpt lat="46.01042301262235" lon="11.899318603778342"><ele>285.6666666666667</ele><time>2026-03-24T17:14:23Z</time></trkpt><trkpt lat="46.01022990254672" lon="11.899484674091934"><ele>284.3333333333333</ele><time>2026-03-24T17:14:24Z</time></trkpt><trkpt lat="46.010061217598235" lon="11.899677156384428"><ele>283.0</ele><time>2026-03-24T17:14:25Z</time></trkpt><trkpt lat="46.00988160352034" lon="11.899842203331607"><ele>283.0</ele><time>2026-03-24T17:14:26Z</time></trkpt><trkpt lat="46.00972064297073" lon="11.899984787774008"><ele>283.0</ele><time>2026-03-24T17:14:27Z</time></trkpt><trkpt lat="46.00957128195722" lon="11.9001334696936"><ele>283.0</ele><time>2026-03-24T17:14:28Z</time></trkpt><trkpt lat="46.009418025701905" lon="11.900296414769725"><ele>281.3333333333333</ele><time>2026-03-24T17:14:28.999Z</time></trkpt><trkpt lat="46.00926309489589" lon="11.900473090685244"><ele>279.6666666666667</ele><time>2026-03-24T17:14:29.999Z</time></trkpt><trkpt lat="46.009116537794085" lon="11.900650589113791"><ele>278.0</ele><time>2026-03-24T17:14:30.999Z</time></trkpt><trkpt lat="46.00896658684102" lon="11.900814606983635"><ele>280.6666666666667</ele><time>2026-03-24T17:14:31.999Z</time></trkpt><trkpt lat="46.008829292297655" lon="11.901008245495255"><ele>283.3333333333333</ele><time>2026-03-24T17:14:32.999Z</time></trkpt><trkpt lat="46.00869697654719" lon="11.901191740991749"><ele>286.0</ele><time>2026-03-24T17:14:33.999Z</time></trkpt><trkpt lat="46.00857400414048" lon="11.901395904367828"><ele>286.0</ele><time>2026-03-24T17:14:34.999Z</time></trkpt><trkpt lat="46.008460763324145" lon="11.901614518750169"><ele>286.0</ele><time>2026-03-24T17:14:35.999Z</time></trkpt><trkpt lat="46.00835768670815" lon="11.901833656118688"><ele>286.0</ele><time>2026-03-24T17:14:36.999Z</time></trkpt><trkpt lat="46.00826239057577" lon="11.902057344390126"><ele>289.0</ele><time>2026-03-24T17:14:37.999Z</time></trkpt><trkpt lat="46.00817793242032" lon="11.902293713292769"><ele>292.0</ele><time>2026-03-24T17:14:38.999Z</time></trkpt><trkpt lat="46.00809829884038" lon="11.902536003943517"><ele>295.0</ele><time>2026-03-24T17:14:39.999Z</time></trkpt><trkpt lat="46.008021452090574" lon="11.902789238341688"><ele>295.0</ele><time>2026-03-24T17:14:40.999Z</time></trkpt><trkpt lat="46.00796214531347" lon="11.903035204194632"><ele>295.0</ele><time>2026-03-24T17:14:41.999Z</time></trkpt><trkpt lat="46.00790838501006" lon="11.903285818170064"><ele>295.0</ele><time>2026-03-24T17:14:42.999Z</time></trkpt><trkpt lat="46.00786239089868" lon="11.903542242807323"><ele>296.0</ele><time>2026-03-24T17:14:43.999Z</time></trkpt><trkpt lat="46.00782675257614" lon="11.903810555863851"><ele>297.0</ele><time>2026-03-24T17:14:45.023Z</time></trkpt><trkpt lat="46.00779898007205" lon="11.904075177667693"><ele>298.0</ele><time>2026-03-24T17:14:46.024Z</time></trkpt><trkpt lat="46.00777321969264" lon="11.90434121474317"><ele>298.0</ele><time>2026-03-24T17:14:47.021Z</time></trkpt><trkpt lat="46.00774584601303" lon="11.90460822570545"><ele>298.0</ele><time>2026-03-24T17:14:48.019Z</time></trkpt><trkpt lat="46.007719772838826" lon="11.904875171763969"><ele>298.0</ele><time>2026-03-24T17:14:49.021Z</time></trkpt><trkpt lat="46.00785835184716" lon="11.905693989258172"><ele>298.3333333333333</ele><time>2026-03-24T17:14:51.999Z</time></trkpt><trkpt lat="46.007897946190305" lon="11.905979653823879"><ele>298.6666666666667</ele><time>2026-03-24T17:14:52.999Z</time></trkpt><trkpt lat="46.00795489222645" lon="11.906325249221648"><ele>299.0</ele><time>2026-03-24T17:14:53.999Z</time></trkpt><trkpt lat="46.008002321903604" lon="11.906650598992172"><ele>298.5</ele><time>2026-03-24T17:14:54.999Z</time></trkpt><trkpt lat="46.00805336037634" lon="11.907002862416872"><ele>298.0</ele><time>2026-03-24T17:14:55.999Z</time></trkpt><trkpt lat="46.00812292715839" lon="11.907374341444513"><ele>295.0</ele><time>2026-03-24T17:14:56.999Z</time></trkpt><trkpt lat="46.00816435254414" lon="11.90777508168721"><ele>292.0</ele><time>2026-03-24T17:14:57.999Z</time></trkpt><trkpt lat="46.00821710107052" lon="11.908147877387266"><ele>290.0</ele><time>2026-03-24T17:14:58.999Z</time></trkpt><trkpt lat="46.00828293850486" lon="11.908494003043275"><ele>288.0</ele><time>2026-03-24T17:14:59.999Z</time></trkpt><trkpt lat="46.00832089690564" lon="11.908824014906166"><ele>291.0</ele><time>2026-03-24T17:15:00.999Z</time></trkpt><trkpt lat="46.008393907961825" lon="11.90913366529547"><ele>294.0</ele><time>2026-03-24T17:15:01.999Z</time></trkpt><trkpt lat="46.00845232104219" lon="11.90946548827169"><ele>294.0</ele><time>2026-03-24T17:15:02.999Z</time></trkpt><trkpt lat="46.00852180160963" lon="11.909761846477586"><ele>294.0</ele><time>2026-03-24T17:15:03.999Z</time></trkpt><trkpt lat="46.008597909306346" lon="11.910062635936917"><ele>294.0</ele><time>2026-03-24T17:15:04.999Z</time></trkpt><trkpt lat="46.00869441622074" lon="11.910350658493694"><ele>291.5</ele><time>2026-03-24T17:15:05.999Z</time></trkpt><trkpt lat="46.00878748760726" lon="11.910651501863258"><ele>289.0</ele><time>2026-03-24T17:15:06.999Z</time></trkpt><trkpt lat="46.00889785185524" lon="11.91093612255429"><ele>288.0</ele><time>2026-03-24T17:15:07.999Z</time></trkpt><trkpt lat="46.00902220623907" lon="11.911208072895818"><ele>287.0</ele><time>2026-03-24T17:15:08.999Z</time></trkpt><trkpt lat="46.00916675286054" lon="11.911470989833779"><ele>292.0</ele><time>2026-03-24T17:15:10.018Z</time></trkpt><trkpt lat="46.00929807048601" lon="11.91174856557404"><ele>297.0</ele><time>2026-03-24T17:15:11.022Z</time></trkpt><trkpt lat="46.00942997594786" lon="11.912027693137132"><ele>297.0</ele><time>2026-03-24T17:15:12.022Z</time></trkpt><trkpt lat="46.00956486600875" lon="11.912315540702851"><ele>297.0</ele><time>2026-03-24T17:15:13.018Z</time></trkpt><trkpt lat="46.011004551132736" lon="11.914339321703622"><ele>291.0</ele><time>2026-03-24T17:15:16.525Z</time></trkpt><trkpt lat="46.01157568399423" lon="11.915457313891421"><ele>285.5</ele><time>2026-03-24T17:15:25.998Z</time></trkpt><trkpt lat="46.01174018617299" lon="11.915696322480416"><ele>280.0</ele><time>2026-03-24T17:15:26.998Z</time></trkpt><trkpt lat="46.01182734727619" lon="11.916182099692213"><ele>280.0</ele><time>2026-03-24T17:15:27.998Z</time></trkpt><trkpt lat="46.011901098106485" lon="11.916493812459345"><ele>280.0</ele><time>2026-03-24T17:15:28.998Z</time></trkpt><trkpt lat="46.011961899408675" lon="11.916820514914656"><ele>279.0</ele><time>2026-03-24T17:15:29.998Z</time></trkpt><trkpt lat="46.012004366470116" lon="11.917144005763014"><ele>278.0</ele><time>2026-03-24T17:15:30.998Z</time></trkpt><trkpt lat="46.01202858398468" lon="11.91746871334486"><ele>275.0</ele><time>2026-03-24T17:15:31.998Z</time></trkpt><trkpt lat="46.01204292095744" lon="11.917804397547274"><ele>272.0</ele><time>2026-03-24T17:15:32.998Z</time></trkpt><trkpt lat="46.01205070570062" lon="11.918134157422397"><ele>271.0</ele><time>2026-03-24T17:15:33.998Z</time></trkpt><trkpt lat="46.01206498315969" lon="11.91846601450175"><ele>270.0</ele><time>2026-03-24T17:15:34.998Z</time></trkpt><trkpt lat="46.01206193887249" lon="11.918779328642911"><ele>269.0</ele><time>2026-03-24T17:15:35.998Z</time></trkpt><trkpt lat="46.01205359407196" lon="11.919077137836334"><ele>267.33333333333337</ele><time>2026-03-24T17:15:36.998Z</time></trkpt><trkpt lat="46.01204800937433" lon="11.919383689930243"><ele>265.6666666666667</ele><time>2026-03-24T17:15:37.998Z</time></trkpt><trkpt lat="46.01202114721504" lon="11.919655019883546"><ele>264.0</ele><time>2026-03-24T17:15:38.998Z</time></trkpt><trkpt lat="46.01200188470776" lon="11.919913709156795"><ele>261.3333333333333</ele><time>2026-03-24T17:15:39.998Z</time></trkpt><trkpt lat="46.01198153391025" lon="11.92016740723246"><ele>258.66666666666663</ele><time>2026-03-24T17:15:40.998Z</time></trkpt><trkpt lat="46.01194946167905" lon="11.920408155641342"><ele>256.0</ele><time>2026-03-24T17:15:41.998Z</time></trkpt><trkpt lat="46.01190878498639" lon="11.920647782501453"><ele>253.0</ele><time>2026-03-24T17:15:42.998Z</time></trkpt><trkpt lat="46.01185466612092" lon="11.920899812339446"><ele>250.0</ele><time>2026-03-24T17:15:43.998Z</time></trkpt><trkpt lat="46.01179344098144" lon="11.92114618979269"><ele>247.0</ele><time>2026-03-24T17:15:44.998Z</time></trkpt><trkpt lat="46.01172136159102" lon="11.92140083831914"><ele>245.66666666666666</ele><time>2026-03-24T17:15:45.998Z</time></trkpt><trkpt lat="46.011639322595876" lon="11.921656495494231"><ele>244.33333333333331</ele><time>2026-03-24T17:15:46.998Z</time></trkpt><trkpt lat="46.011547566840456" lon="11.921927224766513"><ele>243.0</ele><time>2026-03-24T17:15:47.998Z</time></trkpt><trkpt lat="46.01146224061878" lon="11.92216845021074"><ele>242.66666666666669</ele><time>2026-03-24T17:15:48.998Z</time></trkpt><trkpt lat="46.01138086270567" lon="11.922397416346554"><ele>242.33333333333334</ele><time>2026-03-24T17:15:49.998Z</time></trkpt><trkpt lat="46.01131239368705" lon="11.922631024270299"><ele>242.0</ele><time>2026-03-24T17:15:50.998Z</time></trkpt><trkpt lat="46.011227823249754" lon="11.922841557705517"><ele>241.66666666666669</ele><time>2026-03-24T17:15:51.998Z</time></trkpt><trkpt lat="46.01116146686586" lon="11.923055325830166"><ele>241.33333333333331</ele><time>2026-03-24T17:15:52.998Z</time></trkpt><trkpt lat="46.01107427980589" lon="11.923261450868647"><ele>241.0</ele><time>2026-03-24T17:15:53.998Z</time></trkpt><trkpt lat="46.010993521628265" lon="11.923487625556438"><ele>241.0</ele><time>2026-03-24T17:15:54.998Z</time></trkpt><trkpt lat="46.01090957262597" lon="11.923722775067143"><ele>241.0</ele><time>2026-03-24T17:15:56Z</time></trkpt><trkpt lat="46.01082476568583" lon="11.923960673130626"><ele>241.0</ele><time>2026-03-24T17:15:57Z</time></trkpt><trkpt lat="46.01073833309145" lon="11.92420313146501"><ele>241.66666666666666</ele><time>2026-03-24T17:15:58Z</time></trkpt><trkpt lat="46.01065238895504" lon="11.924446160543551"><ele>242.33333333333331</ele><time>2026-03-24T17:15:59Z</time></trkpt><trkpt lat="46.01056802428181" lon="11.924679936853469"><ele>243.0</ele><time>2026-03-24T17:16:00Z</time></trkpt><trkpt lat="46.01048173803974" lon="11.924919663195476"><ele>242.33333333333331</ele><time>2026-03-24T17:16:01Z</time></trkpt><trkpt lat="46.010404668132836" lon="11.92515838705434"><ele>241.66666666666666</ele><time>2026-03-24T17:16:02Z</time></trkpt><trkpt lat="46.010320892698104" lon="11.925391786377393"><ele>241.0</ele><time>2026-03-24T17:16:03Z</time></trkpt><trkpt lat="46.010237863440864" lon="11.925636863449462"><ele>241.0</ele><time>2026-03-24T17:16:04Z</time></trkpt><trkpt lat="46.01011870890717" lon="11.925889814322721"><ele>241.0</ele><time>2026-03-24T17:16:05Z</time></trkpt><trkpt lat="46.010035018126" lon="11.926146350443457"><ele>241.0</ele><time>2026-03-24T17:16:06Z</time></trkpt><trkpt lat="46.00995713832405" lon="11.926384170062594"><ele>241.0</ele><time>2026-03-24T17:16:07Z</time></trkpt><trkpt lat="46.009875487237096" lon="11.926613826907365"><ele>241.0</ele><time>2026-03-24T17:16:08Z</time></trkpt><trkpt lat="46.00981649035571" lon="11.926829936789742"><ele>241.0</ele><time>2026-03-24T17:16:09Z</time></trkpt><trkpt lat="46.0097276654284" lon="11.92702698637296"><ele>241.0</ele><time>2026-03-24T17:16:10Z</time></trkpt><trkpt lat="46.009660942315506" lon="11.927247808352229"><ele>241.0</ele><time>2026-03-24T17:16:11Z</time></trkpt><trkpt lat="46.00959423497899" lon="11.927436655795995"><ele>241.0</ele><time>2026-03-24T17:16:12Z</time></trkpt><trkpt lat="46.00952873556979" lon="11.927621881600148"><ele>241.0</ele><time>2026-03-24T17:16:13Z</time></trkpt><trkpt lat="46.00945626016698" lon="11.927813368137599"><ele>241.0</ele><time>2026-03-24T17:16:14Z</time></trkpt><trkpt lat="46.00938111808501" lon="11.927989162681811"><ele>241.0</ele><time>2026-03-24T17:16:15Z</time></trkpt><trkpt lat="46.00930975683295" lon="11.928189593925119"><ele>241.0</ele><time>2026-03-24T17:16:16Z</time></trkpt><trkpt lat="46.009244549991365" lon="11.928372739534481"><ele>241.0</ele><time>2026-03-24T17:16:17Z</time></trkpt><trkpt lat="46.009185973742674" lon="11.928537261728982"><ele>241.0</ele><time>2026-03-24T17:16:18Z</time></trkpt><trkpt lat="46.00913278677377" lon="11.928686647202696"><ele>241.0</ele><time>2026-03-24T17:16:19Z</time></trkpt><trkpt lat="46.009083832827486" lon="11.928827306445964"><ele>240.0</ele><time>2026-03-24T17:16:20Z</time></trkpt><trkpt lat="46.009040902228136" lon="11.92896710624433"><ele>239.00000000000003</ele><time>2026-03-24T17:16:21Z</time></trkpt><trkpt lat="46.00900299975883" lon="11.92907691247676"><ele>238.00000000000003</ele><time>2026-03-24T17:16:22Z</time></trkpt><trkpt lat="46.0089464521057" lon="11.929193725933654"><ele>237.0</ele><time>2026-03-24T17:16:24Z</time></trkpt><trkpt lat="46.00887279171099" lon="11.929295287479828"><ele>236.0</ele><time>2026-03-24T17:16:26Z</time></trkpt><trkpt lat="46.00881897492687" lon="11.929365588549848"><ele>236.0</ele><time>2026-03-24T17:16:27Z</time></trkpt><trkpt lat="46.00876397827104" lon="11.929451563369302"><ele>236.00000000000003</ele><time>2026-03-24T17:16:28Z</time></trkpt><trkpt lat="46.00868999953729" lon="11.92954005185394"><ele>236.00000000000003</ele><time>2026-03-24T17:16:29Z</time></trkpt><trkpt lat="46.008598084356414" lon="11.92960438400105"><ele>236.0</ele><time>2026-03-24T17:16:30Z</time></trkpt><trkpt lat="46.00849540152053" lon="11.929667250843933"><ele>236.0</ele><time>2026-03-24T17:16:31Z</time></trkpt><trkpt lat="46.00839737716498" lon="11.929761729064127"><ele>235.66666666666669</ele><time>2026-03-24T17:16:32Z</time></trkpt><trkpt lat="46.00830367938092" lon="11.929909643283677"><ele>235.33333333333331</ele><time>2026-03-24T17:16:33Z</time></trkpt><trkpt lat="46.008205889898385" lon="11.930104724945677"><ele>235.0</ele><time>2026-03-24T17:16:34Z</time></trkpt><trkpt lat="46.0080956407948" lon="11.930286667217548"><ele>235.33333333333331</ele><time>2026-03-24T17:16:35Z</time></trkpt><trkpt lat="46.00798413827351" lon="11.930492189630506"><ele>235.66666666666669</ele><time>2026-03-24T17:16:36Z</time></trkpt><trkpt lat="46.00786824593077" lon="11.930705804000652"><ele>236.0</ele><time>2026-03-24T17:16:36.999Z</time></trkpt><trkpt lat="46.007751832878434" lon="11.93094321592285"><ele>236.0</ele><time>2026-03-24T17:16:37.999Z</time></trkpt><trkpt lat="46.00762936184367" lon="11.931175445021886"><ele>236.0</ele><time>2026-03-24T17:16:38.999Z</time></trkpt><trkpt lat="46.007503245262505" lon="11.931406531833673"><ele>236.0</ele><time>2026-03-24T17:16:39.999Z</time></trkpt><trkpt lat="46.00737036714937" lon="11.931650449752519"><ele>235.33333333333334</ele><time>2026-03-24T17:16:40.999Z</time></trkpt><trkpt lat="46.007239164371065" lon="11.931895767780173"><ele>234.66666666666669</ele><time>2026-03-24T17:16:41.999Z</time></trkpt><trkpt lat="46.007114089354396" lon="11.93212674862841"><ele>234.0</ele><time>2026-03-24T17:16:42.999Z</time></trkpt><trkpt lat="46.00698822201224" lon="11.932356011132802"><ele>233.66666666666669</ele><time>2026-03-24T17:16:43.999Z</time></trkpt><trkpt lat="46.006857982058946" lon="11.932597844064203"><ele>233.33333333333334</ele><time>2026-03-24T17:16:44.999Z</time></trkpt><trkpt lat="46.006715623368905" lon="11.932822689902927"><ele>233.0</ele><time>2026-03-24T17:16:45.999Z</time></trkpt><trkpt lat="46.00658112989557" lon="11.933069933482418"><ele>233.0</ele><time>2026-03-24T17:16:46.999Z</time></trkpt><trkpt lat="46.00645097803162" lon="11.93330892719568"><ele>233.0</ele><time>2026-03-24T17:16:47.999Z</time></trkpt><trkpt lat="46.00633520618968" lon="11.933557906558889"><ele>233.0</ele><time>2026-03-24T17:16:48.999Z</time></trkpt><trkpt lat="46.00619475372949" lon="11.933778272677694"><ele>233.0</ele><time>2026-03-24T17:16:49.999Z</time></trkpt><trkpt lat="46.00606804972639" lon="11.934015018179947"><ele>233.0</ele><time>2026-03-24T17:16:50.999Z</time></trkpt><trkpt lat="46.00595399890361" lon="11.934259040563834"><ele>233.0</ele><time>2026-03-24T17:16:51.999Z</time></trkpt><trkpt lat="46.005831057617335" lon="11.934486841898385"><ele>233.33333333333334</ele><time>2026-03-24T17:16:52.999Z</time></trkpt><trkpt lat="46.00570672009036" lon="11.934714866852538"><ele>233.66666666666669</ele><time>2026-03-24T17:16:53.999Z</time></trkpt><trkpt lat="46.00558238461435" lon="11.934942430053503"><ele>234.0</ele><time>2026-03-24T17:16:54.999Z</time></trkpt><trkpt lat="46.005462085250755" lon="11.935172341561584"><ele>233.0</ele><time>2026-03-24T17:16:55.999Z</time></trkpt><trkpt lat="46.00534071167811" lon="11.935399266573496"><ele>232.0</ele><time>2026-03-24T17:16:56.999Z</time></trkpt><trkpt lat="46.00520885198933" lon="11.935616388127436"><ele>231.0</ele><time>2026-03-24T17:16:57.999Z</time></trkpt><trkpt lat="46.005099322629114" lon="11.935832994340794"><ele>231.0</ele><time>2026-03-24T17:16:58.999Z</time></trkpt><trkpt lat="46.00501903640731" lon="11.936056192498372"><ele>231.0</ele><time>2026-03-24T17:16:59.999Z</time></trkpt><trkpt lat="46.00491984927393" lon="11.936242165090553"><ele>231.0</ele><time>2026-03-24T17:17:00.999Z</time></trkpt><trkpt lat="46.004838131603194" lon="11.936436336597625"><ele>231.0</ele><time>2026-03-24T17:17:01.999Z</time></trkpt><trkpt lat="46.00475518842995" lon="11.93662395410632"><ele>231.0</ele><time>2026-03-24T17:17:02.999Z</time></trkpt><trkpt lat="46.00467433676406" lon="11.936813077509226"><ele>231.0</ele><time>2026-03-24T17:17:03.999Z</time></trkpt><trkpt lat="46.00455182440344" lon="11.936976063203963"><ele>231.0</ele><time>2026-03-24T17:17:04.999Z</time></trkpt><trkpt lat="46.004394734452035" lon="11.937099852524424"><ele>231.0</ele><time>2026-03-24T17:17:05.999Z</time></trkpt><trkpt lat="46.00423265326947" lon="11.937206035354778"><ele>231.0</ele><time>2026-03-24T17:17:06.999Z</time></trkpt><trkpt lat="46.00407133350177" lon="11.93730744128601"><ele>230.33333333333331</ele><time>2026-03-24T17:17:07.999Z</time></trkpt><trkpt lat="46.00390693547681" lon="11.93740714542493"><ele>229.66666666666666</ele><time>2026-03-24T17:17:08.999Z</time></trkpt><trkpt lat="46.0037470633128" lon="11.937503711579646"><ele>229.0</ele><time>2026-03-24T17:17:09.999Z</time></trkpt><trkpt lat="46.00359574561875" lon="11.937594588367933"><ele>230.33333333333331</ele><time>2026-03-24T17:17:10.999Z</time></trkpt><trkpt lat="46.003454510017534" lon="11.937681206857166"><ele>231.66666666666669</ele><time>2026-03-24T17:17:11.999Z</time></trkpt><trkpt lat="46.00331158157559" lon="11.937770353155912"><ele>233.0</ele><time>2026-03-24T17:17:12.999Z</time></trkpt><trkpt lat="46.003172927587805" lon="11.937880158601567"><ele>234.66666666666669</ele><time>2026-03-24T17:17:13.999Z</time></trkpt><trkpt lat="46.00302413273131" lon="11.93796556866866"><ele>236.33333333333331</ele><time>2026-03-24T17:17:14.999Z</time></trkpt><trkpt lat="46.00286542990383" lon="11.938031031516811"><ele>238.0</ele><time>2026-03-24T17:17:15.999Z</time></trkpt><trkpt lat="46.002713641778634" lon="11.938139259777342"><ele>238.0</ele><time>2026-03-24T17:17:16.999Z</time></trkpt><trkpt lat="46.00254762272948" lon="11.938227093807505"><ele>238.0</ele><time>2026-03-24T17:17:17.999Z</time></trkpt><trkpt lat="46.00237604585982" lon="11.938315413854458"><ele>238.0</ele><time>2026-03-24T17:17:18.999Z</time></trkpt><trkpt lat="46.00220511288055" lon="11.938409980220962"><ele>241.33333333333331</ele><time>2026-03-24T17:17:19.999Z</time></trkpt><trkpt lat="46.00202865279699" lon="11.938507722700685"><ele>244.66666666666669</ele><time>2026-03-24T17:17:20.999Z</time></trkpt><trkpt lat="46.00185024628289" lon="11.938606541808303"><ele>248.0</ele><time>2026-03-24T17:17:21.999Z</time></trkpt><trkpt lat="46.00167036341035" lon="11.938706799452834"><ele>241.66666666666669</ele><time>2026-03-24T17:17:22.999Z</time></trkpt><trkpt lat="46.00150065315877" lon="11.938800218771537"><ele>235.33333333333331</ele><time>2026-03-24T17:17:23.999Z</time></trkpt><trkpt lat="46.00133887984824" lon="11.938890889880751"><ele>229.0</ele><time>2026-03-24T17:17:24.999Z</time></trkpt><trkpt lat="46.0011767998894" lon="11.938981068751058"><ele>229.0</ele><time>2026-03-24T17:17:25.999Z</time></trkpt><trkpt lat="46.00101922801007" lon="11.939063957253223"><ele>229.0</ele><time>2026-03-24T17:17:26.999Z</time></trkpt><trkpt lat="46.00086344998458" lon="11.939144045926108"><ele>229.0</ele><time>2026-03-24T17:17:27.999Z</time></trkpt><trkpt lat="46.00071175139078" lon="11.93922852753658"><ele>229.33333333333331</ele><time>2026-03-24T17:17:28.999Z</time></trkpt><trkpt lat="46.00056902295521" lon="11.939321766314743"><ele>229.66666666666669</ele><time>2026-03-24T17:17:29.999Z</time></trkpt><trkpt lat="46.00042309180735" lon="11.939421084113436"><ele>230.0</ele><time>2026-03-24T17:17:30.999Z</time></trkpt><trkpt lat="46.00028224026617" lon="11.939524092501214"><ele>230.0</ele><time>2026-03-24T17:17:31.998Z</time></trkpt><trkpt lat="46.00015793880593" lon="11.93964644642765"><ele>230.0</ele><time>2026-03-24T17:17:32.998Z</time></trkpt><trkpt lat="46.00004530728046" lon="11.939804421306459"><ele>230.0</ele><time>2026-03-24T17:17:33.998Z</time></trkpt><trkpt lat="45.999937166053776" lon="11.939977691693482"><ele>231.66666666666669</ele><time>2026-03-24T17:17:34.998Z</time></trkpt><trkpt lat="45.99984097753091" lon="11.940167181829889"><ele>233.33333333333331</ele><time>2026-03-24T17:17:35.998Z</time></trkpt><trkpt lat="45.99976995945798" lon="11.940368751258767"><ele>235.0</ele><time>2026-03-24T17:17:36.998Z</time></trkpt><trkpt lat="45.99971244520158" lon="11.940581398362525"><ele>235.0</ele><time>2026-03-24T17:17:37.998Z</time></trkpt><trkpt lat="45.999675512944314" lon="11.94079859438853"><ele>235.0</ele><time>2026-03-24T17:17:38.998Z</time></trkpt><trkpt lat="45.99966106310557" lon="11.941029290148805"><ele>235.0</ele><time>2026-03-24T17:17:39.998Z</time></trkpt><trkpt lat="45.99965552954496" lon="11.941288794008047"><ele>234.66666666666666</ele><time>2026-03-24T17:17:40.998Z</time></trkpt><trkpt lat="45.99968037986049" lon="11.94154088416557"><ele>234.33333333333331</ele><time>2026-03-24T17:17:41.998Z</time></trkpt><trkpt lat="45.999725243859665" lon="11.941797390189151"><ele>234.0</ele><time>2026-03-24T17:17:42.998Z</time></trkpt><trkpt lat="45.99980172581398" lon="11.942048616025035"><ele>232.66666666666669</ele><time>2026-03-24T17:17:43.998Z</time></trkpt><trkpt lat="45.99989206450186" lon="11.942265439047649"><ele>231.33333333333334</ele><time>2026-03-24T17:17:44.998Z</time></trkpt><trkpt lat="46.00000896516243" lon="11.94246034173955"><ele>230.0</ele><time>2026-03-24T17:17:45.998Z</time></trkpt><trkpt lat="46.00014484662222" lon="11.942653782434212"><ele>229.33333333333334</ele><time>2026-03-24T17:17:46.998Z</time></trkpt><trkpt lat="46.00027631725242" lon="11.942841505158896"><ele>228.66666666666669</ele><time>2026-03-24T17:17:47.998Z</time></trkpt><trkpt lat="46.00039989512602" lon="11.943018936427544"><ele>228.0</ele><time>2026-03-24T17:17:48.998Z</time></trkpt><trkpt lat="46.000511401570996" lon="11.943174028851605"><ele>228.0</ele><time>2026-03-24T17:17:49.998Z</time></trkpt><trkpt lat="46.00061220055754" lon="11.943319117547263"><ele>228.0</ele><time>2026-03-24T17:17:50.998Z</time></trkpt><trkpt lat="46.000703644779136" lon="11.94346556307883"><ele>228.0</ele><time>2026-03-24T17:17:51.998Z</time></trkpt><trkpt lat="46.00078305358131" lon="11.943616439723224"><ele>228.0</ele><time>2026-03-24T17:17:52.998Z</time></trkpt><trkpt lat="46.00084825890504" lon="11.94375420325796"><ele>228.5</ele><time>2026-03-24T17:17:53.998Z</time></trkpt><trkpt lat="46.000906509236245" lon="11.943907936598588"><ele>229.0</ele><time>2026-03-24T17:17:54.998Z</time></trkpt><trkpt lat="46.00096220947752" lon="11.944085424911407"><ele>229.5</ele><time>2026-03-24T17:17:55.998Z</time></trkpt><trkpt lat="46.00100454213674" lon="11.944263469108813"><ele>230.0</ele><time>2026-03-24T17:17:56.998Z</time></trkpt><trkpt lat="46.00103470715866" lon="11.944437284814382"><ele>228.75</ele><time>2026-03-24T17:17:57.998Z</time></trkpt><trkpt lat="46.001051707355764" lon="11.944612602689828"><ele>227.5</ele><time>2026-03-24T17:17:58.998Z</time></trkpt><trkpt lat="46.0010545156682" lon="11.944791524181149"><ele>226.25</ele><time>2026-03-24T17:17:59.998Z</time></trkpt><trkpt lat="46.00104728501078" lon="11.944973927569675"><ele>225.0</ele><time>2026-03-24T17:18:00.998Z</time></trkpt><trkpt lat="46.00103143520907" lon="11.945155527421889"><ele>225.0</ele><time>2026-03-24T17:18:02Z</time></trkpt><trkpt lat="46.00101588936152" lon="11.94533871380512"><ele>225.0</ele><time>2026-03-24T17:18:03Z</time></trkpt><trkpt lat="46.001002146699406" lon="11.945528426196987"><ele>225.0</ele><time>2026-03-24T17:18:04Z</time></trkpt><trkpt lat="46.00097812505354" lon="11.945721101918881"><ele>225.0</ele><time>2026-03-24T17:18:05Z</time></trkpt><trkpt lat="46.00093287394747" lon="11.945916028138681"><ele>224.66666666666669</ele><time>2026-03-24T17:18:06Z</time></trkpt><trkpt lat="46.00089058082119" lon="11.946124537835287"><ele>224.33333333333334</ele><time>2026-03-24T17:18:07Z</time></trkpt><trkpt lat="46.0008307690256" lon="11.946340491263577"><ele>224.0</ele><time>2026-03-24T17:18:08Z</time></trkpt><trkpt lat="46.00074661246303" lon="11.94655635010909"><ele>225.0</ele><time>2026-03-24T17:18:09Z</time></trkpt><trkpt lat="46.00064795804165" lon="11.946786429298232"><ele>226.0</ele><time>2026-03-24T17:18:10Z</time></trkpt><trkpt lat="46.00054878489995" lon="11.947019685858903"><ele>227.0</ele><time>2026-03-24T17:18:11Z</time></trkpt><trkpt lat="46.00044946652758" lon="11.947254759838824"><ele>227.0</ele><time>2026-03-24T17:18:12Z</time></trkpt><trkpt lat="46.000349879757366" lon="11.94749304863774"><ele>227.0</ele><time>2026-03-24T17:18:13Z</time></trkpt><trkpt lat="46.00025756775758" lon="11.947696987471957"><ele>227.0</ele><time>2026-03-24T17:18:14Z</time></trkpt><trkpt lat="46.000160474110245" lon="11.947848052107014"><ele>226.33333333333334</ele><time>2026-03-24T17:18:15Z</time></trkpt><trkpt lat="46.0000332173234" lon="11.947990453015262"><ele>225.66666666666669</ele><time>2026-03-24T17:18:16Z</time></trkpt><trkpt lat="45.99988281473568" lon="11.94810198908699"><ele>225.0</ele><time>2026-03-24T17:18:17Z</time></trkpt><trkpt lat="45.99972435736928" lon="11.948226083476"><ele>225.0</ele><time>2026-03-24T17:18:18Z</time></trkpt><trkpt lat="45.99954277636269" lon="11.948303535547172"><ele>225.0</ele><time>2026-03-24T17:18:19Z</time></trkpt><trkpt lat="45.99936589159451" lon="11.948354664275687"><ele>225.0</ele><time>2026-03-24T17:18:20Z</time></trkpt><trkpt lat="45.99919958481127" lon="11.948371740186815"><ele>225.33333333333331</ele><time>2026-03-24T17:18:21Z</time></trkpt><trkpt lat="45.99904612805195" lon="11.948361526275313"><ele>225.66666666666666</ele><time>2026-03-24T17:18:22Z</time></trkpt><trkpt lat="45.99889679202852" lon="11.948375196427326"><ele>226.0</ele><time>2026-03-24T17:18:23Z</time></trkpt><trkpt lat="45.998739625707394" lon="11.948364687069041"><ele>226.0</ele><time>2026-03-24T17:18:24Z</time></trkpt><trkpt lat="45.99858319753557" lon="11.948357104861547"><ele>226.0</ele><time>2026-03-24T17:18:25Z</time></trkpt><trkpt lat="45.99842738008088" lon="11.948355462203256"><ele>226.0</ele><time>2026-03-24T17:18:26Z</time></trkpt><trkpt lat="45.998267396967485" lon="11.948362350742931"><ele>224.33333333333331</ele><time>2026-03-24T17:18:27Z</time></trkpt><trkpt lat="45.99810774237021" lon="11.948387170402865"><ele>222.66666666666669</ele><time>2026-03-24T17:18:28Z</time></trkpt><trkpt lat="45.99794239127242" lon="11.948395087565611"><ele>221.0</ele><time>2026-03-24T17:18:29Z</time></trkpt><trkpt lat="45.99777347785019" lon="11.948412573984536"><ele>221.0</ele><time>2026-03-24T17:18:30Z</time></trkpt><trkpt lat="45.99759811135487" lon="11.948426449372935"><ele>221.0</ele><time>2026-03-24T17:18:31Z</time></trkpt><trkpt lat="45.99742155604531" lon="11.948439824251905"><ele>221.0</ele><time>2026-03-24T17:18:32Z</time></trkpt><trkpt lat="45.997239098068945" lon="11.948458889489853"><ele>221.0</ele><time>2026-03-24T17:18:33Z</time></trkpt><trkpt lat="45.99704937786661" lon="11.948473566039798"><ele>221.0</ele><time>2026-03-24T17:18:34Z</time></trkpt><trkpt lat="45.99685806926712" lon="11.948492923667796"><ele>221.0</ele><time>2026-03-24T17:18:35Z</time></trkpt><trkpt lat="45.99665549937775" lon="11.948521358176693"><ele>221.0</ele><time>2026-03-24T17:18:36Z</time></trkpt><trkpt lat="45.99645575999546" lon="11.94855924310104"><ele>221.0</ele><time>2026-03-24T17:18:37Z</time></trkpt><trkpt lat="45.9962523095941" lon="11.948618755667425"><ele>221.0</ele><time>2026-03-24T17:18:38Z</time></trkpt><trkpt lat="45.99604631088957" lon="11.948692497252408"><ele>221.0</ele><time>2026-03-24T17:18:39Z</time></trkpt><trkpt lat="45.99585061525415" lon="11.948776449546639"><ele>221.0</ele><time>2026-03-24T17:18:40Z</time></trkpt><trkpt lat="45.99566694356507" lon="11.948866227201075"><ele>221.0</ele><time>2026-03-24T17:18:41Z</time></trkpt><trkpt lat="45.995493676542424" lon="11.948968328315127"><ele>220.33333333333334</ele><time>2026-03-24T17:18:42Z</time></trkpt><trkpt lat="45.995331990494236" lon="11.949065587681352"><ele>219.66666666666669</ele><time>2026-03-24T17:18:42.999Z</time></trkpt><trkpt lat="45.995169968197914" lon="11.949162521891967"><ele>219.0</ele><time>2026-03-24T17:18:43.999Z</time></trkpt><trkpt lat="45.99501377830267" lon="11.949246698444545"><ele>219.33333333333331</ele><time>2026-03-24T17:18:44.999Z</time></trkpt><trkpt lat="45.99485154997383" lon="11.949348955040525"><ele>219.66666666666666</ele><time>2026-03-24T17:18:45.999Z</time></trkpt><trkpt lat="45.994694379026306" lon="11.94947976703036"><ele>220.0</ele><time>2026-03-24T17:18:46.999Z</time></trkpt><trkpt lat="45.99454532498997" lon="11.949604487301418"><ele>220.0</ele><time>2026-03-24T17:18:47.999Z</time></trkpt><trkpt lat="45.99440511950737" lon="11.94974293197033"><ele>220.0</ele><time>2026-03-24T17:18:48.999Z</time></trkpt><trkpt lat="45.994267313935424" lon="11.949905648781288"><ele>220.0</ele><time>2026-03-24T17:18:49.999Z</time></trkpt><trkpt lat="45.99412319290326" lon="11.950077887574084"><ele>219.33333333333331</ele><time>2026-03-24T17:18:50.999Z</time></trkpt><trkpt lat="45.993975099317844" lon="11.950271342099294"><ele>218.66666666666669</ele><time>2026-03-24T17:18:51.999Z</time></trkpt><trkpt lat="45.99382023017772" lon="11.95046096247094"><ele>218.0</ele><time>2026-03-24T17:18:52.999Z</time></trkpt><trkpt lat="45.99367104771517" lon="11.950620444923889"><ele>218.0</ele><time>2026-03-24T17:18:53.999Z</time></trkpt><trkpt lat="45.99355329395672" lon="11.950789159245097"><ele>218.0</ele><time>2026-03-24T17:18:54.999Z</time></trkpt><trkpt lat="45.993417236041815" lon="11.950939113124429"><ele>218.0</ele><time>2026-03-24T17:18:55.999Z</time></trkpt><trkpt lat="45.9932800375888" lon="11.95107274744285"><ele>217.33333333333334</ele><time>2026-03-24T17:18:56.999Z</time></trkpt><trkpt lat="45.99314605473678" lon="11.951206458102588"><ele>216.66666666666669</ele><time>2026-03-24T17:18:57.999Z</time></trkpt><trkpt lat="45.99302424652212" lon="11.951351648783483"><ele>216.0</ele><time>2026-03-24T17:18:58.999Z</time></trkpt><trkpt lat="45.99289362384598" lon="11.951484492227694"><ele>216.0</ele><time>2026-03-24T17:18:59.999Z</time></trkpt><trkpt lat="45.99276337348784" lon="11.951620959789159"><ele>216.0</ele><time>2026-03-24T17:19:00.999Z</time></trkpt><trkpt lat="45.992631529063615" lon="11.951749101301022"><ele>216.0</ele><time>2026-03-24T17:19:01.999Z</time></trkpt><trkpt lat="45.99250390086052" lon="11.95188069743421"><ele>216.33333333333331</ele><time>2026-03-24T17:19:02.999Z</time></trkpt><trkpt lat="45.99237284187578" lon="11.95200541791554"><ele>216.66666666666666</ele><time>2026-03-24T17:19:03.999Z</time></trkpt><trkpt lat="45.99224043754052" lon="11.952124863852767"><ele>217.0</ele><time>2026-03-24T17:19:04.999Z</time></trkpt><trkpt lat="45.992102315705935" lon="11.952236089517191"><ele>217.0</ele><time>2026-03-24T17:19:05.999Z</time></trkpt><trkpt lat="45.99195893758667" lon="11.95234100521792"><ele>217.0</ele><time>2026-03-24T17:19:06.999Z</time></trkpt><trkpt lat="45.99180973606722" lon="11.952449369403926"><ele>217.0</ele><time>2026-03-24T17:19:07.999Z</time></trkpt><trkpt lat="45.99165812534948" lon="11.952551144576702"><ele>216.0</ele><time>2026-03-24T17:19:08.999Z</time></trkpt><trkpt lat="45.991507844916015" lon="11.952652332571686"><ele>215.0</ele><time>2026-03-24T17:19:09.999Z</time></trkpt><trkpt lat="45.99135852511436" lon="11.952747325326886"><ele>214.0</ele><time>2026-03-24T17:19:10.999Z</time></trkpt><trkpt lat="45.99121894178237" lon="11.952834923421019"><ele>214.0</ele><time>2026-03-24T17:19:11.999Z</time></trkpt><trkpt lat="45.991082932110494" lon="11.95292690868354"><ele>214.0</ele><time>2026-03-24T17:19:12.999Z</time></trkpt><trkpt lat="45.99093773504017" lon="11.95300959452915"><ele>214.0</ele><time>2026-03-24T17:19:13.999Z</time></trkpt><trkpt lat="45.99076976244539" lon="11.95307335923517"><ele>215.0</ele><time>2026-03-24T17:19:14.999Z</time></trkpt><trkpt lat="45.99058889212576" lon="11.953101531141716"><ele>216.0</ele><time>2026-03-24T17:19:15.999Z</time></trkpt><trkpt lat="45.99041334348069" lon="11.953128004790088"><ele>217.0</ele><time>2026-03-24T17:19:16.999Z</time></trkpt><trkpt lat="45.9902384343872" lon="11.953161477405214"><ele>217.0</ele><time>2026-03-24T17:19:17.999Z</time></trkpt><trkpt lat="45.99006762714602" lon="11.953192375192474"><ele>217.0</ele><time>2026-03-24T17:19:18.999Z</time></trkpt><trkpt lat="45.989901275567085" lon="11.9532343431217"><ele>217.0</ele><time>2026-03-24T17:19:19.999Z</time></trkpt><trkpt lat="45.989733916626" lon="11.953306369299964"><ele>215.0</ele><time>2026-03-24T17:19:20.999Z</time></trkpt><trkpt lat="45.98957980496624" lon="11.953393853439826"><ele>213.0</ele><time>2026-03-24T17:19:21.999Z</time></trkpt><trkpt lat="45.98943197959276" lon="11.953480994860893"><ele>211.0</ele><time>2026-03-24T17:19:22.999Z</time></trkpt><trkpt lat="45.989296286304935" lon="11.953568633946817"><ele>211.33333333333331</ele><time>2026-03-24T17:19:23.999Z</time></trkpt><trkpt lat="45.98915652199903" lon="11.953663080913357"><ele>211.66666666666669</ele><time>2026-03-24T17:19:24.999Z</time></trkpt><trkpt lat="45.98900689774791" lon="11.953754870442442"><ele>212.0</ele><time>2026-03-24T17:19:25.999Z</time></trkpt><trkpt lat="45.98884436012238" lon="11.9538372134091"><ele>212.0</ele><time>2026-03-24T17:19:26.999Z</time></trkpt><trkpt lat="45.988670037362816" lon="11.95389760771517"><ele>212.0</ele><time>2026-03-24T17:19:27.999Z</time></trkpt><trkpt lat="45.98848342961234" lon="11.953935671931905"><ele>212.0</ele><time>2026-03-24T17:19:28.999Z</time></trkpt><trkpt lat="45.988288835230314" lon="11.953946143806137"><ele>213.0</ele><time>2026-03-24T17:19:29.999Z</time></trkpt><trkpt lat="45.988096319351584" lon="11.953952830459363"><ele>214.0</ele><time>2026-03-24T17:19:30.999Z</time></trkpt><trkpt lat="45.98791950114478" lon="11.953954161078077"><ele>215.0</ele><time>2026-03-24T17:19:31.999Z</time></trkpt><trkpt lat="45.987749452691084" lon="11.953944868140697"><ele>215.0</ele><time>2026-03-24T17:19:32.999Z</time></trkpt><trkpt lat="45.98758140908541" lon="11.953900884389649"><ele>215.0</ele><time>2026-03-24T17:19:33.999Z</time></trkpt><trkpt lat="45.98741909712133" lon="11.953832873096617"><ele>215.0</ele><time>2026-03-24T17:19:34.999Z</time></trkpt><trkpt lat="45.98726019114409" lon="11.953744588901865"><ele>213.66666666666669</ele><time>2026-03-24T17:19:35.999Z</time></trkpt><trkpt lat="45.98710661924345" lon="11.9536480741284"><ele>212.33333333333331</ele><time>2026-03-24T17:19:36.999Z</time></trkpt><trkpt lat="45.986962563529566" lon="11.953554046151105"><ele>211.0</ele><time>2026-03-24T17:19:37.998Z</time></trkpt><trkpt lat="45.9868097778655" lon="11.953486632979006"><ele>210.66666666666666</ele><time>2026-03-24T17:19:38.998Z</time></trkpt><trkpt lat="45.9866469281271" lon="11.953448764278185"><ele>210.33333333333331</ele><time>2026-03-24T17:19:39.998Z</time></trkpt><trkpt lat="45.98648066213181" lon="11.953438306365852"><ele>210.0</ele><time>2026-03-24T17:19:40.998Z</time></trkpt><trkpt lat="45.98630546899161" lon="11.953431065459126"><ele>210.0</ele><time>2026-03-24T17:19:41.998Z</time></trkpt><trkpt lat="45.98612831234313" lon="11.953439849316116"><ele>210.0</ele><time>2026-03-24T17:19:42.998Z</time></trkpt><trkpt lat="45.9859494975188" lon="11.953440771206802"><ele>210.0</ele><time>2026-03-24T17:19:43.998Z</time></trkpt><trkpt lat="45.98577284578437" lon="11.953427504127283"><ele>209.33333333333331</ele><time>2026-03-24T17:19:44.998Z</time></trkpt><trkpt lat="45.985606744261425" lon="11.953404820270853"><ele>208.66666666666666</ele><time>2026-03-24T17:19:45.998Z</time></trkpt><trkpt lat="45.985453337233416" lon="11.953382174214775"><ele>208.0</ele><time>2026-03-24T17:19:46.998Z</time></trkpt><trkpt lat="45.98530323183477" lon="11.95335922230024"><ele>209.5</ele><time>2026-03-24T17:19:47.998Z</time></trkpt><trkpt lat="45.98516693543983" lon="11.95333673144325"><ele>211.0</ele><time>2026-03-24T17:19:48.998Z</time></trkpt><trkpt lat="45.98502708795104" lon="11.953323616572305"><ele>212.5</ele><time>2026-03-24T17:19:49.998Z</time></trkpt><trkpt lat="45.98488515492091" lon="11.95325852649993"><ele>214.0</ele><time>2026-03-24T17:19:50.998Z</time></trkpt><trkpt lat="45.9847602134994" lon="11.95313727940796"><ele>214.0</ele><time>2026-03-24T17:19:51.998Z</time></trkpt><trkpt lat="45.98463567297889" lon="11.953004865434398"><ele>214.0</ele><time>2026-03-24T17:19:52.998Z</time></trkpt><trkpt lat="45.984508725221595" lon="11.952852377950254"><ele>214.0</ele><time>2026-03-24T17:19:53.998Z</time></trkpt><trkpt lat="45.984372643654915" lon="11.952690104810717"><ele>214.0</ele><time>2026-03-24T17:19:54.998Z</time></trkpt><trkpt lat="45.98423321409224" lon="11.952522789371995"><ele>214.0</ele><time>2026-03-24T17:19:55.998Z</time></trkpt><trkpt lat="45.9840890278819" lon="11.952350432013342"><ele>214.0</ele><time>2026-03-24T17:19:56.998Z</time></trkpt><trkpt lat="45.98395419951965" lon="11.952189121368388"><ele>214.0</ele><time>2026-03-24T17:19:57.998Z</time></trkpt><trkpt lat="45.983823349266416" lon="11.952031297356056"><ele>214.0</ele><time>2026-03-24T17:19:58.998Z</time></trkpt><trkpt lat="45.98369586872551" lon="11.951876101768201"><ele>214.0</ele><time>2026-03-24T17:19:59.998Z</time></trkpt><trkpt lat="45.9835724017434" lon="11.951725792655232"><ele>213.33333333333331</ele><time>2026-03-24T17:20:00.998Z</time></trkpt><trkpt lat="45.983444954980044" lon="11.951570551335479"><ele>212.66666666666669</ele><time>2026-03-24T17:20:01.998Z</time></trkpt><trkpt lat="45.983322754182176" lon="11.951412906763775"><ele>212.0</ele><time>2026-03-24T17:20:02.998Z</time></trkpt><trkpt lat="45.983190257995716" lon="11.951263217493677"><ele>212.0</ele><time>2026-03-24T17:20:03.998Z</time></trkpt><trkpt lat="45.98307663600952" lon="11.951085198562128"><ele>212.0</ele><time>2026-03-24T17:20:04.998Z</time></trkpt><trkpt lat="45.98296653383547" lon="11.950900099098162"><ele>212.0</ele><time>2026-03-24T17:20:05.998Z</time></trkpt><trkpt lat="45.98285935408681" lon="11.950709956660122"><ele>219.0</ele><time>2026-03-24T17:20:06.998Z</time></trkpt><trkpt lat="45.98275063598627" lon="11.950504661098432"><ele>226.0</ele><time>2026-03-24T17:20:08Z</time></trkpt><trkpt lat="45.98264325398592" lon="11.950280913973428"><ele>233.0</ele><time>2026-03-24T17:20:09Z</time></trkpt><trkpt lat="45.98254077056871" lon="11.95004256963529"><ele>226.66666666666669</ele><time>2026-03-24T17:20:10Z</time></trkpt><trkpt lat="45.98244106823818" lon="11.94978588138017"><ele>220.33333333333331</ele><time>2026-03-24T17:20:11Z</time></trkpt><trkpt lat="45.98234708219914" lon="11.949519141231775"><ele>214.0</ele><time>2026-03-24T17:20:12Z</time></trkpt><trkpt lat="45.98225535210088" lon="11.94924982576642"><ele>218.33333333333331</ele><time>2026-03-24T17:20:13Z</time></trkpt><trkpt lat="45.98215806776613" lon="11.948983394498898"><ele>222.66666666666669</ele><time>2026-03-24T17:20:14Z</time></trkpt><trkpt lat="45.98206381695566" lon="11.94872254921366"><ele>227.0</ele><time>2026-03-24T17:20:15Z</time></trkpt><trkpt lat="45.981976798508406" lon="11.948477229111703"><ele>232.0</ele><time>2026-03-24T17:20:16Z</time></trkpt><trkpt lat="45.98189609053602" lon="11.94825058346339"><ele>237.0</ele><time>2026-03-24T17:20:17Z</time></trkpt><trkpt lat="45.98182051223009" lon="11.94803371937032"><ele>242.0</ele><time>2026-03-24T17:20:18Z</time></trkpt><trkpt lat="45.98174669338373" lon="11.947818655316462"><ele>233.0</ele><time>2026-03-24T17:20:19Z</time></trkpt><trkpt lat="45.98166947144646" lon="11.947606756776018"><ele>224.0</ele><time>2026-03-24T17:20:20Z</time></trkpt><trkpt lat="45.981593408301386" lon="11.947395160695041"><ele>215.0</ele><time>2026-03-24T17:20:21Z</time></trkpt><trkpt lat="45.981520221104695" lon="11.947179951807632"><ele>215.0</ele><time>2026-03-24T17:20:22Z</time></trkpt><trkpt lat="45.98144181467767" lon="11.946969518872834"><ele>215.0</ele><time>2026-03-24T17:20:23Z</time></trkpt><trkpt lat="45.981356122428046" lon="11.946764991194835"><ele>215.0</ele><time>2026-03-24T17:20:24Z</time></trkpt><trkpt lat="45.98125806749803" lon="11.946561585406362"><ele>219.0</ele><time>2026-03-24T17:20:25Z</time></trkpt><trkpt lat="45.98117085138456" lon="11.946346129732145"><ele>223.0</ele><time>2026-03-24T17:20:26Z</time></trkpt><trkpt lat="45.98106580502105" lon="11.946140881283986"><ele>227.0</ele><time>2026-03-24T17:20:27Z</time></trkpt><trkpt lat="45.98094692276881" lon="11.945923634269498"><ele>221.66666666666669</ele><time>2026-03-24T17:20:28Z</time></trkpt><trkpt lat="45.98082263667351" lon="11.9457113077569"><ele>216.33333333333331</ele><time>2026-03-24T17:20:29Z</time></trkpt><trkpt lat="45.9806864962909" lon="11.945493218213281"><ele>211.0</ele><time>2026-03-24T17:20:30Z</time></trkpt><trkpt lat="45.98054365237963" lon="11.945275782707178"><ele>211.0</ele><time>2026-03-24T17:20:31Z</time></trkpt><trkpt lat="45.98040691322173" lon="11.945076142787999"><ele>211.0</ele><time>2026-03-24T17:20:32Z</time></trkpt><trkpt lat="45.980272609979615" lon="11.944882211207567"><ele>211.0</ele><time>2026-03-24T17:20:33Z</time></trkpt><trkpt lat="45.98013447106427" lon="11.944683399835528"><ele>211.66666666666666</ele><time>2026-03-24T17:20:34Z</time></trkpt><trkpt lat="45.979985561736434" lon="11.944469230352999"><ele>212.33333333333331</ele><time>2026-03-24T17:20:35Z</time></trkpt><trkpt lat="45.9798109915143" lon="11.944283001676185"><ele>213.0</ele><time>2026-03-24T17:20:36Z</time></trkpt><trkpt lat="45.979659298893836" lon="11.944050245324004"><ele>213.0</ele><time>2026-03-24T17:20:37Z</time></trkpt><trkpt lat="45.97952269375231" lon="11.943840048566754"><ele>213.0</ele><time>2026-03-24T17:20:38Z</time></trkpt><trkpt lat="45.97938740176839" lon="11.943641874441829"><ele>213.0</ele><time>2026-03-24T17:20:39Z</time></trkpt><trkpt lat="45.979260878139876" lon="11.943453585044995"><ele>212.33333333333331</ele><time>2026-03-24T17:20:40Z</time></trkpt><trkpt lat="45.97912937741054" lon="11.94326601667025"><ele>211.66666666666666</ele><time>2026-03-24T17:20:41Z</time></trkpt><trkpt lat="45.97900195472806" lon="11.943048116808704"><ele>211.0</ele><time>2026-03-24T17:20:42Z</time></trkpt><trkpt lat="45.97886130869771" lon="11.942845183462563"><ele>211.0</ele><time>2026-03-24T17:20:43Z</time></trkpt><trkpt lat="45.97871276068774" lon="11.942665288492206"><ele>211.0</ele><time>2026-03-24T17:20:44Z</time></trkpt><trkpt lat="45.978582816668684" lon="11.94247360587981"><ele>211.0</ele><time>2026-03-24T17:20:45Z</time></trkpt><trkpt lat="45.97845808991144" lon="11.942292740083252"><ele>210.33333333333331</ele><time>2026-03-24T17:20:45.999Z</time></trkpt><trkpt lat="45.97833712556935" lon="11.942112590976295"><ele>209.66666666666669</ele><time>2026-03-24T17:20:46.999Z</time></trkpt><trkpt lat="45.978222821274436" lon="11.941916644934699"><ele>209.0</ele><time>2026-03-24T17:20:47.999Z</time></trkpt><trkpt lat="45.978094982501375" lon="11.941731603462575"><ele>210.66666666666669</ele><time>2026-03-24T17:20:48.999Z</time></trkpt><trkpt lat="45.977951965741596" lon="11.94155990260958"><ele>212.33333333333331</ele><time>2026-03-24T17:20:49.999Z</time></trkpt><trkpt lat="45.97782781922502" lon="11.941350826379962"><ele>214.0</ele><time>2026-03-24T17:20:50.999Z</time></trkpt><trkpt lat="45.97767763550796" lon="11.941167783826355"><ele>214.0</ele><time>2026-03-24T17:20:51.999Z</time></trkpt><trkpt lat="45.97753812459215" lon="11.940964183768983"><ele>214.0</ele><time>2026-03-24T17:20:52.999Z</time></trkpt><trkpt lat="45.9773998815611" lon="11.940763256134769"><ele>214.0</ele><time>2026-03-24T17:20:53.999Z</time></trkpt><trkpt lat="45.977272041720056" lon="11.94054769015924"><ele>212.33333333333331</ele><time>2026-03-24T17:20:54.999Z</time></trkpt><trkpt lat="45.97712776654704" lon="11.940342251968666"><ele>210.66666666666669</ele><time>2026-03-24T17:20:55.999Z</time></trkpt><trkpt lat="45.976953551893295" lon="11.940124348958015"><ele>209.0</ele><time>2026-03-24T17:20:56.999Z</time></trkpt><trkpt lat="45.97679388277029" lon="11.939862777155158"><ele>207.0</ele><time>2026-03-24T17:20:57.999Z</time></trkpt><trkpt lat="45.97661063470984" lon="11.939616288833784"><ele>205.0</ele><time>2026-03-24T17:20:58.999Z</time></trkpt><trkpt lat="45.976443660447956" lon="11.939374453804353"><ele>206.0</ele><time>2026-03-24T17:20:59.999Z</time></trkpt><trkpt lat="45.97628742833943" lon="11.939156146021844"><ele>207.0</ele><time>2026-03-24T17:21:00.999Z</time></trkpt><trkpt lat="45.97614905452634" lon="11.938943930788636"><ele>208.0</ele><time>2026-03-24T17:21:01.999Z</time></trkpt><trkpt lat="45.97600705347046" lon="11.93873831707582"><ele>208.0</ele><time>2026-03-24T17:21:02.999Z</time></trkpt><trkpt lat="45.97585862556756" lon="11.938520482642405"><ele>208.0</ele><time>2026-03-24T17:21:03.999Z</time></trkpt><trkpt lat="45.97570812609289" lon="11.938299448647594"><ele>208.0</ele><time>2026-03-24T17:21:04.999Z</time></trkpt><trkpt lat="45.97556028249848" lon="11.938094066863819"><ele>210.66666666666666</ele><time>2026-03-24T17:21:05.999Z</time></trkpt><trkpt lat="45.9754108182931" lon="11.937928044187611"><ele>213.33333333333331</ele><time>2026-03-24T17:21:06.999Z</time></trkpt><trkpt lat="45.97525825715313" lon="11.937794809623373"><ele>216.0</ele><time>2026-03-24T17:21:07.999Z</time></trkpt><trkpt lat="45.97509299352957" lon="11.937687951629409"><ele>217.33333333333331</ele><time>2026-03-24T17:21:08.999Z</time></trkpt><trkpt lat="45.97491171096218" lon="11.937606502275509"><ele>218.66666666666666</ele><time>2026-03-24T17:21:09.999Z</time></trkpt><trkpt lat="45.97472307048538" lon="11.937522910591648"><ele>220.0</ele><time>2026-03-24T17:21:10.999Z</time></trkpt><trkpt lat="45.97452927721338" lon="11.937424988529852"><ele>220.0</ele><time>2026-03-24T17:21:11.999Z</time></trkpt><trkpt lat="45.974329926126266" lon="11.937332406127169"><ele>220.0</ele><time>2026-03-24T17:21:12.999Z</time></trkpt><trkpt lat="45.974126895282026" lon="11.937236410925427"><ele>220.0</ele><time>2026-03-24T17:21:13.999Z</time></trkpt><trkpt lat="45.973915811675724" lon="11.937135962026039"><ele>215.66666666666666</ele><time>2026-03-24T17:21:14.999Z</time></trkpt><trkpt lat="45.97370761483051" lon="11.937037952352489"><ele>211.33333333333331</ele><time>2026-03-24T17:21:15.999Z</time></trkpt><trkpt lat="45.97351901477584" lon="11.936943517959898"><ele>207.0</ele><time>2026-03-24T17:21:16.999Z</time></trkpt><trkpt lat="45.97335035986753" lon="11.936853839868531"><ele>205.66666666666669</ele><time>2026-03-24T17:21:17.999Z</time></trkpt><trkpt lat="45.97319350483869" lon="11.936768326655178"><ele>204.33333333333334</ele><time>2026-03-24T17:21:18.999Z</time></trkpt><trkpt lat="45.97304156882935" lon="11.93666188807551"><ele>203.0</ele><time>2026-03-24T17:21:19.999Z</time></trkpt><trkpt lat="45.97290945843357" lon="11.936484738945456"><ele>203.0</ele><time>2026-03-24T17:21:20.999Z</time></trkpt><trkpt lat="45.97276313278894" lon="11.93629149519107"><ele>203.0</ele><time>2026-03-24T17:21:21.999Z</time></trkpt><trkpt lat="45.97261666211955" lon="11.936094841488567"><ele>203.0</ele><time>2026-03-24T17:21:22.999Z</time></trkpt><trkpt lat="45.972456410214534" lon="11.935903972465166"><ele>205.33333333333334</ele><time>2026-03-24T17:21:23.999Z</time></trkpt><trkpt lat="45.972312042111184" lon="11.935670433196528"><ele>207.66666666666669</ele><time>2026-03-24T17:21:24.999Z</time></trkpt><trkpt lat="45.97218260930788" lon="11.935404941356621"><ele>210.0</ele><time>2026-03-24T17:21:25.999Z</time></trkpt><trkpt lat="45.972020011516236" lon="11.935171757005557"><ele>214.5</ele><time>2026-03-24T17:21:26.999Z</time></trkpt><trkpt lat="45.97186191452061" lon="11.934931666185404"><ele>219.0</ele><time>2026-03-24T17:21:27.999Z</time></trkpt><trkpt lat="45.97169881910163" lon="11.934700934387259"><ele>216.33333333333331</ele><time>2026-03-24T17:21:28.999Z</time></trkpt><trkpt lat="45.97153405929472" lon="11.93448003450781"><ele>213.66666666666666</ele><time>2026-03-24T17:21:29.999Z</time></trkpt><trkpt lat="45.971376858061866" lon="11.934277802436272"><ele>211.0</ele><time>2026-03-24T17:21:30.999Z</time></trkpt><trkpt lat="45.97122006048226" lon="11.934096681908057"><ele>211.0</ele><time>2026-03-24T17:21:31.999Z</time></trkpt><trkpt lat="45.97106412281818" lon="11.933935769955088"><ele>211.0</ele><time>2026-03-24T17:21:32.999Z</time></trkpt><trkpt lat="45.97090305841774" lon="11.933782222859225"><ele>211.0</ele><time>2026-03-24T17:21:33.999Z</time></trkpt><trkpt lat="45.97074491182305" lon="11.933642733362795"><ele>209.33333333333331</ele><time>2026-03-24T17:21:34.999Z</time></trkpt><trkpt lat="45.97058603224718" lon="11.933516465649445"><ele>207.66666666666669</ele><time>2026-03-24T17:21:35.999Z</time></trkpt><trkpt lat="45.970421086168216" lon="11.933415057125966"><ele>206.0</ele><time>2026-03-24T17:21:36.999Z</time></trkpt><trkpt lat="45.97025194120633" lon="11.933345147403026"><ele>206.0</ele><time>2026-03-24T17:21:37.999Z</time></trkpt><trkpt lat="45.97007586866928" lon="11.93330500020711"><ele>206.0</ele><time>2026-03-24T17:21:38.999Z</time></trkpt><trkpt lat="45.96989554533388" lon="11.933274694858474"><ele>206.0</ele><time>2026-03-24T17:21:39.998Z</time></trkpt><trkpt lat="45.969712800340105" lon="11.933277943804459"><ele>206.33333333333334</ele><time>2026-03-24T17:21:40.998Z</time></trkpt><trkpt lat="45.96952666962389" lon="11.933276778807327"><ele>206.66666666666669</ele><time>2026-03-24T17:21:41.998Z</time></trkpt><trkpt lat="45.96933285566439" lon="11.933287907715163"><ele>207.0</ele><time>2026-03-24T17:21:42.998Z</time></trkpt><trkpt lat="45.969135839802966" lon="11.93330287521679"><ele>207.0</ele><time>2026-03-24T17:21:43.998Z</time></trkpt><trkpt lat="45.96893229784972" lon="11.933330353293048"><ele>207.0</ele><time>2026-03-24T17:21:44.998Z</time></trkpt><trkpt lat="45.96873179464899" lon="11.933344808575105"><ele>207.0</ele><time>2026-03-24T17:21:45.998Z</time></trkpt><trkpt lat="45.96853076314717" lon="11.93336523482096"><ele>208.66666666666669</ele><time>2026-03-24T17:21:46.998Z</time></trkpt><trkpt lat="45.96832837570305" lon="11.933353013834136"><ele>210.33333333333334</ele><time>2026-03-24T17:21:47.998Z</time></trkpt><trkpt lat="45.96813297575042" lon="11.933339689995858"><ele>212.0</ele><time>2026-03-24T17:21:48.998Z</time></trkpt><trkpt lat="45.96793282827791" lon="11.933301122559918"><ele>212.0</ele><time>2026-03-24T17:21:49.998Z</time></trkpt><trkpt lat="45.967727568084364" lon="11.933237723058218"><ele>212.0</ele><time>2026-03-24T17:21:50.998Z</time></trkpt><trkpt lat="45.967513364827745" lon="11.933146786085098"><ele>212.0</ele><time>2026-03-24T17:21:51.998Z</time></trkpt><trkpt lat="45.96729336896011" lon="11.93304307132029"><ele>207.5</ele><time>2026-03-24T17:21:52.998Z</time></trkpt><trkpt lat="45.96706322636076" lon="11.932949355273175"><ele>203.0</ele><time>2026-03-24T17:21:53.998Z</time></trkpt><trkpt lat="45.9668314737736" lon="11.932827970731353"><ele>200.0</ele><time>2026-03-24T17:21:54.998Z</time></trkpt><trkpt lat="45.9666078585403" lon="11.932693590002561"><ele>197.0</ele><time>2026-03-24T17:21:55.998Z</time></trkpt><trkpt lat="45.966397565406474" lon="11.932568440123564"><ele>198.33333333333334</ele><time>2026-03-24T17:21:56.998Z</time></trkpt><trkpt lat="45.96620939383922" lon="11.932449207770297"><ele>199.66666666666669</ele><time>2026-03-24T17:21:57.998Z</time></trkpt><trkpt lat="45.96603186390554" lon="11.932331162754167"><ele>201.0</ele><time>2026-03-24T17:21:58.998Z</time></trkpt><trkpt lat="45.9658521809664" lon="11.932229111420378"><ele>201.0</ele><time>2026-03-24T17:21:59.998Z</time></trkpt><trkpt lat="45.96568002167584" lon="11.932111153629865"><ele>201.0</ele><time>2026-03-24T17:22:00.998Z</time></trkpt><trkpt lat="45.96550140311991" lon="11.93202008237939"><ele>201.0</ele><time>2026-03-24T17:22:01.998Z</time></trkpt><trkpt lat="45.96532317888989" lon="11.931944279280403"><ele>201.0</ele><time>2026-03-24T17:22:02.998Z</time></trkpt><trkpt lat="45.96514241728066" lon="11.93189109177844"><ele>201.0</ele><time>2026-03-24T17:22:03.998Z</time></trkpt><trkpt lat="45.964962271821214" lon="11.931879538540342"><ele>201.0</ele><time>2026-03-24T17:22:04.998Z</time></trkpt><trkpt lat="45.96478526022691" lon="11.931897561508293"><ele>200.0</ele><time>2026-03-24T17:22:05.998Z</time></trkpt><trkpt lat="45.96460863194639" lon="11.931954211615418"><ele>199.0</ele><time>2026-03-24T17:22:06.998Z</time></trkpt><trkpt lat="45.96443121151743" lon="11.932046812547386"><ele>198.0</ele><time>2026-03-24T17:22:07.998Z</time></trkpt><trkpt lat="45.96424487788532" lon="11.932166243906853"><ele>199.66666666666669</ele><time>2026-03-24T17:22:08.998Z</time></trkpt><trkpt lat="45.96405589780808" lon="11.932277201809503"><ele>201.33333333333334</ele><time>2026-03-24T17:22:09.998Z</time></trkpt><trkpt lat="45.96385341825749" lon="11.932398467375263"><ele>203.0</ele><time>2026-03-24T17:22:10.998Z</time></trkpt><trkpt lat="45.963641519804675" lon="11.932524149415931"><ele>199.5</ele><time>2026-03-24T17:22:11.998Z</time></trkpt><trkpt lat="45.963419736607754" lon="11.932622924132563"><ele>196.0</ele><time>2026-03-24T17:22:12.998Z</time></trkpt><trkpt lat="45.963187059461966" lon="11.93274409761482"><ele>196.0</ele><time>2026-03-24T17:22:14Z</time></trkpt><trkpt lat="45.96295122904072" lon="11.932856038579633"><ele>196.0</ele><time>2026-03-24T17:22:15Z</time></trkpt><trkpt lat="45.96271453714885" lon="11.93295236757931"><ele>199.5</ele><time>2026-03-24T17:22:16Z</time></trkpt><trkpt lat="45.962465813515145" lon="11.933044404500768"><ele>203.0</ele><time>2026-03-24T17:22:17Z</time></trkpt><trkpt lat="45.962212567649146" lon="11.933123525837422"><ele>203.0</ele><time>2026-03-24T17:22:18Z</time></trkpt><trkpt lat="45.961950943154555" lon="11.93320498436233"><ele>203.0</ele><time>2026-03-24T17:22:19Z</time></trkpt><trkpt lat="45.961697374384514" lon="11.933304540605574"><ele>206.5</ele><time>2026-03-24T17:22:20Z</time></trkpt><trkpt lat="45.961440267617775" lon="11.93335775796201"><ele>210.0</ele><time>2026-03-24T17:22:21Z</time></trkpt><trkpt lat="45.9612139199256" lon="11.933424988506005"><ele>206.66666666666669</ele><time>2026-03-24T17:22:22Z</time></trkpt><trkpt lat="45.96100348647711" lon="11.93350478325649"><ele>203.33333333333334</ele><time>2026-03-24T17:22:23Z</time></trkpt><trkpt lat="45.96079931563871" lon="11.933563009366559"><ele>200.0</ele><time>2026-03-24T17:22:24Z</time></trkpt><trkpt lat="45.96059537629994" lon="11.933628689389128"><ele>200.0</ele><time>2026-03-24T17:22:25Z</time></trkpt><trkpt lat="45.96038974767974" lon="11.93368988327429"><ele>200.0</ele><time>2026-03-24T17:22:26Z</time></trkpt><trkpt lat="45.96017560275209" lon="11.933745286726303"><ele>200.0</ele><time>2026-03-24T17:22:27Z</time></trkpt><trkpt lat="45.959959740700555" lon="11.933805138071298"><ele>202.0</ele><time>2026-03-24T17:22:28Z</time></trkpt><trkpt lat="45.95974934755317" lon="11.933865456369452"><ele>204.0</ele><time>2026-03-24T17:22:29Z</time></trkpt><trkpt lat="45.9595331787761" lon="11.933920670911188"><ele>206.0</ele><time>2026-03-24T17:22:30Z</time></trkpt><trkpt lat="45.95930776795675" lon="11.933938344667"><ele>205.5</ele><time>2026-03-24T17:22:31Z</time></trkpt><trkpt lat="45.95907419474646" lon="11.93394895030756"><ele>205.0</ele><time>2026-03-24T17:22:32Z</time></trkpt><trkpt lat="45.95884634202067" lon="11.933936970928585"><ele>205.0</ele><time>2026-03-24T17:22:33Z</time></trkpt><trkpt lat="45.95862073191086" lon="11.933899728172943"><ele>205.0</ele><time>2026-03-24T17:22:34Z</time></trkpt><trkpt lat="45.95839691368691" lon="11.93383818272342"><ele>203.5</ele><time>2026-03-24T17:22:35Z</time></trkpt><trkpt lat="45.95817382652758" lon="11.933750180373014"><ele>202.0</ele><time>2026-03-24T17:22:36Z</time></trkpt><trkpt lat="45.95794511884659" lon="11.93364322804809"><ele>202.0</ele><time>2026-03-24T17:22:37Z</time></trkpt><trkpt lat="45.957717216382214" lon="11.933516385968346"><ele>202.0</ele><time>2026-03-24T17:22:38Z</time></trkpt><trkpt lat="45.9575124343868" lon="11.933386929392224"><ele>206.33333333333331</ele><time>2026-03-24T17:22:39Z</time></trkpt><trkpt lat="45.95732524430071" lon="11.933252673154973"><ele>210.66666666666669</ele><time>2026-03-24T17:22:40Z</time></trkpt><trkpt lat="45.95714952659421" lon="11.933101474195952"><ele>215.0</ele><time>2026-03-24T17:22:41Z</time></trkpt><trkpt lat="45.95698402459725" lon="11.932922919836473"><ele>215.0</ele><time>2026-03-24T17:22:42Z</time></trkpt><trkpt lat="45.95681897980873" lon="11.93272468364091"><ele>215.0</ele><time>2026-03-24T17:22:43Z</time></trkpt><trkpt lat="45.95665675021528" lon="11.932514530605406"><ele>215.0</ele><time>2026-03-24T17:22:44Z</time></trkpt><trkpt lat="45.956507655924874" lon="11.932310071636767"><ele>215.33333333333334</ele><time>2026-03-24T17:22:45Z</time></trkpt><trkpt lat="45.95637367163747" lon="11.932114672457315"><ele>215.66666666666669</ele><time>2026-03-24T17:22:46Z</time></trkpt><trkpt lat="45.95625668379076" lon="11.931936063446084"><ele>216.0</ele><time>2026-03-24T17:22:47Z</time></trkpt><trkpt lat="45.956138437989615" lon="11.931772998728817"><ele>213.33333333333331</ele><time>2026-03-24T17:22:48Z</time></trkpt><trkpt lat="45.95603389529352" lon="11.931576826769728"><ele>210.66666666666666</ele><time>2026-03-24T17:22:49Z</time></trkpt><trkpt lat="45.95594375479668" lon="11.931381572555344"><ele>208.0</ele><time>2026-03-24T17:22:50Z</time></trkpt><trkpt lat="45.95586456041083" lon="11.931179465277951"><ele>208.0</ele><time>2026-03-24T17:22:51Z</time></trkpt><trkpt lat="45.95577447741843" lon="11.930983556517331"><ele>208.0</ele><time>2026-03-24T17:22:52Z</time></trkpt><trkpt lat="45.95567992855861" lon="11.930782450165857"><ele>208.0</ele><time>2026-03-24T17:22:53Z</time></trkpt><trkpt lat="45.95559575587385" lon="11.930563115541249"><ele>212.33333333333331</ele><time>2026-03-24T17:22:54Z</time></trkpt><trkpt lat="45.955513330658064" lon="11.930343970738896"><ele>216.66666666666669</ele><time>2026-03-24T17:22:55Z</time></trkpt><trkpt lat="45.955422753165124" lon="11.930126521971513"><ele>221.0</ele><time>2026-03-24T17:22:56Z</time></trkpt><trkpt lat="45.95531318407092" lon="11.929932040430085"><ele>216.0</ele><time>2026-03-24T17:22:57Z</time></trkpt><trkpt lat="45.95519108141474" lon="11.929729640551596"><ele>211.0</ele><time>2026-03-24T17:22:57.999Z</time></trkpt><trkpt lat="45.95504334854374" lon="11.929557507170161"><ele>206.0</ele><time>2026-03-24T17:22:58.999Z</time></trkpt><trkpt lat="45.95488123624223" lon="11.929385871012121"><ele>206.0</ele><time>2026-03-24T17:22:59.999Z</time></trkpt><trkpt lat="45.95469565489783" lon="11.929254105493948"><ele>206.0</ele><time>2026-03-24T17:23:00.999Z</time></trkpt><trkpt lat="45.95450592881667" lon="11.929121760150826"><ele>206.0</ele><time>2026-03-24T17:23:01.999Z</time></trkpt><trkpt lat="45.954308636417316" lon="11.928984136894021"><ele>206.33333333333334</ele><time>2026-03-24T17:23:02.999Z</time></trkpt><trkpt lat="45.95410206008489" lon="11.928865522109042"><ele>206.66666666666669</ele><time>2026-03-24T17:23:03.999Z</time></trkpt><trkpt lat="45.95390971856002" lon="11.928723714837249"><ele>207.0</ele><time>2026-03-24T17:23:04.999Z</time></trkpt><trkpt lat="45.95372822350438" lon="11.928589374799985"><ele>207.0</ele><time>2026-03-24T17:23:05.999Z</time></trkpt><trkpt lat="45.953549616679474" lon="11.928456307471388"><ele>207.0</ele><time>2026-03-24T17:23:06.999Z</time></trkpt><trkpt lat="45.953370267845024" lon="11.928313923454398"><ele>207.0</ele><time>2026-03-24T17:23:07.999Z</time></trkpt><trkpt lat="45.95319024475972" lon="11.928158519784098"><ele>208.33333333333331</ele><time>2026-03-24T17:23:08.999Z</time></trkpt><trkpt lat="45.953016720300944" lon="11.9279885780621"><ele>209.66666666666666</ele><time>2026-03-24T17:23:09.999Z</time></trkpt><trkpt lat="45.95284579672202" lon="11.927799444724856"><ele>211.0</ele><time>2026-03-24T17:23:10.999Z</time></trkpt><trkpt lat="45.95267118734" lon="11.92760391704086"><ele>208.5</ele><time>2026-03-24T17:23:11.999Z</time></trkpt><trkpt lat="45.95248906442572" lon="11.927409665657683"><ele>206.0</ele><time>2026-03-24T17:23:12.999Z</time></trkpt><trkpt lat="45.952289416060644" lon="11.927215980319353"><ele>206.0</ele><time>2026-03-24T17:23:13.999Z</time></trkpt><trkpt lat="45.95206730294642" lon="11.927039757051588"><ele>206.0</ele><time>2026-03-24T17:23:14.999Z</time></trkpt><trkpt lat="45.951843224723056" lon="11.926853555738871"><ele>207.0</ele><time>2026-03-24T17:23:15.999Z</time></trkpt><trkpt lat="45.95161040837431" lon="11.92667973745015"><ele>208.0</ele><time>2026-03-24T17:23:16.999Z</time></trkpt><trkpt lat="45.951371206860486" lon="11.926505124221011"><ele>208.0</ele><time>2026-03-24T17:23:17.999Z</time></trkpt><trkpt lat="45.95113439869531" lon="11.926331069645885"><ele>208.0</ele><time>2026-03-24T17:23:18.999Z</time></trkpt><trkpt lat="45.95091639486658" lon="11.92616480146419"><ele>212.5</ele><time>2026-03-24T17:23:19.999Z</time></trkpt><trkpt lat="45.950712970782504" lon="11.9260161761313"><ele>217.0</ele><time>2026-03-24T17:23:20.999Z</time></trkpt><trkpt lat="45.95052617847416" lon="11.925837313493771"><ele>217.0</ele><time>2026-03-24T17:23:21.999Z</time></trkpt><trkpt lat="45.95031790531951" lon="11.925688437068045"><ele>217.0</ele><time>2026-03-24T17:23:22.999Z</time></trkpt><trkpt lat="45.95012697647481" lon="11.925485444640193"><ele>217.0</ele><time>2026-03-24T17:23:23.999Z</time></trkpt><trkpt lat="45.94994293173082" lon="11.925269153312684"><ele>217.0</ele><time>2026-03-24T17:23:24.999Z</time></trkpt><trkpt lat="45.94976702247307" lon="11.925042033296789"><ele>217.0</ele><time>2026-03-24T17:23:25.999Z</time></trkpt><trkpt lat="45.949595385931666" lon="11.92481290534059"><ele>217.0</ele><time>2026-03-24T17:23:26.999Z</time></trkpt><trkpt lat="45.949422861394666" lon="11.924588817182016"><ele>217.0</ele><time>2026-03-24T17:23:27.999Z</time></trkpt><trkpt lat="45.94924966525136" lon="11.92437603556406"><ele>217.0</ele><time>2026-03-24T17:23:28.999Z</time></trkpt><trkpt lat="45.94907383516742" lon="11.924165215247069"><ele>213.0</ele><time>2026-03-24T17:23:29.999Z</time></trkpt><trkpt lat="45.94889692750721" lon="11.923949328634858"><ele>209.0</ele><time>2026-03-24T17:23:30.999Z</time></trkpt><trkpt lat="45.94871717358588" lon="11.923742493594043"><ele>209.0</ele><time>2026-03-24T17:23:31.999Z</time></trkpt><trkpt lat="45.94853722296883" lon="11.923534283191177"><ele>209.0</ele><time>2026-03-24T17:23:32.999Z</time></trkpt><trkpt lat="45.94835399071307" lon="11.923324161087857"><ele>213.5</ele><time>2026-03-24T17:23:33.999Z</time></trkpt><trkpt lat="45.948152711674226" lon="11.923147874731784"><ele>218.0</ele><time>2026-03-24T17:23:34.999Z</time></trkpt><trkpt lat="45.94794235431859" lon="11.922995939567137"><ele>218.0</ele><time>2026-03-24T17:23:35.999Z</time></trkpt><trkpt lat="45.94771913546305" lon="11.92288235085051"><ele>218.0</ele><time>2026-03-24T17:23:36.999Z</time></trkpt><trkpt lat="45.94748810742956" lon="11.922792060223466"><ele>211.0</ele><time>2026-03-24T17:23:37.999Z</time></trkpt><trkpt lat="45.94724878931739" lon="11.922717342648788"><ele>204.0</ele><time>2026-03-24T17:23:38.999Z</time></trkpt><trkpt lat="45.94700883126938" lon="11.922638164206603"><ele>212.5</ele><time>2026-03-24T17:23:39.999Z</time></trkpt><trkpt lat="45.946767176680034" lon="11.922545650696474"><ele>221.0</ele><time>2026-03-24T17:23:40.999Z</time></trkpt><trkpt lat="45.94653497848754" lon="11.922453170164749"><ele>221.0</ele><time>2026-03-24T17:23:41.999Z</time></trkpt><trkpt lat="45.946314231573716" lon="11.922381633794966"><ele>221.0</ele><time>2026-03-24T17:23:42.999Z</time></trkpt><trkpt lat="45.946095009454794" lon="11.92235941017977"><ele>221.0</ele><time>2026-03-24T17:23:43.999Z</time></trkpt><trkpt lat="45.945882325541135" lon="11.922359702326691"><ele>215.0</ele><time>2026-03-24T17:23:44.999Z</time></trkpt><trkpt lat="45.94567349147754" lon="11.922355896235361"><ele>209.0</ele><time>2026-03-24T17:23:45.999Z</time></trkpt><trkpt lat="45.94548461499714" lon="11.922357134925416"><ele>203.0</ele><time>2026-03-24T17:23:46.999Z</time></trkpt><trkpt lat="45.945316975016475" lon="11.92223595581431"><ele>203.0</ele><time>2026-03-24T17:23:47.999Z</time></trkpt><trkpt lat="45.945122637209394" lon="11.92217928860377"><ele>203.0</ele><time>2026-03-24T17:23:48.999Z</time></trkpt><trkpt lat="45.944925502679936" lon="11.922100714198285"><ele>203.0</ele><time>2026-03-24T17:23:49.999Z</time></trkpt><trkpt lat="45.94473225467535" lon="11.92202385654519"><ele>204.66666666666669</ele><time>2026-03-24T17:23:50.999Z</time></trkpt><trkpt lat="45.944544547085854" lon="11.921969121573328"><ele>206.33333333333331</ele><time>2026-03-24T17:23:51.999Z</time></trkpt><trkpt lat="45.944367566782326" lon="11.921920948273065"><ele>208.0</ele><time>2026-03-24T17:23:52.999Z</time></trkpt><trkpt lat="45.94419108861965" lon="11.921891599839984"><ele>204.0</ele><time>2026-03-24T17:23:53.998Z</time></trkpt><trkpt lat="45.94402420785152" lon="11.921865596775808"><ele>200.0</ele><time>2026-03-24T17:23:54.998Z</time></trkpt><trkpt lat="45.94385704585907" lon="11.921844542499576"><ele>196.0</ele><time>2026-03-24T17:23:55.998Z</time></trkpt><trkpt lat="45.943687829234456" lon="11.921818364510083"><ele>196.0</ele><time>2026-03-24T17:23:56.998Z</time></trkpt><trkpt lat="45.94352099076357" lon="11.921777153684411"><ele>196.0</ele><time>2026-03-24T17:23:57.998Z</time></trkpt><trkpt lat="45.9433525067839" lon="11.921701704770822"><ele>196.0</ele><time>2026-03-24T17:23:58.998Z</time></trkpt><trkpt lat="45.94318271752796" lon="11.921594023260667"><ele>202.33333333333331</ele><time>2026-03-24T17:23:59.998Z</time></trkpt><trkpt lat="45.94299909276187" lon="11.921513929325126"><ele>208.66666666666669</ele><time>2026-03-24T17:24:00.998Z</time></trkpt><trkpt lat="45.94283294250352" lon="11.92137228700828"><ele>215.0</ele><time>2026-03-24T17:24:01.998Z</time></trkpt><trkpt lat="45.942654981174655" lon="11.921246095437144"><ele>216.66666666666669</ele><time>2026-03-24T17:24:02.998Z</time></trkpt><trkpt lat="45.94247171795635" lon="11.92113817092271"><ele>218.33333333333331</ele><time>2026-03-24T17:24:03.998Z</time></trkpt><trkpt lat="45.94231752253713" lon="11.921008131625117"><ele>220.0</ele><time>2026-03-24T17:24:04.998Z</time></trkpt><trkpt lat="45.94215957797754" lon="11.920896751751654"><ele>220.0</ele><time>2026-03-24T17:24:05.998Z</time></trkpt><trkpt lat="45.94201422736779" lon="11.920814856431035"><ele>220.0</ele><time>2026-03-24T17:24:06.998Z</time></trkpt><trkpt lat="45.941878221537245" lon="11.920698211636793"><ele>220.0</ele><time>2026-03-24T17:24:07.998Z</time></trkpt><trkpt lat="45.94173327840058" lon="11.920595627536473"><ele>212.66666666666666</ele><time>2026-03-24T17:24:08.998Z</time></trkpt><trkpt lat="45.94158448832617" lon="11.92049026413288"><ele>205.33333333333331</ele><time>2026-03-24T17:24:09.998Z</time></trkpt><trkpt lat="45.94143800458622" lon="11.920386533824988"><ele>198.0</ele><time>2026-03-24T17:24:10.998Z</time></trkpt><trkpt lat="45.94129276956927" lon="11.920295067409983"><ele>198.0</ele><time>2026-03-24T17:24:11.998Z</time></trkpt><trkpt lat="45.94115883827733" lon="11.920200847168823"><ele>198.0</ele><time>2026-03-24T17:24:12.998Z</time></trkpt><trkpt lat="45.941028076530515" lon="11.92011992406844"><ele>198.0</ele><time>2026-03-24T17:24:13.998Z</time></trkpt><trkpt lat="45.940904638563914" lon="11.920019819505109"><ele>198.0</ele><time>2026-03-24T17:24:14.998Z</time></trkpt><trkpt lat="45.94076445572873" lon="11.919965563399744"><ele>199.25</ele><time>2026-03-24T17:24:15.998Z</time></trkpt><trkpt lat="45.94062496492426" lon="11.919892672898197"><ele>200.5</ele><time>2026-03-24T17:24:16.998Z</time></trkpt><trkpt lat="45.94048586313045" lon="11.919820519591646"><ele>201.75</ele><time>2026-03-24T17:24:17.998Z</time></trkpt><trkpt lat="45.94034092631926" lon="11.919768795660403"><ele>203.0</ele><time>2026-03-24T17:24:18.998Z</time></trkpt><trkpt lat="45.94018999188774" lon="11.919739790469086"><ele>201.66666666666669</ele><time>2026-03-24T17:24:20Z</time></trkpt><trkpt lat="45.940045640901324" lon="11.919691805045078"><ele>200.33333333333331</ele><time>2026-03-24T17:24:21Z</time></trkpt><trkpt lat="45.93989398349883" lon="11.919686159643387"><ele>199.0</ele><time>2026-03-24T17:24:22Z</time></trkpt><trkpt lat="45.93974324539142" lon="11.919694907254497"><ele>199.0</ele><time>2026-03-24T17:24:23Z</time></trkpt><trkpt lat="45.93959133162563" lon="11.919705607572192"><ele>199.0</ele><time>2026-03-24T17:24:24Z</time></trkpt><trkpt lat="45.93943849958304" lon="11.919715214076964"><ele>199.0</ele><time>2026-03-24T17:24:25Z</time></trkpt><trkpt lat="45.93928494370166" lon="11.919725006427797"><ele>199.0</ele><time>2026-03-24T17:24:26Z</time></trkpt><trkpt lat="45.939128706504505" lon="11.919741096151997"><ele>199.0</ele><time>2026-03-24T17:24:27Z</time></trkpt><trkpt lat="45.938968354674756" lon="11.91975440227882"><ele>199.0</ele><time>2026-03-24T17:24:28Z</time></trkpt><trkpt lat="45.938810443129256" lon="11.91977286136694"><ele>199.0</ele><time>2026-03-24T17:24:29Z</time></trkpt><trkpt lat="45.93865355273873" lon="11.919794872967449"><ele>199.0</ele><time>2026-03-24T17:24:30Z</time></trkpt><trkpt lat="45.93849215680877" lon="11.919826302815348"><ele>199.0</ele><time>2026-03-24T17:24:31Z</time></trkpt><trkpt lat="45.938327504187534" lon="11.919870652466779"><ele>200.0</ele><time>2026-03-24T17:24:32Z</time></trkpt><trkpt lat="45.93815866016856" lon="11.919927481520272"><ele>201.0</ele><time>2026-03-24T17:24:33Z</time></trkpt><trkpt lat="45.93799285948429" lon="11.919999089914851"><ele>202.0</ele><time>2026-03-24T17:24:34Z</time></trkpt><trkpt lat="45.93782963015565" lon="11.9200736796571"><ele>198.66666666666666</ele><time>2026-03-24T17:24:35Z</time></trkpt><trkpt lat="45.93767324173233" lon="11.920125172125884"><ele>195.33333333333331</ele><time>2026-03-24T17:24:36Z</time></trkpt><trkpt lat="45.937531196252486" lon="11.92019126352824"><ele>192.0</ele><time>2026-03-24T17:24:37Z</time></trkpt><trkpt lat="45.93739548600148" lon="11.920253382048186"><ele>192.0</ele><time>2026-03-24T17:24:38Z</time></trkpt><trkpt lat="45.93725964343752" lon="11.920319835362188"><ele>192.0</ele><time>2026-03-24T17:24:39Z</time></trkpt><trkpt lat="45.937122687679874" lon="11.92039712711713"><ele>192.0</ele><time>2026-03-24T17:24:40Z</time></trkpt><trkpt lat="45.936985764588314" lon="11.920487442206374"><ele>192.0</ele><time>2026-03-24T17:24:41Z</time></trkpt><trkpt lat="45.93685056718145" lon="11.920591247342827"><ele>191.0</ele><time>2026-03-24T17:24:42Z</time></trkpt><trkpt lat="45.93671341321456" lon="11.920698997788648"><ele>190.0</ele><time>2026-03-24T17:24:43Z</time></trkpt><trkpt lat="45.93657401200956" lon="11.920811176539877"><ele>189.0</ele><time>2026-03-24T17:24:44Z</time></trkpt><trkpt lat="45.936439207393796" lon="11.920923523036096"><ele>189.0</ele><time>2026-03-24T17:24:45Z</time></trkpt><trkpt lat="45.93630741104801" lon="11.921051595796927"><ele>189.0</ele><time>2026-03-24T17:24:46Z</time></trkpt><trkpt lat="45.93619302213052" lon="11.921218876371098"><ele>189.0</ele><time>2026-03-24T17:24:47Z</time></trkpt><trkpt lat="45.93607009225266" lon="11.921402201555026"><ele>189.0</ele><time>2026-03-24T17:24:48Z</time></trkpt><trkpt lat="45.93594848674972" lon="11.921610034957641"><ele>189.0</ele><time>2026-03-24T17:24:49Z</time></trkpt><trkpt lat="45.93583225953942" lon="11.92182046931783"><ele>189.0</ele><time>2026-03-24T17:24:50Z</time></trkpt><trkpt lat="45.9357014556273" lon="11.922044390161977"><ele>187.0</ele><time>2026-03-24T17:24:51Z</time></trkpt><trkpt lat="45.93557925818439" lon="11.92228081343341"><ele>185.0</ele><time>2026-03-24T17:24:52Z</time></trkpt><trkpt lat="45.93544422060565" lon="11.922518702316568"><ele>183.0</ele><time>2026-03-24T17:24:53Z</time></trkpt><trkpt lat="45.93531230220426" lon="11.922756564894952"><ele>183.0</ele><time>2026-03-24T17:24:54Z</time></trkpt><trkpt lat="45.935178494681466" lon="11.922999418571093"><ele>183.0</ele><time>2026-03-24T17:24:55Z</time></trkpt><trkpt lat="45.93504930978125" lon="11.923225164416147"><ele>183.0</ele><time>2026-03-24T17:24:56Z</time></trkpt><trkpt lat="45.9349301848733" lon="11.923428724004808"><ele>186.0</ele><time>2026-03-24T17:24:57Z</time></trkpt><trkpt lat="45.934818231237976" lon="11.92364309205169"><ele>189.0</ele><time>2026-03-24T17:24:58Z</time></trkpt><trkpt lat="45.934712938031915" lon="11.923844102138935"><ele>192.0</ele><time>2026-03-24T17:24:59Z</time></trkpt><trkpt lat="45.9346059977567" lon="11.924022986731908"><ele>192.0</ele><time>2026-03-24T17:25:00Z</time></trkpt><trkpt lat="45.93450752015996" lon="11.924214879555363"><ele>192.0</ele><time>2026-03-24T17:25:01Z</time></trkpt><trkpt lat="45.934395352739564" lon="11.92442353053117"><ele>192.0</ele><time>2026-03-24T17:25:02Z</time></trkpt><trkpt lat="45.93428856068936" lon="11.92463467630051"><ele>192.33333333333331</ele><time>2026-03-24T17:25:03Z</time></trkpt><trkpt lat="45.934179351791485" lon="11.924853123457716"><ele>192.66666666666666</ele><time>2026-03-24T17:25:03.999Z</time></trkpt><trkpt lat="45.93406930488291" lon="11.925064099513584"><ele>193.0</ele><time>2026-03-24T17:25:04.999Z</time></trkpt><trkpt lat="45.93395604390239" lon="11.925275437206158"><ele>193.0</ele><time>2026-03-24T17:25:05.999Z</time></trkpt><trkpt lat="45.93384597068132" lon="11.925484271006816"><ele>193.0</ele><time>2026-03-24T17:25:06.999Z</time></trkpt><trkpt lat="45.93374061712254" lon="11.925672333126242"><ele>193.0</ele><time>2026-03-24T17:25:07.999Z</time></trkpt><trkpt lat="45.93364362202882" lon="11.925844583609088"><ele>190.0</ele><time>2026-03-24T17:25:08.999Z</time></trkpt><trkpt lat="45.93354748358987" lon="11.9260085695577"><ele>187.0</ele><time>2026-03-24T17:25:09.999Z</time></trkpt><trkpt lat="45.93344908526734" lon="11.926182328812759"><ele>184.0</ele><time>2026-03-24T17:25:10.999Z</time></trkpt><trkpt lat="45.93335695182815" lon="11.92635717627751"><ele>187.33333333333334</ele><time>2026-03-24T17:25:11.999Z</time></trkpt><trkpt lat="45.93325377314166" lon="11.926549587686578"><ele>190.66666666666669</ele><time>2026-03-24T17:25:12.999Z</time></trkpt><trkpt lat="45.93315937880509" lon="11.926723191949488"><ele>194.0</ele><time>2026-03-24T17:25:13.999Z</time></trkpt><trkpt lat="45.93306141102089" lon="11.926898543955742"><ele>194.0</ele><time>2026-03-24T17:25:14.999Z</time></trkpt><trkpt lat="45.932966629103326" lon="11.927088548911092"><ele>194.0</ele><time>2026-03-24T17:25:15.999Z</time></trkpt><trkpt lat="45.932874559734486" lon="11.927284416391318"><ele>194.0</ele><time>2026-03-24T17:25:16.999Z</time></trkpt><trkpt lat="45.93277935610853" lon="11.927482663855187"><ele>192.0</ele><time>2026-03-24T17:25:17.999Z</time></trkpt><trkpt lat="45.93268431169112" lon="11.927694600029852"><ele>190.0</ele><time>2026-03-24T17:25:18.999Z</time></trkpt><trkpt lat="45.932601766122566" lon="11.927918119624426"><ele>188.0</ele><time>2026-03-24T17:25:19.999Z</time></trkpt><trkpt lat="45.93251080919956" lon="11.928156891764013"><ele>195.33333333333331</ele><time>2026-03-24T17:25:20.999Z</time></trkpt><trkpt lat="45.932433969235426" lon="11.9283941470043"><ele>202.66666666666666</ele><time>2026-03-24T17:25:21.999Z</time></trkpt><trkpt lat="45.932361831216724" lon="11.92863081619474"><ele>210.0</ele><time>2026-03-24T17:25:22.999Z</time></trkpt><trkpt lat="45.93231416959484" lon="11.928882450835486"><ele>210.0</ele><time>2026-03-24T17:25:23.999Z</time></trkpt><trkpt lat="45.93225862274126" lon="11.929134024770617"><ele>210.0</ele><time>2026-03-24T17:25:24.999Z</time></trkpt><trkpt lat="45.9322087462227" lon="11.929389555674588"><ele>210.0</ele><time>2026-03-24T17:25:25.999Z</time></trkpt><trkpt lat="45.93214627468409" lon="11.929639321502055"><ele>210.0</ele><time>2026-03-24T17:25:26.999Z</time></trkpt><trkpt lat="45.932099707898985" lon="11.929872245026132"><ele>210.0</ele><time>2026-03-24T17:25:27.999Z</time></trkpt><trkpt lat="45.93205292201584" lon="11.930106261766744"><ele>210.0</ele><time>2026-03-24T17:25:28.999Z</time></trkpt><trkpt lat="45.93202395379853" lon="11.930333170597931"><ele>209.66666666666669</ele><time>2026-03-24T17:25:29.999Z</time></trkpt><trkpt lat="45.93197529311118" lon="11.930556641135455"><ele>209.33333333333334</ele><time>2026-03-24T17:25:30.999Z</time></trkpt><trkpt lat="45.93193254550577" lon="11.930768888117797"><ele>209.0</ele><time>2026-03-24T17:25:31.999Z</time></trkpt><trkpt lat="45.93189566753051" lon="11.930979600321768"><ele>210.0</ele><time>2026-03-24T17:25:32.999Z</time></trkpt><trkpt lat="45.93185059252456" lon="11.931178935054966"><ele>211.0</ele><time>2026-03-24T17:25:33.999Z</time></trkpt><trkpt lat="45.93180298128109" lon="11.931386095172543"><ele>212.0</ele><time>2026-03-24T17:25:34.999Z</time></trkpt><trkpt lat="45.931747321663586" lon="11.931580038125658"><ele>213.0</ele><time>2026-03-24T17:25:35.999Z</time></trkpt><trkpt lat="45.93170178985381" lon="11.931784266005407"><ele>214.33333333333331</ele><time>2026-03-24T17:25:36.999Z</time></trkpt><trkpt lat="45.9316302621721" lon="11.931986623024864"><ele>215.66666666666666</ele><time>2026-03-24T17:25:37.999Z</time></trkpt><trkpt lat="45.93158001567878" lon="11.932201071926604"><ele>217.0</ele><time>2026-03-24T17:25:38.999Z</time></trkpt><trkpt lat="45.93152775912217" lon="11.93241412826059"><ele>216.33333333333331</ele><time>2026-03-24T17:25:39.999Z</time></trkpt><trkpt lat="45.931455188247384" lon="11.932621847606073"><ele>215.66666666666669</ele><time>2026-03-24T17:25:40.999Z</time></trkpt><trkpt lat="45.93138688416179" lon="11.932823290769129"><ele>215.0</ele><time>2026-03-24T17:25:41.999Z</time></trkpt><trkpt lat="45.93131377277471" lon="11.933045442366407"><ele>215.0</ele><time>2026-03-24T17:25:42.999Z</time></trkpt><trkpt lat="45.93123931325668" lon="11.933265993226644"><ele>215.0</ele><time>2026-03-24T17:25:43.999Z</time></trkpt><trkpt lat="45.93114521209945" lon="11.933476644463468"><ele>215.0</ele><time>2026-03-24T17:25:44.999Z</time></trkpt><trkpt lat="45.93106499308484" lon="11.933695239661946"><ele>215.0</ele><time>2026-03-24T17:25:45.999Z</time></trkpt><trkpt lat="45.93099753356096" lon="11.933926362394017"><ele>215.0</ele><time>2026-03-24T17:25:46.999Z</time></trkpt><trkpt lat="45.930916552531244" lon="11.93413082388986"><ele>215.0</ele><time>2026-03-24T17:25:47.999Z</time></trkpt><trkpt lat="45.93082420980008" lon="11.934345121015767"><ele>215.66666666666669</ele><time>2026-03-24T17:25:48.999Z</time></trkpt><trkpt lat="45.93072630499802" lon="11.934564950087603"><ele>216.33333333333331</ele><time>2026-03-24T17:25:49.999Z</time></trkpt><trkpt lat="45.930624670939025" lon="11.934772619748733"><ele>217.0</ele><time>2026-03-24T17:25:50.999Z</time></trkpt><trkpt lat="45.93051247877237" lon="11.934971777571553"><ele>216.33333333333331</ele><time>2026-03-24T17:25:51.999Z</time></trkpt><trkpt lat="45.930386174861916" lon="11.935151298020811"><ele>215.66666666666669</ele><time>2026-03-24T17:25:52.999Z</time></trkpt><trkpt lat="45.930250024739465" lon="11.935323645315602"><ele>215.0</ele><time>2026-03-24T17:25:53.999Z</time></trkpt><trkpt lat="45.930110267482924" lon="11.935488269862033"><ele>215.66666666666669</ele><time>2026-03-24T17:25:54.999Z</time></trkpt><trkpt lat="45.92995688663591" lon="11.935643222531944"><ele>216.33333333333331</ele><time>2026-03-24T17:25:55.999Z</time></trkpt><trkpt lat="45.92979045924915" lon="11.935786412076684"><ele>217.0</ele><time>2026-03-24T17:25:56.999Z</time></trkpt><trkpt lat="45.92962140711964" lon="11.935917512573413"><ele>216.66666666666666</ele><time>2026-03-24T17:25:57.998Z</time></trkpt><trkpt lat="45.92944621480257" lon="11.93603823502235"><ele>216.33333333333331</ele><time>2026-03-24T17:25:58.998Z</time></trkpt><trkpt lat="45.9292792573301" lon="11.936161367673353"><ele>216.0</ele><time>2026-03-24T17:25:59.998Z</time></trkpt><trkpt lat="45.92912296133479" lon="11.936281632825725"><ele>216.0</ele><time>2026-03-24T17:26:00.998Z</time></trkpt><trkpt lat="45.92896868485146" lon="11.936397868188548"><ele>216.0</ele><time>2026-03-24T17:26:01.998Z</time></trkpt><trkpt lat="45.92882275866931" lon="11.936517041798876"><ele>216.0</ele><time>2026-03-24T17:26:02.998Z</time></trkpt><trkpt lat="45.92867788599808" lon="11.936630667323302"><ele>215.66666666666669</ele><time>2026-03-24T17:26:03.998Z</time></trkpt><trkpt lat="45.92853713188115" lon="11.936749429019535"><ele>215.33333333333334</ele><time>2026-03-24T17:26:04.998Z</time></trkpt><trkpt lat="45.92839761086906" lon="11.936872863093184"><ele>215.0</ele><time>2026-03-24T17:26:05.998Z</time></trkpt><trkpt lat="45.92826874138583" lon="11.937010363355853"><ele>215.0</ele><time>2026-03-24T17:26:06.998Z</time></trkpt><trkpt lat="45.92814788196839" lon="11.937159025388274"><ele>215.0</ele><time>2026-03-24T17:26:07.998Z</time></trkpt><trkpt lat="45.92803767538087" lon="11.937314772785347"><ele>215.0</ele><time>2026-03-24T17:26:08.998Z</time></trkpt><trkpt lat="45.92793261162675" lon="11.937480942172478"><ele>213.0</ele><time>2026-03-24T17:26:09.998Z</time></trkpt><trkpt lat="45.927838175799515" lon="11.937660524218002"><ele>211.0</ele><time>2026-03-24T17:26:10.998Z</time></trkpt><trkpt lat="45.92775263665145" lon="11.937856291382138"><ele>209.0</ele><time>2026-03-24T17:26:11.998Z</time></trkpt><trkpt lat="45.92766049103448" lon="11.938057490807518"><ele>209.0</ele><time>2026-03-24T17:26:12.998Z</time></trkpt><trkpt lat="45.92757078848404" lon="11.938282563261563"><ele>209.0</ele><time>2026-03-24T17:26:13.998Z</time></trkpt><trkpt lat="45.92748212085349" lon="11.938511353619038"><ele>209.0</ele><time>2026-03-24T17:26:14.998Z</time></trkpt><trkpt lat="45.927398765769055" lon="11.938736179976445"><ele>210.33333333333334</ele><time>2026-03-24T17:26:15.998Z</time></trkpt><trkpt lat="45.92730486393214" lon="11.938967092452252"><ele>211.66666666666669</ele><time>2026-03-24T17:26:16.998Z</time></trkpt><trkpt lat="45.927218429283" lon="11.939198796254898"><ele>213.0</ele><time>2026-03-24T17:26:17.998Z</time></trkpt><trkpt lat="45.92712669966768" lon="11.939434858304272"><ele>213.0</ele><time>2026-03-24T17:26:18.998Z</time></trkpt><trkpt lat="45.92703958966278" lon="11.939673168641322"><ele>213.0</ele><time>2026-03-24T17:26:19.998Z</time></trkpt><trkpt lat="45.92695357291421" lon="11.939917092826885"><ele>213.0</ele><time>2026-03-24T17:26:20.998Z</time></trkpt><trkpt lat="45.92685860769662" lon="11.94015709185257"><ele>211.33333333333331</ele><time>2026-03-24T17:26:21.998Z</time></trkpt><trkpt lat="45.92676578513645" lon="11.94040040993696"><ele>209.66666666666666</ele><time>2026-03-24T17:26:22.998Z</time></trkpt><trkpt lat="45.92667339114128" lon="11.940644240772867"><ele>208.0</ele><time>2026-03-24T17:26:23.998Z</time></trkpt><trkpt lat="45.9265778514664" lon="11.940886564758612"><ele>211.33333333333331</ele><time>2026-03-24T17:26:24.998Z</time></trkpt><trkpt lat="45.92646459663963" lon="11.941109790543734"><ele>214.66666666666669</ele><time>2026-03-24T17:26:26Z</time></trkpt><trkpt lat="45.92635010605797" lon="11.941332482155005"><ele>218.0</ele><time>2026-03-24T17:26:27Z</time></trkpt><trkpt lat="45.92623469088858" lon="11.94154468282881"><ele>218.0</ele><time>2026-03-24T17:26:28Z</time></trkpt><trkpt lat="45.92612198168204" lon="11.94177068468847"><ele>218.0</ele><time>2026-03-24T17:26:29Z</time></trkpt><trkpt lat="45.925984277425655" lon="11.941972869345244"><ele>218.0</ele><time>2026-03-24T17:26:30Z</time></trkpt><trkpt lat="45.92584526900563" lon="11.942168579778816"><ele>219.66666666666669</ele><time>2026-03-24T17:26:31Z</time></trkpt><trkpt lat="45.92570322189345" lon="11.942343733576614"><ele>221.33333333333331</ele><time>2026-03-24T17:26:32Z</time></trkpt><trkpt lat="45.92556002128538" lon="11.942510017377254"><ele>223.0</ele><time>2026-03-24T17:26:33Z</time></trkpt><trkpt lat="45.925407091197165" lon="11.94267251865645"><ele>223.0</ele><time>2026-03-24T17:26:34Z</time></trkpt><trkpt lat="45.92525955374764" lon="11.942832109433777"><ele>223.0</ele><time>2026-03-24T17:26:35Z</time></trkpt><trkpt lat="45.92511914525963" lon="11.942981944130088"><ele>223.0</ele><time>2026-03-24T17:26:36Z</time></trkpt><trkpt lat="45.92498211452391" lon="11.943128430645253"><ele>224.0</ele><time>2026-03-24T17:26:37Z</time></trkpt><trkpt lat="45.92485350311849" lon="11.943267518131435"><ele>225.0</ele><time>2026-03-24T17:26:38Z</time></trkpt><trkpt lat="45.924723395446456" lon="11.943401251832352"><ele>226.0</ele><time>2026-03-24T17:26:39Z</time></trkpt><trkpt lat="45.924596373154934" lon="11.943526514089148"><ele>226.0</ele><time>2026-03-24T17:26:40Z</time></trkpt><trkpt lat="45.924468229373154" lon="11.943645518353945"><ele>226.0</ele><time>2026-03-24T17:26:41Z</time></trkpt><trkpt lat="45.92434412747687" lon="11.943777368638381"><ele>226.0</ele><time>2026-03-24T17:26:42Z</time></trkpt><trkpt lat="45.92422039705469" lon="11.943914171844824"><ele>226.0</ele><time>2026-03-24T17:26:43Z</time></trkpt><trkpt lat="45.924095030269875" lon="11.944054228475748"><ele>226.0</ele><time>2026-03-24T17:26:44Z</time></trkpt><trkpt lat="45.92396286420984" lon="11.944205390636835"><ele>226.0</ele><time>2026-03-24T17:26:45Z</time></trkpt><trkpt lat="45.9238251421541" lon="11.944368295466806"><ele>225.66666666666666</ele><time>2026-03-24T17:26:46Z</time></trkpt><trkpt lat="45.92368589559232" lon="11.944540084702487"><ele>225.33333333333331</ele><time>2026-03-24T17:26:47Z</time></trkpt><trkpt lat="45.92354373183526" lon="11.944718302080126"><ele>225.0</ele><time>2026-03-24T17:26:48Z</time></trkpt><trkpt lat="45.92340877145058" lon="11.944889724480209"><ele>226.0</ele><time>2026-03-24T17:26:49Z</time></trkpt><trkpt lat="45.92325383047608" lon="11.945042207493096"><ele>227.0</ele><time>2026-03-24T17:26:50Z</time></trkpt><trkpt lat="45.92308395950665" lon="11.945178622265912"><ele>228.0</ele><time>2026-03-24T17:26:51Z</time></trkpt><trkpt lat="45.92291389142799" lon="11.945290025028632"><ele>227.66666666666669</ele><time>2026-03-24T17:26:52Z</time></trkpt><trkpt lat="45.92273451546963" lon="11.945377017939105"><ele>227.33333333333334</ele><time>2026-03-24T17:26:53Z</time></trkpt><trkpt lat="45.922549732099945" lon="11.94543814428158"><ele>227.0</ele><time>2026-03-24T17:26:54Z</time></trkpt><trkpt lat="45.92236558869567" lon="11.945477880814748"><ele>227.0</ele><time>2026-03-24T17:26:55Z</time></trkpt><trkpt lat="45.92217885898962" lon="11.945485500482729"><ele>227.0</ele><time>2026-03-24T17:26:56Z</time></trkpt><trkpt lat="45.92199270191822" lon="11.945478320432258"><ele>227.0</ele><time>2026-03-24T17:26:57Z</time></trkpt><trkpt lat="45.92181387573365" lon="11.945451744740712"><ele>226.66666666666669</ele><time>2026-03-24T17:26:58Z</time></trkpt><trkpt lat="45.92163876973658" lon="11.945407838766416"><ele>226.33333333333331</ele><time>2026-03-24T17:26:59Z</time></trkpt><trkpt lat="45.921468173636065" lon="11.945340645066304"><ele>226.0</ele><time>2026-03-24T17:27:00Z</time></trkpt><trkpt lat="45.92130144817733" lon="11.945253370965482"><ele>226.0</ele><time>2026-03-24T17:27:01Z</time></trkpt><trkpt lat="45.921144832978825" lon="11.945149229929138"><ele>226.0</ele><time>2026-03-24T17:27:02Z</time></trkpt><trkpt lat="45.92099163411208" lon="11.945023753672524"><ele>226.0</ele><time>2026-03-24T17:27:03Z</time></trkpt><trkpt lat="45.92084365475876" lon="11.944881269584922"><ele>226.0</ele><time>2026-03-24T17:27:04Z</time></trkpt><trkpt lat="45.92069423390937" lon="11.944726787835174"><ele>226.0</ele><time>2026-03-24T17:27:05Z</time></trkpt><trkpt lat="45.92053946925929" lon="11.944592080396152"><ele>226.0</ele><time>2026-03-24T17:27:06Z</time></trkpt><trkpt lat="45.9204089483545" lon="11.94444009629268"><ele>226.0</ele><time>2026-03-24T17:27:06.999Z</time></trkpt><trkpt lat="45.920281000296825" lon="11.944308211529698"><ele>226.0</ele><time>2026-03-24T17:27:07.999Z</time></trkpt><trkpt lat="45.92015361930433" lon="11.944181611275242"><ele>226.0</ele><time>2026-03-24T17:27:08.999Z</time></trkpt><trkpt lat="45.92001617260638" lon="11.944054130525995"><ele>225.66666666666666</ele><time>2026-03-24T17:27:09.999Z</time></trkpt><trkpt lat="45.91988634660111" lon="11.943914025435488"><ele>225.33333333333331</ele><time>2026-03-24T17:27:10.999Z</time></trkpt><trkpt lat="45.919747595067236" lon="11.943768659356607"><ele>225.0</ele><time>2026-03-24T17:27:11.999Z</time></trkpt><trkpt lat="45.9196034697229" lon="11.943627764757807"><ele>225.0</ele><time>2026-03-24T17:27:12.999Z</time></trkpt><trkpt lat="45.91946796748855" lon="11.943487910521803"><ele>225.0</ele><time>2026-03-24T17:27:13.999Z</time></trkpt><trkpt lat="45.919332678127944" lon="11.94334844710926"><ele>225.0</ele><time>2026-03-24T17:27:14.999Z</time></trkpt><trkpt lat="45.91919582447291" lon="11.943223354229394"><ele>223.33333333333331</ele><time>2026-03-24T17:27:15.999Z</time></trkpt><trkpt lat="45.919070493135045" lon="11.943084194298333"><ele>221.66666666666666</ele><time>2026-03-24T17:27:16.999Z</time></trkpt><trkpt lat="45.918942830835995" lon="11.942947391677354"><ele>220.0</ele><time>2026-03-24T17:27:17.999Z</time></trkpt><trkpt lat="45.91881293879349" lon="11.942817503323026"><ele>220.0</ele><time>2026-03-24T17:27:18.999Z</time></trkpt><trkpt lat="45.91868131665073" lon="11.942688795453105"><ele>220.0</ele><time>2026-03-24T17:27:19.999Z</time></trkpt><trkpt lat="45.9185449063895" lon="11.942557418239726"><ele>220.0</ele><time>2026-03-24T17:27:20.999Z</time></trkpt><trkpt lat="45.91840833667002" lon="11.942435115925736"><ele>220.66666666666666</ele><time>2026-03-24T17:27:21.999Z</time></trkpt><trkpt lat="45.91826779020539" lon="11.942320877985114"><ele>221.33333333333331</ele><time>2026-03-24T17:27:22.999Z</time></trkpt><trkpt lat="45.91812186106656" lon="11.942215970171647"><ele>222.0</ele><time>2026-03-24T17:27:23.999Z</time></trkpt><trkpt lat="45.91796970174397" lon="11.94213225889881"><ele>222.0</ele><time>2026-03-24T17:27:24.999Z</time></trkpt><trkpt lat="45.91781018039664" lon="11.942064689332668"><ele>222.0</ele><time>2026-03-24T17:27:25.999Z</time></trkpt><trkpt lat="45.91764843368861" lon="11.942015734398149"><ele>222.0</ele><time>2026-03-24T17:27:26.999Z</time></trkpt><trkpt lat="45.91748383327898" lon="11.941973701798862"><ele>221.0</ele><time>2026-03-24T17:27:27.999Z</time></trkpt><trkpt lat="45.91731824012813" lon="11.941946378191908"><ele>220.0</ele><time>2026-03-24T17:27:28.999Z</time></trkpt><trkpt lat="45.91715404272589" lon="11.941918603270233"><ele>219.0</ele><time>2026-03-24T17:27:29.999Z</time></trkpt><trkpt lat="45.91699550090737" lon="11.941876020641276"><ele>219.0</ele><time>2026-03-24T17:27:30.999Z</time></trkpt><trkpt lat="45.9168235323676" lon="11.941852338793337"><ele>219.0</ele><time>2026-03-24T17:27:31.999Z</time></trkpt><trkpt lat="45.91665499271019" lon="11.941822302344823"><ele>219.0</ele><time>2026-03-24T17:27:32.999Z</time></trkpt><trkpt lat="45.916484816474345" lon="11.94179322333367"><ele>216.0</ele><time>2026-03-24T17:27:33.999Z</time></trkpt><trkpt lat="45.91631750089431" lon="11.94177064572288"><ele>213.0</ele><time>2026-03-24T17:27:34.999Z</time></trkpt><trkpt lat="45.91615119554186" lon="11.941737565717801"><ele>210.0</ele><time>2026-03-24T17:27:35.999Z</time></trkpt><trkpt lat="45.91598183398748" lon="11.941718598575424"><ele>211.33333333333331</ele><time>2026-03-24T17:27:36.999Z</time></trkpt><trkpt lat="45.91581110360552" lon="11.941695998138702"><ele>212.66666666666666</ele><time>2026-03-24T17:27:37.999Z</time></trkpt><trkpt lat="45.91564379285763" lon="11.941671836630206"><ele>214.0</ele><time>2026-03-24T17:27:38.999Z</time></trkpt><trkpt lat="45.91547265899228" lon="11.941645071362181"><ele>214.0</ele><time>2026-03-24T17:27:39.999Z</time></trkpt><trkpt lat="45.91530043300741" lon="11.9416221221132"><ele>214.0</ele><time>2026-03-24T17:27:40.999Z</time></trkpt><trkpt lat="45.91512966048432" lon="11.941591118678268"><ele>214.0</ele><time>2026-03-24T17:27:41.999Z</time></trkpt><trkpt lat="45.91495862536541" lon="11.941566345745839"><ele>212.0</ele><time>2026-03-24T17:27:42.999Z</time></trkpt><trkpt lat="45.91478303853213" lon="11.941548474109114"><ele>210.0</ele><time>2026-03-24T17:27:43.999Z</time></trkpt><trkpt lat="45.91461186791122" lon="11.94151848915551"><ele>208.0</ele><time>2026-03-24T17:27:44.999Z</time></trkpt><trkpt lat="45.9144389088474" lon="11.941488524008607"><ele>208.0</ele><time>2026-03-24T17:27:45.999Z</time></trkpt><trkpt lat="45.91426496053023" lon="11.941456882053581"><ele>208.0</ele><time>2026-03-24T17:27:46.999Z</time></trkpt><trkpt lat="45.91409151437362" lon="11.941425345775388"><ele>208.0</ele><time>2026-03-24T17:27:47.999Z</time></trkpt><trkpt lat="45.91391639760142" lon="11.94139577530729"><ele>204.66666666666666</ele><time>2026-03-24T17:27:48.999Z</time></trkpt><trkpt lat="45.913743031891315" lon="11.941368916846699"><ele>201.33333333333331</ele><time>2026-03-24T17:27:49.999Z</time></trkpt><trkpt lat="45.91356708222116" lon="11.941344787135334"><ele>198.0</ele><time>2026-03-24T17:27:50.999Z</time></trkpt><trkpt lat="45.913392934402566" lon="11.94131788315309"><ele>197.0</ele><time>2026-03-24T17:27:51.999Z</time></trkpt><trkpt lat="45.91321731990065" lon="11.941292847763487"><ele>196.0</ele><time>2026-03-24T17:27:52.999Z</time></trkpt><trkpt lat="45.913044713505045" lon="11.941266866575273"><ele>195.0</ele><time>2026-03-24T17:27:53.999Z</time></trkpt><trkpt lat="45.91287391621054" lon="11.941252902786006"><ele>195.0</ele><time>2026-03-24T17:27:54.999Z</time></trkpt><trkpt lat="45.91270118772027" lon="11.941245311143648"><ele>195.0</ele><time>2026-03-24T17:27:55.999Z</time></trkpt><trkpt lat="45.912521189847624" lon="11.941259445030987"><ele>195.0</ele><time>2026-03-24T17:27:56.999Z</time></trkpt><trkpt lat="45.912327362628645" lon="11.941295279513906"><ele>194.0</ele><time>2026-03-24T17:27:57.999Z</time></trkpt><trkpt lat="45.91213280502852" lon="11.941337388427641"><ele>193.0</ele><time>2026-03-24T17:27:58.999Z</time></trkpt><trkpt lat="45.91193378353892" lon="11.941380372111981"><ele>192.0</ele><time>2026-03-24T17:27:59.999Z</time></trkpt><trkpt lat="45.911730350875324" lon="11.941418413375295"><ele>192.0</ele><time>2026-03-24T17:28:00.998Z</time></trkpt><trkpt lat="45.91152012558531" lon="11.941461473027775"><ele>192.0</ele><time>2026-03-24T17:28:01.998Z</time></trkpt><trkpt lat="45.91131428779495" lon="11.94150983258708"><ele>192.0</ele><time>2026-03-24T17:28:02.998Z</time></trkpt><trkpt lat="45.91111847121014" lon="11.941532578441915"><ele>192.0</ele><time>2026-03-24T17:28:03.998Z</time></trkpt><trkpt lat="45.91093016496698" lon="11.941571644479973"><ele>192.0</ele><time>2026-03-24T17:28:04.998Z</time></trkpt><trkpt lat="45.91075188664313" lon="11.941612620705948"><ele>192.0</ele><time>2026-03-24T17:28:05.998Z</time></trkpt><trkpt lat="45.91058639883917" lon="11.941678433960801"><ele>193.0</ele><time>2026-03-24T17:28:06.998Z</time></trkpt><trkpt lat="45.91042011994414" lon="11.941703252976154"><ele>194.0</ele><time>2026-03-24T17:28:07.998Z</time></trkpt><trkpt lat="45.9102607375516" lon="11.94175102197234"><ele>195.0</ele><time>2026-03-24T17:28:08.998Z</time></trkpt><trkpt lat="45.91009869697654" lon="11.941805268694559"><ele>190.33333333333334</ele><time>2026-03-24T17:28:09.998Z</time></trkpt><trkpt lat="45.90993206690347" lon="11.941887251094705"><ele>185.66666666666669</ele><time>2026-03-24T17:28:10.998Z</time></trkpt><trkpt lat="45.90975886054257" lon="11.941948134940894"><ele>181.0</ele><time>2026-03-24T17:28:11.998Z</time></trkpt><trkpt lat="45.90958577372508" lon="11.942006851276881"><ele>181.0</ele><time>2026-03-24T17:28:12.998Z</time></trkpt><trkpt lat="45.909405078005555" lon="11.94206392308044"><ele>181.0</ele><time>2026-03-24T17:28:13.998Z</time></trkpt><trkpt lat="45.90922566124685" lon="11.942121502364753"><ele>181.0</ele><time>2026-03-24T17:28:14.998Z</time></trkpt><trkpt lat="45.909048820675046" lon="11.942187569637076"><ele>182.33333333333334</ele><time>2026-03-24T17:28:15.998Z</time></trkpt><trkpt lat="45.90888364812004" lon="11.942253144817995"><ele>183.66666666666666</ele><time>2026-03-24T17:28:16.998Z</time></trkpt><trkpt lat="45.908724784146514" lon="11.942311747898673"><ele>185.0</ele><time>2026-03-24T17:28:17.998Z</time></trkpt><trkpt lat="45.90857230106432" lon="11.942358497379193"><ele>185.0</ele><time>2026-03-24T17:28:18.998Z</time></trkpt><trkpt lat="45.90842336571997" lon="11.942396332800332"><ele>185.0</ele><time>2026-03-24T17:28:19.998Z</time></trkpt><trkpt lat="45.908275868624635" lon="11.942423563460732"><ele>185.0</ele><time>2026-03-24T17:28:20.998Z</time></trkpt><trkpt lat="45.90812937962801" lon="11.942428519518337"><ele>185.0</ele><time>2026-03-24T17:28:21.998Z</time></trkpt><trkpt lat="45.907981226603845" lon="11.942405380676181"><ele>183.66666666666666</ele><time>2026-03-24T17:28:22.998Z</time></trkpt><trkpt lat="45.90783124723029" lon="11.942360556403182"><ele>182.33333333333334</ele><time>2026-03-24T17:28:23.998Z</time></trkpt><trkpt lat="45.9076884672185" lon="11.942297627410442"><ele>181.0</ele><time>2026-03-24T17:28:24.998Z</time></trkpt><trkpt lat="45.90754430116971" lon="11.942235285909472"><ele>180.25</ele><time>2026-03-24T17:28:25.998Z</time></trkpt><trkpt lat="45.90740168885962" lon="11.942172335251685"><ele>179.5</ele><time>2026-03-24T17:28:26.998Z</time></trkpt><trkpt lat="45.907262321512086" lon="11.942107829711302"><ele>178.75</ele><time>2026-03-24T17:28:27.998Z</time></trkpt><trkpt lat="45.90712334252525" lon="11.942052266431944"><ele>178.0</ele><time>2026-03-24T17:28:28.998Z</time></trkpt><trkpt lat="45.906986959265055" lon="11.941992663785566"><ele>178.0</ele><time>2026-03-24T17:28:29.998Z</time></trkpt><trkpt lat="45.90685030261657" lon="11.94193222681943"><ele>178.0</ele><time>2026-03-24T17:28:30.998Z</time></trkpt><trkpt lat="45.906712079350015" lon="11.941871949405868"><ele>178.0</ele><time>2026-03-24T17:28:32Z</time></trkpt><trkpt lat="45.906572522285295" lon="11.941810802634192"><ele>178.0</ele><time>2026-03-24T17:28:33Z</time></trkpt><trkpt lat="45.906435256161316" lon="11.941749265938002"><ele>178.25</ele><time>2026-03-24T17:28:34Z</time></trkpt><trkpt lat="45.90630052812899" lon="11.941682140401408"><ele>178.5</ele><time>2026-03-24T17:28:35Z</time></trkpt><trkpt lat="45.9061737757875" lon="11.941626872791314"><ele>178.75</ele><time>2026-03-24T17:28:36Z</time></trkpt><trkpt lat="45.90606344939931" lon="11.941562150039793"><ele>179.0</ele><time>2026-03-24T17:28:37Z</time></trkpt><trkpt lat="45.90595413731806" lon="11.941521928336103"><ele>179.66666666666666</ele><time>2026-03-24T17:28:38Z</time></trkpt><trkpt lat="45.90585750561717" lon="11.941482156599154"><ele>180.33333333333331</ele><time>2026-03-24T17:28:39Z</time></trkpt><trkpt lat="45.9057719921737" lon="11.941438224350527"><ele>181.0</ele><time>2026-03-24T17:28:40Z</time></trkpt><trkpt lat="45.90569132107953" lon="11.941412906755836"><ele>181.66666666666666</ele><time>2026-03-24T17:28:41Z</time></trkpt><trkpt lat="45.905626770370496" lon="11.941375656433031"><ele>182.33333333333334</ele><time>2026-03-24T17:28:42Z</time></trkpt><trkpt lat="45.9055344346247" lon="11.941314423313736"><ele>183.0</ele><time>2026-03-24T17:28:44Z</time></trkpt><trkpt lat="45.90547582334495" lon="11.941234543839913"><ele>183.0</ele><time>2026-03-24T17:28:46Z</time></trkpt><trkpt lat="45.90540814399587" lon="11.941102755971917"><ele>183.0</ele><time>2026-03-24T17:28:48Z</time></trkpt><trkpt lat="45.905369587638994" lon="11.941018271173865"><ele>183.0</ele><time>2026-03-24T17:28:49Z</time></trkpt><trkpt lat="45.90531388860229" lon="11.940948224933805"><ele>183.0</ele><time>2026-03-24T17:28:50Z</time></trkpt><trkpt lat="45.905249531483534" lon="11.940926634329298"><ele>183.0</ele><time>2026-03-24T17:28:51Z</time></trkpt><trkpt lat="45.9051824907573" lon="11.940919737506185"><ele>183.0</ele><time>2026-03-24T17:28:52Z</time></trkpt><trkpt lat="45.90512329174329" lon="11.940952829777828"><ele>184.16666666666666</ele><time>2026-03-24T17:28:53Z</time></trkpt><trkpt lat="45.90507690713727" lon="11.941035349555138"><ele>185.33333333333334</ele><time>2026-03-24T17:28:54Z</time></trkpt><trkpt lat="45.905048366407556" lon="11.941131057541575"><ele>186.5</ele><time>2026-03-24T17:28:55Z</time></trkpt><trkpt lat="45.905049293115255" lon="11.941294976350544"><ele>187.66666666666669</ele><time>2026-03-24T17:28:57Z</time></trkpt><trkpt lat="45.90495959748488" lon="11.941361812896966"><ele>188.83333333333334</ele><time>2026-03-24T17:28:58Z</time></trkpt><trkpt lat="45.90492619576844" lon="11.941441616862665"><ele>190.0</ele><time>2026-03-24T17:28:59Z</time></trkpt><trkpt lat="45.90484836963387" lon="11.941489053078529"><ele>190.0</ele><time>2026-03-24T17:29:00Z</time></trkpt><trkpt lat="45.90476837010194" lon="11.941542529265375"><ele>190.0</ele><time>2026-03-24T17:29:01Z</time></trkpt><trkpt lat="45.904677345175394" lon="11.941596888947348"><ele>190.0</ele><time>2026-03-24T17:29:02Z</time></trkpt><trkpt lat="45.90458401447219" lon="11.941636682390708"><ele>190.0</ele><time>2026-03-24T17:29:03Z</time></trkpt><trkpt lat="45.90447878176086" lon="11.941683346882867"><ele>190.0</ele><time>2026-03-24T17:29:04Z</time></trkpt><trkpt lat="45.904367755289826" lon="11.941741925486289"><ele>189.75</ele><time>2026-03-24T17:29:05Z</time></trkpt><trkpt lat="45.90425663046657" lon="11.941791111380663"><ele>189.5</ele><time>2026-03-24T17:29:06Z</time></trkpt><trkpt lat="45.90415414194371" lon="11.941820215902597"><ele>189.25</ele><time>2026-03-24T17:29:07Z</time></trkpt><trkpt lat="45.904039966611414" lon="11.941881797082736"><ele>189.0</ele><time>2026-03-24T17:29:08Z</time></trkpt><trkpt lat="45.90392437612538" lon="11.941929192657298"><ele>189.0</ele><time>2026-03-24T17:29:09Z</time></trkpt><trkpt lat="45.903815524632996" lon="11.941972246355302"><ele>189.0</ele><time>2026-03-24T17:29:10Z</time></trkpt><trkpt lat="45.903705146967134" lon="11.942010107845864"><ele>189.0</ele><time>2026-03-24T17:29:11Z</time></trkpt><trkpt lat="45.90359780278187" lon="11.942063553647122"><ele>189.0</ele><time>2026-03-24T17:29:12Z</time></trkpt><trkpt lat="45.903488802977265" lon="11.942108235068192"><ele>189.25</ele><time>2026-03-24T17:29:12.999Z</time></trkpt><trkpt lat="45.90337435518221" lon="11.942156822090968"><ele>189.5</ele><time>2026-03-24T17:29:13.999Z</time></trkpt><trkpt lat="45.903263583817555" lon="11.94220760678747"><ele>189.75</ele><time>2026-03-24T17:29:14.999Z</time></trkpt><trkpt lat="45.90314632050109" lon="11.94225006085067"><ele>190.0</ele><time>2026-03-24T17:29:15.999Z</time></trkpt><trkpt lat="45.903029622435376" lon="11.942289868271581"><ele>190.0</ele><time>2026-03-24T17:29:16.999Z</time></trkpt><trkpt lat="45.90291497964827" lon="11.942329544376602"><ele>190.0</ele><time>2026-03-24T17:29:17.999Z</time></trkpt><trkpt lat="45.90279684409992" lon="11.942366033257883"><ele>190.0</ele><time>2026-03-24T17:29:18.999Z</time></trkpt><trkpt lat="45.90268189582203" lon="11.94239530766718"><ele>190.0</ele><time>2026-03-24T17:29:19.999Z</time></trkpt><trkpt lat="45.90256370788197" lon="11.942424560873464"><ele>189.5</ele><time>2026-03-24T17:29:20.999Z</time></trkpt><trkpt lat="45.902440354745565" lon="11.942464939635828"><ele>189.0</ele><time>2026-03-24T17:29:21.999Z</time></trkpt><trkpt lat="45.90232225733918" lon="11.942494731762691"><ele>188.5</ele><time>2026-03-24T17:29:22.999Z</time></trkpt><trkpt lat="45.902188278271176" lon="11.942529835200892"><ele>188.0</ele><time>2026-03-24T17:29:23.999Z</time></trkpt><trkpt lat="45.90207201435034" lon="11.942567042077767"><ele>188.0</ele><time>2026-03-24T17:29:24.999Z</time></trkpt><trkpt lat="45.90195264147156" lon="11.942599305366825"><ele>188.0</ele><time>2026-03-24T17:29:25.999Z</time></trkpt><trkpt lat="45.90183816849763" lon="11.942635812920436"><ele>188.0</ele><time>2026-03-24T17:29:26.999Z</time></trkpt><trkpt lat="45.901714954536246" lon="11.942673666569998"><ele>188.0</ele><time>2026-03-24T17:29:27.999Z</time></trkpt><trkpt lat="45.901597605380374" lon="11.942707091125401"><ele>187.25</ele><time>2026-03-24T17:29:28.999Z</time></trkpt><trkpt lat="45.90146234818468" lon="11.942721559285769"><ele>186.5</ele><time>2026-03-24T17:29:29.999Z</time></trkpt><trkpt lat="45.90131809115786" lon="11.94275785844558"><ele>185.75</ele><time>2026-03-24T17:29:30.999Z</time></trkpt><trkpt lat="45.90116420913322" lon="11.942794441581283"><ele>185.0</ele><time>2026-03-24T17:29:31.999Z</time></trkpt><trkpt lat="45.90100458705683" lon="11.942830687725401"><ele>185.33333333333331</ele><time>2026-03-24T17:29:32.999Z</time></trkpt><trkpt lat="45.900843767992015" lon="11.942864642279124"><ele>185.66666666666666</ele><time>2026-03-24T17:29:33.999Z</time></trkpt><trkpt lat="45.9006944902088" lon="11.942895722273393"><ele>186.0</ele><time>2026-03-24T17:29:34.999Z</time></trkpt><trkpt lat="45.90055241126048" lon="11.942922161208376"><ele>186.0</ele><time>2026-03-24T17:29:35.999Z</time></trkpt><trkpt lat="45.900416600734324" lon="11.942943867654702"><ele>186.0</ele><time>2026-03-24T17:29:36.999Z</time></trkpt><trkpt lat="45.90029473847118" lon="11.942946383655544"><ele>186.0</ele><time>2026-03-24T17:29:37.999Z</time></trkpt><trkpt lat="45.90019313753729" lon="11.94293936257162"><ele>186.0</ele><time>2026-03-24T17:29:38.999Z</time></trkpt><trkpt lat="45.900101447251664" lon="11.94292820917701"><ele>185.60000000000002</ele><time>2026-03-24T17:29:39.999Z</time></trkpt><trkpt lat="45.90001099892108" lon="11.942947713336743"><ele>185.2</ele><time>2026-03-24T17:29:40.999Z</time></trkpt><trkpt lat="45.899928078893474" lon="11.942941465320363"><ele>184.8</ele><time>2026-03-24T17:29:41.999Z</time></trkpt><trkpt lat="45.89983595059316" lon="11.942929833253451"><ele>184.39999999999998</ele><time>2026-03-24T17:29:42.999Z</time></trkpt><trkpt lat="45.89973715999582" lon="11.942899058930166"><ele>184.0</ele><time>2026-03-24T17:29:43.999Z</time></trkpt><trkpt lat="45.89962917015667" lon="11.94287684785517"><ele>184.0</ele><time>2026-03-24T17:29:44.999Z</time></trkpt><trkpt lat="45.89950901720505" lon="11.942849883863731"><ele>184.0</ele><time>2026-03-24T17:29:45.999Z</time></trkpt><trkpt lat="45.89938043568366" lon="11.94280882512772"><ele>184.0</ele><time>2026-03-24T17:29:46.999Z</time></trkpt><trkpt lat="45.89924513153645" lon="11.942749837713736"><ele>184.0</ele><time>2026-03-24T17:29:47.999Z</time></trkpt><trkpt lat="45.89910959214566" lon="11.942680814922449"><ele>183.0</ele><time>2026-03-24T17:29:48.999Z</time></trkpt><trkpt lat="45.89897518405675" lon="11.942644445429831"><ele>182.0</ele><time>2026-03-24T17:29:49.999Z</time></trkpt><trkpt lat="45.898841431622685" lon="11.942632064196337"><ele>181.0</ele><time>2026-03-24T17:29:50.999Z</time></trkpt><trkpt lat="45.8987230764097" lon="11.942600077109018"><ele>180.0</ele><time>2026-03-24T17:29:51.999Z</time></trkpt><trkpt lat="45.89858871454682" lon="11.942586228383709"><ele>180.0</ele><time>2026-03-24T17:29:52.999Z</time></trkpt><trkpt lat="45.89845212773204" lon="11.942584638194273"><ele>180.0</ele><time>2026-03-24T17:29:53.999Z</time></trkpt><trkpt lat="45.89830418324791" lon="11.942592176129047"><ele>180.0</ele><time>2026-03-24T17:29:54.999Z</time></trkpt><trkpt lat="45.89813547123998" lon="11.942600987883848"><ele>178.0</ele><time>2026-03-24T17:29:55.999Z</time></trkpt><trkpt lat="45.897939626438" lon="11.94262316192204"><ele>176.0</ele><time>2026-03-24T17:29:56.999Z</time></trkpt><trkpt lat="45.8977302233037" lon="11.942644936725184"><ele>174.0</ele><time>2026-03-24T17:29:57.999Z</time></trkpt><trkpt lat="45.89751774550214" lon="11.942666629879856"><ele>174.0</ele><time>2026-03-24T17:29:58.999Z</time></trkpt><trkpt lat="45.89729918854655" lon="11.942673712437342"><ele>174.0</ele><time>2026-03-24T17:29:59.999Z</time></trkpt><trkpt lat="45.89708646106304" lon="11.942665519573403"><ele>174.0</ele><time>2026-03-24T17:30:00.999Z</time></trkpt><trkpt lat="45.89690202818098" lon="11.942649518900323"><ele>174.66666666666666</ele><time>2026-03-24T17:30:01.999Z</time></trkpt><trkpt lat="45.896718254655276" lon="11.942632805870312"><ele>175.33333333333331</ele><time>2026-03-24T17:30:02.999Z</time></trkpt><trkpt lat="45.896541439521066" lon="11.94263888864067"><ele>176.0</ele><time>2026-03-24T17:30:03.999Z</time></trkpt><trkpt lat="45.89637249159423" lon="11.942594365939401"><ele>176.0</ele><time>2026-03-24T17:30:04.999Z</time></trkpt><trkpt lat="45.89619251314075" lon="11.942587905371042"><ele>176.0</ele><time>2026-03-24T17:30:05.999Z</time></trkpt><trkpt lat="45.89601151569789" lon="11.942550621307365"><ele>176.0</ele><time>2026-03-24T17:30:06.998Z</time></trkpt><trkpt lat="45.895828039077934" lon="11.942520234240543"><ele>178.33333333333331</ele><time>2026-03-24T17:30:07.998Z</time></trkpt><trkpt lat="45.89564548538329" lon="11.942477798265651"><ele>180.66666666666666</ele><time>2026-03-24T17:30:08.998Z</time></trkpt><trkpt lat="45.89545696747524" lon="11.942456558558236"><ele>183.0</ele><time>2026-03-24T17:30:09.998Z</time></trkpt><trkpt lat="45.895268016787305" lon="11.94243308741846"><ele>181.33333333333334</ele><time>2026-03-24T17:30:10.998Z</time></trkpt><trkpt lat="45.89508229169315" lon="11.942405822432374"><ele>179.66666666666669</ele><time>2026-03-24T17:30:11.998Z</time></trkpt><trkpt lat="45.89489700733751" lon="11.942386861918722"><ele>178.0</ele><time>2026-03-24T17:30:12.998Z</time></trkpt><trkpt lat="45.894713799373825" lon="11.942360450446976"><ele>178.0</ele><time>2026-03-24T17:30:13.998Z</time></trkpt><trkpt lat="45.89453137948657" lon="11.942349791222728"><ele>178.0</ele><time>2026-03-24T17:30:14.998Z</time></trkpt><trkpt lat="45.89435440823284" lon="11.942360491257254"><ele>178.0</ele><time>2026-03-24T17:30:15.998Z</time></trkpt><trkpt lat="45.89418748612095" lon="11.942401937944561"><ele>179.33333333333334</ele><time>2026-03-24T17:30:16.998Z</time></trkpt><trkpt lat="45.89402853914405" lon="11.942476382971135"><ele>180.66666666666666</ele><time>2026-03-24T17:30:17.998Z</time></trkpt><trkpt lat="45.893862934001895" lon="11.942547320173258"><ele>182.0</ele><time>2026-03-24T17:30:18.998Z</time></trkpt><trkpt lat="45.89370812439651" lon="11.94264686047125"><ele>180.66666666666666</ele><time>2026-03-24T17:30:19.998Z</time></trkpt><trkpt lat="45.893558618493635" lon="11.942751377651655"><ele>179.33333333333334</ele><time>2026-03-24T17:30:20.998Z</time></trkpt><trkpt lat="45.89342885624979" lon="11.9428873134161"><ele>178.0</ele><time>2026-03-24T17:30:21.998Z</time></trkpt><trkpt lat="45.89328045592392" lon="11.942994959107452"><ele>178.0</ele><time>2026-03-24T17:30:22.998Z</time></trkpt><trkpt lat="45.893126333199014" lon="11.943101727077268"><ele>178.0</ele><time>2026-03-24T17:30:23.998Z</time></trkpt><trkpt lat="45.89297943810381" lon="11.943212946532794"><ele>178.0</ele><time>2026-03-24T17:30:24.998Z</time></trkpt><trkpt lat="45.89283484767981" lon="11.943311230734153"><ele>177.33333333333334</ele><time>2026-03-24T17:30:25.998Z</time></trkpt><trkpt lat="45.89269863783123" lon="11.943386094247844"><ele>176.66666666666666</ele><time>2026-03-24T17:30:26.998Z</time></trkpt><trkpt lat="45.892551522755035" lon="11.94346681484957"><ele>176.0</ele><time>2026-03-24T17:30:27.998Z</time></trkpt><trkpt lat="45.8924054279408" lon="11.943527487095768"><ele>176.0</ele><time>2026-03-24T17:30:28.998Z</time></trkpt><trkpt lat="45.89225703978572" lon="11.943593416926241"><ele>176.0</ele><time>2026-03-24T17:30:29.998Z</time></trkpt><trkpt lat="45.892097583401316" lon="11.943637372988603"><ele>176.0</ele><time>2026-03-24T17:30:30.998Z</time></trkpt><trkpt lat="45.89193870828823" lon="11.943674640925213"><ele>176.0</ele><time>2026-03-24T17:30:31.998Z</time></trkpt><trkpt lat="45.89177543619861" lon="11.943711756147271"><ele>176.0</ele><time>2026-03-24T17:30:32.998Z</time></trkpt><trkpt lat="45.891613663638346" lon="11.943713556330962"><ele>176.0</ele><time>2026-03-24T17:30:33.998Z</time></trkpt><trkpt lat="45.891455511691824" lon="11.943744539807412"><ele>175.66666666666666</ele><time>2026-03-24T17:30:34.998Z</time></trkpt><trkpt lat="45.891300943997685" lon="11.943775430664685"><ele>175.33333333333334</ele><time>2026-03-24T17:30:35.998Z</time></trkpt><trkpt lat="45.891149224991935" lon="11.943803074556794"><ele>175.0</ele><time>2026-03-24T17:30:36.998Z</time></trkpt><trkpt lat="45.890997595061215" lon="11.943829475024094"><ele>175.33333333333334</ele><time>2026-03-24T17:30:38Z</time></trkpt><trkpt lat="45.89084629715332" lon="11.943876095904475"><ele>175.66666666666666</ele><time>2026-03-24T17:30:39Z</time></trkpt><trkpt lat="45.890696365922345" lon="11.943902472040829"><ele>176.0</ele><time>2026-03-24T17:30:40Z</time></trkpt><trkpt lat="45.89054354787396" lon="11.943909327417776"><ele>176.0</ele><time>2026-03-24T17:30:41Z</time></trkpt><trkpt lat="45.89039478263378" lon="11.943949898693836"><ele>176.0</ele><time>2026-03-24T17:30:42Z</time></trkpt><trkpt lat="45.890239019868865" lon="11.9440160567442"><ele>176.0</ele><time>2026-03-24T17:30:43Z</time></trkpt><trkpt lat="45.890076343126715" lon="11.944117642732818"><ele>175.33333333333331</ele><time>2026-03-24T17:30:44Z</time></trkpt><trkpt lat="45.88992084572875" lon="11.944250690325468"><ele>174.66666666666666</ele><time>2026-03-24T17:30:45Z</time></trkpt><trkpt lat="45.88976182584755" lon="11.944394593207763"><ele>174.0</ele><time>2026-03-24T17:30:46Z</time></trkpt><trkpt lat="45.889585844160784" lon="11.94455560875541"><ele>174.0</ele><time>2026-03-24T17:30:47Z</time></trkpt><trkpt lat="45.88940658754024" lon="11.944721499219488"><ele>174.0</ele><time>2026-03-24T17:30:48Z</time></trkpt><trkpt lat="45.8892094265661" lon="11.944899903395912"><ele>174.0</ele><time>2026-03-24T17:30:49Z</time></trkpt><trkpt lat="45.88899313115206" lon="11.945085155673077"><ele>171.5</ele><time>2026-03-24T17:30:50Z</time></trkpt><trkpt lat="45.88876539423329" lon="11.945281300515667"><ele>169.0</ele><time>2026-03-24T17:30:51Z</time></trkpt><trkpt lat="45.88853637144261" lon="11.945483291571701"><ele>169.5</ele><time>2026-03-24T17:30:52Z</time></trkpt><trkpt lat="45.88830819470206" lon="11.94569340832373"><ele>170.0</ele><time>2026-03-24T17:30:53Z</time></trkpt><trkpt lat="45.8881107674831" lon="11.945895268790645"><ele>170.0</ele><time>2026-03-24T17:30:54Z</time></trkpt><trkpt lat="45.8879079548618" lon="11.946053053677606"><ele>170.0</ele><time>2026-03-24T17:30:55Z</time></trkpt><trkpt lat="45.8877198493123" lon="11.94622535260692"><ele>170.0</ele><time>2026-03-24T17:30:56Z</time></trkpt><trkpt lat="45.88754765711785" lon="11.946410532806146"><ele>170.0</ele><time>2026-03-24T17:30:57Z</time></trkpt><trkpt lat="45.88736795522318" lon="11.946571434079859"><ele>170.0</ele><time>2026-03-24T17:30:58Z</time></trkpt><trkpt lat="45.88718873580984" lon="11.946730226250986"><ele>170.0</ele><time>2026-03-24T17:30:59Z</time></trkpt><trkpt lat="45.88701284375822" lon="11.946879493962145"><ele>170.0</ele><time>2026-03-24T17:31:00Z</time></trkpt><trkpt lat="45.8868437287192" lon="11.947033320111233"><ele>170.0</ele><time>2026-03-24T17:31:01Z</time></trkpt><trkpt lat="45.8866836208828" lon="11.94719378765559"><ele>169.66666666666666</ele><time>2026-03-24T17:31:02Z</time></trkpt><trkpt lat="45.88653496396632" lon="11.947365538047473"><ele>169.33333333333334</ele><time>2026-03-24T17:31:03Z</time></trkpt><trkpt lat="45.886404212045875" lon="11.94756833673108"><ele>169.0</ele><time>2026-03-24T17:31:04Z</time></trkpt><trkpt lat="45.8862824405515" lon="11.947790844187116"><ele>169.0</ele><time>2026-03-24T17:31:05Z</time></trkpt><trkpt lat="45.88617368648406" lon="11.94803445402125"><ele>169.0</ele><time>2026-03-24T17:31:06Z</time></trkpt><trkpt lat="45.886048027210734" lon="11.94827500699472"><ele>169.0</ele><time>2026-03-24T17:31:07Z</time></trkpt><trkpt lat="45.885944181162834" lon="11.948541095302108"><ele>169.33333333333334</ele><time>2026-03-24T17:31:08Z</time></trkpt><trkpt lat="45.88583014599282" lon="11.948803124661561"><ele>169.66666666666666</ele><time>2026-03-24T17:31:09Z</time></trkpt><trkpt lat="45.8857371115387" lon="11.94906693019359"><ele>170.0</ele><time>2026-03-24T17:31:10Z</time></trkpt><trkpt lat="45.885641074342175" lon="11.949343057365338"><ele>170.0</ele><time>2026-03-24T17:31:11Z</time></trkpt><trkpt lat="45.88554819105004" lon="11.94961473806174"><ele>170.0</ele><time>2026-03-24T17:31:12Z</time></trkpt><trkpt lat="45.88546205905306" lon="11.949890121516901"><ele>170.0</ele><time>2026-03-24T17:31:13Z</time></trkpt><trkpt lat="45.8853814212494" lon="11.950163066716684"><ele>168.66666666666666</ele><time>2026-03-24T17:31:14Z</time></trkpt><trkpt lat="45.88531529136624" lon="11.950428819487426"><ele>167.33333333333334</ele><time>2026-03-24T17:31:15Z</time></trkpt><trkpt lat="45.88525777048454" lon="11.950692355241092"><ele>166.0</ele><time>2026-03-24T17:31:16Z</time></trkpt><trkpt lat="45.885213765510386" lon="11.950946669149127"><ele>166.0</ele><time>2026-03-24T17:31:16.999Z</time></trkpt><trkpt lat="45.88515764501391" lon="11.951202107904674"><ele>166.0</ele><time>2026-03-24T17:31:17.999Z</time></trkpt><trkpt lat="45.885097805645024" lon="11.951460325728775"><ele>166.0</ele><time>2026-03-24T17:31:18.999Z</time></trkpt><trkpt lat="45.885029432442494" lon="11.951713099320418"><ele>172.0</ele><time>2026-03-24T17:31:19.999Z</time></trkpt><trkpt lat="45.884971267045906" lon="11.951962392933025"><ele>178.0</ele><time>2026-03-24T17:31:20.999Z</time></trkpt><trkpt lat="45.884935391645605" lon="11.95222765075963"><ele>184.0</ele><time>2026-03-24T17:31:21.999Z</time></trkpt><trkpt lat="45.88489492108659" lon="11.952505141564789"><ele>181.66666666666669</ele><time>2026-03-24T17:31:22.999Z</time></trkpt><trkpt lat="45.884849789105864" lon="11.952779016040067"><ele>179.33333333333334</ele><time>2026-03-24T17:31:23.999Z</time></trkpt><trkpt lat="45.88479412245232" lon="11.953042109535549"><ele>177.0</ele><time>2026-03-24T17:31:24.999Z</time></trkpt><trkpt lat="45.88474412221218" lon="11.953308464375446"><ele>175.33333333333334</ele><time>2026-03-24T17:31:25.999Z</time></trkpt><trkpt lat="45.884699542489145" lon="11.95357848010971"><ele>173.66666666666669</ele><time>2026-03-24T17:31:26.999Z</time></trkpt><trkpt lat="45.884639917450734" lon="11.9538375835732"><ele>172.0</ele><time>2026-03-24T17:31:27.999Z</time></trkpt><trkpt lat="45.88456687856996" lon="11.954085402139707"><ele>172.0</ele><time>2026-03-24T17:31:28.999Z</time></trkpt><trkpt lat="45.884471788063415" lon="11.954314270220262"><ele>172.0</ele><time>2026-03-24T17:31:29.999Z</time></trkpt><trkpt lat="45.88436191189801" lon="11.954535150536355"><ele>172.0</ele><time>2026-03-24T17:31:30.999Z</time></trkpt><trkpt lat="45.88423047262803" lon="11.954738120053566"><ele>171.0</ele><time>2026-03-24T17:31:31.999Z</time></trkpt><trkpt lat="45.88409674948752" lon="11.95496926521771"><ele>170.0</ele><time>2026-03-24T17:31:32.999Z</time></trkpt><trkpt lat="45.88396491005699" lon="11.95520759999784"><ele>169.0</ele><time>2026-03-24T17:31:33.999Z</time></trkpt><trkpt lat="45.88382472611192" lon="11.95544024822758"><ele>169.0</ele><time>2026-03-24T17:31:34.999Z</time></trkpt><trkpt lat="45.88369080539291" lon="11.955681772205093"><ele>169.0</ele><time>2026-03-24T17:31:35.999Z</time></trkpt><trkpt lat="45.88354982597278" lon="11.955914748854351"><ele>169.0</ele><time>2026-03-24T17:31:36.999Z</time></trkpt><trkpt lat="45.88340828676476" lon="11.956155070340127"><ele>168.66666666666669</ele><time>2026-03-24T17:31:37.999Z</time></trkpt><trkpt lat="45.883266942168284" lon="11.956393857272051"><ele>168.33333333333334</ele><time>2026-03-24T17:31:38.999Z</time></trkpt><trkpt lat="45.88312664249869" lon="11.956630619428378"><ele>168.0</ele><time>2026-03-24T17:31:39.999Z</time></trkpt><trkpt lat="45.88298666872942" lon="11.956864450889812"><ele>168.0</ele><time>2026-03-24T17:31:40.999Z</time></trkpt><trkpt lat="45.88284701381263" lon="11.957094891024184"><ele>168.0</ele><time>2026-03-24T17:31:41.999Z</time></trkpt><trkpt lat="45.88271003288512" lon="11.957326186061708"><ele>168.0</ele><time>2026-03-24T17:31:42.999Z</time></trkpt><trkpt lat="45.88257349127484" lon="11.957550652933618"><ele>168.33333333333334</ele><time>2026-03-24T17:31:43.999Z</time></trkpt><trkpt lat="45.882432736125374" lon="11.95776863185926"><ele>168.66666666666669</ele><time>2026-03-24T17:31:44.999Z</time></trkpt><trkpt lat="45.88228823849015" lon="11.957986209839303"><ele>169.0</ele><time>2026-03-24T17:31:45.999Z</time></trkpt><trkpt lat="45.88214493525205" lon="11.95819589962818"><ele>170.0</ele><time>2026-03-24T17:31:46.999Z</time></trkpt><trkpt lat="45.88200628266465" lon="11.958402226335068"><ele>171.0</ele><time>2026-03-24T17:31:47.999Z</time></trkpt><trkpt lat="45.88187762937258" lon="11.958620652278771"><ele>172.0</ele><time>2026-03-24T17:31:48.999Z</time></trkpt><trkpt lat="45.881742117506256" lon="11.9588427705818"><ele>172.0</ele><time>2026-03-24T17:31:49.999Z</time></trkpt><trkpt lat="45.88161916428922" lon="11.959085840725294"><ele>172.0</ele><time>2026-03-24T17:31:50.999Z</time></trkpt><trkpt lat="45.881503397047425" lon="11.95933966519363"><ele>172.0</ele><time>2026-03-24T17:31:51.999Z</time></trkpt><trkpt lat="45.881387183396754" lon="11.959598453301746"><ele>170.66666666666669</ele><time>2026-03-24T17:31:52.999Z</time></trkpt><trkpt lat="45.881264396347376" lon="11.959859930066353"><ele>169.33333333333334</ele><time>2026-03-24T17:31:53.999Z</time></trkpt><trkpt lat="45.88114082230435" lon="11.960123087665302"><ele>168.0</ele><time>2026-03-24T17:31:54.999Z</time></trkpt><trkpt lat="45.881011555974624" lon="11.960386512072123"><ele>169.33333333333334</ele><time>2026-03-24T17:31:55.999Z</time></trkpt><trkpt lat="45.88088399808726" lon="11.960641155915217"><ele>170.66666666666669</ele><time>2026-03-24T17:31:56.999Z</time></trkpt><trkpt lat="45.88074971320764" lon="11.960888412456057"><ele>172.0</ele><time>2026-03-24T17:31:57.999Z</time></trkpt><trkpt lat="45.88060918492111" lon="11.961123017558231"><ele>172.0</ele><time>2026-03-24T17:31:58.999Z</time></trkpt><trkpt lat="45.88046012220324" lon="11.961344470343295"><ele>172.0</ele><time>2026-03-24T17:31:59.999Z</time></trkpt><trkpt lat="45.880305464527794" lon="11.961555821322456"><ele>172.0</ele><time>2026-03-24T17:32:00.999Z</time></trkpt><trkpt lat="45.88014568521619" lon="11.961751788578033"><ele>171.66666666666669</ele><time>2026-03-24T17:32:01.999Z</time></trkpt><trkpt lat="45.87998425684388" lon="11.961951349522517"><ele>171.33333333333334</ele><time>2026-03-24T17:32:02.999Z</time></trkpt><trkpt lat="45.87982300835768" lon="11.96214768796097"><ele>171.0</ele><time>2026-03-24T17:32:03.999Z</time></trkpt><trkpt lat="45.87967223667941" lon="11.962339030449103"><ele>171.0</ele><time>2026-03-24T17:32:04.999Z</time></trkpt><trkpt lat="45.87953089701678" lon="11.962509023607314"><ele>171.0</ele><time>2026-03-24T17:32:05.999Z</time></trkpt><trkpt lat="45.8793976740259" lon="11.962653653785578"><ele>171.0</ele><time>2026-03-24T17:32:06.999Z</time></trkpt><trkpt lat="45.87925096405132" lon="11.96273468775821"><ele>170.0</ele><time>2026-03-24T17:32:07.999Z</time></trkpt><trkpt lat="45.87911298467457" lon="11.962842566801253"><ele>169.0</ele><time>2026-03-24T17:32:08.999Z</time></trkpt><trkpt lat="45.8789593203071" lon="11.962863098395198"><ele>168.0</ele><time>2026-03-24T17:32:09.999Z</time></trkpt><trkpt lat="45.87878348769249" lon="11.962889284073848"><ele>168.0</ele><time>2026-03-24T17:32:10.998Z</time></trkpt><trkpt lat="45.87861290401669" lon="11.962928543591916"><ele>168.0</ele><time>2026-03-24T17:32:11.998Z</time></trkpt><trkpt lat="45.878426773052354" lon="11.962969210375528"><ele>168.0</ele><time>2026-03-24T17:32:12.998Z</time></trkpt><trkpt lat="45.87822505311092" lon="11.963025891138786"><ele>171.33333333333334</ele><time>2026-03-24T17:32:13.998Z</time></trkpt><trkpt lat="45.87801058318315" lon="11.963071663864282"><ele>174.66666666666669</ele><time>2026-03-24T17:32:14.998Z</time></trkpt><trkpt lat="45.8777935958198" lon="11.963109996046192"><ele>178.0</ele><time>2026-03-24T17:32:15.998Z</time></trkpt><trkpt lat="45.8775694646581" lon="11.963150919298279"><ele>178.5</ele><time>2026-03-24T17:32:16.998Z</time></trkpt><trkpt lat="45.877344601564566" lon="11.963186196475826"><ele>179.0</ele><time>2026-03-24T17:32:17.998Z</time></trkpt><trkpt lat="45.87711834724545" lon="11.96323347967297"><ele>179.0</ele><time>2026-03-24T17:32:18.998Z</time></trkpt><trkpt lat="45.876894110567726" lon="11.963288076877953"><ele>179.0</ele><time>2026-03-24T17:32:19.998Z</time></trkpt><trkpt lat="45.87667343574629" lon="11.963322325272355"><ele>179.0</ele><time>2026-03-24T17:32:20.998Z</time></trkpt><trkpt lat="45.87646418741733" lon="11.963365619643813"><ele>179.33333333333331</ele><time>2026-03-24T17:32:21.998Z</time></trkpt><trkpt lat="45.876272466281534" lon="11.963418755875571"><ele>179.66666666666666</ele><time>2026-03-24T17:32:22.998Z</time></trkpt><trkpt lat="45.876091190360384" lon="11.963479081028698"><ele>180.0</ele><time>2026-03-24T17:32:23.998Z</time></trkpt><trkpt lat="45.87590465995784" lon="11.963576472319023"><ele>180.0</ele><time>2026-03-24T17:32:24.998Z</time></trkpt><trkpt lat="45.8757148564346" lon="11.963679415766252"><ele>180.0</ele><time>2026-03-24T17:32:25.998Z</time></trkpt><trkpt lat="45.87552865849318" lon="11.963787700086813"><ele>180.0</ele><time>2026-03-24T17:32:26.998Z</time></trkpt><trkpt lat="45.875341194293185" lon="11.9639161773314"><ele>180.0</ele><time>2026-03-24T17:32:27.998Z</time></trkpt><trkpt lat="45.87514948572377" lon="11.964039559810065"><ele>180.0</ele><time>2026-03-24T17:32:28.998Z</time></trkpt><trkpt lat="45.87495524052701" lon="11.964161603744214"><ele>180.0</ele><time>2026-03-24T17:32:29.998Z</time></trkpt><trkpt lat="45.874765594725424" lon="11.964283531221726"><ele>180.0</ele><time>2026-03-24T17:32:30.998Z</time></trkpt><trkpt lat="45.87457660814924" lon="11.964406787236396"><ele>180.0</ele><time>2026-03-24T17:32:31.998Z</time></trkpt><trkpt lat="45.87438317649015" lon="11.964531684061713"><ele>180.0</ele><time>2026-03-24T17:32:32.998Z</time></trkpt><trkpt lat="45.874189583746514" lon="11.964658313793164"><ele>180.0</ele><time>2026-03-24T17:32:33.998Z</time></trkpt><trkpt lat="45.873997476336754" lon="11.964780930358113"><ele>180.0</ele><time>2026-03-24T17:32:34.998Z</time></trkpt><trkpt lat="45.87380424546808" lon="11.964912416373231"><ele>180.0</ele><time>2026-03-24T17:32:35.998Z</time></trkpt><trkpt lat="45.873612586746674" lon="11.965031462729806"><ele>178.33333333333334</ele><time>2026-03-24T17:32:36.998Z</time></trkpt><trkpt lat="45.873433695194024" lon="11.965149741824064"><ele>176.66666666666669</ele><time>2026-03-24T17:32:37.998Z</time></trkpt><trkpt lat="45.87326974205508" lon="11.96525717716054"><ele>175.0</ele><time>2026-03-24T17:32:38.998Z</time></trkpt><trkpt lat="45.873112888753525" lon="11.965369852036146"><ele>175.0</ele><time>2026-03-24T17:32:39.998Z</time></trkpt><trkpt lat="45.87296888891958" lon="11.965478983835663"><ele>175.0</ele><time>2026-03-24T17:32:40.998Z</time></trkpt><trkpt lat="45.872826104005625" lon="11.965617401768212"><ele>175.0</ele><time>2026-03-24T17:32:41.998Z</time></trkpt><trkpt lat="45.872687087670805" lon="11.965760062704168"><ele>175.5</ele><time>2026-03-24T17:32:42.998Z</time></trkpt><trkpt lat="45.87256244072137" lon="11.965909741113391"><ele>176.0</ele><time>2026-03-24T17:32:44Z</time></trkpt><trkpt lat="45.872461368498364" lon="11.966051707406722"><ele>176.5</ele><time>2026-03-24T17:32:45Z</time></trkpt><trkpt lat="45.872363016260465" lon="11.966182235607096"><ele>177.0</ele><time>2026-03-24T17:32:46Z</time></trkpt><trkpt lat="45.87226029408681" lon="11.966313861857"><ele>177.0</ele><time>2026-03-24T17:32:47Z</time></trkpt><trkpt lat="45.872170350730066" lon="11.96644099269774"><ele>177.0</ele><time>2026-03-24T17:32:48Z</time></trkpt><trkpt lat="45.87208046877424" lon="11.966554003179427"><ele>177.0</ele><time>2026-03-24T17:32:49Z</time></trkpt><trkpt lat="45.87200580872498" lon="11.966663097409269"><ele>177.0</ele><time>2026-03-24T17:32:50Z</time></trkpt><trkpt lat="45.87192034949753" lon="11.96677217106082"><ele>176.66666666666666</ele><time>2026-03-24T17:32:51Z</time></trkpt><trkpt lat="45.87185011568197" lon="11.966865575857394"><ele>176.33333333333334</ele><time>2026-03-24T17:32:52Z</time></trkpt><trkpt lat="45.871767271537884" lon="11.96694824961641"><ele>176.0</ele><time>2026-03-24T17:32:53Z</time></trkpt><trkpt lat="45.87168944080457" lon="11.966997588672806"><ele>175.66666666666669</ele><time>2026-03-24T17:32:54Z</time></trkpt><trkpt lat="45.87162583012738" lon="11.967009917382347"><ele>175.33333333333334</ele><time>2026-03-24T17:32:55Z</time></trkpt><trkpt lat="45.871544035500555" lon="11.96699193174004"><ele>175.0</ele><time>2026-03-24T17:32:56Z</time></trkpt><trkpt lat="45.87146540796999" lon="11.966935004748501"><ele>175.0</ele><time>2026-03-24T17:32:57Z</time></trkpt><trkpt lat="45.87137779631868" lon="11.96686775191788"><ele>175.0</ele><time>2026-03-24T17:32:58Z</time></trkpt><trkpt lat="45.87127906389034" lon="11.966809599728562"><ele>175.0</ele><time>2026-03-24T17:32:59Z</time></trkpt><trkpt lat="45.871171839868325" lon="11.966795392139831"><ele>175.0</ele><time>2026-03-24T17:33:00Z</time></trkpt><trkpt lat="45.87107844342509" lon="11.96685022594441"><ele>175.0</ele><time>2026-03-24T17:33:01Z</time></trkpt><trkpt lat="45.87100646328146" lon="11.966937563292042"><ele>175.0</ele><time>2026-03-24T17:33:02Z</time></trkpt><trkpt lat="45.870965153911975" lon="11.967059456010336"><ele>175.0</ele><time>2026-03-24T17:33:03Z</time></trkpt><trkpt lat="45.87095856712669" lon="11.967195786711336"><ele>175.0</ele><time>2026-03-24T17:33:04Z</time></trkpt><trkpt lat="45.87098797881961" lon="11.967329740588667"><ele>175.0</ele><time>2026-03-24T17:33:05Z</time></trkpt><trkpt lat="45.87101016476169" lon="11.967469107691674"><ele>175.0</ele><time>2026-03-24T17:33:06Z</time></trkpt><trkpt lat="45.87099966207543" lon="11.967623641877898"><ele>175.75</ele><time>2026-03-24T17:33:07Z</time></trkpt><trkpt lat="45.870993138038635" lon="11.967769663753712"><ele>176.5</ele><time>2026-03-24T17:33:08Z</time></trkpt><trkpt lat="45.87086760106336" lon="11.9678852931795"><ele>177.25</ele><time>2026-03-24T17:33:09Z</time></trkpt><trkpt lat="45.87076313457505" lon="11.967981399944138"><ele>178.0</ele><time>2026-03-24T17:33:10Z</time></trkpt><trkpt lat="45.87064944702062" lon="11.96808721764608"><ele>178.0</ele><time>2026-03-24T17:33:11Z</time></trkpt><trkpt lat="45.870529161066585" lon="11.968192543496778"><ele>178.0</ele><time>2026-03-24T17:33:12Z</time></trkpt><trkpt lat="45.870411319518205" lon="11.968304014687437"><ele>178.0</ele><time>2026-03-24T17:33:13Z</time></trkpt><trkpt lat="45.87029084241912" lon="11.968417578583256"><ele>178.0</ele><time>2026-03-24T17:33:14Z</time></trkpt><trkpt lat="45.87015937061748" lon="11.968544655080446"><ele>179.33333333333334</ele><time>2026-03-24T17:33:15Z</time></trkpt><trkpt lat="45.87002487654366" lon="11.968676704388749"><ele>180.66666666666666</ele><time>2026-03-24T17:33:16Z</time></trkpt><trkpt lat="45.86989367254602" lon="11.968821009287188"><ele>182.0</ele><time>2026-03-24T17:33:17Z</time></trkpt><trkpt lat="45.86975513103977" lon="11.968988091845778"><ele>182.0</ele><time>2026-03-24T17:33:18Z</time></trkpt><trkpt lat="45.869624499264134" lon="11.969150139394277"><ele>182.0</ele><time>2026-03-24T17:33:19Z</time></trkpt><trkpt lat="45.86950306821179" lon="11.969305853776955"><ele>182.0</ele><time>2026-03-24T17:33:20Z</time></trkpt><trkpt lat="45.86940025953157" lon="11.969480718213891"><ele>183.66666666666666</ele><time>2026-03-24T17:33:21Z</time></trkpt><trkpt lat="45.86930128462933" lon="11.969653137285205"><ele>185.33333333333334</ele><time>2026-03-24T17:33:21.999Z</time></trkpt><trkpt lat="45.86920817526169" lon="11.96982269873756"><ele>187.0</ele><time>2026-03-24T17:33:22.999Z</time></trkpt><trkpt lat="45.869114889997334" lon="11.969992336610936"><ele>184.66666666666669</ele><time>2026-03-24T17:33:23.999Z</time></trkpt><trkpt lat="45.869025167089376" lon="11.97017281392182"><ele>182.33333333333334</ele><time>2026-03-24T17:33:24.999Z</time></trkpt><trkpt lat="45.86894558362814" lon="11.970360491297898"><ele>180.0</ele><time>2026-03-24T17:33:25.999Z</time></trkpt><trkpt lat="45.86886664001936" lon="11.970552457913614"><ele>180.0</ele><time>2026-03-24T17:33:26.999Z</time></trkpt><trkpt lat="45.868791597901044" lon="11.97075020803933"><ele>180.0</ele><time>2026-03-24T17:33:27.999Z</time></trkpt><trkpt lat="45.86872036157191" lon="11.97094538495063"><ele>180.0</ele><time>2026-03-24T17:33:28.999Z</time></trkpt><trkpt lat="45.86864349732819" lon="11.971143168148142"><ele>181.33333333333334</ele><time>2026-03-24T17:33:29.999Z</time></trkpt><trkpt lat="45.868570128541315" lon="11.971341880124182"><ele>182.66666666666669</ele><time>2026-03-24T17:33:30.999Z</time></trkpt><trkpt lat="45.8684984178203" lon="11.971533225209315"><ele>184.0</ele><time>2026-03-24T17:33:31.999Z</time></trkpt><trkpt lat="45.86842751850055" lon="11.971722309673467"><ele>184.0</ele><time>2026-03-24T17:33:32.999Z</time></trkpt><trkpt lat="45.86834364250846" lon="11.971916822242186"><ele>184.0</ele><time>2026-03-24T17:33:33.999Z</time></trkpt><trkpt lat="45.86828103419274" lon="11.972119516718953"><ele>184.0</ele><time>2026-03-24T17:33:34.999Z</time></trkpt><trkpt lat="45.86820682975022" lon="11.97233250768519"><ele>181.0</ele><time>2026-03-24T17:33:35.999Z</time></trkpt><trkpt lat="45.868125657610534" lon="11.97255425062712"><ele>178.0</ele><time>2026-03-24T17:33:36.999Z</time></trkpt><trkpt lat="45.86804089353803" lon="11.972785973689552"><ele>175.0</ele><time>2026-03-24T17:33:37.999Z</time></trkpt><trkpt lat="45.86795074213892" lon="11.973018885178263"><ele>175.0</ele><time>2026-03-24T17:33:38.999Z</time></trkpt><trkpt lat="45.86785715437528" lon="11.973252758052784"><ele>175.0</ele><time>2026-03-24T17:33:39.999Z</time></trkpt><trkpt lat="45.8677653754174" lon="11.973461651267526"><ele>175.0</ele><time>2026-03-24T17:33:40.999Z</time></trkpt><trkpt lat="45.86768574036677" lon="11.973655388002427"><ele>176.5</ele><time>2026-03-24T17:33:41.999Z</time></trkpt><trkpt lat="45.86760288782997" lon="11.973839401965074"><ele>178.0</ele><time>2026-03-24T17:33:42.999Z</time></trkpt><trkpt lat="45.86754239835809" lon="11.974022311785482"><ele>179.5</ele><time>2026-03-24T17:33:43.999Z</time></trkpt><trkpt lat="45.867477310279185" lon="11.974209591164577"><ele>181.0</ele><time>2026-03-24T17:33:44.999Z</time></trkpt><trkpt lat="45.86739583295408" lon="11.974399566089694"><ele>181.0</ele><time>2026-03-24T17:33:45.999Z</time></trkpt><trkpt lat="45.867321783835465" lon="11.974588131521108"><ele>181.0</ele><time>2026-03-24T17:33:46.999Z</time></trkpt><trkpt lat="45.86724909245116" lon="11.974780351192608"><ele>181.0</ele><time>2026-03-24T17:33:47.999Z</time></trkpt><trkpt lat="45.867176224196434" lon="11.974973307085952"><ele>179.33333333333334</ele><time>2026-03-24T17:33:48.999Z</time></trkpt><trkpt lat="45.867099069857844" lon="11.97516974728088"><ele>177.66666666666666</ele><time>2026-03-24T17:33:49.999Z</time></trkpt><trkpt lat="45.867021874163726" lon="11.975368527859954"><ele>176.0</ele><time>2026-03-24T17:33:50.999Z</time></trkpt><trkpt lat="45.86694387660369" lon="11.975571127800409"><ele>176.0</ele><time>2026-03-24T17:33:51.999Z</time></trkpt><trkpt lat="45.86686638646708" lon="11.975773000292406"><ele>176.0</ele><time>2026-03-24T17:33:52.999Z</time></trkpt><trkpt lat="45.86678692442671" lon="11.975980634466469"><ele>176.0</ele><time>2026-03-24T17:33:53.999Z</time></trkpt><trkpt lat="45.86670187800537" lon="11.976192304238193"><ele>176.33333333333331</ele><time>2026-03-24T17:33:54.999Z</time></trkpt><trkpt lat="45.86661589226763" lon="11.97641276322976"><ele>176.66666666666666</ele><time>2026-03-24T17:33:55.999Z</time></trkpt><trkpt lat="45.8665298751746" lon="11.97663196740837"><ele>177.0</ele><time>2026-03-24T17:33:56.999Z</time></trkpt><trkpt lat="45.866441771546164" lon="11.976858077105977"><ele>177.0</ele><time>2026-03-24T17:33:57.999Z</time></trkpt><trkpt lat="45.86635309310729" lon="11.977091045210488"><ele>177.0</ele><time>2026-03-24T17:33:58.999Z</time></trkpt><trkpt lat="45.86626076411763" lon="11.977327849967724"><ele>177.0</ele><time>2026-03-24T17:33:59.999Z</time></trkpt><trkpt lat="45.86616770804522" lon="11.977565779809607"><ele>176.66666666666666</ele><time>2026-03-24T17:34:00.999Z</time></trkpt><trkpt lat="45.86607378646348" lon="11.97780997578273"><ele>176.33333333333331</ele><time>2026-03-24T17:34:01.999Z</time></trkpt><trkpt lat="45.86597943340274" lon="11.978056566546696"><ele>176.0</ele><time>2026-03-24T17:34:02.999Z</time></trkpt><trkpt lat="45.86588602181709" lon="11.978306332362106"><ele>177.33333333333331</ele><time>2026-03-24T17:34:03.999Z</time></trkpt><trkpt lat="45.86579650287294" lon="11.978560225806262"><ele>178.66666666666666</ele><time>2026-03-24T17:34:04.999Z</time></trkpt><trkpt lat="45.86571462731259" lon="11.978818347286094"><ele>180.0</ele><time>2026-03-24T17:34:05.999Z</time></trkpt><trkpt lat="45.865635429361966" lon="11.979080792206686"><ele>179.33333333333334</ele><time>2026-03-24T17:34:06.999Z</time></trkpt><trkpt lat="45.865567519356595" lon="11.979331666958272"><ele>178.66666666666669</ele><time>2026-03-24T17:34:07.999Z</time></trkpt><trkpt lat="45.865506592065856" lon="11.979567209984408"><ele>178.0</ele><time>2026-03-24T17:34:08.999Z</time></trkpt><trkpt lat="45.86545500937056" lon="11.979791636809297"><ele>176.66666666666669</ele><time>2026-03-24T17:34:09.999Z</time></trkpt><trkpt lat="45.86540994739784" lon="11.980020641775333"><ele>175.33333333333334</ele><time>2026-03-24T17:34:10.999Z</time></trkpt><trkpt lat="45.86537023179387" lon="11.980256587092624"><ele>174.0</ele><time>2026-03-24T17:34:11.999Z</time></trkpt><trkpt lat="45.86533232012668" lon="11.980501743617621"><ele>174.0</ele><time>2026-03-24T17:34:12.999Z</time></trkpt><trkpt lat="45.865307474829976" lon="11.980760031769764"><ele>174.0</ele><time>2026-03-24T17:34:13.999Z</time></trkpt><trkpt lat="45.86528563499648" lon="11.981024071819801"><ele>174.0</ele><time>2026-03-24T17:34:14.999Z</time></trkpt><trkpt lat="45.86526391331196" lon="11.981312957774163"><ele>174.33333333333334</ele><time>2026-03-24T17:34:15.998Z</time></trkpt><trkpt lat="45.865240483967725" lon="11.981606275328247"><ele>174.66666666666669</ele><time>2026-03-24T17:34:16.998Z</time></trkpt><trkpt lat="45.865216252754685" lon="11.98191652322389"><ele>175.0</ele><time>2026-03-24T17:34:17.998Z</time></trkpt><trkpt lat="45.86518329398471" lon="11.982229438306186"><ele>173.33333333333334</ele><time>2026-03-24T17:34:18.998Z</time></trkpt><trkpt lat="45.86516194461716" lon="11.98254578941304"><ele>171.66666666666666</ele><time>2026-03-24T17:34:19.998Z</time></trkpt><trkpt lat="45.86513854461259" lon="11.982854100707417"><ele>170.0</ele><time>2026-03-24T17:34:20.998Z</time></trkpt><trkpt lat="45.86511479193784" lon="11.983155739314661"><ele>171.66666666666666</ele><time>2026-03-24T17:34:21.998Z</time></trkpt><trkpt lat="45.86509214126879" lon="11.98344523334202"><ele>173.33333333333334</ele><time>2026-03-24T17:34:22.998Z</time></trkpt><trkpt lat="45.86506572222486" lon="11.983725861812292"><ele>175.0</ele><time>2026-03-24T17:34:23.998Z</time></trkpt><trkpt lat="45.865046869092836" lon="11.984015594549804"><ele>174.66666666666669</ele><time>2026-03-24T17:34:24.998Z</time></trkpt><trkpt lat="45.865017476853666" lon="11.984302562777792"><ele>174.33333333333334</ele><time>2026-03-24T17:34:25.998Z</time></trkpt><trkpt lat="45.8649905217157" lon="11.984581076126961"><ele>174.0</ele><time>2026-03-24T17:34:26.998Z</time></trkpt><trkpt lat="45.864964168281666" lon="11.984867716751639"><ele>174.33333333333334</ele><time>2026-03-24T17:34:27.998Z</time></trkpt><trkpt lat="45.864933602796064" lon="11.98515403879461"><ele>174.66666666666669</ele><time>2026-03-24T17:34:28.998Z</time></trkpt><trkpt lat="45.86491333922412" lon="11.985462023982343"><ele>175.0</ele><time>2026-03-24T17:34:29.998Z</time></trkpt><trkpt lat="45.864887981988886" lon="11.985770884936695"><ele>174.33333333333334</ele><time>2026-03-24T17:34:30.998Z</time></trkpt><trkpt lat="45.864854986498074" lon="11.98607655658017"><ele>173.66666666666666</ele><time>2026-03-24T17:34:31.998Z</time></trkpt><trkpt lat="45.86484315537231" lon="11.986379188738212"><ele>173.0</ele><time>2026-03-24T17:34:32.998Z</time></trkpt><trkpt lat="45.864813337480975" lon="11.986653739110858"><ele>172.33333333333331</ele><time>2026-03-24T17:34:33.998Z</time></trkpt><trkpt lat="45.864780181655966" lon="11.986928450978395"><ele>171.66666666666666</ele><time>2026-03-24T17:34:34.998Z</time></trkpt><trkpt lat="45.864744400375635" lon="11.987199999392221"><ele>171.0</ele><time>2026-03-24T17:34:35.998Z</time></trkpt><trkpt lat="45.86472136163854" lon="11.98748295565296"><ele>169.33333333333334</ele><time>2026-03-24T17:34:36.998Z</time></trkpt><trkpt lat="45.86466539285483" lon="11.987756317826705"><ele>167.66666666666669</ele><time>2026-03-24T17:34:37.998Z</time></trkpt><trkpt lat="45.864630014454754" lon="11.988034669465804"><ele>166.0</ele><time>2026-03-24T17:34:38.998Z</time></trkpt><trkpt lat="45.8645734662105" lon="11.988302999389857"><ele>166.0</ele><time>2026-03-24T17:34:39.998Z</time></trkpt><trkpt lat="45.86451213187291" lon="11.988584688454722"><ele>166.0</ele><time>2026-03-24T17:34:40.998Z</time></trkpt><trkpt lat="45.86444257880917" lon="11.988852282195655"><ele>166.0</ele><time>2026-03-24T17:34:41.998Z</time></trkpt><trkpt lat="45.86436879913649" lon="11.989120322734864"><ele>165.66666666666669</ele><time>2026-03-24T17:34:42.998Z</time></trkpt><trkpt lat="45.864287324307" lon="11.989381563589298"><ele>165.33333333333334</ele><time>2026-03-24T17:34:43.998Z</time></trkpt><trkpt lat="45.86419959788867" lon="11.989636749912538"><ele>165.0</ele><time>2026-03-24T17:34:44.998Z</time></trkpt><trkpt lat="45.86410390634228" lon="11.989881296056383"><ele>167.0</ele><time>2026-03-24T17:34:45.998Z</time></trkpt><trkpt lat="45.86399100545417" lon="11.990132508639432"><ele>169.0</ele><time>2026-03-24T17:34:46.998Z</time></trkpt><trkpt lat="45.86386866164477" lon="11.990377200130157"><ele>171.0</ele><time>2026-03-24T17:34:47.998Z</time></trkpt><trkpt lat="45.86373155688286" lon="11.990617993481125"><ele>170.0</ele><time>2026-03-24T17:34:48.998Z</time></trkpt><trkpt lat="45.86357866400293" lon="11.990843698411737"><ele>169.0</ele><time>2026-03-24T17:34:50Z</time></trkpt><trkpt lat="45.863442137805364" lon="11.991088433299687"><ele>168.0</ele><time>2026-03-24T17:34:51Z</time></trkpt><trkpt lat="45.86327388652124" lon="11.9912976862098"><ele>164.5</ele><time>2026-03-24T17:34:52Z</time></trkpt><trkpt lat="45.863104880408315" lon="11.99152509952931"><ele>161.0</ele><time>2026-03-24T17:34:53Z</time></trkpt><trkpt lat="45.86292756439573" lon="11.991750401679624"><ele>160.0</ele><time>2026-03-24T17:34:54Z</time></trkpt><trkpt lat="45.86274156381168" lon="11.991974025568204"><ele>159.0</ele><time>2026-03-24T17:34:55Z</time></trkpt><trkpt lat="45.862563515976376" lon="11.992182342463257"><ele>158.0</ele><time>2026-03-24T17:34:56Z</time></trkpt><trkpt lat="45.86240415831911" lon="11.992391748038324"><ele>157.0</ele><time>2026-03-24T17:34:57Z</time></trkpt><trkpt lat="45.86223989736716" lon="11.99257955128114"><ele>156.0</ele><time>2026-03-24T17:34:58Z</time></trkpt><trkpt lat="45.86207547210872" lon="11.9927632000082"><ele>156.0</ele><time>2026-03-24T17:34:59Z</time></trkpt><trkpt lat="45.86192023123933" lon="11.992944460584553"><ele>156.0</ele><time>2026-03-24T17:35:00Z</time></trkpt><trkpt lat="45.861766002298396" lon="11.993125060959246"><ele>156.0</ele><time>2026-03-24T17:35:01Z</time></trkpt><trkpt lat="45.86160482097753" lon="11.993313809168543"><ele>156.0</ele><time>2026-03-24T17:35:02Z</time></trkpt><trkpt lat="45.86144243988796" lon="11.99350782331137"><ele>156.0</ele><time>2026-03-24T17:35:03Z</time></trkpt><trkpt lat="45.86128258374194" lon="11.993710511942849"><ele>156.0</ele><time>2026-03-24T17:35:04Z</time></trkpt><trkpt lat="45.861124601455415" lon="11.993923507916469"><ele>156.0</ele><time>2026-03-24T17:35:05Z</time></trkpt><trkpt lat="45.86096749193488" lon="11.9941474814063"><ele>156.0</ele><time>2026-03-24T17:35:06Z</time></trkpt><trkpt lat="45.860806323329776" lon="11.9943919584608"><ele>161.0</ele><time>2026-03-24T17:35:07Z</time></trkpt><trkpt lat="45.86064972714408" lon="11.994653378604148"><ele>166.0</ele><time>2026-03-24T17:35:08Z</time></trkpt><trkpt lat="45.86050138420876" lon="11.994925424515758"><ele>167.5</ele><time>2026-03-24T17:35:09Z</time></trkpt><trkpt lat="45.86035633707747" lon="11.995211829066045"><ele>169.0</ele><time>2026-03-24T17:35:10Z</time></trkpt><trkpt lat="45.86022363727415" lon="11.99549401619572"><ele>168.33333333333334</ele><time>2026-03-24T17:35:11Z</time></trkpt><trkpt lat="45.86010375604057" lon="11.99576072505859"><ele>167.66666666666666</ele><time>2026-03-24T17:35:12Z</time></trkpt><trkpt lat="45.85998607175265" lon="11.9960077953159"><ele>167.0</ele><time>2026-03-24T17:35:13Z</time></trkpt><trkpt lat="45.85986993379765" lon="11.996251399884652"><ele>166.66666666666666</ele><time>2026-03-24T17:35:14Z</time></trkpt><trkpt lat="45.8597641656199" lon="11.996494864160173"><ele>166.33333333333334</ele><time>2026-03-24T17:35:15Z</time></trkpt><trkpt lat="45.85965812523701" lon="11.996736413264994"><ele>166.0</ele><time>2026-03-24T17:35:16Z</time></trkpt><trkpt lat="45.85955259994596" lon="11.996972249411579"><ele>166.0</ele><time>2026-03-24T17:35:17Z</time></trkpt><trkpt lat="45.85944253650901" lon="11.997203463225826"><ele>166.0</ele><time>2026-03-24T17:35:18Z</time></trkpt><trkpt lat="45.85933280758199" lon="11.997435761242901"><ele>166.0</ele><time>2026-03-24T17:35:19Z</time></trkpt><trkpt lat="45.85920712221399" lon="11.997654161179323"><ele>165.66666666666669</ele><time>2026-03-24T17:35:20Z</time></trkpt><trkpt lat="45.85908999868531" lon="11.997884280929219"><ele>165.33333333333334</ele><time>2026-03-24T17:35:21Z</time></trkpt><trkpt lat="45.85896793232654" lon="11.998116068060254"><ele>165.0</ele><time>2026-03-24T17:35:22Z</time></trkpt><trkpt lat="45.85885182525917" lon="11.99835516270484"><ele>165.33333333333334</ele><time>2026-03-24T17:35:23Z</time></trkpt><trkpt lat="45.858700787483826" lon="11.998558586015784"><ele>165.66666666666669</ele><time>2026-03-24T17:35:23.999Z</time></trkpt><trkpt lat="45.85855081612041" lon="11.99875912364025"><ele>166.0</ele><time>2026-03-24T17:35:24.999Z</time></trkpt><trkpt lat="45.85839852604133" lon="11.998953939983231"><ele>166.0</ele><time>2026-03-24T17:35:25.999Z</time></trkpt><trkpt lat="45.858236469146355" lon="11.999157710241175"><ele>166.0</ele><time>2026-03-24T17:35:26.999Z</time></trkpt><trkpt lat="45.85807896296435" lon="11.999378998280408"><ele>166.0</ele><time>2026-03-24T17:35:27.999Z</time></trkpt><trkpt lat="45.857907517545925" lon="11.999580891547442"><ele>166.0</ele><time>2026-03-24T17:35:28.999Z</time></trkpt><trkpt lat="45.85772308959818" lon="11.99975841699718"><ele>166.0</ele><time>2026-03-24T17:35:29.999Z</time></trkpt><trkpt lat="45.85753990393167" lon="11.999962451231136"><ele>166.0</ele><time>2026-03-24T17:35:30.999Z</time></trkpt><trkpt lat="45.85735275200939" lon="12.00016644059743"><ele>166.0</ele><time>2026-03-24T17:35:31.999Z</time></trkpt><trkpt lat="45.85716431449243" lon="12.00039627919561"><ele>166.0</ele><time>2026-03-24T17:35:32.999Z</time></trkpt><trkpt lat="45.85695721291442" lon="12.000592821337571"><ele>166.0</ele><time>2026-03-24T17:35:33.999Z</time></trkpt><trkpt lat="45.856745382972846" lon="12.000818534087228"><ele>165.0</ele><time>2026-03-24T17:35:34.999Z</time></trkpt><trkpt lat="45.85653138226508" lon="12.001046729765138"><ele>164.0</ele><time>2026-03-24T17:35:35.999Z</time></trkpt><trkpt lat="45.85630135763821" lon="12.001291316984153"><ele>164.0</ele><time>2026-03-24T17:35:36.999Z</time></trkpt><trkpt lat="45.8560820591773" lon="12.001522115917783"><ele>164.0</ele><time>2026-03-24T17:35:37.999Z</time></trkpt><trkpt lat="45.855848173555714" lon="12.001760858407282"><ele>165.0</ele><time>2026-03-24T17:35:38.999Z</time></trkpt><trkpt lat="45.85560453000491" lon="12.002003538443615"><ele>166.0</ele><time>2026-03-24T17:35:39.999Z</time></trkpt><trkpt lat="45.85537742463255" lon="12.002245021173602"><ele>166.0</ele><time>2026-03-24T17:35:40.999Z</time></trkpt><trkpt lat="45.85515314867345" lon="12.002438936586893"><ele>166.0</ele><time>2026-03-24T17:35:41.999Z</time></trkpt><trkpt lat="45.85495083608511" lon="12.002621774699877"><ele>165.0</ele><time>2026-03-24T17:35:42.999Z</time></trkpt><trkpt lat="45.85475388236706" lon="12.002797105622403"><ele>164.0</ele><time>2026-03-24T17:35:43.999Z</time></trkpt><trkpt lat="45.854564110057474" lon="12.002964949326024"><ele>164.0</ele><time>2026-03-24T17:35:44.999Z</time></trkpt><trkpt lat="45.854390308420555" lon="12.0031331013989"><ele>164.0</ele><time>2026-03-24T17:35:45.999Z</time></trkpt><trkpt lat="45.854224843309225" lon="12.003300597072137"><ele>164.0</ele><time>2026-03-24T17:35:46.999Z</time></trkpt><trkpt lat="45.854065836892694" lon="12.00344923203708"><ele>164.66666666666666</ele><time>2026-03-24T17:35:47.999Z</time></trkpt><trkpt lat="45.85391180439661" lon="12.003603447540854"><ele>165.33333333333334</ele><time>2026-03-24T17:35:48.999Z</time></trkpt><trkpt lat="45.85376098156718" lon="12.003770206852936"><ele>166.0</ele><time>2026-03-24T17:35:49.999Z</time></trkpt><trkpt lat="45.853616438564096" lon="12.003946388195168"><ele>166.0</ele><time>2026-03-24T17:35:50.999Z</time></trkpt><trkpt lat="45.85348004410006" lon="12.00412529075322"><ele>166.0</ele><time>2026-03-24T17:35:51.999Z</time></trkpt><trkpt lat="45.853352218295385" lon="12.00431548785827"><ele>166.0</ele><time>2026-03-24T17:35:52.999Z</time></trkpt><trkpt lat="45.85323068622608" lon="12.004499288037549"><ele>165.33333333333334</ele><time>2026-03-24T17:35:53.999Z</time></trkpt><trkpt lat="45.853112977159874" lon="12.004700307073447"><ele>164.66666666666666</ele><time>2026-03-24T17:35:54.999Z</time></trkpt><trkpt lat="45.8529929705565" lon="12.004917277606143"><ele>164.0</ele><time>2026-03-24T17:35:55.999Z</time></trkpt><trkpt lat="45.85287165839324" lon="12.005134659948475"><ele>163.66666666666666</ele><time>2026-03-24T17:35:56.999Z</time></trkpt><trkpt lat="45.85275194066966" lon="12.005351463249475"><ele>163.33333333333334</ele><time>2026-03-24T17:35:57.999Z</time></trkpt><trkpt lat="45.852633766026024" lon="12.005561252550596"><ele>163.0</ele><time>2026-03-24T17:35:58.999Z</time></trkpt><trkpt lat="45.85251785476458" lon="12.005774574948468"><ele>162.33333333333334</ele><time>2026-03-24T17:35:59.999Z</time></trkpt><trkpt lat="45.85240018236374" lon="12.005985774746886"><ele>161.66666666666666</ele><time>2026-03-24T17:36:00.999Z</time></trkpt><trkpt lat="45.852290814484505" lon="12.006168390076533"><ele>161.0</ele><time>2026-03-24T17:36:01.999Z</time></trkpt><trkpt lat="45.85216910476745" lon="12.006325711136013"><ele>161.0</ele><time>2026-03-24T17:36:02.999Z</time></trkpt><trkpt lat="45.852048557199524" lon="12.006519060572872"><ele>161.0</ele><time>2026-03-24T17:36:03.999Z</time></trkpt><trkpt lat="45.85191337457667" lon="12.006707899954817"><ele>161.0</ele><time>2026-03-24T17:36:04.999Z</time></trkpt><trkpt lat="45.851768362320286" lon="12.006876949666456"><ele>161.33333333333331</ele><time>2026-03-24T17:36:05.999Z</time></trkpt><trkpt lat="45.85161607955787" lon="12.007066545942294"><ele>161.66666666666666</ele><time>2026-03-24T17:36:06.999Z</time></trkpt><trkpt lat="45.85145396225831" lon="12.007265606818962"><ele>162.0</ele><time>2026-03-24T17:36:07.999Z</time></trkpt><trkpt lat="45.85127462168933" lon="12.007485815827003"><ele>162.5</ele><time>2026-03-24T17:36:08.999Z</time></trkpt><trkpt lat="45.85108181555743" lon="12.007722558928485"><ele>163.0</ele><time>2026-03-24T17:36:09.999Z</time></trkpt><trkpt lat="45.850885274170615" lon="12.007965796475506"><ele>163.0</ele><time>2026-03-24T17:36:10.999Z</time></trkpt><trkpt lat="45.850679911727795" lon="12.008219862100256"><ele>163.0</ele><time>2026-03-24T17:36:11.999Z</time></trkpt><trkpt lat="45.850471982212596" lon="12.00847680113194"><ele>163.0</ele><time>2026-03-24T17:36:12.999Z</time></trkpt><trkpt lat="45.85027774902236" lon="12.008716680435045"><ele>163.0</ele><time>2026-03-24T17:36:13.999Z</time></trkpt><trkpt lat="45.85009955124168" lon="12.008936472388987"><ele>162.5</ele><time>2026-03-24T17:36:14.999Z</time></trkpt><trkpt lat="45.84992606361251" lon="12.0091485692435"><ele>162.0</ele><time>2026-03-24T17:36:15.998Z</time></trkpt><trkpt lat="45.849748458289106" lon="12.009364378425616"><ele>160.5</ele><time>2026-03-24T17:36:16.998Z</time></trkpt><trkpt lat="45.849576984428296" lon="12.009598144661048"><ele>159.0</ele><time>2026-03-24T17:36:17.998Z</time></trkpt><trkpt lat="45.84938911101091" lon="12.009802965707445"><ele>161.5</ele><time>2026-03-24T17:36:18.998Z</time></trkpt><trkpt lat="45.849205197110614" lon="12.010013242004751"><ele>164.0</ele><time>2026-03-24T17:36:19.998Z</time></trkpt><trkpt lat="45.84901983578884" lon="12.010213828068093"><ele>164.0</ele><time>2026-03-24T17:36:20.998Z</time></trkpt><trkpt lat="45.848832434135616" lon="12.010414113394647"><ele>164.0</ele><time>2026-03-24T17:36:21.998Z</time></trkpt><trkpt lat="45.848639489576186" lon="12.010605726151468"><ele>163.5</ele><time>2026-03-24T17:36:22.998Z</time></trkpt><trkpt lat="45.84844628092313" lon="12.010784970179941"><ele>163.0</ele><time>2026-03-24T17:36:23.998Z</time></trkpt><trkpt lat="45.84825194857758" lon="12.010945381836313"><ele>162.0</ele><time>2026-03-24T17:36:24.998Z</time></trkpt><trkpt lat="45.84805495690876" lon="12.011101662537405"><ele>161.0</ele><time>2026-03-24T17:36:25.998Z</time></trkpt><trkpt lat="45.84784635323934" lon="12.011255846062317"><ele>161.0</ele><time>2026-03-24T17:36:26.998Z</time></trkpt><trkpt lat="45.84762941371748" lon="12.011403885213602"><ele>161.0</ele><time>2026-03-24T17:36:27.998Z</time></trkpt><trkpt lat="45.847406320883216" lon="12.011538555291736"><ele>159.5</ele><time>2026-03-24T17:36:28.998Z</time></trkpt><trkpt lat="45.84717705728113" lon="12.011665483516822"><ele>158.0</ele><time>2026-03-24T17:36:29.998Z</time></trkpt><trkpt lat="45.84694713086615" lon="12.011789857732426"><ele>158.0</ele><time>2026-03-24T17:36:30.998Z</time></trkpt><trkpt lat="45.84671379567344" lon="12.01190938142892"><ele>158.0</ele><time>2026-03-24T17:36:31.998Z</time></trkpt><trkpt lat="45.846480494300785" lon="12.012018379831833"><ele>158.0</ele><time>2026-03-24T17:36:32.998Z</time></trkpt><trkpt lat="45.84624764447978" lon="12.0121228651111"><ele>158.0</ele><time>2026-03-24T17:36:33.998Z</time></trkpt><trkpt lat="45.846013752849544" lon="12.012221128213765"><ele>158.0</ele><time>2026-03-24T17:36:34.998Z</time></trkpt><trkpt lat="45.8457790528937" lon="12.012303155490496"><ele>158.0</ele><time>2026-03-24T17:36:35.998Z</time></trkpt><trkpt lat="45.84553729366815" lon="12.01239319204941"><ele>159.0</ele><time>2026-03-24T17:36:36.998Z</time></trkpt><trkpt lat="45.845297556639025" lon="12.012489777558944"><ele>160.0</ele><time>2026-03-24T17:36:37.998Z</time></trkpt><trkpt lat="45.84505809321209" lon="12.012585372610612"><ele>160.0</ele><time>2026-03-24T17:36:38.998Z</time></trkpt><trkpt lat="45.84481736699396" lon="12.012680830546605"><ele>160.0</ele><time>2026-03-24T17:36:39.998Z</time></trkpt><trkpt lat="45.844582444970435" lon="12.012775742308737"><ele>160.0</ele><time>2026-03-24T17:36:40.998Z</time></trkpt><trkpt lat="45.844353722564875" lon="12.012867464382134"><ele>160.0</ele><time>2026-03-24T17:36:41.998Z</time></trkpt><trkpt lat="45.844127675707576" lon="12.012961443432117"><ele>160.5</ele><time>2026-03-24T17:36:42.998Z</time></trkpt><trkpt lat="45.84390321649059" lon="12.013059273782487"><ele>161.0</ele><time>2026-03-24T17:36:43.998Z</time></trkpt><trkpt lat="45.84367968925167" lon="12.01315128447722"><ele>160.0</ele><time>2026-03-24T17:36:44.998Z</time></trkpt><trkpt lat="45.84345120455639" lon="12.013250703737505"><ele>159.0</ele><time>2026-03-24T17:36:45.998Z</time></trkpt><trkpt lat="45.84323101053518" lon="12.013346965215645"><ele>159.0</ele><time>2026-03-24T17:36:46.998Z</time></trkpt><trkpt lat="45.84299814364572" lon="12.01344412633028"><ele>159.0</ele><time>2026-03-24T17:36:47.998Z</time></trkpt><trkpt lat="45.84277166898759" lon="12.013554552538393"><ele>158.0</ele><time>2026-03-24T17:36:48.998Z</time></trkpt><trkpt lat="45.842547758149706" lon="12.013665930753222"><ele>157.0</ele><time>2026-03-24T17:36:49.998Z</time></trkpt><trkpt lat="45.84232681350261" lon="12.013784384194526"><ele>157.0</ele><time>2026-03-24T17:36:50.998Z</time></trkpt><trkpt lat="45.842107469680386" lon="12.013906090255741"><ele>157.0</ele><time>2026-03-24T17:36:51.998Z</time></trkpt><trkpt lat="45.84188981246174" lon="12.01403816751514"><ele>159.0</ele><time>2026-03-24T17:36:52.998Z</time></trkpt><trkpt lat="45.84167510506632" lon="12.014177295533088"><ele>161.0</ele><time>2026-03-24T17:36:53.998Z</time></trkpt><trkpt lat="45.841459723809855" lon="12.014324885011"><ele>161.0</ele><time>2026-03-24T17:36:54.998Z</time></trkpt><trkpt lat="45.841245869802655" lon="12.014472825218075"><ele>161.0</ele><time>2026-03-24T17:36:56Z</time></trkpt><trkpt lat="45.84103698902866" lon="12.014619265794103"><ele>161.0</ele><time>2026-03-24T17:36:57Z</time></trkpt><trkpt lat="45.84084395002135" lon="12.014755798111972"><ele>161.0</ele><time>2026-03-24T17:36:58Z</time></trkpt><trkpt lat="45.8406625770672" lon="12.014888336991119"><ele>161.0</ele><time>2026-03-24T17:36:59Z</time></trkpt><trkpt lat="45.84047938653572" lon="12.014990801746897"><ele>161.0</ele><time>2026-03-24T17:37:00Z</time></trkpt><trkpt lat="45.84029802719804" lon="12.015115628078194"><ele>161.0</ele><time>2026-03-24T17:37:01Z</time></trkpt><trkpt lat="45.840128758839285" lon="12.015257480281035"><ele>161.0</ele><time>2026-03-24T17:37:02Z</time></trkpt><trkpt lat="45.839952479332254" lon="12.015368794660864"><ele>161.0</ele><time>2026-03-24T17:37:03Z</time></trkpt><trkpt lat="45.83977286435439" lon="12.01549845714246"><ele>161.0</ele><time>2026-03-24T17:37:04Z</time></trkpt><trkpt lat="45.839593125308475" lon="12.015622495036105"><ele>161.0</ele><time>2026-03-24T17:37:05Z</time></trkpt><trkpt lat="45.83940530627314" lon="12.015731788700709"><ele>160.33333333333331</ele><time>2026-03-24T17:37:06Z</time></trkpt><trkpt lat="45.83924623291149" lon="12.015867377927407"><ele>159.66666666666666</ele><time>2026-03-24T17:37:07Z</time></trkpt><trkpt lat="45.839088270065965" lon="12.01597650946096"><ele>159.0</ele><time>2026-03-24T17:37:08Z</time></trkpt><trkpt lat="45.83892409591062" lon="12.016063823484986"><ele>159.0</ele><time>2026-03-24T17:37:09Z</time></trkpt><trkpt lat="45.83876240952851" lon="12.01617570002343"><ele>159.0</ele><time>2026-03-24T17:37:10Z</time></trkpt><trkpt lat="45.83857260706239" lon="12.01630702896639"><ele>159.0</ele><time>2026-03-24T17:37:11Z</time></trkpt><trkpt lat="45.838371094098555" lon="12.016446460647106"><ele>159.5</ele><time>2026-03-24T17:37:12Z</time></trkpt><trkpt lat="45.838155309171405" lon="12.016595767583187"><ele>160.0</ele><time>2026-03-24T17:37:13Z</time></trkpt><trkpt lat="45.83791334320868" lon="12.016763614098814"><ele>160.0</ele><time>2026-03-24T17:37:14Z</time></trkpt><trkpt lat="45.8376698425234" lon="12.01694994169164"><ele>160.0</ele><time>2026-03-24T17:37:15Z</time></trkpt><trkpt lat="45.83742744745065" lon="12.01711106667247"><ele>159.0</ele><time>2026-03-24T17:37:16Z</time></trkpt><trkpt lat="45.83720888377398" lon="12.017264735269615"><ele>158.0</ele><time>2026-03-24T17:37:17Z</time></trkpt><trkpt lat="45.83700280220209" lon="12.017409192244314"><ele>158.0</ele><time>2026-03-24T17:37:18Z</time></trkpt><trkpt lat="45.836803502332074" lon="12.017544700227777"><ele>158.0</ele><time>2026-03-24T17:37:19Z</time></trkpt><trkpt lat="45.83661067330244" lon="12.01767893857335"><ele>158.0</ele><time>2026-03-24T17:37:20Z</time></trkpt><trkpt lat="45.83641137819602" lon="12.0178062763061"><ele>158.0</ele><time>2026-03-24T17:37:21Z</time></trkpt><trkpt lat="45.836210254584124" lon="12.017918368905184"><ele>158.0</ele><time>2026-03-24T17:37:22Z</time></trkpt><trkpt lat="45.83601168965379" lon="12.018037668391553"><ele>158.0</ele><time>2026-03-24T17:37:23Z</time></trkpt><trkpt lat="45.835815205216036" lon="12.01814508484588"><ele>157.66666666666666</ele><time>2026-03-24T17:37:24Z</time></trkpt><trkpt lat="45.83562662645076" lon="12.018236723105545"><ele>157.33333333333334</ele><time>2026-03-24T17:37:25Z</time></trkpt><trkpt lat="45.83544794196759" lon="12.018324635516663"><ele>157.0</ele><time>2026-03-24T17:37:26Z</time></trkpt><trkpt lat="45.83527464697934" lon="12.018405889760148"><ele>157.0</ele><time>2026-03-24T17:37:27Z</time></trkpt><trkpt lat="45.83508582045699" lon="12.018464792740554"><ele>157.0</ele><time>2026-03-24T17:37:28Z</time></trkpt><trkpt lat="45.834904699643296" lon="12.018554778153982"><ele>157.0</ele><time>2026-03-24T17:37:29Z</time></trkpt><trkpt lat="45.83471036343395" lon="12.018645843794198"><ele>157.0</ele><time>2026-03-24T17:37:30Z</time></trkpt><trkpt lat="45.83449399568073" lon="12.018718053882182"><ele>157.0</ele><time>2026-03-24T17:37:31Z</time></trkpt><trkpt lat="45.8342913986768" lon="12.01882761293909"><ele>157.0</ele><time>2026-03-24T17:37:32Z</time></trkpt><trkpt lat="45.834077835994975" lon="12.018908838824348"><ele>156.66666666666669</ele><time>2026-03-24T17:37:32.999Z</time></trkpt><trkpt lat="45.83387475332311" lon="12.018999264488414"><ele>156.33333333333334</ele><time>2026-03-24T17:37:33.999Z</time></trkpt><trkpt lat="45.833675242474236" lon="12.019061108417901"><ele>156.0</ele><time>2026-03-24T17:37:34.999Z</time></trkpt><trkpt lat="45.83350258400584" lon="12.019144024707776"><ele>155.66666666666666</ele><time>2026-03-24T17:37:35.999Z</time></trkpt><trkpt lat="45.833324470174716" lon="12.019221468932798"><ele>155.33333333333331</ele><time>2026-03-24T17:37:36.999Z</time></trkpt><trkpt lat="45.83315046075771" lon="12.019298675970703"><ele>155.0</ele><time>2026-03-24T17:37:37.999Z</time></trkpt><trkpt lat="45.832972280864496" lon="12.01937145999623"><ele>155.0</ele><time>2026-03-24T17:37:38.999Z</time></trkpt><trkpt lat="45.83279718130296" lon="12.019435730062513"><ele>155.0</ele><time>2026-03-24T17:37:39.999Z</time></trkpt><trkpt lat="45.83261797258128" lon="12.019494232418497"><ele>155.0</ele><time>2026-03-24T17:37:40.999Z</time></trkpt><trkpt lat="45.83243686398214" lon="12.019540110947204"><ele>154.0</ele><time>2026-03-24T17:37:41.999Z</time></trkpt><trkpt lat="45.832249456202774" lon="12.019582459391634"><ele>153.0</ele><time>2026-03-24T17:37:42.999Z</time></trkpt><trkpt lat="45.832072082088146" lon="12.019618911864624"><ele>152.0</ele><time>2026-03-24T17:37:43.999Z</time></trkpt><trkpt lat="45.83187989894438" lon="12.019658284818355"><ele>152.0</ele><time>2026-03-24T17:37:44.999Z</time></trkpt><trkpt lat="45.831683557575744" lon="12.019676401519117"><ele>152.0</ele><time>2026-03-24T17:37:45.999Z</time></trkpt><trkpt lat="45.83148863129578" lon="12.019680389102003"><ele>152.0</ele><time>2026-03-24T17:37:46.999Z</time></trkpt><trkpt lat="45.83129867352358" lon="12.019668906307382"><ele>152.0</ele><time>2026-03-24T17:37:47.999Z</time></trkpt><trkpt lat="45.831109671822915" lon="12.019646295029483"><ele>152.0</ele><time>2026-03-24T17:37:48.999Z</time></trkpt><trkpt lat="45.830927849240396" lon="12.019610451141475"><ele>152.0</ele><time>2026-03-24T17:37:49.999Z</time></trkpt><trkpt lat="45.830747597794854" lon="12.01956633008039"><ele>151.33333333333331</ele><time>2026-03-24T17:37:50.999Z</time></trkpt><trkpt lat="45.83056579242713" lon="12.019522767126608"><ele>150.66666666666666</ele><time>2026-03-24T17:37:51.999Z</time></trkpt><trkpt lat="45.83038810210224" lon="12.019462879102008"><ele>150.0</ele><time>2026-03-24T17:37:52.999Z</time></trkpt><trkpt lat="45.83021253262204" lon="12.019393765405354"><ele>151.0</ele><time>2026-03-24T17:37:53.999Z</time></trkpt><trkpt lat="45.830041625625995" lon="12.019316471898593"><ele>152.0</ele><time>2026-03-24T17:37:54.999Z</time></trkpt><trkpt lat="45.82987352766819" lon="12.019233669188507"><ele>153.0</ele><time>2026-03-24T17:37:55.999Z</time></trkpt><trkpt lat="45.82971052479639" lon="12.019109994995395"><ele>153.0</ele><time>2026-03-24T17:37:56.999Z</time></trkpt><trkpt lat="45.829549505772604" lon="12.019005470991212"><ele>153.0</ele><time>2026-03-24T17:37:57.999Z</time></trkpt><trkpt lat="45.829382615699345" lon="12.018895026613366"><ele>153.0</ele><time>2026-03-24T17:37:58.999Z</time></trkpt><trkpt lat="45.829213830100535" lon="12.018798856200224"><ele>154.0</ele><time>2026-03-24T17:37:59.999Z</time></trkpt><trkpt lat="45.82905044489919" lon="12.018676745048584"><ele>155.0</ele><time>2026-03-24T17:38:00.999Z</time></trkpt><trkpt lat="45.82888291215975" lon="12.018548051240588"><ele>156.0</ele><time>2026-03-24T17:38:01.999Z</time></trkpt><trkpt lat="45.82871230925255" lon="12.018419395870898"><ele>155.0</ele><time>2026-03-24T17:38:02.999Z</time></trkpt><trkpt lat="45.8285425665362" lon="12.018288442397463"><ele>154.0</ele><time>2026-03-24T17:38:03.999Z</time></trkpt><trkpt lat="45.82837261415775" lon="12.018149939941264"><ele>153.0</ele><time>2026-03-24T17:38:04.999Z</time></trkpt><trkpt lat="45.82820027499014" lon="12.018017083943777"><ele>152.33333333333334</ele><time>2026-03-24T17:38:05.999Z</time></trkpt><trkpt lat="45.82803086501712" lon="12.017885901568008"><ele>151.66666666666669</ele><time>2026-03-24T17:38:06.999Z</time></trkpt><trkpt lat="45.82786372938512" lon="12.017754258888933"><ele>151.0</ele><time>2026-03-24T17:38:07.999Z</time></trkpt><trkpt lat="45.82770497563372" lon="12.017629588816423"><ele>151.33333333333334</ele><time>2026-03-24T17:38:08.999Z</time></trkpt><trkpt lat="45.827552371004245" lon="12.01751186165826"><ele>151.66666666666666</ele><time>2026-03-24T17:38:09.999Z</time></trkpt><trkpt lat="45.82740377083287" lon="12.01739642528397"><ele>152.0</ele><time>2026-03-24T17:38:10.999Z</time></trkpt><trkpt lat="45.827254810785014" lon="12.017286024705278"><ele>152.0</ele><time>2026-03-24T17:38:11.999Z</time></trkpt><trkpt lat="45.82710303765143" lon="12.017167845188654"><ele>152.0</ele><time>2026-03-24T17:38:12.999Z</time></trkpt><trkpt lat="45.826952479276585" lon="12.017048247873563"><ele>152.0</ele><time>2026-03-24T17:38:13.999Z</time></trkpt><trkpt lat="45.82680705104527" lon="12.016918453232277"><ele>152.33333333333331</ele><time>2026-03-24T17:38:14.999Z</time></trkpt><trkpt lat="45.82664946602593" lon="12.016795749790266"><ele>152.66666666666666</ele><time>2026-03-24T17:38:15.999Z</time></trkpt><trkpt lat="45.82648797349992" lon="12.016672198659403"><ele>153.0</ele><time>2026-03-24T17:38:16.999Z</time></trkpt><trkpt lat="45.826325571905954" lon="12.016547951983041"><ele>152.66666666666666</ele><time>2026-03-24T17:38:17.999Z</time></trkpt><trkpt lat="45.8261653352558" lon="12.016424733774224"><ele>152.33333333333331</ele><time>2026-03-24T17:38:18.999Z</time></trkpt><trkpt lat="45.8260085581417" lon="12.01630262442712"><ele>152.0</ele><time>2026-03-24T17:38:19.999Z</time></trkpt><trkpt lat="45.8258593399426" lon="12.016184973107354"><ele>152.0</ele><time>2026-03-24T17:38:20.999Z</time></trkpt><trkpt lat="45.82571431748701" lon="12.016065139476602"><ele>152.0</ele><time>2026-03-24T17:38:21.999Z</time></trkpt><trkpt lat="45.825569826293425" lon="12.015940613785745"><ele>152.0</ele><time>2026-03-24T17:38:22.999Z</time></trkpt><trkpt lat="45.825428523510816" lon="12.015807586329167"><ele>151.66666666666666</ele><time>2026-03-24T17:38:23.999Z</time></trkpt><trkpt lat="45.82528726686019" lon="12.015670462531814"><ele>151.33333333333334</ele><time>2026-03-24T17:38:24.999Z</time></trkpt><trkpt lat="45.82514581272827" lon="12.01552747931804"><ele>151.0</ele><time>2026-03-24T17:38:25.999Z</time></trkpt><trkpt lat="45.825004901560284" lon="12.015378022312786"><ele>151.0</ele><time>2026-03-24T17:38:26.999Z</time></trkpt><trkpt lat="45.8248631766558" lon="12.015222900514516"><ele>151.0</ele><time>2026-03-24T17:38:27.998Z</time></trkpt><trkpt lat="45.824720125964845" lon="12.01506203050086"><ele>151.0</ele><time>2026-03-24T17:38:28.998Z</time></trkpt><trkpt lat="45.82457594447306" lon="12.014899529224248"><ele>151.33333333333334</ele><time>2026-03-24T17:38:29.998Z</time></trkpt><trkpt lat="45.82443103195315" lon="12.014736203611848"><ele>151.66666666666666</ele><time>2026-03-24T17:38:30.998Z</time></trkpt><trkpt lat="45.82428370545273" lon="12.014571618302604"><ele>152.0</ele><time>2026-03-24T17:38:31.998Z</time></trkpt><trkpt lat="45.82413455414903" lon="12.01440375264195"><ele>152.33333333333331</ele><time>2026-03-24T17:38:32.998Z</time></trkpt><trkpt lat="45.823985599855014" lon="12.014235886227029"><ele>152.66666666666666</ele><time>2026-03-24T17:38:33.998Z</time></trkpt><trkpt lat="45.823839272275954" lon="12.014073464669448"><ele>153.0</ele><time>2026-03-24T17:38:34.998Z</time></trkpt><trkpt lat="45.82368799694425" lon="12.01390695910387"><ele>152.0</ele><time>2026-03-24T17:38:35.998Z</time></trkpt><trkpt lat="45.82353591144311" lon="12.013744732175251"><ele>151.0</ele><time>2026-03-24T17:38:36.998Z</time></trkpt><trkpt lat="45.823375574530985" lon="12.01360909370826"><ele>150.0</ele><time>2026-03-24T17:38:37.998Z</time></trkpt><trkpt lat="45.82322188048436" lon="12.013463583030804"><ele>150.66666666666666</ele><time>2026-03-24T17:38:38.998Z</time></trkpt><trkpt lat="45.82307080913876" lon="12.013305888168459"><ele>151.33333333333331</ele><time>2026-03-24T17:38:39.998Z</time></trkpt><trkpt lat="45.82290576590059" lon="12.013175734836599"><ele>152.0</ele><time>2026-03-24T17:38:40.998Z</time></trkpt><trkpt lat="45.82273636276197" lon="12.013047488550411"><ele>151.33333333333331</ele><time>2026-03-24T17:38:41.998Z</time></trkpt><trkpt lat="45.82255432322114" lon="12.01294558336842"><ele>150.66666666666666</ele><time>2026-03-24T17:38:42.998Z</time></trkpt><trkpt lat="45.822375296286204" lon="12.012835151741662"><ele>150.0</ele><time>2026-03-24T17:38:43.998Z</time></trkpt><trkpt lat="45.82219789266277" lon="12.012731644774098"><ele>150.0</ele><time>2026-03-24T17:38:44.998Z</time></trkpt><trkpt lat="45.822019637962406" lon="12.012639070037833"><ele>150.0</ele><time>2026-03-24T17:38:45.998Z</time></trkpt><trkpt lat="45.82184104561673" lon="12.012557900812087"><ele>150.0</ele><time>2026-03-24T17:38:46.998Z</time></trkpt><trkpt lat="45.821661116308505" lon="12.01248281012725"><ele>150.0</ele><time>2026-03-24T17:38:47.998Z</time></trkpt><trkpt lat="45.82148245022708" lon="12.01241837524739"><ele>150.0</ele><time>2026-03-24T17:38:48.998Z</time></trkpt><trkpt lat="45.82130506367262" lon="12.012361123259874"><ele>150.0</ele><time>2026-03-24T17:38:49.998Z</time></trkpt><trkpt lat="45.82112428109081" lon="12.01230986989249"><ele>149.33333333333334</ele><time>2026-03-24T17:38:50.998Z</time></trkpt><trkpt lat="45.820944191505724" lon="12.012271545632707"><ele>148.66666666666669</ele><time>2026-03-24T17:38:51.998Z</time></trkpt><trkpt lat="45.820764242989526" lon="12.012238703306208"><ele>148.0</ele><time>2026-03-24T17:38:52.998Z</time></trkpt><trkpt lat="45.82058878450021" lon="12.012218877070993"><ele>148.0</ele><time>2026-03-24T17:38:53.998Z</time></trkpt><trkpt lat="45.82040911259358" lon="12.01220633103084"><ele>148.0</ele><time>2026-03-24T17:38:54.998Z</time></trkpt><trkpt lat="45.820233078616134" lon="12.012194251598245"><ele>148.0</ele><time>2026-03-24T17:38:55.998Z</time></trkpt><trkpt lat="45.8200590008737" lon="12.012191865922903"><ele>148.66666666666669</ele><time>2026-03-24T17:38:56.998Z</time></trkpt><trkpt lat="45.81989062545362" lon="12.012193419974778"><ele>149.33333333333334</ele><time>2026-03-24T17:38:57.998Z</time></trkpt><trkpt lat="45.81972274571568" lon="12.01220186741944"><ele>150.0</ele><time>2026-03-24T17:38:58.998Z</time></trkpt><trkpt lat="45.81954901569586" lon="12.01223228883399"><ele>150.0</ele><time>2026-03-24T17:38:59.998Z</time></trkpt><trkpt lat="45.819377047718895" lon="12.01226917358502"><ele>150.0</ele><time>2026-03-24T17:39:00.998Z</time></trkpt><trkpt lat="45.81921021036295" lon="12.012307568215084"><ele>150.0</ele><time>2026-03-24T17:39:02Z</time></trkpt><trkpt lat="45.81904101924652" lon="12.012353196783645"><ele>149.0</ele><time>2026-03-24T17:39:03Z</time></trkpt><trkpt lat="45.818879424205385" lon="12.012418508484576"><ele>148.0</ele><time>2026-03-24T17:39:04Z</time></trkpt><trkpt lat="45.81871094352227" lon="12.01247421350771"><ele>147.0</ele><time>2026-03-24T17:39:05Z</time></trkpt><trkpt lat="45.818549679044416" lon="12.012537405561572"><ele>146.0</ele><time>2026-03-24T17:39:06Z</time></trkpt><trkpt lat="45.81839312933436" lon="12.012598494008891"><ele>145.0</ele><time>2026-03-24T17:39:07Z</time></trkpt><trkpt lat="45.81823437090051" lon="12.012671034813026"><ele>144.0</ele><time>2026-03-24T17:39:08Z</time></trkpt><trkpt lat="45.81806550553265" lon="12.012745745341766"><ele>144.0</ele><time>2026-03-24T17:39:09Z</time></trkpt><trkpt lat="45.81790741727107" lon="12.012860642823382"><ele>144.0</ele><time>2026-03-24T17:39:10Z</time></trkpt><trkpt lat="45.817733014154406" lon="12.012988001421482"><ele>144.0</ele><time>2026-03-24T17:39:11Z</time></trkpt><trkpt lat="45.81755846801948" lon="12.013119612820034"><ele>144.0</ele><time>2026-03-24T17:39:12Z</time></trkpt><trkpt lat="45.81737728698755" lon="12.013257334957935"><ele>144.0</ele><time>2026-03-24T17:39:13Z</time></trkpt><trkpt lat="45.81719959567087" lon="12.013390729783744"><ele>144.0</ele><time>2026-03-24T17:39:14Z</time></trkpt><trkpt lat="45.81703070247929" lon="12.01351850366945"><ele>144.0</ele><time>2026-03-24T17:39:15Z</time></trkpt><trkpt lat="45.81685983689868" lon="12.013641967656557"><ele>144.0</ele><time>2026-03-24T17:39:16Z</time></trkpt><trkpt lat="45.81669816958846" lon="12.013763132932525"><ele>144.0</ele><time>2026-03-24T17:39:17Z</time></trkpt><trkpt lat="45.81654232119757" lon="12.013879856271304"><ele>144.0</ele><time>2026-03-24T17:39:18Z</time></trkpt><trkpt lat="45.81639364980725" lon="12.013987720962094"><ele>144.0</ele><time>2026-03-24T17:39:19Z</time></trkpt><trkpt lat="45.81625121327642" lon="12.014093396060126"><ele>144.0</ele><time>2026-03-24T17:39:20Z</time></trkpt><trkpt lat="45.81611414613458" lon="12.014193549459337"><ele>144.0</ele><time>2026-03-24T17:39:21Z</time></trkpt><trkpt lat="45.81598778652715" lon="12.014290130049256"><ele>144.0</ele><time>2026-03-24T17:39:22Z</time></trkpt><trkpt lat="45.815868790332736" lon="12.014379236307692"><ele>144.0</ele><time>2026-03-24T17:39:23Z</time></trkpt><trkpt lat="45.81575431544383" lon="12.014463456713338"><ele>144.0</ele><time>2026-03-24T17:39:24Z</time></trkpt><trkpt lat="45.81564942143557" lon="12.014540207152539"><ele>144.0</ele><time>2026-03-24T17:39:25Z</time></trkpt><trkpt lat="45.81554945358117" lon="12.014614365430601"><ele>144.0</ele><time>2026-03-24T17:39:26Z</time></trkpt><trkpt lat="45.81544903031232" lon="12.014690987853236"><ele>144.0</ele><time>2026-03-24T17:39:27Z</time></trkpt><trkpt lat="45.81534951246489" lon="12.01476955257416"><ele>144.0</ele><time>2026-03-24T17:39:28Z</time></trkpt><trkpt lat="45.81524016412926" lon="12.014850276896153"><ele>144.25</ele><time>2026-03-24T17:39:29Z</time></trkpt><trkpt lat="45.81511268462005" lon="12.014939502545804"><ele>144.5</ele><time>2026-03-24T17:39:30Z</time></trkpt><trkpt lat="45.81499035759939" lon="12.015027854865318"><ele>144.75</ele><time>2026-03-24T17:39:31Z</time></trkpt><trkpt lat="45.814875844052686" lon="12.015108940305167"><ele>145.0</ele><time>2026-03-24T17:39:32Z</time></trkpt><trkpt lat="45.81477267115126" lon="12.015185017310536"><ele>145.16666666666669</ele><time>2026-03-24T17:39:33Z</time></trkpt><trkpt lat="45.814681332934086" lon="12.01525391309307"><ele>145.33333333333334</ele><time>2026-03-24T17:39:34Z</time></trkpt><trkpt lat="45.81459860262736" lon="12.015317544467765"><ele>145.5</ele><time>2026-03-24T17:39:35Z</time></trkpt><trkpt lat="45.81451811371836" lon="12.015374221072713"><ele>145.66666666666666</ele><time>2026-03-24T17:39:36Z</time></trkpt><trkpt lat="45.81445210365429" lon="12.015417345007563"><ele>145.83333333333331</ele><time>2026-03-24T17:39:37Z</time></trkpt><trkpt lat="45.81438417587152" lon="12.015449765968429"><ele>146.0</ele><time>2026-03-24T17:39:38Z</time></trkpt><trkpt lat="45.81432105193594" lon="12.015483470054077"><ele>145.2</ele><time>2026-03-24T17:39:39Z</time></trkpt><trkpt lat="45.81425583898392" lon="12.015505666357106"><ele>144.39999999999998</ele><time>2026-03-24T17:39:40Z</time></trkpt><trkpt lat="45.81416602380196" lon="12.015515010537467"><ele>143.6</ele><time>2026-03-24T17:39:42Z</time></trkpt><trkpt lat="45.81408088216965" lon="12.015505095242807"><ele>142.79999999999998</ele><time>2026-03-24T17:39:43.999Z</time></trkpt><trkpt lat="45.813948488600694" lon="12.015473650402033"><ele>142.0</ele><time>2026-03-24T17:39:45.999Z</time></trkpt><trkpt lat="45.813860318696285" lon="12.015456205444956"><ele>142.0</ele><time>2026-03-24T17:39:46.999Z</time></trkpt><trkpt lat="45.81377738762432" lon="12.015467699541707"><ele>142.0</ele><time>2026-03-24T17:39:47.999Z</time></trkpt><trkpt lat="45.813694237357076" lon="12.015518243197565"><ele>142.0</ele><time>2026-03-24T17:39:48.999Z</time></trkpt><trkpt lat="45.813626159516424" lon="12.015599496948433"><ele>142.0</ele><time>2026-03-24T17:39:49.999Z</time></trkpt><trkpt lat="45.81357429975677" lon="12.0157042426717"><ele>142.0</ele><time>2026-03-24T17:39:50.999Z</time></trkpt><trkpt lat="45.81353314028537" lon="12.015825531853556"><ele>142.0</ele><time>2026-03-24T17:39:51.999Z</time></trkpt><trkpt lat="45.81349699585095" lon="12.015946681909643"><ele>141.4</ele><time>2026-03-24T17:39:52.999Z</time></trkpt><trkpt lat="45.81345260509716" lon="12.01606797141215"><ele>140.79999999999998</ele><time>2026-03-24T17:39:53.999Z</time></trkpt><trkpt lat="45.81338548118645" lon="12.01618520211368"><ele>140.2</ele><time>2026-03-24T17:39:54.999Z</time></trkpt><trkpt lat="45.8132881250387" lon="12.016290110847004"><ele>139.6</ele><time>2026-03-24T17:39:55.999Z</time></trkpt><trkpt lat="45.81318497174567" lon="12.016386692633644"><ele>139.0</ele><time>2026-03-24T17:39:56.999Z</time></trkpt><trkpt lat="45.81307291780647" lon="12.016480806414782"><ele>139.0</ele><time>2026-03-24T17:39:57.999Z</time></trkpt><trkpt lat="45.81296222432668" lon="12.016570449111962"><ele>139.0</ele><time>2026-03-24T17:39:58.999Z</time></trkpt><trkpt lat="45.81284685616368" lon="12.016660297595909"><ele>139.0</ele><time>2026-03-24T17:39:59.999Z</time></trkpt><trkpt lat="45.81273478784772" lon="12.01674209837945"><ele>139.0</ele><time>2026-03-24T17:40:00.999Z</time></trkpt><trkpt lat="45.81261517574132" lon="12.016829610825507"><ele>139.0</ele><time>2026-03-24T17:40:01.999Z</time></trkpt><trkpt lat="45.8124899494272" lon="12.016926981394388"><ele>139.0</ele><time>2026-03-24T17:40:02.999Z</time></trkpt><trkpt lat="45.812359745616945" lon="12.01702221026094"><ele>139.0</ele><time>2026-03-24T17:40:03.999Z</time></trkpt><trkpt lat="45.81222780655436" lon="12.017119031214055"><ele>139.0</ele><time>2026-03-24T17:40:04.999Z</time></trkpt><trkpt lat="45.81209037887945" lon="12.017220457728884"><ele>139.0</ele><time>2026-03-24T17:40:05.999Z</time></trkpt><trkpt lat="45.81194827138754" lon="12.017328148155308"><ele>139.0</ele><time>2026-03-24T17:40:06.999Z</time></trkpt><trkpt lat="45.81180244050906" lon="12.017436377724712"><ele>139.0</ele><time>2026-03-24T17:40:07.999Z</time></trkpt><trkpt lat="45.811650927599" lon="12.017549593441208"><ele>139.33333333333334</ele><time>2026-03-24T17:40:08.999Z</time></trkpt><trkpt lat="45.81149950835006" lon="12.017665697435477"><ele>139.66666666666666</ele><time>2026-03-24T17:40:09.999Z</time></trkpt><trkpt lat="45.81134416483213" lon="12.017782021763578"><ele>140.0</ele><time>2026-03-24T17:40:10.999Z</time></trkpt><trkpt lat="45.81118718843891" lon="12.017896273555882"><ele>140.0</ele><time>2026-03-24T17:40:11.999Z</time></trkpt><trkpt lat="45.81103245015492" lon="12.01800644770746"><ele>140.0</ele><time>2026-03-24T17:40:12.999Z</time></trkpt><trkpt lat="45.810884752883574" lon="12.018119516587383"><ele>140.0</ele><time>2026-03-24T17:40:13.999Z</time></trkpt><trkpt lat="45.810737781395375" lon="12.018229015116734"><ele>140.0</ele><time>2026-03-24T17:40:14.999Z</time></trkpt><trkpt lat="45.81059365132328" lon="12.018337433794356"><ele>140.0</ele><time>2026-03-24T17:40:15.999Z</time></trkpt><trkpt lat="45.81044227708701" lon="12.018452893993956"><ele>140.0</ele><time>2026-03-24T17:40:16.999Z</time></trkpt><trkpt lat="45.81030092433482" lon="12.018568166352546"><ele>140.0</ele><time>2026-03-24T17:40:17.999Z</time></trkpt><trkpt lat="45.810162790498936" lon="12.018688875225573"><ele>140.0</ele><time>2026-03-24T17:40:18.999Z</time></trkpt><trkpt lat="45.810030561192065" lon="12.018820708252015"><ele>140.0</ele><time>2026-03-24T17:40:19.999Z</time></trkpt><trkpt lat="45.80990149165122" lon="12.018958226240008"><ele>140.0</ele><time>2026-03-24T17:40:20.999Z</time></trkpt><trkpt lat="45.80977414828988" lon="12.019099608877557"><ele>140.0</ele><time>2026-03-24T17:40:21.999Z</time></trkpt><trkpt lat="45.80964507336784" lon="12.019245225821294"><ele>140.0</ele><time>2026-03-24T17:40:22.999Z</time></trkpt><trkpt lat="45.80950755334274" lon="12.019412142543446"><ele>140.0</ele><time>2026-03-24T17:40:23.999Z</time></trkpt><trkpt lat="45.80937895916944" lon="12.019584563437457"><ele>140.0</ele><time>2026-03-24T17:40:24.999Z</time></trkpt><trkpt lat="45.809270043814124" lon="12.019746568998684"><ele>140.0</ele><time>2026-03-24T17:40:25.999Z</time></trkpt><trkpt lat="45.80917106862652" lon="12.019896307614536"><ele>139.5</ele><time>2026-03-24T17:40:26.999Z</time></trkpt><trkpt lat="45.80907472787899" lon="12.020046507621677"><ele>139.0</ele><time>2026-03-24T17:40:27.999Z</time></trkpt><trkpt lat="45.808989166574925" lon="12.020165622298292"><ele>138.5</ele><time>2026-03-24T17:40:28.999Z</time></trkpt><trkpt lat="45.808893383442886" lon="12.020312175778248"><ele>138.0</ele><time>2026-03-24T17:40:29.999Z</time></trkpt><trkpt lat="45.80880684091158" lon="12.020468803858712"><ele>138.0</ele><time>2026-03-24T17:40:30.999Z</time></trkpt><trkpt lat="45.808714455091135" lon="12.020619825765989"><ele>138.0</ele><time>2026-03-24T17:40:31.999Z</time></trkpt><trkpt lat="45.808625977842375" lon="12.020771741894439"><ele>138.0</ele><time>2026-03-24T17:40:32.999Z</time></trkpt><trkpt lat="45.80852689665829" lon="12.020914935660334"><ele>138.0</ele><time>2026-03-24T17:40:33.999Z</time></trkpt><trkpt lat="45.80844261682881" lon="12.021065548460529"><ele>138.0</ele><time>2026-03-24T17:40:34.999Z</time></trkpt><trkpt lat="45.80835008886555" lon="12.021222314083918"><ele>138.0</ele><time>2026-03-24T17:40:35.999Z</time></trkpt><trkpt lat="45.80824589506805" lon="12.021379919291858"><ele>138.0</ele><time>2026-03-24T17:40:36.998Z</time></trkpt><trkpt lat="45.80813823729149" lon="12.021530070822347"><ele>138.0</ele><time>2026-03-24T17:40:37.998Z</time></trkpt><trkpt lat="45.8080333477251" lon="12.021707170037113"><ele>138.0</ele><time>2026-03-24T17:40:38.998Z</time></trkpt><trkpt lat="45.80793717056279" lon="12.021869615052127"><ele>138.0</ele><time>2026-03-24T17:40:39.998Z</time></trkpt><trkpt lat="45.807834400268945" lon="12.022019842972476"><ele>138.0</ele><time>2026-03-24T17:40:40.998Z</time></trkpt><trkpt lat="45.80773181601492" lon="12.022185844410222"><ele>138.0</ele><time>2026-03-24T17:40:41.998Z</time></trkpt><trkpt lat="45.80763014577325" lon="12.022350366582343"><ele>138.0</ele><time>2026-03-24T17:40:42.998Z</time></trkpt><trkpt lat="45.80753780132132" lon="12.022499797692277"><ele>138.0</ele><time>2026-03-24T17:40:43.998Z</time></trkpt><trkpt lat="45.80744746734807" lon="12.022645975507285"><ele>138.0</ele><time>2026-03-24T17:40:44.998Z</time></trkpt><trkpt lat="45.807363610008345" lon="12.022791568557508"><ele>138.0</ele><time>2026-03-24T17:40:45.998Z</time></trkpt><trkpt lat="45.80728238497827" lon="12.022921803156603"><ele>138.0</ele><time>2026-03-24T17:40:46.998Z</time></trkpt><trkpt lat="45.807200672011284" lon="12.023045330700745"><ele>138.0</ele><time>2026-03-24T17:40:47.998Z</time></trkpt><trkpt lat="45.80713045545158" lon="12.023175400628073"><ele>138.0</ele><time>2026-03-24T17:40:48.998Z</time></trkpt><trkpt lat="45.80704806769876" lon="12.023307178599165"><ele>138.0</ele><time>2026-03-24T17:40:49.998Z</time></trkpt><trkpt lat="45.806966397092424" lon="12.023446110669536"><ele>138.0</ele><time>2026-03-24T17:40:50.998Z</time></trkpt><trkpt lat="45.80688379016226" lon="12.023579265514188"><ele>138.0</ele><time>2026-03-24T17:40:51.998Z</time></trkpt><trkpt lat="45.80678983026084" lon="12.023707377092489"><ele>138.0</ele><time>2026-03-24T17:40:52.998Z</time></trkpt><trkpt lat="45.80670123813341" lon="12.023846043660518"><ele>138.0</ele><time>2026-03-24T17:40:53.998Z</time></trkpt><trkpt lat="45.806611604035744" lon="12.023997241226489"><ele>138.0</ele><time>2026-03-24T17:40:54.998Z</time></trkpt><trkpt lat="45.80651386269301" lon="12.024156286855895"><ele>138.0</ele><time>2026-03-24T17:40:55.998Z</time></trkpt><trkpt lat="45.80642936455133" lon="12.024311880751858"><ele>138.0</ele><time>2026-03-24T17:40:56.998Z</time></trkpt><trkpt lat="45.80631281957856" lon="12.024484115623697"><ele>138.0</ele><time>2026-03-24T17:40:57.998Z</time></trkpt><trkpt lat="45.80620190792448" lon="12.02466605547075"><ele>138.0</ele><time>2026-03-24T17:40:58.998Z</time></trkpt><trkpt lat="45.80609084179573" lon="12.024847459273358"><ele>138.0</ele><time>2026-03-24T17:40:59.998Z</time></trkpt><trkpt lat="45.80598397250925" lon="12.025025918609087"><ele>137.33333333333334</ele><time>2026-03-24T17:41:00.998Z</time></trkpt><trkpt lat="45.80585108432515" lon="12.025209390805358"><ele>136.66666666666669</ele><time>2026-03-24T17:41:01.998Z</time></trkpt><trkpt lat="45.80571228144404" lon="12.025437115957565"><ele>136.0</ele><time>2026-03-24T17:41:02.998Z</time></trkpt><trkpt lat="45.80557138066461" lon="12.025667626870518"><ele>135.66666666666669</ele><time>2026-03-24T17:41:03.998Z</time></trkpt><trkpt lat="45.805440274983795" lon="12.02587965768565"><ele>135.33333333333334</ele><time>2026-03-24T17:41:04.998Z</time></trkpt><trkpt lat="45.80533079122224" lon="12.026085881832643"><ele>135.0</ele><time>2026-03-24T17:41:05.998Z</time></trkpt><trkpt lat="45.80522220767639" lon="12.026262631084727"><ele>135.33333333333334</ele><time>2026-03-24T17:41:06.998Z</time></trkpt><trkpt lat="45.80511252172969" lon="12.026441942708717"><ele>135.66666666666669</ele><time>2026-03-24T17:41:08Z</time></trkpt><trkpt lat="45.804988173685196" lon="12.026610225129962"><ele>136.0</ele><time>2026-03-24T17:41:09Z</time></trkpt><trkpt lat="45.804875626620046" lon="12.026792561617636"><ele>136.33333333333334</ele><time>2026-03-24T17:41:10Z</time></trkpt><trkpt lat="45.80476188965299" lon="12.026976825904644"><ele>136.66666666666666</ele><time>2026-03-24T17:41:11Z</time></trkpt><trkpt lat="45.804650564350155" lon="12.027157183109088"><ele>137.0</ele><time>2026-03-24T17:41:12Z</time></trkpt><trkpt lat="45.804545385976795" lon="12.02734894534104"><ele>137.33333333333331</ele><time>2026-03-24T17:41:13Z</time></trkpt><trkpt lat="45.804436010945274" lon="12.02753004512285"><ele>137.66666666666666</ele><time>2026-03-24T17:41:14Z</time></trkpt><trkpt lat="45.8043265783817" lon="12.027703730591414"><ele>138.0</ele><time>2026-03-24T17:41:15Z</time></trkpt><trkpt lat="45.80420812887848" lon="12.02786236721423"><ele>138.0</ele><time>2026-03-24T17:41:16Z</time></trkpt><trkpt lat="45.80409916524059" lon="12.028035988973155"><ele>138.0</ele><time>2026-03-24T17:41:17Z</time></trkpt><trkpt lat="45.803988422387846" lon="12.028212445733924"><ele>138.0</ele><time>2026-03-24T17:41:18Z</time></trkpt><trkpt lat="45.803870922721316" lon="12.028399668781686"><ele>137.0</ele><time>2026-03-24T17:41:19Z</time></trkpt><trkpt lat="45.803723496081524" lon="12.028634577076028"><ele>136.0</ele><time>2026-03-24T17:41:20Z</time></trkpt><trkpt lat="45.80357835415109" lon="12.028867586363289"><ele>135.0</ele><time>2026-03-24T17:41:21Z</time></trkpt><trkpt lat="45.80344681473329" lon="12.029080522705954"><ele>135.33333333333334</ele><time>2026-03-24T17:41:22Z</time></trkpt><trkpt lat="45.80333715932876" lon="12.029285560731635"><ele>135.66666666666669</ele><time>2026-03-24T17:41:23Z</time></trkpt><trkpt lat="45.80322341299306" lon="12.029460240096855"><ele>136.0</ele><time>2026-03-24T17:41:24Z</time></trkpt><trkpt lat="45.80311713785073" lon="12.029630917610273"><ele>136.0</ele><time>2026-03-24T17:41:25Z</time></trkpt><trkpt lat="45.80301462623689" lon="12.02979027457404"><ele>136.0</ele><time>2026-03-24T17:41:26Z</time></trkpt><trkpt lat="45.80292893919049" lon="12.029923666906559"><ele>136.0</ele><time>2026-03-24T17:41:27Z</time></trkpt><trkpt lat="45.80284015367479" lon="12.030049535269843"><ele>136.0</ele><time>2026-03-24T17:41:28Z</time></trkpt><trkpt lat="45.80278234606156" lon="12.03015335896907"><ele>135.8</ele><time>2026-03-24T17:41:29Z</time></trkpt><trkpt lat="45.802713828998904" lon="12.030226715643796"><ele>135.6</ele><time>2026-03-24T17:41:30Z</time></trkpt><trkpt lat="45.80263328555731" lon="12.030373338679391"><ele>135.4</ele><time>2026-03-24T17:41:32Z</time></trkpt><trkpt lat="45.80257540583185" lon="12.030483886835345"><ele>135.2</ele><time>2026-03-24T17:41:33Z</time></trkpt><trkpt lat="45.80248123569766" lon="12.03060693993492"><ele>135.0</ele><time>2026-03-24T17:41:34Z</time></trkpt><trkpt lat="45.802395490614366" lon="12.030738970001082"><ele>136.0</ele><time>2026-03-24T17:41:35Z</time></trkpt><trkpt lat="45.802302566181666" lon="12.03088664403485"><ele>137.0</ele><time>2026-03-24T17:41:36Z</time></trkpt><trkpt lat="45.80219730727567" lon="12.031076116268885"><ele>138.0</ele><time>2026-03-24T17:41:37Z</time></trkpt><trkpt lat="45.802077200321726" lon="12.031230619394023"><ele>138.0</ele><time>2026-03-24T17:41:38Z</time></trkpt><trkpt lat="45.80197913111982" lon="12.031394952819342"><ele>138.0</ele><time>2026-03-24T17:41:39Z</time></trkpt><trkpt lat="45.80187598378427" lon="12.031571741890355"><ele>138.0</ele><time>2026-03-24T17:41:40Z</time></trkpt><trkpt lat="45.80175551868764" lon="12.031736327220557"><ele>137.33333333333334</ele><time>2026-03-24T17:41:41Z</time></trkpt><trkpt lat="45.801637452504835" lon="12.031939120828245"><ele>136.66666666666669</ele><time>2026-03-24T17:41:42Z</time></trkpt><trkpt lat="45.801496521364186" lon="12.032161480020786"><ele>136.0</ele><time>2026-03-24T17:41:43Z</time></trkpt><trkpt lat="45.80134097145977" lon="12.032407452805865"><ele>138.5</ele><time>2026-03-24T17:41:44Z</time></trkpt><trkpt lat="45.80117684956957" lon="12.032665299708267"><ele>141.0</ele><time>2026-03-24T17:41:45Z</time></trkpt><trkpt lat="45.801012287624495" lon="12.032936794808723"><ele>139.33333333333334</ele><time>2026-03-24T17:41:46Z</time></trkpt><trkpt lat="45.800867981417916" lon="12.033175804801239"><ele>137.66666666666669</ele><time>2026-03-24T17:41:47Z</time></trkpt><trkpt lat="45.80072533929657" lon="12.033394429136795"><ele>136.0</ele><time>2026-03-24T17:41:47.999Z</time></trkpt><trkpt lat="45.80059627236141" lon="12.033606841768114"><ele>136.0</ele><time>2026-03-24T17:41:48.999Z</time></trkpt><trkpt lat="45.80046191234069" lon="12.033812880406122"><ele>136.0</ele><time>2026-03-24T17:41:49.999Z</time></trkpt><trkpt lat="45.80032526655427" lon="12.034018749399138"><ele>136.0</ele><time>2026-03-24T17:41:50.999Z</time></trkpt><trkpt lat="45.800193802277526" lon="12.034216411887074"><ele>134.66666666666669</ele><time>2026-03-24T17:41:51.999Z</time></trkpt><trkpt lat="45.80005594330235" lon="12.034419689350132"><ele>133.33333333333334</ele><time>2026-03-24T17:41:52.999Z</time></trkpt><trkpt lat="45.7999205867151" lon="12.034608290274216"><ele>132.0</ele><time>2026-03-24T17:41:53.999Z</time></trkpt><trkpt lat="45.79978129534761" lon="12.034789494772815"><ele>132.0</ele><time>2026-03-24T17:41:54.999Z</time></trkpt><trkpt lat="45.79964925444707" lon="12.034964454107447"><ele>132.0</ele><time>2026-03-24T17:41:55.999Z</time></trkpt><trkpt lat="45.79951710593702" lon="12.035134895520011"><ele>132.0</ele><time>2026-03-24T17:41:56.999Z</time></trkpt><trkpt lat="45.79938527464084" lon="12.03530619469666"><ele>132.66666666666666</ele><time>2026-03-24T17:41:57.999Z</time></trkpt><trkpt lat="45.7992470051591" lon="12.035465783649297"><ele>133.33333333333331</ele><time>2026-03-24T17:41:58.999Z</time></trkpt><trkpt lat="45.799122474850435" lon="12.035618852120463"><ele>134.0</ele><time>2026-03-24T17:41:59.999Z</time></trkpt><trkpt lat="45.798997153301876" lon="12.03575746430025"><ele>134.25</ele><time>2026-03-24T17:42:00.999Z</time></trkpt><trkpt lat="45.79888760406339" lon="12.035883746140202"><ele>134.5</ele><time>2026-03-24T17:42:01.999Z</time></trkpt><trkpt lat="45.79878022358395" lon="12.036007480340286"><ele>134.75</ele><time>2026-03-24T17:42:02.999Z</time></trkpt><trkpt lat="45.79869456478473" lon="12.036101505604465"><ele>135.0</ele><time>2026-03-24T17:42:03.999Z</time></trkpt><trkpt lat="45.79859696406749" lon="12.036199576742767"><ele>135.0</ele><time>2026-03-24T17:42:04.999Z</time></trkpt><trkpt lat="45.798509531611344" lon="12.036295933744094"><ele>135.0</ele><time>2026-03-24T17:42:05.999Z</time></trkpt><trkpt lat="45.798427583283186" lon="12.036380815269835"><ele>135.0</ele><time>2026-03-24T17:42:06.999Z</time></trkpt><trkpt lat="45.79834471133877" lon="12.0364700148038"><ele>135.0</ele><time>2026-03-24T17:42:07.999Z</time></trkpt><trkpt lat="45.798248623211215" lon="12.0365532444789"><ele>135.0</ele><time>2026-03-24T17:42:08.999Z</time></trkpt><trkpt lat="45.7981634559892" lon="12.036638911031355"><ele>134.25</ele><time>2026-03-24T17:42:09.999Z</time></trkpt><trkpt lat="45.79807235091577" lon="12.036730578522294"><ele>133.5</ele><time>2026-03-24T17:42:10.999Z</time></trkpt><trkpt lat="45.797973147482914" lon="12.03683049205871"><ele>132.75</ele><time>2026-03-24T17:42:11.999Z</time></trkpt><trkpt lat="45.797873588437824" lon="12.036935822772842"><ele>132.0</ele><time>2026-03-24T17:42:12.999Z</time></trkpt><trkpt lat="45.79776594164791" lon="12.037045500471134"><ele>132.0</ele><time>2026-03-24T17:42:13.999Z</time></trkpt><trkpt lat="45.79765948396557" lon="12.037156629371683"><ele>132.0</ele><time>2026-03-24T17:42:14.999Z</time></trkpt><trkpt lat="45.797548308159065" lon="12.03727250213503"><ele>132.0</ele><time>2026-03-24T17:42:15.999Z</time></trkpt><trkpt lat="45.797431527671314" lon="12.03739354554039"><ele>132.0</ele><time>2026-03-24T17:42:16.999Z</time></trkpt><trkpt lat="45.79731618427475" lon="12.037517090858529"><ele>132.0</ele><time>2026-03-24T17:42:17.999Z</time></trkpt><trkpt lat="45.79720019637311" lon="12.03763865446878"><ele>132.0</ele><time>2026-03-24T17:42:18.999Z</time></trkpt><trkpt lat="45.7970849102426" lon="12.037757833086088"><ele>132.0</ele><time>2026-03-24T17:42:19.999Z</time></trkpt><trkpt lat="45.79696603970362" lon="12.037876198670883"><ele>132.0</ele><time>2026-03-24T17:42:20.999Z</time></trkpt><trkpt lat="45.79685485233075" lon="12.037994500697778"><ele>132.25</ele><time>2026-03-24T17:42:21.999Z</time></trkpt><trkpt lat="45.796738973657014" lon="12.038106021541093"><ele>132.5</ele><time>2026-03-24T17:42:22.999Z</time></trkpt><trkpt lat="45.796631145347455" lon="12.038215470382145"><ele>132.75</ele><time>2026-03-24T17:42:23.999Z</time></trkpt><trkpt lat="45.79651859699664" lon="12.038328012840365"><ele>133.0</ele><time>2026-03-24T17:42:24.999Z</time></trkpt><trkpt lat="45.79641209565352" lon="12.03844346019264"><ele>133.0</ele><time>2026-03-24T17:42:25.999Z</time></trkpt><trkpt lat="45.79630044757039" lon="12.038556563829916"><ele>133.0</ele><time>2026-03-24T17:42:26.999Z</time></trkpt><trkpt lat="45.79619622548646" lon="12.038665965070562"><ele>133.0</ele><time>2026-03-24T17:42:27.999Z</time></trkpt><trkpt lat="45.79609337712959" lon="12.038774870391826"><ele>133.0</ele><time>2026-03-24T17:42:28.999Z</time></trkpt><trkpt lat="45.795986330688216" lon="12.038888312907787"><ele>133.0</ele><time>2026-03-24T17:42:29.999Z</time></trkpt><trkpt lat="45.795878334321586" lon="12.039001419632102"><ele>133.0</ele><time>2026-03-24T17:42:30.999Z</time></trkpt><trkpt lat="45.79573996850076" lon="12.039128585433051"><ele>133.0</ele><time>2026-03-24T17:42:31.999Z</time></trkpt><trkpt lat="45.79564482672973" lon="12.039225681844533"><ele>133.0</ele><time>2026-03-24T17:42:32.999Z</time></trkpt><trkpt lat="45.79553871788679" lon="12.039324862967486"><ele>132.75</ele><time>2026-03-24T17:42:33.999Z</time></trkpt><trkpt lat="45.79542600184895" lon="12.039429120791436"><ele>132.5</ele><time>2026-03-24T17:42:34.999Z</time></trkpt><trkpt lat="45.79530917697017" lon="12.039535090920294"><ele>132.25</ele><time>2026-03-24T17:42:35.999Z</time></trkpt><trkpt lat="45.79519242658807" lon="12.039637312481002"><ele>132.0</ele><time>2026-03-24T17:42:36.999Z</time></trkpt><trkpt lat="45.79506477251127" lon="12.039748234813493"><ele>132.0</ele><time>2026-03-24T17:42:37.999Z</time></trkpt><trkpt lat="45.79493751745122" lon="12.039855089562101"><ele>132.0</ele><time>2026-03-24T17:42:38.999Z</time></trkpt><trkpt lat="45.79480221694421" lon="12.039964993407441"><ele>132.0</ele><time>2026-03-24T17:42:39.999Z</time></trkpt><trkpt lat="45.79466005652221" lon="12.040078265077911"><ele>131.66666666666666</ele><time>2026-03-24T17:42:40.999Z</time></trkpt><trkpt lat="45.794521196279284" lon="12.040184015162941"><ele>131.33333333333331</ele><time>2026-03-24T17:42:41.998Z</time></trkpt><trkpt lat="45.79438634582562" lon="12.040293774248196"><ele>131.0</ele><time>2026-03-24T17:42:42.998Z</time></trkpt><trkpt lat="45.79424581350887" lon="12.040399605732798"><ele>130.66666666666666</ele><time>2026-03-24T17:42:43.998Z</time></trkpt><trkpt lat="45.794107844172395" lon="12.040503187197425"><ele>130.33333333333334</ele><time>2026-03-24T17:42:44.998Z</time></trkpt><trkpt lat="45.793969372346965" lon="12.040615515599406"><ele>130.0</ele><time>2026-03-24T17:42:45.998Z</time></trkpt><trkpt lat="45.79382269204865" lon="12.040723206727096"><ele>130.0</ele><time>2026-03-24T17:42:46.998Z</time></trkpt><trkpt lat="45.79367621727896" lon="12.040844010472513"><ele>130.0</ele><time>2026-03-24T17:42:47.998Z</time></trkpt><trkpt lat="45.79352437895588" lon="12.04096128283444"><ele>130.0</ele><time>2026-03-24T17:42:48.998Z</time></trkpt><trkpt lat="45.79338062486847" lon="12.0410719717038"><ele>130.33333333333334</ele><time>2026-03-24T17:42:49.998Z</time></trkpt><trkpt lat="45.79323380870311" lon="12.041183343418355"><ele>130.66666666666666</ele><time>2026-03-24T17:42:50.998Z</time></trkpt><trkpt lat="45.79310493284781" lon="12.041289128018278"><ele>131.0</ele><time>2026-03-24T17:42:51.998Z</time></trkpt><trkpt lat="45.79297101209241" lon="12.041387114960417"><ele>131.0</ele><time>2026-03-24T17:42:52.998Z</time></trkpt><trkpt lat="45.79284794271443" lon="12.041482513673541"><ele>131.0</ele><time>2026-03-24T17:42:53.998Z</time></trkpt><trkpt lat="45.79272566672803" lon="12.041578090751239"><ele>131.0</ele><time>2026-03-24T17:42:54.998Z</time></trkpt><trkpt lat="45.792601562975705" lon="12.04166360662116"><ele>131.0</ele><time>2026-03-24T17:42:55.998Z</time></trkpt><trkpt lat="45.792480147424364" lon="12.041769356815307"><ele>130.66666666666666</ele><time>2026-03-24T17:42:56.998Z</time></trkpt><trkpt lat="45.79234707802624" lon="12.041871312728265"><ele>130.33333333333334</ele><time>2026-03-24T17:42:57.998Z</time></trkpt><trkpt lat="45.792212065265794" lon="12.04197809883972"><ele>130.0</ele><time>2026-03-24T17:42:58.998Z</time></trkpt><trkpt lat="45.79207851132178" lon="12.042084176409823"><ele>130.0</ele><time>2026-03-24T17:42:59.998Z</time></trkpt><trkpt lat="45.791939107482705" lon="12.042195572939848"><ele>130.0</ele><time>2026-03-24T17:43:00.998Z</time></trkpt><trkpt lat="45.7917831772531" lon="12.042323765145014"><ele>130.0</ele><time>2026-03-24T17:43:01.998Z</time></trkpt><trkpt lat="45.79164645239317" lon="12.042441050336919"><ele>129.5</ele><time>2026-03-24T17:43:02.998Z</time></trkpt><trkpt lat="45.79151313123566" lon="12.042562312078124"><ele>129.0</ele><time>2026-03-24T17:43:03.998Z</time></trkpt><trkpt lat="45.791388804448665" lon="12.042671969071046"><ele>128.5</ele><time>2026-03-24T17:43:04.998Z</time></trkpt><trkpt lat="45.79128177254539" lon="12.042790103663412"><ele>128.0</ele><time>2026-03-24T17:43:05.998Z</time></trkpt><trkpt lat="45.791194346087224" lon="12.042876968914056"><ele>127.99999999999999</ele><time>2026-03-24T17:43:06.998Z</time></trkpt><trkpt lat="45.79113745054071" lon="12.042935414706498"><ele>128.0</ele><time>2026-03-24T17:43:07.998Z</time></trkpt><trkpt lat="45.79107757874197" lon="12.04298393469916"><ele>128.0</ele><time>2026-03-24T17:43:09.998Z</time></trkpt><trkpt lat="45.79100830207999" lon="12.043078879115983"><ele>128.0</ele><time>2026-03-24T17:43:11.998Z</time></trkpt><trkpt lat="45.7909539371085" lon="12.043134804576104"><ele>127.99999999999999</ele><time>2026-03-24T17:43:12.998Z</time></trkpt><trkpt lat="45.7908927789365" lon="12.04320167948982"><ele>128.0</ele><time>2026-03-24T17:43:14Z</time></trkpt><trkpt lat="45.790828900873024" lon="12.043282089602087"><ele>128.5</ele><time>2026-03-24T17:43:15Z</time></trkpt><trkpt lat="45.79074816257025" lon="12.0433758040576"><ele>129.0</ele><time>2026-03-24T17:43:16Z</time></trkpt><trkpt lat="45.79064088682588" lon="12.043465998583986"><ele>129.5</ele><time>2026-03-24T17:43:17Z</time></trkpt><trkpt lat="45.79053687805496" lon="12.043580668045454"><ele>130.0</ele><time>2026-03-24T17:43:18Z</time></trkpt><trkpt lat="45.79043741826263" lon="12.043695422995551"><ele>130.0</ele><time>2026-03-24T17:43:19Z</time></trkpt><trkpt lat="45.7903443008287" lon="12.043791256391222"><ele>130.0</ele><time>2026-03-24T17:43:20Z</time></trkpt><trkpt lat="45.790265950161" lon="12.043876264871301"><ele>130.0</ele><time>2026-03-24T17:43:21Z</time></trkpt><trkpt lat="45.79019134358797" lon="12.043953953140877"><ele>130.0</ele><time>2026-03-24T17:43:22Z</time></trkpt><trkpt lat="45.79011494883859" lon="12.044042417219645"><ele>130.0</ele><time>2026-03-24T17:43:23Z</time></trkpt><trkpt lat="45.79004011970899" lon="12.044125288229177"><ele>130.0</ele><time>2026-03-24T17:43:24Z</time></trkpt><trkpt lat="45.78996072235758" lon="12.044214854055276"><ele>130.0</ele><time>2026-03-24T17:43:25Z</time></trkpt><trkpt lat="45.7898798820995" lon="12.044300292423717"><ele>130.0</ele><time>2026-03-24T17:43:26Z</time></trkpt><trkpt lat="45.78980004279057" lon="12.04439713462534"><ele>130.0</ele><time>2026-03-24T17:43:27Z</time></trkpt><trkpt lat="45.78971701288645" lon="12.044490277594123"><ele>130.0</ele><time>2026-03-24T17:43:28Z</time></trkpt><trkpt lat="45.7896344944777" lon="12.044582023881626"><ele>130.0</ele><time>2026-03-24T17:43:29Z</time></trkpt><trkpt lat="45.78954786044441" lon="12.044677394274713"><ele>130.0</ele><time>2026-03-24T17:43:30Z</time></trkpt><trkpt lat="45.78945106812075" lon="12.044776141812779"><ele>130.0</ele><time>2026-03-24T17:43:31Z</time></trkpt><trkpt lat="45.7893499710004" lon="12.044876101271287"><ele>130.0</ele><time>2026-03-24T17:43:32Z</time></trkpt><trkpt lat="45.789270397797814" lon="12.044980823023629"><ele>129.0</ele><time>2026-03-24T17:43:33Z</time></trkpt><trkpt lat="45.78917515503118" lon="12.045100078886042"><ele>128.0</ele><time>2026-03-24T17:43:34Z</time></trkpt><trkpt lat="45.78906849209086" lon="12.045223252404345"><ele>127.0</ele><time>2026-03-24T17:43:35Z</time></trkpt><trkpt lat="45.788958443471316" lon="12.04534677570021"><ele>126.0</ele><time>2026-03-24T17:43:36Z</time></trkpt><trkpt lat="45.78884661240991" lon="12.045473598116239"><ele>126.0</ele><time>2026-03-24T17:43:37Z</time></trkpt><trkpt lat="45.78873608296962" lon="12.045596037304522"><ele>126.0</ele><time>2026-03-24T17:43:38Z</time></trkpt><trkpt lat="45.78862425619945" lon="12.04571752611037"><ele>126.0</ele><time>2026-03-24T17:43:39Z</time></trkpt><trkpt lat="45.78851399721533" lon="12.045836707353256"><ele>126.0</ele><time>2026-03-24T17:43:40Z</time></trkpt><trkpt lat="45.78840236943158" lon="12.045959764820033"><ele>125.75</ele><time>2026-03-24T17:43:41Z</time></trkpt><trkpt lat="45.78829542247995" lon="12.046084420263783"><ele>125.5</ele><time>2026-03-24T17:43:42Z</time></trkpt><trkpt lat="45.78818368495946" lon="12.046209249655584"><ele>125.25</ele><time>2026-03-24T17:43:43Z</time></trkpt><trkpt lat="45.78806933886767" lon="12.046329217011932"><ele>125.0</ele><time>2026-03-24T17:43:44Z</time></trkpt><trkpt lat="45.78795442778296" lon="12.046451753268272"><ele>125.0</ele><time>2026-03-24T17:43:45Z</time></trkpt><trkpt lat="45.78783987673827" lon="12.046576837171424"><ele>125.0</ele><time>2026-03-24T17:43:46Z</time></trkpt><trkpt lat="45.78772415058193" lon="12.046706364643617"><ele>125.0</ele><time>2026-03-24T17:43:47Z</time></trkpt><trkpt lat="45.78760562321509" lon="12.046839008932858"><ele>125.0</ele><time>2026-03-24T17:43:48Z</time></trkpt><trkpt lat="45.78748243218694" lon="12.046968213346146"><ele>125.5</ele><time>2026-03-24T17:43:49Z</time></trkpt><trkpt lat="45.78736655047127" lon="12.047095410250646"><ele>126.0</ele><time>2026-03-24T17:43:50Z</time></trkpt><trkpt lat="45.78725226998023" lon="12.047223786551337"><ele>126.5</ele><time>2026-03-24T17:43:51Z</time></trkpt><trkpt lat="45.787136097591" lon="12.047349704662368"><ele>127.0</ele><time>2026-03-24T17:43:52Z</time></trkpt><trkpt lat="45.78701664676794" lon="12.047474597512268"><ele>127.0</ele><time>2026-03-24T17:43:53Z</time></trkpt><trkpt lat="45.78689770359908" lon="12.047605002451789"><ele>127.0</ele><time>2026-03-24T17:43:54Z</time></trkpt><trkpt lat="45.786771330391865" lon="12.047740260711063"><ele>127.0</ele><time>2026-03-24T17:43:55Z</time></trkpt><trkpt lat="45.78663956078494" lon="12.04787623412592"><ele>126.33333333333334</ele><time>2026-03-24T17:43:55.999Z</time></trkpt><trkpt lat="45.78649889853973" lon="12.048027814358486"><ele>125.66666666666666</ele><time>2026-03-24T17:43:56.999Z</time></trkpt><trkpt lat="45.786354233303086" lon="12.048178997089666"><ele>125.0</ele><time>2026-03-24T17:43:57.999Z</time></trkpt><trkpt lat="45.78620251463701" lon="12.048346886018946"><ele>125.0</ele><time>2026-03-24T17:43:58.999Z</time></trkpt><trkpt lat="45.78604967186379" lon="12.048511118695892"><ele>125.0</ele><time>2026-03-24T17:43:59.999Z</time></trkpt><trkpt lat="45.78589386011118" lon="12.048674517958402"><ele>125.0</ele><time>2026-03-24T17:44:00.999Z</time></trkpt><trkpt lat="45.78573455397824" lon="12.048845606473597"><ele>124.33333333333333</ele><time>2026-03-24T17:44:01.999Z</time></trkpt><trkpt lat="45.785586394079665" lon="12.049006883615542"><ele>123.66666666666666</ele><time>2026-03-24T17:44:02.999Z</time></trkpt><trkpt lat="45.785446831569885" lon="12.04916754153928"><ele>123.0</ele><time>2026-03-24T17:44:03.999Z</time></trkpt><trkpt lat="45.78530098288074" lon="12.049325037340424"><ele>124.0</ele><time>2026-03-24T17:44:04.999Z</time></trkpt><trkpt lat="45.78516475377712" lon="12.04947261441872"><ele>125.0</ele><time>2026-03-24T17:44:05.999Z</time></trkpt><trkpt lat="45.7850106025305" lon="12.049617574663555"><ele>126.0</ele><time>2026-03-24T17:44:06.999Z</time></trkpt><trkpt lat="45.784861327058074" lon="12.049759065701638"><ele>126.0</ele><time>2026-03-24T17:44:07.999Z</time></trkpt><trkpt lat="45.78471997766779" lon="12.049913052751883"><ele>126.0</ele><time>2026-03-24T17:44:08.999Z</time></trkpt><trkpt lat="45.78458775991686" lon="12.05007204179807"><ele>126.0</ele><time>2026-03-24T17:44:09.999Z</time></trkpt><trkpt lat="45.78445678758523" lon="12.0502440214876"><ele>126.0</ele><time>2026-03-24T17:44:10.999Z</time></trkpt><trkpt lat="45.78432707328693" lon="12.050419325686718"><ele>126.0</ele><time>2026-03-24T17:44:11.999Z</time></trkpt><trkpt lat="45.78420650400079" lon="12.050607690492338"><ele>126.0</ele><time>2026-03-24T17:44:12.999Z</time></trkpt><trkpt lat="45.78409291868198" lon="12.050805528966716"><ele>126.0</ele><time>2026-03-24T17:44:13.999Z</time></trkpt><trkpt lat="45.78399118610236" lon="12.050995163032962"><ele>126.0</ele><time>2026-03-24T17:44:14.999Z</time></trkpt><trkpt lat="45.78390322152831" lon="12.051176662452239"><ele>126.0</ele><time>2026-03-24T17:44:15.999Z</time></trkpt><trkpt lat="45.7838014487625" lon="12.05134461381735"><ele>126.0</ele><time>2026-03-24T17:44:16.999Z</time></trkpt><trkpt lat="45.78368275309461" lon="12.051508071124395"><ele>126.0</ele><time>2026-03-24T17:44:17.999Z</time></trkpt><trkpt lat="45.78356010625874" lon="12.051666597463806"><ele>126.0</ele><time>2026-03-24T17:44:18.999Z</time></trkpt><trkpt lat="45.78344305682998" lon="12.051806598100304"><ele>126.25</ele><time>2026-03-24T17:44:19.999Z</time></trkpt><trkpt lat="45.7833372219419" lon="12.05193597315937"><ele>126.5</ele><time>2026-03-24T17:44:20.999Z</time></trkpt><trkpt lat="45.78323674142685" lon="12.052054247575521"><ele>126.75</ele><time>2026-03-24T17:44:21.999Z</time></trkpt><trkpt lat="45.78313290436857" lon="12.05212904324996"><ele>127.0</ele><time>2026-03-24T17:44:22.999Z</time></trkpt><trkpt lat="45.78302236158042" lon="12.05217518318649"><ele>127.00000000000001</ele><time>2026-03-24T17:44:23.999Z</time></trkpt><trkpt lat="45.782908929049256" lon="12.05219650673778"><ele>127.0</ele><time>2026-03-24T17:44:24.999Z</time></trkpt><trkpt lat="45.782814373069215" lon="12.052172322576874"><ele>127.0</ele><time>2026-03-24T17:44:25.999Z</time></trkpt><trkpt lat="45.78273888894536" lon="12.052164354532662"><ele>127.0</ele><time>2026-03-24T17:44:26.999Z</time></trkpt><trkpt lat="45.78267535897013" lon="12.052158071153842"><ele>127.00000000000001</ele><time>2026-03-24T17:44:27.999Z</time></trkpt><trkpt lat="45.782610546911755" lon="12.052176647154088"><ele>127.0</ele><time>2026-03-24T17:44:29.999Z</time></trkpt><trkpt lat="45.782475895936344" lon="12.052113316931393"><ele>130.25</ele><time>2026-03-24T17:44:31.999Z</time></trkpt><trkpt lat="45.78237884064496" lon="12.052091025046257"><ele>133.5</ele><time>2026-03-24T17:44:32.999Z</time></trkpt><trkpt lat="45.782264695715725" lon="12.05202404012026"><ele>136.75</ele><time>2026-03-24T17:44:33.999Z</time></trkpt><trkpt lat="45.78216379884115" lon="12.051938577762973"><ele>140.0</ele><time>2026-03-24T17:44:34.999Z</time></trkpt><trkpt lat="45.78203625845735" lon="12.051867061622746"><ele>140.0</ele><time>2026-03-24T17:44:35.999Z</time></trkpt><trkpt lat="45.78190337952141" lon="12.051786611515288"><ele>140.0</ele><time>2026-03-24T17:44:36.999Z</time></trkpt><trkpt lat="45.781762529377815" lon="12.051697789567896"><ele>140.0</ele><time>2026-03-24T17:44:37.999Z</time></trkpt><trkpt lat="45.78164346143283" lon="12.051577277892017"><ele>140.0</ele><time>2026-03-24T17:44:38.999Z</time></trkpt><trkpt lat="45.78154205589937" lon="12.051450632114536"><ele>139.0</ele><time>2026-03-24T17:44:39.999Z</time></trkpt><trkpt lat="45.78146061323007" lon="12.051329403482283"><ele>138.0</ele><time>2026-03-24T17:44:40.999Z</time></trkpt><trkpt lat="45.78137081324644" lon="12.051218173455576"><ele>137.0</ele><time>2026-03-24T17:44:41.999Z</time></trkpt><trkpt lat="45.781281374990414" lon="12.051113146892842"><ele>136.0</ele><time>2026-03-24T17:44:42.999Z</time></trkpt><trkpt lat="45.78121260305198" lon="12.050978228044427"><ele>136.0</ele><time>2026-03-24T17:44:43.999Z</time></trkpt><trkpt lat="45.7811298422668" lon="12.05086103331043"><ele>136.0</ele><time>2026-03-24T17:44:44.999Z</time></trkpt><trkpt lat="45.781039446604524" lon="12.050777544927834"><ele>136.0</ele><time>2026-03-24T17:44:45.999Z</time></trkpt><trkpt lat="45.780954630152934" lon="12.050689702588507"><ele>136.0</ele><time>2026-03-24T17:44:46.999Z</time></trkpt><trkpt lat="45.78088086164465" lon="12.050612693079293"><ele>136.0</ele><time>2026-03-24T17:44:47.999Z</time></trkpt><trkpt lat="45.780812700091104" lon="12.050530914696475"><ele>134.2</ele><time>2026-03-24T17:44:48.999Z</time></trkpt><trkpt lat="45.78074949273764" lon="12.050453257068524"><ele>132.39999999999998</ele><time>2026-03-24T17:44:49.998Z</time></trkpt><trkpt lat="45.78069366502409" lon="12.050395638806489"><ele>130.6</ele><time>2026-03-24T17:44:50.998Z</time></trkpt><trkpt lat="45.780593560543686" lon="12.050295310760045"><ele>128.79999999999998</ele><time>2026-03-24T17:44:52.998Z</time></trkpt><trkpt lat="45.78050083166892" lon="12.050190621557539"><ele>127.0</ele><time>2026-03-24T17:44:54.998Z</time></trkpt><trkpt lat="45.780384775662164" lon="12.05013437644696"><ele>127.0</ele><time>2026-03-24T17:44:56.998Z</time></trkpt><trkpt lat="45.7803292890832" lon="12.050190101327809"><ele>126.99999999999999</ele><time>2026-03-24T17:44:57.998Z</time></trkpt><trkpt lat="45.78025016214825" lon="12.050362856786506"><ele>126.99999999999999</ele><time>2026-03-24T17:44:59.998Z</time></trkpt><trkpt lat="45.78017323149402" lon="12.050451685672638"><ele>127.0</ele><time>2026-03-24T17:45:00.998Z</time></trkpt><trkpt lat="45.780107497042316" lon="12.050499700370064"><ele>127.0</ele><time>2026-03-24T17:45:01.998Z</time></trkpt><trkpt lat="45.78000218596532" lon="12.050530901625208"><ele>125.5</ele><time>2026-03-24T17:45:02.998Z</time></trkpt><trkpt lat="45.77988394940304" lon="12.050535265317363"><ele>124.0</ele><time>2026-03-24T17:45:03.998Z</time></trkpt><trkpt lat="45.77975125355792" lon="12.05058153265417"><ele>122.5</ele><time>2026-03-24T17:45:04.998Z</time></trkpt><trkpt lat="45.77960668107514" lon="12.050631941069929"><ele>121.0</ele><time>2026-03-24T17:45:05.998Z</time></trkpt><trkpt lat="45.77946328916003" lon="12.050695120514321"><ele>121.0</ele><time>2026-03-24T17:45:06.998Z</time></trkpt><trkpt lat="45.77930546294175" lon="12.050746643876474"><ele>121.0</ele><time>2026-03-24T17:45:07.998Z</time></trkpt><trkpt lat="45.779138965182796" lon="12.050793820023076"><ele>121.0</ele><time>2026-03-24T17:45:08.998Z</time></trkpt><trkpt lat="45.77897698440422" lon="12.050849897444806"><ele>120.25</ele><time>2026-03-24T17:45:09.998Z</time></trkpt><trkpt lat="45.77883257449106" lon="12.0508998845836"><ele>119.5</ele><time>2026-03-24T17:45:10.998Z</time></trkpt><trkpt lat="45.778710156029206" lon="12.050942259328526"><ele>118.75</ele><time>2026-03-24T17:45:11.998Z</time></trkpt><trkpt lat="45.778589112377084" lon="12.050997715136418"><ele>118.0</ele><time>2026-03-24T17:45:12.998Z</time></trkpt><trkpt lat="45.778467161022355" lon="12.051042557885976"><ele>117.80000000000001</ele><time>2026-03-24T17:45:13.998Z</time></trkpt><trkpt lat="45.778352246861004" lon="12.051078472914641"><ele>117.60000000000001</ele><time>2026-03-24T17:45:14.998Z</time></trkpt><trkpt lat="45.77825630641186" lon="12.0511113138178"><ele>117.39999999999999</ele><time>2026-03-24T17:45:15.998Z</time></trkpt><trkpt lat="45.77816546141622" lon="12.05114273676399"><ele>117.19999999999999</ele><time>2026-03-24T17:45:16.998Z</time></trkpt><trkpt lat="45.778087402169355" lon="12.051160617796393"><ele>117.0</ele><time>2026-03-24T17:45:17.998Z</time></trkpt><trkpt lat="45.77800961634363" lon="12.051180335885919"><ele>117.0</ele><time>2026-03-24T17:45:18.998Z</time></trkpt><trkpt lat="45.777932694671534" lon="12.051198342279193"><ele>117.0</ele><time>2026-03-24T17:45:20Z</time></trkpt><trkpt lat="45.777862428000255" lon="12.051222773047469"><ele>117.0</ele><time>2026-03-24T17:45:21Z</time></trkpt><trkpt lat="45.77779705353258" lon="12.051244374085291"><ele>117.0</ele><time>2026-03-24T17:45:22Z</time></trkpt><trkpt lat="45.77770059783025" lon="12.051281388874068"><ele>117.0</ele><time>2026-03-24T17:45:24Z</time></trkpt><trkpt lat="45.77760413291157" lon="12.051307897824792"><ele>117.0</ele><time>2026-03-24T17:45:26Z</time></trkpt><trkpt lat="45.77751027010503" lon="12.051331127922865"><ele>117.0</ele><time>2026-03-24T17:45:28Z</time></trkpt><trkpt lat="45.77744595833283" lon="12.051353579370327"><ele>117.0</ele><time>2026-03-24T17:45:30Z</time></trkpt><trkpt lat="45.777378215570046" lon="12.051250041756068"><ele>117.0</ele><time>2026-03-24T17:45:33Z</time></trkpt><trkpt lat="45.7774149392388" lon="12.051140074866428"><ele>117.0</ele><time>2026-03-24T17:45:34Z</time></trkpt><trkpt lat="45.777397496296004" lon="12.051036860574017"><ele>117.0</ele><time>2026-03-24T17:45:35Z</time></trkpt><trkpt lat="45.77736597822384" lon="12.050915411746042"><ele>117.0</ele><time>2026-03-24T17:45:36Z</time></trkpt><trkpt lat="45.777338144634584" lon="12.050790823669645"><ele>117.0</ele><time>2026-03-24T17:45:37Z</time></trkpt><trkpt lat="45.77732028192008" lon="12.05064603228183"><ele>116.99999999999999</ele><time>2026-03-24T17:45:38Z</time></trkpt><trkpt lat="45.777285651586745" lon="12.050480783697077"><ele>116.99999999999999</ele><time>2026-03-24T17:45:39Z</time></trkpt><trkpt lat="45.777251188248286" lon="12.050316330279339"><ele>117.0</ele><time>2026-03-24T17:45:40Z</time></trkpt><trkpt lat="45.77722127449869" lon="12.050173038162738"><ele>117.0</ele><time>2026-03-24T17:45:41Z</time></trkpt><trkpt lat="45.777194169229254" lon="12.05004409788847"><ele>116.83333333333333</ele><time>2026-03-24T17:45:42Z</time></trkpt><trkpt lat="45.77716889535351" lon="12.049924228508468"><ele>116.66666666666666</ele><time>2026-03-24T17:45:43Z</time></trkpt><trkpt lat="45.777150390327904" lon="12.049836461608542"><ele>116.5</ele><time>2026-03-24T17:45:44Z</time></trkpt><trkpt lat="45.77713001500479" lon="12.049739824818902"><ele>116.33333333333333</ele><time>2026-03-24T17:45:45Z</time></trkpt><trkpt lat="45.77709599760569" lon="12.049578485785867"><ele>116.16666666666666</ele><time>2026-03-24T17:45:47Z</time></trkpt><trkpt lat="45.77707002266066" lon="12.049455290865964"><ele>116.0</ele><time>2026-03-24T17:45:49Z</time></trkpt><trkpt lat="45.77704962166918" lon="12.049360821296808"><ele>116.0</ele><time>2026-03-24T17:45:56Z</time></trkpt><trkpt lat="45.777027045609785" lon="12.049256370000846"><ele>116.0</ele><time>2026-03-24T17:45:58.999Z</time></trkpt><trkpt lat="45.77685420993836" lon="12.049333130709854"><ele>116.0</ele><time>2026-03-24T17:46:00.999Z</time></trkpt><trkpt lat="45.776790246159024" lon="12.049375619359733"><ele>116.0</ele><time>2026-03-24T17:46:01.999Z</time></trkpt><trkpt lat="45.776707601595" lon="12.049416402364203"><ele>116.0</ele><time>2026-03-24T17:46:02.999Z</time></trkpt><trkpt lat="45.77661617505839" lon="12.049459184610127"><ele>116.19999999999999</ele><time>2026-03-24T17:46:03.999Z</time></trkpt><trkpt lat="45.77654876779464" lon="12.049500713436498"><ele>116.39999999999999</ele><time>2026-03-24T17:46:04.999Z</time></trkpt><trkpt lat="45.77645057740787" lon="12.049560751272342"><ele>116.6</ele><time>2026-03-24T17:46:05.999Z</time></trkpt><trkpt lat="45.776348539371185" lon="12.049622752931915"><ele>116.8</ele><time>2026-03-24T17:46:06.999Z</time></trkpt><trkpt lat="45.77626058151247" lon="12.049664215772651"><ele>117.0</ele><time>2026-03-24T17:46:07.999Z</time></trkpt><trkpt lat="45.776181526799256" lon="12.049702987732749"><ele>117.0</ele><time>2026-03-24T17:46:08.999Z</time></trkpt><trkpt lat="45.77610826404464" lon="12.049746958421455"><ele>117.0</ele><time>2026-03-24T17:46:09.999Z</time></trkpt><trkpt lat="45.77604772291218" lon="12.049776982682427"><ele>117.0</ele><time>2026-03-24T17:46:10.999Z</time></trkpt><trkpt lat="45.77594109369747" lon="12.049833813084879"><ele>117.0</ele><time>2026-03-24T17:46:12.999Z</time></trkpt><trkpt lat="45.77588309568279" lon="12.049870483934974"><ele>117.0</ele><time>2026-03-24T17:46:13.999Z</time></trkpt><trkpt lat="45.77582449075306" lon="12.049904849377997"><ele>117.0</ele><time>2026-03-24T17:46:14.999Z</time></trkpt><trkpt lat="45.77569562873307" lon="12.049975056134564"><ele>116.19999999999999</ele><time>2026-03-24T17:46:16.999Z</time></trkpt><trkpt lat="45.775624739685746" lon="12.05001898958212"><ele>115.39999999999999</ele><time>2026-03-24T17:46:17.999Z</time></trkpt><trkpt lat="45.775538507230735" lon="12.050070907292678"><ele>114.60000000000001</ele><time>2026-03-24T17:46:18.999Z</time></trkpt><trkpt lat="45.77544693909196" lon="12.050107877649117"><ele>113.80000000000001</ele><time>2026-03-24T17:46:19.999Z</time></trkpt><trkpt lat="45.77535760152326" lon="12.05017521409813"><ele>113.0</ele><time>2026-03-24T17:46:20.999Z</time></trkpt><trkpt lat="45.77526436681425" lon="12.050227126441632"><ele>112.80000000000001</ele><time>2026-03-24T17:46:21.999Z</time></trkpt><trkpt lat="45.77515832093181" lon="12.050261120897753"><ele>112.60000000000001</ele><time>2026-03-24T17:46:22.999Z</time></trkpt><trkpt lat="45.77505993796065" lon="12.050316538651256"><ele>112.39999999999999</ele><time>2026-03-24T17:46:23.999Z</time></trkpt><trkpt lat="45.77496403762656" lon="12.05037234820723"><ele>112.19999999999999</ele><time>2026-03-24T17:46:24.999Z</time></trkpt><trkpt lat="45.774854746363" lon="12.050430972670588"><ele>112.0</ele><time>2026-03-24T17:46:25.999Z</time></trkpt><trkpt lat="45.77476171718537" lon="12.050493425363026"><ele>112.0</ele><time>2026-03-24T17:46:26.999Z</time></trkpt><trkpt lat="45.7746581991046" lon="12.050534566327945"><ele>112.0</ele><time>2026-03-24T17:46:27.999Z</time></trkpt><trkpt lat="45.77454982750051" lon="12.050585361616726"><ele>112.0</ele><time>2026-03-24T17:46:28.999Z</time></trkpt><trkpt lat="45.774437840359596" lon="12.050651981815562"><ele>112.0</ele><time>2026-03-24T17:46:29.999Z</time></trkpt><trkpt lat="45.774333623547705" lon="12.05070736179239"><ele>111.66666666666667</ele><time>2026-03-24T17:46:30.999Z</time></trkpt><trkpt lat="45.774236813214856" lon="12.05075466873998"><ele>111.33333333333334</ele><time>2026-03-24T17:46:31.999Z</time></trkpt><trkpt lat="45.77414985886741" lon="12.05080093663183"><ele>111.0</ele><time>2026-03-24T17:46:32.999Z</time></trkpt><trkpt lat="45.77407687249004" lon="12.050838468757625"><ele>110.66666666666666</ele><time>2026-03-24T17:46:33.999Z</time></trkpt><trkpt lat="45.77400432117719" lon="12.050889017644518"><ele>110.33333333333333</ele><time>2026-03-24T17:46:34.999Z</time></trkpt><trkpt lat="45.77394326646546" lon="12.050921435892436"><ele>110.0</ele><time>2026-03-24T17:46:35.999Z</time></trkpt><trkpt lat="45.77382848125438" lon="12.05099077624912"><ele>110.0</ele><time>2026-03-24T17:46:37.999Z</time></trkpt><trkpt lat="45.773758822566805" lon="12.051006785298938"><ele>110.0</ele><time>2026-03-24T17:46:42.999Z</time></trkpt><trkpt lat="45.773685038891536" lon="12.050858735937295"><ele>110.0</ele><time>2026-03-24T17:46:55.998Z</time></trkpt><trkpt lat="45.773651697905265" lon="12.05075466408781"><ele>110.0</ele><time>2026-03-24T17:46:56.998Z</time></trkpt><trkpt lat="45.77361753847537" lon="12.050648037870538"><ele>110.0</ele><time>2026-03-24T17:46:57.998Z</time></trkpt><trkpt lat="45.77357768832593" lon="12.05052364821581"><ele>109.25</ele><time>2026-03-24T17:46:58.998Z</time></trkpt><trkpt lat="45.773534376269104" lon="12.050388358225504"><ele>108.5</ele><time>2026-03-24T17:46:59.998Z</time></trkpt><trkpt lat="45.773484318164186" lon="12.050236505982005"><ele>107.75</ele><time>2026-03-24T17:47:00.998Z</time></trkpt><trkpt lat="45.77343041532344" lon="12.050072871056933"><ele>107.0</ele><time>2026-03-24T17:47:01.998Z</time></trkpt><trkpt lat="45.773385547158654" lon="12.049936027721353"><ele>106.83333333333333</ele><time>2026-03-24T17:47:02.998Z</time></trkpt><trkpt lat="45.77334990013771" lon="12.049827308251055"><ele>106.66666666666666</ele><time>2026-03-24T17:47:03.998Z</time></trkpt><trkpt lat="45.773313514160705" lon="12.049716334778116"><ele>106.5</ele><time>2026-03-24T17:47:04.998Z</time></trkpt><trkpt lat="45.77328179749377" lon="12.049618037438007"><ele>106.33333333333334</ele><time>2026-03-24T17:47:05.998Z</time></trkpt><trkpt lat="45.773247488078894" lon="12.049532173959529"><ele>106.16666666666667</ele><time>2026-03-24T17:47:06.998Z</time></trkpt><trkpt lat="45.7731931219202" lon="12.049375406374814"><ele>106.0</ele><time>2026-03-24T17:47:08.998Z</time></trkpt><trkpt lat="45.773162415219694" lon="12.049281339780489"><ele>106.0</ele><time>2026-03-24T17:47:09.998Z</time></trkpt><trkpt lat="45.773130871663106" lon="12.049169849249019"><ele>106.0</ele><time>2026-03-24T17:47:10.998Z</time></trkpt><trkpt lat="45.77309731048291" lon="12.049083189472443"><ele>106.0</ele><time>2026-03-24T17:47:11.998Z</time></trkpt><trkpt lat="45.77306379682618" lon="12.04900147590548"><ele>106.0</ele><time>2026-03-24T17:47:12.998Z</time></trkpt><trkpt lat="45.77301748073771" lon="12.048851204510939"><ele>106.0</ele><time>2026-03-24T17:47:14.998Z</time></trkpt><trkpt lat="45.77298163085101" lon="12.048689976177688"><ele>106.19999999999999</ele><time>2026-03-24T17:47:16.998Z</time></trkpt><trkpt lat="45.77295171707006" lon="12.048544207677203"><ele>106.39999999999999</ele><time>2026-03-24T17:47:18.998Z</time></trkpt><trkpt lat="45.772918209407116" lon="12.04840995769846"><ele>106.6</ele><time>2026-03-24T17:47:20.998Z</time></trkpt><trkpt lat="45.77288298980899" lon="12.048278920288258"><ele>106.8</ele><time>2026-03-24T17:47:22.998Z</time></trkpt><trkpt lat="45.7729216133392" lon="12.048199740023406"><ele>107.0</ele><time>2026-03-24T17:47:23.998Z</time></trkpt><trkpt lat="45.77292431006582" lon="12.048027262815195"><ele>106.8</ele><time>2026-03-24T17:47:26Z</time></trkpt><trkpt lat="45.77284084363258" lon="12.04793105737088"><ele>106.6</ele><time>2026-03-24T17:47:28Z</time></trkpt><trkpt lat="45.77274272634619" lon="12.048019338387068"><ele>106.39999999999999</ele><time>2026-03-24T17:47:30Z</time></trkpt><trkpt lat="45.77270938657209" lon="12.048112645878932"><ele>106.19999999999999</ele><time>2026-03-24T17:47:31Z</time></trkpt><trkpt lat="45.77266391159982" lon="12.048200504230742"><ele>106.0</ele><time>2026-03-24T17:47:32Z</time></trkpt><trkpt lat="45.77259543187744" lon="12.048269678140844"><ele>105.8</ele><time>2026-03-24T17:47:33Z</time></trkpt><trkpt lat="45.7725143899324" lon="12.048334185295472"><ele>105.6</ele><time>2026-03-24T17:47:34Z</time></trkpt><trkpt lat="45.772417758753114" lon="12.048385506817006"><ele>105.4</ele><time>2026-03-24T17:47:35Z</time></trkpt><trkpt lat="45.77230941376823" lon="12.048435366129299"><ele>105.2</ele><time>2026-03-24T17:47:36Z</time></trkpt><trkpt lat="45.772181602794646" lon="12.048491890574018"><ele>105.0</ele><time>2026-03-24T17:47:37Z</time></trkpt><trkpt lat="45.77204833105384" lon="12.048546953189572"><ele>105.0</ele><time>2026-03-24T17:47:38Z</time></trkpt><trkpt lat="45.77191739141371" lon="12.048612498063429"><ele>105.0</ele><time>2026-03-24T17:47:39Z</time></trkpt><trkpt lat="45.77177651384764" lon="12.048687747175258"><ele>105.0</ele><time>2026-03-24T17:47:40Z</time></trkpt><trkpt lat="45.771624223286956" lon="12.048755170440831"><ele>105.0</ele><time>2026-03-24T17:47:41Z</time></trkpt><trkpt lat="45.771487205356394" lon="12.0488200275487"><ele>104.5</ele><time>2026-03-24T17:47:42Z</time></trkpt><trkpt lat="45.771353238118195" lon="12.04889110150021"><ele>104.0</ele><time>2026-03-24T17:47:43Z</time></trkpt><trkpt lat="45.7712289049995" lon="12.048954665256186"><ele>103.5</ele><time>2026-03-24T17:47:44Z</time></trkpt><trkpt lat="45.77109671512874" lon="12.049036520631963"><ele>103.0</ele><time>2026-03-24T17:47:45Z</time></trkpt><trkpt lat="45.770968379731904" lon="12.049096725536291"><ele>102.66666666666667</ele><time>2026-03-24T17:47:46Z</time></trkpt><trkpt lat="45.77084240084799" lon="12.049178602471152"><ele>102.33333333333334</ele><time>2026-03-24T17:47:47Z</time></trkpt><trkpt lat="45.77070082057568" lon="12.049287173729521"><ele>102.0</ele><time>2026-03-24T17:47:48Z</time></trkpt><trkpt lat="45.770558801371884" lon="12.049386691398574"><ele>102.0</ele><time>2026-03-24T17:47:49Z</time></trkpt><trkpt lat="45.770429768586446" lon="12.049483494403017"><ele>102.0</ele><time>2026-03-24T17:47:50Z</time></trkpt><trkpt lat="45.770306555669805" lon="12.049572239581918"><ele>102.0</ele><time>2026-03-24T17:47:51Z</time></trkpt><trkpt lat="45.770191126996316" lon="12.049662710277648"><ele>102.0</ele><time>2026-03-24T17:47:52Z</time></trkpt><trkpt lat="45.770083897941454" lon="12.04974529542845"><ele>101.8</ele><time>2026-03-24T17:47:53Z</time></trkpt><trkpt lat="45.76998208033537" lon="12.04981834104114"><ele>101.6</ele><time>2026-03-24T17:47:54Z</time></trkpt><trkpt lat="45.7698815968562" lon="12.049904884027876"><ele>101.39999999999999</ele><time>2026-03-24T17:47:55Z</time></trkpt><trkpt lat="45.76979463802675" lon="12.049965323177126"><ele>101.19999999999999</ele><time>2026-03-24T17:47:56Z</time></trkpt><trkpt lat="45.76968915492418" lon="12.050039138171046"><ele>101.0</ele><time>2026-03-24T17:47:57Z</time></trkpt><trkpt lat="45.76958059031465" lon="12.050130835579258"><ele>101.0</ele><time>2026-03-24T17:47:58Z</time></trkpt><trkpt lat="45.76948801961179" lon="12.050189507108952"><ele>101.0</ele><time>2026-03-24T17:47:59Z</time></trkpt><trkpt lat="45.76939144511779" lon="12.050276380969516"><ele>101.0</ele><time>2026-03-24T17:48:00Z</time></trkpt><trkpt lat="45.769310566090084" lon="12.050342316263894"><ele>101.0</ele><time>2026-03-24T17:48:01Z</time></trkpt><trkpt lat="45.76922223428755" lon="12.050400110561673"><ele>101.0</ele><time>2026-03-24T17:48:02Z</time></trkpt><trkpt lat="45.76914079346134" lon="12.05047080681652"><ele>100.99999999999999</ele><time>2026-03-24T17:48:03Z</time></trkpt><trkpt lat="45.769058288621245" lon="12.050536779040048"><ele>101.0</ele><time>2026-03-24T17:48:04Z</time></trkpt><trkpt lat="45.76897923458255" lon="12.05059272469388"><ele>101.0</ele><time>2026-03-24T17:48:05Z</time></trkpt><trkpt lat="45.76890792728528" lon="12.050657434654772"><ele>101.0</ele><time>2026-03-24T17:48:06Z</time></trkpt><trkpt lat="45.768836236371925" lon="12.050726400441475"><ele>100.99999999999999</ele><time>2026-03-24T17:48:06.999Z</time></trkpt><trkpt lat="45.76875599478" lon="12.05078120197081"><ele>101.0</ele><time>2026-03-24T17:48:08.999Z</time></trkpt><trkpt lat="45.768680216423114" lon="12.05085135703478"><ele>101.0</ele><time>2026-03-24T17:48:32.999Z</time></trkpt><trkpt lat="45.76855441555786" lon="12.050948507177468"><ele>101.0</ele><time>2026-03-24T17:48:34.999Z</time></trkpt><trkpt lat="45.76847031751098" lon="12.051003840766844"><ele>101.0</ele><time>2026-03-24T17:48:35.999Z</time></trkpt><trkpt lat="45.76838102226749" lon="12.051076032892592"><ele>101.0</ele><time>2026-03-24T17:48:36.999Z</time></trkpt><trkpt lat="45.768285484472635" lon="12.051155544099693"><ele>101.0</ele><time>2026-03-24T17:48:37.999Z</time></trkpt><trkpt lat="45.768178202180536" lon="12.051237281702154"><ele>100.5</ele><time>2026-03-24T17:48:38.999Z</time></trkpt><trkpt lat="45.76806843061527" lon="12.051326933779547"><ele>100.0</ele><time>2026-03-24T17:48:39.999Z</time></trkpt><trkpt lat="45.767955531086514" lon="12.051408947070863"><ele>99.5</ele><time>2026-03-24T17:48:40.999Z</time></trkpt><trkpt lat="45.7678366385852" lon="12.051490165408312"><ele>99.0</ele><time>2026-03-24T17:48:41.999Z</time></trkpt><trkpt lat="45.76771640126054" lon="12.051574314428132"><ele>99.25</ele><time>2026-03-24T17:48:42.999Z</time></trkpt><trkpt lat="45.76759292134182" lon="12.051668777258532"><ele>99.5</ele><time>2026-03-24T17:48:43.999Z</time></trkpt><trkpt lat="45.76746662305555" lon="12.051770259504636"><ele>99.75</ele><time>2026-03-24T17:48:44.999Z</time></trkpt><trkpt lat="45.76733244755255" lon="12.051879970846484"><ele>100.0</ele><time>2026-03-24T17:48:45.999Z</time></trkpt><trkpt lat="45.76719429181326" lon="12.051988446591961"><ele>100.0</ele><time>2026-03-24T17:48:46.999Z</time></trkpt><trkpt lat="45.767049061726425" lon="12.052099855206324"><ele>100.0</ele><time>2026-03-24T17:48:47.999Z</time></trkpt><trkpt lat="45.7669010670357" lon="12.052218279016028"><ele>100.0</ele><time>2026-03-24T17:48:48.999Z</time></trkpt><trkpt lat="45.76674385038958" lon="12.052339245754032"><ele>99.33333333333334</ele><time>2026-03-24T17:48:49.999Z</time></trkpt><trkpt lat="45.766585191216514" lon="12.052462321843308"><ele>98.66666666666666</ele><time>2026-03-24T17:48:50.999Z</time></trkpt><trkpt lat="45.76643445638613" lon="12.052581369661683"><ele>98.0</ele><time>2026-03-24T17:48:51.999Z</time></trkpt><trkpt lat="45.76628412342495" lon="12.052718547173404"><ele>98.0</ele><time>2026-03-24T17:48:52.999Z</time></trkpt><trkpt lat="45.76614352103066" lon="12.052865622060741"><ele>98.0</ele><time>2026-03-24T17:48:53.999Z</time></trkpt><trkpt lat="45.76600647096824" lon="12.053046953508524"><ele>98.0</ele><time>2026-03-24T17:48:54.999Z</time></trkpt><trkpt lat="45.76587348702293" lon="12.053257611113182"><ele>97.66666666666666</ele><time>2026-03-24T17:48:55.999Z</time></trkpt><trkpt lat="45.76572369244266" lon="12.053460433597742"><ele>97.33333333333334</ele><time>2026-03-24T17:48:56.999Z</time></trkpt><trkpt lat="45.76557903493802" lon="12.053685795483819"><ele>97.0</ele><time>2026-03-24T17:48:57.999Z</time></trkpt><trkpt lat="45.7654619949097" lon="12.053905649056357"><ele>97.0</ele><time>2026-03-24T17:48:58.999Z</time></trkpt><trkpt lat="45.76534167630344" lon="12.054096214251985"><ele>97.0</ele><time>2026-03-24T17:48:59.999Z</time></trkpt><trkpt lat="45.76522436860798" lon="12.054268935435081"><ele>97.0</ele><time>2026-03-24T17:49:00.999Z</time></trkpt><trkpt lat="45.76509417022403" lon="12.054425733908964"><ele>96.33333333333334</ele><time>2026-03-24T17:49:01.998Z</time></trkpt><trkpt lat="45.764963422829275" lon="12.054565793332017"><ele>95.66666666666667</ele><time>2026-03-24T17:49:02.998Z</time></trkpt><trkpt lat="45.764828785605744" lon="12.054687140601763"><ele>95.0</ele><time>2026-03-24T17:49:03.998Z</time></trkpt><trkpt lat="45.764691151414176" lon="12.054783848997353"><ele>95.0</ele><time>2026-03-24T17:49:04.998Z</time></trkpt><trkpt lat="45.764556404951904" lon="12.054878476640216"><ele>95.0</ele><time>2026-03-24T17:49:05.998Z</time></trkpt><trkpt lat="45.76441793144494" lon="12.054974983675065"><ele>95.0</ele><time>2026-03-24T17:49:06.998Z</time></trkpt><trkpt lat="45.7642786903937" lon="12.055072177254178"><ele>95.33333333333334</ele><time>2026-03-24T17:49:07.998Z</time></trkpt><trkpt lat="45.76413704643021" lon="12.05516832029635"><ele>95.66666666666667</ele><time>2026-03-24T17:49:08.998Z</time></trkpt><trkpt lat="45.763989087305774" lon="12.055273095844145"><ele>96.0</ele><time>2026-03-24T17:49:09.998Z</time></trkpt><trkpt lat="45.76384027912055" lon="12.055367333109569"><ele>96.0</ele><time>2026-03-24T17:49:10.998Z</time></trkpt><trkpt lat="45.7636907410134" lon="12.0554705223061"><ele>96.0</ele><time>2026-03-24T17:49:11.998Z</time></trkpt><trkpt lat="45.76353511400782" lon="12.055583659935923"><ele>96.0</ele><time>2026-03-24T17:49:12.998Z</time></trkpt><trkpt lat="45.76336719618442" lon="12.055691272097228"><ele>96.0</ele><time>2026-03-24T17:49:13.998Z</time></trkpt><trkpt lat="45.763206574644286" lon="12.055800471197475"><ele>96.0</ele><time>2026-03-24T17:49:14.998Z</time></trkpt><trkpt lat="45.76304344195533" lon="12.055909478712985"><ele>96.0</ele><time>2026-03-24T17:49:15.998Z</time></trkpt><trkpt lat="45.76287805546229" lon="12.05602334231932"><ele>96.0</ele><time>2026-03-24T17:49:16.998Z</time></trkpt><trkpt lat="45.76270701200021" lon="12.056149031171344"><ele>96.0</ele><time>2026-03-24T17:49:17.998Z</time></trkpt><trkpt lat="45.76252468927805" lon="12.056279260588896"><ele>96.0</ele><time>2026-03-24T17:49:18.998Z</time></trkpt><trkpt lat="45.76233557499296" lon="12.056410591347367"><ele>95.66666666666667</ele><time>2026-03-24T17:49:19.998Z</time></trkpt><trkpt lat="45.76215284111205" lon="12.056535861536219"><ele>95.33333333333334</ele><time>2026-03-24T17:49:20.998Z</time></trkpt><trkpt lat="45.761989395923244" lon="12.056636471243507"><ele>95.0</ele><time>2026-03-24T17:49:21.998Z</time></trkpt><trkpt lat="45.761831173713" lon="12.056738815613267"><ele>94.66666666666667</ele><time>2026-03-24T17:49:22.998Z</time></trkpt><trkpt lat="45.76168504468014" lon="12.056840420104766"><ele>94.33333333333333</ele><time>2026-03-24T17:49:23.998Z</time></trkpt><trkpt lat="45.76154655784003" lon="12.056936687089383"><ele>94.0</ele><time>2026-03-24T17:49:24.998Z</time></trkpt><trkpt lat="45.76141781683426" lon="12.057023852173929"><ele>94.0</ele><time>2026-03-24T17:49:25.998Z</time></trkpt><trkpt lat="45.761307965712774" lon="12.057100779918475"><ele>94.0</ele><time>2026-03-24T17:49:26.998Z</time></trkpt><trkpt lat="45.76121362179528" lon="12.057174507457683"><ele>94.0</ele><time>2026-03-24T17:49:27.998Z</time></trkpt><trkpt lat="45.76112535740405" lon="12.057221360608871"><ele>94.0</ele><time>2026-03-24T17:49:28.998Z</time></trkpt><trkpt lat="45.76103451853874" lon="12.057286857973589"><ele>94.0</ele><time>2026-03-24T17:49:29.998Z</time></trkpt><trkpt lat="45.76092335349353" lon="12.057361008067698"><ele>93.33333333333333</ele><time>2026-03-24T17:49:30.998Z</time></trkpt><trkpt lat="45.760786384007716" lon="12.05745664864824"><ele>92.66666666666667</ele><time>2026-03-24T17:49:32Z</time></trkpt><trkpt lat="45.7606408322527" lon="12.057536287632663"><ele>92.0</ele><time>2026-03-24T17:49:33Z</time></trkpt><trkpt lat="45.76049349377181" lon="12.057630212107007"><ele>92.0</ele><time>2026-03-24T17:49:34Z</time></trkpt><trkpt lat="45.76033688616747" lon="12.057699576274693"><ele>92.0</ele><time>2026-03-24T17:49:35Z</time></trkpt><trkpt lat="45.760151463203556" lon="12.057739404075672"><ele>92.0</ele><time>2026-03-24T17:49:36Z</time></trkpt><trkpt lat="45.759955589751925" lon="12.057785287216287"><ele>91.66666666666667</ele><time>2026-03-24T17:49:37Z</time></trkpt><trkpt lat="45.75975656489602" lon="12.057847195380129"><ele>91.33333333333333</ele><time>2026-03-24T17:49:38Z</time></trkpt><trkpt lat="45.7595442014239" lon="12.057888187949422"><ele>91.0</ele><time>2026-03-24T17:49:39Z</time></trkpt><trkpt lat="45.75932865283801" lon="12.057925851600427"><ele>92.33333333333333</ele><time>2026-03-24T17:49:40Z</time></trkpt><trkpt lat="45.75911849887807" lon="12.05796663046366"><ele>93.66666666666667</ele><time>2026-03-24T17:49:41Z</time></trkpt><trkpt lat="45.75892661671147" lon="12.057999884213112"><ele>95.0</ele><time>2026-03-24T17:49:42Z</time></trkpt><trkpt lat="45.75874322591775" lon="12.058029955953945"><ele>95.0</ele><time>2026-03-24T17:49:43Z</time></trkpt><trkpt lat="45.75856076955625" lon="12.058056197367577"><ele>95.0</ele><time>2026-03-24T17:49:44Z</time></trkpt><trkpt lat="45.75837390827861" lon="12.05807040669437"><ele>95.0</ele><time>2026-03-24T17:49:45Z</time></trkpt><trkpt lat="45.75819821866333" lon="12.058057344997785"><ele>94.25</ele><time>2026-03-24T17:49:46Z</time></trkpt><trkpt lat="45.758045412668174" lon="12.058062657040757"><ele>93.5</ele><time>2026-03-24T17:49:47Z</time></trkpt><trkpt lat="45.757908370507764" lon="12.058066301745164"><ele>92.75</ele><time>2026-03-24T17:49:48Z</time></trkpt><trkpt lat="45.75775136051525" lon="12.058070967596182"><ele>92.0</ele><time>2026-03-24T17:49:49Z</time></trkpt><trkpt lat="45.75757718116609" lon="12.058076145637733"><ele>91.33333333333334</ele><time>2026-03-24T17:49:50Z</time></trkpt><trkpt lat="45.75738725839544" lon="12.058081789538544"><ele>90.66666666666667</ele><time>2026-03-24T17:49:51Z</time></trkpt><trkpt lat="45.757185172034255" lon="12.058087794901528"><ele>90.0</ele><time>2026-03-24T17:49:52Z</time></trkpt><trkpt lat="45.756968366605854" lon="12.058094463362446"><ele>89.66666666666667</ele><time>2026-03-24T17:49:53Z</time></trkpt><trkpt lat="45.756762984440556" lon="12.05812240441344"><ele>89.33333333333334</ele><time>2026-03-24T17:49:54Z</time></trkpt><trkpt lat="45.75657432202873" lon="12.058106241166882"><ele>89.0</ele><time>2026-03-24T17:49:55Z</time></trkpt><trkpt lat="45.75640072682481" lon="12.058131668242705"><ele>89.0</ele><time>2026-03-24T17:49:56Z</time></trkpt><trkpt lat="45.75622586538376" lon="12.058130454353444"><ele>89.0</ele><time>2026-03-24T17:49:57Z</time></trkpt><trkpt lat="45.75604764722777" lon="12.05813470140186"><ele>89.0</ele><time>2026-03-24T17:49:58Z</time></trkpt><trkpt lat="45.75586832890802" lon="12.058151228673482"><ele>89.66666666666667</ele><time>2026-03-24T17:49:59Z</time></trkpt><trkpt lat="45.75569096008804" lon="12.058161365408441"><ele>90.33333333333333</ele><time>2026-03-24T17:50:00Z</time></trkpt><trkpt lat="45.75551049713083" lon="12.058188370533445"><ele>91.0</ele><time>2026-03-24T17:50:01Z</time></trkpt><trkpt lat="45.755317029445614" lon="12.058238736988212"><ele>90.33333333333333</ele><time>2026-03-24T17:50:02Z</time></trkpt><trkpt lat="45.75512073346938" lon="12.058302662548565"><ele>89.66666666666667</ele><time>2026-03-24T17:50:03Z</time></trkpt><trkpt lat="45.7549061679903" lon="12.05836150860316"><ele>89.0</ele><time>2026-03-24T17:50:04Z</time></trkpt><trkpt lat="45.754694644391954" lon="12.05841833069893"><ele>89.0</ele><time>2026-03-24T17:50:05Z</time></trkpt><trkpt lat="45.7545026771955" lon="12.058464521979271"><ele>89.0</ele><time>2026-03-24T17:50:06Z</time></trkpt><trkpt lat="45.754321776004865" lon="12.05851099438157"><ele>89.0</ele><time>2026-03-24T17:50:07Z</time></trkpt><trkpt lat="45.75414716202096" lon="12.058559518612977"><ele>89.0</ele><time>2026-03-24T17:50:08Z</time></trkpt><trkpt lat="45.75398100590382" lon="12.058600027079647"><ele>89.0</ele><time>2026-03-24T17:50:09Z</time></trkpt><trkpt lat="45.75380691865582" lon="12.058650317351201"><ele>89.0</ele><time>2026-03-24T17:50:10Z</time></trkpt><trkpt lat="45.753634260621666" lon="12.058694443020896"><ele>88.33333333333334</ele><time>2026-03-24T17:50:10.999Z</time></trkpt><trkpt lat="45.75346947126089" lon="12.058740595317152"><ele>87.66666666666667</ele><time>2026-03-24T17:50:11.999Z</time></trkpt><trkpt lat="45.753290824423445" lon="12.058785433810389"><ele>87.0</ele><time>2026-03-24T17:50:12.999Z</time></trkpt><trkpt lat="45.75310904999397" lon="12.058837755854194"><ele>87.0</ele><time>2026-03-24T17:50:13.999Z</time></trkpt><trkpt lat="45.75292419438601" lon="12.058880641224551"><ele>87.0</ele><time>2026-03-24T17:50:14.999Z</time></trkpt><trkpt lat="45.75274443821889" lon="12.058932739509805"><ele>87.0</ele><time>2026-03-24T17:50:15.999Z</time></trkpt><trkpt lat="45.7525619061245" lon="12.05898203404537"><ele>87.0</ele><time>2026-03-24T17:50:16.999Z</time></trkpt><trkpt lat="45.75237842576064" lon="12.059031739853975"><ele>87.0</ele><time>2026-03-24T17:50:17.999Z</time></trkpt><trkpt lat="45.75219355300934" lon="12.059082136731417"><ele>87.0</ele><time>2026-03-24T17:50:18.999Z</time></trkpt><trkpt lat="45.75200822281534" lon="12.059132644021897"><ele>86.33333333333333</ele><time>2026-03-24T17:50:19.999Z</time></trkpt><trkpt lat="45.751817557970305" lon="12.059161770716193"><ele>85.66666666666666</ele><time>2026-03-24T17:50:20.999Z</time></trkpt><trkpt lat="45.75162973082016" lon="12.05922640420641"><ele>85.0</ele><time>2026-03-24T17:50:21.999Z</time></trkpt><trkpt lat="45.75144184911671" lon="12.059278497643621"><ele>85.0</ele><time>2026-03-24T17:50:22.999Z</time></trkpt><trkpt lat="45.75125739966354" lon="12.059347056353916"><ele>85.0</ele><time>2026-03-24T17:50:23.999Z</time></trkpt><trkpt lat="45.75106223310077" lon="12.059432270857068"><ele>85.0</ele><time>2026-03-24T17:50:24.999Z</time></trkpt><trkpt lat="45.750861086656386" lon="12.05952882596912"><ele>84.66666666666666</ele><time>2026-03-24T17:50:25.999Z</time></trkpt><trkpt lat="45.7506534651799" lon="12.059621702210594"><ele>84.33333333333333</ele><time>2026-03-24T17:50:26.999Z</time></trkpt><trkpt lat="45.75044714456076" lon="12.05971845778025"><ele>84.0</ele><time>2026-03-24T17:50:27.999Z</time></trkpt><trkpt lat="45.75023309745177" lon="12.059808302336736"><ele>84.33333333333333</ele><time>2026-03-24T17:50:28.999Z</time></trkpt><trkpt lat="45.750051649777475" lon="12.059893865191306"><ele>84.66666666666666</ele><time>2026-03-24T17:50:29.999Z</time></trkpt><trkpt lat="45.74987913863904" lon="12.059974700158996"><ele>85.0</ele><time>2026-03-24T17:50:30.999Z</time></trkpt><trkpt lat="45.74971551784827" lon="12.060052505722059"><ele>85.0</ele><time>2026-03-24T17:50:31.999Z</time></trkpt><trkpt lat="45.74956251805996" lon="12.060126219220614"><ele>85.0</ele><time>2026-03-24T17:50:32.999Z</time></trkpt><trkpt lat="45.74941571069349" lon="12.060192123599013"><ele>85.0</ele><time>2026-03-24T17:50:33.999Z</time></trkpt><trkpt lat="45.74926977546372" lon="12.060255094811948"><ele>85.33333333333333</ele><time>2026-03-24T17:50:34.999Z</time></trkpt><trkpt lat="45.74911526632169" lon="12.060327614718513"><ele>85.66666666666667</ele><time>2026-03-24T17:50:35.999Z</time></trkpt><trkpt lat="45.7489728519953" lon="12.060396538634107"><ele>86.0</ele><time>2026-03-24T17:50:36.999Z</time></trkpt><trkpt lat="45.74880139378097" lon="12.060450407342296"><ele>86.0</ele><time>2026-03-24T17:50:37.999Z</time></trkpt><trkpt lat="45.74863609049893" lon="12.060526101346504"><ele>86.0</ele><time>2026-03-24T17:50:38.999Z</time></trkpt><trkpt lat="45.74847202036612" lon="12.06060123065748"><ele>86.0</ele><time>2026-03-24T17:50:39.999Z</time></trkpt><trkpt lat="45.74830390910198" lon="12.060677023288454"><ele>85.66666666666667</ele><time>2026-03-24T17:50:40.999Z</time></trkpt><trkpt lat="45.74814690959819" lon="12.06076423374205"><ele>85.33333333333333</ele><time>2026-03-24T17:50:41.999Z</time></trkpt><trkpt lat="45.74798667740239" lon="12.060842265507286"><ele>85.0</ele><time>2026-03-24T17:50:42.999Z</time></trkpt><trkpt lat="45.74782188338073" lon="12.060915469650421"><ele>84.33333333333333</ele><time>2026-03-24T17:50:43.999Z</time></trkpt><trkpt lat="45.74765926363653" lon="12.060989086518356"><ele>83.66666666666667</ele><time>2026-03-24T17:50:44.999Z</time></trkpt><trkpt lat="45.74749612241588" lon="12.061075289324595"><ele>83.0</ele><time>2026-03-24T17:50:45.999Z</time></trkpt><trkpt lat="45.74733166661508" lon="12.061163954621296"><ele>83.0</ele><time>2026-03-24T17:50:46.999Z</time></trkpt><trkpt lat="45.747172166591206" lon="12.061268416037345"><ele>83.0</ele><time>2026-03-24T17:50:47.999Z</time></trkpt><trkpt lat="45.747010939623486" lon="12.061355667846273"><ele>83.0</ele><time>2026-03-24T17:50:48.999Z</time></trkpt><trkpt lat="45.7468584098875" lon="12.061464816226062"><ele>83.0</ele><time>2026-03-24T17:50:49.999Z</time></trkpt><trkpt lat="45.746704093525295" lon="12.061577897228672"><ele>83.0</ele><time>2026-03-24T17:50:50.999Z</time></trkpt><trkpt lat="45.74656949402867" lon="12.061676530007633"><ele>83.0</ele><time>2026-03-24T17:50:51.999Z</time></trkpt><trkpt lat="45.74644061989514" lon="12.061769977118487"><ele>83.0</ele><time>2026-03-24T17:50:52.999Z</time></trkpt><trkpt lat="45.74631579876793" lon="12.061860706657408"><ele>83.0</ele><time>2026-03-24T17:50:53.999Z</time></trkpt><trkpt lat="45.74619451965655" lon="12.061949094720148"><ele>83.0</ele><time>2026-03-24T17:50:54.999Z</time></trkpt><trkpt lat="45.74608997238992" lon="12.06205120383734"><ele>83.0</ele><time>2026-03-24T17:50:55.999Z</time></trkpt><trkpt lat="45.74596888848233" lon="12.062114228517434"><ele>83.0</ele><time>2026-03-24T17:50:56.999Z</time></trkpt><trkpt lat="45.74585993319727" lon="12.062202268100277"><ele>83.0</ele><time>2026-03-24T17:50:57.999Z</time></trkpt><trkpt lat="45.7457503514078" lon="12.0622750316424"><ele>83.0</ele><time>2026-03-24T17:50:58.999Z</time></trkpt><trkpt lat="45.745638811379294" lon="12.062348543771899"><ele>83.0</ele><time>2026-03-24T17:50:59.999Z</time></trkpt><trkpt lat="45.74552124228036" lon="12.062420214697623"><ele>83.0</ele><time>2026-03-24T17:51:00.999Z</time></trkpt><trkpt lat="45.74540095030316" lon="12.062489169774596"><ele>83.0</ele><time>2026-03-24T17:51:01.999Z</time></trkpt><trkpt lat="45.74527075319044" lon="12.062538211836381"><ele>83.0</ele><time>2026-03-24T17:51:02.999Z</time></trkpt><trkpt lat="45.74513565343497" lon="12.062614145170752"><ele>83.0</ele><time>2026-03-24T17:51:03.999Z</time></trkpt><trkpt lat="45.74498306425169" lon="12.062699908540012"><ele>81.66666666666667</ele><time>2026-03-24T17:51:04.999Z</time></trkpt><trkpt lat="45.74480899174882" lon="12.062797465910668"><ele>80.33333333333333</ele><time>2026-03-24T17:51:05.998Z</time></trkpt><trkpt lat="45.74464511150104" lon="12.062889214731081"><ele>79.0</ele><time>2026-03-24T17:51:06.998Z</time></trkpt><trkpt lat="45.7445011270719" lon="12.062973820616344"><ele>79.25</ele><time>2026-03-24T17:51:07.998Z</time></trkpt><trkpt lat="45.74436556310322" lon="12.063046926459036"><ele>79.5</ele><time>2026-03-24T17:51:08.998Z</time></trkpt><trkpt lat="45.74423924358857" lon="12.06311654999083"><ele>79.75</ele><time>2026-03-24T17:51:09.998Z</time></trkpt><trkpt lat="45.74412863118121" lon="12.063204686623237"><ele>80.0</ele><time>2026-03-24T17:51:10.998Z</time></trkpt><trkpt lat="45.744021789150246" lon="12.063265360148543"><ele>80.0</ele><time>2026-03-24T17:51:11.998Z</time></trkpt><trkpt lat="45.74391004605436" lon="12.063324251904332"><ele>80.0</ele><time>2026-03-24T17:51:12.998Z</time></trkpt><trkpt lat="45.74378266945218" lon="12.06341012898324"><ele>80.0</ele><time>2026-03-24T17:51:13.998Z</time></trkpt><trkpt lat="45.74362758939306" lon="12.063484872046724"><ele>80.0</ele><time>2026-03-24T17:51:14.998Z</time></trkpt><trkpt lat="45.743462789962315" lon="12.06358966392471"><ele>80.0</ele><time>2026-03-24T17:51:15.998Z</time></trkpt><trkpt lat="45.74331317333362" lon="12.063687583201025"><ele>80.0</ele><time>2026-03-24T17:51:16.998Z</time></trkpt><trkpt lat="45.743181871762815" lon="12.06377607809308"><ele>80.0</ele><time>2026-03-24T17:51:17.998Z</time></trkpt><trkpt lat="45.7430596610304" lon="12.063858445826082"><ele>80.0</ele><time>2026-03-24T17:51:18.998Z</time></trkpt><trkpt lat="45.742945291098415" lon="12.063936904391038"><ele>80.0</ele><time>2026-03-24T17:51:19.998Z</time></trkpt><trkpt lat="45.742838868757524" lon="12.064011151861205"><ele>80.0</ele><time>2026-03-24T17:51:20.998Z</time></trkpt><trkpt lat="45.74273952276459" lon="12.064080460630782"><ele>80.0</ele><time>2026-03-24T17:51:21.998Z</time></trkpt><trkpt lat="45.74263933733417" lon="12.064150355031472"><ele>80.0</ele><time>2026-03-24T17:51:22.998Z</time></trkpt><trkpt lat="45.74253855583807" lon="12.064220665278254"><ele>80.25</ele><time>2026-03-24T17:51:23.998Z</time></trkpt><trkpt lat="45.74243829754453" lon="12.064290610517395"><ele>80.5</ele><time>2026-03-24T17:51:24.998Z</time></trkpt><trkpt lat="45.74233545892912" lon="12.064362355913165"><ele>80.75</ele><time>2026-03-24T17:51:25.998Z</time></trkpt><trkpt lat="45.74222809443022" lon="12.064437545327907"><ele>81.0</ele><time>2026-03-24T17:51:26.998Z</time></trkpt><trkpt lat="45.742125915487215" lon="12.064524252486148"><ele>81.0</ele><time>2026-03-24T17:51:27.998Z</time></trkpt><trkpt lat="45.74202699350141" lon="12.0645966314825"><ele>81.0</ele><time>2026-03-24T17:51:28.998Z</time></trkpt><trkpt lat="45.74192870342515" lon="12.064663231773089"><ele>81.0</ele><time>2026-03-24T17:51:29.998Z</time></trkpt><trkpt lat="45.741829655958114" lon="12.064719242956981"><ele>81.0</ele><time>2026-03-24T17:51:30.998Z</time></trkpt><trkpt lat="45.7417311505706" lon="12.064789473810785"><ele>81.0</ele><time>2026-03-24T17:51:31.998Z</time></trkpt><trkpt lat="45.74163065017472" lon="12.064859558585372"><ele>81.0</ele><time>2026-03-24T17:51:32.998Z</time></trkpt><trkpt lat="45.74152396069925" lon="12.064931215208855"><ele>81.0</ele><time>2026-03-24T17:51:33.998Z</time></trkpt><trkpt lat="45.74142296858168" lon="12.065006593402263"><ele>81.0</ele><time>2026-03-24T17:51:34.998Z</time></trkpt><trkpt lat="45.741319471956636" lon="12.065081587968509"><ele>81.0</ele><time>2026-03-24T17:51:35.998Z</time></trkpt><trkpt lat="45.74120515098525" lon="12.06515811747697"><ele>81.33333333333333</ele><time>2026-03-24T17:51:36.998Z</time></trkpt><trkpt lat="45.741068903400866" lon="12.065231765431669"><ele>81.66666666666666</ele><time>2026-03-24T17:51:38Z</time></trkpt><trkpt lat="45.74090929758367" lon="12.06533532639736"><ele>82.0</ele><time>2026-03-24T17:51:39Z</time></trkpt><trkpt lat="45.74074634413983" lon="12.06543202498744"><ele>81.25</ele><time>2026-03-24T17:51:40Z</time></trkpt><trkpt lat="45.74060340786569" lon="12.065535496084689"><ele>80.5</ele><time>2026-03-24T17:51:41Z</time></trkpt><trkpt lat="45.74047155356813" lon="12.065607435150278"><ele>79.75</ele><time>2026-03-24T17:51:42Z</time></trkpt><trkpt lat="45.740349225659166" lon="12.065669786507955"><ele>79.0</ele><time>2026-03-24T17:51:43Z</time></trkpt><trkpt lat="45.74023291442603" lon="12.06572513421167"><ele>78.75</ele><time>2026-03-24T17:51:44Z</time></trkpt><trkpt lat="45.74012075012466" lon="12.065776363136738"><ele>78.5</ele><time>2026-03-24T17:51:45Z</time></trkpt><trkpt lat="45.74001300366137" lon="12.065816388696522"><ele>78.25</ele><time>2026-03-24T17:51:46Z</time></trkpt><trkpt lat="45.73990043269716" lon="12.065868543387927"><ele>78.0</ele><time>2026-03-24T17:51:47Z</time></trkpt><trkpt lat="45.739783019164314" lon="12.065923687799687"><ele>78.0</ele><time>2026-03-24T17:51:48Z</time></trkpt><trkpt lat="45.73966268465329" lon="12.065968002699337"><ele>78.0</ele><time>2026-03-24T17:51:49Z</time></trkpt><trkpt lat="45.73955389704689" lon="12.066022840348309"><ele>78.0</ele><time>2026-03-24T17:51:50Z</time></trkpt><trkpt lat="45.739449561298024" lon="12.06606544414546"><ele>78.0</ele><time>2026-03-24T17:51:51Z</time></trkpt><trkpt lat="45.73935335344084" lon="12.06610793654483"><ele>78.0</ele><time>2026-03-24T17:51:52Z</time></trkpt><trkpt lat="45.73926503140889" lon="12.066146569074103"><ele>77.75</ele><time>2026-03-24T17:51:53Z</time></trkpt><trkpt lat="45.73917044332748" lon="12.066196669807665"><ele>77.5</ele><time>2026-03-24T17:51:54Z</time></trkpt><trkpt lat="45.7390546846919" lon="12.066252515294282"><ele>77.25</ele><time>2026-03-24T17:51:55Z</time></trkpt><trkpt lat="45.73889933759417" lon="12.066304602615169"><ele>77.0</ele><time>2026-03-24T17:51:56Z</time></trkpt><trkpt lat="45.73873016317876" lon="12.066379806236807"><ele>77.0</ele><time>2026-03-24T17:51:57Z</time></trkpt><trkpt lat="45.738543216362416" lon="12.066462910273266"><ele>77.0</ele><time>2026-03-24T17:51:58Z</time></trkpt><trkpt lat="45.73838607755429" lon="12.066552441886577"><ele>77.0</ele><time>2026-03-24T17:51:59Z</time></trkpt><trkpt lat="45.73823681189668" lon="12.066619095749266"><ele>77.0</ele><time>2026-03-24T17:52:00Z</time></trkpt><trkpt lat="45.738100115666185" lon="12.066674276311797"><ele>77.0</ele><time>2026-03-24T17:52:01Z</time></trkpt><trkpt lat="45.737970689327796" lon="12.066723024430074"><ele>77.0</ele><time>2026-03-24T17:52:02Z</time></trkpt><trkpt lat="45.7378589515647" lon="12.066759844994934"><ele>77.0</ele><time>2026-03-24T17:52:03Z</time></trkpt><trkpt lat="45.73775626567918" lon="12.066797791903374"><ele>77.0</ele><time>2026-03-24T17:52:04Z</time></trkpt><trkpt lat="45.73765293384886" lon="12.066832524500935"><ele>77.0</ele><time>2026-03-24T17:52:05Z</time></trkpt><trkpt lat="45.73756420691253" lon="12.066877442386025"><ele>77.0</ele><time>2026-03-24T17:52:06Z</time></trkpt><trkpt lat="45.73747708084516" lon="12.066910589520784"><ele>77.0</ele><time>2026-03-24T17:52:07Z</time></trkpt><trkpt lat="45.7373949889847" lon="12.066961721076957"><ele>77.0</ele><time>2026-03-24T17:52:08Z</time></trkpt><trkpt lat="45.737335680834164" lon="12.067000886740713"><ele>77.0</ele><time>2026-03-24T17:52:09Z</time></trkpt><trkpt lat="45.73723995238671" lon="12.067064968113737"><ele>77.0</ele><time>2026-03-24T17:52:11Z</time></trkpt><trkpt lat="45.73715807060883" lon="12.067109281099713"><ele>77.0</ele><time>2026-03-24T17:52:12Z</time></trkpt><trkpt lat="45.73706506059724" lon="12.067132487277927"><ele>77.0</ele><time>2026-03-24T17:52:13Z</time></trkpt><trkpt lat="45.73698515439082" lon="12.06714956031767"><ele>77.0</ele><time>2026-03-24T17:52:14Z</time></trkpt><trkpt lat="45.736861327542314" lon="12.067175670457125"><ele>77.0</ele><time>2026-03-24T17:52:16Z</time></trkpt><trkpt lat="45.736780867750525" lon="12.06720488099462"><ele>76.75</ele><time>2026-03-24T17:52:17Z</time></trkpt><trkpt lat="45.7366900087238" lon="12.067255504351264"><ele>76.5</ele><time>2026-03-24T17:52:18Z</time></trkpt><trkpt lat="45.73658868940422" lon="12.067319465103425"><ele>76.25</ele><time>2026-03-24T17:52:19Z</time></trkpt><trkpt lat="45.73646234245511" lon="12.067365721240504"><ele>76.0</ele><time>2026-03-24T17:52:20Z</time></trkpt><trkpt lat="45.736335753486976" lon="12.067440300840559"><ele>75.75</ele><time>2026-03-24T17:52:20.999Z</time></trkpt><trkpt lat="45.73621862949399" lon="12.067540316179855"><ele>75.5</ele><time>2026-03-24T17:52:21.999Z</time></trkpt><trkpt lat="45.73610585291549" lon="12.067619705140975"><ele>75.25</ele><time>2026-03-24T17:52:22.999Z</time></trkpt><trkpt lat="45.73600210721932" lon="12.067693104286223"><ele>75.0</ele><time>2026-03-24T17:52:23.999Z</time></trkpt><trkpt lat="45.735902447550785" lon="12.06776799424252"><ele>74.8</ele><time>2026-03-24T17:52:24.999Z</time></trkpt><trkpt lat="45.73581314173322" lon="12.067836866030968"><ele>74.6</ele><time>2026-03-24T17:52:25.999Z</time></trkpt><trkpt lat="45.735720714429235" lon="12.06790768172537"><ele>74.4</ele><time>2026-03-24T17:52:26.999Z</time></trkpt><trkpt lat="45.73563030833647" lon="12.067964286110834"><ele>74.2</ele><time>2026-03-24T17:52:27.999Z</time></trkpt><trkpt lat="45.735534683118594" lon="12.06804425162094"><ele>74.0</ele><time>2026-03-24T17:52:28.999Z</time></trkpt><trkpt lat="45.73543535521429" lon="12.068110769696196"><ele>74.0</ele><time>2026-03-24T17:52:29.999Z</time></trkpt><trkpt lat="45.73532662791933" lon="12.068202923221243"><ele>74.0</ele><time>2026-03-24T17:52:30.999Z</time></trkpt><trkpt lat="45.73520604956718" lon="12.068298130046196"><ele>74.0</ele><time>2026-03-24T17:52:31.999Z</time></trkpt><trkpt lat="45.73507297641069" lon="12.068387781984365"><ele>74.0</ele><time>2026-03-24T17:52:32.999Z</time></trkpt><trkpt lat="45.7349199959876" lon="12.068455989694314"><ele>74.0</ele><time>2026-03-24T17:52:33.999Z</time></trkpt><trkpt lat="45.734772590312204" lon="12.068521313008334"><ele>74.0</ele><time>2026-03-24T17:52:34.999Z</time></trkpt><trkpt lat="45.73463275900133" lon="12.068586587578883"><ele>74.0</ele><time>2026-03-24T17:52:35.999Z</time></trkpt><trkpt lat="45.73450617350811" lon="12.068645678880756"><ele>74.0</ele><time>2026-03-24T17:52:36.999Z</time></trkpt><trkpt lat="45.734368021936056" lon="12.068710751532247"><ele>74.0</ele><time>2026-03-24T17:52:37.999Z</time></trkpt><trkpt lat="45.7342217209877" lon="12.068779976320245"><ele>74.0</ele><time>2026-03-24T17:52:38.999Z</time></trkpt><trkpt lat="45.73407829866546" lon="12.068847839035444"><ele>74.0</ele><time>2026-03-24T17:52:39.999Z</time></trkpt><trkpt lat="45.733932549689676" lon="12.068914245373456"><ele>74.0</ele><time>2026-03-24T17:52:40.999Z</time></trkpt><trkpt lat="45.733781604892556" lon="12.06898270306323"><ele>74.0</ele><time>2026-03-24T17:52:41.999Z</time></trkpt><trkpt lat="45.73362739353948" lon="12.069053233461894"><ele>74.0</ele><time>2026-03-24T17:52:42.999Z</time></trkpt><trkpt lat="45.73346559328831" lon="12.069130543590784"><ele>73.5</ele><time>2026-03-24T17:52:43.999Z</time></trkpt><trkpt lat="45.73331938484689" lon="12.069195709354206"><ele>73.0</ele><time>2026-03-24T17:52:44.999Z</time></trkpt><trkpt lat="45.733184019780744" lon="12.069261658897393"><ele>72.5</ele><time>2026-03-24T17:52:45.999Z</time></trkpt><trkpt lat="45.733053027189996" lon="12.069322444623015"><ele>72.0</ele><time>2026-03-24T17:52:46.999Z</time></trkpt><trkpt lat="45.732910813303015" lon="12.069378323557137"><ele>72.0</ele><time>2026-03-24T17:52:47.999Z</time></trkpt><trkpt lat="45.732767727118876" lon="12.06943762614519"><ele>72.0</ele><time>2026-03-24T17:52:48.999Z</time></trkpt><trkpt lat="45.732624255990174" lon="12.069491655102416"><ele>72.0</ele><time>2026-03-24T17:52:49.999Z</time></trkpt><trkpt lat="45.73247623542856" lon="12.069548002902078"><ele>72.33333333333333</ele><time>2026-03-24T17:52:50.999Z</time></trkpt><trkpt lat="45.73233162278504" lon="12.069606152168669"><ele>72.66666666666666</ele><time>2026-03-24T17:52:51.999Z</time></trkpt><trkpt lat="45.73218751622743" lon="12.069660261672595"><ele>73.0</ele><time>2026-03-24T17:52:52.999Z</time></trkpt><trkpt lat="45.7320404813293" lon="12.069715314452319"><ele>73.0</ele><time>2026-03-24T17:52:53.999Z</time></trkpt><trkpt lat="45.731892294912114" lon="12.06976772783441"><ele>73.0</ele><time>2026-03-24T17:52:54.999Z</time></trkpt><trkpt lat="45.73174410310843" lon="12.069822303585601"><ele>73.0</ele><time>2026-03-24T17:52:55.999Z</time></trkpt><trkpt lat="45.73159362199856" lon="12.069868920003552"><ele>72.66666666666666</ele><time>2026-03-24T17:52:56.999Z</time></trkpt><trkpt lat="45.731444961572485" lon="12.069929277324293"><ele>72.33333333333333</ele><time>2026-03-24T17:52:57.999Z</time></trkpt><trkpt lat="45.7312941457207" lon="12.06998803989753"><ele>72.0</ele><time>2026-03-24T17:52:58.999Z</time></trkpt><trkpt lat="45.73113977399462" lon="12.070047539993915"><ele>71.33333333333333</ele><time>2026-03-24T17:52:59.999Z</time></trkpt><trkpt lat="45.73098617693815" lon="12.070106486805328"><ele>70.66666666666666</ele><time>2026-03-24T17:53:00.999Z</time></trkpt><trkpt lat="45.730835776699855" lon="12.070167119816169"><ele>70.0</ele><time>2026-03-24T17:53:01.999Z</time></trkpt><trkpt lat="45.730682575662186" lon="12.070226637607792"><ele>70.0</ele><time>2026-03-24T17:53:02.999Z</time></trkpt><trkpt lat="45.730528897729066" lon="12.070285257720219"><ele>70.0</ele><time>2026-03-24T17:53:03.999Z</time></trkpt><trkpt lat="45.730371707996234" lon="12.070342412305868"><ele>70.0</ele><time>2026-03-24T17:53:04.999Z</time></trkpt><trkpt lat="45.730218171928946" lon="12.070400352977567"><ele>70.66666666666666</ele><time>2026-03-24T17:53:05.999Z</time></trkpt><trkpt lat="45.7300639797797" lon="12.070458463623108"><ele>71.33333333333333</ele><time>2026-03-24T17:53:06.999Z</time></trkpt><trkpt lat="45.72990887110792" lon="12.070514452186748"><ele>72.0</ele><time>2026-03-24T17:53:07.999Z</time></trkpt><trkpt lat="45.729748825905475" lon="12.070573140245022"><ele>72.0</ele><time>2026-03-24T17:53:08.999Z</time></trkpt><trkpt lat="45.729587040087" lon="12.070638322500287"><ele>72.0</ele><time>2026-03-24T17:53:09.999Z</time></trkpt><trkpt lat="45.72942049096603" lon="12.070705159327765"><ele>72.0</ele><time>2026-03-24T17:53:10.999Z</time></trkpt><trkpt lat="45.72925308787789" lon="12.070769199456606"><ele>71.33333333333333</ele><time>2026-03-24T17:53:11.999Z</time></trkpt><trkpt lat="45.72909705454854" lon="12.070833579914106"><ele>70.66666666666666</ele><time>2026-03-24T17:53:12.999Z</time></trkpt><trkpt lat="45.72894741507753" lon="12.070897299946038"><ele>70.0</ele><time>2026-03-24T17:53:13.999Z</time></trkpt><trkpt lat="45.72878609089856" lon="12.070967290276428"><ele>70.0</ele><time>2026-03-24T17:53:14.999Z</time></trkpt><trkpt lat="45.728613892068836" lon="12.071050074080292"><ele>70.0</ele><time>2026-03-24T17:53:15.998Z</time></trkpt><trkpt lat="45.72843068551504" lon="12.071115257933572"><ele>70.0</ele><time>2026-03-24T17:53:16.998Z</time></trkpt><trkpt lat="45.72824821056889" lon="12.071199652392384"><ele>69.0</ele><time>2026-03-24T17:53:17.998Z</time></trkpt><trkpt lat="45.72802928103772" lon="12.071300909093004"><ele>68.0</ele><time>2026-03-24T17:53:18.998Z</time></trkpt><trkpt lat="45.72778475804655" lon="12.07141400070681"><ele>67.5</ele><time>2026-03-24T17:53:19.998Z</time></trkpt><trkpt lat="45.7275182534793" lon="12.071538147817176"><ele>67.0</ele><time>2026-03-24T17:53:20.998Z</time></trkpt><trkpt lat="45.72726216978341" lon="12.071681846308623"><ele>67.0</ele><time>2026-03-24T17:53:21.998Z</time></trkpt><trkpt lat="45.72703252397659" lon="12.071788057975343"><ele>67.0</ele><time>2026-03-24T17:53:22.998Z</time></trkpt><trkpt lat="45.726825552439166" lon="12.071884982388614"><ele>67.0</ele><time>2026-03-24T17:53:23.998Z</time></trkpt><trkpt lat="45.726627280490725" lon="12.071973310268914"><ele>67.0</ele><time>2026-03-24T17:53:24.998Z</time></trkpt><trkpt lat="45.726430143401444" lon="12.072067334892942"><ele>67.0</ele><time>2026-03-24T17:53:25.998Z</time></trkpt><trkpt lat="45.72622096898339" lon="12.072165501252481"><ele>66.5</ele><time>2026-03-24T17:53:26.998Z</time></trkpt><trkpt lat="45.725998258855455" lon="12.072270496035276"><ele>66.0</ele><time>2026-03-24T17:53:27.998Z</time></trkpt><trkpt lat="45.72576434153451" lon="12.072375616573067"><ele>66.0</ele><time>2026-03-24T17:53:28.998Z</time></trkpt><trkpt lat="45.72553148384042" lon="12.072484976660915"><ele>66.0</ele><time>2026-03-24T17:53:29.998Z</time></trkpt><trkpt lat="45.72528942663868" lon="12.072597429188972"><ele>67.5</ele><time>2026-03-24T17:53:30.998Z</time></trkpt><trkpt lat="45.725028460854155" lon="12.07271399969231"><ele>69.0</ele><time>2026-03-24T17:53:31.998Z</time></trkpt><trkpt lat="45.724768803476564" lon="12.072838420823318"><ele>69.0</ele><time>2026-03-24T17:53:32.998Z</time></trkpt><trkpt lat="45.72449524547794" lon="12.072944046446933"><ele>69.0</ele><time>2026-03-24T17:53:33.998Z</time></trkpt><trkpt lat="45.724227979345564" lon="12.073086651696087"><ele>67.5</ele><time>2026-03-24T17:53:34.998Z</time></trkpt><trkpt lat="45.7239919318868" lon="12.073197419564869"><ele>66.0</ele><time>2026-03-24T17:53:35.998Z</time></trkpt><trkpt lat="45.723778474056296" lon="12.07330168445407"><ele>65.0</ele><time>2026-03-24T17:53:36.998Z</time></trkpt><trkpt lat="45.723556507503595" lon="12.073384880020908"><ele>64.0</ele><time>2026-03-24T17:53:37.998Z</time></trkpt><trkpt lat="45.72331286785184" lon="12.07349769747612"><ele>64.0</ele><time>2026-03-24T17:53:38.998Z</time></trkpt><trkpt lat="45.72306909824461" lon="12.073610321444267"><ele>64.0</ele><time>2026-03-24T17:53:39.998Z</time></trkpt><trkpt lat="45.72284331424067" lon="12.073738218017372"><ele>64.66666666666666</ele><time>2026-03-24T17:53:40.998Z</time></trkpt><trkpt lat="45.72263338778342" lon="12.07383600357248"><ele>65.33333333333333</ele><time>2026-03-24T17:53:41.998Z</time></trkpt><trkpt lat="45.7224401833941" lon="12.073917571736992"><ele>66.0</ele><time>2026-03-24T17:53:42.998Z</time></trkpt><trkpt lat="45.72226429858231" lon="12.07400333987252"><ele>66.0</ele><time>2026-03-24T17:53:44Z</time></trkpt><trkpt lat="45.72209843628918" lon="12.074100188922497"><ele>66.0</ele><time>2026-03-24T17:53:45Z</time></trkpt><trkpt lat="45.72193855415824" lon="12.0742029176275"><ele>66.0</ele><time>2026-03-24T17:53:46Z</time></trkpt><trkpt lat="45.72178556139554" lon="12.074324922388726"><ele>65.33333333333333</ele><time>2026-03-24T17:53:47Z</time></trkpt><trkpt lat="45.72163129188213" lon="12.074460753030838"><ele>64.66666666666666</ele><time>2026-03-24T17:53:48Z</time></trkpt><trkpt lat="45.72147984650034" lon="12.07462674031604"><ele>64.0</ele><time>2026-03-24T17:53:49Z</time></trkpt><trkpt lat="45.72132573248886" lon="12.074812163665989"><ele>64.0</ele><time>2026-03-24T17:53:50Z</time></trkpt><trkpt lat="45.721168236293146" lon="12.075002714534435"><ele>64.0</ele><time>2026-03-24T17:53:51Z</time></trkpt><trkpt lat="45.721028740142394" lon="12.075242878600145"><ele>64.0</ele><time>2026-03-24T17:53:52Z</time></trkpt><trkpt lat="45.72089582194973" lon="12.075491263514008"><ele>64.0</ele><time>2026-03-24T17:53:53Z</time></trkpt><trkpt lat="45.720771224436746" lon="12.075755323107012"><ele>64.0</ele><time>2026-03-24T17:53:54Z</time></trkpt><trkpt lat="45.72065237189697" lon="12.076032491911455"><ele>64.0</ele><time>2026-03-24T17:53:55Z</time></trkpt><trkpt lat="45.720543447165944" lon="12.076340326900876"><ele>64.0</ele><time>2026-03-24T17:53:56Z</time></trkpt><trkpt lat="45.72044466341174" lon="12.0766710536195"><ele>64.0</ele><time>2026-03-24T17:53:57Z</time></trkpt><trkpt lat="45.72033327477792" lon="12.07700168941269"><ele>64.0</ele><time>2026-03-24T17:53:58Z</time></trkpt><trkpt lat="45.72023604698144" lon="12.077320210217408"><ele>64.0</ele><time>2026-03-24T17:53:59Z</time></trkpt><trkpt lat="45.72015012311434" lon="12.077603930965749"><ele>64.0</ele><time>2026-03-24T17:54:00Z</time></trkpt><trkpt lat="45.72006750040572" lon="12.077878344191086"><ele>64.0</ele><time>2026-03-24T17:54:01Z</time></trkpt><trkpt lat="45.71998206976028" lon="12.078136226345553"><ele>64.0</ele><time>2026-03-24T17:54:02Z</time></trkpt><trkpt lat="45.7199044903436" lon="12.078392239223428"><ele>64.0</ele><time>2026-03-24T17:54:03Z</time></trkpt><trkpt lat="45.71982098840609" lon="12.078645469916076"><ele>64.0</ele><time>2026-03-24T17:54:04Z</time></trkpt><trkpt lat="45.71974401434922" lon="12.078901973616796"><ele>63.666666666666664</ele><time>2026-03-24T17:54:05Z</time></trkpt><trkpt lat="45.719664012953785" lon="12.079162792018492"><ele>63.33333333333333</ele><time>2026-03-24T17:54:06Z</time></trkpt><trkpt lat="45.71958207962897" lon="12.079424369594365"><ele>63.0</ele><time>2026-03-24T17:54:07Z</time></trkpt><trkpt lat="45.71949494581191" lon="12.079695419017538"><ele>63.0</ele><time>2026-03-24T17:54:08Z</time></trkpt><trkpt lat="45.71941498566336" lon="12.079965643404513"><ele>63.0</ele><time>2026-03-24T17:54:09Z</time></trkpt><trkpt lat="45.71932589311993" lon="12.080246959321988"><ele>63.0</ele><time>2026-03-24T17:54:10Z</time></trkpt><trkpt lat="45.71924417287233" lon="12.080522789812632"><ele>63.0</ele><time>2026-03-24T17:54:11Z</time></trkpt><trkpt lat="45.71916837410113" lon="12.080780355388741"><ele>63.0</ele><time>2026-03-24T17:54:12Z</time></trkpt><trkpt lat="45.71909728217303" lon="12.081016552183497"><ele>63.0</ele><time>2026-03-24T17:54:13Z</time></trkpt><trkpt lat="45.71902001429134" lon="12.081239163838653"><ele>63.0</ele><time>2026-03-24T17:54:14Z</time></trkpt><trkpt lat="45.718937657630065" lon="12.081436412635945"><ele>63.0</ele><time>2026-03-24T17:54:15Z</time></trkpt><trkpt lat="45.71884849039444" lon="12.081618978318328"><ele>63.0</ele><time>2026-03-24T17:54:16Z</time></trkpt><trkpt lat="45.71874558350752" lon="12.0817900081043"><ele>63.33333333333333</ele><time>2026-03-24T17:54:17Z</time></trkpt><trkpt lat="45.71860975247213" lon="12.081927634879985"><ele>63.666666666666664</ele><time>2026-03-24T17:54:18Z</time></trkpt><trkpt lat="45.71845852237648" lon="12.082068103760466"><ele>64.0</ele><time>2026-03-24T17:54:19Z</time></trkpt><trkpt lat="45.71830199701015" lon="12.082200946952002"><ele>63.666666666666664</ele><time>2026-03-24T17:54:20Z</time></trkpt><trkpt lat="45.7181291434293" lon="12.082344969509268"><ele>63.33333333333333</ele><time>2026-03-24T17:54:21Z</time></trkpt><trkpt lat="45.717953899519934" lon="12.08250857233838"><ele>63.0</ele><time>2026-03-24T17:54:22Z</time></trkpt><trkpt lat="45.71777182511091" lon="12.082659537823337"><ele>62.0</ele><time>2026-03-24T17:54:23Z</time></trkpt><trkpt lat="45.717586536042674" lon="12.08280674968065"><ele>61.0</ele><time>2026-03-24T17:54:24Z</time></trkpt><trkpt lat="45.71739452914587" lon="12.08297839355926"><ele>60.0</ele><time>2026-03-24T17:54:25Z</time></trkpt><trkpt lat="45.71719992829642" lon="12.083141558751864"><ele>60.0</ele><time>2026-03-24T17:54:26Z</time></trkpt><trkpt lat="45.7170000797598" lon="12.083302968462743"><ele>60.0</ele><time>2026-03-24T17:54:27Z</time></trkpt><trkpt lat="45.71679942309411" lon="12.083469895268003"><ele>60.5</ele><time>2026-03-24T17:54:27.999Z</time></trkpt><trkpt lat="45.7165936312994" lon="12.083642925437147"><ele>61.0</ele><time>2026-03-24T17:54:28.999Z</time></trkpt><trkpt lat="45.71638913186367" lon="12.083810745578413"><ele>61.0</ele><time>2026-03-24T17:54:29.999Z</time></trkpt><trkpt lat="45.71618537639123" lon="12.083977476757365"><ele>61.0</ele><time>2026-03-24T17:54:30.999Z</time></trkpt><trkpt lat="45.71598050207796" lon="12.084130889793535"><ele>60.5</ele><time>2026-03-24T17:54:31.999Z</time></trkpt><trkpt lat="45.715781651447195" lon="12.084287057179179"><ele>60.0</ele><time>2026-03-24T17:54:32.999Z</time></trkpt><trkpt lat="45.715584499362365" lon="12.084470239004707"><ele>60.0</ele><time>2026-03-24T17:54:33.999Z</time></trkpt><trkpt lat="45.715388938593435" lon="12.084645815328392"><ele>60.0</ele><time>2026-03-24T17:54:34.999Z</time></trkpt><trkpt lat="45.71519816966978" lon="12.084806071101514"><ele>60.33333333333333</ele><time>2026-03-24T17:54:35.999Z</time></trkpt><trkpt lat="45.7150096713046" lon="12.084964938896368"><ele>60.666666666666664</ele><time>2026-03-24T17:54:36.999Z</time></trkpt><trkpt lat="45.71481800093636" lon="12.08510865839867"><ele>61.0</ele><time>2026-03-24T17:54:37.999Z</time></trkpt><trkpt lat="45.7146291063919" lon="12.085270677659386"><ele>61.0</ele><time>2026-03-24T17:54:38.999Z</time></trkpt><trkpt lat="45.71442827135469" lon="12.085434442618919"><ele>61.0</ele><time>2026-03-24T17:54:39.999Z</time></trkpt><trkpt lat="45.71424080571379" lon="12.085594473411476"><ele>61.0</ele><time>2026-03-24T17:54:40.999Z</time></trkpt><trkpt lat="45.7140496894664" lon="12.085765166688326"><ele>61.5</ele><time>2026-03-24T17:54:41.999Z</time></trkpt><trkpt lat="45.713849891386324" lon="12.085924216211684"><ele>62.0</ele><time>2026-03-24T17:54:42.999Z</time></trkpt><trkpt lat="45.71364662635453" lon="12.086090309842229"><ele>60.66666666666667</ele><time>2026-03-24T17:54:43.999Z</time></trkpt><trkpt lat="45.71345200765323" lon="12.086256149608293"><ele>59.33333333333333</ele><time>2026-03-24T17:54:44.999Z</time></trkpt><trkpt lat="45.71326543838328" lon="12.086417822313225"><ele>58.0</ele><time>2026-03-24T17:54:45.999Z</time></trkpt><trkpt lat="45.71309356849548" lon="12.086564128139301"><ele>58.33333333333333</ele><time>2026-03-24T17:54:46.999Z</time></trkpt><trkpt lat="45.712936174824506" lon="12.086695770885747"><ele>58.66666666666667</ele><time>2026-03-24T17:54:47.999Z</time></trkpt><trkpt lat="45.712787100211116" lon="12.0868177130214"><ele>59.0</ele><time>2026-03-24T17:54:48.999Z</time></trkpt><trkpt lat="45.7126418674288" lon="12.086937166066964"><ele>59.0</ele><time>2026-03-24T17:54:49.999Z</time></trkpt><trkpt lat="45.71251119523522" lon="12.087040673160516"><ele>59.0</ele><time>2026-03-24T17:54:50.999Z</time></trkpt><trkpt lat="45.71237669728242" lon="12.087111484010464"><ele>59.0</ele><time>2026-03-24T17:54:51.999Z</time></trkpt><trkpt lat="45.712246120726746" lon="12.08718798787948"><ele>59.0</ele><time>2026-03-24T17:54:52.999Z</time></trkpt><trkpt lat="45.71211862586787" lon="12.087259141364838"><ele>59.0</ele><time>2026-03-24T17:54:53.999Z</time></trkpt><trkpt lat="45.71199358229854" lon="12.087325826727403"><ele>59.0</ele><time>2026-03-24T17:54:54.999Z</time></trkpt><trkpt lat="45.711868170962" lon="12.087385407424595"><ele>59.0</ele><time>2026-03-24T17:54:55.999Z</time></trkpt><trkpt lat="45.71175375491529" lon="12.087435373950525"><ele>59.0</ele><time>2026-03-24T17:54:56.999Z</time></trkpt><trkpt lat="45.71164660905338" lon="12.087491367029656"><ele>58.800000000000004</ele><time>2026-03-24T17:54:57.999Z</time></trkpt><trkpt lat="45.71153965969629" lon="12.087508258779632"><ele>58.60000000000001</ele><time>2026-03-24T17:54:58.999Z</time></trkpt><trkpt lat="45.71143873720124" lon="12.087487948242993"><ele>58.4</ele><time>2026-03-24T17:54:59.999Z</time></trkpt><trkpt lat="45.71134242431331" lon="12.087440069241858"><ele>58.2</ele><time>2026-03-24T17:55:00.999Z</time></trkpt><trkpt lat="45.71125444499432" lon="12.087351082215898"><ele>58.0</ele><time>2026-03-24T17:55:01.999Z</time></trkpt><trkpt lat="45.711180637868345" lon="12.087217063317244"><ele>57.75</ele><time>2026-03-24T17:55:02.999Z</time></trkpt><trkpt lat="45.71108498397759" lon="12.087123730932783"><ele>57.5</ele><time>2026-03-24T17:55:03.999Z</time></trkpt><trkpt lat="45.71096573362051" lon="12.08709482141467"><ele>57.25</ele><time>2026-03-24T17:55:04.999Z</time></trkpt><trkpt lat="45.71085803181512" lon="12.087108597858828"><ele>57.0</ele><time>2026-03-24T17:55:05.999Z</time></trkpt><trkpt lat="45.71075724229451" lon="12.08717634453604"><ele>57.0</ele><time>2026-03-24T17:55:06.999Z</time></trkpt><trkpt lat="45.71066969947816" lon="12.087278364495377"><ele>57.0</ele><time>2026-03-24T17:55:07.999Z</time></trkpt><trkpt lat="45.71060818527801" lon="12.087419202670649"><ele>57.0</ele><time>2026-03-24T17:55:08.999Z</time></trkpt><trkpt lat="45.71057307350585" lon="12.087583023626893"><ele>57.0</ele><time>2026-03-24T17:55:09.999Z</time></trkpt><trkpt lat="45.71059755533516" lon="12.087761880981684"><ele>57.0</ele><time>2026-03-24T17:55:10.999Z</time></trkpt><trkpt lat="45.7105327580947" lon="12.08793770532538"><ele>57.0</ele><time>2026-03-24T17:55:11.999Z</time></trkpt><trkpt lat="45.710472668295765" lon="12.088087548283925"><ele>57.0</ele><time>2026-03-24T17:55:12.999Z</time></trkpt><trkpt lat="45.710347932533026" lon="12.08819680406534"><ele>57.0</ele><time>2026-03-24T17:55:13.999Z</time></trkpt><trkpt lat="45.71021198013234" lon="12.088288616389262"><ele>57.33333333333333</ele><time>2026-03-24T17:55:14.999Z</time></trkpt><trkpt lat="45.71005670354172" lon="12.088366699155578"><ele>57.666666666666664</ele><time>2026-03-24T17:55:15.999Z</time></trkpt><trkpt lat="45.70988131074301" lon="12.088461592567274"><ele>58.0</ele><time>2026-03-24T17:55:16.999Z</time></trkpt><trkpt lat="45.70969879804882" lon="12.088557153601133"><ele>58.0</ele><time>2026-03-24T17:55:17.999Z</time></trkpt><trkpt lat="45.70950234104097" lon="12.088656342705136"><ele>58.0</ele><time>2026-03-24T17:55:18.999Z</time></trkpt><trkpt lat="45.70930342083962" lon="12.08875957213106"><ele>58.0</ele><time>2026-03-24T17:55:19.999Z</time></trkpt><trkpt lat="45.709105140000325" lon="12.08886608053421"><ele>57.0</ele><time>2026-03-24T17:55:20.999Z</time></trkpt><trkpt lat="45.70890965204932" lon="12.088969801282706"><ele>56.0</ele><time>2026-03-24T17:55:21.999Z</time></trkpt><trkpt lat="45.70873156978468" lon="12.089065039152521"><ele>55.0</ele><time>2026-03-24T17:55:22.998Z</time></trkpt><trkpt lat="45.70856524382514" lon="12.089154068318983"><ele>54.0</ele><time>2026-03-24T17:55:23.998Z</time></trkpt><trkpt lat="45.708400291290964" lon="12.089242126720062"><ele>53.0</ele><time>2026-03-24T17:55:24.998Z</time></trkpt><trkpt lat="45.708241653416984" lon="12.089328954422765"><ele>52.0</ele><time>2026-03-24T17:55:25.998Z</time></trkpt><trkpt lat="45.70807835588778" lon="12.089424699531808"><ele>52.0</ele><time>2026-03-24T17:55:26.998Z</time></trkpt><trkpt lat="45.70790255901721" lon="12.089512507174453"><ele>52.0</ele><time>2026-03-24T17:55:27.998Z</time></trkpt><trkpt lat="45.707729464526246" lon="12.08960523127297"><ele>52.0</ele><time>2026-03-24T17:55:28.998Z</time></trkpt><trkpt lat="45.70755404289646" lon="12.089701331245024"><ele>52.0</ele><time>2026-03-24T17:55:29.998Z</time></trkpt><trkpt lat="45.70738051522081" lon="12.089795860325609"><ele>52.0</ele><time>2026-03-24T17:55:30.998Z</time></trkpt><trkpt lat="45.70722287813548" lon="12.089878818120889"><ele>52.0</ele><time>2026-03-24T17:55:31.998Z</time></trkpt><trkpt lat="45.707070177177386" lon="12.089955543777691"><ele>52.33333333333333</ele><time>2026-03-24T17:55:32.998Z</time></trkpt><trkpt lat="45.70692626380136" lon="12.090038675232117"><ele>52.66666666666667</ele><time>2026-03-24T17:55:33.998Z</time></trkpt><trkpt lat="45.70678100536427" lon="12.090124517719035"><ele>53.0</ele><time>2026-03-24T17:55:34.998Z</time></trkpt><trkpt lat="45.706642422902284" lon="12.090221751295699"><ele>53.5</ele><time>2026-03-24T17:55:35.998Z</time></trkpt><trkpt lat="45.70651280504775" lon="12.090316473770743"><ele>54.0</ele><time>2026-03-24T17:55:36.998Z</time></trkpt><trkpt lat="45.7063946340618" lon="12.090401164877782"><ele>54.5</ele><time>2026-03-24T17:55:37.998Z</time></trkpt><trkpt lat="45.70628332087094" lon="12.090475322063249"><ele>55.0</ele><time>2026-03-24T17:55:38.998Z</time></trkpt><trkpt lat="45.70617544001562" lon="12.09055164910356"><ele>55.0</ele><time>2026-03-24T17:55:39.998Z</time></trkpt><trkpt lat="45.70607051853889" lon="12.090628762744185"><ele>55.0</ele><time>2026-03-24T17:55:40.998Z</time></trkpt><trkpt lat="45.70596451067929" lon="12.09072453767516"><ele>55.0</ele><time>2026-03-24T17:55:41.998Z</time></trkpt><trkpt lat="45.7058373999225" lon="12.0907966976729"><ele>55.0</ele><time>2026-03-24T17:55:42.998Z</time></trkpt><trkpt lat="45.70571869712518" lon="12.090879924285941"><ele>55.0</ele><time>2026-03-24T17:55:43.998Z</time></trkpt><trkpt lat="45.70560157919414" lon="12.090965228729315"><ele>55.0</ele><time>2026-03-24T17:55:44.998Z</time></trkpt><trkpt lat="45.705481438835456" lon="12.091051238857823"><ele>55.0</ele><time>2026-03-24T17:55:45.998Z</time></trkpt><trkpt lat="45.70535881046847" lon="12.091150181264522"><ele>55.0</ele><time>2026-03-24T17:55:46.998Z</time></trkpt><trkpt lat="45.705234022410544" lon="12.09123843092526"><ele>54.75</ele><time>2026-03-24T17:55:47.998Z</time></trkpt><trkpt lat="45.70512230428131" lon="12.091330916325285"><ele>54.5</ele><time>2026-03-24T17:55:48.998Z</time></trkpt><trkpt lat="45.705012879332855" lon="12.091420100530753"><ele>54.25</ele><time>2026-03-24T17:55:50Z</time></trkpt><trkpt lat="45.70490501759309" lon="12.091541671630559"><ele>54.0</ele><time>2026-03-24T17:55:51Z</time></trkpt><trkpt lat="45.704788813887" lon="12.091667122807072"><ele>54.0</ele><time>2026-03-24T17:55:52Z</time></trkpt><trkpt lat="45.70468007588303" lon="12.091801205322916"><ele>54.0</ele><time>2026-03-24T17:55:53Z</time></trkpt><trkpt lat="45.704560184447146" lon="12.091927644028155"><ele>54.0</ele><time>2026-03-24T17:55:54Z</time></trkpt><trkpt lat="45.704443132085046" lon="12.092058542738313"><ele>54.0</ele><time>2026-03-24T17:55:55Z</time></trkpt><trkpt lat="45.70431162626895" lon="12.092185226133331"><ele>54.0</ele><time>2026-03-24T17:55:56Z</time></trkpt><trkpt lat="45.70417860591804" lon="12.09233345151518"><ele>54.0</ele><time>2026-03-24T17:55:57Z</time></trkpt><trkpt lat="45.7040420969525" lon="12.092485475561961"><ele>54.0</ele><time>2026-03-24T17:55:58Z</time></trkpt><trkpt lat="45.703917354418486" lon="12.092650958688303"><ele>54.0</ele><time>2026-03-24T17:55:59Z</time></trkpt><trkpt lat="45.703785956352704" lon="12.0927867012342"><ele>54.0</ele><time>2026-03-24T17:56:00Z</time></trkpt><trkpt lat="45.70364622699384" lon="12.09291663454818"><ele>54.0</ele><time>2026-03-24T17:56:01Z</time></trkpt><trkpt lat="45.703498634240745" lon="12.09302606910756"><ele>53.66666666666667</ele><time>2026-03-24T17:56:02Z</time></trkpt><trkpt lat="45.703371989255416" lon="12.093160336990886"><ele>53.333333333333336</ele><time>2026-03-24T17:56:03Z</time></trkpt><trkpt lat="45.703244843685866" lon="12.093266818401206"><ele>53.0</ele><time>2026-03-24T17:56:04Z</time></trkpt><trkpt lat="45.70312359939404" lon="12.093380596788835"><ele>53.0</ele><time>2026-03-24T17:56:05Z</time></trkpt><trkpt lat="45.703006401700065" lon="12.093477489711987"><ele>53.0</ele><time>2026-03-24T17:56:06Z</time></trkpt><trkpt lat="45.70289358923978" lon="12.093558776575865"><ele>53.0</ele><time>2026-03-24T17:56:07Z</time></trkpt><trkpt lat="45.70279563597099" lon="12.093637959649852"><ele>53.0</ele><time>2026-03-24T17:56:08Z</time></trkpt><trkpt lat="45.7026853927898" lon="12.093731390413842"><ele>52.75</ele><time>2026-03-24T17:56:09Z</time></trkpt><trkpt lat="45.70257087640958" lon="12.093821125437222"><ele>52.5</ele><time>2026-03-24T17:56:10Z</time></trkpt><trkpt lat="45.702455815131614" lon="12.093907644930049"><ele>52.25</ele><time>2026-03-24T17:56:11Z</time></trkpt><trkpt lat="45.702340193423154" lon="12.093986865032871"><ele>52.0</ele><time>2026-03-24T17:56:12Z</time></trkpt><trkpt lat="45.70222663275613" lon="12.094051282716928"><ele>52.2</ele><time>2026-03-24T17:56:13Z</time></trkpt><trkpt lat="45.702120550197485" lon="12.09410548633889"><ele>52.400000000000006</ele><time>2026-03-24T17:56:14Z</time></trkpt><trkpt lat="45.70200621514105" lon="12.094155008524782"><ele>52.599999999999994</ele><time>2026-03-24T17:56:15Z</time></trkpt><trkpt lat="45.70189882040077" lon="12.09419090626428"><ele>52.8</ele><time>2026-03-24T17:56:16Z</time></trkpt><trkpt lat="45.701795385266806" lon="12.094212994002064"><ele>53.0</ele><time>2026-03-24T17:56:17Z</time></trkpt><trkpt lat="45.701676188532424" lon="12.094224155065557"><ele>53.0</ele><time>2026-03-24T17:56:18Z</time></trkpt><trkpt lat="45.70153969589482" lon="12.094242474621108"><ele>53.0</ele><time>2026-03-24T17:56:19Z</time></trkpt><trkpt lat="45.70139137618597" lon="12.09426975106945"><ele>53.0</ele><time>2026-03-24T17:56:20Z</time></trkpt><trkpt lat="45.70121691793853" lon="12.094280455831843"><ele>52.333333333333336</ele><time>2026-03-24T17:56:21Z</time></trkpt><trkpt lat="45.701041158395896" lon="12.0943136714619"><ele>51.66666666666667</ele><time>2026-03-24T17:56:22Z</time></trkpt><trkpt lat="45.700857382887875" lon="12.094351038199914"><ele>51.0</ele><time>2026-03-24T17:56:23Z</time></trkpt><trkpt lat="45.70067129586334" lon="12.094404089653539"><ele>51.0</ele><time>2026-03-24T17:56:24Z</time></trkpt><trkpt lat="45.70048090832934" lon="12.094480319359949"><ele>51.0</ele><time>2026-03-24T17:56:25Z</time></trkpt><trkpt lat="45.700288373020264" lon="12.094592971718946"><ele>51.0</ele><time>2026-03-24T17:56:26Z</time></trkpt><trkpt lat="45.700092602593365" lon="12.094733831426431"><ele>50.66666666666667</ele><time>2026-03-24T17:56:27Z</time></trkpt><trkpt lat="45.699901327667384" lon="12.094888203175211"><ele>50.333333333333336</ele><time>2026-03-24T17:56:28Z</time></trkpt><trkpt lat="45.69969579993879" lon="12.095032711423677"><ele>50.0</ele><time>2026-03-24T17:56:29Z</time></trkpt><trkpt lat="45.69948604762535" lon="12.09518101604747"><ele>50.0</ele><time>2026-03-24T17:56:30Z</time></trkpt><trkpt lat="45.69928084926982" lon="12.095329904995227"><ele>50.0</ele><time>2026-03-24T17:56:31Z</time></trkpt><trkpt lat="45.69907757676723" lon="12.095472719351353"><ele>50.0</ele><time>2026-03-24T17:56:31.999Z</time></trkpt><trkpt lat="45.698876001050245" lon="12.09559811240931"><ele>50.0</ele><time>2026-03-24T17:56:32.999Z</time></trkpt><trkpt lat="45.69869040123813" lon="12.095749942659598"><ele>50.0</ele><time>2026-03-24T17:56:33.999Z</time></trkpt><trkpt lat="45.69849904207639" lon="12.095890941675208"><ele>49.333333333333336</ele><time>2026-03-24T17:56:34.999Z</time></trkpt><trkpt lat="45.698309965594945" lon="12.096022681700244"><ele>48.66666666666667</ele><time>2026-03-24T17:56:35.999Z</time></trkpt><trkpt lat="45.698118358633856" lon="12.096159426743638"><ele>48.0</ele><time>2026-03-24T17:56:36.999Z</time></trkpt><trkpt lat="45.697933440889315" lon="12.09629039593991"><ele>48.0</ele><time>2026-03-24T17:56:37.999Z</time></trkpt><trkpt lat="45.69775047217223" lon="12.096416310112724"><ele>48.0</ele><time>2026-03-24T17:56:38.999Z</time></trkpt><trkpt lat="45.69756787718533" lon="12.096543224248617"><ele>48.0</ele><time>2026-03-24T17:56:39.999Z</time></trkpt><trkpt lat="45.69738706422557" lon="12.096669272346231"><ele>47.666666666666664</ele><time>2026-03-24T17:56:40.999Z</time></trkpt><trkpt lat="45.69720676758614" lon="12.096803288711378"><ele>47.33333333333333</ele><time>2026-03-24T17:56:41.999Z</time></trkpt><trkpt lat="45.697026542544194" lon="12.096931288869094"><ele>47.0</ele><time>2026-03-24T17:56:42.999Z</time></trkpt><trkpt lat="45.69685021204332" lon="12.097066084356754"><ele>46.666666666666664</ele><time>2026-03-24T17:56:43.999Z</time></trkpt><trkpt lat="45.696684003310104" lon="12.09721835556504"><ele>46.333333333333336</ele><time>2026-03-24T17:56:44.999Z</time></trkpt><trkpt lat="45.696526251126" lon="12.097390571101736"><ele>46.0</ele><time>2026-03-24T17:56:45.999Z</time></trkpt><trkpt lat="45.6963753794713" lon="12.097597159355022"><ele>46.0</ele><time>2026-03-24T17:56:46.999Z</time></trkpt><trkpt lat="45.6962379729478" lon="12.097829677037254"><ele>46.0</ele><time>2026-03-24T17:56:47.999Z</time></trkpt><trkpt lat="45.69611076301147" lon="12.098077560888623"><ele>46.0</ele><time>2026-03-24T17:56:48.999Z</time></trkpt><trkpt lat="45.695995709274534" lon="12.09834223092677"><ele>46.0</ele><time>2026-03-24T17:56:49.999Z</time></trkpt><trkpt lat="45.69587456838341" lon="12.098599639605979"><ele>46.0</ele><time>2026-03-24T17:56:50.999Z</time></trkpt><trkpt lat="45.69575286378749" lon="12.098869613499152"><ele>46.0</ele><time>2026-03-24T17:56:51.999Z</time></trkpt><trkpt lat="45.69563343705517" lon="12.099133482351235"><ele>46.333333333333336</ele><time>2026-03-24T17:56:52.999Z</time></trkpt><trkpt lat="45.69552819681854" lon="12.099376078275471"><ele>46.666666666666664</ele><time>2026-03-24T17:56:53.999Z</time></trkpt><trkpt lat="45.695429232287935" lon="12.099610912158965"><ele>47.0</ele><time>2026-03-24T17:56:54.999Z</time></trkpt><trkpt lat="45.69533406390556" lon="12.099816744758865"><ele>47.0</ele><time>2026-03-24T17:56:55.999Z</time></trkpt><trkpt lat="45.695235734461946" lon="12.10002411458173"><ele>47.0</ele><time>2026-03-24T17:56:56.999Z</time></trkpt><trkpt lat="45.6951416552532" lon="12.100237323435264"><ele>47.0</ele><time>2026-03-24T17:56:57.999Z</time></trkpt><trkpt lat="45.69504770356485" lon="12.100439737609777"><ele>47.0</ele><time>2026-03-24T17:56:58.999Z</time></trkpt><trkpt lat="45.69496270124603" lon="12.100643190531063"><ele>47.0</ele><time>2026-03-24T17:56:59.999Z</time></trkpt><trkpt lat="45.6948716925542" lon="12.100842279501283"><ele>47.0</ele><time>2026-03-24T17:57:00.999Z</time></trkpt><trkpt lat="45.694779165539565" lon="12.101040971258577"><ele>47.0</ele><time>2026-03-24T17:57:01.999Z</time></trkpt><trkpt lat="45.69468793023166" lon="12.10122813562532"><ele>47.0</ele><time>2026-03-24T17:57:02.999Z</time></trkpt><trkpt lat="45.694603248942364" lon="12.10143503941946"><ele>47.0</ele><time>2026-03-24T17:57:03.999Z</time></trkpt><trkpt lat="45.69450998229809" lon="12.10163996173201"><ele>46.33333333333333</ele><time>2026-03-24T17:57:04.999Z</time></trkpt><trkpt lat="45.694416672605776" lon="12.101836926356137"><ele>45.666666666666664</ele><time>2026-03-24T17:57:05.999Z</time></trkpt><trkpt lat="45.69432883499609" lon="12.10204501783601"><ele>45.0</ele><time>2026-03-24T17:57:06.999Z</time></trkpt><trkpt lat="45.69422827787568" lon="12.102224927308956"><ele>45.333333333333336</ele><time>2026-03-24T17:57:07.999Z</time></trkpt><trkpt lat="45.69413618114778" lon="12.102424179543673"><ele>45.66666666666667</ele><time>2026-03-24T17:57:08.999Z</time></trkpt><trkpt lat="45.69404392773871" lon="12.102628103520566"><ele>46.0</ele><time>2026-03-24T17:57:09.999Z</time></trkpt><trkpt lat="45.69395874112963" lon="12.102831281468331"><ele>46.0</ele><time>2026-03-24T17:57:10.999Z</time></trkpt><trkpt lat="45.69386800089306" lon="12.103033577933308"><ele>46.0</ele><time>2026-03-24T17:57:11.999Z</time></trkpt><trkpt lat="45.69378624623426" lon="12.103232779763294"><ele>46.0</ele><time>2026-03-24T17:57:12.999Z</time></trkpt><trkpt lat="45.69369337444312" lon="12.103437330136398"><ele>45.66666666666667</ele><time>2026-03-24T17:57:13.999Z</time></trkpt><trkpt lat="45.69360675297633" lon="12.103635110933002"><ele>45.333333333333336</ele><time>2026-03-24T17:57:14.999Z</time></trkpt><trkpt lat="45.6935170985057" lon="12.103816531097975"><ele>45.0</ele><time>2026-03-24T17:57:15.999Z</time></trkpt><trkpt lat="45.69342981909302" lon="12.10399911936679"><ele>44.666666666666664</ele><time>2026-03-24T17:57:16.999Z</time></trkpt><trkpt lat="45.69334685596838" lon="12.104221356186036"><ele>44.33333333333333</ele><time>2026-03-24T17:57:17.999Z</time></trkpt><trkpt lat="45.69325535015286" lon="12.104422990469326"><ele>44.0</ele><time>2026-03-24T17:57:18.999Z</time></trkpt><trkpt lat="45.693158099652614" lon="12.104625132890314"><ele>44.0</ele><time>2026-03-24T17:57:19.999Z</time></trkpt><trkpt lat="45.693064900490356" lon="12.104824163218938"><ele>44.0</ele><time>2026-03-24T17:57:20.999Z</time></trkpt><trkpt lat="45.69297596460621" lon="12.10502147878888"><ele>44.0</ele><time>2026-03-24T17:57:21.999Z</time></trkpt><trkpt lat="45.69287665470779" lon="12.105211974245089"><ele>44.0</ele><time>2026-03-24T17:57:22.999Z</time></trkpt><trkpt lat="45.69278804877238" lon="12.105418751634609"><ele>44.0</ele><time>2026-03-24T17:57:23.999Z</time></trkpt><trkpt lat="45.69270503650437" lon="12.105621387925076"><ele>44.0</ele><time>2026-03-24T17:57:24.999Z</time></trkpt><trkpt lat="45.692616311652934" lon="12.105819621086546"><ele>44.0</ele><time>2026-03-24T17:57:25.999Z</time></trkpt><trkpt lat="45.69252782644651" lon="12.10601814622138"><ele>44.0</ele><time>2026-03-24T17:57:26.998Z</time></trkpt><trkpt lat="45.69243272027768" lon="12.106218947536185"><ele>44.0</ele><time>2026-03-24T17:57:27.998Z</time></trkpt><trkpt lat="45.69234369663718" lon="12.106420259475378"><ele>43.33333333333333</ele><time>2026-03-24T17:57:28.998Z</time></trkpt><trkpt lat="45.692254137265216" lon="12.106620808508744"><ele>42.666666666666664</ele><time>2026-03-24T17:57:29.998Z</time></trkpt><trkpt lat="45.69216680578647" lon="12.106818779685431"><ele>42.0</ele><time>2026-03-24T17:57:30.998Z</time></trkpt><trkpt lat="45.69207461381134" lon="12.107016619141234"><ele>42.0</ele><time>2026-03-24T17:57:31.998Z</time></trkpt><trkpt lat="45.691989801885526" lon="12.107198197109742"><ele>42.0</ele><time>2026-03-24T17:57:32.998Z</time></trkpt><trkpt lat="45.691916124718944" lon="12.107360714428149"><ele>42.0</ele><time>2026-03-24T17:57:33.998Z</time></trkpt><trkpt lat="45.6918480023865" lon="12.10751555967709"><ele>42.0</ele><time>2026-03-24T17:57:34.998Z</time></trkpt><trkpt lat="45.691771088329666" lon="12.10767105608756"><ele>43.0</ele><time>2026-03-24T17:57:35.998Z</time></trkpt><trkpt lat="45.691675262148834" lon="12.10785638221745"><ele>44.0</ele><time>2026-03-24T17:57:36.998Z</time></trkpt><trkpt lat="45.69157013320847" lon="12.10801158202271"><ele>45.0</ele><time>2026-03-24T17:57:37.998Z</time></trkpt><trkpt lat="45.691448914253" lon="12.108156884632326"><ele>45.0</ele><time>2026-03-24T17:57:38.998Z</time></trkpt><trkpt lat="45.6913124378746" lon="12.108292362094954"><ele>45.0</ele><time>2026-03-24T17:57:39.998Z</time></trkpt><trkpt lat="45.691152356152216" lon="12.108396666685444"><ele>45.0</ele><time>2026-03-24T17:57:40.998Z</time></trkpt><trkpt lat="45.690983160055374" lon="12.108473811707995"><ele>44.666666666666664</ele><time>2026-03-24T17:57:41.998Z</time></trkpt><trkpt lat="45.690803327406364" lon="12.108521386203215"><ele>44.33333333333333</ele><time>2026-03-24T17:57:42.998Z</time></trkpt><trkpt lat="45.690612693443846" lon="12.108552352547818"><ele>44.0</ele><time>2026-03-24T17:57:43.998Z</time></trkpt><trkpt lat="45.690414500108915" lon="12.108585276463396"><ele>43.0</ele><time>2026-03-24T17:57:44.998Z</time></trkpt><trkpt lat="45.69021160808789" lon="12.108620594196774"><ele>42.0</ele><time>2026-03-24T17:57:45.998Z</time></trkpt><trkpt lat="45.69001453800285" lon="12.108654793068016"><ele>41.0</ele><time>2026-03-24T17:57:46.998Z</time></trkpt><trkpt lat="45.68983581951339" lon="12.108688120914714"><ele>41.0</ele><time>2026-03-24T17:57:47.998Z</time></trkpt><trkpt lat="45.68965431534964" lon="12.108726337799046"><ele>41.0</ele><time>2026-03-24T17:57:48.998Z</time></trkpt><trkpt lat="45.68947268573566" lon="12.108764370206742"><ele>41.0</ele><time>2026-03-24T17:57:49.998Z</time></trkpt><trkpt lat="45.689300214003396" lon="12.108797907030521"><ele>41.0</ele><time>2026-03-24T17:57:50.998Z</time></trkpt><trkpt lat="45.68912892979957" lon="12.108829607679763"><ele>41.0</ele><time>2026-03-24T17:57:51.998Z</time></trkpt><trkpt lat="45.68896121188263" lon="12.10886185767136"><ele>41.0</ele><time>2026-03-24T17:57:52.998Z</time></trkpt><trkpt lat="45.68879635784442" lon="12.108894440935995"><ele>41.0</ele><time>2026-03-24T17:57:53.998Z</time></trkpt><trkpt lat="45.68862933486315" lon="12.108928714712693"><ele>41.0</ele><time>2026-03-24T17:57:54.998Z</time></trkpt><trkpt lat="45.688459614139454" lon="12.10896774928324"><ele>41.0</ele><time>2026-03-24T17:57:56Z</time></trkpt><trkpt lat="45.68829489064209" lon="12.109001422796277"><ele>41.0</ele><time>2026-03-24T17:57:57Z</time></trkpt><trkpt lat="45.688128625300855" lon="12.109035057093111"><ele>41.0</ele><time>2026-03-24T17:57:58Z</time></trkpt><trkpt lat="45.68795631788085" lon="12.109058702640404"><ele>41.0</ele><time>2026-03-24T17:57:59Z</time></trkpt><trkpt lat="45.68778132479068" lon="12.109092634442195"><ele>40.666666666666664</ele><time>2026-03-24T17:58:00Z</time></trkpt><trkpt lat="45.68760816660038" lon="12.109124393183814"><ele>40.333333333333336</ele><time>2026-03-24T17:58:01Z</time></trkpt><trkpt lat="45.68743532231127" lon="12.109153216628222"><ele>40.0</ele><time>2026-03-24T17:58:02Z</time></trkpt><trkpt lat="45.687266817862074" lon="12.109193260895152"><ele>40.0</ele><time>2026-03-24T17:58:03Z</time></trkpt><trkpt lat="45.68709806887433" lon="12.109233418533217"><ele>40.0</ele><time>2026-03-24T17:58:04Z</time></trkpt><trkpt lat="45.68692904453073" lon="12.109268644368036"><ele>40.0</ele><time>2026-03-24T17:58:05Z</time></trkpt><trkpt lat="45.68676043101067" lon="12.109304687593294"><ele>39.0</ele><time>2026-03-24T17:58:06Z</time></trkpt><trkpt lat="45.68659272588501" lon="12.109336882601822"><ele>38.0</ele><time>2026-03-24T17:58:07Z</time></trkpt><trkpt lat="45.68641975780052" lon="12.109376434875658"><ele>37.0</ele><time>2026-03-24T17:58:08Z</time></trkpt><trkpt lat="45.686248973192136" lon="12.109409702306449"><ele>37.0</ele><time>2026-03-24T17:58:09Z</time></trkpt><trkpt lat="45.68607913012024" lon="12.109441870990835"><ele>37.0</ele><time>2026-03-24T17:58:10Z</time></trkpt><trkpt lat="45.68591462859883" lon="12.109473964219157"><ele>37.0</ele><time>2026-03-24T17:58:11Z</time></trkpt><trkpt lat="45.68574101155531" lon="12.109514473131062"><ele>37.0</ele><time>2026-03-24T17:58:12Z</time></trkpt><trkpt lat="45.685571972735666" lon="12.109547674406937"><ele>37.0</ele><time>2026-03-24T17:58:13Z</time></trkpt><trkpt lat="45.685400823762734" lon="12.109585502121686"><ele>37.0</ele><time>2026-03-24T17:58:14Z</time></trkpt><trkpt lat="45.68522928828472" lon="12.109603625123835"><ele>38.0</ele><time>2026-03-24T17:58:15Z</time></trkpt><trkpt lat="45.68505771447869" lon="12.10961138267167"><ele>39.0</ele><time>2026-03-24T17:58:16Z</time></trkpt><trkpt lat="45.68489081501592" lon="12.109558402329181"><ele>40.0</ele><time>2026-03-24T17:58:17Z</time></trkpt><trkpt lat="45.68472579579866" lon="12.109513107849063"><ele>40.0</ele><time>2026-03-24T17:58:18Z</time></trkpt><trkpt lat="45.684564492680025" lon="12.109440246463839"><ele>40.0</ele><time>2026-03-24T17:58:19Z</time></trkpt><trkpt lat="45.684405587829445" lon="12.109352974354664"><ele>40.0</ele><time>2026-03-24T17:58:20Z</time></trkpt><trkpt lat="45.684255443853836" lon="12.109240810831214"><ele>39.333333333333336</ele><time>2026-03-24T17:58:21Z</time></trkpt><trkpt lat="45.68411441255226" lon="12.109107256404485"><ele>38.666666666666664</ele><time>2026-03-24T17:58:22Z</time></trkpt><trkpt lat="45.68399515992566" lon="12.10896624619659"><ele>38.0</ele><time>2026-03-24T17:58:23Z</time></trkpt><trkpt lat="45.683865063190744" lon="12.1087837525906"><ele>38.0</ele><time>2026-03-24T17:58:24Z</time></trkpt><trkpt lat="45.68375774689529" lon="12.108595392349804"><ele>38.0</ele><time>2026-03-24T17:58:25Z</time></trkpt><trkpt lat="45.683662943720805" lon="12.10839107013852"><ele>38.0</ele><time>2026-03-24T17:58:26Z</time></trkpt><trkpt lat="45.68357161502521" lon="12.108183048613467"><ele>38.0</ele><time>2026-03-24T17:58:27Z</time></trkpt><trkpt lat="45.683482389624224" lon="12.107976758678682"><ele>38.0</ele><time>2026-03-24T17:58:28Z</time></trkpt><trkpt lat="45.683377947573085" lon="12.107777773030232"><ele>38.0</ele><time>2026-03-24T17:58:29Z</time></trkpt><trkpt lat="45.68330074523169" lon="12.107556568135896"><ele>38.33333333333333</ele><time>2026-03-24T17:58:30Z</time></trkpt><trkpt lat="45.68321131325978" lon="12.107349688826536"><ele>38.666666666666664</ele><time>2026-03-24T17:58:31Z</time></trkpt><trkpt lat="45.68312194521292" lon="12.107143735675807"><ele>39.0</ele><time>2026-03-24T17:58:32Z</time></trkpt><trkpt lat="45.68302960593846" lon="12.106931562420847"><ele>39.0</ele><time>2026-03-24T17:58:33Z</time></trkpt><trkpt lat="45.682941147569686" lon="12.10672826032802"><ele>39.0</ele><time>2026-03-24T17:58:34Z</time></trkpt><trkpt lat="45.68285087334199" lon="12.106520782171476"><ele>39.0</ele><time>2026-03-24T17:58:35Z</time></trkpt><trkpt lat="45.682768574525745" lon="12.106331634107384"><ele>38.0</ele><time>2026-03-24T17:58:36Z</time></trkpt><trkpt lat="45.682684643929406" lon="12.106138783319476"><ele>37.0</ele><time>2026-03-24T17:58:37Z</time></trkpt><trkpt lat="45.68259451617023" lon="12.105931753797753"><ele>36.0</ele><time>2026-03-24T17:58:37.999Z</time></trkpt><trkpt lat="45.682501607298484" lon="12.10571833674913"><ele>36.0</ele><time>2026-03-24T17:58:38.999Z</time></trkpt><trkpt lat="45.68240687726579" lon="12.105500735326546"><ele>36.0</ele><time>2026-03-24T17:58:39.999Z</time></trkpt><trkpt lat="45.682312189210045" lon="12.1052832303985"><ele>36.0</ele><time>2026-03-24T17:58:40.999Z</time></trkpt><trkpt lat="45.682221369938716" lon="12.105074612201628"><ele>36.333333333333336</ele><time>2026-03-24T17:58:41.999Z</time></trkpt><trkpt lat="45.68213564567993" lon="12.10487769795456"><ele>36.66666666666667</ele><time>2026-03-24T17:58:42.999Z</time></trkpt><trkpt lat="45.68205493711124" lon="12.1046923043025"><ele>37.0</ele><time>2026-03-24T17:58:43.999Z</time></trkpt><trkpt lat="45.68196810492593" lon="12.10449577605933"><ele>37.333333333333336</ele><time>2026-03-24T17:58:44.999Z</time></trkpt><trkpt lat="45.68188479874223" lon="12.104306886691614"><ele>37.666666666666664</ele><time>2026-03-24T17:58:45.999Z</time></trkpt><trkpt lat="45.68180550710794" lon="12.10412254291873"><ele>38.0</ele><time>2026-03-24T17:58:46.999Z</time></trkpt><trkpt lat="45.6817270434602" lon="12.103940124075347"><ele>38.0</ele><time>2026-03-24T17:58:47.999Z</time></trkpt><trkpt lat="45.681650108653464" lon="12.103760866219517"><ele>38.0</ele><time>2026-03-24T17:58:48.999Z</time></trkpt><trkpt lat="45.68157906239919" lon="12.103598366048283"><ele>38.0</ele><time>2026-03-24T17:58:49.999Z</time></trkpt><trkpt lat="45.6815087600301" lon="12.10343531026196"><ele>38.0</ele><time>2026-03-24T17:58:50.999Z</time></trkpt><trkpt lat="45.68144366395282" lon="12.103284014715442"><ele>37.75</ele><time>2026-03-24T17:58:51.999Z</time></trkpt><trkpt lat="45.68137386720328" lon="12.103121794087096"><ele>37.5</ele><time>2026-03-24T17:58:52.999Z</time></trkpt><trkpt lat="45.68130008031797" lon="12.102951489880056"><ele>37.25</ele><time>2026-03-24T17:58:53.999Z</time></trkpt><trkpt lat="45.68122383807657" lon="12.1027724994294"><ele>37.0</ele><time>2026-03-24T17:58:54.999Z</time></trkpt><trkpt lat="45.68114842808549" lon="12.102595117108915"><ele>37.0</ele><time>2026-03-24T17:58:55.999Z</time></trkpt><trkpt lat="45.6810667872866" lon="12.10242889857376"><ele>37.0</ele><time>2026-03-24T17:58:56.999Z</time></trkpt><trkpt lat="45.680982057272644" lon="12.10224808328858"><ele>37.0</ele><time>2026-03-24T17:58:57.999Z</time></trkpt><trkpt lat="45.68090785640497" lon="12.102048054499981"><ele>37.333333333333336</ele><time>2026-03-24T17:58:58.999Z</time></trkpt><trkpt lat="45.6808128666387" lon="12.101864352689786"><ele>37.666666666666664</ele><time>2026-03-24T17:58:59.999Z</time></trkpt><trkpt lat="45.68070745300692" lon="12.101703638445835"><ele>38.0</ele><time>2026-03-24T17:59:00.999Z</time></trkpt><trkpt lat="45.680587351185146" lon="12.101554492872422"><ele>37.666666666666664</ele><time>2026-03-24T17:59:01.999Z</time></trkpt><trkpt lat="45.68045975678986" lon="12.101427543090804"><ele>37.333333333333336</ele><time>2026-03-24T17:59:02.999Z</time></trkpt><trkpt lat="45.68032690652993" lon="12.10131050519139"><ele>37.0</ele><time>2026-03-24T17:59:03.999Z</time></trkpt><trkpt lat="45.68019661972998" lon="12.101201283189338"><ele>37.0</ele><time>2026-03-24T17:59:04.999Z</time></trkpt><trkpt lat="45.680064472102266" lon="12.101088899563006"><ele>37.0</ele><time>2026-03-24T17:59:05.999Z</time></trkpt><trkpt lat="45.67993972701396" lon="12.10098188511735"><ele>37.0</ele><time>2026-03-24T17:59:06.999Z</time></trkpt><trkpt lat="45.67981856168195" lon="12.100882477953856"><ele>37.0</ele><time>2026-03-24T17:59:07.999Z</time></trkpt><trkpt lat="45.67970974031971" lon="12.100793596890187"><ele>37.0</ele><time>2026-03-24T17:59:08.999Z</time></trkpt><trkpt lat="45.67960136569372" lon="12.100705080808398"><ele>37.0</ele><time>2026-03-24T17:59:09.999Z</time></trkpt><trkpt lat="45.679494958334736" lon="12.10061817027064"><ele>37.0</ele><time>2026-03-24T17:59:10.999Z</time></trkpt><trkpt lat="45.679384065442946" lon="12.100525461356645"><ele>37.0</ele><time>2026-03-24T17:59:11.999Z</time></trkpt><trkpt lat="45.679265200632855" lon="12.100449342703406"><ele>37.0</ele><time>2026-03-24T17:59:12.999Z</time></trkpt><trkpt lat="45.67916820205496" lon="12.10033711628192"><ele>37.0</ele><time>2026-03-24T17:59:13.999Z</time></trkpt><trkpt lat="45.679068956629116" lon="12.100248817533414"><ele>37.0</ele><time>2026-03-24T17:59:14.999Z</time></trkpt><trkpt lat="45.67898390574951" lon="12.10015958172337"><ele>37.0</ele><time>2026-03-24T17:59:15.999Z</time></trkpt><trkpt lat="45.67890096928974" lon="12.100074528394671"><ele>37.0</ele><time>2026-03-24T17:59:16.999Z</time></trkpt><trkpt lat="45.67883042743518" lon="12.099991466398235"><ele>37.0</ele><time>2026-03-24T17:59:17.999Z</time></trkpt><trkpt lat="45.678761512580124" lon="12.09991840876098"><ele>37.0</ele><time>2026-03-24T17:59:18.999Z</time></trkpt><trkpt lat="45.67870829907242" lon="12.099860856009602"><ele>37.0</ele><time>2026-03-24T17:59:19.999Z</time></trkpt><trkpt lat="45.678662373120225" lon="12.09975886204272"><ele>37.0</ele><time>2026-03-24T18:00:38Z</time></trkpt><trkpt lat="45.678620145879364" lon="12.099673843628196"><ele>37.0</ele><time>2026-03-24T18:00:40Z</time></trkpt><trkpt lat="45.67857395474254" lon="12.099554335655386"><ele>37.0</ele><time>2026-03-24T18:00:41.999Z</time></trkpt><trkpt lat="45.67852637275083" lon="12.099417564261163"><ele>36.75</ele><time>2026-03-24T18:00:43.999Z</time></trkpt><trkpt lat="45.67837547459174" lon="12.09946337580881"><ele>36.5</ele><time>2026-03-24T18:00:44.999Z</time></trkpt><trkpt lat="45.67826921421534" lon="12.099412475012238"><ele>36.25</ele><time>2026-03-24T18:00:46.999Z</time></trkpt><trkpt lat="45.678198626581306" lon="12.09931576924816"><ele>36.0</ele><time>2026-03-24T18:00:48.999Z</time></trkpt><trkpt lat="45.678096236201704" lon="12.09927609289092"><ele>36.0</ele><time>2026-03-24T18:00:50.999Z</time></trkpt><trkpt lat="45.677998777541134" lon="12.09917399175726"><ele>36.0</ele><time>2026-03-24T18:00:52.999Z</time></trkpt><trkpt lat="45.677939761320886" lon="12.099105568780885"><ele>36.0</ele><time>2026-03-24T18:00:53.999Z</time></trkpt><trkpt lat="45.67787727681975" lon="12.099036153304784"><ele>36.0</ele><time>2026-03-24T18:00:54.999Z</time></trkpt><trkpt lat="45.67781267274161" lon="12.098960359469572"><ele>36.0</ele><time>2026-03-24T18:00:55.999Z</time></trkpt><trkpt lat="45.677745514587095" lon="12.098881276176865"><ele>36.0</ele><time>2026-03-24T18:00:56.999Z</time></trkpt><trkpt lat="45.677666790559115" lon="12.098804440507083"><ele>36.0</ele><time>2026-03-24T18:00:57.999Z</time></trkpt><trkpt lat="45.67757098024352" lon="12.09872902339683"><ele>36.0</ele><time>2026-03-24T18:00:58.999Z</time></trkpt><trkpt lat="45.67745310987044" lon="12.098628078677438"><ele>36.0</ele><time>2026-03-24T18:00:59.999Z</time></trkpt><trkpt lat="45.677346185837926" lon="12.098451033808768"><ele>36.0</ele><time>2026-03-24T18:01:00.999Z</time></trkpt><trkpt lat="45.67719753896789" lon="12.09840769142301"><ele>36.0</ele><time>2026-03-24T18:01:01.999Z</time></trkpt><trkpt lat="45.67707761168932" lon="12.098317191185789"><ele>36.0</ele><time>2026-03-24T18:01:02.999Z</time></trkpt><trkpt lat="45.67696169355377" lon="12.098234645942252"><ele>36.0</ele><time>2026-03-24T18:01:03.999Z</time></trkpt><trkpt lat="45.676852518252176" lon="12.098148391984786"><ele>36.0</ele><time>2026-03-24T18:01:04.999Z</time></trkpt><trkpt lat="45.67675042260356" lon="12.098057159695582"><ele>35.75</ele><time>2026-03-24T18:01:05.999Z</time></trkpt><trkpt lat="45.67665234956376" lon="12.097969147971737"><ele>35.5</ele><time>2026-03-24T18:01:06.999Z</time></trkpt><trkpt lat="45.67655362773902" lon="12.097885571977471"><ele>35.25</ele><time>2026-03-24T18:01:07.999Z</time></trkpt><trkpt lat="45.67644003939483" lon="12.097791524072916"><ele>35.0</ele><time>2026-03-24T18:01:08.999Z</time></trkpt><trkpt lat="45.6763070311267" lon="12.097683491183929"><ele>35.0</ele><time>2026-03-24T18:01:09.999Z</time></trkpt><trkpt lat="45.67617777686894" lon="12.097518512787794"><ele>35.0</ele><time>2026-03-24T18:01:10.999Z</time></trkpt><trkpt lat="45.675988581327516" lon="12.097354193090599"><ele>35.0</ele><time>2026-03-24T18:01:11.999Z</time></trkpt><trkpt lat="45.675846846817606" lon="12.097222010609979"><ele>35.25</ele><time>2026-03-24T18:01:12.999Z</time></trkpt><trkpt lat="45.67572922735295" lon="12.097104701417647"><ele>35.5</ele><time>2026-03-24T18:01:13.999Z</time></trkpt><trkpt lat="45.67561610401769" lon="12.096985957808387"><ele>35.75</ele><time>2026-03-24T18:01:14.999Z</time></trkpt><trkpt lat="45.67550862387992" lon="12.096866687156547"><ele>36.0</ele><time>2026-03-24T18:01:15.999Z</time></trkpt><trkpt lat="45.67539894817851" lon="12.096740544466545"><ele>36.0</ele><time>2026-03-24T18:01:16.999Z</time></trkpt><trkpt lat="45.67528825873466" lon="12.09660622093637"><ele>36.0</ele><time>2026-03-24T18:01:17.999Z</time></trkpt><trkpt lat="45.67517347002627" lon="12.096461669646894"><ele>36.0</ele><time>2026-03-24T18:01:18.999Z</time></trkpt><trkpt lat="45.67506348356101" lon="12.096316167894399"><ele>36.0</ele><time>2026-03-24T18:01:19.999Z</time></trkpt><trkpt lat="45.674949664368256" lon="12.09615408894113"><ele>35.666666666666664</ele><time>2026-03-24T18:01:20.999Z</time></trkpt><trkpt lat="45.67482421173032" lon="12.095979323842627"><ele>35.33333333333333</ele><time>2026-03-24T18:01:21.999Z</time></trkpt><trkpt lat="45.67469765802963" lon="12.095800548151619"><ele>35.0</ele><time>2026-03-24T18:01:22.999Z</time></trkpt><trkpt lat="45.674565293195094" lon="12.095612567874038"><ele>35.0</ele><time>2026-03-24T18:01:23.999Z</time></trkpt><trkpt lat="45.6744353115779" lon="12.095428094500306"><ele>35.0</ele><time>2026-03-24T18:01:24.999Z</time></trkpt><trkpt lat="45.67432055341276" lon="12.095265239603192"><ele>35.0</ele><time>2026-03-24T18:01:25.999Z</time></trkpt><trkpt lat="45.67421356856317" lon="12.095112063715742"><ele>35.0</ele><time>2026-03-24T18:01:26.999Z</time></trkpt><trkpt lat="45.674113266712475" lon="12.094968518262753"><ele>35.0</ele><time>2026-03-24T18:01:27.999Z</time></trkpt><trkpt lat="45.67401408700967" lon="12.09482727241075"><ele>35.0</ele><time>2026-03-24T18:01:28.999Z</time></trkpt><trkpt lat="45.67390781400002" lon="12.094675785593394"><ele>35.0</ele><time>2026-03-24T18:01:29.999Z</time></trkpt><trkpt lat="45.673781141430695" lon="12.094561412706495"><ele>35.0</ele><time>2026-03-24T18:01:30.999Z</time></trkpt><trkpt lat="45.67368034119889" lon="12.0944095430846"><ele>35.0</ele><time>2026-03-24T18:01:31.999Z</time></trkpt><trkpt lat="45.673583602843586" lon="12.094259321569474"><ele>35.0</ele><time>2026-03-24T18:01:32.999Z</time></trkpt><trkpt lat="45.67347710093109" lon="12.09411433788804"><ele>35.0</ele><time>2026-03-24T18:01:33.999Z</time></trkpt><trkpt lat="45.67339037977875" lon="12.09393929131658"><ele>34.5</ele><time>2026-03-24T18:01:34.999Z</time></trkpt><trkpt lat="45.67328678895297" lon="12.093792957795001"><ele>34.0</ele><time>2026-03-24T18:01:35.999Z</time></trkpt><trkpt lat="45.67318349202061" lon="12.093647502454578"><ele>33.5</ele><time>2026-03-24T18:01:36.999Z</time></trkpt><trkpt lat="45.67307886920256" lon="12.093500799201683"><ele>33.0</ele><time>2026-03-24T18:01:37.998Z</time></trkpt><trkpt lat="45.672973338761416" lon="12.093353384664155"><ele>32.666666666666664</ele><time>2026-03-24T18:01:38.998Z</time></trkpt><trkpt lat="45.67286316390412" lon="12.09320187142939"><ele>32.33333333333333</ele><time>2026-03-24T18:01:39.998Z</time></trkpt><trkpt lat="45.67274395567554" lon="12.09306887407223"><ele>32.0</ele><time>2026-03-24T18:01:40.998Z</time></trkpt><trkpt lat="45.67263855095492" lon="12.092911322951478"><ele>32.0</ele><time>2026-03-24T18:01:41.998Z</time></trkpt><trkpt lat="45.67252624116213" lon="12.092769459011457"><ele>32.0</ele><time>2026-03-24T18:01:42.998Z</time></trkpt><trkpt lat="45.6724212120628" lon="12.09262409231255"><ele>32.0</ele><time>2026-03-24T18:01:43.998Z</time></trkpt><trkpt lat="45.67232097760772" lon="12.092489688125776"><ele>32.0</ele><time>2026-03-24T18:01:44.998Z</time></trkpt><trkpt lat="45.67223885775837" lon="12.092338054860958"><ele>32.0</ele><time>2026-03-24T18:01:45.998Z</time></trkpt><trkpt lat="45.67213945962004" lon="12.092192498858799"><ele>32.0</ele><time>2026-03-24T18:01:46.998Z</time></trkpt><trkpt lat="45.672028720302016" lon="12.092030339295354"><ele>32.0</ele><time>2026-03-24T18:01:47.998Z</time></trkpt><trkpt lat="45.67190531287427" lon="12.091849634338834"><ele>32.0</ele><time>2026-03-24T18:01:48.998Z</time></trkpt><trkpt lat="45.671771712694095" lon="12.091654004267392"><ele>32.0</ele><time>2026-03-24T18:01:49.998Z</time></trkpt><trkpt lat="45.67159796812775" lon="12.091486697691385"><ele>32.0</ele><time>2026-03-24T18:01:50.998Z</time></trkpt><trkpt lat="45.67145565858046" lon="12.091274920470607"><ele>32.33333333333333</ele><time>2026-03-24T18:01:51.998Z</time></trkpt><trkpt lat="45.671318803824086" lon="12.091090468646836"><ele>32.666666666666664</ele><time>2026-03-24T18:01:52.998Z</time></trkpt><trkpt lat="45.67119426410243" lon="12.090916946135334"><ele>33.0</ele><time>2026-03-24T18:01:53.998Z</time></trkpt><trkpt lat="45.671080510239435" lon="12.090752857761501"><ele>32.5</ele><time>2026-03-24T18:01:54.998Z</time></trkpt><trkpt lat="45.671009360277495" lon="12.090561641122898"><ele>32.0</ele><time>2026-03-24T18:01:55.998Z</time></trkpt><trkpt lat="45.67091471831109" lon="12.090427658674809"><ele>31.5</ele><time>2026-03-24T18:01:56.998Z</time></trkpt><trkpt lat="45.670825210053735" lon="12.090300943161871"><ele>31.0</ele><time>2026-03-24T18:01:57.998Z</time></trkpt><trkpt lat="45.67073868592113" lon="12.090180013228105"><ele>31.0</ele><time>2026-03-24T18:01:58.998Z</time></trkpt><trkpt lat="45.67065832093257" lon="12.090066704597842"><ele>31.0</ele><time>2026-03-24T18:01:59.998Z</time></trkpt><trkpt lat="45.67057796666905" lon="12.089953153281758"><ele>31.0</ele><time>2026-03-24T18:02:00.998Z</time></trkpt><trkpt lat="45.670500094754004" lon="12.089843375082019"><ele>31.0</ele><time>2026-03-24T18:02:01.998Z</time></trkpt><trkpt lat="45.67041758575304" lon="12.089727092557466"><ele>31.0</ele><time>2026-03-24T18:02:02.998Z</time></trkpt><trkpt lat="45.6703080645587" lon="12.089634884325541"><ele>31.0</ele><time>2026-03-24T18:02:03.998Z</time></trkpt><trkpt lat="45.670219278819395" lon="12.089509087742865"><ele>31.0</ele><time>2026-03-24T18:02:04.998Z</time></trkpt><trkpt lat="45.67013168619467" lon="12.089376772913957"><ele>31.0</ele><time>2026-03-24T18:02:05.998Z</time></trkpt><trkpt lat="45.67003957515152" lon="12.089245420130068"><ele>31.0</ele><time>2026-03-24T18:02:06.998Z</time></trkpt><trkpt lat="45.66996417115406" lon="12.08908858832467"><ele>31.0</ele><time>2026-03-24T18:02:08Z</time></trkpt><trkpt lat="45.66986941166267" lon="12.088960247073159"><ele>31.0</ele><time>2026-03-24T18:02:09Z</time></trkpt><trkpt lat="45.66977559401765" lon="12.088833181441618"><ele>31.0</ele><time>2026-03-24T18:02:10Z</time></trkpt><trkpt lat="45.66968212753455" lon="12.088706591411157"><ele>31.0</ele><time>2026-03-24T18:02:11Z</time></trkpt><trkpt lat="45.66959445018153" lon="12.088587842153348"><ele>31.0</ele><time>2026-03-24T18:02:12Z</time></trkpt><trkpt lat="45.66951451436086" lon="12.088479577948323"><ele>31.0</ele><time>2026-03-24T18:02:13Z</time></trkpt><trkpt lat="45.66944534533809" lon="12.08838589605816"><ele>31.0</ele><time>2026-03-24T18:02:14Z</time></trkpt><trkpt lat="45.66937422045844" lon="12.088289565253945"><ele>31.0</ele><time>2026-03-24T18:02:15Z</time></trkpt><trkpt lat="45.66931408075569" lon="12.088197887476387"><ele>31.0</ele><time>2026-03-24T18:02:16Z</time></trkpt><trkpt lat="45.66924816944924" lon="12.088135687345995"><ele>31.000000000000004</ele><time>2026-03-24T18:02:17Z</time></trkpt><trkpt lat="45.669200815597996" lon="12.0880609136562"><ele>31.0</ele><time>2026-03-24T18:02:18Z</time></trkpt><trkpt lat="45.66916435424839" lon="12.087982870937696"><ele>31.0</ele><time>2026-03-24T18:02:19Z</time></trkpt><trkpt lat="45.66913047667536" lon="12.087894510337724"><ele>31.000000000000004</ele><time>2026-03-24T18:02:20Z</time></trkpt><trkpt lat="45.66909707674443" lon="12.08781061671219"><ele>31.0</ele><time>2026-03-24T18:02:21Z</time></trkpt><trkpt lat="45.66904351969038" lon="12.087736772620827"><ele>31.0</ele><time>2026-03-24T18:02:22Z</time></trkpt><trkpt lat="45.668962623982786" lon="12.087656231588022"><ele>31.0</ele><time>2026-03-24T18:02:23Z</time></trkpt><trkpt lat="45.66888036549893" lon="12.087558167162726"><ele>31.0</ele><time>2026-03-24T18:02:24Z</time></trkpt><trkpt lat="45.66878501865546" lon="12.08743335279063"><ele>31.0</ele><time>2026-03-24T18:02:25Z</time></trkpt><trkpt lat="45.66867978646495" lon="12.08728810994784"><ele>31.0</ele><time>2026-03-24T18:02:26Z</time></trkpt><trkpt lat="45.66857056650543" lon="12.087139570970905"><ele>30.333333333333336</ele><time>2026-03-24T18:02:27Z</time></trkpt><trkpt lat="45.66846303253325" lon="12.086992523757278"><ele>29.666666666666664</ele><time>2026-03-24T18:02:28Z</time></trkpt><trkpt lat="45.66835995002776" lon="12.086816343707218"><ele>29.0</ele><time>2026-03-24T18:02:29Z</time></trkpt><trkpt lat="45.668240342022266" lon="12.086646216593627"><ele>29.0</ele><time>2026-03-24T18:02:30Z</time></trkpt><trkpt lat="45.66811651274608" lon="12.086471751472848"><ele>29.0</ele><time>2026-03-24T18:02:31Z</time></trkpt><trkpt lat="45.667986191500795" lon="12.086288139719048"><ele>29.0</ele><time>2026-03-24T18:02:32Z</time></trkpt><trkpt lat="45.667853327747295" lon="12.086100944184693"><ele>29.333333333333332</ele><time>2026-03-24T18:02:33Z</time></trkpt><trkpt lat="45.66771735487984" lon="12.085915105411848"><ele>29.666666666666664</ele><time>2026-03-24T18:02:34Z</time></trkpt><trkpt lat="45.667579927508" lon="12.085725361565666"><ele>30.0</ele><time>2026-03-24T18:02:35Z</time></trkpt><trkpt lat="45.66744279600458" lon="12.085531850419077"><ele>29.333333333333336</ele><time>2026-03-24T18:02:36Z</time></trkpt><trkpt lat="45.66730874752566" lon="12.085343671179245"><ele>28.666666666666668</ele><time>2026-03-24T18:02:37Z</time></trkpt><trkpt lat="45.66717211948592" lon="12.085151907032959"><ele>28.0</ele><time>2026-03-24T18:02:38Z</time></trkpt><trkpt lat="45.667033560781945" lon="12.084957433129762"><ele>27.666666666666668</ele><time>2026-03-24T18:02:39Z</time></trkpt><trkpt lat="45.6668809209122" lon="12.084770796360896"><ele>27.333333333333336</ele><time>2026-03-24T18:02:40Z</time></trkpt><trkpt lat="45.66673574791112" lon="12.084571749262071"><ele>27.0</ele><time>2026-03-24T18:02:41Z</time></trkpt><trkpt lat="45.666591996898234" lon="12.084368864981872"><ele>27.0</ele><time>2026-03-24T18:02:42Z</time></trkpt><trkpt lat="45.66644869133585" lon="12.084165915405071"><ele>27.0</ele><time>2026-03-24T18:02:43Z</time></trkpt><trkpt lat="45.666306101149154" lon="12.083964964023089"><ele>27.0</ele><time>2026-03-24T18:02:44Z</time></trkpt><trkpt lat="45.66616649604718" lon="12.083765393654287"><ele>27.333333333333336</ele><time>2026-03-24T18:02:45Z</time></trkpt><trkpt lat="45.666026152809245" lon="12.083568461299329"><ele>27.666666666666668</ele><time>2026-03-24T18:02:46Z</time></trkpt><trkpt lat="45.6658856969435" lon="12.083373434567994"><ele>28.0</ele><time>2026-03-24T18:02:47Z</time></trkpt><trkpt lat="45.66574490641356" lon="12.083178728817046"><ele>28.0</ele><time>2026-03-24T18:02:47.999Z</time></trkpt><trkpt lat="45.665617389676" lon="12.082970369505919"><ele>28.0</ele><time>2026-03-24T18:02:48.999Z</time></trkpt><trkpt lat="45.665476359037505" lon="12.082774969845984"><ele>28.0</ele><time>2026-03-24T18:02:49.999Z</time></trkpt><trkpt lat="45.66533534397176" lon="12.082580366533128"><ele>27.666666666666668</ele><time>2026-03-24T18:02:50.999Z</time></trkpt><trkpt lat="45.66519709631706" lon="12.082386938880926"><ele>27.333333333333336</ele><time>2026-03-24T18:02:51.999Z</time></trkpt><trkpt lat="45.665057707389856" lon="12.08219191412534"><ele>27.0</ele><time>2026-03-24T18:02:52.999Z</time></trkpt><trkpt lat="45.66491861617483" lon="12.081997306070418"><ele>27.0</ele><time>2026-03-24T18:02:53.999Z</time></trkpt><trkpt lat="45.66478102090522" lon="12.0818041206893"><ele>27.0</ele><time>2026-03-24T18:02:54.999Z</time></trkpt><trkpt lat="45.66464518184991" lon="12.08161351358528"><ele>27.0</ele><time>2026-03-24T18:02:55.999Z</time></trkpt><trkpt lat="45.66450988556948" lon="12.081425246495565"><ele>27.333333333333336</ele><time>2026-03-24T18:02:56.999Z</time></trkpt><trkpt lat="45.66437692967984" lon="12.081240236023824"><ele>27.666666666666668</ele><time>2026-03-24T18:02:57.999Z</time></trkpt><trkpt lat="45.66424925830929" lon="12.081061837217762"><ele>28.0</ele><time>2026-03-24T18:02:58.999Z</time></trkpt><trkpt lat="45.664121232810984" lon="12.080882851306313"><ele>28.333333333333336</ele><time>2026-03-24T18:02:59.999Z</time></trkpt><trkpt lat="45.66399528349473" lon="12.080706766636295"><ele>28.666666666666664</ele><time>2026-03-24T18:03:00.999Z</time></trkpt><trkpt lat="45.66387134565844" lon="12.080531716663161"><ele>29.0</ele><time>2026-03-24T18:03:01.999Z</time></trkpt><trkpt lat="45.66374739849039" lon="12.080357082369117"><ele>29.0</ele><time>2026-03-24T18:03:02.999Z</time></trkpt><trkpt lat="45.66362574693601" lon="12.08018273808452"><ele>29.0</ele><time>2026-03-24T18:03:03.999Z</time></trkpt><trkpt lat="45.663507451889814" lon="12.080002578790303"><ele>29.0</ele><time>2026-03-24T18:03:04.999Z</time></trkpt><trkpt lat="45.663391539945415" lon="12.079813966764423"><ele>28.666666666666664</ele><time>2026-03-24T18:03:05.999Z</time></trkpt><trkpt lat="45.66327581445146" lon="12.079622298519675"><ele>28.333333333333336</ele><time>2026-03-24T18:03:06.999Z</time></trkpt><trkpt lat="45.66316032462124" lon="12.079423577677373"><ele>28.0</ele><time>2026-03-24T18:03:07.999Z</time></trkpt><trkpt lat="45.66304544165484" lon="12.079224615906623"><ele>28.0</ele><time>2026-03-24T18:03:08.999Z</time></trkpt><trkpt lat="45.66292851794521" lon="12.079022121168276"><ele>28.0</ele><time>2026-03-24T18:03:09.999Z</time></trkpt><trkpt lat="45.66281101874744" lon="12.078818628451302"><ele>28.0</ele><time>2026-03-24T18:03:10.999Z</time></trkpt><trkpt lat="45.66269589674121" lon="12.078616579445406"><ele>27.666666666666668</ele><time>2026-03-24T18:03:11.999Z</time></trkpt><trkpt lat="45.662581768895556" lon="12.078416424143967"><ele>27.333333333333336</ele><time>2026-03-24T18:03:12.999Z</time></trkpt><trkpt lat="45.66246699269558" lon="12.07821690722439"><ele>27.0</ele><time>2026-03-24T18:03:13.999Z</time></trkpt><trkpt lat="45.66234854520541" lon="12.078017023208847"><ele>27.0</ele><time>2026-03-24T18:03:14.999Z</time></trkpt><trkpt lat="45.66223360873334" lon="12.0778111222728"><ele>27.0</ele><time>2026-03-24T18:03:15.999Z</time></trkpt><trkpt lat="45.66211787431818" lon="12.077608933876904"><ele>27.0</ele><time>2026-03-24T18:03:16.999Z</time></trkpt><trkpt lat="45.661993929560374" lon="12.077392401836777"><ele>27.0</ele><time>2026-03-24T18:03:17.999Z</time></trkpt><trkpt lat="45.661867461893834" lon="12.077171462880582"><ele>27.0</ele><time>2026-03-24T18:03:18.999Z</time></trkpt><trkpt lat="45.66173756281854" lon="12.07694495328888"><ele>27.0</ele><time>2026-03-24T18:03:19.999Z</time></trkpt><trkpt lat="45.66161726058628" lon="12.076738191738816"><ele>27.0</ele><time>2026-03-24T18:03:20.999Z</time></trkpt><trkpt lat="45.66150701996128" lon="12.076548678103087"><ele>27.0</ele><time>2026-03-24T18:03:21.999Z</time></trkpt><trkpt lat="45.66140313298579" lon="12.076371590227218"><ele>27.0</ele><time>2026-03-24T18:03:22.999Z</time></trkpt><trkpt lat="45.66130382532046" lon="12.076204714156958"><ele>27.0</ele><time>2026-03-24T18:03:23.999Z</time></trkpt><trkpt lat="45.661210319757636" lon="12.076056304206286"><ele>27.0</ele><time>2026-03-24T18:03:24.999Z</time></trkpt><trkpt lat="45.66111061973306" lon="12.07591452843288"><ele>27.0</ele><time>2026-03-24T18:03:25.999Z</time></trkpt><trkpt lat="45.66102552961675" lon="12.07580743707394"><ele>27.0</ele><time>2026-03-24T18:03:26.999Z</time></trkpt><trkpt lat="45.66093194290945" lon="12.075701507459797"><ele>27.0</ele><time>2026-03-24T18:03:28.999Z</time></trkpt><trkpt lat="45.66088812059362" lon="12.075624296790298"><ele>27.000000000000004</ele><time>2026-03-24T18:03:29.999Z</time></trkpt><trkpt lat="45.66081391836307" lon="12.075570087231446"><ele>27.000000000000004</ele><time>2026-03-24T18:03:30.999Z</time></trkpt><trkpt lat="45.660720760083514" lon="12.07550390854735"><ele>27.0</ele><time>2026-03-24T18:03:31.999Z</time></trkpt><trkpt lat="45.660620327909314" lon="12.075423987474144"><ele>27.0</ele><time>2026-03-24T18:03:32.999Z</time></trkpt><trkpt lat="45.66051322276519" lon="12.075348215819874"><ele>27.0</ele><time>2026-03-24T18:03:33.999Z</time></trkpt><trkpt lat="45.66041577741921" lon="12.075283315427871"><ele>27.0</ele><time>2026-03-24T18:03:34.999Z</time></trkpt><trkpt lat="45.6603271094975" lon="12.075229445093276"><ele>27.0</ele><time>2026-03-24T18:03:35.999Z</time></trkpt><trkpt lat="45.66024674692934" lon="12.075180530144326"><ele>27.0</ele><time>2026-03-24T18:03:36.999Z</time></trkpt><trkpt lat="45.66017719829015" lon="12.075138197352828"><ele>27.0</ele><time>2026-03-24T18:03:37.999Z</time></trkpt><trkpt lat="45.66011687449693" lon="12.075104926406475"><ele>27.0</ele><time>2026-03-24T18:03:38.999Z</time></trkpt><trkpt lat="45.660031563170314" lon="12.075058257274366"><ele>27.0</ele><time>2026-03-24T18:03:40.999Z</time></trkpt><trkpt lat="45.65994056572759" lon="12.075015282820882"><ele>27.0</ele><time>2026-03-24T18:03:42.999Z</time></trkpt><trkpt lat="45.659875618839735" lon="12.074979617156226"><ele>27.0</ele><time>2026-03-24T18:03:45.998Z</time></trkpt><trkpt lat="45.65978452078111" lon="12.074924175948762"><ele>27.0</ele><time>2026-03-24T18:04:12.998Z</time></trkpt><trkpt lat="45.659714615989635" lon="12.07487716360772"><ele>27.0</ele><time>2026-03-24T18:04:14Z</time></trkpt><trkpt lat="45.659631385518296" lon="12.074826620416772"><ele>27.0</ele><time>2026-03-24T18:04:15Z</time></trkpt><trkpt lat="45.65954655055277" lon="12.074776585345719"><ele>26.75</ele><time>2026-03-24T18:04:16Z</time></trkpt><trkpt lat="45.65945456776208" lon="12.074722316314235"><ele>26.5</ele><time>2026-03-24T18:04:17Z</time></trkpt><trkpt lat="45.65935732764022" lon="12.074664122069857"><ele>26.25</ele><time>2026-03-24T18:04:18Z</time></trkpt><trkpt lat="45.659246379139084" lon="12.074605769207327"><ele>26.0</ele><time>2026-03-24T18:04:19Z</time></trkpt><trkpt lat="45.65912807502753" lon="12.074528303931707"><ele>26.0</ele><time>2026-03-24T18:04:20Z</time></trkpt><trkpt lat="45.65899771458321" lon="12.074456486930343"><ele>26.0</ele><time>2026-03-24T18:04:21Z</time></trkpt><trkpt lat="45.65885967377719" lon="12.074380895168748"><ele>26.0</ele><time>2026-03-24T18:04:22Z</time></trkpt><trkpt lat="45.65871353945339" lon="12.074304012117134"><ele>26.0</ele><time>2026-03-24T18:04:23Z</time></trkpt><trkpt lat="45.658558224496225" lon="12.074238685653572"><ele>26.0</ele><time>2026-03-24T18:04:24Z</time></trkpt><trkpt lat="45.658395324807834" lon="12.074157683462374"><ele>26.0</ele><time>2026-03-24T18:04:25Z</time></trkpt><trkpt lat="45.65821802840072" lon="12.074103919885205"><ele>26.0</ele><time>2026-03-24T18:04:26Z</time></trkpt><trkpt lat="45.65803690732528" lon="12.074058007560566"><ele>25.666666666666664</ele><time>2026-03-24T18:04:27Z</time></trkpt><trkpt lat="45.657843476035445" lon="12.074033984885881"><ele>25.333333333333336</ele><time>2026-03-24T18:04:28Z</time></trkpt><trkpt lat="45.65765033803103" lon="12.07398478728832"><ele>25.0</ele><time>2026-03-24T18:04:29Z</time></trkpt><trkpt lat="45.65745311136421" lon="12.073937326574109"><ele>24.666666666666668</ele><time>2026-03-24T18:04:30Z</time></trkpt><trkpt lat="45.65725384801786" lon="12.073888840149552"><ele>24.333333333333336</ele><time>2026-03-24T18:04:31Z</time></trkpt><trkpt lat="45.65705713240871" lon="12.073841716004242"><ele>24.0</ele><time>2026-03-24T18:04:32Z</time></trkpt><trkpt lat="45.65685386327088" lon="12.073793679654836"><ele>23.0</ele><time>2026-03-24T18:04:33Z</time></trkpt><trkpt lat="45.656655200663494" lon="12.073726212273925"><ele>22.0</ele><time>2026-03-24T18:04:34Z</time></trkpt><trkpt lat="45.656446797916" lon="12.073676225760627"><ele>21.0</ele><time>2026-03-24T18:04:35Z</time></trkpt><trkpt lat="45.656231362786016" lon="12.073644176870301"><ele>21.666666666666668</ele><time>2026-03-24T18:04:36Z</time></trkpt><trkpt lat="45.656020535773905" lon="12.073596164138356"><ele>22.333333333333336</ele><time>2026-03-24T18:04:37Z</time></trkpt><trkpt lat="45.655803928781694" lon="12.073544195587912"><ele>23.0</ele><time>2026-03-24T18:04:38Z</time></trkpt><trkpt lat="45.6555897415625" lon="12.073494042496213"><ele>23.0</ele><time>2026-03-24T18:04:39Z</time></trkpt><trkpt lat="45.655378720443395" lon="12.073450607304313"><ele>23.0</ele><time>2026-03-24T18:04:40Z</time></trkpt><trkpt lat="45.65515906614728" lon="12.073419269684237"><ele>23.0</ele><time>2026-03-24T18:04:41Z</time></trkpt><trkpt lat="45.65493770766964" lon="12.073400053135119"><ele>22.666666666666668</ele><time>2026-03-24T18:04:42Z</time></trkpt><trkpt lat="45.65471763619034" lon="12.073384467792293"><ele>22.333333333333332</ele><time>2026-03-24T18:04:43Z</time></trkpt><trkpt lat="45.654492876053695" lon="12.07336774284428"><ele>22.0</ele><time>2026-03-24T18:04:44Z</time></trkpt><trkpt lat="45.654262384465895" lon="12.07335532331519"><ele>22.0</ele><time>2026-03-24T18:04:45Z</time></trkpt><trkpt lat="45.654014454936814" lon="12.073334587418152"><ele>22.0</ele><time>2026-03-24T18:04:46Z</time></trkpt><trkpt lat="45.65376095584334" lon="12.073312232878374"><ele>22.5</ele><time>2026-03-24T18:04:47Z</time></trkpt><trkpt lat="45.65350322479067" lon="12.073294240609986"><ele>23.0</ele><time>2026-03-24T18:04:48Z</time></trkpt><trkpt lat="45.653244488776636" lon="12.073275069838651"><ele>23.0</ele><time>2026-03-24T18:04:49Z</time></trkpt><trkpt lat="45.65300217979808" lon="12.073259666230388"><ele>23.0</ele><time>2026-03-24T18:04:50Z</time></trkpt><trkpt lat="45.652775681864924" lon="12.073238196488257"><ele>22.333333333333336</ele><time>2026-03-24T18:04:51Z</time></trkpt><trkpt lat="45.65256528241851" lon="12.073222971242323"><ele>21.666666666666668</ele><time>2026-03-24T18:04:52Z</time></trkpt><trkpt lat="45.65235457197245" lon="12.073209727606676"><ele>21.0</ele><time>2026-03-24T18:04:53Z</time></trkpt><trkpt lat="45.65214340061338" lon="12.073183097921916"><ele>22.0</ele><time>2026-03-24T18:04:54Z</time></trkpt><trkpt lat="45.65194090692108" lon="12.073160366394081"><ele>23.0</ele><time>2026-03-24T18:04:55Z</time></trkpt><trkpt lat="45.651738651196425" lon="12.073141671515739"><ele>24.0</ele><time>2026-03-24T18:04:56Z</time></trkpt><trkpt lat="45.651533257447284" lon="12.073128579986326"><ele>24.0</ele><time>2026-03-24T18:04:56.999Z</time></trkpt><trkpt lat="45.651321778070816" lon="12.073113415862863"><ele>24.0</ele><time>2026-03-24T18:04:57.999Z</time></trkpt><trkpt lat="45.65109779166639" lon="12.07309466096205"><ele>24.0</ele><time>2026-03-24T18:04:58.999Z</time></trkpt><trkpt lat="45.650880327337504" lon="12.073067121948377"><ele>24.0</ele><time>2026-03-24T18:04:59.999Z</time></trkpt><trkpt lat="45.6506503730128" lon="12.073051585948052"><ele>24.0</ele><time>2026-03-24T18:05:00.999Z</time></trkpt><trkpt lat="45.65041778132877" lon="12.07303181465145"><ele>23.5</ele><time>2026-03-24T18:05:01.999Z</time></trkpt><trkpt lat="45.65018094332883" lon="12.073011802470482"><ele>23.0</ele><time>2026-03-24T18:05:02.999Z</time></trkpt><trkpt lat="45.64994052395719" lon="12.072988897668157"><ele>23.0</ele><time>2026-03-24T18:05:03.999Z</time></trkpt><trkpt lat="45.6496996369388" lon="12.072946195069775"><ele>23.0</ele><time>2026-03-24T18:05:04.999Z</time></trkpt><trkpt lat="45.649462385620744" lon="12.072924244054947"><ele>23.0</ele><time>2026-03-24T18:05:05.999Z</time></trkpt><trkpt lat="45.64920680445383" lon="12.072900597109365"><ele>23.0</ele><time>2026-03-24T18:05:06.999Z</time></trkpt><trkpt lat="45.648961563981146" lon="12.072901560870557"><ele>23.0</ele><time>2026-03-24T18:05:07.999Z</time></trkpt><trkpt lat="45.64872680499585" lon="12.072878828784155"><ele>23.0</ele><time>2026-03-24T18:05:08.999Z</time></trkpt><trkpt lat="45.6485054756259" lon="12.07283571061221"><ele>23.0</ele><time>2026-03-24T18:05:09.999Z</time></trkpt><trkpt lat="45.648294670266075" lon="12.072816206427586"><ele>23.0</ele><time>2026-03-24T18:05:10.999Z</time></trkpt><trkpt lat="45.64807714237947" lon="12.072818036179513"><ele>23.0</ele><time>2026-03-24T18:05:11.999Z</time></trkpt><trkpt lat="45.647863055760716" lon="12.072796151778382"><ele>23.0</ele><time>2026-03-24T18:05:12.999Z</time></trkpt><trkpt lat="45.647647171653446" lon="12.072776412975573"><ele>23.0</ele><time>2026-03-24T18:05:13.999Z</time></trkpt><trkpt lat="45.64743360407836" lon="12.072755125394574"><ele>23.0</ele><time>2026-03-24T18:05:14.999Z</time></trkpt><trkpt lat="45.64722725939504" lon="12.072739059369564"><ele>23.0</ele><time>2026-03-24T18:05:15.999Z</time></trkpt><trkpt lat="45.6470368391876" lon="12.072725635798117"><ele>23.0</ele><time>2026-03-24T18:05:16.999Z</time></trkpt><trkpt lat="45.64685553103758" lon="12.072723518562782"><ele>23.0</ele><time>2026-03-24T18:05:17.999Z</time></trkpt><trkpt lat="45.64667296968533" lon="12.072737088255419"><ele>23.0</ele><time>2026-03-24T18:05:18.999Z</time></trkpt><trkpt lat="45.64648415433924" lon="12.072762874226127"><ele>23.0</ele><time>2026-03-24T18:05:19.999Z</time></trkpt><trkpt lat="45.64629281628309" lon="12.07280524154948"><ele>23.0</ele><time>2026-03-24T18:05:20.999Z</time></trkpt><trkpt lat="45.646103489167196" lon="12.072862285168931"><ele>22.666666666666668</ele><time>2026-03-24T18:05:21.999Z</time></trkpt><trkpt lat="45.64591710324878" lon="12.072941595139605"><ele>22.333333333333332</ele><time>2026-03-24T18:05:22.999Z</time></trkpt><trkpt lat="45.64572681831097" lon="12.073035860116837"><ele>22.0</ele><time>2026-03-24T18:05:23.999Z</time></trkpt><trkpt lat="45.64554083158079" lon="12.073147451702877"><ele>22.0</ele><time>2026-03-24T18:05:24.999Z</time></trkpt><trkpt lat="45.64536324037979" lon="12.0732684398887"><ele>22.0</ele><time>2026-03-24T18:05:25.999Z</time></trkpt><trkpt lat="45.6451777341027" lon="12.073424453839287"><ele>22.0</ele><time>2026-03-24T18:05:26.999Z</time></trkpt><trkpt lat="45.64500755949777" lon="12.073580825538224"><ele>22.0</ele><time>2026-03-24T18:05:27.999Z</time></trkpt><trkpt lat="45.644842149102104" lon="12.073747356833096"><ele>22.0</ele><time>2026-03-24T18:05:28.999Z</time></trkpt><trkpt lat="45.64468520966078" lon="12.07393634891951"><ele>22.0</ele><time>2026-03-24T18:05:29.999Z</time></trkpt><trkpt lat="45.64453034526748" lon="12.074148169532275"><ele>21.5</ele><time>2026-03-24T18:05:30.999Z</time></trkpt><trkpt lat="45.64437927512472" lon="12.074382593995487"><ele>21.0</ele><time>2026-03-24T18:05:31.999Z</time></trkpt><trkpt lat="45.644229890098" lon="12.074632251827254"><ele>21.0</ele><time>2026-03-24T18:05:32.999Z</time></trkpt><trkpt lat="45.64407550063753" lon="12.074887760879735"><ele>21.0</ele><time>2026-03-24T18:05:33.999Z</time></trkpt><trkpt lat="45.643924447538026" lon="12.075133808692994"><ele>21.0</ele><time>2026-03-24T18:05:34.999Z</time></trkpt><trkpt lat="45.64377243995198" lon="12.075386943615067"><ele>21.0</ele><time>2026-03-24T18:05:35.999Z</time></trkpt><trkpt lat="45.643614985733876" lon="12.07564634342394"><ele>20.0</ele><time>2026-03-24T18:05:36.999Z</time></trkpt><trkpt lat="45.643455004850836" lon="12.075903212109548"><ele>19.0</ele><time>2026-03-24T18:05:37.999Z</time></trkpt><trkpt lat="45.64329619893521" lon="12.076164556281649"><ele>19.0</ele><time>2026-03-24T18:05:38.999Z</time></trkpt><trkpt lat="45.6431413201704" lon="12.076421883688866"><ele>19.0</ele><time>2026-03-24T18:05:39.999Z</time></trkpt><trkpt lat="45.64298360030501" lon="12.076668545990243"><ele>19.666666666666664</ele><time>2026-03-24T18:05:40.999Z</time></trkpt><trkpt lat="45.64283601291335" lon="12.076916004939985"><ele>20.333333333333332</ele><time>2026-03-24T18:05:41.999Z</time></trkpt><trkpt lat="45.64268984721092" lon="12.077154934319754"><ele>21.0</ele><time>2026-03-24T18:05:42.999Z</time></trkpt><trkpt lat="45.64255917576277" lon="12.077376853258114"><ele>21.0</ele><time>2026-03-24T18:05:43.999Z</time></trkpt><trkpt lat="45.64243073515028" lon="12.077578626155931"><ele>21.0</ele><time>2026-03-24T18:05:44.999Z</time></trkpt><trkpt lat="45.64230707159779" lon="12.07776969603821"><ele>21.0</ele><time>2026-03-24T18:05:45.999Z</time></trkpt><trkpt lat="45.642199619952116" lon="12.077955426910998"><ele>21.0</ele><time>2026-03-24T18:05:46.999Z</time></trkpt><trkpt lat="45.642102124678445" lon="12.078156294346726"><ele>21.0</ele><time>2026-03-24T18:05:47.999Z</time></trkpt><trkpt lat="45.64198783710132" lon="12.078338668387428"><ele>21.0</ele><time>2026-03-24T18:05:48.999Z</time></trkpt><trkpt lat="45.64187705000056" lon="12.078527120180539"><ele>21.333333333333332</ele><time>2026-03-24T18:05:49.999Z</time></trkpt><trkpt lat="45.64175550093644" lon="12.07871673773668"><ele>21.666666666666664</ele><time>2026-03-24T18:05:50.999Z</time></trkpt><trkpt lat="45.64162201689548" lon="12.078914590817103"><ele>22.0</ele><time>2026-03-24T18:05:51.999Z</time></trkpt><trkpt lat="45.64151632154238" lon="12.079124555082844"><ele>22.0</ele><time>2026-03-24T18:05:52.999Z</time></trkpt><trkpt lat="45.64138681389596" lon="12.079329253614603"><ele>22.0</ele><time>2026-03-24T18:05:53.998Z</time></trkpt><trkpt lat="45.641255950175264" lon="12.079542299434074"><ele>22.0</ele><time>2026-03-24T18:05:54.998Z</time></trkpt><trkpt lat="45.64112101912465" lon="12.079763778014108"><ele>22.0</ele><time>2026-03-24T18:05:55.998Z</time></trkpt><trkpt lat="45.640983844768044" lon="12.079990124766256"><ele>22.0</ele><time>2026-03-24T18:05:56.998Z</time></trkpt><trkpt lat="45.64083098617799" lon="12.080204627379203"><ele>22.0</ele><time>2026-03-24T18:05:57.998Z</time></trkpt><trkpt lat="45.640691431097125" lon="12.080432959514797"><ele>22.0</ele><time>2026-03-24T18:05:58.998Z</time></trkpt><trkpt lat="45.64055133972661" lon="12.080665233443362"><ele>22.0</ele><time>2026-03-24T18:05:59.998Z</time></trkpt><trkpt lat="45.6404195133072" lon="12.080896533661479"><ele>22.0</ele><time>2026-03-24T18:06:00.998Z</time></trkpt><trkpt lat="45.640296975068935" lon="12.081109262682538"><ele>22.666666666666664</ele><time>2026-03-24T18:06:01.998Z</time></trkpt><trkpt lat="45.64017008857052" lon="12.08131610648689"><ele>23.333333333333332</ele><time>2026-03-24T18:06:02.998Z</time></trkpt><trkpt lat="45.64003785107724" lon="12.08151816978238"><ele>24.0</ele><time>2026-03-24T18:06:03.998Z</time></trkpt><trkpt lat="45.63989569263438" lon="12.081708318969033"><ele>24.0</ele><time>2026-03-24T18:06:04.998Z</time></trkpt><trkpt lat="45.639744528522584" lon="12.081895986506664"><ele>24.0</ele><time>2026-03-24T18:06:05.998Z</time></trkpt><trkpt lat="45.63958581505206" lon="12.082075631484775"><ele>24.0</ele><time>2026-03-24T18:06:06.998Z</time></trkpt><trkpt lat="45.6394121118764" lon="12.08220540178307"><ele>23.333333333333332</ele><time>2026-03-24T18:06:07.998Z</time></trkpt><trkpt lat="45.63922698887487" lon="12.08233546394304"><ele>22.666666666666664</ele><time>2026-03-24T18:06:08.998Z</time></trkpt><trkpt lat="45.63903980490926" lon="12.082446525687583"><ele>22.0</ele><time>2026-03-24T18:06:09.998Z</time></trkpt><trkpt lat="45.63884318594005" lon="12.082540630576958"><ele>21.666666666666664</ele><time>2026-03-24T18:06:10.998Z</time></trkpt><trkpt lat="45.63863889681654" lon="12.08261663408364"><ele>21.333333333333332</ele><time>2026-03-24T18:06:11.998Z</time></trkpt><trkpt lat="45.638420550853745" lon="12.082670870492963"><ele>21.0</ele><time>2026-03-24T18:06:12.998Z</time></trkpt><trkpt lat="45.638204396102104" lon="12.082739929848417"><ele>21.0</ele><time>2026-03-24T18:06:13.998Z</time></trkpt><trkpt lat="45.63797939906519" lon="12.082773098676942"><ele>21.0</ele><time>2026-03-24T18:06:14.998Z</time></trkpt><trkpt lat="45.63774960708381" lon="12.08282192616951"><ele>21.5</ele><time>2026-03-24T18:06:15.998Z</time></trkpt><trkpt lat="45.6375097692116" lon="12.082843103134717"><ele>22.0</ele><time>2026-03-24T18:06:16.998Z</time></trkpt><trkpt lat="45.63727570094628" lon="12.082886282274123"><ele>22.0</ele><time>2026-03-24T18:06:17.998Z</time></trkpt><trkpt lat="45.637059916359064" lon="12.082926090246701"><ele>22.0</ele><time>2026-03-24T18:06:18.998Z</time></trkpt><trkpt lat="45.63685569464867" lon="12.082963777336667"><ele>22.0</ele><time>2026-03-24T18:06:20Z</time></trkpt><trkpt lat="45.63667091167649" lon="12.082997741403608"><ele>22.333333333333332</ele><time>2026-03-24T18:06:21Z</time></trkpt><trkpt lat="45.63648594288282" lon="12.083032420053769"><ele>22.666666666666668</ele><time>2026-03-24T18:06:22Z</time></trkpt><trkpt lat="45.63631558692557" lon="12.083110583965327"><ele>23.0</ele><time>2026-03-24T18:06:23Z</time></trkpt><trkpt lat="45.636146714580654" lon="12.083136508075098"><ele>23.0</ele><time>2026-03-24T18:06:24Z</time></trkpt><trkpt lat="45.63599846915622" lon="12.083153237169812"><ele>23.0</ele><time>2026-03-24T18:06:25Z</time></trkpt><trkpt lat="45.63586752692765" lon="12.083191041327066"><ele>23.0</ele><time>2026-03-24T18:06:26Z</time></trkpt><trkpt lat="45.63573840782241" lon="12.08317128938547"><ele>23.0</ele><time>2026-03-24T18:06:27Z</time></trkpt><trkpt lat="45.63563540729928" lon="12.08319059844119"><ele>23.0</ele><time>2026-03-24T18:06:28Z</time></trkpt><trkpt lat="45.63553709497918" lon="12.083209028648925"><ele>23.0</ele><time>2026-03-24T18:06:29Z</time></trkpt><trkpt lat="45.63543827756141" lon="12.083227553514138"><ele>23.0</ele><time>2026-03-24T18:06:30Z</time></trkpt><trkpt lat="45.635342513526055" lon="12.083245220568525"><ele>23.0</ele><time>2026-03-24T18:06:31Z</time></trkpt><trkpt lat="45.63525315236349" lon="12.083261636789542"><ele>23.0</ele><time>2026-03-24T18:06:32Z</time></trkpt><trkpt lat="45.635154283068914" lon="12.083280146245038"><ele>22.75</ele><time>2026-03-24T18:06:33Z</time></trkpt><trkpt lat="45.63504979244595" lon="12.083299787332844"><ele>22.5</ele><time>2026-03-24T18:06:34Z</time></trkpt><trkpt lat="45.634937097748136" lon="12.083320970647504"><ele>22.25</ele><time>2026-03-24T18:06:35Z</time></trkpt><trkpt lat="45.634821584390906" lon="12.083342949495723"><ele>22.0</ele><time>2026-03-24T18:06:36Z</time></trkpt><trkpt lat="45.634687106808464" lon="12.08336852198929"><ele>22.0</ele><time>2026-03-24T18:06:37Z</time></trkpt><trkpt lat="45.634568969180194" lon="12.083390109151084"><ele>22.0</ele><time>2026-03-24T18:06:38Z</time></trkpt><trkpt lat="45.63444492328713" lon="12.083412168049698"><ele>22.0</ele><time>2026-03-24T18:06:39Z</time></trkpt><trkpt lat="45.63432700964814" lon="12.083433134507784"><ele>22.0</ele><time>2026-03-24T18:06:40Z</time></trkpt><trkpt lat="45.634213107892265" lon="12.083453676060609"><ele>22.200000000000003</ele><time>2026-03-24T18:06:41Z</time></trkpt><trkpt lat="45.63411300100303" lon="12.083471757915053"><ele>22.4</ele><time>2026-03-24T18:06:42Z</time></trkpt><trkpt lat="45.63401330856426" lon="12.083512121268075"><ele>22.6</ele><time>2026-03-24T18:06:43Z</time></trkpt><trkpt lat="45.63391529596225" lon="12.083527376870252"><ele>22.799999999999997</ele><time>2026-03-24T18:06:44Z</time></trkpt><trkpt lat="45.63382153025429" lon="12.083543504385654"><ele>23.0</ele><time>2026-03-24T18:06:45Z</time></trkpt><trkpt lat="45.63372419934379" lon="12.083562621465884"><ele>23.2</ele><time>2026-03-24T18:06:46Z</time></trkpt><trkpt lat="45.63362388179554" lon="12.083581848898156"><ele>23.4</ele><time>2026-03-24T18:06:47Z</time></trkpt><trkpt lat="45.63352378429636" lon="12.083595226206373"><ele>23.599999999999998</ele><time>2026-03-24T18:06:48Z</time></trkpt><trkpt lat="45.63341762095562" lon="12.083592916995487"><ele>23.799999999999997</ele><time>2026-03-24T18:06:49Z</time></trkpt><trkpt lat="45.63332225508265" lon="12.083608709096438"><ele>24.0</ele><time>2026-03-24T18:06:50Z</time></trkpt><trkpt lat="45.633209554623896" lon="12.083627219333449"><ele>24.0</ele><time>2026-03-24T18:06:51Z</time></trkpt><trkpt lat="45.63311120909761" lon="12.083643340906292"><ele>24.0</ele><time>2026-03-24T18:06:52Z</time></trkpt><trkpt lat="45.63300944116052" lon="12.083659785511381"><ele>24.0</ele><time>2026-03-24T18:06:53Z</time></trkpt><trkpt lat="45.63292429302173" lon="12.083673065807062"><ele>24.0</ele><time>2026-03-24T18:06:54Z</time></trkpt><trkpt lat="45.632849078819696" lon="12.083684796763764"><ele>24.0</ele><time>2026-03-24T18:06:55Z</time></trkpt><trkpt lat="45.63275435836876" lon="12.0836995700597"><ele>24.0</ele><time>2026-03-24T18:06:57Z</time></trkpt><trkpt lat="45.63269009199229" lon="12.083709593526123"><ele>24.0</ele><time>2026-03-24T18:07:31.999Z</time></trkpt><trkpt lat="45.63259297053858" lon="12.083724741279934"><ele>24.0</ele><time>2026-03-24T18:07:33.999Z</time></trkpt><trkpt lat="45.632518924608824" lon="12.083757679041733"><ele>24.0</ele><time>2026-03-24T18:07:34.999Z</time></trkpt><trkpt lat="45.63244458605457" lon="12.083760806869657"><ele>24.0</ele><time>2026-03-24T18:07:35.999Z</time></trkpt><trkpt lat="45.63235148559757" lon="12.083775746151888"><ele>24.0</ele><time>2026-03-24T18:07:36.999Z</time></trkpt><trkpt lat="45.63223747632062" lon="12.083800006530295"><ele>24.0</ele><time>2026-03-24T18:07:37.999Z</time></trkpt><trkpt lat="45.63210663578417" lon="12.083825648590265"><ele>24.0</ele><time>2026-03-24T18:07:38.999Z</time></trkpt><trkpt lat="45.63196784977463" lon="12.083841716809081"><ele>24.0</ele><time>2026-03-24T18:07:39.999Z</time></trkpt><trkpt lat="45.631805220800956" lon="12.083866510277241"><ele>24.0</ele><time>2026-03-24T18:07:40.999Z</time></trkpt><trkpt lat="45.63163749833802" lon="12.083897709445067"><ele>23.666666666666668</ele><time>2026-03-24T18:07:41.999Z</time></trkpt><trkpt lat="45.63146089928434" lon="12.083926449822814"><ele>23.333333333333336</ele><time>2026-03-24T18:07:42.999Z</time></trkpt><trkpt lat="45.63127770053935" lon="12.08394818175214"><ele>23.0</ele><time>2026-03-24T18:07:43.999Z</time></trkpt><trkpt lat="45.631088196166765" lon="12.08397626422711"><ele>22.666666666666668</ele><time>2026-03-24T18:07:44.999Z</time></trkpt><trkpt lat="45.63089702911764" lon="12.084007843112387"><ele>22.333333333333332</ele><time>2026-03-24T18:07:45.999Z</time></trkpt><trkpt lat="45.630701889021104" lon="12.084042884053432"><ele>22.0</ele><time>2026-03-24T18:07:46.999Z</time></trkpt><trkpt lat="45.63050177887332" lon="12.084076610763836"><ele>22.0</ele><time>2026-03-24T18:07:47.999Z</time></trkpt><trkpt lat="45.63029460591663" lon="12.084106364233389"><ele>22.0</ele><time>2026-03-24T18:07:48.999Z</time></trkpt><trkpt lat="45.63009041881135" lon="12.084138174073615"><ele>22.0</ele><time>2026-03-24T18:07:49.999Z</time></trkpt><trkpt lat="45.62989403692962" lon="12.08417043064477"><ele>22.0</ele><time>2026-03-24T18:07:50.999Z</time></trkpt><trkpt lat="45.62971536363318" lon="12.08420420498875"><ele>22.0</ele><time>2026-03-24T18:07:51.999Z</time></trkpt><trkpt lat="45.62955385859982" lon="12.084234618151694"><ele>22.0</ele><time>2026-03-24T18:07:52.999Z</time></trkpt><trkpt lat="45.62939707849945" lon="12.08425493315566"><ele>22.25</ele><time>2026-03-24T18:07:53.999Z</time></trkpt><trkpt lat="45.62925454368016" lon="12.08427361517144"><ele>22.5</ele><time>2026-03-24T18:07:54.999Z</time></trkpt><trkpt lat="45.62912434754504" lon="12.08429170987143"><ele>22.75</ele><time>2026-03-24T18:07:55.999Z</time></trkpt><trkpt lat="45.62899950396371" lon="12.084310937834841"><ele>23.0</ele><time>2026-03-24T18:07:56.999Z</time></trkpt><trkpt lat="45.62888539774305" lon="12.084325606789806"><ele>23.0</ele><time>2026-03-24T18:07:57.998Z</time></trkpt><trkpt lat="45.62878910999699" lon="12.084345123415272"><ele>23.0</ele><time>2026-03-24T18:07:58.998Z</time></trkpt><trkpt lat="45.62870302513993" lon="12.084376372949304"><ele>23.0</ele><time>2026-03-24T18:07:59.998Z</time></trkpt><trkpt lat="45.628611598823824" lon="12.084407350211892"><ele>23.0</ele><time>2026-03-24T18:08:00.998Z</time></trkpt><trkpt lat="45.62850336353194" lon="12.084415020188631"><ele>23.0</ele><time>2026-03-24T18:08:01.998Z</time></trkpt><trkpt lat="45.628384838069344" lon="12.084400283961687"><ele>23.0</ele><time>2026-03-24T18:08:02.998Z</time></trkpt><trkpt lat="45.628261092104154" lon="12.084378016858755"><ele>23.0</ele><time>2026-03-24T18:08:03.998Z</time></trkpt><trkpt lat="45.62813013613742" lon="12.084346158133995"><ele>23.0</ele><time>2026-03-24T18:08:04.998Z</time></trkpt><trkpt lat="45.6279988226461" lon="12.084321565300058"><ele>23.0</ele><time>2026-03-24T18:08:05.998Z</time></trkpt><trkpt lat="45.62787238617256" lon="12.084299074147571"><ele>22.75</ele><time>2026-03-24T18:08:06.998Z</time></trkpt><trkpt lat="45.62774828976542" lon="12.084263682971924"><ele>22.5</ele><time>2026-03-24T18:08:07.998Z</time></trkpt><trkpt lat="45.627610692437415" lon="12.084215831995888"><ele>22.25</ele><time>2026-03-24T18:08:08.998Z</time></trkpt><trkpt lat="45.62746838145555" lon="12.084157885983851"><ele>22.0</ele><time>2026-03-24T18:08:09.998Z</time></trkpt><trkpt lat="45.627318677790484" lon="12.084092959806604"><ele>22.0</ele><time>2026-03-24T18:08:10.998Z</time></trkpt><trkpt lat="45.62716033526087" lon="12.084008932888038"><ele>22.0</ele><time>2026-03-24T18:08:11.998Z</time></trkpt><trkpt lat="45.62698526765903" lon="12.083914527372198"><ele>22.0</ele><time>2026-03-24T18:08:12.998Z</time></trkpt><trkpt lat="45.62680098078239" lon="12.083817346710633"><ele>21.666666666666664</ele><time>2026-03-24T18:08:13.998Z</time></trkpt><trkpt lat="45.62661183874391" lon="12.083717005993508"><ele>21.333333333333332</ele><time>2026-03-24T18:08:14.998Z</time></trkpt><trkpt lat="45.626418369832805" lon="12.083613076991213"><ele>21.0</ele><time>2026-03-24T18:08:15.998Z</time></trkpt><trkpt lat="45.626220555950674" lon="12.083506623139122"><ele>21.333333333333332</ele><time>2026-03-24T18:08:16.998Z</time></trkpt><trkpt lat="45.62601875284046" lon="12.083400016881685"><ele>21.666666666666664</ele><time>2026-03-24T18:08:17.998Z</time></trkpt><trkpt lat="45.62582495784146" lon="12.083291925784192"><ele>22.0</ele><time>2026-03-24T18:08:18.998Z</time></trkpt><trkpt lat="45.62563342917048" lon="12.083190336976207"><ele>22.0</ele><time>2026-03-24T18:08:19.998Z</time></trkpt><trkpt lat="45.62546319124299" lon="12.083097141941659"><ele>22.0</ele><time>2026-03-24T18:08:20.998Z</time></trkpt><trkpt lat="45.62529256083833" lon="12.083009759218992"><ele>22.0</ele><time>2026-03-24T18:08:21.998Z</time></trkpt><trkpt lat="45.62512800376512" lon="12.082919307460223"><ele>23.0</ele><time>2026-03-24T18:08:22.998Z</time></trkpt><trkpt lat="45.62495639843357" lon="12.082833158432374"><ele>24.0</ele><time>2026-03-24T18:08:23.998Z</time></trkpt><trkpt lat="45.62479333079638" lon="12.08274037337812"><ele>25.0</ele><time>2026-03-24T18:08:24.998Z</time></trkpt><trkpt lat="45.62462284695447" lon="12.082645983018429"><ele>24.333333333333336</ele><time>2026-03-24T18:08:26Z</time></trkpt><trkpt lat="45.62445695627455" lon="12.082547460078676"><ele>23.666666666666668</ele><time>2026-03-24T18:08:27Z</time></trkpt><trkpt lat="45.62427733764092" lon="12.082458273527497"><ele>23.0</ele><time>2026-03-24T18:08:28Z</time></trkpt><trkpt lat="45.62409357062139" lon="12.082360710292383"><ele>23.0</ele><time>2026-03-24T18:08:29Z</time></trkpt><trkpt lat="45.62391728806269" lon="12.082265941635384"><ele>23.0</ele><time>2026-03-24T18:08:30Z</time></trkpt><trkpt lat="45.62374292103428" lon="12.082165238346409"><ele>23.0</ele><time>2026-03-24T18:08:31Z</time></trkpt><trkpt lat="45.623565052970754" lon="12.082071880595361"><ele>22.666666666666668</ele><time>2026-03-24T18:08:32Z</time></trkpt><trkpt lat="45.62338755137062" lon="12.08197215667425"><ele>22.333333333333332</ele><time>2026-03-24T18:08:33Z</time></trkpt><trkpt lat="45.623206895571535" lon="12.081870910432526"><ele>22.0</ele><time>2026-03-24T18:08:34Z</time></trkpt><trkpt lat="45.62302150138746" lon="12.08177198795627"><ele>22.0</ele><time>2026-03-24T18:08:35Z</time></trkpt><trkpt lat="45.6228365710936" lon="12.081671089188069"><ele>22.0</ele><time>2026-03-24T18:08:36Z</time></trkpt><trkpt lat="45.6226498255414" lon="12.081568521954265"><ele>22.0</ele><time>2026-03-24T18:08:37Z</time></trkpt><trkpt lat="45.62246031945717" lon="12.081470246335012"><ele>21.666666666666664</ele><time>2026-03-24T18:08:38Z</time></trkpt><trkpt lat="45.62227597983514" lon="12.081364634987668"><ele>21.333333333333332</ele><time>2026-03-24T18:08:39Z</time></trkpt><trkpt lat="45.62208567130205" lon="12.081263173389795"><ele>21.0</ele><time>2026-03-24T18:08:40Z</time></trkpt><trkpt lat="45.6219018282588" lon="12.08115997309055"><ele>20.666666666666668</ele><time>2026-03-24T18:08:41Z</time></trkpt><trkpt lat="45.62171446576224" lon="12.081057192413025"><ele>20.333333333333336</ele><time>2026-03-24T18:08:42Z</time></trkpt><trkpt lat="45.621523485140386" lon="12.080958973982709"><ele>20.0</ele><time>2026-03-24T18:08:43Z</time></trkpt><trkpt lat="45.62134071086099" lon="12.080857998059786"><ele>20.0</ele><time>2026-03-24T18:08:44Z</time></trkpt><trkpt lat="45.6211528491902" lon="12.080752141464144"><ele>20.0</ele><time>2026-03-24T18:08:45Z</time></trkpt><trkpt lat="45.62096704539939" lon="12.08064927243627"><ele>20.0</ele><time>2026-03-24T18:08:46Z</time></trkpt><trkpt lat="45.62077422073295" lon="12.080544519090257"><ele>20.333333333333336</ele><time>2026-03-24T18:08:47Z</time></trkpt><trkpt lat="45.62058617724874" lon="12.080444695065859"><ele>20.666666666666668</ele><time>2026-03-24T18:08:48Z</time></trkpt><trkpt lat="45.62039356111183" lon="12.080340928519353"><ele>21.0</ele><time>2026-03-24T18:08:49Z</time></trkpt><trkpt lat="45.6202048933569" lon="12.080239703914941"><ele>20.0</ele><time>2026-03-24T18:08:50Z</time></trkpt><trkpt lat="45.62001868626515" lon="12.080139160803087"><ele>19.0</ele><time>2026-03-24T18:08:51Z</time></trkpt><trkpt lat="45.61983449126956" lon="12.080049429393188"><ele>18.0</ele><time>2026-03-24T18:08:52Z</time></trkpt><trkpt lat="45.61965474274585" lon="12.07997947677151"><ele>18.333333333333332</ele><time>2026-03-24T18:08:53Z</time></trkpt><trkpt lat="45.61946762986609" lon="12.079905613413555"><ele>18.666666666666664</ele><time>2026-03-24T18:08:54Z</time></trkpt><trkpt lat="45.61926290731662" lon="12.079888027936246"><ele>19.0</ele><time>2026-03-24T18:08:55Z</time></trkpt><trkpt lat="45.61905091009987" lon="12.079850520940711"><ele>19.0</ele><time>2026-03-24T18:08:56Z</time></trkpt><trkpt lat="45.61884296376563" lon="12.07982709695574"><ele>19.0</ele><time>2026-03-24T18:08:57Z</time></trkpt><trkpt lat="45.61862949440893" lon="12.079800999542183"><ele>19.0</ele><time>2026-03-24T18:08:58Z</time></trkpt><trkpt lat="45.61841692466097" lon="12.079773228183173"><ele>19.0</ele><time>2026-03-24T18:08:59Z</time></trkpt><trkpt lat="45.61820312808989" lon="12.07973800833074"><ele>19.0</ele><time>2026-03-24T18:09:00Z</time></trkpt><trkpt lat="45.61799747630448" lon="12.07971765257205"><ele>19.0</ele><time>2026-03-24T18:09:01Z</time></trkpt><trkpt lat="45.61780723018974" lon="12.079690168606264"><ele>18.666666666666664</ele><time>2026-03-24T18:09:02Z</time></trkpt><trkpt lat="45.617628628666836" lon="12.079662683225163"><ele>18.333333333333332</ele><time>2026-03-24T18:09:03Z</time></trkpt><trkpt lat="45.61744751378004" lon="12.079640354164994"><ele>18.0</ele><time>2026-03-24T18:09:04Z</time></trkpt><trkpt lat="45.617264558413574" lon="12.079628877851459"><ele>18.0</ele><time>2026-03-24T18:09:05Z</time></trkpt><trkpt lat="45.61709950208973" lon="12.079607619505465"><ele>18.0</ele><time>2026-03-24T18:09:06Z</time></trkpt><trkpt lat="45.61694955436163" lon="12.079586409996201"><ele>18.0</ele><time>2026-03-24T18:09:07Z</time></trkpt><trkpt lat="45.61681066463104" lon="12.079567350388487"><ele>18.25</ele><time>2026-03-24T18:09:08Z</time></trkpt><trkpt lat="45.616682037155336" lon="12.079546869991477"><ele>18.5</ele><time>2026-03-24T18:09:08.999Z</time></trkpt><trkpt lat="45.61656205212573" lon="12.079525643104255"><ele>18.75</ele><time>2026-03-24T18:09:09.999Z</time></trkpt><trkpt lat="45.61645427091223" lon="12.079525179586861"><ele>19.0</ele><time>2026-03-24T18:09:10.999Z</time></trkpt><trkpt lat="45.61634973938646" lon="12.0794919910156"><ele>19.0</ele><time>2026-03-24T18:09:11.999Z</time></trkpt><trkpt lat="45.616267770408" lon="12.079488237600868"><ele>19.0</ele><time>2026-03-24T18:09:12.999Z</time></trkpt><trkpt lat="45.61618209823836" lon="12.079478104898365"><ele>19.0</ele><time>2026-03-24T18:09:13.999Z</time></trkpt><trkpt lat="45.61610018589852" lon="12.079462591492625"><ele>19.0</ele><time>2026-03-24T18:09:14.999Z</time></trkpt><trkpt lat="45.61601405910169" lon="12.079440783833446"><ele>19.0</ele><time>2026-03-24T18:09:15.999Z</time></trkpt><trkpt lat="45.615928756858565" lon="12.079403675761565"><ele>19.0</ele><time>2026-03-24T18:09:16.999Z</time></trkpt><trkpt lat="45.61585021760186" lon="12.079348608056577"><ele>19.0</ele><time>2026-03-24T18:09:17.999Z</time></trkpt><trkpt lat="45.61577995399834" lon="12.079270674446256"><ele>19.0</ele><time>2026-03-24T18:09:18.999Z</time></trkpt><trkpt lat="45.615708300821964" lon="12.079191910848898"><ele>19.0</ele><time>2026-03-24T18:09:19.999Z</time></trkpt><trkpt lat="45.61564291766144" lon="12.079134840000139"><ele>19.0</ele><time>2026-03-24T18:09:20.999Z</time></trkpt><trkpt lat="45.61555877240192" lon="12.079140257520377"><ele>19.0</ele><time>2026-03-24T18:09:21.999Z</time></trkpt><trkpt lat="45.615495656175646" lon="12.079175102455691"><ele>19.0</ele><time>2026-03-24T18:09:22.999Z</time></trkpt><trkpt lat="45.61545116858465" lon="12.079276226759943"><ele>19.0</ele><time>2026-03-24T18:09:23.999Z</time></trkpt><trkpt lat="45.61534224873034" lon="12.0793105267625"><ele>19.0</ele><time>2026-03-24T18:09:24.999Z</time></trkpt><trkpt lat="45.61522646781525" lon="12.079342081761578"><ele>19.0</ele><time>2026-03-24T18:09:25.999Z</time></trkpt><trkpt lat="45.6150877725818" lon="12.079336549247186"><ele>19.0</ele><time>2026-03-24T18:09:26.999Z</time></trkpt><trkpt lat="45.61493649841127" lon="12.079308330829068"><ele>18.666666666666664</ele><time>2026-03-24T18:09:27.999Z</time></trkpt><trkpt lat="45.61478562501452" lon="12.079286835378822"><ele>18.333333333333332</ele><time>2026-03-24T18:09:28.999Z</time></trkpt><trkpt lat="45.61462356635805" lon="12.079270371394152"><ele>18.0</ele><time>2026-03-24T18:09:29.999Z</time></trkpt><trkpt lat="45.6144559437216" lon="12.079251048285142"><ele>18.666666666666668</ele><time>2026-03-24T18:09:30.999Z</time></trkpt><trkpt lat="45.614269839519295" lon="12.079230437684762"><ele>19.333333333333336</ele><time>2026-03-24T18:09:31.999Z</time></trkpt><trkpt lat="45.61408656465319" lon="12.07920781682622"><ele>20.0</ele><time>2026-03-24T18:09:32.999Z</time></trkpt><trkpt lat="45.613901455527774" lon="12.079184301427695"><ele>20.0</ele><time>2026-03-24T18:09:33.999Z</time></trkpt><trkpt lat="45.61371397453147" lon="12.079163303644235"><ele>20.0</ele><time>2026-03-24T18:09:34.999Z</time></trkpt><trkpt lat="45.61353440147746" lon="12.079141145765526"><ele>20.0</ele><time>2026-03-24T18:09:35.999Z</time></trkpt><trkpt lat="45.613365807482566" lon="12.079099837454471"><ele>20.333333333333336</ele><time>2026-03-24T18:09:36.999Z</time></trkpt><trkpt lat="45.61320389634001" lon="12.0790821044231"><ele>20.666666666666668</ele><time>2026-03-24T18:09:37.999Z</time></trkpt><trkpt lat="45.613038904835946" lon="12.079058564699546"><ele>21.0</ele><time>2026-03-24T18:09:38.999Z</time></trkpt><trkpt lat="45.612873792532845" lon="12.079031892711537"><ele>19.666666666666668</ele><time>2026-03-24T18:09:39.999Z</time></trkpt><trkpt lat="45.61271501611484" lon="12.078994175533346"><ele>18.333333333333336</ele><time>2026-03-24T18:09:40.999Z</time></trkpt><trkpt lat="45.612554481211866" lon="12.07894267148528"><ele>17.0</ele><time>2026-03-24T18:09:41.999Z</time></trkpt><trkpt lat="45.61239803282987" lon="12.078892979168662"><ele>17.0</ele><time>2026-03-24T18:09:42.999Z</time></trkpt><trkpt lat="45.612237527702746" lon="12.078837652214723"><ele>17.0</ele><time>2026-03-24T18:09:43.999Z</time></trkpt><trkpt lat="45.612075174705055" lon="12.078777144277748"><ele>17.0</ele><time>2026-03-24T18:09:44.999Z</time></trkpt><trkpt lat="45.61191136468574" lon="12.078719117888465"><ele>17.0</ele><time>2026-03-24T18:09:45.999Z</time></trkpt><trkpt lat="45.61174276775293" lon="12.078680335935115"><ele>17.0</ele><time>2026-03-24T18:09:46.999Z</time></trkpt><trkpt lat="45.611556906634775" lon="12.078664302497698"><ele>17.0</ele><time>2026-03-24T18:09:47.999Z</time></trkpt><trkpt lat="45.611362183255565" lon="12.078677802035301"><ele>17.0</ele><time>2026-03-24T18:09:48.999Z</time></trkpt><trkpt lat="45.611164495151286" lon="12.078711354146039"><ele>17.0</ele><time>2026-03-24T18:09:49.999Z</time></trkpt><trkpt lat="45.61096136846991" lon="12.078740890201964"><ele>17.0</ele><time>2026-03-24T18:09:50.999Z</time></trkpt><trkpt lat="45.610745165687625" lon="12.078716140910482"><ele>17.333333333333336</ele><time>2026-03-24T18:09:51.999Z</time></trkpt><trkpt lat="45.61052812894655" lon="12.078703228026415"><ele>17.666666666666668</ele><time>2026-03-24T18:09:52.999Z</time></trkpt><trkpt lat="45.610309396617915" lon="12.07868781985351"><ele>18.0</ele><time>2026-03-24T18:09:53.999Z</time></trkpt><trkpt lat="45.610112944069215" lon="12.078690635946087"><ele>18.333333333333332</ele><time>2026-03-24T18:09:54.999Z</time></trkpt><trkpt lat="45.60993176084706" lon="12.078669677966472"><ele>18.666666666666664</ele><time>2026-03-24T18:09:55.999Z</time></trkpt><trkpt lat="45.60975721205082" lon="12.078653142904429"><ele>19.0</ele><time>2026-03-24T18:09:56.999Z</time></trkpt><trkpt lat="45.60959534946364" lon="12.078639404123093"><ele>18.333333333333332</ele><time>2026-03-24T18:09:57.999Z</time></trkpt><trkpt lat="45.60944229007943" lon="12.078631455055039"><ele>17.666666666666668</ele><time>2026-03-24T18:09:58.999Z</time></trkpt><trkpt lat="45.609294135159196" lon="12.078648287806345"><ele>17.0</ele><time>2026-03-24T18:09:59.999Z</time></trkpt><trkpt lat="45.6091424647426" lon="12.078659683247253"><ele>17.0</ele><time>2026-03-24T18:10:00.999Z</time></trkpt><trkpt lat="45.60898962199831" lon="12.07865748801362"><ele>17.0</ele><time>2026-03-24T18:10:01.999Z</time></trkpt><trkpt lat="45.60883241110977" lon="12.078625208272852"><ele>17.0</ele><time>2026-03-24T18:10:02.999Z</time></trkpt><trkpt lat="45.608676568085464" lon="12.078573291407729"><ele>17.0</ele><time>2026-03-24T18:10:03.999Z</time></trkpt><trkpt lat="45.60851741604838" lon="12.078496439646056"><ele>17.0</ele><time>2026-03-24T18:10:04.998Z</time></trkpt><trkpt lat="45.60835295155833" lon="12.078406106832462"><ele>17.0</ele><time>2026-03-24T18:10:05.998Z</time></trkpt><trkpt lat="45.60819695471135" lon="12.078301356591776"><ele>17.333333333333336</ele><time>2026-03-24T18:10:06.998Z</time></trkpt><trkpt lat="45.60801827513632" lon="12.0782146885368"><ele>17.666666666666668</ele><time>2026-03-24T18:10:07.998Z</time></trkpt><trkpt lat="45.607853810014404" lon="12.078118316190551"><ele>18.0</ele><time>2026-03-24T18:10:08.998Z</time></trkpt><trkpt lat="45.60770218905812" lon="12.078023100593056"><ele>17.333333333333332</ele><time>2026-03-24T18:10:09.998Z</time></trkpt><trkpt lat="45.60756171226974" lon="12.077930675496436"><ele>16.666666666666664</ele><time>2026-03-24T18:10:10.998Z</time></trkpt><trkpt lat="45.60742361325302" lon="12.077824318290915"><ele>16.0</ele><time>2026-03-24T18:10:11.998Z</time></trkpt><trkpt lat="45.60728853253978" lon="12.077718376746363"><ele>16.0</ele><time>2026-03-24T18:10:12.998Z</time></trkpt><trkpt lat="45.607156759313746" lon="12.077613880108576"><ele>16.0</ele><time>2026-03-24T18:10:13.998Z</time></trkpt><trkpt lat="45.60702549258584" lon="12.077520758902944"><ele>16.0</ele><time>2026-03-24T18:10:14.998Z</time></trkpt><trkpt lat="45.606901942422056" lon="12.077447192440125"><ele>16.0</ele><time>2026-03-24T18:10:15.998Z</time></trkpt><trkpt lat="45.60677659784758" lon="12.077405057320417"><ele>16.0</ele><time>2026-03-24T18:10:16.998Z</time></trkpt><trkpt lat="45.606665530123294" lon="12.077372306374691"><ele>16.0</ele><time>2026-03-24T18:10:17.998Z</time></trkpt><trkpt lat="45.60653900166725" lon="12.077339489999588"><ele>16.0</ele><time>2026-03-24T18:10:18.998Z</time></trkpt><trkpt lat="45.60640730409898" lon="12.077310023468161"><ele>16.0</ele><time>2026-03-24T18:10:19.998Z</time></trkpt><trkpt lat="45.60626392037344" lon="12.07727625505205"><ele>16.333333333333332</ele><time>2026-03-24T18:10:20.998Z</time></trkpt><trkpt lat="45.606111338563345" lon="12.077251003920807"><ele>16.666666666666668</ele><time>2026-03-24T18:10:21.998Z</time></trkpt><trkpt lat="45.605949852261354" lon="12.077234351133601"><ele>17.0</ele><time>2026-03-24T18:10:22.998Z</time></trkpt><trkpt lat="45.6057765815548" lon="12.07721551453548"><ele>17.0</ele><time>2026-03-24T18:10:23.998Z</time></trkpt><trkpt lat="45.60559836815513" lon="12.077195746428815"><ele>17.0</ele><time>2026-03-24T18:10:24.998Z</time></trkpt><trkpt lat="45.605411413955636" lon="12.077182017044253"><ele>17.0</ele><time>2026-03-24T18:10:25.998Z</time></trkpt><trkpt lat="45.60523976296639" lon="12.077159221281262"><ele>17.25</ele><time>2026-03-24T18:10:26.998Z</time></trkpt><trkpt lat="45.605081509741375" lon="12.077131024835154"><ele>17.5</ele><time>2026-03-24T18:10:27.998Z</time></trkpt><trkpt lat="45.60494207635486" lon="12.077121417638514"><ele>17.75</ele><time>2026-03-24T18:10:28.998Z</time></trkpt><trkpt lat="45.60480744027999" lon="12.077109108164933"><ele>18.0</ele><time>2026-03-24T18:10:29.998Z</time></trkpt><trkpt lat="45.60466731892337" lon="12.077102124459588"><ele>18.0</ele><time>2026-03-24T18:10:30.998Z</time></trkpt><trkpt lat="45.604528966151605" lon="12.077083039133992"><ele>18.0</ele><time>2026-03-24T18:10:32Z</time></trkpt><trkpt lat="45.60438336497511" lon="12.077063608577628"><ele>18.0</ele><time>2026-03-24T18:10:33Z</time></trkpt><trkpt lat="45.60423918692878" lon="12.077042962516574"><ele>18.0</ele><time>2026-03-24T18:10:34Z</time></trkpt><trkpt lat="45.60409356896896" lon="12.077027035099333"><ele>17.666666666666668</ele><time>2026-03-24T18:10:35Z</time></trkpt><trkpt lat="45.60393861212758" lon="12.077011126841082"><ele>17.333333333333336</ele><time>2026-03-24T18:10:36Z</time></trkpt><trkpt lat="45.603776501043534" lon="12.076994224983611"><ele>17.0</ele><time>2026-03-24T18:10:37Z</time></trkpt><trkpt lat="45.60360795456952" lon="12.076978900594897"><ele>17.0</ele><time>2026-03-24T18:10:38Z</time></trkpt><trkpt lat="45.60342994098393" lon="12.076966047256848"><ele>17.0</ele><time>2026-03-24T18:10:39Z</time></trkpt><trkpt lat="45.60324807978336" lon="12.07694769209428"><ele>17.0</ele><time>2026-03-24T18:10:40Z</time></trkpt><trkpt lat="45.60306107680837" lon="12.076934915351801"><ele>17.0</ele><time>2026-03-24T18:10:41Z</time></trkpt><trkpt lat="45.60288185676293" lon="12.076924664440744"><ele>17.0</ele><time>2026-03-24T18:10:42Z</time></trkpt><trkpt lat="45.60271013431791" lon="12.076922625877524"><ele>17.0</ele><time>2026-03-24T18:10:43Z</time></trkpt><trkpt lat="45.60255133776753" lon="12.076927217925606"><ele>17.0</ele><time>2026-03-24T18:10:44Z</time></trkpt><trkpt lat="45.6024121758796" lon="12.076935270257204"><ele>17.0</ele><time>2026-03-24T18:10:45Z</time></trkpt><trkpt lat="45.60226863418216" lon="12.076945457195563"><ele>17.0</ele><time>2026-03-24T18:10:46Z</time></trkpt><trkpt lat="45.602127847097414" lon="12.076960583074934"><ele>17.0</ele><time>2026-03-24T18:10:47Z</time></trkpt><trkpt lat="45.601978381214735" lon="12.076972917293174"><ele>17.0</ele><time>2026-03-24T18:10:48Z</time></trkpt><trkpt lat="45.601825246960395" lon="12.076982456806231"><ele>17.0</ele><time>2026-03-24T18:10:49Z</time></trkpt><trkpt lat="45.60167073997839" lon="12.076985490009383"><ele>17.0</ele><time>2026-03-24T18:10:50Z</time></trkpt><trkpt lat="45.60151260091802" lon="12.076988081714124"><ele>17.0</ele><time>2026-03-24T18:10:51Z</time></trkpt><trkpt lat="45.60135291188925" lon="12.076988111778263"><ele>17.0</ele><time>2026-03-24T18:10:52Z</time></trkpt><trkpt lat="45.60119415450036" lon="12.076985154149057"><ele>17.0</ele><time>2026-03-24T18:10:53Z</time></trkpt><trkpt lat="45.60105854614296" lon="12.076980973321925"><ele>16.666666666666668</ele><time>2026-03-24T18:10:54Z</time></trkpt><trkpt lat="45.60090161877006" lon="12.076962409874568"><ele>16.333333333333332</ele><time>2026-03-24T18:10:55Z</time></trkpt><trkpt lat="45.60074916535532" lon="12.076909697336097"><ele>16.0</ele><time>2026-03-24T18:10:56Z</time></trkpt><trkpt lat="45.600602031615935" lon="12.076841935290577"><ele>16.0</ele><time>2026-03-24T18:10:57Z</time></trkpt><trkpt lat="45.60045884647807" lon="12.076752039501295"><ele>16.0</ele><time>2026-03-24T18:10:58Z</time></trkpt><trkpt lat="45.6003134367556" lon="12.076654484672629"><ele>16.0</ele><time>2026-03-24T18:10:59Z</time></trkpt><trkpt lat="45.600167146188035" lon="12.076535763667067"><ele>16.333333333333332</ele><time>2026-03-24T18:11:00Z</time></trkpt><trkpt lat="45.6000153312635" lon="12.076405133135998"><ele>16.666666666666668</ele><time>2026-03-24T18:11:01Z</time></trkpt><trkpt lat="45.59985923417291" lon="12.076275625665405"><ele>17.0</ele><time>2026-03-24T18:11:02Z</time></trkpt><trkpt lat="45.599681979947036" lon="12.07618208121414"><ele>17.0</ele><time>2026-03-24T18:11:03Z</time></trkpt><trkpt lat="45.599506065415994" lon="12.076089004598625"><ele>17.0</ele><time>2026-03-24T18:11:04Z</time></trkpt><trkpt lat="45.59932770694029" lon="12.076021113181175"><ele>17.0</ele><time>2026-03-24T18:11:05Z</time></trkpt><trkpt lat="45.59914734429851" lon="12.075959058889817"><ele>16.666666666666668</ele><time>2026-03-24T18:11:06Z</time></trkpt><trkpt lat="45.598961426739876" lon="12.075908779263358"><ele>16.333333333333332</ele><time>2026-03-24T18:11:07Z</time></trkpt><trkpt lat="45.59876185678823" lon="12.075873480871959"><ele>16.0</ele><time>2026-03-24T18:11:08Z</time></trkpt><trkpt lat="45.598556554935584" lon="12.075861763840766"><ele>16.0</ele><time>2026-03-24T18:11:09Z</time></trkpt><trkpt lat="45.5983453016605" lon="12.075830176086628"><ele>16.0</ele><time>2026-03-24T18:11:10Z</time></trkpt><trkpt lat="45.59813823888408" lon="12.075807398355398"><ele>16.0</ele><time>2026-03-24T18:11:11Z</time></trkpt><trkpt lat="45.597935313185815" lon="12.075777653616756"><ele>15.333333333333332</ele><time>2026-03-24T18:11:12Z</time></trkpt><trkpt lat="45.59773895918261" lon="12.075751874843538"><ele>14.666666666666668</ele><time>2026-03-24T18:11:13Z</time></trkpt><trkpt lat="45.597542399376" lon="12.075727643286282"><ele>14.0</ele><time>2026-03-24T18:11:13.999Z</time></trkpt><trkpt lat="45.597352518442484" lon="12.075705399320922"><ele>14.0</ele><time>2026-03-24T18:11:14.999Z</time></trkpt><trkpt lat="45.59715868921411" lon="12.075681144021736"><ele>14.0</ele><time>2026-03-24T18:11:15.999Z</time></trkpt><trkpt lat="45.59696453757011" lon="12.075658573290452"><ele>14.0</ele><time>2026-03-24T18:11:16.999Z</time></trkpt><trkpt lat="45.59676902476144" lon="12.07562783605628"><ele>13.666666666666668</ele><time>2026-03-24T18:11:17.999Z</time></trkpt><trkpt lat="45.5965703750297" lon="12.075598615115585"><ele>13.333333333333332</ele><time>2026-03-24T18:11:18.999Z</time></trkpt><trkpt lat="45.596367476920925" lon="12.075569458245834"><ele>13.0</ele><time>2026-03-24T18:11:19.999Z</time></trkpt><trkpt lat="45.596162933088614" lon="12.075542247220259"><ele>14.0</ele><time>2026-03-24T18:11:20.999Z</time></trkpt><trkpt lat="45.595960885339515" lon="12.075514295328901"><ele>15.0</ele><time>2026-03-24T18:11:21.999Z</time></trkpt><trkpt lat="45.59576044899009" lon="12.07548640865375"><ele>16.0</ele><time>2026-03-24T18:11:22.999Z</time></trkpt><trkpt lat="45.59556101109749" lon="12.075465000573168"><ele>16.0</ele><time>2026-03-24T18:11:23.999Z</time></trkpt><trkpt lat="45.59535950714149" lon="12.075440021064352"><ele>16.0</ele><time>2026-03-24T18:11:24.999Z</time></trkpt><trkpt lat="45.59515465971472" lon="12.075415876333375"><ele>16.0</ele><time>2026-03-24T18:11:25.999Z</time></trkpt><trkpt lat="45.5949582920719" lon="12.075395382834005"><ele>16.0</ele><time>2026-03-24T18:11:26.999Z</time></trkpt><trkpt lat="45.59476134562407" lon="12.075374407154"><ele>16.0</ele><time>2026-03-24T18:11:27.999Z</time></trkpt><trkpt lat="45.59456263696729" lon="12.075354032446631"><ele>16.0</ele><time>2026-03-24T18:11:28.999Z</time></trkpt><trkpt lat="45.594370366690626" lon="12.075334636342676"><ele>15.333333333333332</ele><time>2026-03-24T18:11:29.999Z</time></trkpt><trkpt lat="45.5941813791101" lon="12.075316192437189"><ele>14.666666666666668</ele><time>2026-03-24T18:11:30.999Z</time></trkpt><trkpt lat="45.593995635766575" lon="12.075297833145378"><ele>14.0</ele><time>2026-03-24T18:11:31.999Z</time></trkpt><trkpt lat="45.59382047839139" lon="12.075269477101296"><ele>13.666666666666668</ele><time>2026-03-24T18:11:32.999Z</time></trkpt><trkpt lat="45.59362464534806" lon="12.075248756809417"><ele>13.333333333333332</ele><time>2026-03-24T18:11:33.999Z</time></trkpt><trkpt lat="45.59342388434474" lon="12.075233108676953"><ele>13.0</ele><time>2026-03-24T18:11:34.999Z</time></trkpt><trkpt lat="45.59322740872151" lon="12.075214869101798"><ele>13.0</ele><time>2026-03-24T18:11:35.999Z</time></trkpt><trkpt lat="45.59303115284166" lon="12.07519324938771"><ele>13.0</ele><time>2026-03-24T18:11:36.999Z</time></trkpt><trkpt lat="45.592831297646356" lon="12.07517313795708"><ele>13.0</ele><time>2026-03-24T18:11:37.999Z</time></trkpt><trkpt lat="45.59262835790171" lon="12.07515858530571"><ele>14.0</ele><time>2026-03-24T18:11:38.999Z</time></trkpt><trkpt lat="45.592426361550984" lon="12.075144281625311"><ele>15.0</ele><time>2026-03-24T18:11:39.999Z</time></trkpt><trkpt lat="45.592247039987946" lon="12.075127674714585"><ele>16.0</ele><time>2026-03-24T18:11:40.999Z</time></trkpt><trkpt lat="45.59206936603989" lon="12.075110232637336"><ele>16.333333333333332</ele><time>2026-03-24T18:11:41.999Z</time></trkpt><trkpt lat="45.59188296490904" lon="12.075092062996582"><ele>16.666666666666668</ele><time>2026-03-24T18:11:42.999Z</time></trkpt><trkpt lat="45.59168555557368" lon="12.075065827719401"><ele>17.0</ele><time>2026-03-24T18:11:43.999Z</time></trkpt><trkpt lat="45.591493891362674" lon="12.075050128914008"><ele>17.0</ele><time>2026-03-24T18:11:44.999Z</time></trkpt><trkpt lat="45.59129542656486" lon="12.07502737061383"><ele>17.0</ele><time>2026-03-24T18:11:45.999Z</time></trkpt><trkpt lat="45.591091727894465" lon="12.075003625874142"><ele>17.0</ele><time>2026-03-24T18:11:46.999Z</time></trkpt><trkpt lat="45.59088919424332" lon="12.074975808937989"><ele>17.333333333333336</ele><time>2026-03-24T18:11:47.999Z</time></trkpt><trkpt lat="45.590684218644505" lon="12.07495513712271"><ele>17.666666666666668</ele><time>2026-03-24T18:11:48.999Z</time></trkpt><trkpt lat="45.590481716128664" lon="12.074932705380382"><ele>18.0</ele><time>2026-03-24T18:11:49.999Z</time></trkpt><trkpt lat="45.590280061894966" lon="12.074910050465915"><ele>17.0</ele><time>2026-03-24T18:11:50.999Z</time></trkpt><trkpt lat="45.59008021413843" lon="12.074888892390124"><ele>16.0</ele><time>2026-03-24T18:11:51.999Z</time></trkpt><trkpt lat="45.58987788909831" lon="12.07486925198573"><ele>15.0</ele><time>2026-03-24T18:11:52.999Z</time></trkpt><trkpt lat="45.58967598735698" lon="12.074837413922337"><ele>15.0</ele><time>2026-03-24T18:11:53.999Z</time></trkpt><trkpt lat="45.589472469298826" lon="12.074817699354293"><ele>15.0</ele><time>2026-03-24T18:11:54.999Z</time></trkpt><trkpt lat="45.58926817001379" lon="12.074800723287938"><ele>15.0</ele><time>2026-03-24T18:11:55.999Z</time></trkpt><trkpt lat="45.58906765363156" lon="12.074780895323155"><ele>15.0</ele><time>2026-03-24T18:11:56.999Z</time></trkpt><trkpt lat="45.58886638552586" lon="12.074757393155322"><ele>15.0</ele><time>2026-03-24T18:11:57.999Z</time></trkpt><trkpt lat="45.588664562568795" lon="12.074731711476636"><ele>15.0</ele><time>2026-03-24T18:11:58.999Z</time></trkpt><trkpt lat="45.588460795201385" lon="12.074706515136285"><ele>15.0</ele><time>2026-03-24T18:11:59.999Z</time></trkpt><trkpt lat="45.58825774066612" lon="12.07468398843047"><ele>15.0</ele><time>2026-03-24T18:12:00.999Z</time></trkpt><trkpt lat="45.58806028421371" lon="12.074659861473732"><ele>15.0</ele><time>2026-03-24T18:12:01.999Z</time></trkpt><trkpt lat="45.58786134302448" lon="12.074636064707022"><ele>15.333333333333332</ele><time>2026-03-24T18:12:02.999Z</time></trkpt><trkpt lat="45.58765976727892" lon="12.074616404406633"><ele>15.666666666666666</ele><time>2026-03-24T18:12:03.999Z</time></trkpt><trkpt lat="45.587454878434" lon="12.074596557930517"><ele>16.0</ele><time>2026-03-24T18:12:04.999Z</time></trkpt><trkpt lat="45.58725408159773" lon="12.074578961288738"><ele>16.0</ele><time>2026-03-24T18:12:05.999Z</time></trkpt><trkpt lat="45.58705306570086" lon="12.074554513432593"><ele>16.0</ele><time>2026-03-24T18:12:06.999Z</time></trkpt><trkpt lat="45.5868506805799" lon="12.074531726816046"><ele>16.0</ele><time>2026-03-24T18:12:07.999Z</time></trkpt><trkpt lat="45.586651424682266" lon="12.074505945962349"><ele>15.333333333333332</ele><time>2026-03-24T18:12:08.998Z</time></trkpt><trkpt lat="45.58645327518973" lon="12.074484152958464"><ele>14.666666666666668</ele><time>2026-03-24T18:12:09.999Z</time></trkpt><trkpt lat="45.586274437358036" lon="12.074463426663911"><ele>14.0</ele><time>2026-03-24T18:12:10.998Z</time></trkpt><trkpt lat="45.58610335279656" lon="12.074443472561628"><ele>14.0</ele><time>2026-03-24T18:12:11.998Z</time></trkpt><trkpt lat="45.585935008791374" lon="12.074422958769413"><ele>14.0</ele><time>2026-03-24T18:12:12.998Z</time></trkpt><trkpt lat="45.58575829051484" lon="12.074403093551668"><ele>14.0</ele><time>2026-03-24T18:12:13.998Z</time></trkpt><trkpt lat="45.58558733537748" lon="12.074383519613034"><ele>14.0</ele><time>2026-03-24T18:12:14.998Z</time></trkpt><trkpt lat="45.58541544875681" lon="12.074366263910816"><ele>14.0</ele><time>2026-03-24T18:12:15.998Z</time></trkpt><trkpt lat="45.585241329057546" lon="12.074350526239392"><ele>14.0</ele><time>2026-03-24T18:12:16.998Z</time></trkpt><trkpt lat="45.585087776005444" lon="12.074330462841791"><ele>14.666666666666668</ele><time>2026-03-24T18:12:17.998Z</time></trkpt><trkpt lat="45.58493868113176" lon="12.074315601566992"><ele>15.333333333333332</ele><time>2026-03-24T18:12:18.998Z</time></trkpt><trkpt lat="45.58478802136975" lon="12.074296918468624"><ele>16.0</ele><time>2026-03-24T18:12:19.998Z</time></trkpt><trkpt lat="45.58463547876727" lon="12.074281088255383"><ele>15.333333333333332</ele><time>2026-03-24T18:12:20.998Z</time></trkpt><trkpt lat="45.58447829856048" lon="12.074262501518936"><ele>14.666666666666668</ele><time>2026-03-24T18:12:21.998Z</time></trkpt><trkpt lat="45.58431469171516" lon="12.074242708032486"><ele>14.0</ele><time>2026-03-24T18:12:22.998Z</time></trkpt><trkpt lat="45.58415191750487" lon="12.074222650652228"><ele>14.0</ele><time>2026-03-24T18:12:23.998Z</time></trkpt><trkpt lat="45.58398540324054" lon="12.074207320334905"><ele>14.0</ele><time>2026-03-24T18:12:24.998Z</time></trkpt><trkpt lat="45.583819697786836" lon="12.074191176408725"><ele>14.0</ele><time>2026-03-24T18:12:25.998Z</time></trkpt><trkpt lat="45.583661896608625" lon="12.074169490408392"><ele>14.0</ele><time>2026-03-24T18:12:26.998Z</time></trkpt><trkpt lat="45.58351111981039" lon="12.07415147627669"><ele>14.0</ele><time>2026-03-24T18:12:27.998Z</time></trkpt><trkpt lat="45.583374299495176" lon="12.074135473790193"><ele>14.0</ele><time>2026-03-24T18:12:28.998Z</time></trkpt><trkpt lat="45.583246174139596" lon="12.074116417985204"><ele>14.0</ele><time>2026-03-24T18:12:29.998Z</time></trkpt><trkpt lat="45.58312656892899" lon="12.07411305419065"><ele>14.25</ele><time>2026-03-24T18:12:30.998Z</time></trkpt><trkpt lat="45.582995851418616" lon="12.074090597748924"><ele>14.5</ele><time>2026-03-24T18:12:31.998Z</time></trkpt><trkpt lat="45.58285818532935" lon="12.07408062843761"><ele>14.75</ele><time>2026-03-24T18:12:32.998Z</time></trkpt><trkpt lat="45.58271781483588" lon="12.07405806998847"><ele>15.0</ele><time>2026-03-24T18:12:33.998Z</time></trkpt><trkpt lat="45.58257600112872" lon="12.074043981290604"><ele>16.333333333333332</ele><time>2026-03-24T18:12:34.998Z</time></trkpt><trkpt lat="45.582428863883806" lon="12.074033505812267"><ele>17.666666666666664</ele><time>2026-03-24T18:12:35.998Z</time></trkpt><trkpt lat="45.58227632098443" lon="12.07401346788437"><ele>19.0</ele><time>2026-03-24T18:12:36.998Z</time></trkpt><trkpt lat="45.5821165514702" lon="12.074004947261047"><ele>18.333333333333332</ele><time>2026-03-24T18:12:38Z</time></trkpt><trkpt lat="45.58194872500968" lon="12.073987783684611"><ele>17.666666666666668</ele><time>2026-03-24T18:12:39Z</time></trkpt><trkpt lat="45.58176878269862" lon="12.073945040762057"><ele>17.0</ele><time>2026-03-24T18:12:40Z</time></trkpt><trkpt lat="45.58156552880802" lon="12.073922783922198"><ele>17.0</ele><time>2026-03-24T18:12:41Z</time></trkpt><trkpt lat="45.581333631862506" lon="12.07389625835578"><ele>17.0</ele><time>2026-03-24T18:12:42Z</time></trkpt><trkpt lat="45.58111942460804" lon="12.073872343708764"><ele>17.0</ele><time>2026-03-24T18:12:43Z</time></trkpt><trkpt lat="45.58093343856284" lon="12.073851077421711"><ele>16.666666666666668</ele><time>2026-03-24T18:12:44Z</time></trkpt><trkpt lat="45.58076196161053" lon="12.073852549788667"><ele>16.333333333333332</ele><time>2026-03-24T18:12:45Z</time></trkpt><trkpt lat="45.58060087510954" lon="12.073829877370072"><ele>16.0</ele><time>2026-03-24T18:12:46Z</time></trkpt><trkpt lat="45.58044918257251" lon="12.0738114060503"><ele>16.25</ele><time>2026-03-24T18:12:47Z</time></trkpt><trkpt lat="45.58031051272889" lon="12.07378637233858"><ele>16.5</ele><time>2026-03-24T18:12:48Z</time></trkpt><trkpt lat="45.580182396971274" lon="12.07377098426198"><ele>16.75</ele><time>2026-03-24T18:12:49Z</time></trkpt><trkpt lat="45.580062037965114" lon="12.073759046729053"><ele>17.0</ele><time>2026-03-24T18:12:50Z</time></trkpt><trkpt lat="45.57995055509677" lon="12.073747995271045"><ele>17.0</ele><time>2026-03-24T18:12:51Z</time></trkpt><trkpt lat="45.57983618868154" lon="12.073733026514184"><ele>17.0</ele><time>2026-03-24T18:12:52Z</time></trkpt><trkpt lat="45.57971707161602" lon="12.073717292485243"><ele>17.0</ele><time>2026-03-24T18:12:53Z</time></trkpt><trkpt lat="45.57961184562286" lon="12.07371167639108"><ele>17.0</ele><time>2026-03-24T18:12:54Z</time></trkpt><trkpt lat="45.579516051369424" lon="12.07370073881829"><ele>17.0</ele><time>2026-03-24T18:12:55Z</time></trkpt><trkpt lat="45.57942382385068" lon="12.073689984569855"><ele>16.833333333333336</ele><time>2026-03-24T18:12:56Z</time></trkpt><trkpt lat="45.579344447451994" lon="12.073686733090076"><ele>16.666666666666668</ele><time>2026-03-24T18:12:57Z</time></trkpt><trkpt lat="45.57926836131803" lon="12.073682868832112"><ele>16.5</ele><time>2026-03-24T18:12:58Z</time></trkpt><trkpt lat="45.57918890779317" lon="12.073671301023406"><ele>16.333333333333332</ele><time>2026-03-24T18:12:59Z</time></trkpt><trkpt lat="45.57909742627556" lon="12.073666583033598"><ele>16.166666666666664</ele><time>2026-03-24T18:13:00Z</time></trkpt><trkpt lat="45.579027098188554" lon="12.07365339791315"><ele>16.0</ele><time>2026-03-24T18:13:01Z</time></trkpt><trkpt lat="45.578954287846805" lon="12.073644122256521"><ele>15.999999999999998</ele><time>2026-03-24T18:13:02Z</time></trkpt><trkpt lat="45.57885075803747" lon="12.073631906527647"><ele>16.0</ele><time>2026-03-24T18:13:04Z</time></trkpt><trkpt lat="45.57877264669098" lon="12.073622893157605"><ele>16.0</ele><time>2026-03-24T18:13:06Z</time></trkpt><trkpt lat="45.57868983634806" lon="12.073608100089464"><ele>16.0</ele><time>2026-03-24T18:13:16.999Z</time></trkpt><trkpt lat="45.57861055327155" lon="12.073589309752652"><ele>15.999999999999998</ele><time>2026-03-24T18:13:18.999Z</time></trkpt><trkpt lat="45.578528956531365" lon="12.073592666730303"><ele>16.0</ele><time>2026-03-24T18:13:20.999Z</time></trkpt><trkpt lat="45.57842580359488" lon="12.07357811303214"><ele>15.5</ele><time>2026-03-24T18:13:22.999Z</time></trkpt><trkpt lat="45.57839409767007" lon="12.073830838380923"><ele>15.0</ele><time>2026-03-24T18:13:24.999Z</time></trkpt><trkpt lat="45.57839720568367" lon="12.073954681165814"><ele>14.5</ele><time>2026-03-24T18:13:25.999Z</time></trkpt><trkpt lat="45.57839570771669" lon="12.074102695946642"><ele>14.0</ele><time>2026-03-24T18:13:26.999Z</time></trkpt><trkpt lat="45.57840710722629" lon="12.074238563095863"><ele>13.75</ele><time>2026-03-24T18:13:27.999Z</time></trkpt><trkpt lat="45.57841002822198" lon="12.074409561647817"><ele>13.5</ele><time>2026-03-24T18:13:28.999Z</time></trkpt><trkpt lat="45.57840761600352" lon="12.074608431808338"><ele>13.25</ele><time>2026-03-24T18:13:29.999Z</time></trkpt><trkpt lat="45.57840629033667" lon="12.074832166418844"><ele>13.0</ele><time>2026-03-24T18:13:30.999Z</time></trkpt><trkpt lat="45.578399917569804" lon="12.075068159105012"><ele>13.666666666666666</ele><time>2026-03-24T18:13:31.999Z</time></trkpt><trkpt lat="45.5783941373324" lon="12.075303708690322"><ele>14.333333333333332</ele><time>2026-03-24T18:13:32.999Z</time></trkpt><trkpt lat="45.5783847896186" lon="12.075558788695057"><ele>15.0</ele><time>2026-03-24T18:13:33.999Z</time></trkpt><trkpt lat="45.57837238504214" lon="12.075831160810283"><ele>15.333333333333332</ele><time>2026-03-24T18:13:34.999Z</time></trkpt><trkpt lat="45.578361658084454" lon="12.076109116189116"><ele>15.666666666666666</ele><time>2026-03-24T18:13:35.999Z</time></trkpt><trkpt lat="45.57833900286847" lon="12.076388065290683"><ele>16.0</ele><time>2026-03-24T18:13:36.999Z</time></trkpt><trkpt lat="45.578311327947894" lon="12.07667767702393"><ele>16.333333333333332</ele><time>2026-03-24T18:13:37.999Z</time></trkpt><trkpt lat="45.57827766273083" lon="12.076973967387147"><ele>16.666666666666668</ele><time>2026-03-24T18:13:38.999Z</time></trkpt><trkpt lat="45.57825815149125" lon="12.077257664237484"><ele>17.0</ele><time>2026-03-24T18:13:39.999Z</time></trkpt><trkpt lat="45.5782228394108" lon="12.07756016653651"><ele>17.0</ele><time>2026-03-24T18:13:40.999Z</time></trkpt><trkpt lat="45.5781890979521" lon="12.077863349163133"><ele>17.0</ele><time>2026-03-24T18:13:41.999Z</time></trkpt><trkpt lat="45.578153935983345" lon="12.078162284262689"><ele>17.0</ele><time>2026-03-24T18:13:42.999Z</time></trkpt><trkpt lat="45.57812695667028" lon="12.078457442669816"><ele>17.0</ele><time>2026-03-24T18:13:43.999Z</time></trkpt><trkpt lat="45.57808823309585" lon="12.07874571519338"><ele>17.0</ele><time>2026-03-24T18:13:44.999Z</time></trkpt><trkpt lat="45.57804667580068" lon="12.079021744362874"><ele>17.0</ele><time>2026-03-24T18:13:45.999Z</time></trkpt><trkpt lat="45.578003559844646" lon="12.079302505395052"><ele>17.0</ele><time>2026-03-24T18:13:46.999Z</time></trkpt><trkpt lat="45.57795740853894" lon="12.079569844918165"><ele>17.0</ele><time>2026-03-24T18:13:47.999Z</time></trkpt><trkpt lat="45.5779213051175" lon="12.07984523356398"><ele>17.0</ele><time>2026-03-24T18:13:48.999Z</time></trkpt><trkpt lat="45.57789337735622" lon="12.080121048784397"><ele>16.666666666666668</ele><time>2026-03-24T18:13:49.999Z</time></trkpt><trkpt lat="45.57788349037216" lon="12.080396000659503"><ele>16.333333333333332</ele><time>2026-03-24T18:13:50.999Z</time></trkpt><trkpt lat="45.57787399591513" lon="12.080677981299672"><ele>16.0</ele><time>2026-03-24T18:13:51.999Z</time></trkpt><trkpt lat="45.57787309077616" lon="12.080966554306476"><ele>15.333333333333332</ele><time>2026-03-24T18:13:52.999Z</time></trkpt><trkpt lat="45.5778799690738" lon="12.08124619350385"><ele>14.666666666666668</ele><time>2026-03-24T18:13:53.999Z</time></trkpt><trkpt lat="45.57787454534339" lon="12.081530278856958"><ele>14.0</ele><time>2026-03-24T18:13:54.999Z</time></trkpt><trkpt lat="45.577868297247846" lon="12.081812134994511"><ele>14.0</ele><time>2026-03-24T18:13:55.999Z</time></trkpt><trkpt lat="45.577859653466035" lon="12.082097675161457"><ele>14.0</ele><time>2026-03-24T18:13:56.999Z</time></trkpt><trkpt lat="45.57784855337145" lon="12.082379797104316"><ele>14.0</ele><time>2026-03-24T18:13:57.999Z</time></trkpt><trkpt lat="45.577826822377425" lon="12.08266239180736"><ele>14.0</ele><time>2026-03-24T18:13:58.999Z</time></trkpt><trkpt lat="45.57780983885492" lon="12.08294238832323"><ele>14.0</ele><time>2026-03-24T18:13:59.999Z</time></trkpt><trkpt lat="45.57778895456523" lon="12.083219731862352"><ele>14.0</ele><time>2026-03-24T18:14:00.999Z</time></trkpt><trkpt lat="45.57776931265887" lon="12.083503676682028"><ele>14.0</ele><time>2026-03-24T18:14:01.999Z</time></trkpt><trkpt lat="45.57774870838314" lon="12.083783401610873"><ele>14.0</ele><time>2026-03-24T18:14:02.999Z</time></trkpt><trkpt lat="45.57772425003201" lon="12.084067100345152"><ele>14.0</ele><time>2026-03-24T18:14:03.999Z</time></trkpt><trkpt lat="45.577700396477425" lon="12.084354209736528"><ele>14.333333333333334</ele><time>2026-03-24T18:14:04.999Z</time></trkpt><trkpt lat="45.57767841615803" lon="12.084633177405742"><ele>14.666666666666668</ele><time>2026-03-24T18:14:05.999Z</time></trkpt><trkpt lat="45.57765668856003" lon="12.08491475046022"><ele>15.0</ele><time>2026-03-24T18:14:06.999Z</time></trkpt><trkpt lat="45.577634542151884" lon="12.085197541105698"><ele>15.0</ele><time>2026-03-24T18:14:07.999Z</time></trkpt><trkpt lat="45.57761252452937" lon="12.085475987057624"><ele>15.0</ele><time>2026-03-24T18:14:08.999Z</time></trkpt><trkpt lat="45.57758466025323" lon="12.08575960503058"><ele>15.0</ele><time>2026-03-24T18:14:09.999Z</time></trkpt><trkpt lat="45.57756097158364" lon="12.08604323762719"><ele>14.333333333333332</ele><time>2026-03-24T18:14:10.998Z</time></trkpt><trkpt lat="45.57753448362915" lon="12.08632357409261"><ele>13.666666666666666</ele><time>2026-03-24T18:14:11.998Z</time></trkpt><trkpt lat="45.57751018229183" lon="12.0866054560891"><ele>13.0</ele><time>2026-03-24T18:14:12.998Z</time></trkpt><trkpt lat="45.57748665563933" lon="12.086887842337573"><ele>13.0</ele><time>2026-03-24T18:14:13.998Z</time></trkpt><trkpt lat="45.57745815025301" lon="12.087171154192044"><ele>13.0</ele><time>2026-03-24T18:14:14.998Z</time></trkpt><trkpt lat="45.5774344907226" lon="12.08744788999558"><ele>13.0</ele><time>2026-03-24T18:14:15.998Z</time></trkpt><trkpt lat="45.57740162137183" lon="12.087724770446613"><ele>13.0</ele><time>2026-03-24T18:14:16.998Z</time></trkpt><trkpt lat="45.57736383239857" lon="12.088001230074902"><ele>13.0</ele><time>2026-03-24T18:14:17.998Z</time></trkpt><trkpt lat="45.5773078845462" lon="12.088273932267393"><ele>13.0</ele><time>2026-03-24T18:14:18.998Z</time></trkpt><trkpt lat="45.57723647277701" lon="12.088539550305965"><ele>13.0</ele><time>2026-03-24T18:14:19.998Z</time></trkpt><trkpt lat="45.577162885581686" lon="12.088796924836194"><ele>13.0</ele><time>2026-03-24T18:14:20.998Z</time></trkpt><trkpt lat="45.57709158823698" lon="12.089065458916666"><ele>13.0</ele><time>2026-03-24T18:14:21.998Z</time></trkpt><trkpt lat="45.57702073398006" lon="12.089329427132657"><ele>13.0</ele><time>2026-03-24T18:14:22.998Z</time></trkpt><trkpt lat="45.576956019275684" lon="12.08959785594747"><ele>13.0</ele><time>2026-03-24T18:14:23.998Z</time></trkpt><trkpt lat="45.57689714950993" lon="12.089865956901752"><ele>13.0</ele><time>2026-03-24T18:14:24.998Z</time></trkpt><trkpt lat="45.576839741582425" lon="12.090136831538663"><ele>13.0</ele><time>2026-03-24T18:14:25.998Z</time></trkpt><trkpt lat="45.57679436583244" lon="12.090414886614095"><ele>13.0</ele><time>2026-03-24T18:14:26.998Z</time></trkpt><trkpt lat="45.57675141513864" lon="12.090692967853764"><ele>13.0</ele><time>2026-03-24T18:14:27.998Z</time></trkpt><trkpt lat="45.57672558880813" lon="12.090972761978827"><ele>13.0</ele><time>2026-03-24T18:14:28.998Z</time></trkpt><trkpt lat="45.57669570133358" lon="12.09125152577434"><ele>13.0</ele><time>2026-03-24T18:14:29.998Z</time></trkpt><trkpt lat="45.576673867104006" lon="12.091513914746717"><ele>13.0</ele><time>2026-03-24T18:14:30.998Z</time></trkpt><trkpt lat="45.57666103058182" lon="12.091757454464478"><ele>12.333333333333332</ele><time>2026-03-24T18:14:31.998Z</time></trkpt><trkpt lat="45.57666603150572" lon="12.091986543878393"><ele>11.666666666666666</ele><time>2026-03-24T18:14:32.998Z</time></trkpt><trkpt lat="45.576682099801715" lon="12.092220816619196"><ele>11.0</ele><time>2026-03-24T18:14:33.998Z</time></trkpt><trkpt lat="45.57671634204374" lon="12.092449401666016"><ele>11.0</ele><time>2026-03-24T18:14:34.998Z</time></trkpt><trkpt lat="45.576745108419686" lon="12.092670439699821"><ele>11.0</ele><time>2026-03-24T18:14:35.998Z</time></trkpt><trkpt lat="45.57678705946863" lon="12.092890995702728"><ele>11.0</ele><time>2026-03-24T18:14:36.998Z</time></trkpt><trkpt lat="45.576839266503534" lon="12.093126172179838"><ele>11.666666666666666</ele><time>2026-03-24T18:14:37.998Z</time></trkpt><trkpt lat="45.576870000068574" lon="12.093353391960243"><ele>12.333333333333332</ele><time>2026-03-24T18:14:38.998Z</time></trkpt><trkpt lat="45.57688156284984" lon="12.093579554143773"><ele>13.0</ele><time>2026-03-24T18:14:39.998Z</time></trkpt><trkpt lat="45.57687782014125" lon="12.093805335309913"><ele>13.0</ele><time>2026-03-24T18:14:40.998Z</time></trkpt><trkpt lat="45.5768532198152" lon="12.094028430012095"><ele>13.0</ele><time>2026-03-24T18:14:41.998Z</time></trkpt><trkpt lat="45.57682347332504" lon="12.094255754528556"><ele>13.0</ele><time>2026-03-24T18:14:42.998Z</time></trkpt><trkpt lat="45.57678154825065" lon="12.094495648110794"><ele>13.333333333333332</ele><time>2026-03-24T18:14:44Z</time></trkpt><trkpt lat="45.57673824984532" lon="12.094729578678772"><ele>13.666666666666668</ele><time>2026-03-24T18:14:45Z</time></trkpt><trkpt lat="45.57668678062201" lon="12.094970987866906"><ele>14.0</ele><time>2026-03-24T18:14:46Z</time></trkpt><trkpt lat="45.576641443055834" lon="12.095215631037322"><ele>14.0</ele><time>2026-03-24T18:14:47Z</time></trkpt><trkpt lat="45.57659563367744" lon="12.095468993170877"><ele>14.0</ele><time>2026-03-24T18:14:48Z</time></trkpt><trkpt lat="45.57654383824828" lon="12.095715836077055"><ele>14.0</ele><time>2026-03-24T18:14:49Z</time></trkpt><trkpt lat="45.5764937760881" lon="12.095956134911352"><ele>13.666666666666668</ele><time>2026-03-24T18:14:50Z</time></trkpt><trkpt lat="45.57644733192949" lon="12.096183638183446"><ele>13.333333333333332</ele><time>2026-03-24T18:14:51Z</time></trkpt><trkpt lat="45.57640274754465" lon="12.096396668775894"><ele>13.0</ele><time>2026-03-24T18:14:52Z</time></trkpt><trkpt lat="45.57635677671924" lon="12.096595643960157"><ele>13.0</ele><time>2026-03-24T18:14:53Z</time></trkpt><trkpt lat="45.576319229870165" lon="12.096778846550158"><ele>13.0</ele><time>2026-03-24T18:14:54Z</time></trkpt><trkpt lat="45.576285634321714" lon="12.096945800242645"><ele>13.0</ele><time>2026-03-24T18:14:55Z</time></trkpt><trkpt lat="45.57625187512519" lon="12.097099440961466"><ele>13.0</ele><time>2026-03-24T18:14:56Z</time></trkpt><trkpt lat="45.576220988307604" lon="12.097221585596417"><ele>12.999999999999998</ele><time>2026-03-24T18:14:57Z</time></trkpt><trkpt lat="45.57618120253215" lon="12.097314655285881"><ele>13.0</ele><time>2026-03-24T18:14:58Z</time></trkpt><trkpt lat="45.57611780331233" lon="12.097392637776988"><ele>13.0</ele><time>2026-03-24T18:15:00Z</time></trkpt><trkpt lat="45.57603698162133" lon="12.097425768789144"><ele>13.0</ele><time>2026-03-24T18:15:03Z</time></trkpt><trkpt lat="45.57593469036149" lon="12.097486002442034"><ele>12.999999999999998</ele><time>2026-03-24T18:15:05Z</time></trkpt><trkpt lat="45.57588305914694" lon="12.097550177492078"><ele>13.0</ele><time>2026-03-24T18:15:06Z</time></trkpt><trkpt lat="45.57582096190349" lon="12.097614912923806"><ele>12.999999999999998</ele><time>2026-03-24T18:15:07Z</time></trkpt><trkpt lat="45.57574567714321" lon="12.09765852793459"><ele>13.0</ele><time>2026-03-24T18:15:08Z</time></trkpt><trkpt lat="45.57566354138963" lon="12.097679758497364"><ele>13.0</ele><time>2026-03-24T18:15:09Z</time></trkpt><trkpt lat="45.575583266020914" lon="12.097698012005534"><ele>13.0</ele><time>2026-03-24T18:15:10Z</time></trkpt><trkpt lat="45.57550262394446" lon="12.09770923791542"><ele>12.999999999999998</ele><time>2026-03-24T18:15:11Z</time></trkpt><trkpt lat="45.57541166015164" lon="12.097717094170727"><ele>13.0</ele><time>2026-03-24T18:15:12Z</time></trkpt><trkpt lat="45.57531167486591" lon="12.097734227078226"><ele>12.8</ele><time>2026-03-24T18:15:13Z</time></trkpt><trkpt lat="45.57521252664672" lon="12.09774087869339"><ele>12.600000000000001</ele><time>2026-03-24T18:15:14Z</time></trkpt><trkpt lat="45.57511405519252" lon="12.097759024694309"><ele>12.399999999999999</ele><time>2026-03-24T18:15:15Z</time></trkpt><trkpt lat="45.57500570128249" lon="12.097772323413134"><ele>12.2</ele><time>2026-03-24T18:15:16Z</time></trkpt><trkpt lat="45.574897988182684" lon="12.097789598418734"><ele>12.0</ele><time>2026-03-24T18:15:17Z</time></trkpt><trkpt lat="45.57478787531734" lon="12.097805644057578"><ele>12.0</ele><time>2026-03-24T18:15:18Z</time></trkpt><trkpt lat="45.57468046058077" lon="12.097823530231505"><ele>12.0</ele><time>2026-03-24T18:15:19Z</time></trkpt><trkpt lat="45.57456353041354" lon="12.097845898150545"><ele>12.0</ele><time>2026-03-24T18:15:20Z</time></trkpt><trkpt lat="45.57444501331932" lon="12.097877203236601"><ele>12.0</ele><time>2026-03-24T18:15:21Z</time></trkpt><trkpt lat="45.574321226392435" lon="12.09790546013828"><ele>12.5</ele><time>2026-03-24T18:15:22Z</time></trkpt><trkpt lat="45.57418701684594" lon="12.097953449157052"><ele>13.0</ele><time>2026-03-24T18:15:23Z</time></trkpt><trkpt lat="45.57404784889344" lon="12.098017720242618"><ele>13.5</ele><time>2026-03-24T18:15:24Z</time></trkpt><trkpt lat="45.573913617494966" lon="12.09810190855694"><ele>14.0</ele><time>2026-03-24T18:15:25Z</time></trkpt><trkpt lat="45.57377047271503" lon="12.098183176502785"><ele>13.75</ele><time>2026-03-24T18:15:26Z</time></trkpt><trkpt lat="45.57363767219815" lon="12.098276977561245"><ele>13.5</ele><time>2026-03-24T18:15:27Z</time></trkpt><trkpt lat="45.57351987813985" lon="12.09837070972662"><ele>13.25</ele><time>2026-03-24T18:15:27.999Z</time></trkpt><trkpt lat="45.57339403453627" lon="12.09845686003961"><ele>13.0</ele><time>2026-03-24T18:15:28.999Z</time></trkpt><trkpt lat="45.57326676531634" lon="12.098542643940686"><ele>13.0</ele><time>2026-03-24T18:15:29.999Z</time></trkpt><trkpt lat="45.57314125309681" lon="12.098630490801105"><ele>13.0</ele><time>2026-03-24T18:15:30.999Z</time></trkpt><trkpt lat="45.57301864076495" lon="12.098722426305606"><ele>13.0</ele><time>2026-03-24T18:15:31.999Z</time></trkpt><trkpt lat="45.572892013147914" lon="12.098815416147627"><ele>13.0</ele><time>2026-03-24T18:15:32.999Z</time></trkpt><trkpt lat="45.572759676385964" lon="12.098912599350463"><ele>13.0</ele><time>2026-03-24T18:15:33.999Z</time></trkpt><trkpt lat="45.57261992660878" lon="12.099020351177623"><ele>13.0</ele><time>2026-03-24T18:15:34.999Z</time></trkpt><trkpt lat="45.572476008551575" lon="12.099110390801064"><ele>13.0</ele><time>2026-03-24T18:15:35.999Z</time></trkpt><trkpt lat="45.5723326914123" lon="12.099213733627161"><ele>13.0</ele><time>2026-03-24T18:15:36.999Z</time></trkpt><trkpt lat="45.572191272066355" lon="12.099316468700504"><ele>13.0</ele><time>2026-03-24T18:15:37.999Z</time></trkpt><trkpt lat="45.57204916289713" lon="12.099418853269398"><ele>13.0</ele><time>2026-03-24T18:15:38.999Z</time></trkpt><trkpt lat="45.57190937908069" lon="12.099520303367374"><ele>13.333333333333332</ele><time>2026-03-24T18:15:39.999Z</time></trkpt><trkpt lat="45.57176479142761" lon="12.099622224155521"><ele>13.666666666666668</ele><time>2026-03-24T18:15:40.999Z</time></trkpt><trkpt lat="45.571618236729684" lon="12.099725006322535"><ele>14.0</ele><time>2026-03-24T18:15:41.999Z</time></trkpt><trkpt lat="45.57147805096711" lon="12.099821715468615"><ele>13.666666666666668</ele><time>2026-03-24T18:15:42.999Z</time></trkpt><trkpt lat="45.57133918444928" lon="12.099926678265838"><ele>13.333333333333332</ele><time>2026-03-24T18:15:43.999Z</time></trkpt><trkpt lat="45.57119673233531" lon="12.100029416751646"><ele>13.0</ele><time>2026-03-24T18:15:44.999Z</time></trkpt><trkpt lat="45.571054151271966" lon="12.100135028664466"><ele>12.333333333333332</ele><time>2026-03-24T18:15:45.999Z</time></trkpt><trkpt lat="45.57091129713166" lon="12.10024480240486"><ele>11.666666666666666</ele><time>2026-03-24T18:15:46.999Z</time></trkpt><trkpt lat="45.57076472902935" lon="12.10035038915255"><ele>11.0</ele><time>2026-03-24T18:15:47.999Z</time></trkpt><trkpt lat="45.57061732191491" lon="12.10045242904935"><ele>11.0</ele><time>2026-03-24T18:15:48.999Z</time></trkpt><trkpt lat="45.57047510249649" lon="12.100558188536999"><ele>11.0</ele><time>2026-03-24T18:15:49.999Z</time></trkpt><trkpt lat="45.57032867786431" lon="12.100672975409829"><ele>11.0</ele><time>2026-03-24T18:15:50.999Z</time></trkpt><trkpt lat="45.570192837383075" lon="12.100776119220665"><ele>11.333333333333332</ele><time>2026-03-24T18:15:51.999Z</time></trkpt><trkpt lat="45.57005176293138" lon="12.10089303957566"><ele>11.666666666666666</ele><time>2026-03-24T18:15:52.999Z</time></trkpt><trkpt lat="45.569904849477524" lon="12.101009076658766"><ele>12.0</ele><time>2026-03-24T18:15:53.999Z</time></trkpt><trkpt lat="45.56975772690455" lon="12.10113448960143"><ele>12.0</ele><time>2026-03-24T18:15:54.999Z</time></trkpt><trkpt lat="45.56960835540285" lon="12.101264088614224"><ele>12.0</ele><time>2026-03-24T18:15:55.999Z</time></trkpt><trkpt lat="45.56945559495156" lon="12.10138803863635"><ele>12.0</ele><time>2026-03-24T18:15:56.999Z</time></trkpt><trkpt lat="45.56930842310738" lon="12.10151071946269"><ele>12.25</ele><time>2026-03-24T18:15:57.999Z</time></trkpt><trkpt lat="45.5691736527652" lon="12.101629892152022"><ele>12.5</ele><time>2026-03-24T18:15:58.999Z</time></trkpt><trkpt lat="45.569045408676466" lon="12.101735330669072"><ele>12.75</ele><time>2026-03-24T18:15:59.999Z</time></trkpt><trkpt lat="45.568924947235374" lon="12.101836360861077"><ele>13.0</ele><time>2026-03-24T18:16:00.999Z</time></trkpt><trkpt lat="45.56879627762694" lon="12.101914869642073"><ele>13.0</ele><time>2026-03-24T18:16:01.999Z</time></trkpt><trkpt lat="45.568665529035286" lon="12.101996245143782"><ele>13.0</ele><time>2026-03-24T18:16:02.999Z</time></trkpt><trkpt lat="45.56853096281896" lon="12.102064904677276"><ele>13.0</ele><time>2026-03-24T18:16:03.999Z</time></trkpt><trkpt lat="45.568399587565224" lon="12.102126292147007"><ele>13.0</ele><time>2026-03-24T18:16:04.999Z</time></trkpt><trkpt lat="45.568292341495095" lon="12.102165657047403"><ele>12.999999999999998</ele><time>2026-03-24T18:16:05.999Z</time></trkpt><trkpt lat="45.56820711711061" lon="12.102193210175283"><ele>13.0</ele><time>2026-03-24T18:16:06.999Z</time></trkpt><trkpt lat="45.568120123295884" lon="12.10219716877362"><ele>13.0</ele><time>2026-03-24T18:16:07.999Z</time></trkpt><trkpt lat="45.56804969640408" lon="12.102213520404606"><ele>13.0</ele><time>2026-03-24T18:16:08.999Z</time></trkpt><trkpt lat="45.56797210722967" lon="12.102230099273726"><ele>12.999999999999998</ele><time>2026-03-24T18:16:09.999Z</time></trkpt><trkpt lat="45.567907547868096" lon="12.102258656710141"><ele>13.0</ele><time>2026-03-24T18:16:10.999Z</time></trkpt><trkpt lat="45.56784177291287" lon="12.102259810924197"><ele>13.499999999999998</ele><time>2026-03-24T18:16:12.999Z</time></trkpt><trkpt lat="45.567765066085606" lon="12.102251364771604"><ele>14.0</ele><time>2026-03-24T18:16:14.999Z</time></trkpt><trkpt lat="45.56769073465519" lon="12.10219905380054"><ele>14.5</ele><time>2026-03-24T18:16:17.999Z</time></trkpt><trkpt lat="45.56763191141889" lon="12.102151048296284"><ele>15.0</ele><time>2026-03-24T18:16:20.999Z</time></trkpt><trkpt lat="45.56754680257422" lon="12.102066764337845"><ele>15.499999999999998</ele><time>2026-03-24T18:16:22.998Z</time></trkpt><trkpt lat="45.56748226239317" lon="12.102015433622485"><ele>16.0</ele><time>2026-03-24T18:16:23.998Z</time></trkpt><trkpt lat="45.56739876327462" lon="12.101979416926238"><ele>16.0</ele><time>2026-03-24T18:16:24.998Z</time></trkpt><trkpt lat="45.567309975221754" lon="12.101979710894744"><ele>16.0</ele><time>2026-03-24T18:16:25.998Z</time></trkpt><trkpt lat="45.56722348738948" lon="12.102009158537475"><ele>16.0</ele><time>2026-03-24T18:16:26.998Z</time></trkpt><trkpt lat="45.56714307358804" lon="12.102076052210958"><ele>16.0</ele><time>2026-03-24T18:16:27.998Z</time></trkpt><trkpt lat="45.567056056116435" lon="12.102151654899725"><ele>16.0</ele><time>2026-03-24T18:16:28.998Z</time></trkpt><trkpt lat="45.56695403780363" lon="12.102211725889045"><ele>15.25</ele><time>2026-03-24T18:16:29.998Z</time></trkpt><trkpt lat="45.56682852809029" lon="12.102231857974674"><ele>14.5</ele><time>2026-03-24T18:16:30.998Z</time></trkpt><trkpt lat="45.566686048117795" lon="12.102233391064702"><ele>13.75</ele><time>2026-03-24T18:16:31.998Z</time></trkpt><trkpt lat="45.56654322403281" lon="12.102224078562145"><ele>13.0</ele><time>2026-03-24T18:16:32.998Z</time></trkpt><trkpt lat="45.566391280300806" lon="12.102221231365938"><ele>13.0</ele><time>2026-03-24T18:16:33.998Z</time></trkpt><trkpt lat="45.56623715225574" lon="12.102221957740118"><ele>13.0</ele><time>2026-03-24T18:16:34.998Z</time></trkpt><trkpt lat="45.56607641587944" lon="12.10222128997189"><ele>13.0</ele><time>2026-03-24T18:16:35.998Z</time></trkpt><trkpt lat="45.565909666811876" lon="12.102216899260501"><ele>12.666666666666666</ele><time>2026-03-24T18:16:36.998Z</time></trkpt><trkpt lat="45.56574500986282" lon="12.10221953232065"><ele>12.333333333333332</ele><time>2026-03-24T18:16:37.998Z</time></trkpt><trkpt lat="45.56558629465748" lon="12.102220643102777"><ele>12.0</ele><time>2026-03-24T18:16:38.998Z</time></trkpt><trkpt lat="45.56542315419844" lon="12.102215812487417"><ele>11.333333333333334</ele><time>2026-03-24T18:16:39.998Z</time></trkpt><trkpt lat="45.56526133025631" lon="12.102210312899873"><ele>10.666666666666668</ele><time>2026-03-24T18:16:40.998Z</time></trkpt><trkpt lat="45.56510097607623" lon="12.102205432429667"><ele>10.0</ele><time>2026-03-24T18:16:41.998Z</time></trkpt><trkpt lat="45.56494322781539" lon="12.102201518729817"><ele>10.0</ele><time>2026-03-24T18:16:42.998Z</time></trkpt><trkpt lat="45.56478059286766" lon="12.102201942563255"><ele>10.0</ele><time>2026-03-24T18:16:43.998Z</time></trkpt><trkpt lat="45.564617627927184" lon="12.102210382753047"><ele>10.0</ele><time>2026-03-24T18:16:44.998Z</time></trkpt><trkpt lat="45.564449147847824" lon="12.102224116848374"><ele>10.333333333333334</ele><time>2026-03-24T18:16:45.998Z</time></trkpt><trkpt lat="45.564279478808224" lon="12.102245717509938"><ele>10.666666666666666</ele><time>2026-03-24T18:16:46.998Z</time></trkpt><trkpt lat="45.56410965018178" lon="12.102277610897879"><ele>11.0</ele><time>2026-03-24T18:16:47.998Z</time></trkpt><trkpt lat="45.563936367100254" lon="12.102323119860973"><ele>11.0</ele><time>2026-03-24T18:16:48.998Z</time></trkpt><trkpt lat="45.563769676798344" lon="12.102382152691746"><ele>11.0</ele><time>2026-03-24T18:16:50Z</time></trkpt><trkpt lat="45.56360177456718" lon="12.102456185657621"><ele>11.0</ele><time>2026-03-24T18:16:51Z</time></trkpt><trkpt lat="45.56343271910957" lon="12.10254143367625"><ele>10.333333333333332</ele><time>2026-03-24T18:16:52Z</time></trkpt><trkpt lat="45.56326839912163" lon="12.102632606621254"><ele>9.666666666666666</ele><time>2026-03-24T18:16:53Z</time></trkpt><trkpt lat="45.56310753763455" lon="12.102737253045941"><ele>9.0</ele><time>2026-03-24T18:16:54Z</time></trkpt><trkpt lat="45.56295024342543" lon="12.102852524215274"><ele>9.333333333333334</ele><time>2026-03-24T18:16:55Z</time></trkpt><trkpt lat="45.56279818443194" lon="12.10298267878166"><ele>9.666666666666668</ele><time>2026-03-24T18:16:56Z</time></trkpt><trkpt lat="45.56265057481189" lon="12.1031219686385"><ele>10.0</ele><time>2026-03-24T18:16:57Z</time></trkpt><trkpt lat="45.562509072807835" lon="12.10326878639708"><ele>10.0</ele><time>2026-03-24T18:16:58Z</time></trkpt><trkpt lat="45.56236997333936" lon="12.103427438343228"><ele>10.0</ele><time>2026-03-24T18:16:59Z</time></trkpt><trkpt lat="45.562234323468765" lon="12.103595908580168"><ele>10.0</ele><time>2026-03-24T18:17:00Z</time></trkpt><trkpt lat="45.56210520912041" lon="12.10377479656115"><ele>10.0</ele><time>2026-03-24T18:17:01Z</time></trkpt><trkpt lat="45.56198548338722" lon="12.103964405684199"><ele>10.0</ele><time>2026-03-24T18:17:02Z</time></trkpt><trkpt lat="45.56187407154178" lon="12.104160398468654"><ele>10.0</ele><time>2026-03-24T18:17:03Z</time></trkpt><trkpt lat="45.561767655978485" lon="12.104364485434546"><ele>9.666666666666668</ele><time>2026-03-24T18:17:04Z</time></trkpt><trkpt lat="45.56166945385734" lon="12.104577728775373"><ele>9.333333333333334</ele><time>2026-03-24T18:17:05Z</time></trkpt><trkpt lat="45.56157655232747" lon="12.104799079397395"><ele>9.0</ele><time>2026-03-24T18:17:06Z</time></trkpt><trkpt lat="45.56149292267406" lon="12.105021395683668"><ele>8.666666666666666</ele><time>2026-03-24T18:17:07Z</time></trkpt><trkpt lat="45.56141165445649" lon="12.10525397682262"><ele>8.333333333333332</ele><time>2026-03-24T18:17:08Z</time></trkpt><trkpt lat="45.561344466600396" lon="12.105492199805253"><ele>8.0</ele><time>2026-03-24T18:17:09Z</time></trkpt><trkpt lat="45.5612834861891" lon="12.105731143742954"><ele>8.333333333333332</ele><time>2026-03-24T18:17:10Z</time></trkpt><trkpt lat="45.56123148063659" lon="12.105969610477464"><ele>8.666666666666666</ele><time>2026-03-24T18:17:11Z</time></trkpt><trkpt lat="45.561187614737094" lon="12.10619963563108"><ele>9.0</ele><time>2026-03-24T18:17:12Z</time></trkpt><trkpt lat="45.56115135889412" lon="12.106416751523293"><ele>9.5</ele><time>2026-03-24T18:17:13Z</time></trkpt><trkpt lat="45.561119450956575" lon="12.10662168741453"><ele>10.0</ele><time>2026-03-24T18:17:14Z</time></trkpt><trkpt lat="45.56109428487866" lon="12.106816093904655"><ele>10.5</ele><time>2026-03-24T18:17:15Z</time></trkpt><trkpt lat="45.56106978968795" lon="12.106992495579613"><ele>11.0</ele><time>2026-03-24T18:17:16Z</time></trkpt><trkpt lat="45.561050765099225" lon="12.107161205109229"><ele>11.0</ele><time>2026-03-24T18:17:17Z</time></trkpt><trkpt lat="45.56103715692439" lon="12.107309098461672"><ele>11.0</ele><time>2026-03-24T18:17:18Z</time></trkpt><trkpt lat="45.56102478927201" lon="12.107433959990864"><ele>11.0</ele><time>2026-03-24T18:17:19Z</time></trkpt><trkpt lat="45.56101435898388" lon="12.10755207410901"><ele>11.0</ele><time>2026-03-24T18:17:20Z</time></trkpt><trkpt lat="45.561001681243575" lon="12.107665594056973"><ele>11.0</ele><time>2026-03-24T18:17:21Z</time></trkpt><trkpt lat="45.56097944524486" lon="12.107782578658782"><ele>11.0</ele><time>2026-03-24T18:17:22Z</time></trkpt><trkpt lat="45.5609548290639" lon="12.107905893027965"><ele>11.0</ele><time>2026-03-24T18:17:23Z</time></trkpt><trkpt lat="45.560912995690096" lon="12.108028290204969"><ele>11.0</ele><time>2026-03-24T18:17:24Z</time></trkpt><trkpt lat="45.56087097841074" lon="12.108135816269176"><ele>11.0</ele><time>2026-03-24T18:17:25Z</time></trkpt><trkpt lat="45.56082865494089" lon="12.108246495893775"><ele>11.0</ele><time>2026-03-24T18:17:26Z</time></trkpt><trkpt lat="45.5607751608262" lon="12.108318596637337"><ele>11.0</ele><time>2026-03-24T18:17:27Z</time></trkpt><trkpt lat="45.56071884054584" lon="12.108401096388885"><ele>11.0</ele><time>2026-03-24T18:17:28Z</time></trkpt><trkpt lat="45.56069962627146" lon="12.10852526517915"><ele>11.0</ele><time>2026-03-24T18:17:29Z</time></trkpt><trkpt lat="45.560699932830815" lon="12.108639557435106"><ele>11.0</ele><time>2026-03-24T18:17:30Z</time></trkpt><trkpt lat="45.56072349622218" lon="12.108739786940196"><ele>11.0</ele><time>2026-03-24T18:17:31Z</time></trkpt><trkpt lat="45.56075830305269" lon="12.108851372711916"><ele>11.0</ele><time>2026-03-24T18:17:31.999Z</time></trkpt><trkpt lat="45.56083564571357" lon="12.108925209603113"><ele>11.0</ele><time>2026-03-24T18:17:32.999Z</time></trkpt><trkpt lat="45.56087982134169" lon="12.109059050388263"><ele>11.0</ele><time>2026-03-24T18:17:33.999Z</time></trkpt><trkpt lat="45.560933055909445" lon="12.109183439191199"><ele>11.0</ele><time>2026-03-24T18:17:34.999Z</time></trkpt><trkpt lat="45.56097706514225" lon="12.109331488875304"><ele>11.0</ele><time>2026-03-24T18:17:35.999Z</time></trkpt><trkpt lat="45.56100823410497" lon="12.1094786667366"><ele>11.0</ele><time>2026-03-24T18:17:36.999Z</time></trkpt><trkpt lat="45.56105722748826" lon="12.109592871066205"><ele>11.0</ele><time>2026-03-24T18:17:37.999Z</time></trkpt><trkpt lat="45.56104989352433" lon="12.109763079101448"><ele>11.0</ele><time>2026-03-24T18:17:38.999Z</time></trkpt><trkpt lat="45.56107200565224" lon="12.109933902187091"><ele>10.75</ele><time>2026-03-24T18:17:39.999Z</time></trkpt><trkpt lat="45.56109589409473" lon="12.110109142467689"><ele>10.5</ele><time>2026-03-24T18:17:40.999Z</time></trkpt><trkpt lat="45.56111998410469" lon="12.110295702298988"><ele>10.25</ele><time>2026-03-24T18:17:41.999Z</time></trkpt><trkpt lat="45.561143040122616" lon="12.110484821188189"><ele>10.0</ele><time>2026-03-24T18:17:42.999Z</time></trkpt><trkpt lat="45.561166498199995" lon="12.110669455070989"><ele>10.25</ele><time>2026-03-24T18:17:43.999Z</time></trkpt><trkpt lat="45.56118864780114" lon="12.110851444321316"><ele>10.5</ele><time>2026-03-24T18:17:44.999Z</time></trkpt><trkpt lat="45.5612065175788" lon="12.11102617349793"><ele>10.75</ele><time>2026-03-24T18:17:45.999Z</time></trkpt><trkpt lat="45.56122953564471" lon="12.111209388605072"><ele>11.0</ele><time>2026-03-24T18:17:46.999Z</time></trkpt><trkpt lat="45.56125205574586" lon="12.111403748533025"><ele>12.5</ele><time>2026-03-24T18:17:47.999Z</time></trkpt><trkpt lat="45.56127183781969" lon="12.1116035843575"><ele>14.0</ele><time>2026-03-24T18:17:48.999Z</time></trkpt><trkpt lat="45.56128906711245" lon="12.111806345675932"><ele>15.5</ele><time>2026-03-24T18:17:49.999Z</time></trkpt><trkpt lat="45.561300424098526" lon="12.112013374867232"><ele>17.0</ele><time>2026-03-24T18:17:50.999Z</time></trkpt><trkpt lat="45.561309101017585" lon="12.112224637174915"><ele>16.0</ele><time>2026-03-24T18:17:51.999Z</time></trkpt><trkpt lat="45.56131634234251" lon="12.112437634407547"><ele>15.0</ele><time>2026-03-24T18:17:52.999Z</time></trkpt><trkpt lat="45.561318269707115" lon="12.11265377034839"><ele>14.0</ele><time>2026-03-24T18:17:53.999Z</time></trkpt><trkpt lat="45.56131777972435" lon="12.112867229972624"><ele>14.0</ele><time>2026-03-24T18:17:54.999Z</time></trkpt><trkpt lat="45.56131601829466" lon="12.113058927243012"><ele>14.0</ele><time>2026-03-24T18:17:55.999Z</time></trkpt><trkpt lat="45.561315796755565" lon="12.113243674070853"><ele>14.0</ele><time>2026-03-24T18:17:56.999Z</time></trkpt><trkpt lat="45.56131092063525" lon="12.113413459210586"><ele>14.0</ele><time>2026-03-24T18:17:57.999Z</time></trkpt><trkpt lat="45.561304888392804" lon="12.113560240519094"><ele>13.333333333333334</ele><time>2026-03-24T18:17:58.999Z</time></trkpt><trkpt lat="45.56130010988797" lon="12.113689134311027"><ele>12.666666666666668</ele><time>2026-03-24T18:17:59.999Z</time></trkpt><trkpt lat="45.56129489424866" lon="12.113813174738207"><ele>12.0</ele><time>2026-03-24T18:18:00.999Z</time></trkpt><trkpt lat="45.56128993071938" lon="12.113926127285037"><ele>11.333333333333334</ele><time>2026-03-24T18:18:01.999Z</time></trkpt><trkpt lat="45.56127963109121" lon="12.1140246915165"><ele>10.666666666666668</ele><time>2026-03-24T18:18:02.999Z</time></trkpt><trkpt lat="45.56126697805489" lon="12.114120787039404"><ele>10.0</ele><time>2026-03-24T18:18:03.999Z</time></trkpt><trkpt lat="45.561248104427044" lon="12.114220445239942"><ele>10.0</ele><time>2026-03-24T18:18:04.999Z</time></trkpt><trkpt lat="45.561219711710834" lon="12.114330589387242"><ele>10.0</ele><time>2026-03-24T18:18:05.999Z</time></trkpt><trkpt lat="45.56119218240974" lon="12.114451556301146"><ele>10.0</ele><time>2026-03-24T18:18:06.999Z</time></trkpt><trkpt lat="45.56115230761927" lon="12.114578919710786"><ele>10.0</ele><time>2026-03-24T18:18:07.999Z</time></trkpt><trkpt lat="45.561078208171814" lon="12.114693456573384"><ele>10.0</ele><time>2026-03-24T18:18:08.999Z</time></trkpt><trkpt lat="45.56101732768791" lon="12.114805938886285"><ele>10.0</ele><time>2026-03-24T18:18:09.999Z</time></trkpt><trkpt lat="45.56099191636247" lon="12.114951862050022"><ele>10.0</ele><time>2026-03-24T18:18:10.999Z</time></trkpt><trkpt lat="45.56098474054838" lon="12.115102848962547"><ele>10.0</ele><time>2026-03-24T18:18:11.999Z</time></trkpt><trkpt lat="45.561037813720375" lon="12.115218335116989"><ele>10.0</ele><time>2026-03-24T18:18:12.999Z</time></trkpt><trkpt lat="45.56108649250828" lon="12.115309918362312"><ele>10.0</ele><time>2026-03-24T18:18:13.999Z</time></trkpt><trkpt lat="45.561083065510495" lon="12.115458168744679"><ele>10.0</ele><time>2026-03-24T18:18:14.999Z</time></trkpt><trkpt lat="45.561094749888824" lon="12.115602451421006"><ele>10.0</ele><time>2026-03-24T18:18:15.999Z</time></trkpt><trkpt lat="45.561084254431286" lon="12.115755381311034"><ele>10.0</ele><time>2026-03-24T18:18:16.999Z</time></trkpt><trkpt lat="45.56105374837868" lon="12.115916920726788"><ele>10.0</ele><time>2026-03-24T18:18:17.999Z</time></trkpt><trkpt lat="45.561026115558214" lon="12.116098014275936"><ele>10.25</ele><time>2026-03-24T18:18:18.999Z</time></trkpt><trkpt lat="45.560992240735104" lon="12.11628683263912"><ele>10.5</ele><time>2026-03-24T18:18:19.999Z</time></trkpt><trkpt lat="45.56096564222992" lon="12.116466012084459"><ele>10.75</ele><time>2026-03-24T18:18:20.999Z</time></trkpt><trkpt lat="45.56094984121692" lon="12.116647588512995"><ele>11.0</ele><time>2026-03-24T18:18:21.999Z</time></trkpt><trkpt lat="45.56093281520796" lon="12.116827321244797"><ele>11.0</ele><time>2026-03-24T18:18:22.999Z</time></trkpt><trkpt lat="45.56094468496355" lon="12.11701256019726"><ele>11.0</ele><time>2026-03-24T18:18:23.999Z</time></trkpt><trkpt lat="45.56088599730038" lon="12.117210649185004"><ele>11.0</ele><time>2026-03-24T18:18:24.999Z</time></trkpt><trkpt lat="45.56085622388929" lon="12.117407751725981"><ele>11.0</ele><time>2026-03-24T18:18:25.999Z</time></trkpt><trkpt lat="45.56082514475626" lon="12.117607668610146"><ele>11.0</ele><time>2026-03-24T18:18:26.998Z</time></trkpt><trkpt lat="45.56078466954896" lon="12.117814395082172"><ele>11.0</ele><time>2026-03-24T18:18:27.998Z</time></trkpt><trkpt lat="45.56074491107893" lon="12.118020696986374"><ele>11.0</ele><time>2026-03-24T18:18:28.998Z</time></trkpt><trkpt lat="45.5607077246116" lon="12.11823532546059"><ele>11.0</ele><time>2026-03-24T18:18:29.998Z</time></trkpt><trkpt lat="45.56066743661224" lon="12.118458895843816"><ele>11.0</ele><time>2026-03-24T18:18:30.998Z</time></trkpt><trkpt lat="45.560624086655935" lon="12.118693358288912"><ele>11.0</ele><time>2026-03-24T18:18:31.998Z</time></trkpt><trkpt lat="45.56058425753959" lon="12.11892584916955"><ele>10.666666666666666</ele><time>2026-03-24T18:18:32.998Z</time></trkpt><trkpt lat="45.56054798261285" lon="12.119147277063606"><ele>10.333333333333334</ele><time>2026-03-24T18:18:33.998Z</time></trkpt><trkpt lat="45.56050839840912" lon="12.119361177096112"><ele>10.0</ele><time>2026-03-24T18:18:34.998Z</time></trkpt><trkpt lat="45.56046977895066" lon="12.119588702733727"><ele>10.0</ele><time>2026-03-24T18:18:35.998Z</time></trkpt><trkpt lat="45.560429627029464" lon="12.119838427334184"><ele>10.0</ele><time>2026-03-24T18:18:36.998Z</time></trkpt><trkpt lat="45.56038619514963" lon="12.120103461251635"><ele>10.0</ele><time>2026-03-24T18:18:37.998Z</time></trkpt><trkpt lat="45.560341551788255" lon="12.120406842806661"><ele>9.0</ele><time>2026-03-24T18:18:38.998Z</time></trkpt><trkpt lat="45.56028277329315" lon="12.120756103874593"><ele>8.0</ele><time>2026-03-24T18:18:39.998Z</time></trkpt><trkpt lat="45.56022257521721" lon="12.121112349545994"><ele>8.0</ele><time>2026-03-24T18:18:40.998Z</time></trkpt><trkpt lat="45.560150186611295" lon="12.12148706112786"><ele>8.0</ele><time>2026-03-24T18:18:41.998Z</time></trkpt><trkpt lat="45.56008243614854" lon="12.12187705317015"><ele>8.0</ele><time>2026-03-24T18:18:42.998Z</time></trkpt><trkpt lat="45.56000139565853" lon="12.122282923008884"><ele>8.0</ele><time>2026-03-24T18:18:43.998Z</time></trkpt><trkpt lat="45.55992300144122" lon="12.122701328473584"><ele>8.0</ele><time>2026-03-24T18:18:44.998Z</time></trkpt><trkpt lat="45.55984856771244" lon="12.123115293305801"><ele>8.0</ele><time>2026-03-24T18:18:45.998Z</time></trkpt><trkpt lat="45.559786512368184" lon="12.123499984265598"><ele>8.5</ele><time>2026-03-24T18:18:46.998Z</time></trkpt><trkpt lat="45.55972171804831" lon="12.12386283919266"><ele>9.0</ele><time>2026-03-24T18:18:47.998Z</time></trkpt><trkpt lat="45.55966364484569" lon="12.124195749221807"><ele>10.0</ele><time>2026-03-24T18:18:48.998Z</time></trkpt><trkpt lat="45.559605652421325" lon="12.124514366365458"><ele>11.0</ele><time>2026-03-24T18:18:49.998Z</time></trkpt><trkpt lat="45.55955193918178" lon="12.124824270931683"><ele>11.333333333333332</ele><time>2026-03-24T18:18:50.998Z</time></trkpt><trkpt lat="45.55950135575778" lon="12.125123574054305"><ele>11.666666666666666</ele><time>2026-03-24T18:18:51.998Z</time></trkpt><trkpt lat="45.55945084146988" lon="12.125425406653614"><ele>12.0</ele><time>2026-03-24T18:18:52.998Z</time></trkpt><trkpt lat="45.55940027065045" lon="12.125732539745858"><ele>11.0</ele><time>2026-03-24T18:18:53.998Z</time></trkpt><trkpt lat="45.55934910251886" lon="12.12603685183601"><ele>10.0</ele><time>2026-03-24T18:18:54.998Z</time></trkpt><trkpt lat="45.55929099352732" lon="12.126347086599086"><ele>9.0</ele><time>2026-03-24T18:18:56Z</time></trkpt><trkpt lat="45.55923508148169" lon="12.126667436943483"><ele>9.0</ele><time>2026-03-24T18:18:57Z</time></trkpt><trkpt lat="45.559178372754026" lon="12.126991567213736"><ele>9.0</ele><time>2026-03-24T18:18:58Z</time></trkpt><trkpt lat="45.55912159050249" lon="12.127316414673873"><ele>9.5</ele><time>2026-03-24T18:18:59Z</time></trkpt><trkpt lat="45.55907230026832" lon="12.127636574338265"><ele>10.0</ele><time>2026-03-24T18:19:00Z</time></trkpt><trkpt lat="45.55901239458439" lon="12.12796975546976"><ele>10.0</ele><time>2026-03-24T18:19:01Z</time></trkpt><trkpt lat="45.55894967693032" lon="12.128304724069164"><ele>10.0</ele><time>2026-03-24T18:19:02Z</time></trkpt><trkpt lat="45.55890109611854" lon="12.128641027894258"><ele>10.0</ele><time>2026-03-24T18:19:03Z</time></trkpt><trkpt lat="45.55886273277436" lon="12.12898817817873"><ele>10.0</ele><time>2026-03-24T18:19:04Z</time></trkpt><trkpt lat="45.55884759265877" lon="12.129310745243913"><ele>9.666666666666668</ele><time>2026-03-24T18:19:05Z</time></trkpt><trkpt lat="45.558847381823085" lon="12.129620951357369"><ele>9.333333333333334</ele><time>2026-03-24T18:19:06Z</time></trkpt><trkpt lat="45.55885691111188" lon="12.129929701865736"><ele>9.0</ele><time>2026-03-24T18:19:07Z</time></trkpt><trkpt lat="45.55887347820227" lon="12.13025291812386"><ele>9.0</ele><time>2026-03-24T18:19:08Z</time></trkpt><trkpt lat="45.558898382950595" lon="12.130575446854978"><ele>9.0</ele><time>2026-03-24T18:19:09Z</time></trkpt><trkpt lat="45.55893716826729" lon="12.130879334117479"><ele>9.0</ele><time>2026-03-24T18:19:10Z</time></trkpt><trkpt lat="45.558984689797875" lon="12.131150284634728"><ele>9.0</ele><time>2026-03-24T18:19:11Z</time></trkpt><trkpt lat="45.55903278323194" lon="12.131401267172627"><ele>9.0</ele><time>2026-03-24T18:19:12Z</time></trkpt><trkpt lat="45.559087542657714" lon="12.131632068298414"><ele>9.0</ele><time>2026-03-24T18:19:13Z</time></trkpt><trkpt lat="45.55914341301651" lon="12.131841787334489"><ele>9.0</ele><time>2026-03-24T18:19:14Z</time></trkpt><trkpt lat="45.55920457893615" lon="12.132032048003634"><ele>9.0</ele><time>2026-03-24T18:19:15Z</time></trkpt><trkpt lat="45.55926287553666" lon="12.132214009997664"><ele>9.0</ele><time>2026-03-24T18:19:16Z</time></trkpt><trkpt lat="45.5593045366719" lon="12.132344465993976"><ele>9.0</ele><time>2026-03-24T18:19:17Z</time></trkpt><trkpt lat="45.559336735770856" lon="12.13248611932428"><ele>8.666666666666666</ele><time>2026-03-24T18:19:18Z</time></trkpt><trkpt lat="45.55938208689682" lon="12.132590515729278"><ele>8.333333333333334</ele><time>2026-03-24T18:19:19Z</time></trkpt><trkpt lat="45.55936775269956" lon="12.132694526617948"><ele>8.0</ele><time>2026-03-24T18:19:20Z</time></trkpt><trkpt lat="45.55935342093316" lon="12.13281086698059"><ele>7.666666666666667</ele><time>2026-03-24T18:19:22Z</time></trkpt><trkpt lat="45.559317129034426" lon="12.13295106972711"><ele>7.333333333333334</ele><time>2026-03-24T18:19:25Z</time></trkpt><trkpt lat="45.559241886974846" lon="12.13299963749114"><ele>7.0</ele><time>2026-03-24T18:19:26Z</time></trkpt><trkpt lat="45.55918383168493" lon="12.133067083578233"><ele>7.0</ele><time>2026-03-24T18:19:27Z</time></trkpt><trkpt lat="45.55908017014991" lon="12.133044938005204"><ele>6.999999999999999</ele><time>2026-03-24T18:19:28Z</time></trkpt><trkpt lat="45.55898810850454" lon="12.133000015061754"><ele>6.999999999999999</ele><time>2026-03-24T18:19:29Z</time></trkpt><trkpt lat="45.558880685923725" lon="12.132927118691258"><ele>7.0</ele><time>2026-03-24T18:19:30Z</time></trkpt><trkpt lat="45.558772854760825" lon="12.132829631332529"><ele>7.0</ele><time>2026-03-24T18:19:31Z</time></trkpt><trkpt lat="45.55864140631726" lon="12.132722503694511"><ele>7.333333333333334</ele><time>2026-03-24T18:19:32Z</time></trkpt><trkpt lat="45.558496807176404" lon="12.13261881727418"><ele>7.666666666666666</ele><time>2026-03-24T18:19:33Z</time></trkpt><trkpt lat="45.558335218806974" lon="12.132504896118892"><ele>8.0</ele><time>2026-03-24T18:19:34Z</time></trkpt><trkpt lat="45.55816151908471" lon="12.132379738458518"><ele>8.0</ele><time>2026-03-24T18:19:35Z</time></trkpt><trkpt lat="45.55798384604572" lon="12.13225428413627"><ele>8.0</ele><time>2026-03-24T18:19:36Z</time></trkpt><trkpt lat="45.557791100042586" lon="12.132148099507981"><ele>8.0</ele><time>2026-03-24T18:19:37Z</time></trkpt><trkpt lat="45.55758721529555" lon="12.13205785941938"><ele>8.0</ele><time>2026-03-24T18:19:38Z</time></trkpt><trkpt lat="45.5573729780329" lon="12.131982756277242"><ele>8.0</ele><time>2026-03-24T18:19:39Z</time></trkpt><trkpt lat="45.5571485829117" lon="12.131924370928836"><ele>8.0</ele><time>2026-03-24T18:19:39.999Z</time></trkpt><trkpt lat="45.55692151147156" lon="12.131885714247796"><ele>8.0</ele><time>2026-03-24T18:19:40.999Z</time></trkpt><trkpt lat="45.55668647872177" lon="12.1318701713651"><ele>8.0</ele><time>2026-03-24T18:19:41.999Z</time></trkpt><trkpt lat="45.55644828252213" lon="12.13188972952742"><ele>8.0</ele><time>2026-03-24T18:19:42.999Z</time></trkpt><trkpt lat="45.55620873522213" lon="12.131936017303934"><ele>8.0</ele><time>2026-03-24T18:19:43.999Z</time></trkpt><trkpt lat="45.555967950527744" lon="12.132001939300732"><ele>9.0</ele><time>2026-03-24T18:19:44.999Z</time></trkpt><trkpt lat="45.555729759256515" lon="12.132090871635725"><ele>10.0</ele><time>2026-03-24T18:19:45.999Z</time></trkpt><trkpt lat="45.55550535498853" lon="12.132207634576838"><ele>9.0</ele><time>2026-03-24T18:19:46.999Z</time></trkpt><trkpt lat="45.55528534366022" lon="12.132353457127095"><ele>8.0</ele><time>2026-03-24T18:19:47.999Z</time></trkpt><trkpt lat="45.55506873706346" lon="12.132518077200626"><ele>7.5</ele><time>2026-03-24T18:19:48.999Z</time></trkpt><trkpt lat="45.554861038702114" lon="12.132707428321122"><ele>7.0</ele><time>2026-03-24T18:19:49.999Z</time></trkpt><trkpt lat="45.55466249044738" lon="12.132916557535637"><ele>8.5</ele><time>2026-03-24T18:19:50.999Z</time></trkpt><trkpt lat="45.55446841419359" lon="12.133145864372889"><ele>10.0</ele><time>2026-03-24T18:19:51.999Z</time></trkpt><trkpt lat="45.554287244554814" lon="12.133397087202193"><ele>10.5</ele><time>2026-03-24T18:19:52.999Z</time></trkpt><trkpt lat="45.55410975835075" lon="12.133671620464904"><ele>11.0</ele><time>2026-03-24T18:19:53.999Z</time></trkpt><trkpt lat="45.5539291285863" lon="12.133971628116743"><ele>11.0</ele><time>2026-03-24T18:19:54.999Z</time></trkpt><trkpt lat="45.55374732731896" lon="12.134272691233448"><ele>11.0</ele><time>2026-03-24T18:19:55.999Z</time></trkpt><trkpt lat="45.553581136369864" lon="12.134563684754177"><ele>10.0</ele><time>2026-03-24T18:19:56.999Z</time></trkpt><trkpt lat="45.55342973022526" lon="12.13484008089908"><ele>9.0</ele><time>2026-03-24T18:19:57.999Z</time></trkpt><trkpt lat="45.55326570809897" lon="12.135092573412324"><ele>9.0</ele><time>2026-03-24T18:19:58.999Z</time></trkpt><trkpt lat="45.5531175577146" lon="12.135309863161277"><ele>9.0</ele><time>2026-03-24T18:19:59.999Z</time></trkpt><trkpt lat="45.55294226524156" lon="12.13553256552692"><ele>9.0</ele><time>2026-03-24T18:20:00.999Z</time></trkpt><trkpt lat="45.55275740695439" lon="12.135745025535497"><ele>8.5</ele><time>2026-03-24T18:20:01.999Z</time></trkpt><trkpt lat="45.55256561658377" lon="12.135934224749592"><ele>8.0</ele><time>2026-03-24T18:20:02.999Z</time></trkpt><trkpt lat="45.552341312729034" lon="12.136108764981412"><ele>8.0</ele><time>2026-03-24T18:20:03.999Z</time></trkpt><trkpt lat="45.55211567321679" lon="12.136265915699333"><ele>8.0</ele><time>2026-03-24T18:20:04.999Z</time></trkpt><trkpt lat="45.55187722357948" lon="12.13639253455918"><ele>8.0</ele><time>2026-03-24T18:20:05.999Z</time></trkpt><trkpt lat="45.55164172342146" lon="12.136464378693208"><ele>8.0</ele><time>2026-03-24T18:20:06.999Z</time></trkpt><trkpt lat="45.55143523530461" lon="12.136534536173874"><ele>8.0</ele><time>2026-03-24T18:20:07.999Z</time></trkpt><trkpt lat="45.551230910033496" lon="12.136617296515007"><ele>8.0</ele><time>2026-03-24T18:20:08.999Z</time></trkpt><trkpt lat="45.551033181232015" lon="12.136672974492976"><ele>8.0</ele><time>2026-03-24T18:20:09.999Z</time></trkpt><trkpt lat="45.55085162070682" lon="12.13672840010883"><ele>8.0</ele><time>2026-03-24T18:20:10.999Z</time></trkpt><trkpt lat="45.55068160422411" lon="12.136810315829884"><ele>8.0</ele><time>2026-03-24T18:20:11.999Z</time></trkpt><trkpt lat="45.550545842048834" lon="12.13688520006918"><ele>8.0</ele><time>2026-03-24T18:20:12.999Z</time></trkpt><trkpt lat="45.550409430523764" lon="12.136968534538722"><ele>8.0</ele><time>2026-03-24T18:20:13.999Z</time></trkpt><trkpt lat="45.55028639347796" lon="12.137059081230767"><ele>8.0</ele><time>2026-03-24T18:20:14.999Z</time></trkpt><trkpt lat="45.5501592417657" lon="12.13712723052038"><ele>8.0</ele><time>2026-03-24T18:20:15.999Z</time></trkpt><trkpt lat="45.55005873279121" lon="12.137233621214953"><ele>8.0</ele><time>2026-03-24T18:20:16.999Z</time></trkpt><trkpt lat="45.549957504256035" lon="12.137303969746743"><ele>8.0</ele><time>2026-03-24T18:20:17.999Z</time></trkpt><trkpt lat="45.5498708503559" lon="12.137358996773576"><ele>8.0</ele><time>2026-03-24T18:20:18.999Z</time></trkpt><trkpt lat="45.549784251793156" lon="12.13738822036053"><ele>8.0</ele><time>2026-03-24T18:20:19.999Z</time></trkpt><trkpt lat="45.5496937871521" lon="12.137381709575736"><ele>8.0</ele><time>2026-03-24T18:20:20.999Z</time></trkpt><trkpt lat="45.54960542156544" lon="12.137337683801066"><ele>8.0</ele><time>2026-03-24T18:20:21.999Z</time></trkpt><trkpt lat="45.54951187019469" lon="12.137316437880557"><ele>7.800000000000001</ele><time>2026-03-24T18:20:22.999Z</time></trkpt><trkpt lat="45.54941601650266" lon="12.13734799295557"><ele>7.6000000000000005</ele><time>2026-03-24T18:20:23.999Z</time></trkpt><trkpt lat="45.54934183174374" lon="12.137448288590017"><ele>7.3999999999999995</ele><time>2026-03-24T18:20:24.999Z</time></trkpt><trkpt lat="45.54932975913241" lon="12.137595684370543"><ele>7.199999999999999</ele><time>2026-03-24T18:20:25.999Z</time></trkpt><trkpt lat="45.5492411706458" lon="12.137708227813762"><ele>7.0</ele><time>2026-03-24T18:20:26.999Z</time></trkpt><trkpt lat="45.54917128161478" lon="12.137822874901875"><ele>7.0</ele><time>2026-03-24T18:20:27.999Z</time></trkpt><trkpt lat="45.54901197695103" lon="12.137863790890274"><ele>7.0</ele><time>2026-03-24T18:20:28.999Z</time></trkpt><trkpt lat="45.5488664625218" lon="12.137924779612858"><ele>7.0</ele><time>2026-03-24T18:20:29.999Z</time></trkpt><trkpt lat="45.54870093165186" lon="12.1380011663485"><ele>7.0</ele><time>2026-03-24T18:20:30.999Z</time></trkpt><trkpt lat="45.54852258955642" lon="12.138088732857508"><ele>7.0</ele><time>2026-03-24T18:20:31.999Z</time></trkpt><trkpt lat="45.548342862308644" lon="12.138176604187654"><ele>7.0</ele><time>2026-03-24T18:20:32.999Z</time></trkpt><trkpt lat="45.54815306152143" lon="12.138271683124112"><ele>7.0</ele><time>2026-03-24T18:20:33.999Z</time></trkpt><trkpt lat="45.54796852529702" lon="12.13836916568002"><ele>7.0</ele><time>2026-03-24T18:20:34.998Z</time></trkpt><trkpt lat="45.54778954662592" lon="12.138477421722396"><ele>7.0</ele><time>2026-03-24T18:20:35.998Z</time></trkpt><trkpt lat="45.547619971756376" lon="12.138598944388361"><ele>7.333333333333334</ele><time>2026-03-24T18:20:36.998Z</time></trkpt><trkpt lat="45.54744753989894" lon="12.138727294131952"><ele>7.666666666666666</ele><time>2026-03-24T18:20:37.998Z</time></trkpt><trkpt lat="45.547289966384085" lon="12.138872136622266"><ele>8.0</ele><time>2026-03-24T18:20:38.998Z</time></trkpt><trkpt lat="45.5471335320221" lon="12.139036429298088"><ele>7.666666666666666</ele><time>2026-03-24T18:20:39.998Z</time></trkpt><trkpt lat="45.546981953443286" lon="12.139210080483897"><ele>7.333333333333334</ele><time>2026-03-24T18:20:40.998Z</time></trkpt><trkpt lat="45.546833804317274" lon="12.139394180136886"><ele>7.0</ele><time>2026-03-24T18:20:41.998Z</time></trkpt><trkpt lat="45.54668386863289" lon="12.13959429533737"><ele>7.0</ele><time>2026-03-24T18:20:42.998Z</time></trkpt><trkpt lat="45.54654086404018" lon="12.139800411990722"><ele>7.0</ele><time>2026-03-24T18:20:43.998Z</time></trkpt><trkpt lat="45.546392886983284" lon="12.140020609821722"><ele>7.0</ele><time>2026-03-24T18:20:44.998Z</time></trkpt><trkpt lat="45.54624635344357" lon="12.140242691258665"><ele>6.5</ele><time>2026-03-24T18:20:45.998Z</time></trkpt><trkpt lat="45.54607674007024" lon="12.140450619428679"><ele>6.0</ele><time>2026-03-24T18:20:46.998Z</time></trkpt><trkpt lat="45.54589941854506" lon="12.140691330783278"><ele>5.5</ele><time>2026-03-24T18:20:47.998Z</time></trkpt><trkpt lat="45.54570512474603" lon="12.140937132282012"><ele>5.0</ele><time>2026-03-24T18:20:48.998Z</time></trkpt><trkpt lat="45.54549494950752" lon="12.141185824749774"><ele>6.5</ele><time>2026-03-24T18:20:49.998Z</time></trkpt><trkpt lat="45.54527790171284" lon="12.141440831963196"><ele>8.0</ele><time>2026-03-24T18:20:50.998Z</time></trkpt><trkpt lat="45.545046714227105" lon="12.14166181459651"><ele>8.0</ele><time>2026-03-24T18:20:51.998Z</time></trkpt><trkpt lat="45.544835605737184" lon="12.141862315389544"><ele>8.0</ele><time>2026-03-24T18:20:52.998Z</time></trkpt><trkpt lat="45.54463591657138" lon="12.142057029501595"><ele>8.5</ele><time>2026-03-24T18:20:53.998Z</time></trkpt><trkpt lat="45.54443254561075" lon="12.142245205332594"><ele>9.0</ele><time>2026-03-24T18:20:54.998Z</time></trkpt><trkpt lat="45.544227939727946" lon="12.142440687375089"><ele>8.333333333333334</ele><time>2026-03-24T18:20:55.998Z</time></trkpt><trkpt lat="45.54403499602032" lon="12.142624014505428"><ele>7.666666666666667</ele><time>2026-03-24T18:20:56.998Z</time></trkpt><trkpt lat="45.54386268458274" lon="12.142793434330013"><ele>7.0</ele><time>2026-03-24T18:20:57.998Z</time></trkpt><trkpt lat="45.54370068692906" lon="12.142952170948417"><ele>7.0</ele><time>2026-03-24T18:20:58.998Z</time></trkpt><trkpt lat="45.54355954099602" lon="12.143094757662608"><ele>7.0</ele><time>2026-03-24T18:20:59.998Z</time></trkpt><trkpt lat="45.543442090789135" lon="12.143209292692449"><ele>7.0</ele><time>2026-03-24T18:21:00.998Z</time></trkpt><trkpt lat="45.5433359908159" lon="12.143314560660585"><ele>7.0</ele><time>2026-03-24T18:21:02Z</time></trkpt><trkpt lat="45.543232371291765" lon="12.143415415514331"><ele>7.0</ele><time>2026-03-24T18:21:03Z</time></trkpt><trkpt lat="45.54314257490798" lon="12.143486322314152"><ele>6.999999999999999</ele><time>2026-03-24T18:21:04Z</time></trkpt><trkpt lat="45.54306766472914" lon="12.143516152100455"><ele>6.999999999999999</ele><time>2026-03-24T18:21:05Z</time></trkpt><trkpt lat="45.54297750729771" lon="12.143523726009821"><ele>7.0</ele><time>2026-03-24T18:21:06Z</time></trkpt><trkpt lat="45.5428784643941" lon="12.143520485292488"><ele>7.0</ele><time>2026-03-24T18:21:07Z</time></trkpt><trkpt lat="45.54278836504666" lon="12.143572614968821"><ele>7.199999999999999</ele><time>2026-03-24T18:21:08Z</time></trkpt><trkpt lat="45.54271836144625" lon="12.143667773477432"><ele>7.3999999999999995</ele><time>2026-03-24T18:21:09Z</time></trkpt><trkpt lat="45.54265921726951" lon="12.143777482702848"><ele>7.6000000000000005</ele><time>2026-03-24T18:21:10Z</time></trkpt><trkpt lat="45.54255032854047" lon="12.143809921718995"><ele>7.800000000000001</ele><time>2026-03-24T18:21:11Z</time></trkpt><trkpt lat="45.54243931765605" lon="12.14380735369111"><ele>8.0</ele><time>2026-03-24T18:21:12Z</time></trkpt><trkpt lat="45.54229716001871" lon="12.143783551212252"><ele>8.0</ele><time>2026-03-24T18:21:13Z</time></trkpt><trkpt lat="45.54214109663363" lon="12.143772158057757"><ele>8.0</ele><time>2026-03-24T18:21:14Z</time></trkpt><trkpt lat="45.54195818032955" lon="12.143772357308158"><ele>8.0</ele><time>2026-03-24T18:21:15Z</time></trkpt><trkpt lat="45.54176241864954" lon="12.143765775783823"><ele>8.0</ele><time>2026-03-24T18:21:16Z</time></trkpt><trkpt lat="45.541551336635806" lon="12.143763979421681"><ele>8.0</ele><time>2026-03-24T18:21:17Z</time></trkpt><trkpt lat="45.54133063711782" lon="12.14376768687783"><ele>8.0</ele><time>2026-03-24T18:21:18Z</time></trkpt><trkpt lat="45.54110231653478" lon="12.143772458924238"><ele>7.5</ele><time>2026-03-24T18:21:19Z</time></trkpt><trkpt lat="45.54086960100993" lon="12.143793423575836"><ele>7.0</ele><time>2026-03-24T18:21:20Z</time></trkpt><trkpt lat="45.54063321631027" lon="12.143829916120232"><ele>7.0</ele><time>2026-03-24T18:21:21Z</time></trkpt><trkpt lat="45.54039512083433" lon="12.143885324068204"><ele>7.0</ele><time>2026-03-24T18:21:22Z</time></trkpt><trkpt lat="45.540157506770925" lon="12.143966662206108"><ele>6.5</ele><time>2026-03-24T18:21:23Z</time></trkpt><trkpt lat="45.539922782232296" lon="12.14406509172241"><ele>6.0</ele><time>2026-03-24T18:21:24Z</time></trkpt><trkpt lat="45.53968926315106" lon="12.144180792887687"><ele>6.5</ele><time>2026-03-24T18:21:25Z</time></trkpt><trkpt lat="45.53945949309423" lon="12.144312994118769"><ele>7.0</ele><time>2026-03-24T18:21:26Z</time></trkpt><trkpt lat="45.539234606545264" lon="12.144470526393762"><ele>7.0</ele><time>2026-03-24T18:21:27Z</time></trkpt><trkpt lat="45.5390135632377" lon="12.144646534683483"><ele>7.0</ele><time>2026-03-24T18:21:28Z</time></trkpt><trkpt lat="45.53879742777006" lon="12.144839417163347"><ele>7.5</ele><time>2026-03-24T18:21:29Z</time></trkpt><trkpt lat="45.538587611357826" lon="12.145051234828266"><ele>8.0</ele><time>2026-03-24T18:21:30Z</time></trkpt><trkpt lat="45.53838038583532" lon="12.1452794763496"><ele>8.0</ele><time>2026-03-24T18:21:31Z</time></trkpt><trkpt lat="45.53818812052477" lon="12.14552403728326"><ele>8.0</ele><time>2026-03-24T18:21:32Z</time></trkpt><trkpt lat="45.538005393394855" lon="12.145784882817074"><ele>6.5</ele><time>2026-03-24T18:21:33Z</time></trkpt><trkpt lat="45.53783655394248" lon="12.146054907155156"><ele>5.0</ele><time>2026-03-24T18:21:34Z</time></trkpt><trkpt lat="45.537677949071266" lon="12.146335781952386"><ele>6.5</ele><time>2026-03-24T18:21:35Z</time></trkpt><trkpt lat="45.53753332221221" lon="12.146630901214717"><ele>8.0</ele><time>2026-03-24T18:21:36Z</time></trkpt><trkpt lat="45.53740006587335" lon="12.14693364180331"><ele>8.0</ele><time>2026-03-24T18:21:37Z</time></trkpt><trkpt lat="45.53726735381151" lon="12.147261986752081"><ele>8.0</ele><time>2026-03-24T18:21:38Z</time></trkpt><trkpt lat="45.53714259733818" lon="12.147603386119505"><ele>7.5</ele><time>2026-03-24T18:21:39Z</time></trkpt><trkpt lat="45.53703192104072" lon="12.1479279683955"><ele>7.0</ele><time>2026-03-24T18:21:40Z</time></trkpt><trkpt lat="45.53692831979741" lon="12.14822084925646"><ele>6.333333333333334</ele><time>2026-03-24T18:21:41Z</time></trkpt><trkpt lat="45.536831431135" lon="12.148489572450073"><ele>5.666666666666667</ele><time>2026-03-24T18:21:41.999Z</time></trkpt><trkpt lat="45.53674135332295" lon="12.148729950245114"><ele>5.0</ele><time>2026-03-24T18:21:42.999Z</time></trkpt><trkpt lat="45.536660994001174" lon="12.148957135753808"><ele>5.0</ele><time>2026-03-24T18:21:43.999Z</time></trkpt><trkpt lat="45.53659101734375" lon="12.149161002789834"><ele>5.0</ele><time>2026-03-24T18:21:44.999Z</time></trkpt><trkpt lat="45.536510500606866" lon="12.149345237559794"><ele>5.0</ele><time>2026-03-24T18:21:45.999Z</time></trkpt><trkpt lat="45.5364460133463" lon="12.149523687780468"><ele>5.0</ele><time>2026-03-24T18:21:46.999Z</time></trkpt><trkpt lat="45.536372053667236" lon="12.149724581235562"><ele>5.0</ele><time>2026-03-24T18:21:47.999Z</time></trkpt><trkpt lat="45.536302332586544" lon="12.149909709963163"><ele>5.0</ele><time>2026-03-24T18:21:48.999Z</time></trkpt><trkpt lat="45.53620607193546" lon="12.150158190900758"><ele>5.333333333333334</ele><time>2026-03-24T18:21:49.999Z</time></trkpt><trkpt lat="45.53607947948902" lon="12.15040074042503"><ele>5.666666666666667</ele><time>2026-03-24T18:21:50.999Z</time></trkpt><trkpt lat="45.535992318410976" lon="12.150566667664853"><ele>6.0</ele><time>2026-03-24T18:21:51.999Z</time></trkpt><trkpt lat="45.53589682640421" lon="12.15071824699063"><ele>6.0</ele><time>2026-03-24T18:21:52.999Z</time></trkpt><trkpt lat="45.53581196390841" lon="12.150855328784377"><ele>6.0</ele><time>2026-03-24T18:21:53.999Z</time></trkpt><trkpt lat="45.53574317738442" lon="12.150957761274974"><ele>6.0</ele><time>2026-03-24T18:21:54.999Z</time></trkpt><trkpt lat="45.53567801885311" lon="12.151044919019492"><ele>6.0</ele><time>2026-03-24T18:21:55.999Z</time></trkpt><trkpt lat="45.53562522566506" lon="12.15112643049524"><ele>6.0</ele><time>2026-03-24T18:21:56.999Z</time></trkpt><trkpt lat="45.53557437524135" lon="12.151188965849963"><ele>6.0</ele><time>2026-03-24T18:21:57.999Z</time></trkpt><trkpt lat="45.53549160086729" lon="12.15128049393091"><ele>6.0</ele><time>2026-03-24T18:21:59.999Z</time></trkpt><trkpt lat="45.53542543591069" lon="12.151341969793398"><ele>6.0</ele><time>2026-03-24T18:22:01.999Z</time></trkpt><trkpt lat="45.53535392199004" lon="12.151396573803897"><ele>6.0</ele><time>2026-03-24T18:22:03.999Z</time></trkpt><trkpt lat="45.53526161379888" lon="12.151470489990976"><ele>6.0</ele><time>2026-03-24T18:22:05.999Z</time></trkpt><trkpt lat="45.53518732415198" lon="12.151474101712495"><ele>6.0</ele><time>2026-03-24T18:22:06.999Z</time></trkpt><trkpt lat="45.5351239236571" lon="12.151452917549324"><ele>6.0</ele><time>2026-03-24T18:22:07.999Z</time></trkpt><trkpt lat="45.53505077548959" lon="12.151477370113712"><ele>6.0</ele><time>2026-03-24T18:22:08.999Z</time></trkpt><trkpt lat="45.534981433855485" lon="12.151523389336694"><ele>6.0</ele><time>2026-03-24T18:22:09.999Z</time></trkpt><trkpt lat="45.53492063615579" lon="12.151602734799924"><ele>6.0</ele><time>2026-03-24T18:22:10.999Z</time></trkpt><trkpt lat="45.53487373927068" lon="12.151711398943851"><ele>6.0</ele><time>2026-03-24T18:22:11.999Z</time></trkpt><trkpt lat="45.53485666188717" lon="12.15183148502225"><ele>6.0</ele><time>2026-03-24T18:22:12.999Z</time></trkpt><trkpt lat="45.534784509917195" lon="12.151922457568647"><ele>5.8</ele><time>2026-03-24T18:22:13.999Z</time></trkpt><trkpt lat="45.53470203763933" lon="12.151991015185153"><ele>5.6</ele><time>2026-03-24T18:22:14.999Z</time></trkpt><trkpt lat="45.53461079054035" lon="12.152042283470244"><ele>5.4</ele><time>2026-03-24T18:22:15.999Z</time></trkpt><trkpt lat="45.5345130603146" lon="12.1520899775591"><ele>5.2</ele><time>2026-03-24T18:22:16.999Z</time></trkpt><trkpt lat="45.53441028381611" lon="12.152113233303622"><ele>5.0</ele><time>2026-03-24T18:22:17.999Z</time></trkpt><trkpt lat="45.53430737830932" lon="12.152120237300103"><ele>5.0</ele><time>2026-03-24T18:22:18.999Z</time></trkpt><trkpt lat="45.534202436107876" lon="12.152099973036073"><ele>5.0</ele><time>2026-03-24T18:22:19.999Z</time></trkpt><trkpt lat="45.534096155004164" lon="12.152058787612594"><ele>5.0</ele><time>2026-03-24T18:22:20.999Z</time></trkpt><trkpt lat="45.533987997137565" lon="12.152025536073314"><ele>5.0</ele><time>2026-03-24T18:22:21.999Z</time></trkpt><trkpt lat="45.53387800883527" lon="12.151993512251776"><ele>5.0</ele><time>2026-03-24T18:22:22.999Z</time></trkpt><trkpt lat="45.53376830454825" lon="12.151962428103383"><ele>5.166666666666667</ele><time>2026-03-24T18:22:23.999Z</time></trkpt><trkpt lat="45.533668256992186" lon="12.151937607879963"><ele>5.333333333333334</ele><time>2026-03-24T18:22:24.999Z</time></trkpt><trkpt lat="45.53358427677215" lon="12.151923479190817"><ele>5.5</ele><time>2026-03-24T18:22:25.999Z</time></trkpt><trkpt lat="45.5335107061382" lon="12.151904203995903"><ele>5.666666666666667</ele><time>2026-03-24T18:22:26.999Z</time></trkpt><trkpt lat="45.53343705309732" lon="12.151885541313733"><ele>5.833333333333333</ele><time>2026-03-24T18:22:27.999Z</time></trkpt><trkpt lat="45.533357747568324" lon="12.151869633520706"><ele>6.0</ele><time>2026-03-24T18:22:28.999Z</time></trkpt><trkpt lat="45.53327328077074" lon="12.151847189242183"><ele>6.0</ele><time>2026-03-24T18:22:29.999Z</time></trkpt><trkpt lat="45.533187216698316" lon="12.151820578580686"><ele>6.0</ele><time>2026-03-24T18:22:30.999Z</time></trkpt><trkpt lat="45.53310456916024" lon="12.151804884040711"><ele>6.0</ele><time>2026-03-24T18:22:31.999Z</time></trkpt><trkpt lat="45.53301988891544" lon="12.151782871493797"><ele>6.0</ele><time>2026-03-24T18:22:32.999Z</time></trkpt><trkpt lat="45.53292944520428" lon="12.151760624619461"><ele>6.0</ele><time>2026-03-24T18:22:33.999Z</time></trkpt><trkpt lat="45.53283440794296" lon="12.151740932312075"><ele>6.0</ele><time>2026-03-24T18:22:34.999Z</time></trkpt><trkpt lat="45.5327139574842" lon="12.151717821421274"><ele>6.75</ele><time>2026-03-24T18:22:35.998Z</time></trkpt><trkpt lat="45.53257895540921" lon="12.151688116893578"><ele>7.5</ele><time>2026-03-24T18:22:36.998Z</time></trkpt><trkpt lat="45.532455291221495" lon="12.15165634326762"><ele>8.25</ele><time>2026-03-24T18:22:37.998Z</time></trkpt><trkpt lat="45.532344654500676" lon="12.151633206326679"><ele>9.0</ele><time>2026-03-24T18:22:38.998Z</time></trkpt><trkpt lat="45.53224797869665" lon="12.15161378631612"><ele>9.000000000000002</ele><time>2026-03-24T18:22:39.998Z</time></trkpt><trkpt lat="45.53216993978605" lon="12.151595774371081"><ele>9.0</ele><time>2026-03-24T18:22:40.998Z</time></trkpt><trkpt lat="45.53210495770848" lon="12.151578353375767"><ele>9.0</ele><time>2026-03-24T18:22:41.998Z</time></trkpt><trkpt lat="45.532038956339896" lon="12.151560619032301"><ele>9.0</ele><time>2026-03-24T18:22:42.998Z</time></trkpt><trkpt lat="45.531970829622736" lon="12.151546000140655"><ele>9.0</ele><time>2026-03-24T18:22:43.998Z</time></trkpt><trkpt lat="45.53189860073223" lon="12.151528186484763"><ele>9.000000000000002</ele><time>2026-03-24T18:22:44.998Z</time></trkpt><trkpt lat="45.53180732764883" lon="12.15150097370641"><ele>9.0</ele><time>2026-03-24T18:22:46.998Z</time></trkpt><trkpt lat="45.53173393170054" lon="12.151477485804895"><ele>8.4</ele><time>2026-03-24T18:22:48.998Z</time></trkpt><trkpt lat="45.5316426748232" lon="12.151408693557679"><ele>7.800000000000001</ele><time>2026-03-24T18:22:50.998Z</time></trkpt><trkpt lat="45.53156328163936" lon="12.151282810931676"><ele>7.199999999999999</ele><time>2026-03-24T18:22:52.998Z</time></trkpt><trkpt lat="45.53155300093324" lon="12.151172885292155"><ele>6.6</ele><time>2026-03-24T18:22:53.998Z</time></trkpt><trkpt lat="45.53151202441212" lon="12.151090397806291"><ele>6.0</ele><time>2026-03-24T18:22:54.998Z</time></trkpt><trkpt lat="45.531399904438516" lon="12.15102626660335"><ele>6.0</ele><time>2026-03-24T18:22:56.998Z</time></trkpt><trkpt lat="45.531332306261774" lon="12.15104365364514"><ele>6.0</ele><time>2026-03-24T18:22:57.998Z</time></trkpt><trkpt lat="45.5312561681171" lon="12.151087312579062"><ele>6.0</ele><time>2026-03-24T18:22:58.998Z</time></trkpt><trkpt lat="45.53116864266449" lon="12.151161048353904"><ele>6.0</ele><time>2026-03-24T18:22:59.998Z</time></trkpt><trkpt lat="45.53105781830417" lon="12.151214956591055"><ele>6.0</ele><time>2026-03-24T18:23:00.998Z</time></trkpt><trkpt lat="45.5309589663298" lon="12.151255071523414"><ele>6.0</ele><time>2026-03-24T18:23:01.998Z</time></trkpt><trkpt lat="45.530853394639045" lon="12.15128269445803"><ele>6.0</ele><time>2026-03-24T18:23:02.998Z</time></trkpt><trkpt lat="45.53075349905023" lon="12.151333842008757"><ele>6.0</ele><time>2026-03-24T18:23:03.998Z</time></trkpt><trkpt lat="45.53065228838506" lon="12.151371446044292"><ele>6.0</ele><time>2026-03-24T18:23:04.998Z</time></trkpt><trkpt lat="45.53051807083652" lon="12.15122204159627"><ele>6.0</ele><time>2026-03-24T18:23:05.998Z</time></trkpt><trkpt lat="45.53040038523783" lon="12.151153225909837"><ele>6.0</ele><time>2026-03-24T18:23:06.998Z</time></trkpt><trkpt lat="45.530271911947395" lon="12.151076871772649"><ele>6.0</ele><time>2026-03-24T18:23:08Z</time></trkpt><trkpt lat="45.53012925360312" lon="12.150990891391578"><ele>6.0</ele><time>2026-03-24T18:23:09Z</time></trkpt><trkpt lat="45.52998087537214" lon="12.150915639276201"><ele>6.333333333333334</ele><time>2026-03-24T18:23:10Z</time></trkpt><trkpt lat="45.52982728895335" lon="12.1508392709952"><ele>6.666666666666667</ele><time>2026-03-24T18:23:11Z</time></trkpt><trkpt lat="45.529668407918486" lon="12.150733612459547"><ele>7.0</ele><time>2026-03-24T18:23:12Z</time></trkpt><trkpt lat="45.52949354970772" lon="12.150637862771138"><ele>7.0</ele><time>2026-03-24T18:23:13Z</time></trkpt><trkpt lat="45.529308760513196" lon="12.150536071558266"><ele>7.0</ele><time>2026-03-24T18:23:14Z</time></trkpt><trkpt lat="45.5291211120451" lon="12.150434578092314"><ele>7.0</ele><time>2026-03-24T18:23:15Z</time></trkpt><trkpt lat="45.52893655496627" lon="12.150337956092702"><ele>7.0</ele><time>2026-03-24T18:23:16Z</time></trkpt><trkpt lat="45.52877012779802" lon="12.150247702789528"><ele>7.0</ele><time>2026-03-24T18:23:17Z</time></trkpt><trkpt lat="45.528611275899344" lon="12.150174097563662"><ele>7.0</ele><time>2026-03-24T18:23:18Z</time></trkpt><trkpt lat="45.52846121133831" lon="12.150112893350093"><ele>7.333333333333334</ele><time>2026-03-24T18:23:19Z</time></trkpt><trkpt lat="45.52830713166864" lon="12.150059429109806"><ele>7.666666666666666</ele><time>2026-03-24T18:23:20Z</time></trkpt><trkpt lat="45.52815308855185" lon="12.150012508090903"><ele>8.0</ele><time>2026-03-24T18:23:21Z</time></trkpt><trkpt lat="45.52798948031462" lon="12.149966541517744"><ele>7.0</ele><time>2026-03-24T18:23:22Z</time></trkpt><trkpt lat="45.527819303948554" lon="12.149926088100422"><ele>6.0</ele><time>2026-03-24T18:23:23Z</time></trkpt><trkpt lat="45.5276577883546" lon="12.149890841148073"><ele>5.0</ele><time>2026-03-24T18:23:24Z</time></trkpt><trkpt lat="45.52750681408142" lon="12.149867154316151"><ele>5.0</ele><time>2026-03-24T18:23:25Z</time></trkpt><trkpt lat="45.52736538442675" lon="12.149846010156411"><ele>5.0</ele><time>2026-03-24T18:23:26Z</time></trkpt><trkpt lat="45.5272333300709" lon="12.149827129090157"><ele>5.0</ele><time>2026-03-24T18:23:27Z</time></trkpt><trkpt lat="45.52710678603763" lon="12.149807723523425"><ele>5.0</ele><time>2026-03-24T18:23:28Z</time></trkpt><trkpt lat="45.52698613115222" lon="12.149789773570477"><ele>5.25</ele><time>2026-03-24T18:23:29Z</time></trkpt><trkpt lat="45.52686552041462" lon="12.149775600543773"><ele>5.5</ele><time>2026-03-24T18:23:30Z</time></trkpt><trkpt lat="45.52674243040238" lon="12.149763180825722"><ele>5.75</ele><time>2026-03-24T18:23:31Z</time></trkpt><trkpt lat="45.52662241033404" lon="12.149744778374043"><ele>6.0</ele><time>2026-03-24T18:23:32Z</time></trkpt><trkpt lat="45.52650599204236" lon="12.149727968963424"><ele>6.0</ele><time>2026-03-24T18:23:33Z</time></trkpt><trkpt lat="45.52639694564489" lon="12.1497167424661"><ele>6.0</ele><time>2026-03-24T18:23:34Z</time></trkpt><trkpt lat="45.52629492806022" lon="12.149704234697381"><ele>6.0</ele><time>2026-03-24T18:23:35Z</time></trkpt><trkpt lat="45.52620599216923" lon="12.149694223259493"><ele>6.0</ele><time>2026-03-24T18:23:36Z</time></trkpt><trkpt lat="45.52613147807918" lon="12.149679448692552"><ele>6.0</ele><time>2026-03-24T18:23:37Z</time></trkpt><trkpt lat="45.52606723093867" lon="12.149671453940929"><ele>6.0</ele><time>2026-03-24T18:23:38Z</time></trkpt><trkpt lat="45.52595695041477" lon="12.149657716581286"><ele>6.166666666666667</ele><time>2026-03-24T18:23:40Z</time></trkpt><trkpt lat="45.52588192072458" lon="12.149654743228362"><ele>6.333333333333334</ele><time>2026-03-24T18:23:42Z</time></trkpt><trkpt lat="45.525812648160986" lon="12.14965323715669"><ele>6.5</ele><time>2026-03-24T18:23:44Z</time></trkpt><trkpt lat="45.52573615225363" lon="12.14961228913127"><ele>6.666666666666667</ele><time>2026-03-24T18:23:47Z</time></trkpt><trkpt lat="45.52566479272771" lon="12.1495688294426"><ele>6.833333333333334</ele><time>2026-03-24T18:23:49Z</time></trkpt><trkpt lat="45.5255819497206" lon="12.149468414753144"><ele>7.0</ele><time>2026-03-24T18:23:50.999Z</time></trkpt><trkpt lat="45.525465917198005" lon="12.149442276470662"><ele>7.000000000000001</ele><time>2026-03-24T18:23:52.999Z</time></trkpt><trkpt lat="45.52539543634156" lon="12.149459208997055"><ele>7.0</ele><time>2026-03-24T18:23:53.999Z</time></trkpt><trkpt lat="45.52531816227141" lon="12.149493466361733"><ele>7.0</ele><time>2026-03-24T18:23:54.999Z</time></trkpt><trkpt lat="45.52522412982387" lon="12.149522405570288"><ele>7.0</ele><time>2026-03-24T18:23:55.999Z</time></trkpt><trkpt lat="45.52511915116209" lon="12.149533121855791"><ele>7.000000000000001</ele><time>2026-03-24T18:23:56.999Z</time></trkpt><trkpt lat="45.52502663342386" lon="12.149536345639651"><ele>7.0</ele><time>2026-03-24T18:23:57.999Z</time></trkpt><trkpt lat="45.52491186356751" lon="12.14952790197959"><ele>7.0</ele><time>2026-03-24T18:23:58.999Z</time></trkpt><trkpt lat="45.52478979704766" lon="12.149512391446963"><ele>7.0</ele><time>2026-03-24T18:23:59.999Z</time></trkpt><trkpt lat="45.52466588628649" lon="12.149494330777973"><ele>7.0</ele><time>2026-03-24T18:24:00.999Z</time></trkpt><trkpt lat="45.52454129603836" lon="12.14947635895644"><ele>7.0</ele><time>2026-03-24T18:24:01.999Z</time></trkpt><trkpt lat="45.52441496192033" lon="12.14945752303056"><ele>6.25</ele><time>2026-03-24T18:24:02.999Z</time></trkpt><trkpt lat="45.524286111293165" lon="12.149438972603418"><ele>5.5</ele><time>2026-03-24T18:24:03.999Z</time></trkpt><trkpt lat="45.52415197434365" lon="12.149422739460343"><ele>4.75</ele><time>2026-03-24T18:24:04.999Z</time></trkpt><trkpt lat="45.523996757048614" lon="12.149404762813859"><ele>4.0</ele><time>2026-03-24T18:24:05.999Z</time></trkpt><trkpt lat="45.5238274703536" lon="12.149380990649783"><ele>4.0</ele><time>2026-03-24T18:24:06.999Z</time></trkpt><trkpt lat="45.5236662882827" lon="12.14935544908126"><ele>4.0</ele><time>2026-03-24T18:24:07.999Z</time></trkpt><trkpt lat="45.523519613853786" lon="12.149323574241386"><ele>4.0</ele><time>2026-03-24T18:24:08.999Z</time></trkpt><trkpt lat="45.52338624549169" lon="12.1493172719589"><ele>4.0</ele><time>2026-03-24T18:24:09.999Z</time></trkpt><trkpt lat="45.52325579106256" lon="12.14931285754042"><ele>4.0</ele><time>2026-03-24T18:24:10.999Z</time></trkpt><trkpt lat="45.523122203426105" lon="12.149315719320448"><ele>4.0</ele><time>2026-03-24T18:24:11.999Z</time></trkpt><trkpt lat="45.52298770220846" lon="12.149315055817036"><ele>4.0</ele><time>2026-03-24T18:24:12.999Z</time></trkpt><trkpt lat="45.522852605644836" lon="12.149321271818058"><ele>4.0</ele><time>2026-03-24T18:24:13.999Z</time></trkpt><trkpt lat="45.52273070591293" lon="12.149333646193883"><ele>4.25</ele><time>2026-03-24T18:24:14.999Z</time></trkpt><trkpt lat="45.52260774369019" lon="12.149347700014726"><ele>4.5</ele><time>2026-03-24T18:24:15.999Z</time></trkpt><trkpt lat="45.52248636112815" lon="12.149365847405647"><ele>4.75</ele><time>2026-03-24T18:24:16.999Z</time></trkpt><trkpt lat="45.52234745407969" lon="12.149387828925835"><ele>5.0</ele><time>2026-03-24T18:24:17.999Z</time></trkpt><trkpt lat="45.52222051009691" lon="12.149413113345373"><ele>5.0</ele><time>2026-03-24T18:24:18.999Z</time></trkpt><trkpt lat="45.52208532273694" lon="12.14944380110459"><ele>5.0</ele><time>2026-03-24T18:24:19.999Z</time></trkpt><trkpt lat="45.521949495044616" lon="12.149476230025883"><ele>5.0</ele><time>2026-03-24T18:24:20.999Z</time></trkpt><trkpt lat="45.52181629596167" lon="12.149516579961654"><ele>5.0</ele><time>2026-03-24T18:24:21.999Z</time></trkpt><trkpt lat="45.52168095389159" lon="12.149565335546285"><ele>5.0</ele><time>2026-03-24T18:24:22.999Z</time></trkpt><trkpt lat="45.521550943759564" lon="12.149610314826573"><ele>5.0</ele><time>2026-03-24T18:24:23.999Z</time></trkpt><trkpt lat="45.52141962611745" lon="12.149654250828142"><ele>5.0</ele><time>2026-03-24T18:24:24.999Z</time></trkpt><trkpt lat="45.52128817657924" lon="12.149703970179726"><ele>5.0</ele><time>2026-03-24T18:24:25.999Z</time></trkpt><trkpt lat="45.521153260929" lon="12.149752663191002"><ele>5.0</ele><time>2026-03-24T18:24:26.999Z</time></trkpt><trkpt lat="45.52101379731781" lon="12.149810333938612"><ele>5.0</ele><time>2026-03-24T18:24:27.999Z</time></trkpt><trkpt lat="45.52086676843327" lon="12.149870343893062"><ele>5.0</ele><time>2026-03-24T18:24:28.999Z</time></trkpt><trkpt lat="45.520714925662475" lon="12.149937320901053"><ele>5.0</ele><time>2026-03-24T18:24:29.999Z</time></trkpt><trkpt lat="45.520553274774564" lon="12.150010836527416"><ele>5.0</ele><time>2026-03-24T18:24:30.999Z</time></trkpt><trkpt lat="45.52037319928096" lon="12.150092395432956"><ele>5.0</ele><time>2026-03-24T18:24:31.999Z</time></trkpt><trkpt lat="45.52018329127589" lon="12.150167724496201"><ele>5.333333333333334</ele><time>2026-03-24T18:24:32.999Z</time></trkpt><trkpt lat="45.519985527814164" lon="12.150242180220475"><ele>5.666666666666667</ele><time>2026-03-24T18:24:33.999Z</time></trkpt><trkpt lat="45.51979609841176" lon="12.150317602668014"><ele>6.0</ele><time>2026-03-24T18:24:34.999Z</time></trkpt><trkpt lat="45.519629603011694" lon="12.150385009750945"><ele>6.333333333333334</ele><time>2026-03-24T18:24:35.999Z</time></trkpt><trkpt lat="45.51947363712327" lon="12.150448956316627"><ele>6.666666666666667</ele><time>2026-03-24T18:24:36.999Z</time></trkpt><trkpt lat="45.51928676645422" lon="12.150521397661226"><ele>7.0</ele><time>2026-03-24T18:24:37.999Z</time></trkpt><trkpt lat="45.51910201321028" lon="12.150586229855271"><ele>7.0</ele><time>2026-03-24T18:24:38.999Z</time></trkpt><trkpt lat="45.518915666021485" lon="12.150655815050316"><ele>7.0</ele><time>2026-03-24T18:24:39.999Z</time></trkpt><trkpt lat="45.51874606633171" lon="12.15072010932239"><ele>7.0</ele><time>2026-03-24T18:24:40.999Z</time></trkpt><trkpt lat="45.51860045828144" lon="12.15079255035243"><ele>6.75</ele><time>2026-03-24T18:24:41.999Z</time></trkpt><trkpt lat="45.518461305107756" lon="12.150850116520347"><ele>6.5</ele><time>2026-03-24T18:24:42.999Z</time></trkpt><trkpt lat="45.51833517829433" lon="12.150897384198222"><ele>6.25</ele><time>2026-03-24T18:24:43.999Z</time></trkpt><trkpt lat="45.51822077446397" lon="12.150941552943399"><ele>6.0</ele><time>2026-03-24T18:24:44.999Z</time></trkpt><trkpt lat="45.518100794999974" lon="12.15098788227977"><ele>6.0</ele><time>2026-03-24T18:24:45.998Z</time></trkpt><trkpt lat="45.51799058330644" lon="12.151026076390004"><ele>6.0</ele><time>2026-03-24T18:24:46.998Z</time></trkpt><trkpt lat="45.51788829980194" lon="12.151069685675628"><ele>6.0</ele><time>2026-03-24T18:24:47.998Z</time></trkpt><trkpt lat="45.517808431060814" lon="12.151097990506404"><ele>6.0</ele><time>2026-03-24T18:24:48.998Z</time></trkpt><trkpt lat="45.51774205228017" lon="12.151126660244632"><ele>6.0</ele><time>2026-03-24T18:24:49.998Z</time></trkpt><trkpt lat="45.517678659921835" lon="12.151148720684484"><ele>6.0</ele><time>2026-03-24T18:24:50.998Z</time></trkpt><trkpt lat="45.51756777173976" lon="12.151184950138493"><ele>6.199999999999999</ele><time>2026-03-24T18:24:52.998Z</time></trkpt><trkpt lat="45.51749848695389" lon="12.151188755354344"><ele>6.3999999999999995</ele><time>2026-03-24T18:24:53.998Z</time></trkpt><trkpt lat="45.51741486789546" lon="12.151163030173855"><ele>6.6</ele><time>2026-03-24T18:24:54.998Z</time></trkpt><trkpt lat="45.51732051680372" lon="12.151136925705204"><ele>6.8</ele><time>2026-03-24T18:24:55.998Z</time></trkpt><trkpt lat="45.517222282076055" lon="12.151165837223749"><ele>7.0</ele><time>2026-03-24T18:24:56.998Z</time></trkpt><trkpt lat="45.517125793203554" lon="12.151225500711616"><ele>7.0</ele><time>2026-03-24T18:24:57.998Z</time></trkpt><trkpt lat="45.51703602937462" lon="12.151303110641367"><ele>7.0</ele><time>2026-03-24T18:24:58.998Z</time></trkpt><trkpt lat="45.51691922296323" lon="12.15135081357773"><ele>7.0</ele><time>2026-03-24T18:24:59.998Z</time></trkpt><trkpt lat="45.516785901618796" lon="12.151375341657163"><ele>7.0</ele><time>2026-03-24T18:25:00.998Z</time></trkpt><trkpt lat="45.51664635147993" lon="12.151377837629243"><ele>7.0</ele><time>2026-03-24T18:25:01.998Z</time></trkpt><trkpt lat="45.51650189665666" lon="12.151359904236509"><ele>7.0</ele><time>2026-03-24T18:25:02.998Z</time></trkpt><trkpt lat="45.51635627270084" lon="12.151323560346055"><ele>7.0</ele><time>2026-03-24T18:25:03.998Z</time></trkpt><trkpt lat="45.516211355684995" lon="12.151265249719737"><ele>7.0</ele><time>2026-03-24T18:25:04.998Z</time></trkpt><trkpt lat="45.51606766077136" lon="12.151210147183638"><ele>7.0</ele><time>2026-03-24T18:25:05.998Z</time></trkpt><trkpt lat="45.51592511044378" lon="12.15116122475103"><ele>7.0</ele><time>2026-03-24T18:25:06.998Z</time></trkpt><trkpt lat="45.51578092755426" lon="12.151113182465977"><ele>7.0</ele><time>2026-03-24T18:25:07.998Z</time></trkpt><trkpt lat="45.51563107862282" lon="12.151063742445892"><ele>7.0</ele><time>2026-03-24T18:25:08.998Z</time></trkpt><trkpt lat="45.515481915474254" lon="12.151018926640722"><ele>6.666666666666667</ele><time>2026-03-24T18:25:09.998Z</time></trkpt><trkpt lat="45.51532355387192" lon="12.15096858056135"><ele>6.333333333333334</ele><time>2026-03-24T18:25:10.998Z</time></trkpt><trkpt lat="45.51515403434394" lon="12.150917616126268"><ele>6.0</ele><time>2026-03-24T18:25:11.998Z</time></trkpt><trkpt lat="45.51497793161726" lon="12.150862407517076"><ele>6.0</ele><time>2026-03-24T18:25:12.998Z</time></trkpt><trkpt lat="45.514808198213785" lon="12.15080435592289"><ele>6.0</ele><time>2026-03-24T18:25:14Z</time></trkpt><trkpt lat="45.51463654388477" lon="12.150748236848278"><ele>6.0</ele><time>2026-03-24T18:25:15.023Z</time></trkpt><trkpt lat="45.514470042696544" lon="12.150694217551742"><ele>5.75</ele><time>2026-03-24T18:25:16.017Z</time></trkpt><trkpt lat="45.51431007095341" lon="12.150644393657707"><ele>5.5</ele><time>2026-03-24T18:25:17.022Z</time></trkpt><trkpt lat="45.514161655903955" lon="12.150598080842041"><ele>5.25</ele><time>2026-03-24T18:25:18.023Z</time></trkpt><trkpt lat="45.51403073459324" lon="12.150573158348509"><ele>5.0</ele><time>2026-03-24T18:25:19Z</time></trkpt><trkpt lat="45.51385004662916" lon="12.150553628591927"><ele>5.333333333333334</ele><time>2026-03-24T18:25:20Z</time></trkpt><trkpt lat="45.513678651693375" lon="12.150511905314364"><ele>5.666666666666667</ele><time>2026-03-24T18:25:21Z</time></trkpt><trkpt lat="45.51349953528088" lon="12.150434084001791"><ele>6.0</ele><time>2026-03-24T18:25:22Z</time></trkpt><trkpt lat="45.51331888143269" lon="12.150379487955973"><ele>6.0</ele><time>2026-03-24T18:25:23Z</time></trkpt><trkpt lat="45.51316448920597" lon="12.15033459506072"><ele>6.0</ele><time>2026-03-24T18:25:24Z</time></trkpt><trkpt lat="45.51302263193106" lon="12.150312264753223"><ele>6.0</ele><time>2026-03-24T18:25:25Z</time></trkpt><trkpt lat="45.51287566497439" lon="12.15027344337057"><ele>6.5</ele><time>2026-03-24T18:25:26Z</time></trkpt><trkpt lat="45.51273565551279" lon="12.150210216177266"><ele>7.0</ele><time>2026-03-24T18:25:27Z</time></trkpt><trkpt lat="45.512588680740095" lon="12.150164735231643"><ele>7.5</ele><time>2026-03-24T18:25:28Z</time></trkpt><trkpt lat="45.512440547757365" lon="12.15011843932315"><ele>8.0</ele><time>2026-03-24T18:25:29Z</time></trkpt><trkpt lat="45.51229678194629" lon="12.150089393904953"><ele>8.0</ele><time>2026-03-24T18:25:30Z</time></trkpt><trkpt lat="45.51218753446577" lon="12.15007042620233"><ele>8.0</ele><time>2026-03-24T18:25:31Z</time></trkpt><trkpt lat="45.51205518374901" lon="12.150041422010036"><ele>8.0</ele><time>2026-03-24T18:25:32Z</time></trkpt><trkpt lat="45.511932434052234" lon="12.150028635416495"><ele>8.0</ele><time>2026-03-24T18:25:33Z</time></trkpt><trkpt lat="45.511821037319315" lon="12.150032427588352"><ele>7.6000000000000005</ele><time>2026-03-24T18:25:34Z</time></trkpt><trkpt lat="45.511716957696756" lon="12.150032308420249"><ele>7.200000000000001</ele><time>2026-03-24T18:25:35Z</time></trkpt><trkpt lat="45.511626225838285" lon="12.150002410905977"><ele>6.8</ele><time>2026-03-24T18:25:36Z</time></trkpt><trkpt lat="45.51153567416786" lon="12.149959964051767"><ele>6.4</ele><time>2026-03-24T18:25:37Z</time></trkpt><trkpt lat="45.51144278799388" lon="12.149900688816535"><ele>6.0</ele><time>2026-03-24T18:25:38Z</time></trkpt><trkpt lat="45.51133035227814" lon="12.149860555879322"><ele>5.5</ele><time>2026-03-24T18:25:39Z</time></trkpt><trkpt lat="45.51121513841888" lon="12.149829164459614"><ele>5.0</ele><time>2026-03-24T18:25:40Z</time></trkpt><trkpt lat="45.51109105210708" lon="12.149776468730954"><ele>4.5</ele><time>2026-03-24T18:25:41Z</time></trkpt><trkpt lat="45.51095790593687" lon="12.149695327631601"><ele>4.0</ele><time>2026-03-24T18:25:42Z</time></trkpt><trkpt lat="45.51082486472487" lon="12.149595321335593"><ele>4.0</ele><time>2026-03-24T18:25:43Z</time></trkpt><trkpt lat="45.510684326348404" lon="12.14949977439377"><ele>4.0</ele><time>2026-03-24T18:25:44Z</time></trkpt><trkpt lat="45.51053435028712" lon="12.149413114265066"><ele>4.0</ele><time>2026-03-24T18:25:45Z</time></trkpt><trkpt lat="45.51037044171745" lon="12.149329833123137"><ele>4.333333333333333</ele><time>2026-03-24T18:25:46Z</time></trkpt><trkpt lat="45.510187032974294" lon="12.14925119343108"><ele>4.666666666666667</ele><time>2026-03-24T18:25:47Z</time></trkpt><trkpt lat="45.510003243166096" lon="12.14917762903942"><ele>5.0</ele><time>2026-03-24T18:25:48Z</time></trkpt><trkpt lat="45.50982569019682" lon="12.149105006083111"><ele>5.0</ele><time>2026-03-24T18:25:49Z</time></trkpt><trkpt lat="45.5096632934695" lon="12.149036336864576"><ele>5.0</ele><time>2026-03-24T18:25:50Z</time></trkpt><trkpt lat="45.509506803838775" lon="12.148959701543903"><ele>5.0</ele><time>2026-03-24T18:25:51Z</time></trkpt><trkpt lat="45.50934120139226" lon="12.148876687231938"><ele>6.333333333333334</ele><time>2026-03-24T18:25:51.999Z</time></trkpt><trkpt lat="45.509171466388" lon="12.148797113546044"><ele>7.666666666666667</ele><time>2026-03-24T18:25:52.999Z</time></trkpt><trkpt lat="45.50901461534064" lon="12.148701905567128"><ele>9.0</ele><time>2026-03-24T18:25:53.999Z</time></trkpt><trkpt lat="45.508863736671714" lon="12.148620171690053"><ele>8.75</ele><time>2026-03-24T18:25:54.999Z</time></trkpt><trkpt lat="45.50872781587608" lon="12.148540297159899"><ele>8.5</ele><time>2026-03-24T18:25:55.999Z</time></trkpt><trkpt lat="45.50859705492874" lon="12.14847085616928"><ele>8.25</ele><time>2026-03-24T18:25:56.999Z</time></trkpt><trkpt lat="45.5084782537547" lon="12.148407823437994"><ele>8.0</ele><time>2026-03-24T18:25:57.999Z</time></trkpt><trkpt lat="45.50835682564623" lon="12.14835979662785"><ele>8.0</ele><time>2026-03-24T18:25:58.999Z</time></trkpt><trkpt lat="45.5082512908578" lon="12.1483058372317"><ele>8.0</ele><time>2026-03-24T18:25:59.999Z</time></trkpt><trkpt lat="45.508141527049816" lon="12.148265267439832"><ele>8.0</ele><time>2026-03-24T18:26:00.999Z</time></trkpt><trkpt lat="45.508040683011004" lon="12.148233755754084"><ele>8.0</ele><time>2026-03-24T18:26:01.999Z</time></trkpt><trkpt lat="45.50794895131919" lon="12.148215436679783"><ele>8.0</ele><time>2026-03-24T18:26:02.999Z</time></trkpt><trkpt lat="45.507870749382114" lon="12.148205818447028"><ele>7.800000000000001</ele><time>2026-03-24T18:26:03.999Z</time></trkpt><trkpt lat="45.507796174497365" lon="12.148183669665931"><ele>7.6000000000000005</ele><time>2026-03-24T18:26:04.999Z</time></trkpt><trkpt lat="45.50771388240606" lon="12.148142431532543"><ele>7.3999999999999995</ele><time>2026-03-24T18:26:05.999Z</time></trkpt><trkpt lat="45.50762289861629" lon="12.148077676859462"><ele>7.199999999999999</ele><time>2026-03-24T18:26:06.999Z</time></trkpt><trkpt lat="45.50754760478302" lon="12.14799009702103"><ele>7.0</ele><time>2026-03-24T18:26:07.999Z</time></trkpt><trkpt lat="45.507463962257255" lon="12.147906522484021"><ele>7.0</ele><time>2026-03-24T18:26:08.999Z</time></trkpt><trkpt lat="45.507373870266775" lon="12.147846396803452"><ele>6.999999999999999</ele><time>2026-03-24T18:26:09.999Z</time></trkpt><trkpt lat="45.50726902176939" lon="12.147822885818528"><ele>6.999999999999999</ele><time>2026-03-24T18:26:10.999Z</time></trkpt><trkpt lat="45.507167195599564" lon="12.147756344464945"><ele>7.0</ele><time>2026-03-24T18:26:11.999Z</time></trkpt><trkpt lat="45.50706830351927" lon="12.147645824592075"><ele>7.0</ele><time>2026-03-24T18:26:12.999Z</time></trkpt><trkpt lat="45.50695959378506" lon="12.147525692401615"><ele>7.0</ele><time>2026-03-24T18:26:13.999Z</time></trkpt><trkpt lat="45.506825677254156" lon="12.147406790787898"><ele>7.0</ele><time>2026-03-24T18:26:14.999Z</time></trkpt><trkpt lat="45.50667815740868" lon="12.147293700844372"><ele>7.0</ele><time>2026-03-24T18:26:15.999Z</time></trkpt><trkpt lat="45.50651882556143" lon="12.14718843494001"><ele>7.0</ele><time>2026-03-24T18:26:16.999Z</time></trkpt><trkpt lat="45.50634413325231" lon="12.147085031745718"><ele>7.0</ele><time>2026-03-24T18:26:17.999Z</time></trkpt><trkpt lat="45.506163677931866" lon="12.146969557656153"><ele>7.0</ele><time>2026-03-24T18:26:18.999Z</time></trkpt><trkpt lat="45.505981055819696" lon="12.146848979867308"><ele>7.0</ele><time>2026-03-24T18:26:19.999Z</time></trkpt><trkpt lat="45.50578798262098" lon="12.146734992694794"><ele>7.0</ele><time>2026-03-24T18:26:20.999Z</time></trkpt><trkpt lat="45.50558769188705" lon="12.146617519227934"><ele>7.0</ele><time>2026-03-24T18:26:21.999Z</time></trkpt><trkpt lat="45.50538457208222" lon="12.146496270935176"><ele>7.0</ele><time>2026-03-24T18:26:22.999Z</time></trkpt><trkpt lat="45.50519306927652" lon="12.146389445853154"><ele>7.0</ele><time>2026-03-24T18:26:23.999Z</time></trkpt><trkpt lat="45.50501709895386" lon="12.14630290539449"><ele>7.0</ele><time>2026-03-24T18:26:24.999Z</time></trkpt><trkpt lat="45.50485396315817" lon="12.146215810980227"><ele>7.0</ele><time>2026-03-24T18:26:25.999Z</time></trkpt><trkpt lat="45.50468929598876" lon="12.146123067466478"><ele>7.0</ele><time>2026-03-24T18:26:26.999Z</time></trkpt><trkpt lat="45.50452662641681" lon="12.14603227796678"><ele>7.0</ele><time>2026-03-24T18:26:27.999Z</time></trkpt><trkpt lat="45.50436284737916" lon="12.14594310524157"><ele>6.333333333333334</ele><time>2026-03-24T18:26:28.999Z</time></trkpt><trkpt lat="45.504203168399414" lon="12.145855316283205"><ele>5.666666666666667</ele><time>2026-03-24T18:26:29.999Z</time></trkpt><trkpt lat="45.50404676177072" lon="12.145768429928376"><ele>5.0</ele><time>2026-03-24T18:26:30.999Z</time></trkpt><trkpt lat="45.50389856033038" lon="12.145682547422876"><ele>5.0</ele><time>2026-03-24T18:26:31.999Z</time></trkpt><trkpt lat="45.50375115848843" lon="12.145600940139682"><ele>5.0</ele><time>2026-03-24T18:26:32.999Z</time></trkpt><trkpt lat="45.50360741854204" lon="12.14551561301849"><ele>5.0</ele><time>2026-03-24T18:26:33.999Z</time></trkpt><trkpt lat="45.503466138401244" lon="12.145426751794687"><ele>5.25</ele><time>2026-03-24T18:26:34.999Z</time></trkpt><trkpt lat="45.503335372402" lon="12.145332961302516"><ele>5.5</ele><time>2026-03-24T18:26:35.999Z</time></trkpt><trkpt lat="45.50320003723573" lon="12.145246778981043"><ele>5.75</ele><time>2026-03-24T18:26:36.999Z</time></trkpt><trkpt lat="45.50306782869686" lon="12.14516565659553"><ele>6.0</ele><time>2026-03-24T18:26:37.999Z</time></trkpt><trkpt lat="45.50293897111286" lon="12.145080422029315"><ele>5.75</ele><time>2026-03-24T18:26:38.999Z</time></trkpt><trkpt lat="45.502811302547556" lon="12.145002646034367"><ele>5.5</ele><time>2026-03-24T18:26:39.999Z</time></trkpt><trkpt lat="45.502687784440695" lon="12.144918428860732"><ele>5.25</ele><time>2026-03-24T18:26:40.999Z</time></trkpt><trkpt lat="45.502559208321884" lon="12.144835727879654"><ele>5.0</ele><time>2026-03-24T18:26:41.999Z</time></trkpt><trkpt lat="45.50243004421634" lon="12.144754252077075"><ele>5.0</ele><time>2026-03-24T18:26:42.999Z</time></trkpt></trkseg></trk></gpx>